AXLKJEM
HFDTE140715
HFPLTPILOT:JESUS_MUELAS
HFGTYGLIDERTYPE:
HFGIDGLIDERID:MENTOR_4
HFCCLCOMPETITIONCLASS:CLUB
HFCIDCOMPETITIONID:
HFFTYFRTYPE:LK8000
HFRFWFIRMWAREVERSION:5.3d
HFDTM100GPSDATUM:WGS-84
C1407151202390000000000-1
C4025305N00518057WTAKEOFF
C4048430N00438183WSANTO DOMINGO POS
C4025305N00518057WTAKEOFF
B1202394025302N00518055WA0177301919
B1202404025303N00518056WA0177301919
B1202414025303N00518056WA0177201919
B1202424025303N00518056WA0177201919
B1202434025303N00518056WA0177301919
B1202444025303N00518056WA0177301918
B1202454025303N00518056WA0177301918
B1202464025303N00518056WA0177301919
B1202474025303N00518056WA0177301919
B1202484025303N00518057WA0177201918
B1202494025304N00518057WA0177201918
B1202504025304N00518057WA0177201918
B1202514025304N00518057WA0177201918
B1202524025304N00518057WA0177201918
B1202534025304N00518057WA0177201918
B1202544025304N00518057WA0177201918
B1202554025304N00518057WA0177201918
B1202564025304N00518057WA0177201918
B1202574025304N00518057WA0177201918
B1202584025304N00518057WA0177201918
B1202594025304N00518057WA0177201918
B1203004025304N00518057WA0177201918
B1203014025304N00518057WA0177201918
B1203024025304N00518057WA0177201918
B1203034025304N00518057WA0177201918
B1203044025304N00518057WA0177201918
B1203054025304N00518057WA0177301917
B1203064025304N00518057WA0177301917
B1203074025304N00518057WA0177201917
B1203084025304N00518057WA0177301917
B1203094025304N00518057WA0177201916
B1203104025304N00518057WA0177301916
B1203114025304N00518057WA0177301916
B1203124025304N00518057WA0177301916
B1203134025304N00518057WA0177301916
B1203144025304N00518057WA0177301916
B1203154025304N00518057WA0177301916
B1203164025304N00518057WA0177201916
B1203174025304N00518057WA0177201916
B1203184025304N00518057WA0177301916
B1203194025304N00518057WA0177201916
B1203204025304N00518057WA0177201916
B1203214025304N00518057WA0177201915
B1203224025304N00518057WA0177201916
B1203234025304N00518057WA0177201916
B1203244025304N00518057WA0177201916
B1203264025304N00518057WA0177301916
B1203274025304N00518056WA0177301916
B1203274025303N00518056WA0177301916
B1203284025303N00518057WA0177201916
B1203294025303N00518057WA0177201917
B1203304025304N00518057WA0177201917
B1203314025304N00518057WA0177201917
B1203324025305N00518057WA0177101917
B1203334025305N00518057WA0177001917
B1203344025306N00518058WA0177101917
B1203354025308N00518060WA0177001917
B1203364025309N00518062WA0176701917
B1203374025311N00518066WA0176801916
B1203384025312N00518070WA0177001916
B1203394025314N00518074WA0177101916
B1203404025315N00518078WA0177101917
B1203414025317N00518081WA0177001918
B1203424025319N00518084WA0177001917
B1203434025321N00518087WA0176901916
B1203444025324N00518090WA0176801915
B1203454025327N00518093WA0176801915
B1203464025330N00518095WA0176901915
B1203474025333N00518096WA0177001917
B1203484025336N00518096WA0177001917
B1203494025339N00518097WA0177001918
B1203504025342N00518097WA0177201918
B1203514025346N00518098WA0177301918
B1203524025349N00518098WA0177401920
B1203534025352N00518099WA0177601922
B1203544025354N00518099WA0177801924
B1203554025356N00518099WA0177901925
B1203564025358N00518099WA0177901926
B1203574025362N00518097WA0178101927
B1203584025365N00518095WA0178201928
B1203594025368N00518093WA0178401930
B1204004025372N00518090WA0178801931
B1204014025375N00518089WA0179001934
B1204024025377N00518089WA0179201936
B1204034025379N00518090WA0179401937
B1204044025381N00518091WA0179501939
B1204054025383N00518093WA0179601940
B1204064025385N00518095WA0179701941
B1204074025387N00518099WA0180001943
B1204084025389N00518102WA0180201946
B1204094025390N00518107WA0180401948
B1204104025391N00518111WA0180601950
B1204114025392N00518115WA0180601952
B1204124025393N00518118WA0180501953
B1204134025396N00518121WA0180401953
B1204144025399N00518124WA0180301953
B1204154025402N00518125WA0180201952
B1204164025406N00518125WA0180101948
B1204174025409N00518125WA0179901945
B1204184025413N00518125WA0179601943
B1204194025416N00518124WA0179601942
B1204204025420N00518124WA0179701941
B1204214025425N00518123WA0179901941
B1204224025429N00518121WA0180101942
B1204234025432N00518120WA0180201942
B1204244025434N00518120WA0180301943
B1204254025437N00518120WA0180401944
B1204264025440N00518120WA0180401945
B1204274025443N00518120WA0180501946
B1204284025446N00518120WA0180701948
B1204294025450N00518120WA0180901950
B1204304025453N00518120WA0181001952
B1204314025456N00518119WA0181001953
B1204324025458N00518118WA0181001954
B1204334025460N00518117WA0181001954
B1204344025462N00518117WA0181001953
B1204354025466N00518117WA0181001954
B1204364025470N00518117WA0181001955
B1204374025473N00518118WA0181201958
B1204384025476N00518119WA0181401960
B1204394025478N00518120WA0181301960
B1204404025481N00518121WA0181501961
B1204414025485N00518122WA0181601963
B1204424025489N00518124WA0182001966
B1204434025493N00518125WA0182201969
B1204444025496N00518126WA0182401971
B1204454025500N00518126WA0182501971
B1204464025503N00518125WA0182601971
B1204474025508N00518124WA0182701972
B1204484025513N00518123WA0182901974
B1204494025518N00518121WA0183101976
B1204504025523N00518119WA0183401979
B1204514025526N00518116WA0183701982
B1204524025530N00518114WA0183901984
B1204534025533N00518111WA0184001984
B1204544025536N00518107WA0184001985
B1204554025539N00518102WA0184001986
B1204564025543N00518097WA0184001986
B1204574025547N00518092WA0184101987
B1204584025551N00518087WA0184201988
B1204594025556N00518082WA0184301989
B1205004025561N00518078WA0184601992
B1205014025565N00518074WA0185001996
B1205024025569N00518072WA0185201999
B1205034025573N00518069WA0185402001
B1205044025575N00518065WA0185502002
B1205054025577N00518060WA0185502003
B1205064025578N00518053WA0185502004
B1205074025578N00518044WA0185602005
B1205084025576N00518036WA0185902007
B1205094025573N00518029WA0186002009
B1205104025570N00518022WA0186102009
B1205114025564N00518016WA0186202010
B1205124025559N00518010WA0186202011
B1205134025552N00518005WA0186302012
B1205144025546N00518000WA0186502014
B1205154025539N00517997WA0186602015
B1205164025532N00517996WA0186902017
B1205174025525N00517996WA0187102019
B1205184025519N00517998WA0187302021
B1205194025513N00518001WA0187402023
B1205204025509N00518006WA0187702026
B1205214025507N00518010WA0187902028
B1205224025506N00518014WA0188102030
B1205234025507N00518018WA0188102033
B1205244025510N00518021WA0188402034
B1205254025513N00518025WA0188602037
B1205264025517N00518027WA0188902040
B1205274025521N00518028WA0189002042
B1205284025525N00518026WA0189102043
B1205294025530N00518023WA0189002042
B1205304025535N00518018WA0189002043
B1205314025538N00518010WA0189102043
B1205324025539N00518001WA0189402046
B1205334025538N00517992WA0189602047
B1205344025534N00517984WA0189802049
B1205354025529N00517977WA0190102050
B1205364025524N00517974WA0190302051
B1205374025518N00517973WA0190502052
B1205384025513N00517976WA0190602054
B1205394025509N00517980WA0190702056
B1205404025507N00517985WA0190902058
B1205414025507N00517991WA0191102059
B1205424025508N00517996WA0191202060
B1205434025512N00518000WA0191302061
B1205444025516N00518002WA0191302062
B1205454025521N00518002WA0191402062
B1205464025526N00518001WA0191402062
B1205474025531N00517997WA0191502063
B1205484025535N00517992WA0191502064
B1205494025538N00517986WA0191602065
B1205504025540N00517979WA0191602066
B1205514025542N00517971WA0191602066
B1205524025542N00517963WA0191602066
B1205534025540N00517955WA0191702066
B1205544025537N00517947WA0191802067
B1205554025534N00517939WA0191902068
B1205564025530N00517933WA0192102070
B1205574025522N00517927WA0192402072
B1205584025516N00517921WA0192502075
B1205594025511N00517917WA0192802078
B1206004025505N00517915WA0192902079
B1206014025499N00517915WA0193002079
B1206024025493N00517918WA0193002080
B1206034025489N00517925WA0193302082
B1206044025487N00517931WA0193402083
B1206054025488N00517936WA0193702085
B1206064025490N00517940WA0193702086
B1206074025493N00517943WA0193902088
B1206084025495N00517945WA0193902088
B1206094025499N00517947WA0193902089
B1206104025503N00517949WA0193802089
B1206114025507N00517951WA0193802088
B1206124025511N00517953WA0193702088
B1206134025515N00517953WA0193702087
B1206144025520N00517952WA0193702086
B1206154025525N00517950WA0193602084
B1206164025529N00517946WA0193402083
B1206174025533N00517942WA0193202082
B1206184025536N00517938WA0192902080
B1206194025540N00517934WA0192702077
B1206204025545N00517930WA0192702075
B1206214025550N00517928WA0192602075
B1206224025554N00517926WA0192702075
B1206234025558N00517925WA0192702076
B1206244025561N00517926WA0192702076
B1206254025563N00517925WA0192502075
B1206264025566N00517924WA0192402073
B1206274025569N00517922WA0192302072
B1206284025573N00517919WA0192002070
B1206294025577N00517916WA0192102070
B1206304025580N00517911WA0192002069
B1206314025584N00517904WA0192002069
B1206324025586N00517897WA0192002069
B1206334025589N00517891WA0192002069
B1206344025591N00517884WA0192102070
B1206354025593N00517877WA0192102070
B1206364025594N00517870WA0192202071
B1206374025595N00517863WA0192402072
B1206384025596N00517856WA0192402073
B1206394025598N00517849WA0192302074
B1206404025599N00517842WA0192402074
B1206414025602N00517835WA0192302075
B1206424025604N00517828WA0192402075
B1206434025607N00517821WA0192502076
B1206444025609N00517814WA0192502077
B1206454025610N00517807WA0192602078
B1206464025612N00517801WA0192602078
B1206474025615N00517794WA0192702079
B1206484025617N00517787WA0192802079
B1206494025619N00517780WA0192802081
B1206504025619N00517773WA0192802081
B1206514025620N00517766WA0192902082
B1206524025622N00517760WA0192802082
B1206534025624N00517754WA0192802081
B1206544025627N00517749WA0192702081
B1206554025630N00517745WA0192802081
B1206564025633N00517740WA0192702081
B1206574025636N00517735WA0192602080
B1206584025639N00517729WA0192502079
B1206594025641N00517722WA0192402078
B1207004025644N00517716WA0192302078
B1207014025648N00517711WA0192302077
B1207024025651N00517706WA0192202076
B1207034025655N00517702WA0192002075
B1207044025658N00517698WA0191902074
B1207054025662N00517692WA0191902072
B1207064025665N00517686WA0191802071
B1207074025669N00517680WA0191602070
B1207084025672N00517674WA0191802070
B1207094025675N00517669WA0191802070
B1207104025677N00517665WA0191802070
B1207114025679N00517661WA0191702070
B1207124025682N00517656WA0191602069
B1207134025685N00517652WA0191802069
B1207144025689N00517647WA0192002070
B1207154025692N00517641WA0192002071
B1207164025694N00517636WA0192202072
B1207174025696N00517632WA0192102072
B1207184025698N00517629WA0192102072
B1207194025700N00517625WA0192102072
B1207204025703N00517622WA0192302072
B1207214025706N00517619WA0192402074
B1207224025709N00517617WA0192402075
B1207234025712N00517616WA0192402076
B1207244025715N00517615WA0192502077
B1207254025718N00517615WA0192602077
B1207264025720N00517614WA0192602078
B1207274025723N00517615WA0192602078
B1207284025726N00517617WA0192602079
B1207294025728N00517618WA0192702079
B1207304025732N00517618WA0192802079
B1207314025736N00517616WA0192802080
B1207324025739N00517612WA0193002081
B1207334025743N00517608WA0193002082
B1207344025745N00517604WA0193102083
B1207354025748N00517598WA0193002083
B1207364025751N00517593WA0192902083
B1207374025755N00517589WA0192902082
B1207384025759N00517586WA0192902080
B1207394025765N00517584WA0192702081
B1207404025769N00517583WA0193002081
B1207414025773N00517583WA0193302083
B1207424025775N00517583WA0193402084
B1207434025777N00517583WA0193402085
B1207444025778N00517582WA0193302084
B1207454025780N00517582WA0193202082
B1207464025784N00517581WA0193002079
B1207474025787N00517581WA0192802077
B1207484025791N00517582WA0192502076
B1207494025795N00517583WA0192402074
B1207504025799N00517584WA0192302073
B1207514025803N00517585WA0192202072
B1207524025807N00517586WA0192302072
B1207534025812N00517585WA0192402072
B1207544025816N00517585WA0192302072
B1207554025820N00517584WA0192302072
B1207564025824N00517583WA0192302072
B1207574025829N00517581WA0192302072
B1207584025833N00517577WA0192202072
B1207594025838N00517574WA0192202072
B1208004025842N00517570WA0192102072
B1208014025847N00517567WA0192202072
B1208024025851N00517563WA0192002071
B1208034025855N00517559WA0192002070
B1208044025860N00517556WA0191902069
B1208054025864N00517554WA0191702068
B1208064025869N00517555WA0191602066
B1208074025874N00517557WA0191402065
B1208084025879N00517560WA0191402064
B1208094025884N00517563WA0191402064
B1208104025888N00517566WA0191302064
B1208114025891N00517569WA0191202063
B1208124025895N00517572WA0191102061
B1208134025898N00517577WA0190902058
B1208144025902N00517581WA0190802057
B1208154025907N00517585WA0190702057
B1208164025912N00517588WA0190702059
B1208174025917N00517590WA0190702059
B1208184025922N00517591WA0190602059
B1208194025927N00517593WA0190702058
B1208204025932N00517594WA0190402057
B1208214025937N00517595WA0190302056
B1208224025943N00517595WA0190102055
B1208234025949N00517594WA0190102054
B1208244025954N00517594WA0190102054
B1208254025959N00517594WA0189802054
B1208264025964N00517593WA0189902053
B1208274025970N00517593WA0189702051
B1208284025975N00517592WA0189502048
B1208294025980N00517589WA0189302046
B1208304025985N00517585WA0189102045
B1208314025990N00517579WA0189102044
B1208324025994N00517574WA0189002042
B1208334025998N00517568WA0188802041
B1208344026001N00517561WA0188802040
B1208354026004N00517553WA0188702039
B1208364026007N00517545WA0188602039
B1208374026011N00517538WA0188602038
B1208384026014N00517530WA0188502038
B1208394026018N00517523WA0188502038
B1208404026021N00517516WA0188602038
B1208414026025N00517509WA0188502037
B1208424026028N00517502WA0188502037
B1208434026031N00517494WA0188402037
B1208444026034N00517487WA0188302036
B1208454026037N00517479WA0188302035
B1208464026040N00517472WA0188202035
B1208474026044N00517464WA0188102034
B1208484026047N00517456WA0188302034
B1208494026049N00517449WA0188202034
B1208504026052N00517441WA0188202034
B1208514026055N00517435WA0188302035
B1208524026058N00517428WA0188202035
B1208534026061N00517421WA0188302035
B1208544026063N00517414WA0188302035
B1208554026066N00517406WA0188402036
B1208564026068N00517397WA0188602037
B1208574026070N00517389WA0188702039
B1208584026072N00517381WA0188802040
B1208594026073N00517372WA0188902041
B1209004026073N00517363WA0189102042
B1209014026072N00517354WA0189102043
B1209024026071N00517344WA0189202045
B1209034026069N00517335WA0189302046
B1209044026067N00517326WA0189402047
B1209054026066N00517317WA0189602048
B1209064026066N00517308WA0189502048
B1209074026067N00517299WA0189502048
B1209084026069N00517291WA0189602049
B1209094026071N00517284WA0189802050
B1209104026074N00517277WA0189802051
B1209114026077N00517271WA0190002052
B1209124026080N00517265WA0189902053
B1209134026082N00517259WA0190202055
B1209144026083N00517252WA0190202056
B1209154026084N00517246WA0190202057
B1209164026086N00517240WA0190102056
B1209174026088N00517235WA0190002055
B1209184026092N00517231WA0189902054
B1209194026096N00517229WA0190002054
B1209204026100N00517227WA0190002054
B1209214026103N00517225WA0190002054
B1209224026106N00517224WA0189902053
B1209234026109N00517224WA0189702050
B1209244026112N00517225WA0189502048
B1209254026115N00517228WA0189502047
B1209264026118N00517231WA0189402046
B1209274026120N00517233WA0189302045
B1209284026123N00517235WA0189302044
B1209294026126N00517238WA0189102042
B1209304026127N00517241WA0189102041
B1209314026129N00517245WA0188802040
B1209324026129N00517249WA0188902040
B1209334026130N00517254WA0188902039
B1209344026130N00517258WA0188802039
B1209354026130N00517262WA0188802038
B1209364026130N00517267WA0188702038
B1209374026130N00517272WA0188602037
B1209384026131N00517278WA0188402037
B1209394026131N00517283WA0188502036
B1209404026131N00517289WA0188602036
B1209414026131N00517294WA0188602036
B1209424026131N00517299WA0188602036
B1209434026132N00517304WA0188502036
B1209444026133N00517308WA0188402035
B1209454026134N00517312WA0188302034
B1209464026136N00517315WA0188302034
B1209474026138N00517319WA0188102033
B1209484026140N00517323WA0188202033
B1209494026143N00517327WA0188202033
B1209504026145N00517330WA0188202032
B1209514026147N00517334WA0188102032
B1209524026149N00517337WA0188002031
B1209534026151N00517342WA0188002030
B1209544026152N00517347WA0187902029
B1209554026152N00517353WA0187802029
B1209564026151N00517359WA0187802030
B1209574026151N00517365WA0187802030
B1209584026152N00517370WA0187702029
B1209594026155N00517375WA0187802029
B1210004026157N00517379WA0187802031
B1210014026160N00517383WA0187902031
B1210024026162N00517386WA0187802031
B1210034026165N00517388WA0187802031
B1210044026167N00517391WA0187702030
B1210054026168N00517394WA0187502030
B1210064026167N00517400WA0187502029
B1210074026166N00517406WA0187302028
B1210084026162N00517412WA0187102026
B1210094026157N00517417WA0187102025
B1210104026153N00517422WA0187102025
B1210114026148N00517426WA0187002024
B1210124026142N00517428WA0187002022
B1210134026135N00517430WA0186902021
B1210144026128N00517430WA0186902020
B1210154026120N00517430WA0187102021
B1210164026113N00517429WA0187202022
B1210174026105N00517427WA0187602025
B1210184026100N00517423WA0187902029
B1210194026094N00517418WA0188002031
B1210204026092N00517412WA0188102033
B1210214026088N00517406WA0188202034
B1210224026084N00517399WA0188302035
B1210234026078N00517393WA0188402036
B1210244026071N00517388WA0188402037
B1210254026065N00517383WA0188702039
B1210264026058N00517377WA0188902042
B1210274026053N00517373WA0189202043
B1210284026047N00517371WA0189302044
B1210294026040N00517371WA0189402045
B1210304026034N00517372WA0189502047
B1210314026028N00517374WA0189702048
B1210324026022N00517376WA0189902050
B1210334026017N00517379WA0190102052
B1210344026014N00517383WA0190102052
B1210354026010N00517387WA0190102053
B1210364026007N00517391WA0190202053
B1210374026006N00517395WA0190202054
B1210384026006N00517398WA0190302054
B1210394026009N00517400WA0190202054
B1210404026012N00517401WA0190202055
B1210414026016N00517401WA0190002054
B1210424026019N00517400WA0190002054
B1210434026023N00517397WA0189802051
B1210444026027N00517395WA0189802050
B1210454026030N00517392WA0189702050
B1210464026034N00517387WA0189702049
B1210474026037N00517381WA0189702049
B1210484026039N00517374WA0189802049
B1210494026042N00517367WA0190102051
B1210504026044N00517360WA0190302052
B1210514026047N00517355WA0190402055
B1210524026049N00517349WA0190702059
B1210534026050N00517344WA0190902061
B1210544026051N00517337WA0191202063
B1210554026050N00517330WA0191202064
B1210564026048N00517321WA0191402066
B1210574026046N00517314WA0191502068
B1210584026041N00517307WA0191502069
B1210594026035N00517303WA0191702070
B1211004026027N00517301WA0191902072
B1211014026020N00517301WA0192202075
B1211024026015N00517302WA0192502078
B1211034026009N00517303WA0192702080
B1211044026003N00517307WA0192802081
B1211054025999N00517311WA0193002078
B1211064025998N00517317WA0193002079
B1211074025999N00517323WA0193002079
B1211084026001N00517327WA0193002080
B1211094026005N00517330WA0193102081
B1211104026008N00517332WA0193402083
B1211114026010N00517333WA0193602085
B1211124026013N00517335WA0193702085
B1211134026017N00517335WA0193602084
B1211144026021N00517333WA0193902084
B1211154026025N00517329WA0193902086
B1211164026028N00517324WA0194002087
B1211174026031N00517318WA0194302089
B1211184026033N00517312WA0194302091
B1211194026034N00517304WA0194302092
B1211204026034N00517296WA0194202092
B1211214026032N00517287WA0194202092
B1211224026029N00517277WA0194202093
B1211234026025N00517269WA0194302094
B1211244026019N00517263WA0194402095
B1211254026010N00517261WA0194502097
B1211264026003N00517260WA0194702098
B1211274025995N00517261WA0195002100
B1211284025988N00517263WA0195202102
B1211294025982N00517266WA0195502106
B1211304025977N00517270WA0195802109
B1211314025973N00517274WA0195902112
B1211324025970N00517278WA0196102112
B1211334025968N00517283WA0196102112
B1211344025966N00517287WA0196102113
B1211354025965N00517293WA0196002113
B1211364025964N00517298WA0196002113
B1211374025964N00517304WA0196002113
B1211384025963N00517309WA0196002113
B1211394025962N00517315WA0196202114
B1211404025961N00517320WA0196202115
B1211414025959N00517325WA0196202115
B1211424025957N00517331WA0196102115
B1211434025956N00517337WA0196102114
B1211444025953N00517343WA0196202114
B1211454025951N00517349WA0196102114
B1211464025950N00517355WA0196102115
B1211474025949N00517361WA0196102116
B1211484025949N00517367WA0196202117
B1211494025948N00517373WA0196302117
B1211504025947N00517380WA0196302118
B1211514025946N00517386WA0196502119
B1211524025946N00517392WA0196602121
B1211534025946N00517397WA0196802123
B1211544025946N00517403WA0196902125
B1211554025946N00517408WA0197202127
B1211564025947N00517413WA0197302129
B1211574025947N00517418WA0197402130
B1211584025947N00517422WA0197302131
B1211594025948N00517425WA0197302132
B1212004025951N00517428WA0197102131
B1212014025954N00517430WA0197002129
B1212024025959N00517431WA0196702127
B1212034025964N00517430WA0196602125
B1212044025970N00517428WA0196702124
B1212054025975N00517424WA0196802123
B1212064025979N00517420WA0197002124
B1212074025982N00517415WA0196902124
B1212084025985N00517410WA0197002126
B1212094025988N00517405WA0197102127
B1212104025991N00517401WA0197202127
B1212114025995N00517396WA0197302128
B1212124025998N00517393WA0197302129
B1212134026001N00517390WA0197302130
B1212144026003N00517387WA0197202129
B1212154026006N00517385WA0197002127
B1212164026009N00517382WA0196802126
B1212174026012N00517379WA0196802124
B1212184026016N00517376WA0196702123
B1212194026019N00517371WA0196602122
B1212204026022N00517367WA0196402121
B1212214026024N00517362WA0196302120
B1212224026027N00517359WA0196002118
B1212234026031N00517357WA0195902116
B1212244026035N00517357WA0195702115
B1212254026038N00517357WA0195502113
B1212264026043N00517358WA0195602112
B1212274026047N00517358WA0195502111
B1212284026052N00517359WA0195402111
B1212294026056N00517359WA0195402111
B1212304026061N00517360WA0195502110
B1212314026065N00517360WA0195402110
B1212324026069N00517361WA0195402109
B1212334026073N00517363WA0195202108
B1212344026077N00517365WA0195102106
B1212354026081N00517368WA0194902105
B1212364026085N00517371WA0194902105
B1212374026089N00517375WA0195002105
B1212384026092N00517378WA0195002105
B1212394026095N00517381WA0195002105
B1212404026099N00517384WA0194802104
B1212414026102N00517387WA0194702102
B1212424026105N00517391WA0194502101
B1212434026108N00517396WA0194502101
B1212444026110N00517401WA0194502100
B1212454026112N00517407WA0194502099
B1212464026114N00517411WA0194302098
B1212474026117N00517415WA0194202097
B1212484026119N00517419WA0193902095
B1212494026121N00517423WA0193702093
B1212504026123N00517429WA0193402091
B1212514026126N00517434WA0193302089
B1212524026130N00517437WA0193102087
B1212534026135N00517440WA0192902085
B1212544026139N00517441WA0192802083
B1212554026144N00517443WA0192702082
B1212564026149N00517444WA0192402079
B1212574026154N00517443WA0192102076
B1212584026159N00517442WA0191802072
B1212594026165N00517441WA0191402070
B1213004026170N00517440WA0191402067
B1213014026176N00517439WA0191202065
B1213024026181N00517439WA0191002064
B1213034026187N00517438WA0190902062
B1213044026192N00517437WA0190702060
B1213054026198N00517435WA0190502058
B1213064026204N00517433WA0190402056
B1213074026209N00517431WA0190202055
B1213084026214N00517430WA0190002053
B1213094026220N00517428WA0189802051
B1213104026225N00517426WA0189702049
B1213114026231N00517424WA0189402046
B1213124026237N00517420WA0189402044
B1213134026242N00517416WA0189102043
B1213144026247N00517412WA0189102041
B1213154026252N00517407WA0188902039
B1213164026256N00517403WA0188702037
B1213174026261N00517399WA0188402035
B1213184026266N00517395WA0188302032
B1213194026271N00517392WA0188002030
B1213204026276N00517389WA0188002029
B1213214026281N00517388WA0187802028
B1213224026286N00517386WA0187702026
B1213234026291N00517386WA0187602024
B1213244026295N00517385WA0187302022
B1213254026301N00517384WA0187102019
B1213264026306N00517382WA0187002017
B1213274026311N00517381WA0186802014
B1213284026317N00517380WA0186602013
B1213294026322N00517379WA0186502012
B1213304026327N00517379WA0186302011
B1213314026332N00517378WA0186102008
B1213324026337N00517376WA0185902006
B1213334026343N00517375WA0185802004
B1213344026348N00517374WA0185602003
B1213354026353N00517373WA0185502002
B1213364026359N00517373WA0185402001
B1213374026364N00517372WA0185202000
B1213384026369N00517371WA0185101999
B1213394026373N00517369WA0184901998
B1213404026378N00517368WA0184901996
B1213414026383N00517366WA0184601994
B1213424026388N00517365WA0184501992
B1213434026393N00517363WA0184301990
B1213444026398N00517360WA0184301989
B1213454026402N00517356WA0184001987
B1213464026407N00517352WA0183801986
B1213474026411N00517348WA0183701984
B1213484026416N00517344WA0183501982
B1213494026421N00517339WA0183501981
B1213504026425N00517335WA0183401979
B1213514026429N00517331WA0183201978
B1213524026433N00517327WA0183001976
B1213534026438N00517323WA0182701973
B1213544026442N00517320WA0182601970
B1213554026447N00517316WA0182101967
B1213564026452N00517311WA0181901965
B1213574026456N00517307WA0181901963
B1213584026461N00517302WA0181701962
B1213594026466N00517298WA0181601960
B1214004026471N00517295WA0181401959
B1214014026476N00517291WA0181101957
B1214024026480N00517287WA0181001955
B1214034026484N00517282WA0180901953
B1214044026489N00517277WA0180601951
B1214054026494N00517272WA0180401949
B1214064026499N00517268WA0180201947
B1214074026504N00517265WA0180001946
B1214084026510N00517263WA0180001944
B1214094026515N00517260WA0180001943
B1214104026521N00517258WA0179801943
B1214114026526N00517256WA0179701942
B1214124026531N00517254WA0179601940
B1214134026537N00517253WA0179501939
B1214144026542N00517253WA0179301937
B1214154026547N00517253WA0179101936
B1214164026553N00517253WA0179101934
B1214174026558N00517253WA0178901933
B1214184026564N00517254WA0178901932
B1214194026569N00517254WA0178901931
B1214204026575N00517255WA0179001931
B1214214026580N00517257WA0179001931
B1214224026585N00517258WA0179001932
B1214234026590N00517259WA0179001932
B1214244026594N00517260WA0178901931
B1214254026599N00517262WA0178801930
B1214264026604N00517264WA0178801929
B1214274026609N00517265WA0178701928
B1214284026615N00517265WA0178701928
B1214294026621N00517263WA0178701929
B1214304026626N00517261WA0178801931
B1214314026631N00517259WA0179001932
B1214324026635N00517257WA0179001933
B1214334026639N00517253WA0179101933
B1214344026644N00517249WA0179001933
B1214354026648N00517244WA0179001934
B1214364026652N00517238WA0179001934
B1214374026655N00517233WA0178801933
B1214384026659N00517228WA0178901933
B1214394026664N00517225WA0178901933
B1214404026668N00517221WA0178901933
B1214414026672N00517218WA0178901933
B1214424026676N00517214WA0178901932
B1214434026680N00517210WA0179001933
B1214444026685N00517208WA0179101935
B1214454026689N00517206WA0179201936
B1214464026694N00517206WA0179401938
B1214474026698N00517206WA0179501939
B1214484026702N00517206WA0179601940
B1214494026706N00517207WA0179601940
B1214504026710N00517208WA0179501939
B1214514026715N00517211WA0179701939
B1214524026720N00517214WA0179701940
B1214534026725N00517218WA0179801941
B1214544026730N00517222WA0180001943
B1214554026735N00517226WA0180101944
B1214564026740N00517229WA0180201946
B1214574026744N00517233WA0180501948
B1214584026749N00517236WA0180601949
B1214594026754N00517240WA0180701952
B1215004026758N00517242WA0181001954
B1215014026762N00517245WA0181201957
B1215024026764N00517248WA0181201959
B1215034026765N00517252WA0181201959
B1215044026765N00517257WA0180901959
B1215054026764N00517262WA0180601958
B1215064026762N00517267WA0180401957
B1215074026759N00517273WA0180101955
B1215084026756N00517278WA0180001952
B1215094026752N00517284WA0179901951
B1215104026747N00517288WA0179901952
B1215114026742N00517290WA0179901952
B1215124026737N00517291WA0179801952
B1215134026732N00517291WA0179701950
B1215144026726N00517289WA0179501948
B1215154026720N00517286WA0179401946
B1215164026714N00517280WA0179201944
B1215174026708N00517272WA0179101942
B1215184026703N00517263WA0179201941
B1215194026698N00517252WA0179101942
B1215204026696N00517241WA0179301942
B1215214026694N00517231WA0179301942
B1215224026694N00517221WA0179301942
B1215234026694N00517212WA0179301942
B1215244026694N00517203WA0179401942
B1215254026695N00517194WA0179401942
B1215264026698N00517186WA0179701943
B1215274026702N00517179WA0179801946
B1215284026705N00517173WA0180101948
B1215294026709N00517167WA0180301950
B1215304026712N00517163WA0180501953
B1215314026716N00517158WA0180701954
B1215324026719N00517155WA0180801956
B1215334026723N00517152WA0180901957
B1215344026727N00517149WA0181001958
B1215354026731N00517145WA0181101958
B1215364026735N00517139WA0181001958
B1215374026739N00517133WA0181101958
B1215384026742N00517126WA0181201959
B1215394026743N00517117WA0181201959
B1215404026744N00517108WA0181201960
B1215414026743N00517099WA0181101960
B1215424026741N00517091WA0181001959
B1215434026737N00517084WA0180901958
B1215444026733N00517078WA0180901957
B1215454026728N00517072WA0180801956
B1215464026723N00517068WA0180701955
B1215474026717N00517066WA0180601954
B1215484026711N00517065WA0180601953
B1215494026706N00517066WA0180601953
B1215504026701N00517068WA0180801954
B1215514026696N00517070WA0181001958
B1215524026692N00517073WA0181201960
B1215534026688N00517075WA0181401961
B1215544026684N00517077WA0181501963
B1215554026679N00517078WA0181701965
B1215564026674N00517078WA0182001967
B1215574026670N00517079WA0182201969
B1215584026666N00517081WA0182301971
B1215594026662N00517085WA0182301972
B1216004026660N00517090WA0182501973
B1216014026660N00517096WA0182701973
B1216024026662N00517101WA0182701974
B1216034026667N00517104WA0182901975
B1216044026674N00517106WA0183001976
B1216054026679N00517106WA0183101977
B1216064026684N00517106WA0183201979
B1216074026688N00517105WA0183301979
B1216084026694N00517102WA0183401980
B1216094026699N00517098WA0183501982
B1216104026704N00517093WA0183801984
B1216114026709N00517087WA0184001988
B1216124026713N00517080WA0184301990
B1216134026715N00517073WA0184401993
B1216144026716N00517065WA0184501995
B1216154026716N00517057WA0184501995
B1216164026714N00517048WA0184501995
B1216174026710N00517039WA0184501996
B1216184026705N00517032WA0184801998
B1216194026700N00517027WA0185002000
B1216204026695N00517022WA0185202003
B1216214026691N00517019WA0185302005
B1216224026685N00517017WA0185402006
B1216234026680N00517017WA0185502007
B1216244026675N00517018WA0185602007
B1216254026670N00517021WA0185802008
B1216264026667N00517025WA0185902010
B1216274026664N00517030WA0186102012
B1216284026664N00517035WA0186302014
B1216294026664N00517039WA0186402015
B1216304026664N00517043WA0186702017
B1216314026665N00517048WA0186902020
B1216324026667N00517051WA0187002021
B1216334026668N00517054WA0187102023
B1216344026672N00517056WA0187202024
B1216354026678N00517058WA0187402026
B1216364026684N00517059WA0187602029
B1216374026689N00517060WA0188002032
B1216384026694N00517060WA0188202034
B1216394026700N00517059WA0188402036
B1216404026705N00517056WA0188502037
B1216414026710N00517051WA0188502037
B1216424026714N00517043WA0188502037
B1216434026716N00517035WA0188402037
B1216444026716N00517026WA0188502037
B1216454026715N00517017WA0188502038
B1216464026713N00517009WA0188702038
B1216474026709N00517002WA0188702040
B1216484026705N00516997WA0188702041
B1216494026701N00516992WA0188902042
B1216504026696N00516989WA0188902042
B1216514026691N00516987WA0188902042
B1216524026686N00516988WA0189002043
B1216534026682N00516991WA0189102043
B1216544026679N00516995WA0189302045
B1216554026677N00516998WA0189402048
B1216564026675N00517002WA0189602050
B1216574026673N00517006WA0189802051
B1216584026672N00517010WA0189802053
B1216594026673N00517014WA0189802053
B1217004026675N00517019WA0190002053
B1217014026678N00517023WA0190202054
B1217024026682N00517027WA0190402055
B1217034026686N00517030WA0190302056
B1217044026691N00517032WA0190502058
B1217054026696N00517032WA0190702060
B1217064026700N00517031WA0190802061
B1217074026704N00517030WA0190702061
B1217084026708N00517029WA0190802061
B1217094026712N00517028WA0190502058
B1217104026717N00517025WA0190502056
B1217114026720N00517021WA0190202054
B1217124026723N00517015WA0190102052
B1217134026725N00517008WA0189602049
B1217144026726N00517000WA0189502047
B1217154026726N00516991WA0189302045
B1217164026725N00516982WA0189202043
B1217174026724N00516973WA0189402043
B1217184026723N00516964WA0189502043
B1217194026721N00516956WA0189602043
B1217204026718N00516949WA0189702044
B1217214026715N00516943WA0189702044
B1217224026710N00516937WA0189602044
B1217234026705N00516934WA0189602043
B1217244026698N00516932WA0189602044
B1217254026693N00516933WA0189802045
B1217264026687N00516934WA0190002047
B1217274026682N00516937WA0190202050
B1217284026678N00516939WA0190402052
B1217294026674N00516942WA0190602054
B1217304026671N00516945WA0190802056
B1217314026669N00516949WA0190902058
B1217324026668N00516953WA0191102059
B1217334026668N00516958WA0191102060
B1217344026671N00516963WA0191102061
B1217354026674N00516966WA0191102062
B1217364026678N00516967WA0191202062
B1217374026682N00516966WA0191102062
B1217384026686N00516962WA0191102063
B1217394026689N00516957WA0191102062
B1217404026691N00516951WA0191102061
B1217414026692N00516942WA0191002061
B1217424026692N00516933WA0191002060
B1217434026691N00516924WA0191102061
B1217444026689N00516916WA0191202061
B1217454026685N00516909WA0191302062
B1217464026681N00516902WA0191402064
B1217474026677N00516896WA0191502065
B1217484026672N00516891WA0191602067
B1217494026667N00516888WA0191802068
B1217504026661N00516885WA0191902070
B1217514026655N00516885WA0192302072
B1217524026650N00516885WA0192502075
B1217534026646N00516888WA0192702077
B1217544026644N00516892WA0192802079
B1217554026645N00516897WA0193002079
B1217564026647N00516902WA0193102081
B1217574026651N00516905WA0193302082
B1217584026656N00516906WA0193402084
B1217594026661N00516904WA0193502085
B1218004026666N00516899WA0193502085
B1218014026669N00516893WA0193602086
B1218024026671N00516885WA0193702087
B1218034026671N00516877WA0193702087
B1218044026669N00516868WA0193702087
B1218054026666N00516859WA0193802088
B1218064026662N00516851WA0193902088
B1218074026657N00516844WA0194202090
B1218084026651N00516838WA0194402094
B1218094026645N00516835WA0194602096
B1218104026639N00516835WA0194802097
B1218114026634N00516837WA0195002099
B1218124026631N00516841WA0195302101
B1218134026629N00516845WA0195602104
B1218144026629N00516849WA0195702106
B1218154026630N00516853WA0195902108
B1218164026635N00516856WA0196002109
B1218174026640N00516857WA0196102110
B1218184026645N00516854WA0196302111
B1218194026651N00516849WA0196502113
B1218204026655N00516842WA0196802115
B1218214026656N00516834WA0197002117
B1218224026657N00516825WA0197202119
B1218234026656N00516816WA0197302121
B1218244026655N00516807WA0197502122
B1218254026652N00516797WA0197702124
B1218264026648N00516789WA0197902127
B1218274026642N00516783WA0198102129
B1218284026636N00516780WA0198302131
B1218294026631N00516779WA0198402134
B1218304026626N00516780WA0198602136
B1218314026622N00516782WA0198602136
B1218324026620N00516787WA0198802138
B1218334026619N00516793WA0199102140
B1218344026619N00516798WA0199402143
B1218354026620N00516803WA0199702147
B1218364026621N00516808WA0199902152
B1218374026623N00516811WA0200202154
B1218384026626N00516815WA0200302156
B1218394026630N00516817WA0200402157
B1218404026635N00516818WA0200402158
B1218414026640N00516816WA0200402158
B1218424026644N00516810WA0200502159
B1218434026647N00516803WA0200702160
B1218444026649N00516795WA0200902162
B1218454026651N00516786WA0201102164
B1218464026651N00516777WA0201402167
B1218474026649N00516768WA0201602170
B1218484026647N00516759WA0201802172
B1218494026642N00516752WA0201902174
B1218504026636N00516746WA0202202176
B1218514026629N00516743WA0202402179
B1218524026623N00516742WA0202902184
B1218534026618N00516743WA0203002188
B1218544026614N00516744WA0203102189
B1218554026614N00516749WA0203202187
B1218564026617N00516756WA0203502188
B1218574026620N00516761WA0203702192
B1218584026625N00516764WA0204002195
B1218594026630N00516764WA0204102198
B1219004026635N00516762WA0204402200
B1219014026641N00516757WA0204602201
B1219024026646N00516751WA0204802204
B1219034026649N00516742WA0204902206
B1219044026650N00516732WA0205202207
B1219054026649N00516722WA0205402209
B1219064026647N00516713WA0205402211
B1219074026643N00516705WA0205502212
B1219084026638N00516697WA0205602213
B1219094026633N00516691WA0205702214
B1219104026626N00516687WA0205902216
B1219114026619N00516685WA0206102219
B1219124026612N00516684WA0206502223
B1219134026606N00516683WA0206902227
B1219144026601N00516683WA0207302232
B1219154026597N00516684WA0207502236
B1219164026593N00516685WA0207602239
B1219174026590N00516689WA0207702241
B1219184026589N00516694WA0207802242
B1219194026590N00516699WA0208002244
B1219204026593N00516703WA0208102247
B1219214026599N00516703WA0208402249
B1219224026604N00516700WA0208602251
B1219234026609N00516694WA0208902254
B1219244026612N00516686WA0209302257
B1219254026614N00516677WA0209702261
B1219264026614N00516668WA0210002264
B1219274026611N00516660WA0210102266
B1219284026606N00516653WA0210302267
B1219294026600N00516648WA0210502269
B1219304026594N00516645WA0210502272
B1219314026589N00516645WA0210902274
B1219324026585N00516647WA0211102276
B1219334026582N00516651WA0211202278
B1219344026580N00516654WA0211502280
B1219354026580N00516658WA0211602281
B1219364026581N00516662WA0211702283
B1219374026583N00516666WA0211902284
B1219384026586N00516669WA0212102286
B1219394026589N00516671WA0212202288
B1219404026593N00516672WA0212602291
B1219414026598N00516674WA0212902294
B1219424026602N00516675WA0213302298
B1219434026605N00516676WA0213602301
B1219444026609N00516676WA0213902303
B1219454026613N00516674WA0214002305
B1219464026617N00516671WA0214002304
B1219474026621N00516666WA0214202305
B1219484026624N00516659WA0214502307
B1219494026625N00516650WA0214802311
B1219504026624N00516641WA0215202315
B1219514026623N00516633WA0215602319
B1219524026621N00516625WA0216002323
B1219534026618N00516617WA0216402328
B1219544026613N00516611WA0216902332
B1219554026608N00516608WA0217002336
B1219564026604N00516608WA0217402339
B1219574026600N00516611WA0217602341
B1219584026598N00516616WA0217802344
B1219594026596N00516621WA0218102347
B1220004026598N00516626WA0218202349
B1220014026600N00516631WA0218602352
B1220024026603N00516634WA0218902356
B1220034026607N00516635WA0219102359
B1220044026610N00516635WA0219302360
B1220054026614N00516634WA0219402362
B1220064026618N00516631WA0219302363
B1220074026622N00516627WA0219402362
B1220084026626N00516619WA0219402362
B1220094026629N00516611WA0219502362
B1220104026632N00516602WA0219702364
B1220114026633N00516592WA0219902366
B1220124026634N00516584WA0220102369
B1220134026634N00516575WA0220402372
B1220144026634N00516566WA0220502374
B1220154026633N00516559WA0220602375
B1220164026630N00516552WA0220702376
B1220174026626N00516545WA0220802376
B1220184026620N00516540WA0220902377
B1220194026614N00516535WA0221002379
B1220204026607N00516531WA0221302381
B1220214026601N00516528WA0221602384
B1220224026594N00516526WA0221902388
B1220234026587N00516524WA0222302391
B1220244026581N00516522WA0222502395
B1220254026575N00516523WA0222902398
B1220264026570N00516526WA0223102401
B1220274026566N00516530WA0223602404
B1220284026562N00516533WA0224002409
B1220294026559N00516537WA0224402414
B1220304026556N00516541WA0224702418
B1220314026555N00516545WA0225102421
B1220324026555N00516550WA0225202425
B1220334026557N00516554WA0225602429
B1220344026560N00516557WA0225902432
B1220354026564N00516559WA0226502436
B1220364026569N00516559WA0226602438
B1220374026574N00516555WA0226902440
B1220384026577N00516549WA0227102442
B1220394026579N00516541WA0227402445
B1220404026580N00516531WA0227502447
B1220414026578N00516522WA0227902451
B1220424026576N00516513WA0228102454
B1220434026572N00516506WA0228502458
B1220444026566N00516500WA0228702461
B1220454026561N00516494WA0229002464
B1220464026554N00516490WA0229302468
B1220474026547N00516487WA0229602472
B1220484026540N00516486WA0230002476
B1220494026534N00516488WA0230302479
B1220504026530N00516491WA0230702483
B1220514026526N00516496WA0231002487
B1220524026525N00516502WA0231302491
B1220534026524N00516507WA0231702494
B1220544026525N00516512WA0231902498
B1220554026528N00516516WA0232202501
B1220564026533N00516518WA0232302504
B1220574026538N00516518WA0232702506
B1220584026545N00516517WA0233002510
B1220594026550N00516515WA0233202513
B1221004026554N00516510WA0233602517
B1221014026557N00516504WA0233802520
B1221024026559N00516497WA0234002523
B1221034026560N00516488WA0234102525
B1221044026560N00516479WA0234202527
B1221054026559N00516468WA0234702530
B1221064026558N00516459WA0235102535
B1221074026554N00516451WA0235602540
B1221084026550N00516445WA0235902542
B1221094026545N00516442WA0236302545
B1221104026539N00516443WA0236602548
B1221114026534N00516445WA0236902551
B1221124026528N00516448WA0237202556
B1221134026524N00516453WA0237602561
B1221144026521N00516457WA0238002565
B1221154026520N00516462WA0238302569
B1221164026520N00516466WA0238602573
B1221174026522N00516470WA0238802576
B1221184026525N00516473WA0239102579
B1221194026529N00516476WA0239502583
B1221204026533N00516477WA0239702586
B1221214026537N00516478WA0239902588
B1221224026542N00516478WA0240002589
B1221234026546N00516475WA0240002591
B1221244026551N00516470WA0240002591
B1221254026555N00516462WA0240002591
B1221264026558N00516453WA0240202593
B1221274026559N00516443WA0240502595
B1221284026559N00516433WA0240802598
B1221294026559N00516423WA0241202602
B1221304026557N00516414WA0241702606
B1221314026555N00516408WA0241902609
B1221324026551N00516403WA0242102610
B1221334026546N00516398WA0242302611
B1221344026540N00516395WA0242502613
B1221354026534N00516392WA0242802616
B1221364026528N00516391WA0243102620
B1221374026523N00516393WA0243302623
B1221384026518N00516395WA0243602626
B1221394026514N00516399WA0243702628
B1221404026510N00516403WA0243902629
B1221414026509N00516409WA0244102631
B1221424026509N00516414WA0244302634
B1221434026509N00516420WA0244702636
B1221444026511N00516425WA0245002639
B1221454026512N00516429WA0245302642
B1221464026514N00516434WA0245602645
B1221474026516N00516438WA0245902648
B1221484026518N00516442WA0246202652
B1221494026522N00516444WA0246502655
B1221504026527N00516445WA0246802657
B1221514026532N00516443WA0247002659
B1221524026537N00516439WA0247202661
B1221534026541N00516432WA0247202663
B1221544026544N00516423WA0247302665
B1221554026545N00516415WA0247302666
B1221564026543N00516405WA0247302666
B1221574026541N00516397WA0247502667
B1221584026536N00516390WA0247502668
B1221594026531N00516384WA0247902669
B1222004026525N00516381WA0247902671
B1222014026519N00516380WA0248102672
B1222024026514N00516381WA0248202673
B1222034026508N00516382WA0248302674
B1222044026503N00516385WA0248302674
B1222054026499N00516390WA0248602675
B1222064026495N00516396WA0248902677
B1222074026491N00516401WA0249302681
B1222084026489N00516406WA0249402684
B1222094026488N00516411WA0249702687
B1222104026488N00516416WA0249802689
B1222114026489N00516420WA0250002691
B1222124026492N00516423WA0250002692
B1222134026495N00516425WA0250002693
B1222144026499N00516425WA0250002693
B1222154026504N00516424WA0250202694
B1222164026509N00516422WA0250202695
B1222174026514N00516421WA0250302697
B1222184026519N00516421WA0250702699
B1222194026524N00516422WA0250802701
B1222204026529N00516423WA0251102703
B1222214026533N00516424WA0251202705
B1222224026538N00516425WA0251202705
B1222234026542N00516426WA0251102705
B1222244026546N00516427WA0251002705
B1222254026551N00516429WA0250802705
B1222264026556N00516432WA0250802704
B1222274026561N00516435WA0250702704
B1222284026566N00516437WA0250502701
B1222294026571N00516440WA0250302698
B1222304026576N00516443WA0250102694
B1222314026580N00516446WA0249602689
B1222324026585N00516449WA0249102685
B1222334026590N00516452WA0248802681
B1222344026596N00516456WA0248602678
B1222354026601N00516459WA0248602676
B1222364026606N00516463WA0248502676
B1222374026610N00516466WA0248302674
B1222384026613N00516468WA0248202673
B1222394026616N00516471WA0247902670
B1222404026620N00516475WA0247602668
B1222414026624N00516479WA0247402665
B1222424026628N00516482WA0247202663
B1222434026633N00516486WA0247102663
B1222444026637N00516489WA0247202662
B1222454026642N00516491WA0247202662
B1222464026645N00516493WA0247102662
B1222474026648N00516494WA0246902660
B1222484026651N00516495WA0246602657
B1222494026655N00516497WA0246502655
B1222504026660N00516499WA0246402654
B1222514026666N00516500WA0246402652
B1222524026671N00516501WA0246502651
B1222534026676N00516502WA0246802651
B1222544026680N00516503WA0247102651
B1222554026684N00516503WA0247702652
B1222564026687N00516502WA0248102654
B1222574026692N00516508WA0248602662
B1222584026694N00516509WA0248902668
B1222594026698N00516510WA0249302673
B1223004026700N00516511WA0249502676
B1223014026703N00516512WA0249702679
B1223024026705N00516515WA0250002682
B1223034026707N00516518WA0250202685
B1223044026710N00516520WA0250502688
B1223054026713N00516521WA0250702690
B1223064026717N00516521WA0250902693
B1223074026722N00516519WA0251102695
B1223084026726N00516515WA0251502696
B1223094026730N00516507WA0251902699
B1223104026732N00516499WA0252302701
B1223114026730N00516490WA0252602705
B1223124026726N00516482WA0252802708
B1223134026720N00516476WA0253002710
B1223144026713N00516472WA0253202713
B1223154026704N00516472WA0253602718
B1223164026697N00516475WA0253902723
B1223174026691N00516479WA0254302729
B1223184026686N00516484WA0254702733
B1223194026683N00516489WA0255002738
B1223204026682N00516494WA0255302741
B1223214026682N00516499WA0255502744
B1223224026683N00516504WA0255602747
B1223234026687N00516507WA0256002749
B1223244026691N00516508WA0256302752
B1223254026695N00516507WA0256502756
B1223264026699N00516505WA0256802760
B1223274026702N00516500WA0257102763
B1223284026705N00516493WA0257302765
B1223294026706N00516485WA0257602767
B1223304026706N00516475WA0257902771
B1223314026704N00516466WA0258302775
B1223324026701N00516459WA0258602779
B1223334026696N00516453WA0258902783
B1223344026690N00516448WA0259102785
B1223354026684N00516446WA0259202788
B1223364026678N00516446WA0259302790
B1223374026671N00516448WA0259502792
B1223384026664N00516451WA0259602794
B1223394026658N00516456WA0259902797
B1223404026653N00516462WA0260202799
B1223414026650N00516469WA0260502802
B1223424026647N00516476WA0260702805
B1223434026646N00516483WA0260902808
B1223444026646N00516488WA0261102810
B1223454026646N00516493WA0261102812
B1223464026648N00516498WA0261102813
B1223474026650N00516502WA0261102813
B1223484026653N00516507WA0261102813
B1223494026657N00516510WA0261202813
B1223504026663N00516511WA0261202813
B1223514026668N00516510WA0261202813
B1223524026674N00516510WA0261302814
B1223534026680N00516510WA0261302814
B1223544026685N00516509WA0261402815
B1223554026690N00516507WA0261402815
B1223564026695N00516503WA0261302814
B1223574026699N00516498WA0261602814
B1223584026703N00516493WA0261502815
B1223594026707N00516486WA0261702817
B1224004026709N00516480WA0261902818
B1224014026711N00516472WA0262102822
B1224024026712N00516465WA0262202823
B1224034026712N00516458WA0262202824
B1224044026710N00516450WA0262202824
B1224054026708N00516441WA0262102824
B1224064026704N00516432WA0262302825
B1224074026699N00516424WA0262402827
B1224084026695N00516416WA0262602829
B1224094026689N00516411WA0262802831
B1224104026683N00516407WA0263002832
B1224114026676N00516404WA0263102833
B1224124026670N00516402WA0263102835
B1224134026664N00516404WA0263202837
B1224144026659N00516407WA0263302837
B1224154026656N00516412WA0263302837
B1224164026653N00516418WA0263302838
B1224174026653N00516424WA0263402839
B1224184026653N00516430WA0263602840
B1224194026654N00516436WA0263802843
B1224204026655N00516440WA0263902845
B1224214026656N00516444WA0264002846
B1224224026657N00516448WA0264002845
B1224234026658N00516452WA0264002844
B1224244026659N00516457WA0263902844
B1224254026660N00516462WA0264002843
B1224264026660N00516468WA0263902843
B1224274026660N00516474WA0264002844
B1224284026660N00516480WA0264202845
B1224294026658N00516485WA0264202846
B1224304026657N00516489WA0264502848
B1224314026657N00516494WA0264602849
B1224324026657N00516499WA0264802851
B1224334026658N00516504WA0265002853
B1224344026659N00516509WA0265102855
B1224354026660N00516514WA0265302856
B1224364026663N00516518WA0265602858
B1224374026667N00516522WA0265802861
B1224384026672N00516526WA0266002863
B1224394026676N00516530WA0266302866
B1224404026680N00516534WA0266702869
B1224414026683N00516537WA0267002873
B1224424026686N00516540WA0267202876
B1224434026690N00516543WA0267402879
B1224444026693N00516545WA0267502880
B1224454026696N00516547WA0267502881
B1224464026701N00516547WA0267502881
B1224474026707N00516544WA0267602882
B1224484026712N00516539WA0267702883
B1224494026716N00516533WA0267902884
B1224504026719N00516526WA0268002885
B1224514026722N00516518WA0268202887
B1224524026723N00516510WA0268202888
B1224534026722N00516501WA0268302889
B1224544026721N00516492WA0268402890
B1224554026718N00516483WA0268502891
B1224564026714N00516476WA0268602892
B1224574026709N00516470WA0268502892
B1224584026704N00516466WA0268602892
B1224594026697N00516464WA0268602893
B1225004026691N00516463WA0268702893
B1225014026684N00516466WA0268702894
B1225024026679N00516470WA0268802894
B1225034026676N00516475WA0269002896
B1225044026673N00516481WA0269202897
B1225054026672N00516487WA0269302899
B1225064026671N00516494WA0269502901
B1225074026671N00516501WA0269802904
B1225084026671N00516508WA0269902906
B1225094026672N00516513WA0270102908
B1225104026674N00516517WA0270102910
B1225114026676N00516521WA0270102912
B1225124026680N00516524WA0270102910
B1225134026686N00516526WA0270202910
B1225144026691N00516527WA0270302911
B1225154026696N00516526WA0270402911
B1225164026701N00516524WA0270502912
B1225174026705N00516521WA0270502912
B1225184026710N00516517WA0270502912
B1225194026714N00516511WA0270602912
B1225204026717N00516503WA0270502912
B1225214026718N00516495WA0270602912
B1225224026718N00516487WA0270702912
B1225234026716N00516479WA0270702913
B1225244026712N00516471WA0270902914
B1225254026707N00516465WA0270902914
B1225264026701N00516461WA0271002915
B1225274026696N00516460WA0270902915
B1225284026690N00516460WA0270902915
B1225294026685N00516464WA0270902915
B1225304026681N00516469WA0270902916
B1225314026678N00516474WA0271002916
B1225324026676N00516479WA0271002917
B1225334026675N00516485WA0271002917
B1225344026675N00516491WA0271102917
B1225354026675N00516497WA0271002917
B1225364026676N00516503WA0271002917
B1225374026678N00516508WA0271102917
B1225384026680N00516514WA0271102917
B1225394026684N00516518WA0271002918
B1225404026688N00516522WA0271002918
B1225414026693N00516525WA0271002917
B1225424026699N00516527WA0271002917
B1225434026704N00516528WA0271002917
B1225444026710N00516529WA0271002918
B1225454026715N00516529WA0271002917
B1225464026721N00516528WA0270902916
B1225474026726N00516527WA0270902915
B1225484026733N00516527WA0270902915
B1225494026739N00516526WA0270802914
B1225504026745N00516526WA0270902915
B1225514026751N00516526WA0270902915
B1225524026756N00516526WA0270902915
B1225534026762N00516525WA0270902915
B1225544026767N00516525WA0270802914
B1225554026773N00516524WA0270802914
B1225564026779N00516524WA0270902914
B1225574026785N00516524WA0270802914
B1225584026791N00516523WA0270802914
B1225594026796N00516522WA0270802914
B1226004026802N00516520WA0270802914
B1226014026808N00516519WA0270702913
B1226024026814N00516518WA0270702912
B1226034026821N00516518WA0270702913
B1226044026828N00516517WA0270702913
B1226054026834N00516515WA0270802914
B1226064026841N00516514WA0270902914
B1226074026848N00516512WA0271102915
B1226084026854N00516510WA0271302916
B1226094026859N00516508WA0271202917
B1226104026864N00516505WA0271202917
B1226114026869N00516503WA0271102918
B1226124026874N00516499WA0270902918
B1226134026879N00516497WA0270702917
B1226144026884N00516495WA0270602916
B1226154026889N00516493WA0270602914
B1226164026894N00516492WA0270402913
B1226174026899N00516490WA0270202911
B1226184026904N00516488WA0270002910
B1226194026909N00516487WA0270002908
B1226204026915N00516485WA0269902907
B1226214026920N00516483WA0269902908
B1226224026926N00516480WA0270202908
B1226234026930N00516477WA0270402909
B1226244026934N00516475WA0270502909
B1226254026938N00516474WA0270502910
B1226264026943N00516472WA0270602911
B1226274026947N00516472WA0270702912
B1226284026952N00516472WA0270702912
B1226294026956N00516473WA0270602912
B1226304026960N00516474WA0270802914
B1226314026964N00516475WA0270902915
B1226324026967N00516477WA0270802915
B1226334026971N00516479WA0270702914
B1226344026974N00516481WA0270502913
B1226354026978N00516484WA0270302911
B1226364026983N00516487WA0270202909
B1226374026988N00516490WA0270102908
B1226384026993N00516493WA0270002906
B1226394026998N00516495WA0270002906
B1226404027003N00516497WA0270002906
B1226414027008N00516499WA0269902906
B1226424027012N00516500WA0270002905
B1226434027017N00516500WA0269802905
B1226444027022N00516500WA0269802904
B1226454027028N00516500WA0269702903
B1226464027033N00516500WA0269502902
B1226474027038N00516500WA0269502901
B1226484027044N00516500WA0269402900
B1226494027049N00516500WA0269402900
B1226504027055N00516499WA0269402900
B1226514027060N00516499WA0269402900
B1226524027065N00516498WA0269402899
B1226534027070N00516498WA0269402899
B1226544027074N00516497WA0269302899
B1226554027079N00516496WA0269202898
B1226564027083N00516494WA0269102898
B1226574027088N00516493WA0269002896
B1226584027093N00516492WA0268902895
B1226594027099N00516491WA0268802894
B1227004027104N00516490WA0268602893
B1227014027109N00516489WA0268802893
B1227024027114N00516488WA0268802893
B1227034027119N00516487WA0268602893
B1227044027123N00516487WA0268302890
B1227054027128N00516488WA0267902888
B1227064027133N00516489WA0267602884
B1227074027138N00516490WA0267302881
B1227084027143N00516491WA0267002878
B1227094027147N00516493WA0266702874
B1227104027152N00516496WA0266302870
B1227114027157N00516497WA0266202866
B1227124027163N00516498WA0265902863
B1227134027170N00516497WA0265602861
B1227144027176N00516497WA0265702859
B1227154027182N00516497WA0265502858
B1227164027187N00516497WA0265102857
B1227174027193N00516497WA0264802854
B1227184027198N00516497WA0264402850
B1227194027204N00516499WA0264102846
B1227204027211N00516500WA0263802843
B1227214027217N00516501WA0263702840
B1227224027223N00516503WA0263402837
B1227234027228N00516504WA0263102833
B1227244027234N00516505WA0262802830
B1227254027240N00516506WA0262302826
B1227264027246N00516506WA0261802821
B1227274027252N00516508WA0261402817
B1227284027259N00516510WA0261002812
B1227294027265N00516511WA0260602809
B1227304027271N00516513WA0260502806
B1227314027277N00516515WA0260302804
B1227324027282N00516517WA0260002802
B1227334027288N00516521WA0259702799
B1227344027293N00516525WA0259602796
B1227354027299N00516530WA0259302794
B1227364027305N00516535WA0259302792
B1227374027311N00516541WA0259202791
B1227384027316N00516547WA0259002789
B1227394027322N00516553WA0258802787
B1227404027328N00516558WA0258602785
B1227414027334N00516563WA0258402783
B1227424027340N00516567WA0258202781
B1227434027346N00516572WA0258002779
B1227444027352N00516577WA0257802777
B1227454027358N00516583WA0257802776
B1227464027363N00516589WA0257602774
B1227474027367N00516594WA0257402772
B1227484027372N00516600WA0257302771
B1227494027377N00516604WA0257202769
B1227504027382N00516608WA0257002768
B1227514027387N00516611WA0256802766
B1227524027393N00516613WA0256702764
B1227534027398N00516616WA0256402761
B1227544027403N00516618WA0256302759
B1227554027407N00516619WA0256202759
B1227564027411N00516621WA0256102758
B1227574027415N00516623WA0256002757
B1227584027420N00516626WA0255902756
B1227594027425N00516628WA0255602754
B1228004027430N00516630WA0255502752
B1228014027436N00516633WA0255402750
B1228024027441N00516636WA0255302749
B1228034027445N00516639WA0255202748
B1228044027450N00516642WA0255102746
B1228054027454N00516645WA0255002745
B1228064027458N00516647WA0255002744
B1228074027462N00516649WA0255002744
B1228084027466N00516650WA0255002745
B1228094027469N00516653WA0254902745
B1228104027473N00516655WA0254602744
B1228114027476N00516659WA0254102743
B1228124027481N00516663WA0253602741
B1228134027485N00516667WA0253102739
B1228144027489N00516667WA0252602733
B1228154027495N00516669WA0252202729
B1228164027500N00516670WA0251902726
B1228174027504N00516671WA0251602724
B1228184027507N00516671WA0251502721
B1228194027511N00516671WA0251202718
B1228204027514N00516671WA0251002715
B1228214027518N00516672WA0250602712
B1228224027522N00516672WA0250302708
B1228234027526N00516672WA0249802702
B1228244027531N00516672WA0249502698
B1228254027536N00516673WA0249102694
B1228264027541N00516673WA0248902690
B1228274027546N00516673WA0248702687
B1228284027550N00516673WA0248502685
B1228294027554N00516672WA0248202681
B1228304027558N00516670WA0247802678
B1228314027563N00516668WA0247602674
B1228324027568N00516666WA0247302671
B1228334027573N00516663WA0247202668
B1228344027577N00516659WA0247102665
B1228354027581N00516655WA0247002664
B1228364027584N00516650WA0246802662
B1228374027588N00516645WA0246602660
B1228384027591N00516640WA0246302657
B1228394027594N00516636WA0245902654
B1228404027598N00516632WA0245702651
B1228414027603N00516629WA0245602649
B1228424027608N00516626WA0245602647
B1228434027614N00516624WA0245802646
B1228444027618N00516621WA0246002646
B1228454027622N00516619WA0246002646
B1228464027624N00516617WA0246002646
B1228474027626N00516615WA0245902645
B1228484027628N00516612WA0245702643
B1228494027633N00516610WA0245502641
B1228504027637N00516607WA0245502641
B1228514027643N00516604WA0245802643
B1228524027648N00516602WA0246002644
B1228534027652N00516601WA0246102646
B1228544027655N00516599WA0246302649
B1228554027659N00516597WA0246402650
B1228564027662N00516594WA0246402650
B1228574027666N00516591WA0246402650
B1228584027670N00516588WA0246302649
B1228594027674N00516584WA0246402650
B1229004027679N00516581WA0246502653
B1229014027683N00516578WA0246602654
B1229024027686N00516575WA0246602655
B1229034027690N00516571WA0246602656
B1229044027695N00516566WA0246502656
B1229054027699N00516560WA0246402656
B1229064027704N00516555WA0246602657
B1229074027708N00516549WA0246602658
B1229084027712N00516544WA0246702658
B1229094027716N00516538WA0246602659
B1229104027719N00516532WA0246702658
B1229114027724N00516526WA0246602658
B1229124027728N00516521WA0246502658
B1229134027733N00516516WA0246502657
B1229144027737N00516509WA0246302657
B1229154027741N00516501WA0246202655
B1229164027744N00516492WA0246102655
B1229174027748N00516484WA0246102655
B1229184027752N00516476WA0246102654
B1229194027756N00516469WA0246002654
B1229204027759N00516462WA0245902653
B1229214027763N00516455WA0245802652
B1229224027767N00516450WA0245602651
B1229234027771N00516444WA0245402648
B1229244027776N00516440WA0245202645
B1229254027781N00516437WA0245002642
B1229264027787N00516433WA0245002641
B1229274027792N00516430WA0244802639
B1229284027798N00516427WA0244602636
B1229294027803N00516425WA0244502635
B1229304027809N00516422WA0244402634
B1229314027815N00516420WA0244402633
B1229324027821N00516418WA0244302633
B1229334027826N00516416WA0244202632
B1229344027832N00516413WA0244102630
B1229354027837N00516409WA0243802629
B1229364027843N00516405WA0243602626
B1229374027848N00516400WA0243502625
B1229384027854N00516395WA0243302623
B1229394027859N00516391WA0243202621
B1229404027864N00516385WA0242902619
B1229414027868N00516380WA0242602617
B1229424027872N00516374WA0242402615
B1229434027877N00516370WA0242202612
B1229444027882N00516367WA0241802607
B1229454027887N00516365WA0241602604
B1229464027892N00516362WA0241402601
B1229474027896N00516360WA0241102599
B1229484027901N00516358WA0240902596
B1229494027906N00516357WA0240602593
B1229504027912N00516356WA0240302590
B1229514027918N00516354WA0240102587
B1229524027924N00516352WA0239902585
B1229534027930N00516349WA0239802584
B1229544027935N00516346WA0239602583
B1229554027941N00516342WA0239502581
B1229564027946N00516338WA0239302580
B1229574027951N00516333WA0239302579
B1229584027956N00516327WA0239202578
B1229594027961N00516322WA0239102577
B1230004027966N00516317WA0239102576
B1230014027971N00516314WA0238902575
B1230024027976N00516309WA0238902574
B1230034027981N00516303WA0238802573
B1230044027985N00516295WA0238702572
B1230054027989N00516288WA0238702572
B1230064027993N00516281WA0238702572
B1230074027997N00516276WA0238602570
B1230084028002N00516269WA0238502569
B1230094028007N00516262WA0238302567
B1230104028011N00516255WA0238202566
B1230114028016N00516247WA0238202566
B1230124028020N00516240WA0238102565
B1230134028025N00516234WA0238102564
B1230144028030N00516228WA0238002564
B1230154028035N00516222WA0237902563
B1230164028039N00516217WA0237702562
B1230174028044N00516211WA0237702562
B1230184028049N00516205WA0237702561
B1230194028054N00516200WA0237702560
B1230204028059N00516195WA0237802560
B1230214028065N00516190WA0237702561
B1230224028070N00516186WA0237702560
B1230234028075N00516182WA0237602560
B1230244028080N00516177WA0237402560
B1230254028085N00516172WA0237302558
B1230264028091N00516168WA0237002556
B1230274028097N00516163WA0237002555
B1230284028103N00516159WA0236802553
B1230294028109N00516155WA0236802552
B1230304028114N00516151WA0236602551
B1230314028120N00516146WA0236502549
B1230324028126N00516142WA0236402548
B1230334028131N00516137WA0236102546
B1230344028136N00516132WA0235902545
B1230354028141N00516126WA0235702543
B1230364028146N00516121WA0235602541
B1230374028152N00516116WA0235402540
B1230384028158N00516111WA0235302539
B1230394028164N00516107WA0235202537
B1230404028169N00516102WA0235002535
B1230414028174N00516097WA0234802533
B1230424028179N00516092WA0234502530
B1230434028184N00516085WA0234202528
B1230444028189N00516079WA0234002526
B1230454028194N00516074WA0233902524
B1230464028200N00516070WA0233702522
B1230474028205N00516068WA0233402519
B1230484028211N00516066WA0233102515
B1230494028218N00516066WA0232802512
B1230504028224N00516067WA0232402509
B1230514028231N00516069WA0232302506
B1230524028237N00516071WA0231902503
B1230534028244N00516074WA0231602500
B1230544028251N00516075WA0231502497
B1230554028258N00516076WA0231202495
B1230564028265N00516076WA0231102492
B1230574028272N00516077WA0230802490
B1230584028279N00516078WA0230702488
B1230594028285N00516078WA0230602486
B1231004028292N00516079WA0230402485
B1231014028298N00516079WA0230302483
B1231024028304N00516079WA0230002482
B1231034028310N00516080WA0229902480
B1231044028317N00516082WA0229602478
B1231054028323N00516085WA0229302475
B1231064028328N00516090WA0229102472
B1231074028334N00516095WA0229002470
B1231084028339N00516101WA0228902468
B1231094028344N00516105WA0228602466
B1231104028350N00516109WA0228402464
B1231114028355N00516114WA0228302461
B1231124028360N00516118WA0228102460
B1231134028366N00516122WA0227902457
B1231144028371N00516125WA0227602455
B1231154028377N00516127WA0227302452
B1231164028383N00516128WA0227202449
B1231174028390N00516129WA0227002447
B1231184028396N00516130WA0226802445
B1231194028402N00516131WA0226702444
B1231204028407N00516132WA0226502442
B1231214028412N00516134WA0226402440
B1231224028417N00516137WA0226202438
B1231234028422N00516139WA0226002435
B1231244028428N00516141WA0225702432
B1231254028433N00516141WA0225602430
B1231264028439N00516141WA0225302428
B1231274028445N00516141WA0225102427
B1231284028450N00516141WA0225002425
B1231294028456N00516141WA0224802423
B1231304028461N00516141WA0224702421
B1231314028466N00516141WA0224402419
B1231324028472N00516140WA0224202417
B1231334028477N00516140WA0224102415
B1231344028482N00516141WA0223702413
B1231354028487N00516144WA0223502410
B1231364028492N00516149WA0223102406
B1231374028496N00516155WA0223002404
B1231384028501N00516162WA0222802401
B1231394028504N00516168WA0222702399
B1231404028507N00516174WA0222502397
B1231414028509N00516180WA0222102394
B1231424028511N00516187WA0221602390
B1231434028513N00516196WA0221402385
B1231444028514N00516205WA0221102382
B1231454028515N00516214WA0220902380
B1231464028516N00516224WA0220702378
B1231474028517N00516233WA0220502376
B1231484028518N00516241WA0220202374
B1231494028519N00516250WA0220002371
B1231504028519N00516259WA0219702368
B1231514028520N00516268WA0219402366
B1231524028521N00516278WA0219202363
B1231534028522N00516287WA0219002361
B1231544028523N00516296WA0218702358
B1231554028525N00516304WA0218502356
B1231564028526N00516313WA0218302353
B1231574028526N00516322WA0218002350
B1231584028527N00516330WA0217702347
B1231594028527N00516338WA0217402344
B1232004028528N00516347WA0217102341
B1232014028528N00516355WA0216902339
B1232024028529N00516364WA0216702336
B1232034028529N00516372WA0216502334
B1232044028530N00516380WA0216402333
B1232054028530N00516387WA0216302331
B1232064028530N00516394WA0216102329
B1232074028531N00516401WA0215902327
B1232084028532N00516407WA0215802325
B1232094028533N00516413WA0215802324
B1232104028534N00516419WA0215602323
B1232114028536N00516424WA0215802323
B1232124028537N00516428WA0215802323
B1232134028539N00516431WA0215802323
B1232144028541N00516436WA0215902323
B1232154028542N00516440WA0216002324
B1232164028544N00516443WA0215902324
B1232174028545N00516447WA0215902324
B1232184028547N00516451WA0215902324
B1232194028549N00516454WA0215802324
B1232204028550N00516458WA0215702323
B1232214028552N00516462WA0215502322
B1232224028553N00516468WA0215402321
B1232234028553N00516473WA0215302320
B1232244028554N00516479WA0215202320
B1232254028555N00516485WA0215302319
B1232264028555N00516490WA0215202319
B1232274028556N00516495WA0215102318
B1232284028556N00516501WA0215102316
B1232294028557N00516507WA0214802315
B1232304028557N00516514WA0214602313
B1232314028557N00516522WA0214602312
B1232324028557N00516529WA0214602312
B1232334028558N00516536WA0214702313
B1232344028558N00516542WA0214802314
B1232354028559N00516549WA0214902314
B1232364028560N00516556WA0214902315
B1232374028561N00516563WA0215102317
B1232384028562N00516569WA0215102318
B1232394028563N00516576WA0215202319
B1232404028564N00516582WA0215202320
B1232414028565N00516589WA0215202320
B1232424028567N00516595WA0215202320
B1232434028568N00516602WA0215202320
B1232444028569N00516610WA0215302321
B1232454028570N00516617WA0215502324
B1232464028572N00516623WA0215802326
B1232474028573N00516629WA0215902328
B1232484028574N00516633WA0216002329
B1232494028575N00516638WA0216102330
B1232504028577N00516642WA0216202331
B1232514028577N00516647WA0216202333
B1232524028578N00516652WA0216302333
B1232534028578N00516657WA0216402334
B1232544028579N00516661WA0216302335
B1232554028579N00516666WA0216202335
B1232564028579N00516671WA0216102334
B1232574028579N00516676WA0216002334
B1232584028579N00516682WA0215902333
B1232594028578N00516688WA0215702332
B1233004028578N00516694WA0215702331
B1233014028576N00516700WA0215502330
B1233024028574N00516706WA0215402329
B1233034028573N00516712WA0215302329
B1233044028571N00516719WA0215402329
B1233054028570N00516726WA0215402330
B1233064028570N00516731WA0215502331
B1233074028569N00516736WA0215402330
B1233084028569N00516740WA0215202329
B1233094028570N00516744WA0215102327
B1233104028570N00516750WA0215102326
B1233114028570N00516757WA0215102327
B1233124028571N00516763WA0215302329
B1233134028572N00516769WA0215502330
B1233144028573N00516774WA0215602332
B1233154028574N00516778WA0215802334
B1233164028575N00516783WA0216002335
B1233174028576N00516787WA0216102336
B1233184028576N00516791WA0216202337
B1233194028575N00516797WA0216402338
B1233204028574N00516803WA0216602341
B1233214028574N00516809WA0216902344
B1233224028574N00516814WA0217202346
B1233234028576N00516819WA0217402349
B1233244028577N00516823WA0217602351
B1233254028579N00516827WA0217702352
B1233264028580N00516833WA0217902354
B1233274028579N00516840WA0218202356
B1233284028578N00516846WA0218302358
B1233294028576N00516853WA0218502360
B1233304028573N00516859WA0218702362
B1233314028570N00516864WA0218802363
B1233324028564N00516868WA0218902363
B1233334028557N00516871WA0219202365
B1233344028550N00516872WA0219402368
B1233354028543N00516870WA0219602369
B1233364028537N00516866WA0219702371
B1233374028532N00516861WA0219802373
B1233384028528N00516855WA0220002374
B1233394028525N00516848WA0219902374
B1233404028524N00516840WA0220002375
B1233414028525N00516832WA0220002375
B1233424028526N00516824WA0220102376
B1233434028531N00516818WA0220302377
B1233444028537N00516815WA0220402378
B1233454028543N00516814WA0220502380
B1233464028548N00516816WA0220702381
B1233474028552N00516820WA0220802383
B1233484028555N00516825WA0220902385
B1233494028558N00516830WA0221302388
B1233504028560N00516836WA0221702392
B1233514028562N00516841WA0222002395
B1233524028564N00516846WA0222202398
B1233534028566N00516850WA0222302401
B1233544028567N00516855WA0222502403
B1233554028568N00516861WA0222802406
B1233564028566N00516868WA0223102409
B1233574028564N00516875WA0223402413
B1233584028559N00516880WA0223802417
B1233594028554N00516884WA0223902420
B1234004028547N00516886WA0224002421
B1234014028539N00516882WA0224202421
B1234024028532N00516875WA0224202422
B1234034028526N00516867WA0224402424
B1234044028524N00516857WA0224802427
B1234054028525N00516848WA0225002429
B1234064028528N00516842WA0225102430
B1234074028531N00516837WA0225302431
B1234084028536N00516836WA0225702432
B1234094028541N00516837WA0225802433
B1234104028545N00516839WA0226002434
B1234114028549N00516843WA0226302436
B1234124028553N00516847WA0226602439
B1234134028556N00516851WA0226902443
B1234144028559N00516856WA0227202446
B1234154028561N00516862WA0227402449
B1234164028562N00516868WA0227802452
B1234174028561N00516875WA0228002456
B1234184028559N00516882WA0228302459
B1234194028556N00516888WA0228602463
B1234204028551N00516893WA0228802466
B1234214028544N00516897WA0228902468
B1234224028538N00516898WA0229002469
B1234234028530N00516893WA0229202470
B1234244028525N00516887WA0229302472
B1234254028521N00516879WA0229602473
B1234264028520N00516871WA0229702475
B1234274028521N00516864WA0229902476
B1234284028523N00516858WA0230202478
B1234294028526N00516853WA0230402481
B1234304028529N00516848WA0230602486
B1234314028531N00516842WA0230902489
B1234324028533N00516838WA0231102492
B1234334028536N00516834WA0231202494
B1234344028540N00516832WA0231402496
B1234354028545N00516832WA0231502498
B1234364028550N00516835WA0231702500
B1234374028554N00516840WA0231902502
B1234384028557N00516846WA0232002504
B1234394028558N00516853WA0232202506
B1234404028559N00516860WA0232402509
B1234414028559N00516867WA0232602511
B1234424028559N00516874WA0232802513
B1234434028558N00516882WA0233002516
B1234444028558N00516889WA0233202520
B1234454028559N00516895WA0233502522
B1234464028560N00516901WA0233802525
B1234474028561N00516907WA0234102527
B1234484028562N00516913WA0234302530
B1234494028564N00516919WA0234702533
B1234504028566N00516925WA0234902537
B1234514028568N00516930WA0235302540
B1234524028572N00516935WA0235602543
B1234534028574N00516941WA0235902547
B1234544028574N00516948WA0236102550
B1234554028573N00516955WA0236302552
B1234564028569N00516962WA0236302553
B1234574028563N00516966WA0236402554
B1234584028556N00516966WA0236702555
B1234594028549N00516962WA0237002557
B1235004028543N00516957WA0237302559
B1235014028541N00516948WA0237602563
B1235024028541N00516940WA0237902566
B1235034028543N00516933WA0238102568
B1235044028548N00516929WA0238502571
B1235054028553N00516927WA0238802575
B1235064028558N00516928WA0239002577
B1235074028563N00516933WA0239302580
B1235084028566N00516939WA0239502583
B1235094028566N00516948WA0239702585
B1235104028564N00516957WA0239902586
B1235114028559N00516964WA0240002588
B1235124028553N00516969WA0240102588
B1235134028546N00516970WA0240302590
B1235144028539N00516969WA0240502592
B1235154028533N00516968WA0240702594
B1235164028526N00516966WA0241002598
B1235174028519N00516965WA0241202601
B1235184028514N00516964WA0241302603
B1235194028508N00516961WA0241402604
B1235204028503N00516956WA0241402605
B1235214028498N00516950WA0241402605
B1235224028495N00516943WA0241602606
B1235234028493N00516936WA0241702607
B1235244028491N00516929WA0241902609
B1235254028489N00516922WA0242002610
B1235264028488N00516914WA0242102611
B1235274028488N00516906WA0242302613
B1235284028488N00516898WA0242502615
B1235294028488N00516891WA0242702617
B1235314028491N00516881WA0243202621
B1235324028495N00516874WA0243602625
B1235334028496N00516872WA0243602627
B1235334028498N00516870WA0243602628
B1235344028501N00516867WA0243602630
B1235364028508N00516865WA0243602632
B1235364028510N00516867WA0243602632
B1235374028515N00516871WA0243902634
B1235384028519N00516876WA0244002635
B1235394028523N00516882WA0244102637
B1235404028526N00516888WA0244102638
B1235414028528N00516894WA0244202638
B1235424028530N00516900WA0244302639
B1235434028532N00516908WA0244302640
B1235444028532N00516917WA0244502644
B1235454028532N00516925WA0244802647
B1235464028531N00516933WA0245102651
B1235474028531N00516939WA0245502654
B1235484028531N00516945WA0245702657
B1235494028531N00516951WA0245902660
B1235504028530N00516958WA0246102661
B1235514028526N00516965WA0246002662
B1235524028522N00516971WA0246202662
B1235534028515N00516974WA0246402663
B1235544028508N00516974WA0246502663
B1235554028501N00516972WA0246702664
B1235564028496N00516968WA0246802665
B1235574028491N00516962WA0247002667
B1235584028488N00516956WA0247002667
B1235594028486N00516949WA0247102668
B1236004028486N00516942WA0247302670
B1236014028487N00516936WA0247402671
B1236024028490N00516930WA0247602672
B1236034028493N00516925WA0247702674
B1236044028497N00516922WA0247902675
B1236054028501N00516919WA0248102676
B1236064028505N00516918WA0248202678
B1236074028509N00516917WA0248202679
B1236084028513N00516917WA0248202679
B1236094028518N00516916WA0248302679
B1236104028523N00516916WA0248202679
B1236114028528N00516915WA0248302679
B1236124028533N00516915WA0248402680
B1236134028539N00516914WA0248702682
B1236144028543N00516912WA0248802684
B1236154028547N00516910WA0248902685
B1236164028551N00516906WA0249002687
B1236174028555N00516903WA0249102688
B1236184028560N00516900WA0249202689
B1236194028564N00516898WA0249302690
B1236204028569N00516895WA0249502692
B1236214028573N00516892WA0249602694
B1236224028577N00516889WA0249602695
B1236234028581N00516887WA0249602696
B1236244028586N00516886WA0249602695
B1236254028592N00516886WA0249502695
B1236264028597N00516887WA0249502695
B1236274028602N00516888WA0249302695
B1236284028607N00516889WA0249302693
B1236294028612N00516890WA0249202692
B1236304028618N00516890WA0249002690
B1236314028624N00516890WA0248902689
B1236324028631N00516891WA0248802688
B1236334028638N00516891WA0248802687
B1236344028644N00516892WA0248902687
B1236354028651N00516892WA0248902688
B1236364028657N00516893WA0249102690
B1236374028663N00516895WA0249302692
B1236384028668N00516896WA0249402693
B1236394028673N00516898WA0249602695
B1236404028678N00516899WA0249602696
B1236414028682N00516899WA0249702697
B1236424028686N00516900WA0249802698
B1236434028691N00516900WA0250002698
B1236444028696N00516900WA0250102699
B1236454028701N00516899WA0250102700
B1236464028705N00516897WA0250102701
B1236474028709N00516895WA0250102702
B1236484028713N00516893WA0250002701
B1236494028717N00516892WA0249902700
B1236504028722N00516890WA0249802699
B1236514028727N00516888WA0249802698
B1236524028733N00516886WA0249702698
B1236534028738N00516885WA0249602696
B1236544028742N00516884WA0249602695
B1236554028747N00516882WA0249402694
B1236564028753N00516881WA0249302693
B1236574028759N00516880WA0249302691
B1236584028765N00516879WA0249202690
B1236594028771N00516878WA0249102690
B1237004028776N00516877WA0249102691
B1237014028782N00516877WA0249102691
B1237024028787N00516876WA0249102691
B1237034028792N00516875WA0248902691
B1237044028797N00516874WA0248702690
B1237054028803N00516873WA0248602688
B1237064028809N00516872WA0248402686
B1237074028815N00516871WA0248102684
B1237084028821N00516871WA0248102683
B1237094028828N00516870WA0248202683
B1237104028834N00516869WA0248202682
B1237114028841N00516868WA0248302682
B1237124028847N00516868WA0248502683
B1237134028853N00516867WA0248602685
B1237144028858N00516867WA0248802687
B1237154028863N00516867WA0248902687
B1237164028867N00516866WA0248902687
B1237174028873N00516865WA0248902686
B1237184028878N00516863WA0248802685
B1237194028884N00516861WA0248902685
B1237204028889N00516860WA0248902685
B1237214028894N00516858WA0248602684
B1237224028900N00516857WA0248502684
B1237234028905N00516855WA0248502682
B1237244028911N00516854WA0248302681
B1237254028917N00516852WA0248202680
B1237264028923N00516850WA0248202679
B1237274028929N00516848WA0248202679
B1237284028935N00516847WA0248202679
B1237294028939N00516845WA0248202679
B1237304028944N00516843WA0248102677
B1237314028949N00516841WA0248002676
B1237324028954N00516840WA0247902674
B1237334028960N00516839WA0247702673
B1237344028966N00516838WA0247602671
B1237354028972N00516838WA0247902673
B1237364028977N00516838WA0248102673
B1237374028982N00516839WA0248102673
B1237384028987N00516839WA0248202673
B1237394028992N00516838WA0248102672
B1237404028998N00516837WA0247902668
B1237414029003N00516837WA0247802667
B1237424029009N00516836WA0247602666
B1237434029015N00516836WA0247702665
B1237444029021N00516835WA0247602665
B1237454029027N00516834WA0247502665
B1237464029032N00516834WA0247502664
B1237474029037N00516833WA0247502664
B1237484029042N00516832WA0247302663
B1237494029048N00516831WA0247302662
B1237504029054N00516830WA0247102662
B1237514029059N00516829WA0247002661
B1237524029065N00516828WA0246902661
B1237534029070N00516828WA0246802660
B1237544029076N00516827WA0246602658
B1237554029083N00516826WA0246402655
B1237564029089N00516825WA0246202654
B1237574029097N00516825WA0246102652
B1237584029104N00516824WA0246002651
B1237594029111N00516823WA0245902650
B1238004029117N00516822WA0246102650
B1238014029124N00516820WA0246102650
B1238024029130N00516818WA0246002649
B1238034029136N00516816WA0245802649
B1238044029142N00516814WA0245902648
B1238054029148N00516812WA0245802647
B1238064029154N00516811WA0245702647
B1238074029161N00516811WA0245702647
B1238084029167N00516812WA0245802647
B1238094029172N00516813WA0245702647
B1238104029178N00516815WA0245802647
B1238114029184N00516817WA0245702647
B1238124029189N00516819WA0245702646
B1238134029196N00516821WA0245702646
B1238144029202N00516822WA0245802646
B1238154029208N00516823WA0245902646
B1238164029215N00516824WA0245902647
B1238174029221N00516825WA0245902647
B1238184029227N00516826WA0246102648
B1238194029233N00516827WA0246102648
B1238204029238N00516828WA0246002649
B1238214029244N00516828WA0246102649
B1238224029250N00516829WA0246202649
B1238234029255N00516830WA0246202650
B1238244029260N00516833WA0246202651
B1238254029265N00516835WA0246402652
B1238264029270N00516838WA0246502653
B1238274029274N00516842WA0246602653
B1238284029278N00516845WA0246602654
B1238294029284N00516847WA0246702655
B1238304029289N00516849WA0246802655
B1238314029295N00516851WA0246902656
B1238324029300N00516852WA0247102658
B1238334029306N00516854WA0247302659
B1238344029312N00516855WA0247502661
B1238354029318N00516857WA0247702663
B1238364029323N00516859WA0247802665
B1238374029328N00516860WA0248002667
B1238384029333N00516862WA0248102668
B1238394029337N00516864WA0248102669
B1238404029342N00516865WA0248102669
B1238414029347N00516867WA0248102669
B1238424029353N00516868WA0248202668
B1238434029359N00516869WA0248102668
B1238444029366N00516870WA0248302670
B1238454029372N00516872WA0248402672
B1238464029378N00516874WA0248502673
B1238474029383N00516876WA0248602674
B1238484029388N00516879WA0248602675
B1238494029393N00516881WA0248602676
B1238504029398N00516884WA0248702676
B1238514029403N00516885WA0248702676
B1238524029408N00516887WA0248902677
B1238534029414N00516889WA0248902678
B1238544029420N00516890WA0249102679
B1238554029425N00516891WA0249102681
B1238564029430N00516892WA0249202682
B1238574029436N00516893WA0249302683
B1238584029441N00516893WA0249402684
B1238594029446N00516893WA0249502685
B1239004029452N00516891WA0249602687
B1239014029457N00516890WA0249702688
B1239024029462N00516889WA0249902689
B1239034029467N00516887WA0249902690
B1239044029473N00516884WA0249902690
B1239054029478N00516882WA0250002690
B1239064029483N00516881WA0250002690
B1239074029489N00516880WA0249902690
B1239084029495N00516879WA0250002690
B1239094029501N00516879WA0250002691
B1239104029507N00516878WA0250202692
B1239114029513N00516879WA0250302693
B1239124029519N00516880WA0250402694
B1239134029525N00516882WA0250402695
B1239144029530N00516885WA0250402695
B1239154029536N00516888WA0250402696
B1239164029542N00516889WA0250702697
B1239174029549N00516888WA0251002699
B1239184029555N00516886WA0251102701
B1239194029561N00516885WA0251402704
B1239204029566N00516884WA0251702706
B1239214029570N00516881WA0251902708
B1239224029572N00516875WA0251902708
B1239234029572N00516868WA0252002710
B1239244029568N00516862WA0252102711
B1239254029563N00516858WA0252302713
B1239264029558N00516855WA0252502714
B1239274029552N00516856WA0252602715
B1239284029547N00516859WA0252702717
B1239294029542N00516865WA0253002719
B1239304029539N00516871WA0253302721
B1239314029536N00516878WA0253402723
B1239324029534N00516885WA0253702726
B1239334029533N00516893WA0253702727
B1239344029534N00516900WA0253802728
B1239354029537N00516907WA0253702728
B1239364029542N00516912WA0253802728
B1239374029548N00516916WA0253802728
B1239384029554N00516918WA0253902729
B1239394029560N00516918WA0254202731
B1239404029565N00516918WA0254302732
B1239414029571N00516917WA0254402734
B1239424029576N00516916WA0254602735
B1239434029582N00516914WA0254802738
B1239444029587N00516910WA0255302740
B1239454029590N00516905WA0255602742
B1239464029593N00516900WA0255702745
B1239474029594N00516895WA0255802747
B1239484029594N00516890WA0255902749
B1239494029592N00516885WA0256002750
B1239504029589N00516881WA0256002751
B1239514029584N00516879WA0256102752
B1239524029578N00516881WA0256202753
B1239534029573N00516887WA0256402754
B1239544029570N00516895WA0256502756
B1239554029568N00516903WA0256702758
B1239564029567N00516912WA0256902760
B1239574029567N00516920WA0257102762
B1239584029568N00516927WA0257202764
B1239594029570N00516934WA0257402766
B1240004029573N00516940WA0257602767
B1240014029576N00516945WA0257702769
B1240024029580N00516949WA0257802771
B1240034029584N00516951WA0257802772
B1240044029587N00516951WA0257702771
B1240054029591N00516947WA0257802771
B1240064029596N00516943WA0258002771
B1240074029600N00516938WA0258102772
B1240084029605N00516935WA0258502777
B1240094029609N00516931WA0258802779
B1240104029612N00516928WA0258902782
B1240114029615N00516926WA0259102785
B1240124029617N00516923WA0259102785
B1240134029618N00516918WA0259002785
B1240144029617N00516911WA0259102786
B1240154029613N00516906WA0259202787
B1240164029608N00516902WA0259302788
B1240174029603N00516901WA0259402790
B1240184029598N00516902WA0259602791
B1240194029593N00516904WA0259702792
B1240204029588N00516909WA0259802793
B1240214029584N00516915WA0259902794
B1240224029581N00516924WA0259902795
B1240234029582N00516933WA0260002797
B1240244029586N00516941WA0260102797
B1240254029590N00516947WA0260202798
B1240264029595N00516951WA0260402800
B1240274029601N00516953WA0260602801
B1240284029606N00516955WA0260702803
B1240294029611N00516956WA0260802805
B1240304029616N00516958WA0261002806
B1240314029622N00516958WA0261002807
B1240324029627N00516957WA0261202808
B1240334029632N00516954WA0261302809
B1240344029636N00516949WA0261602811
B1240354029638N00516942WA0261802813
B1240364029639N00516936WA0262002816
B1240374029638N00516930WA0262102818
B1240384029636N00516924WA0262102820
B1240394029633N00516920WA0262002820
B1240404029628N00516920WA0262002820
B1240414029621N00516925WA0262002820
B1240424029617N00516933WA0262202821
B1240434029616N00516943WA0262302822
B1240444029616N00516952WA0262502825
B1240454029618N00516960WA0262702827
B1240464029620N00516967WA0262802828
B1240474029622N00516974WA0263002829
B1240484029624N00516981WA0262902827
B1240494029627N00516987WA0263002827
B1240504029632N00516993WA0263002827
B1240514029637N00516999WA0263002827
B1240524029642N00517003WA0263102828
B1240534029648N00517007WA0263102828
B1240544029654N00517010WA0263202829
B1240554029660N00517012WA0263202830
B1240564029666N00517014WA0263302831
B1240574029672N00517016WA0263402832
B1240584029678N00517016WA0263502833
B1240594029684N00517017WA0263502834
B1241004029690N00517017WA0263702835
B1241014029696N00517017WA0263702835
B1241024029701N00517018WA0263802836
B1241034029707N00517020WA0263802837
B1241044029713N00517020WA0263802838
B1241054029718N00517019WA0263802839
B1241064029723N00517017WA0263802839
B1241074029728N00517013WA0263802839
B1241084029732N00517007WA0263802839
B1241094029735N00517001WA0263902839
B1241104029736N00516994WA0264102841
B1241114029736N00516988WA0264402844
B1241124029736N00516982WA0264602847
B1241134029735N00516978WA0264802850
B1241144029733N00516975WA0264902852
B1241154029730N00516973WA0264802853
B1241164029725N00516972WA0264902852
B1241174029720N00516974WA0264902853
B1241184029715N00516978WA0265002854
B1241194029711N00516984WA0265302855
B1241204029708N00516991WA0265602857
B1241214029705N00516999WA0265902859
B1241224029704N00517007WA0266202861
B1241234029704N00517016WA0266202863
B1241244029706N00517024WA0266102864
B1241254029710N00517029WA0266102865
B1241264029717N00517032WA0266102865
B1241274029724N00517030WA0266102866
B1241284029729N00517026WA0266202867
B1241294029732N00517019WA0266302869
B1241304029733N00517012WA0266502870
B1241314029732N00517006WA0266702873
B1241324029731N00517001WA0266902874
B1241334029728N00516997WA0267002876
B1241344029725N00516994WA0267202876
B1241354029720N00516994WA0267202876
B1241364029714N00516999WA0267402877
B1241374029709N00517007WA0267802879
B1241384029708N00517017WA0267902881
B1241394029709N00517026WA0268102883
B1241404029713N00517035WA0268202885
B1241414029718N00517040WA0268302887
B1241424029723N00517043WA0268402888
B1241434029728N00517045WA0268602890
B1241444029734N00517046WA0268702891
B1241454029739N00517046WA0268902893
B1241464029744N00517044WA0269002895
B1241474029748N00517042WA0269102895
B1241484029752N00517038WA0269102895
B1241494029755N00517032WA0268902894
B1241504029756N00517025WA0269102893
B1241514029756N00517017WA0269102894
B1241524029755N00517009WA0269402894
B1241534029751N00517004WA0269502897
B1241544029747N00517000WA0269702898
B1241554029742N00516999WA0269802900
B1241564029738N00517000WA0269902901
B1241574029733N00517002WA0269902903
B1241584029729N00517005WA0270002903
B1241594029725N00517010WA0270102904
B1242004029723N00517018WA0270302905
B1242014029723N00517027WA0270502906
B1242024029723N00517036WA0270802909
B1242034029724N00517046WA0271102914
B1242044029725N00517055WA0271302917
B1242054029726N00517063WA0271502919
B1242064029728N00517070WA0271602919
B1242074029732N00517077WA0271702920
B1242084029737N00517083WA0271702921
B1242094029743N00517089WA0271902922
B1242104029749N00517094WA0272102924
B1242114029755N00517098WA0272102925
B1242124029760N00517102WA0272402927
B1242134029766N00517104WA0272602929
B1242144029772N00517106WA0272602930
B1242154029778N00517106WA0272702932
B1242164029784N00517104WA0272802933
B1242174029790N00517102WA0272902934
B1242184029794N00517099WA0273102935
B1242194029798N00517095WA0273102936
B1242204029801N00517090WA0273102937
B1242214029804N00517085WA0273002936
B1242224029805N00517078WA0272802935
B1242234029805N00517072WA0272702935
B1242244029802N00517065WA0272702934
B1242254029799N00517060WA0272702935
B1242264029795N00517056WA0272902937
B1242274029790N00517055WA0273102938
B1242284029786N00517055WA0273202940
B1242294029781N00517058WA0273202941
B1242304029777N00517062WA0273502943
B1242314029773N00517067WA0273602944
B1242324029768N00517072WA0273802946
B1242334029764N00517078WA0273902948
B1242344029760N00517084WA0274202950
B1242354029756N00517090WA0274402952
B1242364029752N00517098WA0274502953
B1242374029749N00517106WA0274702955
B1242384029747N00517114WA0274802956
B1242394029746N00517122WA0274902958
B1242404029746N00517131WA0275002958
B1242414029748N00517140WA0275102959
B1242424029752N00517149WA0275102959
B1242434029758N00517154WA0275202960
B1242444029764N00517157WA0275202961
B1242454029770N00517155WA0275202961
B1242464029775N00517152WA0275202961
B1242474029780N00517148WA0275402962
B1242484029782N00517141WA0275502964
B1242494029781N00517135WA0275602965
B1242504029780N00517130WA0275802966
B1242514029776N00517128WA0275702966
B1242524029772N00517126WA0275802966
B1242534029767N00517125WA0275802965
B1242544029762N00517127WA0275702965
B1242554029758N00517131WA0275902965
B1242564029754N00517137WA0275902965
B1242574029752N00517146WA0275902965
B1242584029752N00517155WA0275802966
B1242594029754N00517164WA0275802965
B1243004029758N00517172WA0275902965
B1243014029762N00517178WA0275802966
B1243024029768N00517183WA0275902966
B1243034029774N00517186WA0276002966
B1243044029780N00517187WA0276102967
B1243054029786N00517186WA0276102968
B1243064029791N00517182WA0276202969
B1243074029795N00517177WA0276202969
B1243084029799N00517172WA0276302970
B1243094029803N00517166WA0276402972
B1243104029807N00517162WA0276602973
B1243114029811N00517159WA0276702975
B1243124029815N00517158WA0276702976
B1243134029819N00517157WA0276702976
B1243144029823N00517157WA0276602975
B1243154029828N00517157WA0276402973
B1243164029833N00517157WA0276402972
B1243174029838N00517157WA0276302971
B1243184029844N00517156WA0276102971
B1243194029849N00517156WA0275902969
B1243204029854N00517155WA0275802967
B1243214029860N00517155WA0275702965
B1243224029867N00517155WA0275502963
B1243234029873N00517155WA0275602962
B1243244029879N00517154WA0275502962
B1243254029884N00517153WA0275402961
B1243264029889N00517151WA0275402961
B1243274029894N00517151WA0275202958
B1243284029900N00517149WA0275002956
B1243294029906N00517148WA0275002955
B1243304029913N00517145WA0274902954
B1243314029918N00517143WA0274802953
B1243324029924N00517140WA0274702952
B1243334029929N00517137WA0274502951
B1243344029935N00517133WA0274302948
B1243354029940N00517129WA0274102946
B1243364029946N00517126WA0273902945
B1243374029952N00517122WA0273702943
B1243384029959N00517119WA0273602941
B1243394029965N00517116WA0273402939
B1243404029970N00517111WA0273402938
B1243414029976N00517107WA0273302936
B1243424029980N00517103WA0273202935
B1243434029985N00517100WA0273002933
B1243444029990N00517096WA0272802930
B1243454029995N00517092WA0272602928
B1243464030001N00517088WA0272502927
B1243474030007N00517083WA0272502926
B1243484030013N00517079WA0272402925
B1243494030018N00517074WA0272402925
B1243504030024N00517070WA0272302924
B1243514030029N00517066WA0272202923
B1243524030035N00517062WA0272102923
B1243534030040N00517058WA0272102922
B1243544030046N00517054WA0272002921
B1243554030052N00517051WA0272002922
B1243564030057N00517048WA0272102923
B1243574030062N00517047WA0272002923
B1243584030067N00517045WA0272002922
B1243594030072N00517044WA0272002921
B1244004030078N00517043WA0271902921
B1244014030084N00517042WA0271902920
B1244024030090N00517041WA0271802920
B1244034030095N00517039WA0271702920
B1244044030101N00517038WA0271702919
B1244054030106N00517036WA0271702918
B1244064030113N00517034WA0271502917
B1244074030119N00517033WA0271302916
B1244084030125N00517033WA0271302915
B1244094030131N00517032WA0271102914
B1244104030137N00517032WA0271002913
B1244114030144N00517032WA0271002911
B1244124030150N00517031WA0270602909
B1244134030155N00517029WA0270302907
B1244144030161N00517026WA0270102904
B1244154030166N00517023WA0270002903
B1244164030171N00517021WA0269802902
B1244174030176N00517019WA0269702901
B1244184030181N00517017WA0269602899
B1244194030186N00517015WA0269402895
B1244204030191N00517014WA0269102892
B1244214030197N00517011WA0268602889
B1244224030202N00517009WA0268302886
B1244234030208N00517007WA0268402884
B1244244030214N00517005WA0268102883
B1244254030219N00517004WA0267902881
B1244264030224N00517003WA0267702879
B1244274030229N00517001WA0267402876
B1244284030234N00516999WA0267002873
B1244294030240N00516997WA0266702869
B1244304030245N00516995WA0266502866
B1244314030251N00516993WA0266102864
B1244324030257N00516991WA0265802860
B1244334030263N00516989WA0265602856
B1244344030270N00516986WA0265302853
B1244354030277N00516984WA0265002852
B1244364030284N00516983WA0264802850
B1244374030291N00516982WA0264602848
B1244384030297N00516981WA0264402845
B1244394030304N00516979WA0264102843
B1244404030311N00516978WA0263902841
B1244414030317N00516977WA0263802839
B1244424030322N00516976WA0263602837
B1244434030328N00516975WA0263402835
B1244444030334N00516973WA0263102832
B1244454030341N00516971WA0262702829
B1244464030348N00516970WA0262502826
B1244474030355N00516968WA0262102823
B1244484030362N00516966WA0261902820
B1244494030368N00516964WA0261602818
B1244504030375N00516962WA0261402816
B1244514030382N00516960WA0261002813
B1244524030388N00516958WA0260702810
B1244534030394N00516956WA0260502806
B1244544030401N00516954WA0260202803
B1244554030408N00516951WA0259802800
B1244564030414N00516949WA0259602797
B1244574030421N00516947WA0259402794
B1244584030428N00516945WA0259102791
B1244594030434N00516942WA0258902790
B1245004030440N00516940WA0258702788
B1245014030445N00516938WA0258502786
B1245024030451N00516935WA0258402784
B1245034030456N00516933WA0258002781
B1245044030461N00516930WA0257702778
B1245054030466N00516927WA0257502776
B1245064030472N00516924WA0257302773
B1245074030477N00516922WA0257102771
B1245084030482N00516919WA0257002769
B1245094030487N00516917WA0256702767
B1245104030493N00516915WA0256502764
B1245114030498N00516912WA0256002760
B1245124030504N00516908WA0255702756
B1245134030509N00516904WA0255502752
B1245144030514N00516900WA0255302750
B1245154030519N00516895WA0254802747
B1245164030523N00516891WA0254802744
B1245174030528N00516886WA0254602742
B1245184030532N00516882WA0254302739
B1245194030536N00516878WA0254102737
B1245204030541N00516873WA0253902735
B1245214030545N00516868WA0253602733
B1245224030550N00516864WA0253302730
B1245234030554N00516858WA0253002728
B1245244030558N00516853WA0253002725
B1245254030562N00516848WA0252602722
B1245264030567N00516843WA0252302719
B1245274030571N00516838WA0252102716
B1245284030576N00516833WA0251902713
B1245294030580N00516827WA0251702711
B1245304030583N00516822WA0251602709
B1245314030586N00516816WA0251402707
B1245324030590N00516811WA0251102705
B1245334030593N00516805WA0250902702
B1245344030596N00516800WA0250702700
B1245354030600N00516794WA0250602698
B1245364030603N00516789WA0250502697
B1245374030606N00516783WA0250402696
B1245384030609N00516778WA0250302694
B1245394030612N00516772WA0250002692
B1245404030615N00516767WA0249702690
B1245414030618N00516762WA0249702689
B1245424030621N00516757WA0249602687
B1245434030624N00516753WA0249502686
B1245444030627N00516748WA0249202683
B1245454030630N00516742WA0248902681
B1245464030633N00516737WA0248702678
B1245474030636N00516732WA0248502676
B1245484030639N00516726WA0248302673
B1245494030642N00516721WA0248102671
B1245504030645N00516716WA0248102669
B1245514030647N00516711WA0248002667
B1245524030649N00516707WA0247802666
B1245534030650N00516703WA0247502664
B1245544030651N00516698WA0247302661
B1245554030653N00516692WA0247002657
B1245564030655N00516687WA0246702655
B1245574030657N00516680WA0246502653
B1245584030659N00516674WA0246402652
B1245594030661N00516667WA0246302650
B1246004030663N00516661WA0246302650
B1246014030664N00516655WA0246202649
B1246024030665N00516649WA0246102648
B1246034030666N00516643WA0245902647
B1246044030667N00516636WA0245702646
B1246054030668N00516628WA0245702645
B1246064030669N00516621WA0245702645
B1246074030670N00516614WA0245602645
B1246084030670N00516606WA0245602645
B1246094030671N00516599WA0245602645
B1246104030671N00516592WA0245502645
B1246114030671N00516584WA0245402644
B1246124030671N00516577WA0245302642
B1246134030672N00516570WA0245102640
B1246144030674N00516562WA0245102640
B1246154030676N00516555WA0245202640
B1246164030678N00516547WA0245102640
B1246174030681N00516541WA0245302641
B1246184030683N00516534WA0245302641
B1246194030684N00516527WA0245202641
B1246204030686N00516520WA0245002641
B1246214030686N00516512WA0244902640
B1246224030686N00516504WA0244902640
B1246234030686N00516496WA0244902640
B1246244030687N00516488WA0244902640
B1246254030688N00516480WA0245002640
B1246264030688N00516472WA0245102641
B1246274030688N00516465WA0245102641
B1246284030688N00516457WA0245002641
B1246294030688N00516450WA0245102642
B1246304030687N00516442WA0245002641
B1246314030687N00516435WA0244902640
B1246324030687N00516428WA0244802639
B1246334030688N00516421WA0244702638
B1246344030689N00516414WA0244602637
B1246354030690N00516407WA0244502636
B1246364030691N00516401WA0244302635
B1246374030692N00516394WA0244102634
B1246384030694N00516387WA0244002632
B1246394030695N00516380WA0243902631
B1246404030696N00516374WA0243802630
B1246414030697N00516368WA0243602629
B1246424030698N00516363WA0243402628
B1246434030699N00516357WA0243202625
B1246444030702N00516351WA0243202623
B1246454030705N00516345WA0243002621
B1246464030709N00516340WA0242902621
B1246474030712N00516334WA0242802620
B1246484030715N00516330WA0242702619
B1246494030718N00516325WA0242502618
B1246504030721N00516320WA0242202616
B1246514030724N00516315WA0242102614
B1246524030728N00516309WA0241702611
B1246534030732N00516303WA0241402608
B1246544030737N00516296WA0241102605
B1246554030741N00516289WA0240802602
B1246564030746N00516282WA0240702600
B1246574030750N00516275WA0240702598
B1246584030754N00516268WA0240602597
B1246594030758N00516262WA0240502596
B1247004030762N00516255WA0240502595
B1247014030765N00516249WA0240402594
B1247024030769N00516244WA0240402592
B1247034030773N00516239WA0240402591
B1247044030777N00516233WA0240202589
B1247054030782N00516227WA0239902588
B1247064030785N00516221WA0239802586
B1247074030789N00516214WA0239702585
B1247084030792N00516208WA0239602584
B1247094030795N00516201WA0239602583
B1247104030799N00516195WA0239402581
B1247114030802N00516188WA0239302581
B1247124030806N00516182WA0239202579
B1247134030810N00516176WA0239102578
B1247144030815N00516171WA0238902576
B1247154030820N00516165WA0238802575
B1247164030826N00516160WA0238702575
B1247174030831N00516156WA0238902576
B1247184030837N00516152WA0238902576
B1247194030842N00516149WA0238802577
B1247204030847N00516144WA0239002577
B1247214030851N00516139WA0238902577
B1247224030856N00516134WA0238902577
B1247234030859N00516128WA0238802577
B1247244030863N00516121WA0238702576
B1247254030866N00516114WA0238502575
B1247264030868N00516105WA0238402574
B1247274030871N00516096WA0238402573
B1247284030874N00516088WA0238402573
B1247294030877N00516080WA0238302573
B1247304030880N00516072WA0238202571
B1247314030884N00516064WA0238102569
B1247324030887N00516055WA0237702567
B1247334030890N00516047WA0237602563
B1247344030894N00516039WA0237502562
B1247354030899N00516030WA0237202560
B1247364030903N00516023WA0237202559
B1247374030908N00516016WA0237102558
B1247384030913N00516009WA0236902557
B1247394030918N00516002WA0236802555
B1247404030922N00515995WA0236602553
B1247414030928N00515988WA0236302551
B1247424030933N00515981WA0236202548
B1247434030939N00515974WA0236102547
B1247444030944N00515967WA0235902546
B1247454030949N00515959WA0236102546
B1247464030953N00515953WA0236202547
B1247474030957N00515946WA0236302548
B1247484030961N00515940WA0236302548
B1247494030964N00515934WA0236202548
B1247504030968N00515928WA0236102547
B1247514030971N00515920WA0236202548
B1247524030974N00515912WA0236202548
B1247534030978N00515903WA0236502550
B1247544030981N00515894WA0236402552
B1247554030983N00515885WA0236702553
B1247564030984N00515876WA0236802554
B1247574030985N00515867WA0236902555
B1247584030986N00515857WA0236902555
B1247594030987N00515849WA0236802554
B1248004030989N00515840WA0236702553
B1248014030992N00515832WA0236502551
B1248024030996N00515826WA0236402549
B1248034031000N00515820WA0236102547
B1248044031004N00515814WA0235902546
B1248054031008N00515808WA0235702544
B1248064031013N00515802WA0235502542
B1248074031018N00515797WA0235402540
B1248084031024N00515793WA0235402539
B1248094031029N00515788WA0235202540
B1248104031033N00515783WA0235102539
B1248114031038N00515777WA0235002538
B1248124031043N00515772WA0234902537
B1248134031047N00515767WA0234702535
B1248144031053N00515761WA0234402533
B1248154031059N00515755WA0234302531
B1248164031065N00515749WA0234402531
B1248174031071N00515744WA0234602533
B1248184031075N00515739WA0234602534
B1248194031080N00515735WA0234502534
B1248204031083N00515731WA0234402532
B1248214031088N00515727WA0234002531
B1248224031092N00515722WA0233902529
B1248234031097N00515717WA0233502526
B1248244031103N00515712WA0233302523
B1248254031108N00515705WA0233202522
B1248264031113N00515699WA0233102520
B1248274031118N00515693WA0233002519
B1248284031122N00515688WA0232902518
B1248294031127N00515683WA0232802517
B1248304031131N00515678WA0232502515
B1248314031135N00515672WA0232302513
B1248324031139N00515666WA0232102509
B1248334031143N00515660WA0231702505
B1248344031147N00515652WA0231402500
B1248354031151N00515643WA0231102496
B1248364031155N00515634WA0230902493
B1248374031159N00515625WA0230902492
B1248384031164N00515616WA0230902491
B1248394031168N00515607WA0230902490
B1248404031172N00515599WA0230802490
B1248414031176N00515591WA0230902489
B1248424031180N00515582WA0230802488
B1248434031183N00515572WA0230702488
B1248444031186N00515562WA0230602486
B1248454031190N00515552WA0230502486
B1248464031193N00515542WA0230402486
B1248474031196N00515533WA0230402485
B1248484031199N00515523WA0230302485
B1248494031203N00515513WA0230202484
B1248504031206N00515502WA0230202483
B1248514031210N00515492WA0230102483
B1248524031213N00515481WA0230102482
B1248534031217N00515471WA0230002481
B1248544031221N00515460WA0230002480
B1248554031225N00515449WA0230002480
B1248564031228N00515439WA0230002481
B1248574031232N00515428WA0230202481
B1248584031235N00515419WA0230102481
B1248594031238N00515409WA0230102482
B1249004031242N00515400WA0230102481
B1249014031245N00515391WA0230002481
B1249024031249N00515381WA0230102480
B1249034031253N00515370WA0230002480
B1249044031256N00515359WA0230102480
B1249054031259N00515348WA0230102481
B1249064031262N00515337WA0230202482
B1249074031264N00515327WA0230202482
B1249084031267N00515316WA0230202481
B1249094031270N00515306WA0230102480
B1249104031272N00515295WA0230002480
B1249114031275N00515284WA0230002479
B1249124031278N00515274WA0230002480
B1249134031281N00515264WA0229902479
B1249144031283N00515254WA0229802479
B1249154031286N00515244WA0229502477
B1249164031288N00515233WA0229202474
B1249174031290N00515222WA0229002470
B1249184031293N00515211WA0228702468
B1249194031295N00515199WA0228602466
B1249204031298N00515188WA0228502465
B1249214031301N00515178WA0228302465
B1249224031303N00515168WA0228302464
B1249234031305N00515160WA0228102462
B1249244031307N00515150WA0227802460
B1249254031310N00515140WA0227502457
B1249264031312N00515129WA0227302455
B1249274031315N00515119WA0227102453
B1249284031318N00515109WA0226902451
B1249294031321N00515100WA0226602449
B1249304031323N00515091WA0226602447
B1249314031326N00515083WA0226202445
B1249324031328N00515075WA0225902444
B1249334031330N00515067WA0225502445
B1249344031333N00515058WA0225202444
B1249354031335N00515049WA0224802441
B1249364031337N00515039WA0224402437
B1249374031339N00515029WA0224102433
B1249384031341N00515021WA0223802429
B1249394031342N00515012WA0223602425
B1249404031345N00515003WA0223302421
B1249414031347N00514994WA0223102418
B1249424031349N00514985WA0222902416
B1249434031350N00514976WA0222802414
B1249444031350N00514966WA0222402410
B1249454031351N00514957WA0222002405
B1249464031352N00514947WA0221502400
B1249474031354N00514937WA0221302395
B1249484031357N00514927WA0221002391
B1249494031360N00514917WA0220502387
B1249504031363N00514908WA0220402384
B1249514031366N00514899WA0220102381
B1249524031369N00514889WA0219802378
B1249534031373N00514879WA0219602374
B1249544031377N00514869WA0219302371
B1249554031381N00514859WA0219102370
B1249564031386N00514850WA0219102368
B1249574031390N00514841WA0219102367
B1249584031394N00514832WA0219002366
B1249594031398N00514824WA0219002366
B1250004031402N00514816WA0218902365
B1250014031405N00514808WA0219102366
B1250024031409N00514800WA0219302368
B1250034031412N00514792WA0219502370
B1250044031415N00514784WA0219402371
B1250054031417N00514775WA0219302371
B1250064031419N00514767WA0218902369
B1250074031420N00514758WA0218602366
B1250084031422N00514749WA0218202362
B1250094031424N00514738WA0218002360
B1250104031426N00514729WA0217902358
B1250114031429N00514721WA0217702356
B1250124031432N00514713WA0217602354
B1250134031435N00514705WA0217502352
B1250144031438N00514697WA0217602352
B1250154031441N00514690WA0217602352
B1250164031444N00514683WA0217602352
B1250174031446N00514676WA0217602352
B1250184031449N00514670WA0217302350
B1250194031453N00514664WA0217102347
B1250204031456N00514657WA0216902345
B1250214031460N00514649WA0216702343
B1250224031464N00514641WA0216702341
B1250234031467N00514633WA0216802340
B1250244031470N00514625WA0216902341
B1250254031471N00514618WA0217002342
B1250264031473N00514611WA0217202343
B1250274031473N00514603WA0217202343
B1250284031472N00514596WA0217202343
B1250294031471N00514588WA0217202343
B1250304031470N00514579WA0217302344
B1250314031470N00514570WA0217302345
B1250324031470N00514560WA0217502346
B1250334031470N00514552WA0217602347
B1250344031470N00514544WA0217602348
B1250354031470N00514537WA0217602348
B1250364031471N00514529WA0217602348
B1250374031472N00514521WA0217502348
B1250384031475N00514512WA0217502347
B1250394031476N00514502WA0217502346
B1250404031475N00514493WA0217402345
B1250414031471N00514485WA0217302345
B1250424031466N00514480WA0217302344
B1250434031460N00514475WA0217402345
B1250444031455N00514471WA0217602347
B1250454031450N00514467WA0217802351
B1250464031445N00514464WA0217902353
B1250474031440N00514461WA0218002355
B1250484031436N00514461WA0218102356
B1250494031432N00514463WA0218102357
B1250504031429N00514467WA0218102357
B1250514031429N00514474WA0218002357
B1250524031430N00514480WA0218102357
B1250534031435N00514485WA0218102357
B1250544031440N00514489WA0218102357
B1250554031446N00514491WA0218102357
B1250564031452N00514493WA0218102357
B1250574031458N00514493WA0218102357
B1250584031464N00514491WA0218402357
B1250594031471N00514488WA0218302361
B1251004031477N00514485WA0218502363
B1251014031484N00514483WA0218702364
B1251024031489N00514480WA0218602365
B1251034031494N00514476WA0218502366
B1251044031499N00514471WA0218502366
B1251054031504N00514466WA0218402366
B1251064031509N00514460WA0218202364
B1251074031512N00514453WA0218102362
B1251084031515N00514446WA0218102362
B1251094031516N00514439WA0218102361
B1251104031517N00514432WA0218202361
B1251114031519N00514426WA0218102361
B1251124031521N00514420WA0218102360
B1251134031523N00514416WA0217902358
B1251144031526N00514412WA0217802355
B1251154031529N00514407WA0217602353
B1251164031532N00514402WA0217302350
B1251174031535N00514396WA0217002348
B1251184031538N00514390WA0216702345
B1251194031542N00514384WA0216502343
B1251204031545N00514378WA0216202340
B1251214031549N00514372WA0216002338
B1251224031552N00514367WA0215802336
B1251234031556N00514362WA0215502333
B1251244031560N00514357WA0215302330
B1251254031565N00514353WA0215102327
B1251264031570N00514349WA0215002326
B1251274031575N00514346WA0215002326
B1251284031579N00514343WA0215002326
B1251294031583N00514339WA0215002325
B1251304031588N00514336WA0214802324
B1251314031592N00514331WA0214602322
B1251324031596N00514326WA0214402320
B1251334031601N00514321WA0214302318
B1251344031605N00514316WA0214202316
B1251354031609N00514312WA0214102315
B1251364031613N00514307WA0214002314
B1251374031616N00514301WA0213802312
B1251384031620N00514296WA0213602311
B1251394031624N00514291WA0213402308
B1251404031627N00514285WA0213202306
B1251414031630N00514279WA0213002304
B1251424031633N00514272WA0212902302
B1251434031636N00514265WA0212602300
B1251444031639N00514259WA0212502297
B1251454031642N00514254WA0212202295
B1251464031646N00514249WA0211902292
B1251474031650N00514245WA0211502289
B1251484031654N00514240WA0211302286
B1251494031660N00514235WA0211102283
B1251504031665N00514230WA0210902281
B1251514031670N00514225WA0210802279
B1251524031674N00514221WA0210702277
B1251534031678N00514216WA0210502276
B1251544031682N00514211WA0210302273
B1251554031686N00514207WA0210002270
B1251564031692N00514202WA0209902268
B1251574031697N00514198WA0209702266
B1251584031702N00514194WA0209702266
B1251594031707N00514191WA0209702265
B1252004031711N00514187WA0209502264
B1252014031716N00514184WA0209402263
B1252024031721N00514181WA0209402261
B1252034031726N00514178WA0209302261
B1252044031731N00514176WA0209302261
B1252054031735N00514173WA0209302261
B1252064031740N00514171WA0209202260
B1252074031744N00514170WA0209202260
B1252084031749N00514169WA0209102259
B1252094031754N00514169WA0209102258
B1252104031759N00514168WA0209002258
B1252114031764N00514167WA0208902257
B1252124031768N00514166WA0208702256
B1252134031773N00514164WA0208702254
B1252144031778N00514162WA0208702253
B1252154031784N00514158WA0208502252
B1252164031789N00514154WA0208502252
B1252174031794N00514150WA0208502252
B1252184031799N00514146WA0208502252
B1252194031804N00514142WA0208402252
B1252204031810N00514139WA0208402251
B1252214031815N00514136WA0208202250
B1252224031821N00514133WA0208002248
B1252234031826N00514129WA0208002247
B1252244031831N00514125WA0207902246
B1252254031836N00514122WA0207902245
B1252264031841N00514119WA0207702243
B1252274031845N00514116WA0207402241
B1252284031849N00514113WA0207002239
B1252294031853N00514109WA0206702234
B1252304031857N00514104WA0206302230
B1252314031862N00514099WA0206102227
B1252324031866N00514093WA0205802225
B1252334031870N00514087WA0205502223
B1252344031873N00514082WA0205302220
B1252354031877N00514076WA0205002217
B1252364031881N00514070WA0204802214
B1252374031885N00514064WA0204602212
B1252384031888N00514058WA0204402210
B1252394031891N00514053WA0204202208
B1252404031895N00514048WA0203902205
B1252414031899N00514043WA0203602201
B1252424031903N00514037WA0203302197
B1252434031908N00514031WA0202902194
B1252444031912N00514025WA0202802190
B1252454031916N00514020WA0202602188
B1252464031921N00514015WA0202402186
B1252474031925N00514010WA0202002183
B1252484031930N00514005WA0201802180
B1252494031935N00514000WA0201502177
B1252504031940N00513995WA0201102173
B1252514031945N00513990WA0200702170
B1252524031950N00513985WA0200502166
B1252534031956N00513980WA0200202163
B1252544031961N00513976WA0200002160
B1252554031966N00513973WA0199502156
B1252564031972N00513970WA0199202152
B1252574031978N00513966WA0198702147
B1252584031984N00513962WA0198502144
B1252594031990N00513959WA0198402142
B1253004031995N00513955WA0198102140
B1253014032000N00513951WA0197802137
B1253024032004N00513946WA0197502133
B1253034032008N00513940WA0197002129
B1253044032013N00513934WA0196702126
B1253054032018N00513929WA0196602124
B1253064032024N00513926WA0196602122
B1253074032028N00513923WA0196502121
B1253084032033N00513920WA0196402119
B1253094032037N00513917WA0196202116
B1253104032042N00513913WA0195802114
B1253114032046N00513908WA0195502110
B1253124032050N00513902WA0195302107
B1253134032054N00513897WA0195002105
B1253144032058N00513892WA0194802103
B1253154032062N00513887WA0194502101
B1253164032065N00513882WA0194202098
B1253174032069N00513878WA0194102096
B1253184032074N00513875WA0193802092
B1253194032078N00513873WA0193402088
B1253204032083N00513871WA0193002084
B1253214032087N00513867WA0192502080
B1253224032091N00513862WA0192102075
B1253234032095N00513858WA0191602071
B1253244032099N00513853WA0191202067
B1253254032103N00513850WA0191002063
B1253264032108N00513846WA0190602059
B1253274032111N00513841WA0190202054
B1253284032115N00513836WA0189802050
B1253294032119N00513830WA0189502046
B1253304032122N00513824WA0189202042
B1253314032126N00513818WA0188902041
B1253324032129N00513814WA0188602037
B1253334032132N00513809WA0188202033
B1253344032135N00513803WA0187902029
B1253354032139N00513797WA0187402024
B1253364032142N00513790WA0187102021
B1253374032144N00513784WA0187002018
B1253384032146N00513778WA0186702015
B1253394032149N00513772WA0186402013
B1253404032152N00513766WA0186102009
B1253414032154N00513761WA0185702005
B1253424032156N00513755WA0185302001
B1253434032159N00513749WA0185001998
B1253444032160N00513743WA0184801994
B1253454032162N00513737WA0184601991
B1253464032163N00513731WA0184201987
B1253474032164N00513723WA0183801983
B1253484032164N00513716WA0183501980
B1253494032165N00513708WA0183301978
B1253504032165N00513701WA0183101975
B1253514032166N00513694WA0182901973
B1253524032166N00513687WA0182501970
B1253534032165N00513680WA0182201967
B1253544032165N00513672WA0182101963
B1253554032164N00513665WA0181701960
B1253564032164N00513657WA0181601957
B1253574032164N00513649WA0181601955
B1253584032163N00513642WA0181601954
B1253594032162N00513636WA0181701953
B1254004032160N00513630WA0181601953
B1254014032159N00513624WA0181401952
B1254024032158N00513618WA0181301951
B1254034032157N00513611WA0181101950
B1254044032156N00513604WA0181101949
B1254054032156N00513598WA0181001948
B1254064032156N00513592WA0180901947
B1254074032155N00513586WA0180701946
B1254084032153N00513581WA0180501944
B1254094032152N00513575WA0180401942
B1254104032150N00513568WA0180401941
B1254114032149N00513560WA0180201940
B1254124032147N00513553WA0180001939
B1254134032145N00513546WA0179901939
B1254144032144N00513539WA0179901938
B1254154032143N00513532WA0179801937
B1254164032143N00513526WA0179801937
B1254174032143N00513521WA0179601935
B1254184032143N00513514WA0179501934
B1254194032143N00513508WA0179201931
B1254204032143N00513501WA0179001928
B1254214032143N00513494WA0178801926
B1254224032144N00513487WA0178501924
B1254234032143N00513480WA0178301922
B1254244032143N00513471WA0178101919
B1254254032142N00513464WA0177901917
B1254264032142N00513456WA0177801916
B1254274032141N00513448WA0177601914
B1254284032140N00513441WA0177501913
B1254294032137N00513434WA0177401911
B1254304032134N00513428WA0177301910
B1254314032131N00513421WA0177101908
B1254324032128N00513415WA0177001906
B1254334032125N00513408WA0176701904
B1254344032122N00513400WA0176701903
B1254354032119N00513393WA0176501902
B1254364032117N00513386WA0176501902
B1254374032114N00513380WA0176501901
B1254384032111N00513373WA0176401901
B1254394032108N00513367WA0176501900
B1254404032106N00513362WA0176701901
B1254414032104N00513357WA0176701901
B1254424032102N00513353WA0176801902
B1254434032099N00513348WA0176901902
B1254444032097N00513343WA0176701902
B1254454032094N00513338WA0176801903
B1254464032092N00513333WA0176701902
B1254474032091N00513328WA0176601902
B1254484032090N00513323WA0176501901
B1254494032089N00513318WA0176501901
B1254504032089N00513314WA0176401900
B1254514032089N00513309WA0176401901
B1254524032089N00513304WA0176401901
B1254534032089N00513300WA0176301900
B1254544032088N00513295WA0176201899
B1254554032086N00513291WA0176101898
B1254564032084N00513285WA0175901898
B1254574032083N00513279WA0175901897
B1254584032083N00513273WA0176001897
B1254594032084N00513268WA0176201898
B1255004032086N00513264WA0176301899
B1255014032088N00513259WA0176301901
B1255024032089N00513254WA0176201902
B1255034032090N00513249WA0175901902
B1255044032090N00513244WA0175701901
B1255054032089N00513239WA0175601897
B1255064032090N00513233WA0175201894
B1255074032092N00513228WA0175001891
B1255084032094N00513223WA0174801889
B1255094032096N00513217WA0174601887
B1255104032097N00513211WA0174301884
B1255114032098N00513205WA0174101882
B1255124032100N00513199WA0173801879
B1255134032103N00513194WA0173701876
B1255144032106N00513188WA0173501874
B1255154032110N00513183WA0173401872
B1255164032114N00513178WA0173501870
B1255174032119N00513173WA0173401870
B1255184032123N00513168WA0173401870
B1255194032127N00513163WA0173401869
B1255204032132N00513158WA0173201869
B1255214032136N00513153WA0173201868
B1255224032139N00513147WA0173101868
B1255234032142N00513141WA0173101867
B1255244032144N00513136WA0173001867
B1255254032148N00513130WA0172901866
B1255264032151N00513125WA0173001866
B1255274032153N00513121WA0172901866
B1255284032156N00513115WA0172901865
B1255294032156N00513110WA0172901865
B1255304032156N00513103WA0172801864
B1255314032155N00513096WA0173101864
B1255324032154N00513090WA0173001865
B1255334032153N00513084WA0172901865
B1255344032151N00513079WA0172801864
B1255354032149N00513073WA0172701861
B1255364032148N00513067WA0172601860
B1255374032146N00513061WA0172601859
B1255384032144N00513054WA0172301857
B1255394032141N00513048WA0172101855
B1255404032137N00513041WA0172001853
B1255414032133N00513034WA0171801852
B1255424032130N00513027WA0171701851
B1255434032127N00513020WA0171801851
B1255444032123N00513014WA0171701850
B1255454032118N00513009WA0171601848
B1255464032111N00513005WA0171701848
B1255474032104N00513003WA0171701849
B1255484032098N00513000WA0171701850
B1255494032093N00512997WA0171901851
B1255504032089N00512993WA0171901852
B1255514032085N00512990WA0171901853
B1255524032080N00512986WA0171801852
B1255534032074N00512983WA0171901853
B1255544032068N00512980WA0171801853
B1255554032061N00512979WA0172001853
B1255564032054N00512980WA0171901854
B1255574032047N00512982WA0172001855
B1255584032042N00512984WA0172201857
B1255594032036N00512986WA0172201858
B1256004032031N00512989WA0172101858
B1256014032027N00512992WA0172001858
B1256024032024N00512997WA0171901858
B1256034032022N00513002WA0171701857
B1256044032021N00513009WA0171501856
B1256054032021N00513016WA0171301853
B1256064032023N00513023WA0171101850
B1256074032025N00513031WA0171101850
B1256084032028N00513037WA0171001849
B1256094032031N00513043WA0170901848
B1256104032035N00513048WA0170701847
B1256114032040N00513053WA0170401845
B1256124032046N00513057WA0170401842
B1256134032052N00513060WA0170301841
B1256144032059N00513063WA0170401841
B1256154032064N00513065WA0170601843
B1256164032069N00513066WA0170601844
B1256174032072N00513068WA0170501845
B1256184032074N00513070WA0170201845
B1256194032078N00513070WA0169801844
B1256204032083N00513068WA0169501841
B1256214032087N00513066WA0169201839
B1256224032092N00513063WA0169201837
B1256234032097N00513059WA0169201838
B1256244032100N00513056WA0169201838
B1256254032103N00513052WA0169201837
B1256264032105N00513049WA0169101837
B1256274032108N00513045WA0169101836
B1256284032110N00513041WA0168901835
B1256294032112N00513036WA0168801834
B1256304032115N00513031WA0168901833
B1256314032117N00513025WA0169001832
B1256324032120N00513019WA0169201835
B1256334032121N00513013WA0169201836
B1256344032121N00513008WA0169401838
B1256354032121N00513002WA0169601839
B1256364032121N00512997WA0169901840
B1256374032119N00512992WA0169901841
B1256384032116N00512988WA0170001843
B1256394032113N00512985WA0169801843
B1256404032107N00512986WA0169801842
B1256414032101N00512991WA0169801842
B1256424032097N00512999WA0169801841
B1256434032097N00513008WA0169801841
B1256444032099N00513017WA0169801841
B1256454032103N00513024WA0169901841
B1256464032109N00513027WA0170001841
B1256474032115N00513028WA0170101842
B1256484032121N00513028WA0170201843
B1256494032126N00513025WA0170301845
B1256504032130N00513021WA0170301846
B1256514032133N00513015WA0170401846
B1256524032134N00513008WA0170401846
B1256534032133N00513000WA0170501847
B1256544032131N00512992WA0170801848
B1256554032123N00512988WA0171101850
B1256564032117N00512987WA0171301851
B1256574032112N00512989WA0171301852
B1256584032108N00512996WA0171301852
B1256594032107N00513005WA0171501852
B1257004032108N00513014WA0171601853
B1257014032112N00513021WA0171801854
B1257024032118N00513025WA0171801855
B1257034032123N00513024WA0171901856
B1257044032128N00513019WA0171901856
B1257054032129N00513011WA0172001857
B1257064032129N00513004WA0172301859
B1257074032128N00512995WA0172401860
B1257084032125N00512988WA0172701861
B1257094032121N00512981WA0172801863
B1257104032116N00512976WA0173301866
B1257114032110N00512974WA0173401868
B1257124032105N00512975WA0173601869
B1257134032102N00512982WA0173601871
B1257144032101N00512991WA0173701872
B1257154032103N00513000WA0173801873
B1257164032107N00513008WA0173801875
B1257174032113N00513012WA0174001877
B1257184032119N00513011WA0174001878
B1257194032124N00513009WA0174101879
B1257204032128N00513004WA0174301880
B1257214032131N00513000WA0174501883
B1257224032133N00512995WA0174801885
B1257234032134N00512988WA0174901886
B1257244032133N00512981WA0175201887
B1257254032130N00512974WA0175301889
B1257264032126N00512967WA0175501890
B1257274032120N00512964WA0175701893
B1257284032112N00512963WA0175801891
B1257294032105N00512966WA0176201892
B1257304032100N00512970WA0176401894
B1257314032096N00512976WA0176801898
B1257324032095N00512982WA0177001901
B1257334032095N00512990WA0177201904
B1257344032099N00512996WA0177301906
B1257354032104N00513000WA0177401906
B1257364032109N00513003WA0177501908
B1257374032115N00513001WA0177601909
B1257384032119N00512997WA0177801911
B1257394032121N00512991WA0177801913
B1257404032122N00512984WA0178101916
B1257414032122N00512977WA0178301919
B1257424032120N00512969WA0178601922
B1257434032116N00512962WA0178901925
B1257444032112N00512957WA0179101928
B1257454032106N00512952WA0179201927
B1257464032100N00512951WA0179401928
B1257474032092N00512953WA0179501929
B1257484032086N00512959WA0179701931
B1257494032084N00512968WA0180001934
B1257504032084N00512976WA0180201937
B1257514032086N00512983WA0180401939
B1257524032091N00512987WA0180401940
B1257534032097N00512990WA0180501941
B1257544032102N00512990WA0180701943
B1257554032107N00512986WA0181001944
B1257564032109N00512981WA0181301945
B1257574032108N00512974WA0181601948
B1257584032105N00512967WA0182001950
B1257594032100N00512962WA0182201953
B1258004032094N00512958WA0182301953
B1258014032087N00512958WA0182601956
B1258024032080N00512962WA0182701958
B1258034032075N00512968WA0182901960
B1258044032072N00512976WA0183101962
B1258054032072N00512986WA0183301964
B1258064032074N00512993WA0183401967
B1258074032078N00512999WA0183501969
B1258084032083N00513002WA0183501970
B1258094032088N00513004WA0183801972
B1258104032094N00513004WA0184001975
B1258114032097N00513003WA0184401976
B1258124032100N00512999WA0184701977
B1258134032101N00512994WA0184901979
B1258144032100N00512987WA0185101982
B1258154032097N00512981WA0185301984
B1258164032092N00512976WA0185501987
B1258174032085N00512974WA0185701988
B1258184032078N00512974WA0186001990
B1258194032072N00512978WA0186301992
B1258204032067N00512985WA0186401994
B1258214032066N00512994WA0186501996
B1258224032068N00513002WA0186701997
B1258234032071N00513009WA0186901999
B1258244032075N00513013WA0187002001
B1258254032080N00513014WA0187202002
B1258264032084N00513012WA0187402004
B1258274032087N00513009WA0187602006
B1258284032089N00513005WA0187802008
B1258294032090N00512999WA0188002010
B1258304032090N00512993WA0188202013
B1258314032088N00512987WA0188302016
B1258324032084N00512981WA0188502018
B1258334032078N00512977WA0188702020
B1258344032071N00512976WA0188802022
B1258354032063N00512978WA0189102024
B1258364032056N00512984WA0189202026
B1258374032053N00512991WA0189302029
B1258384032052N00513000WA0189502030
B1258394032053N00513007WA0189502032
B1258404032054N00513015WA0189702033
B1258414032056N00513021WA0189702035
B1258424032060N00513026WA0189902037
B1258434032064N00513028WA0190102038
B1258444032067N00513028WA0190302041
B1258454032070N00513027WA0190302044
B1258464032072N00513024WA0190402045
B1258474032073N00513019WA0190502046
B1258484032073N00513014WA0190502048
B1258494032072N00513008WA0190602049
B1258504032070N00513003WA0190902051
B1258514032067N00512998WA0191102053
B1258524032064N00512993WA0191202055
B1258534032062N00512989WA0191402057
B1258544032060N00512984WA0191502058
B1258554032057N00512979WA0191602060
B1258564032052N00512975WA0191702061
B1258574032047N00512973WA0191902063
B1258584032041N00512973WA0192202065
B1258594032036N00512975WA0192302066
B1259004032032N00512980WA0192302067
B1259014032029N00512986WA0192302067
B1259024032027N00512993WA0192202067
B1259034032027N00513002WA0192002066
B1259044032029N00513011WA0192102066
B1259054032032N00513020WA0192102068
B1259064032035N00513026WA0192302070
B1259074032039N00513031WA0192502071
B1259084032043N00513033WA0192802073
B1259094032046N00513035WA0193002075
B1259104032049N00513036WA0193002076
B1259114032051N00513037WA0193102075
B1259124032054N00513035WA0193002074
B1259134032055N00513031WA0193002074
B1259144032054N00513025WA0193202074
B1259154032052N00513019WA0193402075
B1259164032048N00513014WA0193602076
B1259174032043N00513010WA0193702078
B1259184032039N00513007WA0193802079
B1259194032033N00513007WA0193802079
B1259204032028N00513009WA0193902079
B1259214032024N00513014WA0193802079
B1259224032020N00513021WA0193802079
B1259234032020N00513030WA0193702079
B1259244032020N00513037WA0193802080
B1259254032023N00513044WA0193902081
B1259264032026N00513049WA0193902081
B1259274032029N00513054WA0194202083
B1259284032031N00513057WA0194202085
B1259294032034N00513058WA0194302087
B1259304032036N00513059WA0194302088
B1259314032039N00513059WA0194402088
B1259324032042N00513058WA0194502090
B1259334032044N00513058WA0194602092
B1259344032047N00513056WA0194802093
B1259354032049N00513053WA0194802095
B1259364032051N00513049WA0194902096
B1259374032051N00513045WA0194802096
B1259384032049N00513039WA0194802096
B1259394032047N00513033WA0195002097
B1259404032044N00513028WA0195102099
B1259414032041N00513024WA0195202100
B1259424032037N00513021WA0195302101
B1259434032034N00513019WA0195302102
B1259444032030N00513017WA0195302102
B1259454032025N00513016WA0195302102
B1259464032020N00513017WA0195302103
B1259474032015N00513018WA0195302102
B1259484032009N00513020WA0195502103
B1259494032004N00513023WA0195502103
B1259504032000N00513027WA0195302103
B1259514031997N00513031WA0195302102
B1259524031995N00513037WA0195102101
B1259534031994N00513044WA0195102099
B1259544031993N00513052WA0195002098
B1259554031994N00513059WA0195102098
B1259564031996N00513066WA0195102098
B1259574031999N00513071WA0195102099
B1259584032002N00513075WA0195202099
B1259594032006N00513079WA0195302100
B1300004032009N00513083WA0195402101
B1300014032011N00513088WA0195502101
B1300024032013N00513093WA0195502102
B1300034032014N00513099WA0195502103
B1300044032016N00513103WA0195502102
B1300054032018N00513105WA0195402102
B1300064032022N00513105WA0195302100
B1300074032025N00513102WA0195202099
B1300084032026N00513096WA0195302098
B1300094032026N00513090WA0195302098
B1300104032022N00513084WA0195402098
B1300114032017N00513078WA0195502098
B1300124032011N00513074WA0195602099
B1300134032005N00513072WA0195702100
B1300144031999N00513071WA0195702101
B1300154031993N00513072WA0195602100
B1300164031988N00513075WA0195502099
B1300174031983N00513079WA0195502099
B1300184031979N00513084WA0195502100
B1300194031975N00513089WA0195602101
B1300204031973N00513094WA0195602103
B1300214031971N00513100WA0195602103
B1300224031969N00513106WA0195502103
B1300234031969N00513113WA0195402102
B1300244031971N00513119WA0195402102
B1300254031974N00513125WA0195302102
B1300264031978N00513130WA0195302102
B1300274031982N00513132WA0195402103
B1300284031987N00513134WA0195502104
B1300294031991N00513135WA0195602105
B1300304031994N00513135WA0195502105
B1300314031997N00513135WA0195502104
B1300324032001N00513135WA0195202102
B1300334032005N00513133WA0195002100
B1300344032009N00513131WA0195002098
B1300354032013N00513127WA0194802097
B1300364032017N00513123WA0194702095
B1300374032020N00513118WA0194602095
B1300384032023N00513113WA0194602094
B1300394032026N00513108WA0194402093
B1300404032027N00513102WA0194402092
B1300414032028N00513094WA0194302091
B1300424032028N00513086WA0194402091
B1300434032027N00513078WA0194502092
B1300444032025N00513071WA0194802093
B1300454032024N00513064WA0195102094
B1300464032022N00513059WA0195102095
B1300474032020N00513053WA0194902095
B1300484032020N00513048WA0194802094
B1300494032021N00513042WA0194602092
B1300504032023N00513036WA0194302090
B1300514032027N00513031WA0194402089
B1300524032032N00513026WA0194402089
B1300534032036N00513022WA0194402089
B1300544032041N00513020WA0194602089
B1300554032047N00513019WA0194502089
B1300564032053N00513018WA0194502089
B1300574032059N00513017WA0194502089
B1300584032065N00513019WA0194602090
B1300594032071N00513021WA0194602090
B1301004032077N00513026WA0194702091
B1301014032081N00513031WA0194802091
B1301024032084N00513038WA0194702092
B1301034032086N00513046WA0195002093
B1301044032086N00513055WA0195102095
B1301054032084N00513063WA0195302097
B1301064032081N00513070WA0195402099
B1301074032077N00513076WA0195502101
B1301084032071N00513080WA0195502102
B1301094032065N00513081WA0195502103
B1301104032058N00513079WA0195502103
B1301114032052N00513074WA0195602104
B1301124032048N00513068WA0195802106
B1301134032046N00513062WA0195802106
B1301144032048N00513055WA0195802107
B1301154032051N00513050WA0195902107
B1301164032054N00513046WA0195902106
B1301174032059N00513044WA0195802106
B1301184032064N00513043WA0195802105
B1301194032070N00513044WA0195702105
B1301204032077N00513046WA0195802106
B1301214032083N00513049WA0195902106
B1301224032088N00513054WA0196102108
B1301234032093N00513060WA0196402111
B1301244032097N00513066WA0196602113
B1301254032099N00513072WA0196802116
B1301264032100N00513079WA0196702117
B1301274032100N00513085WA0196602118
B1301284032097N00513093WA0196602118
B1301294032091N00513099WA0196602118
B1301304032084N00513103WA0196802119
B1301314032077N00513102WA0196802119
B1301324032071N00513099WA0196802119
B1301334032066N00513093WA0196802119
B1301344032063N00513086WA0196802119
B1301354032061N00513079WA0197102120
B1301364032060N00513073WA0197202121
B1301374032061N00513067WA0197302122
B1301384032063N00513062WA0197302122
B1301394032065N00513059WA0197202121
B1301404032069N00513056WA0197202121
B1301414032074N00513053WA0197202120
B1301424032079N00513051WA0197302120
B1301434032085N00513051WA0197402125
B1301444032090N00513051WA0197702127
B1301454032094N00513052WA0197802129
B1301464032098N00513055WA0197802130
B1301474032103N00513058WA0197902132
B1301484032104N00513065WA0198002133
B1301494032105N00513073WA0198202134
B1301504032104N00513081WA0198502138
B1301514032103N00513088WA0198702141
B1301524032100N00513094WA0198902144
B1301534032097N00513100WA0199102145
B1301544032093N00513105WA0199102146
B1301554032088N00513109WA0199302146
B1301564032083N00513111WA0199302146
B1301574032077N00513112WA0199302147
B1301584032072N00513113WA0199402148
B1301594032067N00513113WA0199402149
B1302004032062N00513113WA0199302149
B1302014032058N00513111WA0199202148
B1302024032053N00513107WA0199102148
B1302034032050N00513101WA0199102148
B1302044032048N00513094WA0199202148
B1302054032047N00513086WA0199202150
B1302064032048N00513079WA0199302151
B1302074032049N00513074WA0199502153
B1302084032051N00513070WA0199502153
B1302094032053N00513066WA0199502153
B1302104032055N00513062WA0199502153
B1302114032058N00513058WA0199602153
B1302124032062N00513055WA0199502153
B1302134032067N00513051WA0199602154
B1302144032071N00513048WA0199602155
B1302154032074N00513044WA0199702155
B1302164032078N00513041WA0199702156
B1302174032082N00513038WA0199702155
B1302184032088N00513037WA0199602155
B1302194032093N00513038WA0199602154
B1302204032099N00513039WA0199702154
B1302214032105N00513040WA0199802155
B1302224032110N00513039WA0200002156
B1302234032115N00513037WA0200002157
B1302244032120N00513036WA0200102157
B1302254032125N00513036WA0200002156
B1302264032131N00513038WA0199902155
B1302274032136N00513042WA0199802155
B1302284032140N00513048WA0200002154
B1302294032141N00513057WA0199902154
B1302304032141N00513067WA0199902154
B1302314032139N00513074WA0199902155
B1302324032137N00513080WA0200002156
B1302334032134N00513085WA0200102157
B1302344032132N00513091WA0200202156
B1302354032131N00513096WA0200202156
B1302364032129N00513101WA0200102155
B1302374032129N00513107WA0200102154
B1302384032130N00513114WA0200002154
B1302394032134N00513119WA0200102154
B1302404032138N00513124WA0200202155
B1302414032143N00513126WA0200302157
B1302424032147N00513128WA0200402159
B1302434032152N00513129WA0200502160
B1302444032156N00513128WA0200402160
B1302454032161N00513126WA0200402160
B1302464032165N00513122WA0200302158
B1302474032169N00513117WA0200202156
B1302484032172N00513110WA0200302156
B1302494032174N00513103WA0200402157
B1302504032174N00513096WA0200602158
B1302514032173N00513089WA0200602158
B1302524032172N00513083WA0200502158
B1302534032170N00513078WA0200402157
B1302544032167N00513073WA0200202157
B1302554032162N00513071WA0200102155
B1302564032157N00513068WA0199902153
B1302574032151N00513068WA0200002152
B1302584032144N00513068WA0199902152
B1302594032139N00513069WA0199902151
B1303004032134N00513072WA0199902151
B1303014032130N00513076WA0199902150
B1303024032127N00513082WA0199902150
B1303034032125N00513087WA0199802150
B1303044032124N00513092WA0199902150
B1303054032124N00513097WA0199902151
B1303064032124N00513103WA0200002151
B1303074032125N00513109WA0200002152
B1303084032126N00513114WA0200002152
B1303094032128N00513119WA0200002152
B1303104032130N00513125WA0200102152
B1303114032133N00513129WA0200102153
B1303124032137N00513134WA0200402154
B1303134032142N00513138WA0200502156
B1303144032146N00513142WA0200502157
B1303154032151N00513144WA0200502158
B1303164032155N00513146WA0200702159
B1303174032159N00513146WA0200702160
B1303184032164N00513145WA0200802161
B1303194032169N00513143WA0200902162
B1303204032173N00513139WA0201102164
B1303214032175N00513134WA0201102164
B1303224032175N00513127WA0201002165
B1303234032174N00513120WA0201102165
B1303244032170N00513115WA0201102165
B1303254032165N00513112WA0201002165
B1303264032160N00513115WA0201002165
B1303274032155N00513118WA0201002165
B1303284032150N00513123WA0201102165
B1303294032147N00513129WA0201102166
B1303304032146N00513136WA0201002166
B1303314032147N00513144WA0201002166
B1303324032150N00513150WA0201002166
B1303334032154N00513154WA0201102166
B1303344032160N00513156WA0201202167
B1303354032166N00513157WA0201302169
B1303364032171N00513155WA0201702173
B1303374032176N00513151WA0201802174
B1303384032179N00513146WA0202002176
B1303394032180N00513140WA0202102178
B1303404032181N00513134WA0202302180
B1303414032180N00513128WA0202402181
B1303424032178N00513122WA0202402181
B1303434032174N00513117WA0202402182
B1303444032168N00513115WA0202402182
B1303454032162N00513115WA0202402182
B1303464032157N00513117WA0202502183
B1303474032151N00513120WA0202602184
B1303484032145N00513123WA0202602184
B1303494032139N00513124WA0202702185
B1303504032134N00513122WA0202802186
B1303514032129N00513119WA0202802187
B1303524032126N00513115WA0203002188
B1303534032122N00513110WA0203002189
B1303544032118N00513105WA0203202191
B1303554032115N00513100WA0203302192
B1303564032111N00513094WA0203402193
B1303574032108N00513088WA0203602194
B1303584032104N00513082WA0203602195
B1303594032101N00513076WA0203602195
B1304004032098N00513069WA0203602195
B1304014032095N00513062WA0203702195
B1304024032091N00513055WA0203802197
B1304034032088N00513050WA0204002198
B1304044032085N00513045WA0204002200
B1304054032081N00513039WA0204202201
B1304064032078N00513033WA0204202202
B1304074032075N00513027WA0204302203
B1304084032072N00513021WA0204302203
B1304094032069N00513015WA0204302204
B1304104032066N00513008WA0204402204
B1304114032063N00513002WA0204502205
B1304124032058N00512996WA0204602206
B1304134032054N00512991WA0204702207
B1304144032050N00512985WA0204802208
B1304154032047N00512980WA0204802209
B1304164032045N00512974WA0204902210
B1304174032043N00512967WA0205002210
B1304184032041N00512961WA0205002210
B1304194032039N00512954WA0205102211
B1304204032037N00512947WA0205202211
B1304214032035N00512939WA0205302211
B1304224032033N00512933WA0205402213
B1304234032031N00512926WA0205602214
B1304244032029N00512920WA0205702216
B1304254032027N00512914WA0205802217
B1304264032025N00512909WA0205902218
B1304274032023N00512903WA0206002219
B1304284032020N00512898WA0206102220
B1304294032016N00512894WA0206102220
B1304304032013N00512889WA0206202221
B1304314032011N00512884WA0206202221
B1304324032009N00512878WA0206202221
B1304334032009N00512871WA0206102221
B1304344032010N00512864WA0206102221
B1304354032010N00512856WA0206102221
B1304364032010N00512848WA0206102220
B1304374032010N00512840WA0206202220
B1304384032008N00512832WA0206202221
B1304394032006N00512824WA0206402223
B1304404032003N00512816WA0206602224
B1304414032000N00512809WA0206902227
B1304424031997N00512803WA0207302229
B1304434031995N00512797WA0207602232
B1304444031993N00512791WA0207902234
B1304454031991N00512786WA0208102237
B1304464031989N00512781WA0208102238
B1304474031986N00512777WA0208202239
B1304484031981N00512776WA0208302240
B1304494031976N00512780WA0208402241
B1304504031974N00512787WA0208602242
B1304514031974N00512795WA0208702242
B1304524031978N00512802WA0208802244
B1304534031984N00512808WA0209002246
B1304544031990N00512810WA0209302248
B1304554031996N00512810WA0209402250
B1304564032002N00512806WA0209702252
B1304574032007N00512801WA0210002255
B1304584032012N00512796WA0210202257
B1304594032015N00512789WA0210502259
B1305004032017N00512782WA0210702263
B1305014032019N00512774WA0211002267
B1305024032019N00512767WA0211302271
B1305034032019N00512761WA0211702274
B1305044032017N00512755WA0212002278
B1305054032014N00512751WA0212202281
B1305064032009N00512750WA0212402282
B1305074032005N00512752WA0212602285
B1305084032000N00512757WA0212802286
B1305094031998N00512765WA0213002288
B1305104031999N00512771WA0213202290
B1305114032002N00512778WA0213402293
B1305124032008N00512782WA0213702294
B1305134032013N00512785WA0213902296
B1305144032020N00512785WA0214102300
B1305154032026N00512783WA0214302302
B1305164032031N00512778WA0214402303
B1305174032036N00512773WA0214802305
B1305184032039N00512766WA0214902307
B1305194032042N00512759WA0215302309
B1305204032044N00512751WA0215602312
B1305214032045N00512743WA0215802317
B1305224032045N00512735WA0216302321
B1305234032044N00512729WA0216902326
B1305244032042N00512724WA0217102327
B1305254032039N00512720WA0217402326
B1305264032034N00512721WA0217502327
B1305274032028N00512726WA0217802328
B1305284032025N00512733WA0218202331
B1305294032024N00512742WA0218502333
B1305304032027N00512749WA0219002338
B1305314032031N00512755WA0219302341
B1305324032038N00512758WA0219602344
B1305334032045N00512758WA0219702347
B1305344032052N00512755WA0220002348
B1305354032057N00512749WA0220102351
B1305364032060N00512741WA0220302354
B1305374032061N00512732WA0220802357
B1305384032061N00512724WA0221202360
B1305394032060N00512718WA0221602365
B1305404032057N00512715WA0222002370
B1305414032053N00512715WA0222302370
B1305424032048N00512717WA0222602370
B1305434032045N00512721WA0222802373
B1305444032042N00512728WA0223102377
B1305454032042N00512735WA0223402381
B1305464032043N00512743WA0223702385
B1305474032046N00512749WA0224002389
B1305484032052N00512753WA0224302392
B1305494032058N00512757WA0224502395
B1305504032065N00512759WA0224702398
B1305514032072N00512757WA0224902401
B1305524032079N00512753WA0225202404
B1305534032083N00512746WA0225502407
B1305544032085N00512739WA0225902412
B1305554032086N00512732WA0226202417
B1305564032086N00512727WA0226602421
B1305574032085N00512722WA0226902425
B1305584032083N00512719WA0227202428
B1305594032079N00512716WA0227402430
B1306004032074N00512717WA0227502431
B1306014032070N00512720WA0227902434
B1306024032066N00512725WA0228202438
B1306034032064N00512731WA0228602442
B1306044032063N00512736WA0228902446
B1306054032064N00512742WA0229102448
B1306064032066N00512748WA0229202448
B1306074032070N00512755WA0229302451
B1306084032076N00512760WA0229502454
B1306094032083N00512764WA0229702457
B1306104032090N00512764WA0230102460
B1306114032096N00512763WA0230302463
B1306124032103N00512761WA0230602467
B1306134032109N00512758WA0230802469
B1306144032114N00512754WA0230902471
B1306154032119N00512748WA0231102473
B1306164032122N00512741WA0231302475
B1306174032125N00512734WA0231602479
B1306184032127N00512727WA0231902483
B1306194032130N00512721WA0232302488
B1306204032132N00512715WA0232502492
B1306214032133N00512709WA0232702495
B1306224032133N00512704WA0232802497
B1306234032132N00512697WA0232902499
B1306244032128N00512691WA0233202500
B1306254032123N00512688WA0233402503
B1306264032118N00512686WA0233702507
B1306274032113N00512686WA0234002511
B1306284032108N00512687WA0234402515
B1306294032104N00512690WA0234702518
B1306304032101N00512695WA0235102521
B1306314032100N00512702WA0235402525
B1306324032102N00512710WA0235602529
B1306334032105N00512719WA0235802532
B1306344032111N00512726WA0236002534
B1306354032119N00512731WA0236202537
B1306364032127N00512733WA0236402541
B1306374032134N00512733WA0236802543
B1306384032140N00512730WA0237202547
B1306394032144N00512725WA0237502549
B1306404032146N00512720WA0237702550
B1306414032145N00512714WA0237902552
B1306424032142N00512709WA0238102554
B1306434032139N00512705WA0238502557
B1306444032134N00512704WA0238802562
B1306454032129N00512704WA0239202566
B1306464032126N00512707WA0239402570
B1306474032124N00512712WA0239702573
B1306484032122N00512719WA0239902576
B1306494032122N00512728WA0240102577
B1306504032124N00512737WA0240302579
B1306514032127N00512746WA0240502581
B1306524032133N00512754WA0240602583
B1306534032141N00512760WA0240802584
B1306544032149N00512762WA0241002586
B1306554032157N00512761WA0241302589
B1306564032164N00512758WA0241502591
B1306574032169N00512754WA0241802594
B1306584032173N00512749WA0242102598
B1306594032176N00512744WA0242202600
B1307004032178N00512739WA0242402602
B1307014032179N00512733WA0242402604
B1307024032177N00512727WA0242602605
B1307034032175N00512722WA0242802607
B1307044032171N00512718WA0243102610
B1307054032167N00512716WA0243402614
B1307064032162N00512716WA0243802618
B1307074032159N00512717WA0244102622
B1307084032155N00512720WA0244302625
B1307094032152N00512723WA0244802629
B1307104032149N00512727WA0245002632
B1307114032147N00512732WA0245302634
B1307124032145N00512739WA0245502636
B1307134032144N00512747WA0245702639
B1307144032146N00512756WA0245802642
B1307154032150N00512765WA0246102644
B1307164032155N00512772WA0246302646
B1307174032162N00512778WA0246402648
B1307184032169N00512782WA0246502650
B1307194032177N00512783WA0246702652
B1307204032184N00512782WA0247002654
B1307214032191N00512780WA0247102657
B1307224032197N00512777WA0247402659
B1307234032202N00512773WA0247602661
B1307244032206N00512769WA0247802663
B1307254032210N00512765WA0248002665
B1307264032212N00512760WA0248202665
B1307274032212N00512754WA0248202666
B1307284032212N00512748WA0248202667
B1307294032210N00512742WA0248302669
B1307304032206N00512737WA0248502670
B1307314032203N00512733WA0248802673
B1307324032199N00512729WA0249102676
B1307334032195N00512726WA0249302679
B1307344032191N00512723WA0249702683
B1307354032188N00512719WA0250002687
B1307364032185N00512715WA0250302690
B1307374032183N00512710WA0250602694
B1307384032182N00512705WA0250902697
B1307394032180N00512700WA0251102700
B1307404032177N00512696WA0251302702
B1307414032174N00512692WA0251502704
B1307424032169N00512693WA0251602707
B1307434032164N00512695WA0251902709
B1307444032160N00512700WA0252102711
B1307454032156N00512705WA0252402714
B1307464032153N00512712WA0252502715
B1307474032152N00512721WA0252802716
B1307484032151N00512730WA0253002717
B1307494032152N00512740WA0253202720
B1307504032155N00512749WA0253502722
B1307514032160N00512758WA0253802725
B1307524032165N00512766WA0254002728
B1307534032172N00512772WA0254302732
B1307544032178N00512776WA0254602735
B1307554032185N00512779WA0254902738
B1307564032191N00512780WA0255202741
B1307574032198N00512779WA0255302743
B1307584032204N00512776WA0255502745
B1307594032208N00512772WA0255702747
B1308004032211N00512765WA0255802749
B1308014032210N00512759WA0255902748
B1308024032208N00512753WA0256102750
B1308034032204N00512748WA0256402753
B1308044032200N00512745WA0256902756
B1308054032196N00512742WA0257102760
B1308064032192N00512741WA0257402764
B1308074032189N00512741WA0257702766
B1308084032185N00512743WA0257902768
B1308094032181N00512747WA0258002769
B1308104032179N00512754WA0258002770
B1308114032178N00512764WA0258202771
B1308124032179N00512774WA0258502773
B1308134032183N00512784WA0258702776
B1308144032189N00512791WA0259002780
B1308154032196N00512795WA0259302782
B1308164032203N00512797WA0259602785
B1308174032210N00512799WA0259902788
B1308184032216N00512799WA0260202792
B1308194032222N00512798WA0260402794
B1308204032227N00512795WA0260602796
B1308214032232N00512790WA0260702797
B1308224032234N00512784WA0260802799
B1308234032233N00512777WA0261002801
B1308244032229N00512772WA0261202803
B1308254032224N00512769WA0261402805
B1308264032218N00512771WA0261602808
B1308274032214N00512775WA0261902811
B1308284032211N00512781WA0262202814
B1308294032208N00512787WA0262402817
B1308304032206N00512793WA0262602819
B1308314032205N00512800WA0262802819
B1308324032205N00512808WA0262902821
B1308334032207N00512817WA0263002823
B1308344032212N00512825WA0263202825
B1308354032217N00512831WA0263402828
B1308364032224N00512836WA0263602830
B1308374032231N00512839WA0263702832
B1308384032238N00512841WA0263902836
B1308394032245N00512843WA0264202839
B1308404032251N00512844WA0264502842
B1308414032257N00512844WA0264702845
B1308424032262N00512844WA0264902847
B1308434032268N00512844WA0264902849
B1308444032273N00512841WA0264902850
B1308454032278N00512837WA0264902851
B1308464032281N00512832WA0265002853
B1308474032284N00512826WA0265002854
B1308484032286N00512819WA0265102854
B1308494032286N00512813WA0265202855
B1308504032286N00512806WA0265202855
B1308514032283N00512800WA0265202855
B1308524032280N00512795WA0265302855
B1308534032275N00512791WA0265402857
B1308544032271N00512789WA0265402859
B1308554032266N00512789WA0265602859
B1308564032261N00512790WA0265702860
B1308574032256N00512792WA0265702861
B1308584032251N00512795WA0266002863
B1308594032246N00512799WA0266202864
B1309004032242N00512804WA0266602866
B1309014032239N00512808WA0266902869
B1309024032237N00512812WA0267102871
B1309034032234N00512817WA0267302873
B1309044032231N00512822WA0267402874
B1309054032229N00512829WA0267602875
B1309064032228N00512837WA0267802877
B1309074032228N00512844WA0267902879
B1309084032230N00512852WA0268102882
B1309094032231N00512859WA0268302884
B1309104032234N00512866WA0268502886
B1309114032237N00512871WA0268502887
B1309124032242N00512877WA0268602888
B1309134032247N00512883WA0268702890
B1309144032252N00512888WA0268802891
B1309154032257N00512893WA0269002893
B1309164032263N00512896WA0269102895
B1309174032269N00512898WA0269202895
B1309184032275N00512898WA0269202896
B1309194032281N00512896WA0269202896
B1309204032286N00512893WA0269202896
B1309214032289N00512887WA0269202897
B1309224032292N00512881WA0269402898
B1309234032293N00512876WA0269502898
B1309244032293N00512870WA0269502899
B1309254032292N00512864WA0269502900
B1309264032291N00512858WA0269502900
B1309274032289N00512853WA0269502900
B1309284032287N00512848WA0269502900
B1309294032284N00512843WA0269602900
B1309304032282N00512837WA0269602900
B1309314032280N00512831WA0269702901
B1309324032278N00512826WA0269802902
B1309334032276N00512820WA0269902903
B1309344032273N00512815WA0269902904
B1309354032269N00512812WA0269902904
B1309364032264N00512809WA0270002905
B1309374032258N00512806WA0270102905
B1309384032253N00512803WA0270302907
B1309394032248N00512799WA0270502908
B1309404032244N00512796WA0270702911
B1309414032240N00512792WA0271002914
B1309424032236N00512789WA0271102916
B1309434032233N00512785WA0271302918
B1309444032230N00512781WA0271402919
B1309454032227N00512775WA0271602921
B1309464032226N00512768WA0271802923
B1309474032226N00512761WA0272302926
B1309484032228N00512755WA0272702931
B1309494032231N00512750WA0273202936
B1309504032236N00512747WA0273702939
B1309514032241N00512746WA0273902942
B1309524032248N00512748WA0274102944
B1309534032253N00512753WA0274502945
B1309544032256N00512761WA0274802948
B1309554032257N00512770WA0274902950
B1309564032255N00512778WA0274902950
B1309574032251N00512784WA0275002951
B1309584032245N00512788WA0275202954
B1309594032240N00512789WA0275502954
B1310004032234N00512788WA0275802957
B1310014032229N00512786WA0276202960
B1310024032226N00512783WA0276402964
B1310034032223N00512778WA0276702967
B1310044032221N00512773WA0277002969
B1310054032221N00512766WA0277202972
B1310064032223N00512758WA0277602976
B1310074032227N00512753WA0278002976
B1310084032233N00512750WA0278202979
B1310094032240N00512751WA0278402981
B1310104032248N00512756WA0278702984
B1310114032253N00512765WA0279002987
B1310124032254N00512775WA0279202989
B1310134032252N00512785WA0279502990
B1310144032248N00512792WA0279602992
B1310154032242N00512795WA0279702994
B1310164032236N00512793WA0280002996
B1310174032230N00512789WA0280202998
B1310184032227N00512783WA0280702999
B1310194032228N00512776WA0280903001
B1310204032231N00512771WA0281303003
B1310214032235N00512766WA0281603006
B1310224032240N00512763WA0281803009
B1310234032247N00512761WA0282003011
B1310244032254N00512762WA0282203013
B1310254032261N00512767WA0282303015
B1310264032266N00512774WA0282703015
B1310274032268N00512783WA0283103018
B1310284032269N00512791WA0283203022
B1310294032269N00512798WA0283503025
B1310304032268N00512804WA0283503028
B1310314032266N00512810WA0283603031
B1310324032262N00512816WA0283703029
B1310334032256N00512819WA0283703030
B1310344032250N00512820WA0283803032
B1310354032245N00512818WA0284103037
B1310364032241N00512814WA0284403042
B1310374032238N00512810WA0284703045
B1310384032235N00512806WA0284903048
B1310394032233N00512801WA0285003050
B1310404032234N00512795WA0285403051
B1310414032235N00512788WA0285603054
B1310424032238N00512781WA0285903057
B1310434032242N00512776WA0286303061
B1310444032246N00512771WA0286603065
B1310454032250N00512768WA0287003068
B1310464032254N00512765WA0287303071
B1310474032259N00512764WA0287503073
B1310484032264N00512763WA0287603075
B1310494032269N00512765WA0287803077
B1310504032274N00512769WA0288003079
B1310514032278N00512774WA0288003081
B1310524032280N00512782WA0288103083
B1310534032280N00512790WA0288403085
B1310544032279N00512797WA0288403087
B1310554032276N00512805WA0288603089
B1310564032273N00512811WA0288703092
B1310574032270N00512817WA0288803093
B1310584032266N00512821WA0288903095
B1310594032260N00512824WA0288903096
B1311004032254N00512824WA0289003096
B1311014032247N00512822WA0289103097
B1311024032240N00512819WA0289503098
B1311034032235N00512816WA0289903099
B1311044032239N00512802WA0290403101
B1311054032237N00512798WA0290703106
B1311064032236N00512794WA0290903110
B1311074032236N00512791WA0291103112
B1311084032237N00512787WA0291203114
B1311094032240N00512782WA0291403116
B1311104032244N00512779WA0291703119
B1311114032249N00512777WA0292003121
B1311124032254N00512777WA0292203124
B1311134032259N00512778WA0292403127
B1311144032264N00512777WA0292603130
B1311154032269N00512775WA0292603132
B1311164032274N00512771WA0292603134
B1311174032279N00512766WA0292603136
B1311184032285N00512761WA0292903138
B1311194032290N00512758WA0293103141
B1311204032295N00512754WA0293403144
B1311214032299N00512751WA0293503147
B1311224032304N00512748WA0293703149
B1311234032308N00512744WA0293803150
B1311244032313N00512740WA0294003150
B1311254032319N00512736WA0294103152
B1311264032325N00512732WA0294403154
B1311274032331N00512729WA0294703158
B1311284032336N00512725WA0294903162
B1311294032340N00512721WA0295203165
B1311304032344N00512717WA0295503167
B1311314032349N00512714WA0295603169
B1311324032354N00512711WA0295803171
B1311334032358N00512708WA0296003173
B1311344032363N00512705WA0296003175
B1311354032367N00512702WA0296103176
B1311364032371N00512699WA0296103177
B1311374032375N00512696WA0295903176
B1311384032380N00512693WA0295703175
B1311394032385N00512690WA0295703175
B1311404032390N00512686WA0295603175
B1311414032394N00512684WA0295503172
B1311424032398N00512681WA0295303172
B1311434032403N00512679WA0295203170
B1311444032407N00512677WA0295003169
B1311454032412N00512675WA0295003167
B1311464032418N00512673WA0294903166
B1311474032423N00512672WA0294603164
B1311484032429N00512669WA0294403162
B1311494032436N00512666WA0294203160
B1311504032442N00512662WA0294203159
B1311514032448N00512659WA0294303160
B1311524032454N00512656WA0294403160
B1311534032460N00512654WA0294303160
B1311544032465N00512651WA0294203160
B1311554032470N00512649WA0294003157
B1311564032475N00512645WA0293903156
B1311574032481N00512642WA0293703154
B1311584032487N00512639WA0293603152
B1311594032493N00512636WA0293303150
B1312004032499N00512632WA0293303149
B1312014032505N00512628WA0293303149
B1312024032510N00512625WA0293203149
B1312034032515N00512621WA0293303150
B1312044032519N00512618WA0293303150
B1312054032524N00512614WA0293303151
B1312064032528N00512611WA0293103150
B1312074032534N00512608WA0293003150
B1312084032539N00512605WA0293003150
B1312094032544N00512602WA0293103150
B1312104032549N00512599WA0293003149
B1312114032554N00512595WA0293003149
B1312124032559N00512592WA0293003149
B1312134032564N00512590WA0292903148
B1312144032570N00512587WA0292703146
B1312154032575N00512584WA0292503145
B1312164032581N00512580WA0292403143
B1312174032588N00512576WA0292103140
B1312184032595N00512571WA0292003139
B1312194032601N00512566WA0292003140
B1312204032607N00512561WA0292303142
B1312214032612N00512558WA0292403145
B1312224032616N00512555WA0292403146
B1312234032620N00512552WA0292303147
B1312244032624N00512548WA0292103147
B1312254032628N00512546WA0291803141
B1312264032633N00512542WA0291503139
B1312274032638N00512537WA0291303137
B1312284032643N00512533WA0291203135
B1312294032647N00512528WA0291003133
B1312304032652N00512523WA0291003131
B1312314032657N00512519WA0290803130
B1312324032661N00512514WA0290703129
B1312334032664N00512511WA0290503128
B1312344032668N00512507WA0290403126
B1312354032672N00512503WA0290203124
B1312364032676N00512499WA0289803121
B1312374032680N00512494WA0289603118
B1312384032684N00512490WA0289503116
B1312394032689N00512486WA0289203113
B1312404032693N00512481WA0288903111
B1312414032698N00512476WA0288803108
B1312424032703N00512470WA0288603106
B1312434032708N00512465WA0288403103
B1312444032713N00512460WA0288403102
B1312454032719N00512453WA0288503106
B1312464032722N00512448WA0288703107
B1312474032727N00512444WA0288903111
B1312484032730N00512440WA0289103113
B1312494032733N00512436WA0289203114
B1312504032736N00512432WA0289303114
B1312514032739N00512427WA0289303115
B1312524032742N00512421WA0289503116
B1312534032745N00512415WA0289603117
B1312544032747N00512410WA0289803120
B1312554032750N00512405WA0290103122
B1312564032752N00512400WA0290303124
B1312574032754N00512395WA0290503126
B1312584032755N00512390WA0290603128
B1312594032757N00512385WA0290703130
B1313004032758N00512381WA0290803129
B1313014032761N00512376WA0290903129
B1313024032765N00512371WA0290903129
B1313034032768N00512364WA0291003130
B1313044032771N00512358WA0291103130
B1313054032774N00512353WA0291203131
B1313064032776N00512348WA0291403133
B1313074032779N00512343WA0291603135
B1313084032782N00512339WA0291903137
B1313094032784N00512336WA0292203139
B1313104032786N00512332WA0292203141
B1313114032787N00512329WA0292103142
B1313124032789N00512325WA0292003142
B1313134032791N00512320WA0292003140
B1313144032794N00512314WA0292003140
B1313154032796N00512308WA0292003140
B1313164032800N00512302WA0292103140
B1313174032803N00512296WA0292103140
B1313184032806N00512290WA0292203141
B1313194032810N00512285WA0292303142
B1313204032814N00512279WA0292503144
B1313214032818N00512274WA0292703146
B1313224032821N00512268WA0293003148
B1313234032825N00512262WA0293203151
B1313244032829N00512257WA0293503153
B1313254032832N00512251WA0293903156
B1313264032836N00512246WA0294203160
B1313274032838N00512240WA0294603164
B1313284032840N00512234WA0294903168
B1313294032842N00512227WA0295303172
B1313304032844N00512222WA0295403175
B1313314032846N00512216WA0295603177
B1313324032850N00512210WA0295703178
B1313334032853N00512203WA0295703179
B1313344032856N00512196WA0295803181
B1313354032859N00512189WA0296003182
B1313364032863N00512183WA0296003183
B1313374032868N00512177WA0296103184
B1313384032872N00512172WA0296203185
B1313394032877N00512167WA0296303185
B1313404032882N00512161WA0296303186
B1313414032886N00512156WA0296503187
B1313424032891N00512150WA0296803188
B1313434032895N00512145WA0297003191
B1313444032899N00512140WA0297203193
B1313454032903N00512135WA0297403195
B1313464032906N00512130WA0297503196
B1313474032910N00512124WA0297703197
B1313484032915N00512118WA0297803198
B1313494032919N00512112WA0298003200
B1313504032924N00512106WA0298303204
B1313514032927N00512100WA0298603208
B1313524032930N00512095WA0298903211
B1313534032934N00512089WA0299103213
B1313544032937N00512083WA0299103215
B1313554032941N00512077WA0299303216
B1313564032946N00512070WA0299403217
B1313574032950N00512064WA0299503218
B1313584032954N00512058WA0299603219
B1313594032958N00512051WA0299503219
B1314004032962N00512044WA0299503220
B1314014032966N00512038WA0299503219
B1314024032971N00512031WA0299603219
B1314034032976N00512024WA0299503219
B1314044032981N00512017WA0299403219
B1314054032986N00512011WA0299403218
B1314064032991N00512005WA0299303218
B1314074032996N00511998WA0299203217
B1314084033001N00511993WA0299003215
B1314094033006N00511987WA0298803214
B1314104033011N00511982WA0298503212
B1314114033016N00511976WA0298103209
B1314124033022N00511971WA0297703204
B1314134033029N00511965WA0297503202
B1314144033035N00511959WA0297303200
B1314154033040N00511953WA0297303199
B1314164033046N00511948WA0297203197
B1314174033051N00511943WA0297103195
B1314184033056N00511937WA0296903193
B1314194033061N00511931WA0296903192
B1314204033066N00511925WA0296903192
B1314214033071N00511919WA0296803191
B1314224033074N00511912WA0296803191
B1314234033077N00511904WA0296703191
B1314244033080N00511896WA0296703191
B1314254033082N00511888WA0296703190
B1314264033084N00511879WA0296703190
B1314274033087N00511869WA0296903191
B1314284033089N00511860WA0297103194
B1314294033091N00511852WA0297403196
B1314304033093N00511844WA0297603199
B1314314033094N00511836WA0297703201
B1314324033094N00511829WA0297803203
B1314334033095N00511821WA0297903204
B1314344033096N00511813WA0298003205
B1314354033097N00511804WA0298003204
B1314364033099N00511796WA0298103205
B1314374033103N00511787WA0298203205
B1314384033107N00511779WA0298203206
B1314394033111N00511771WA0298303207
B1314404033116N00511763WA0298403207
B1314414033121N00511756WA0298503208
B1314424033126N00511748WA0298603209
B1314434033130N00511740WA0298603210
B1314444033135N00511732WA0298703211
B1314454033140N00511724WA0298803211
B1314464033144N00511716WA0298903213
B1314474033148N00511708WA0299003214
B1314484033153N00511700WA0299003214
B1314494033157N00511692WA0299203216
B1314504033161N00511684WA0299303217
B1314514033164N00511676WA0299403219
B1314524033167N00511668WA0299603220
B1314534033170N00511660WA0299703221
B1314544033174N00511652WA0299803222
B1314554033177N00511644WA0299803223
B1314564033181N00511637WA0299703223
B1314574033185N00511629WA0299803223
B1314584033190N00511621WA0299903223
B1314594033195N00511613WA0299903224
B1315004033199N00511605WA0300003225
B1315014033204N00511598WA0300103226
B1315024033208N00511591WA0300303228
B1315034033212N00511584WA0300403229
B1315044033214N00511576WA0300403230
B1315054033216N00511569WA0300403230
B1315064033218N00511561WA0300303230
B1315074033220N00511554WA0300303229
B1315084033223N00511545WA0300203228
B1315094033227N00511537WA0300103228
B1315104033231N00511529WA0300203228
B1315114033234N00511520WA0300403229
B1315124033237N00511512WA0300503231
B1315134033240N00511505WA0300703232
B1315144033244N00511497WA0300803234
B1315154033247N00511490WA0300803232
B1315164033251N00511482WA0300903233
B1315174033255N00511474WA0300903233
B1315184033259N00511466WA0301003234
B1315194033263N00511458WA0301103236
B1315204033266N00511450WA0301203237
B1315214033269N00511441WA0301403238
B1315224033272N00511433WA0301603239
B1315234033274N00511424WA0301703241
B1315244033277N00511416WA0301903243
B1315254033279N00511407WA0302003245
B1315264033281N00511399WA0302103246
B1315274033284N00511390WA0302303247
B1315284033289N00511382WA0302503248
B1315294033296N00511375WA0302703250
B1315304033303N00511370WA0302903252
B1315314033309N00511367WA0303303256
B1315324033314N00511366WA0303503259
B1315334033319N00511367WA0303603261
B1315344033324N00511370WA0303703263
B1315354033327N00511377WA0303703265
B1315364033327N00511384WA0304103264
B1315374033324N00511390WA0304303265
B1315384033320N00511393WA0304403266
B1315394033314N00511392WA0304703267
B1315404033310N00511386WA0304703268
B1315414033306N00511378WA0304803269
B1315424033305N00511368WA0305103271
B1315434033307N00511359WA0305403275
B1315444033309N00511351WA0305603278
B1315454033313N00511344WA0305903281
B1315464033317N00511338WA0306003280
B1315474033322N00511335WA0306303281
B1315484033329N00511332WA0306203281
B1315494033336N00511332WA0306403282
B1315504033342N00511334WA0306803285
B1315514033348N00511338WA0307003288
B1315524033352N00511342WA0307303291
B1315534033356N00511347WA0307403294
B1315544033358N00511352WA0307503297
B1315554033357N00511358WA0307503295
B1315564033356N00511364WA0307603295
B1315574033353N00511369WA0307803296
B1315584033349N00511373WA0308003297
B1315594033345N00511376WA0308303302
B1316004033341N00511379WA0308503304
B1316014033336N00511379WA0308903307
B1316024033332N00511377WA0309203310
B1316034033328N00511372WA0309303312
B1316044033325N00511364WA0309403314
B1316054033324N00511354WA0309603315
B1316064033324N00511345WA0309903317
B1316074033327N00511336WA0309903318
B1316084033332N00511328WA0310103320
B1316094033338N00511323WA0310303321
B1316104033345N00511322WA0310503322
B1316114033352N00511323WA0310803324
B1316124033357N00511326WA0311003326
B1316134033361N00511331WA0311103326
B1316144033362N00511337WA0311303329
B1316154033361N00511344WA0311503332
B1316164033360N00511350WA0311803335
B1316174033356N00511357WA0312103336
B1316184033352N00511360WA0312303336
B1316194033347N00511360WA0312503338
B1316204033342N00511354WA0312503341
B1316214033338N00511346WA0312603342
B1316224033338N00511337WA0312703344
B1316234033339N00511327WA0313103347
B1316244033342N00511318WA0313203352
B1316254033346N00511311WA0313703355
B1316264033351N00511306WA0313803358
B1316274033356N00511303WA0314003360
B1316284033361N00511302WA0314103362
B1316294033366N00511302WA0314103364
B1316304033371N00511305WA0314003364
B1316314033375N00511308WA0314103366
B1316324033380N00511313WA0314303367
B1316334033384N00511319WA0314603373
B1316344033387N00511325WA0315003378
B1316354033390N00511331WA0315303382
B1316364033391N00511336WA0315503387
B1316374033391N00511340WA0315703390
B1316384033389N00511343WA0315703392
B1316394033385N00511345WA0315903393
B1316404033379N00511345WA0316103394
B1316414033374N00511341WA0316403397
B1316424033371N00511334WA0316503399
B1316434033369N00511326WA0316503398
B1316444033372N00511316WA0316603399
B1316454033377N00511307WA0316903400
B1316464033384N00511301WA0317103402
B1316474033391N00511297WA0317303402
B1316484033397N00511295WA0317703403
B1316494033403N00511294WA0317803404
B1316504033409N00511295WA0317903405
B1316514033415N00511300WA0318003406
B1316524033420N00511306WA0318203407
B1316534033422N00511313WA0318403409
B1316544033423N00511320WA0318503416
B1316554033423N00511325WA0318803420
B1316564033422N00511330WA0319203424
B1316574033420N00511334WA0319403428
B1316584033418N00511337WA0319603430
B1316594033413N00511338WA0319703431
B1317004033408N00511336WA0319803432
B1317014033403N00511331WA0320003433
B1317024033400N00511323WA0320103434
B1317034033399N00511314WA0320503437
B1317044033401N00511305WA0320703439
B1317054033404N00511296WA0321003440
B1317064033409N00511288WA0321203444
B1317074033415N00511282WA0321403447
B1317084033422N00511279WA0321603448
B1317094033429N00511280WA0321603449
B1317104033436N00511285WA0321603450
B1317114033441N00511291WA0321803452
B1317124033445N00511297WA0322103456
B1317134033448N00511302WA0322403459
B1317144033449N00511307WA0322603461
B1317154033450N00511312WA0322803462
B1317164033449N00511316WA0322803463
B1317174033447N00511320WA0323003464
B1317184033443N00511323WA0322903465
B1317194033438N00511323WA0323103465
B1317204033433N00511320WA0323203466
B1317214033429N00511313WA0323503467
B1317224033426N00511305WA0323703468
B1317234033426N00511296WA0323903470
B1317244033427N00511288WA0323903471
B1317254033432N00511279WA0324003471
B1317264033437N00511271WA0324003472
B1317274033443N00511265WA0324203474
B1317284033450N00511260WA0324403475
B1317294033456N00511258WA0324603477
B1317304033463N00511255WA0324703479
B1317314033469N00511253WA0324903481
B1317324033475N00511252WA0325003482
B1317334033480N00511252WA0325103483
B1317344033485N00511253WA0325103484
B1317354033490N00511257WA0325103485
B1317364033494N00511262WA0325003486
B1317374033495N00511268WA0325103485
B1317384033495N00511275WA0324903480
B1317394033495N00511282WA0324903481
B1317404033494N00511289WA0324803481
B1317414033493N00511296WA0324903481
B1317424033492N00511303WA0324903482
B1317434033491N00511310WA0325003483
B1317444033488N00511317WA0325103484
B1317454033484N00511323WA0325103485
B1317464033480N00511327WA0325303486
B1317474033475N00511330WA0325503488
B1317484033470N00511331WA0325703491
B1317494033466N00511330WA0325803493
B1317504033462N00511328WA0325803495
B1317514033459N00511325WA0325803494
B1317524033456N00511320WA0325603492
B1317534033453N00511313WA0325503491
B1317544033450N00511305WA0325603490
B1317554033449N00511297WA0325603493
B1317564033450N00511289WA0325703494
B1317574033451N00511281WA0325803494
B1317584033454N00511273WA0325703494
B1317594033457N00511265WA0325603494
B1318004033460N00511257WA0325703494
B1318014033465N00511249WA0325803494
B1318024033470N00511243WA0325803495
B1318034033475N00511237WA0325903495
B1318044033481N00511231WA0325903496
B1318054033486N00511224WA0326003497
B1318064033490N00511216WA0326103498
B1318074033494N00511208WA0326203499
B1318084033497N00511200WA0326303500
B1318094033500N00511193WA0326403501
B1318104033504N00511186WA0326303501
B1318114033509N00511182WA0326303501
B1318124033514N00511177WA0326103501
B1318134033519N00511172WA0326003500
B1318144033524N00511165WA0325903498
B1318154033529N00511158WA0325803497
B1318164033534N00511150WA0325803497
B1318174033539N00511143WA0325903497
B1318184033545N00511137WA0325903497
B1318194033550N00511131WA0325903498
B1318204033555N00511125WA0326003498
B1318214033560N00511119WA0325803497
B1318224033564N00511113WA0325703496
B1318234033568N00511106WA0325703496
B1318244033573N00511100WA0325603495
B1318254033577N00511094WA0325403494
B1318264033582N00511088WA0325403494
B1318274033586N00511081WA0325203492
B1318284033590N00511074WA0325203491
B1318294033595N00511066WA0325203491
B1318304033599N00511059WA0325203491
B1318314033604N00511052WA0325403492
B1318324033607N00511046WA0325503493
B1318334033611N00511041WA0325503494
B1318344033614N00511036WA0325503493
B1318354033616N00511032WA0325303489
B1318364033620N00511027WA0325103487
B1318374033624N00511022WA0324903485
B1318384033629N00511018WA0324803484
B1318394033634N00511014WA0324703483
B1318404033638N00511012WA0324703482
B1318414033643N00511009WA0324603481
B1318424033648N00511006WA0324303480
B1318434033653N00511002WA0324303478
B1318444033658N00510998WA0324303478
B1318454033663N00510994WA0324403479
B1318464033668N00510989WA0324403479
B1318474033673N00510984WA0324403479
B1318484033678N00510978WA0324303480
B1318494033682N00510973WA0324403481
B1318504033686N00510967WA0324403481
B1318514033690N00510962WA0324403482
B1318524033694N00510957WA0324303481
B1318534033698N00510951WA0324403481
B1318544033702N00510945WA0324303481
B1318554033706N00510937WA0324403482
B1318564033710N00510929WA0324503483
B1318574033713N00510922WA0324603485
B1318584033715N00510915WA0324603486
B1318594033717N00510908WA0324603485
B1319004033720N00510902WA0324503483
B1319014033722N00510895WA0324403481
B1319024033726N00510888WA0324303480
B1319034033729N00510881WA0324203480
B1319044033733N00510873WA0324203480
B1319054033736N00510865WA0324203479
B1319064033740N00510857WA0324103478
B1319074033744N00510849WA0324003477
B1319084033748N00510841WA0323903476
B1319094033753N00510834WA0323903477
B1319104033758N00510828WA0323903477
B1319114033763N00510823WA0323803476
B1319124033768N00510817WA0323703476
B1319134033773N00510811WA0323603474
B1319144033779N00510804WA0323403472
B1319154033785N00510798WA0323303471
B1319164033791N00510791WA0323303471
B1319174033797N00510785WA0323203470
B1319184033802N00510778WA0323103469
B1319194033807N00510771WA0322903468
B1319204033812N00510763WA0322803466
B1319214033818N00510756WA0322603464
B1319224033823N00510749WA0322403462
B1319234033829N00510742WA0322303461
B1319244033835N00510737WA0322203460
B1319254033840N00510731WA0321903458
B1319264033845N00510726WA0321603456
B1319274033851N00510721WA0321303454
B1319284033856N00510715WA0321103450
B1319294033862N00510710WA0320703446
B1319304033867N00510705WA0320403444
B1319314033872N00510698WA0320403442
B1319324033877N00510692WA0320103440
B1319334033881N00510686WA0319903438
B1319344033886N00510680WA0319603435
B1319354033891N00510673WA0319403432
B1319364033895N00510665WA0319203429
B1319374033899N00510657WA0319003429
B1319384033902N00510649WA0318903428
B1319394033905N00510641WA0318803426
B1319404033908N00510634WA0318603425
B1319414033911N00510626WA0318403423
B1319424033914N00510619WA0318103418
B1319434033918N00510611WA0317803415
B1319444033922N00510605WA0317603413
B1319454033927N00510599WA0317503411
B1319464033931N00510593WA0317403409
B1319474033936N00510587WA0317203407
B1319484033941N00510580WA0317003407
B1319494033945N00510573WA0316903406
B1319504033949N00510566WA0316803404
B1319514033954N00510560WA0316603402
B1319524033959N00510554WA0316403400
B1319534033964N00510548WA0316403399
B1319544033969N00510541WA0316503399
B1319554033974N00510534WA0316803401
B1319564033979N00510527WA0316903403
B1319574033982N00510521WA0317003406
B1319584033986N00510515WA0317003407
B1319594033990N00510508WA0317003407
B1320004033994N00510503WA0317103408
B1320014033999N00510497WA0317103409
B1320024034003N00510492WA0317203411
B1320034034008N00510487WA0317303412
B1320044034012N00510483WA0317303412
B1320054034017N00510478WA0317403411
B1320064034021N00510473WA0317503412
B1320074034025N00510468WA0317603413
B1320084034028N00510462WA0317603414
B1320094034029N00510455WA0317603415
B1320104034031N00510449WA0317703415
B1320114034033N00510442WA0317703415
B1320124034035N00510435WA0317603415
B1320134034037N00510429WA0317603415
B1320144034039N00510423WA0317603414
B1320154034041N00510417WA0317503413
B1320164034044N00510411WA0317403412
B1320174034046N00510405WA0317203410
B1320184034049N00510398WA0317003409
B1320194034051N00510391WA0317003408
B1320204034054N00510384WA0317203406
B1320214034056N00510378WA0317303405
B1320224034058N00510372WA0317403405
B1320234034060N00510366WA0317903407
B1320244034062N00510361WA0318103408
B1320254034062N00510356WA0318203408
B1320264034063N00510350WA0318003407
B1320274034063N00510342WA0318003406
B1320284034062N00510335WA0317903405
B1320294034062N00510326WA0318003406
B1320304034062N00510319WA0318203407
B1320314034062N00510312WA0318203408
B1320324034064N00510306WA0318403411
B1320334034066N00510301WA0318603413
B1320344034069N00510296WA0318703414
B1320354034074N00510293WA0318803415
B1320364034078N00510291WA0319003417
B1320374034083N00510291WA0319103419
B1320384034088N00510291WA0319303421
B1320394034093N00510291WA0319503423
B1320404034098N00510290WA0319703426
B1320414034103N00510288WA0319903428
B1320424034107N00510285WA0320103430
B1320434034112N00510283WA0320203432
B1320444034116N00510283WA0320303432
B1320454034121N00510285WA0320303433
B1320464034126N00510290WA0320303434
B1320474034129N00510298WA0320403435
B1320484034130N00510306WA0320603436
B1320494034127N00510314WA0320803438
B1320504034123N00510320WA0320903440
B1320514034118N00510325WA0321103443
B1320524034112N00510328WA0321203445
B1320534034106N00510329WA0321303444
B1320544034100N00510326WA0321303446
B1320554034094N00510321WA0321303447
B1320564034091N00510313WA0321403447
B1320574034091N00510303WA0321603449
B1320584034092N00510295WA0321703451
B1320594034095N00510287WA0321903453
B1321004034098N00510281WA0322103455
B1321014034102N00510275WA0322303457
B1321024034106N00510270WA0322503460
B1321034034110N00510265WA0322703462
B1321044034113N00510261WA0322903464
B1321054034117N00510255WA0323003466
B1321064034121N00510250WA0323103467
B1321074034126N00510244WA0323303468
B1321084034132N00510239WA0323603471
B1321094034137N00510234WA0323703473
B1321104034143N00510231WA0324003476
B1321114034149N00510228WA0324003478
B1321124034155N00510227WA0324003479
B1321134034161N00510225WA0324003480
B1321144034167N00510223WA0324103481
B1321154034173N00510221WA0324203482
B1321164034179N00510218WA0324403483
B1321174034184N00510215WA0324403484
B1321184034190N00510211WA0324503486
B1321194034196N00510208WA0324503486
B1321204034201N00510204WA0324503486
B1321214034207N00510200WA0324703487
B1321224034213N00510196WA0324703487
B1321234034218N00510190WA0324703488
B1321244034223N00510185WA0324703488
B1321254034229N00510179WA0324603487
B1321264034235N00510174WA0324603488
B1321274034241N00510169WA0324703488
B1321284034247N00510163WA0324703488
B1321294034253N00510157WA0324803489
B1321304034259N00510152WA0324803490
B1321314034264N00510147WA0325003490
B1321324034270N00510142WA0325003492
B1321334034275N00510137WA0325203493
B1321344034280N00510131WA0325203493
B1321354034285N00510125WA0325203494
B1321364034290N00510119WA0325303494
B1321374034295N00510114WA0325503495
B1321384034300N00510109WA0325403496
B1321394034305N00510103WA0325403496
B1321404034309N00510098WA0325503496
B1321414034313N00510092WA0325503497
B1321424034317N00510087WA0325403497
B1321434034321N00510080WA0325403497
B1321444034324N00510074WA0325303497
B1321454034329N00510068WA0325103496
B1321464034333N00510062WA0324903493
B1321474034339N00510056WA0324803492
B1321484034344N00510049WA0324703490
B1321494034349N00510043WA0324703490
B1321504034354N00510036WA0324703490
B1321514034359N00510029WA0324603489
B1321524034363N00510023WA0324503489
B1321534034368N00510018WA0324303487
B1321544034373N00510013WA0324003485
B1321554034379N00510008WA0323703483
B1321564034385N00510004WA0323503480
B1321574034391N00509999WA0323303477
B1321584034397N00509994WA0322903474
B1321594034404N00509988WA0322803471
B1322004034410N00509982WA0322503468
B1322014034416N00509976WA0322503466
B1322024034423N00509970WA0322503467
B1322034034429N00509965WA0322603468
B1322044034434N00509960WA0322603469
B1322054034439N00509955WA0322703470
B1322064034445N00509950WA0322803471
B1322074034449N00509945WA0322803471
B1322084034454N00509939WA0322703471
B1322094034460N00509934WA0322703470
B1322104034465N00509929WA0322703470
B1322114034471N00509924WA0322603470
B1322124034477N00509918WA0322703470
B1322134034483N00509913WA0322703470
B1322144034489N00509908WA0322703470
B1322154034496N00509903WA0322803470
B1322164034502N00509898WA0322903471
B1322174034508N00509894WA0323003472
B1322184034514N00509889WA0323003473
B1322194034520N00509886WA0323103473
B1322204034527N00509882WA0323203473
B1322214034533N00509879WA0323303474
B1322224034539N00509875WA0323403474
B1322234034544N00509871WA0323303474
B1322244034550N00509867WA0323303474
B1322254034556N00509863WA0323303474
B1322264034562N00509859WA0323203474
B1322274034568N00509853WA0323303474
B1322284034573N00509848WA0323303474
B1322294034579N00509842WA0323403475
B1322304034584N00509838WA0323503475
B1322314034589N00509834WA0323503475
B1322324034593N00509831WA0323403474
B1322334034597N00509826WA0323203472
B1322344034602N00509821WA0323003470
B1322354034608N00509815WA0322803468
B1322364034614N00509810WA0322703466
B1322374034622N00509805WA0322603465
B1322384034629N00509802WA0322603464
B1322394034636N00509799WA0322503464
B1322404034642N00509797WA0322303463
B1322414034649N00509794WA0322203461
B1322424034656N00509792WA0322003459
B1322434034663N00509788WA0321803457
B1322444034671N00509785WA0321703456
B1322454034678N00509782WA0321603455
B1322464034686N00509779WA0321503455
B1322474034692N00509776WA0321403454
B1322484034698N00509773WA0321203453
B1322494034704N00509769WA0320903450
B1322504034710N00509764WA0320603447
B1322514034717N00509759WA0320303444
B1322524034723N00509754WA0319803439
B1322534034731N00509748WA0319503435
B1322544034739N00509743WA0319303431
B1322554034746N00509737WA0319103429
B1322564034753N00509732WA0319003428
B1322574034760N00509727WA0319003427
B1322584034765N00509723WA0318803426
B1322594034770N00509719WA0318603423
B1323004034776N00509714WA0318303421
B1323014034781N00509709WA0317903416
B1323024034787N00509703WA0317603412
B1323034034794N00509696WA0317303409
B1323044034801N00509689WA0317103407
B1323054034807N00509682WA0317103406
B1323064034812N00509675WA0317003405
B1323074034818N00509669WA0316803404
B1323084034824N00509662WA0316603402
B1323094034829N00509655WA0316303400
B1323104034835N00509647WA0316103397
B1323114034840N00509639WA0315903395
B1323124034846N00509632WA0315703393
B1323134034852N00509625WA0315503391
B1323144034857N00509617WA0315303389
B1323154034863N00509609WA0315103387
B1323164034868N00509602WA0314903384
B1323174034874N00509594WA0314703382
B1323184034880N00509586WA0314503380
B1323194034885N00509579WA0314403379
B1323204034890N00509572WA0314203377
B1323214034895N00509565WA0313903375
B1323224034899N00509558WA0313603372
B1323234034904N00509550WA0313303368
B1323244034909N00509543WA0313103366
B1323254034915N00509535WA0312803363
B1323264034920N00509527WA0312503360
B1323274034926N00509520WA0312303357
B1323284034931N00509513WA0312003355
B1323294034936N00509506WA0311803352
B1323304034942N00509499WA0311503349
B1323314034947N00509491WA0311203346
B1323324034952N00509485WA0310903343
B1323334034957N00509478WA0310803341
B1323344034961N00509472WA0310603339
B1323354034964N00509465WA0310303336
B1323364034968N00509459WA0310103332
B1323374034971N00509452WA0309803330
B1323384034975N00509446WA0309603328
B1323394034979N00509439WA0309503327
B1323404034982N00509433WA0309603325
B1323414034986N00509427WA0309603326
B1323424034990N00509420WA0309703327
B1323434034993N00509414WA0309703328
B1323444034997N00509407WA0309803328
B1323454035000N00509400WA0309903329
B1323464035004N00509393WA0309903329
B1323474035006N00509386WA0309803328
B1323484035009N00509378WA0309803328
B1323494035013N00509370WA0309903329
B1323504035017N00509363WA0310003330
B1323514035020N00509356WA0310203331
B1323524035024N00509349WA0310303332
B1323534035028N00509342WA0310303333
B1323544035033N00509335WA0310203333
B1323554035038N00509329WA0310203332
B1323564035043N00509322WA0310203331
B1323574035048N00509315WA0310103331
B1323584035054N00509308WA0310103331
B1323594035060N00509302WA0310103331
B1324004035065N00509296WA0310303333
B1324014035070N00509290WA0310403335
B1324024035075N00509285WA0310503336
B1324034035079N00509279WA0310503336
B1324044035083N00509272WA0310503337
B1324054035086N00509265WA0310703337
B1324064035090N00509258WA0310803338
B1324074035093N00509250WA0310803338
B1324084035095N00509241WA0311003339
B1324094035098N00509232WA0311003340
B1324104035100N00509223WA0310903340
B1324114035102N00509214WA0311003340
B1324124035105N00509205WA0311103341
B1324134035109N00509196WA0311103341
B1324144035113N00509187WA0311203342
B1324154035118N00509179WA0311403343
B1324164035122N00509171WA0311403344
B1324174035126N00509163WA0311503345
B1324184035130N00509154WA0311403345
B1324194035133N00509144WA0311403344
B1324204035136N00509134WA0311403344
B1324214035139N00509123WA0311503344
B1324224035142N00509114WA0311603345
B1324234035146N00509105WA0311603347
B1324244035149N00509096WA0311703347
B1324254035151N00509086WA0311703347
B1324264035153N00509077WA0311503347
B1324274035154N00509066WA0311503345
B1324284035156N00509056WA0311403344
B1324294035158N00509045WA0311203343
B1324304035161N00509034WA0311303342
B1324314035165N00509023WA0311303343
B1324324035168N00509013WA0311403344
B1324334035172N00509005WA0311603346
B1324344035174N00508996WA0311603347
B1324354035177N00508989WA0311603348
B1324364035180N00508981WA0311503347
B1324374035184N00508973WA0311303345
B1324384035187N00508965WA0311203343
B1324394035191N00508955WA0310903341
B1324404035195N00508946WA0310703338
B1324414035200N00508937WA0310603337
B1324424035205N00508928WA0310603336
B1324434035209N00508920WA0310503337
B1324444035214N00508912WA0310503336
B1324454035218N00508905WA0310403336
B1324464035222N00508897WA0310403335
B1324474035227N00508889WA0310103334
B1324484035231N00508880WA0310003333
B1324494035234N00508872WA0309903332
B1324504035238N00508864WA0309703331
B1324514035241N00508855WA0309503328
B1324524035245N00508847WA0309203325
B1324534035249N00508838WA0308903323
B1324544035253N00508831WA0308803322
B1324554035257N00508824WA0308603320
B1324564035261N00508817WA0308503318
B1324574035264N00508810WA0308203316
B1324584035268N00508802WA0307903312
B1324594035273N00508795WA0307603309
B1325004035277N00508787WA0307503307
B1325014035282N00508779WA0307303305
B1325024035285N00508771WA0307203304
B1325034035288N00508762WA0307003303
B1325044035290N00508754WA0306803301
B1325054035293N00508745WA0306703299
B1325064035296N00508737WA0306403296
B1325074035300N00508729WA0306103293
B1325084035303N00508720WA0305703290
B1325094035307N00508711WA0305503286
B1325104035311N00508702WA0305103283
B1325114035316N00508692WA0304803279
B1325124035321N00508683WA0304703277
B1325134035326N00508675WA0304503275
B1325144035330N00508667WA0304303273
B1325154035334N00508659WA0303903270
B1325164035337N00508650WA0303703266
B1325174035340N00508641WA0303403263
B1325184035345N00508632WA0302803259
B1325194035350N00508625WA0302603255
B1325204035356N00508619WA0302603253
B1325214035361N00508613WA0302503253
B1325224035365N00508607WA0302403251
B1325234035369N00508600WA0302203249
B1325244035373N00508593WA0301803245
B1325254035379N00508585WA0301603243
B1325264035384N00508577WA0301603243
B1325274035389N00508569WA0301503242
B1325284035393N00508561WA0301503241
B1325294035398N00508552WA0301403240
B1325304035402N00508544WA0301303239
B1325314035406N00508535WA0301203238
B1325324035411N00508527WA0301103238
B1325334035415N00508519WA0301003236
B1325344035420N00508511WA0300903235
B1325354035425N00508504WA0300603233
B1325364035430N00508496WA0300503231
B1325374035435N00508488WA0300203228
B1325384035440N00508480WA0300003226
B1325394035445N00508473WA0299803224
B1325404035451N00508465WA0299603222
B1325414035456N00508458WA0299303220
B1325424035462N00508451WA0299003217
B1325434035467N00508444WA0298803214
B1325444035472N00508437WA0298503211
B1325454035477N00508429WA0298103208
B1325464035481N00508421WA0297803204
B1325474035486N00508412WA0297603201
B1325484035490N00508404WA0297503200
B1325494035494N00508395WA0297303199
B1325504035497N00508387WA0297303197
B1325514035500N00508379WA0297103196
B1325524035503N00508371WA0296903194
B1325534035506N00508363WA0296803192
B1325544035510N00508355WA0296603191
B1325554035513N00508347WA0296503190
B1325564035517N00508339WA0296403188
B1325574035520N00508331WA0296303187
B1325584035524N00508323WA0296003187
B1325594035528N00508315WA0296203186
B1326004035531N00508306WA0296103186
B1326014035534N00508299WA0296103185
B1326024035537N00508290WA0295903184
B1326034035540N00508282WA0295703182
B1326044035544N00508273WA0295403180
B1326054035547N00508265WA0295203177
B1326064035550N00508256WA0295003175
B1326074035553N00508248WA0294703172
B1326084035555N00508239WA0294403170
B1326094035558N00508230WA0294103166
B1326104035560N00508221WA0293803163
B1326114035564N00508212WA0293403159
B1326124035568N00508204WA0293103156
B1326134035572N00508197WA0292703152
B1326144035576N00508191WA0292203146
B1326154035581N00508186WA0291703140
B1326164035586N00508180WA0291103134
B1326174035591N00508174WA0290703129
B1326184035597N00508167WA0290403125
B1326194035603N00508161WA0290003121
B1326204035608N00508154WA0289703119
B1326214035613N00508148WA0289403115
B1326224035618N00508141WA0289103111
B1326234035623N00508134WA0288703108
B1326244035628N00508127WA0288403105
B1326254035633N00508120WA0288103102
B1326264035637N00508114WA0287803099
B1326274035642N00508107WA0287403095
B1326284035646N00508101WA0287103091
B1326294035651N00508094WA0286803087
B1326304035656N00508087WA0286603085
B1326314035661N00508081WA0286303083
B1326324035665N00508074WA0286103081
B1326334035669N00508067WA0285703078
B1326344035674N00508060WA0285303074
B1326354035679N00508052WA0285103071
B1326364035683N00508043WA0284803069
B1326384035690N00508031WA0284603066
B1326394035695N00508020WA0284403063
B1326404035697N00508016WA0284203061
B1326404035699N00508013WA0284103060
B1326434035712N00507990WA0283303052
B1326444035714N00507987WA0283303051
B1326444035716N00507983WA0283203050
B1326454035720N00507977WA0283103048
B1326464035724N00507970WA0282903046
B1326474035728N00507963WA0282603044
B1326484035732N00507956WA0282503042
B1326494035736N00507949WA0282403040
B1326504035741N00507942WA0282103038
B1326514035746N00507935WA0282003037
B1326524035751N00507928WA0281803035
B1326534035755N00507922WA0281603033
B1326544035760N00507915WA0281503030
B1326554035764N00507908WA0281203028
B1326564035768N00507901WA0281203027
B1326574035772N00507894WA0281003026
B1326584035776N00507888WA0280903026
B1326594035779N00507883WA0280803025
B1327004035782N00507876WA0280603022
B1327014035786N00507870WA0280403019
B1327024035790N00507863WA0280103016
B1327034035795N00507855WA0279803013
B1327044035799N00507848WA0279603011
B1327054035804N00507840WA0279403009
B1327064035808N00507832WA0279203007
B1327074035812N00507825WA0279003006
B1327084035817N00507819WA0278803004
B1327094035822N00507813WA0278803002
B1327104035827N00507808WA0278603000
B1327114035832N00507803WA0278302997
B1327124035837N00507799WA0278102995
B1327134035842N00507795WA0277902993
B1327144035848N00507791WA0277702991
B1327154035853N00507786WA0277402989
B1327164035857N00507781WA0277202987
B1327174035862N00507776WA0277102985
B1327184035866N00507771WA0276802982
B1327194035871N00507765WA0276602978
B1327204035876N00507758WA0276302976
B1327214035880N00507751WA0276102975
B1327224035884N00507744WA0276202974
B1327234035888N00507737WA0276002974
B1327244035892N00507731WA0275902973
B1327254035896N00507723WA0275702972
B1327264035899N00507716WA0275402970
B1327274035903N00507708WA0275302967
B1327284035907N00507699WA0275202966
B1327294035910N00507690WA0275002965
B1327304035914N00507682WA0274902964
B1327314035916N00507674WA0274902963
B1327324035919N00507666WA0274802962
B1327334035922N00507658WA0274802962
B1327344035926N00507651WA0274702961
B1327354035929N00507644WA0274602960
B1327364035932N00507636WA0274502959
B1327374035935N00507628WA0274202957
B1327384035939N00507620WA0274202955
B1327394035942N00507612WA0274102954
B1327404035946N00507603WA0274002953
B1327414035949N00507595WA0274002953
B1327424035952N00507586WA0274002952
B1327434035956N00507578WA0274002952
B1327444035960N00507570WA0274002952
B1327454035963N00507563WA0274002952
B1327464035967N00507556WA0274002952
B1327474035971N00507549WA0274002952
B1327484035975N00507543WA0273902952
B1327494035978N00507536WA0273902951
B1327504035982N00507529WA0273902950
B1327514035986N00507521WA0273802949
B1327524035990N00507513WA0273902950
B1327534035994N00507507WA0274002951
B1327544035998N00507501WA0274002952
B1327554036001N00507495WA0274002951
B1327564036004N00507489WA0274102951
B1327574036008N00507483WA0274002951
B1327584036012N00507476WA0274002951
B1327594036015N00507470WA0274002951
B1328004036018N00507463WA0274002951
B1328014036021N00507457WA0273902951
B1328024036024N00507451WA0273802950
B1328034036028N00507444WA0273702949
B1328044036032N00507438WA0273502947
B1328054036037N00507431WA0273302945
B1328064036043N00507425WA0273102943
B1328074036048N00507419WA0273002942
B1328084036054N00507413WA0272802940
B1328094036060N00507407WA0272602938
B1328104036066N00507401WA0272402936
B1328114036071N00507395WA0272202933
B1328124036077N00507389WA0272002931
B1328134036083N00507382WA0271802929
B1328144036089N00507376WA0271702927
B1328154036094N00507371WA0271502926
B1328164036100N00507365WA0271502925
B1328174036106N00507360WA0271202923
B1328184036112N00507355WA0270902920
B1328194036119N00507351WA0270702917
B1328204036127N00507347WA0270502914
B1328214036135N00507344WA0270402913
B1328224036143N00507341WA0270302913
B1328234036150N00507338WA0270302912
B1328244036157N00507336WA0270102911
B1328254036164N00507333WA0270002909
B1328264036172N00507329WA0269902907
B1328274036179N00507326WA0269802906
B1328284036187N00507324WA0269802905
B1328294036195N00507321WA0269802905
B1328304036203N00507318WA0269802905
B1328314036210N00507316WA0269802906
B1328324036217N00507313WA0269802906
B1328334036224N00507310WA0270002906
B1328344036232N00507307WA0270102907
B1328354036239N00507306WA0270202909
B1328364036247N00507305WA0270302911
B1328374036254N00507304WA0270502912
B1328384036261N00507303WA0270602914
B1328394036268N00507302WA0270802916
B1328404036275N00507300WA0271102917
B1328414036281N00507298WA0271202919
B1328424036288N00507295WA0271202920
B1328434036294N00507293WA0271402921
B1328444036301N00507291WA0271502923
B1328454036307N00507289WA0271602924
B1328464036314N00507287WA0271802925
B1328474036321N00507284WA0271802926
B1328484036327N00507280WA0271802925
B1328494036333N00507273WA0271802925
B1328504036339N00507264WA0271902926
B1328514036345N00507256WA0272002928
B1328524036352N00507251WA0272402930
B1328534036360N00507247WA0272502931
B1328544036367N00507245WA0272602933
B1328554036373N00507244WA0272702934
B1328564036380N00507246WA0272802935
B1328574036385N00507250WA0272902935
B1328584036388N00507255WA0273102936
B1328594036390N00507261WA0273202938
B1329004036391N00507267WA0273302941
B1329014036392N00507272WA0273502943
B1329024036390N00507276WA0273502944
B1329034036388N00507280WA0273502944
B1329044036383N00507282WA0273502945
B1329054036378N00507282WA0273702946
B1329064036374N00507279WA0273802947
B1329074036370N00507273WA0274002947
B1329084036367N00507266WA0274102948
B1329094036365N00507258WA0274202949
B1329104036364N00507250WA0274402952
B1329114036364N00507242WA0274502953
B1329124036365N00507234WA0274502954
B1329134036369N00507226WA0274502953
B1329144036374N00507218WA0274502953
B1329154036380N00507211WA0274602954
B1329164036386N00507205WA0274702954
B1329174036393N00507199WA0274702955
B1329184036399N00507195WA0274902957
B1329194036405N00507190WA0275202958
B1329204036411N00507186WA0275302960
B1329214036417N00507182WA0275402961
B1329224036423N00507177WA0275502963
B1329234036429N00507172WA0275702964
B1329244036434N00507167WA0275802966
B1329254036441N00507164WA0276002967
B1329264036447N00507162WA0276302969
B1329274036452N00507159WA0276502972
B1329284036457N00507153WA0276702975
B1329294036461N00507146WA0276702976
B1329304036463N00507138WA0276702977
B1329314036462N00507130WA0276802977
B1329324036453N00507124WA0276802977
B1329334036445N00507121WA0276802978
B1329344036439N00507123WA0276902978
B1329354036434N00507128WA0277002979
B1329364036430N00507135WA0277202981
B1329374036430N00507141WA0277402983
B1329384036431N00507147WA0277702986
B1329394036434N00507151WA0277802988
B1329404036437N00507155WA0278002989
B1329414036441N00507158WA0278102990
B1329424036446N00507160WA0278002990
B1329434036453N00507159WA0278002990
B1329444036460N00507155WA0278002991
B1329454036467N00507149WA0278302993
B1329464036473N00507143WA0278602997
B1329474036478N00507136WA0278903003
B1329484036481N00507129WA0279103006
B1329494036482N00507121WA0279203008
B1329504036482N00507113WA0279103010
B1329514036480N00507103WA0279103011
B1329524036475N00507095WA0279303011
B1329534036469N00507089WA0279503012
B1329544036463N00507085WA0279703013
B1329564036453N00507082WA0280003014
B1329574036446N00507082WA0280103015
B1329574036443N00507082WA0280303016
B1329584036438N00507086WA0280303017
B1329594036435N00507093WA0280503018
B1330004036435N00507101WA0280703020
B1330014036437N00507108WA0280903023
B1330024036439N00507114WA0281203026
B1330034036441N00507118WA0281203028
B1330064036452N00507125WA0281003030
B1330064036455N00507125WA0280903030
B1330074036459N00507125WA0281003031
B1330104036479N00507118WA0281703037
B1330104036481N00507117WA0281903039
B1330114036484N00507116WA0281903039
B1330124036488N00507114WA0281903040
B1330134036492N00507111WA0281903039
B1330144036496N00507108WA0281803038
B1330154036501N00507105WA0282003038
B1330164036507N00507102WA0282003039
B1330174036513N00507100WA0282203041
B1330184036518N00507097WA0282503042
B1330194036522N00507095WA0282803044
B1330204036527N00507094WA0282803046
B1330214036532N00507093WA0283003046
B1330224036538N00507094WA0283203047
B1330234036544N00507094WA0283303049
B1330244036549N00507093WA0283403050
B1330254036555N00507091WA0283503051
B1330264036561N00507087WA0283803053
B1330274036567N00507084WA0284003057
B1330284036572N00507081WA0284503060
B1330294036577N00507079WA0284703064
B1330304036580N00507076WA0284803067
B1330314036583N00507073WA0285003069
B1330324036587N00507071WA0285203069
B1330334036591N00507068WA0285103069
B1330344036596N00507068WA0285303070
B1330354036602N00507068WA0285503071
B1330364036608N00507069WA0285603074
B1330374036613N00507071WA0285803076
B1330384036618N00507074WA0286103078
B1330394036622N00507079WA0286303080
B1330404036625N00507084WA0286503083
B1330414036629N00507090WA0286803085
B1330424036633N00507095WA0287003089
B1330434036637N00507099WA0287403092
B1330444036641N00507101WA0287703096
B1330454036646N00507102WA0287903099
B1330464036650N00507101WA0288003101
B1330474036655N00507097WA0288003102
B1330484036658N00507089WA0288003104
B1330494036659N00507079WA0288103105
B1330504036657N00507069WA0288303107
B1330514036652N00507060WA0288603109
B1330524036645N00507054WA0288803111
B1330534036638N00507051WA0288903111
B1330544036631N00507052WA0289103112
B1330554036624N00507056WA0289203112
B1330564036621N00507062WA0289403113
B1330574036618N00507070WA0289503114
B1330584036619N00507077WA0289503114
B1330594036621N00507085WA0289703115
B1331004036626N00507090WA0290103117
B1331014036632N00507093WA0290303120
B1331024036638N00507095WA0290603123
B1331034036643N00507093WA0291003127
B1331044036647N00507091WA0291203130
B1331054036651N00507088WA0291403131
B1331064036654N00507081WA0291403132
B1331074036656N00507073WA0291403131
B1331084036656N00507063WA0291503133
B1331094036655N00507052WA0291703134
B1331104036651N00507042WA0291903136
B1331114036646N00507033WA0292103139
B1331124036641N00507026WA0292403142
B1331134036635N00507021WA0292703145
B1331144036629N00507018WA0293003147
B1331154036623N00507017WA0293003148
B1331164036617N00507019WA0293103149
B1331174036612N00507023WA0293003148
B1331184036610N00507031WA0293303149
B1331194036609N00507039WA0293503150
B1331204036610N00507046WA0293803152
B1331214036614N00507052WA0294203155
B1331224036618N00507054WA0294603161
B1331234036623N00507055WA0294903165
B1331244036628N00507054WA0295203168
B1331254036632N00507049WA0295503171
B1331264036634N00507042WA0295603174
B1331274036632N00507033WA0295703175
B1331284036628N00507024WA0295903176
B1331294036621N00507017WA0296103176
B1331304036614N00507013WA0296403178
B1331314036607N00507015WA0296603180
B1331324036602N00507020WA0296703182
B1331334036600N00507026WA0296903184
B1331344036598N00507033WA0297103186
B1331354036599N00507039WA0297303188
B1331364036601N00507045WA0297303190
B1331374036605N00507050WA0297603191
B1331384036610N00507053WA0297703192
B1331394036616N00507056WA0297903194
B1331404036622N00507056WA0298303197
B1331414036627N00507055WA0298703202
B1331424036631N00507052WA0299003205
B1331434036635N00507047WA0299203207
B1331444036636N00507040WA0299403209
B1331454036636N00507032WA0299503211
B1331464036635N00507023WA0299803213
B1331474036631N00507015WA0299903216
B1331484036626N00507008WA0300203219
B1331494036621N00507003WA0300403221
B1331504036614N00507001WA0300603224
B1331514036608N00507002WA0300803226
B1331524036601N00507005WA0301103227
B1331534036597N00507010WA0301303228
B1331544036594N00507016WA0301503229
B1331554036593N00507022WA0301403230
B1331564036594N00507029WA0301503231
B1331574036598N00507036WA0301603232
B1331584036604N00507040WA0301603233
B1331594036609N00507043WA0301903235
B1332004036615N00507045WA0302203237
B1332014036620N00507046WA0302603240
B1332024036624N00507046WA0302803244
B1332034036629N00507045WA0303003245
B1332044036634N00507043WA0303103246
B1332054036638N00507038WA0303203247
B1332064036642N00507031WA0303403248
B1332074036643N00507023WA0303703250
B1332084036643N00507014WA0304003251
B1332094036640N00507007WA0304203253
B1332104036636N00507000WA0304303254
B1332114036630N00506996WA0304403256
B1332124036623N00506995WA0304403258
B1332134036616N00506998WA0304703259
B1332144036612N00507004WA0304803262
B1332154036609N00507011WA0305003264
B1332164036609N00507017WA0305103267
B1332174036610N00507023WA0305203268
B1332184036613N00507029WA0305303269
B1332194036616N00507035WA0305303270
B1332204036622N00507039WA0305503273
B1332214036627N00507043WA0305703275
B1332224036632N00507047WA0306103278
B1332234036636N00507049WA0306603282
B1332244036640N00507052WA0306803286
B1332254036643N00507053WA0307003290
B1332264036647N00507054WA0307003292
B1332274036652N00507052WA0306903293
B1332284036656N00507047WA0306903293
B1332294036659N00507038WA0307003293
B1332304036660N00507029WA0307103294
B1332314036658N00507020WA0307303295
B1332324036655N00507012WA0307403297
B1332334036650N00507005WA0307603299
B1332344036644N00507000WA0307803301
B1332354036637N00506997WA0308003303
B1332364036631N00506996WA0308203305
B1332374036624N00506998WA0308303307
B1332384036619N00507001WA0308503309
B1332394036615N00507007WA0308603309
B1332404036613N00507014WA0308703309
B1332414036612N00507022WA0308803310
B1332424036613N00507030WA0308903312
B1332434036616N00507036WA0309103314
B1332444036620N00507042WA0309303316
B1332454036625N00507048WA0309603319
B1332464036630N00507052WA0309803322
B1332474036636N00507055WA0310003325
B1332484036642N00507055WA0310103327
B1332494036648N00507053WA0310303329
B1332504036653N00507049WA0310303331
B1332514036657N00507042WA0310303332
B1332524036659N00507033WA0310303334
B1332534036659N00507024WA0310303335
B1332544036657N00507016WA0310403335
B1332554036654N00507010WA0310503335
B1332564036648N00507008WA0310603336
B1332574036639N00507009WA0310803336
B1332584036633N00507011WA0311003337
B1332594036628N00507016WA0311203337
B1333004036624N00507022WA0311503339
B1333014036622N00507029WA0311703341
B1333024036620N00507037WA0311803342
B1333034036621N00507045WA0312003344
B1333044036624N00507053WA0312103346
B1333054036629N00507059WA0312103347
B1333064036636N00507063WA0312103349
B1333074036644N00507064WA0312103350
B1333084036652N00507061WA0312103350
B1333094036659N00507055WA0312003350
B1333104036664N00507047WA0312203351
B1333114036668N00507038WA0312203351
B1333124036670N00507028WA0312303352
B1333134036671N00507019WA0312503354
B1333144036670N00507010WA0312503355
B1333154036668N00507003WA0312503353
B1333164036665N00506996WA0312303352
B1333174036660N00506991WA0312203351
B1333184036653N00506988WA0312303351
B1333194036644N00506989WA0312603352
B1333204036637N00506992WA0312903355
B1333214036631N00506996WA0313203356
B1333224036627N00507001WA0313503359
B1333234036624N00507007WA0313703361
B1333244036623N00507013WA0313803362
B1333254036622N00507021WA0313703362
B1333264036625N00507029WA0313703363
B1333274036633N00507035WA0313803364
B1333284036642N00507038WA0314003366
B1333294036650N00507036WA0314303368
B1333304036657N00507031WA0314403370
B1333314036661N00507024WA0314403371
B1333324036663N00507016WA0314403372
B1333334036663N00507008WA0314603373
B1333344036662N00507000WA0314603373
B1333354036658N00506994WA0314703374
B1333364036653N00506989WA0314803375
B1333374036647N00506987WA0314803377
B1333384036642N00506985WA0315103380
B1333394036637N00506986WA0315403382
B1333404036633N00506989WA0315503384
B1333414036629N00506993WA0315603385
B1333424036627N00507000WA0315603386
B1333434036630N00507008WA0315603387
B1333444036635N00507016WA0315603387
B1333454036642N00507021WA0315703388
B1333464036649N00507024WA0315603389
B1333474036657N00507025WA0315703390
B1333484036665N00507024WA0315603390
B1333494036673N00507024WA0315803390
B1333504036682N00507023WA0315803390
B1333514036690N00507023WA0315903391
B1333524036698N00507022WA0316003392
B1333534036706N00507021WA0316203394
B1333544036713N00507019WA0316203395
B1333554036720N00507018WA0316203395
B1333564036728N00507017WA0316103394
B1333574036736N00507016WA0316103394
B1333584036744N00507014WA0316203394
B1333594036752N00507013WA0316303395
B1334004036760N00507011WA0316403397
B1334014036767N00507009WA0316703400
B1334024036774N00507007WA0316903402
B1334034036780N00507005WA0316903403
B1334044036786N00507004WA0316903404
B1334054036792N00507002WA0316703404
B1334064036799N00507001WA0316703404
B1334074036805N00507000WA0316703402
B1334084036812N00506999WA0316603402
B1334094036817N00506999WA0316603403
B1334104036823N00506999WA0316503402
B1334114036828N00506998WA0316403400
B1334124036834N00506997WA0316203396
B1334134036840N00506997WA0315903394
B1334144036847N00506997WA0315703392
B1334154036854N00506996WA0315503389
B1334164036862N00506995WA0315103386
B1334174036869N00506993WA0314903384
B1334184036877N00506990WA0314603382
B1334194036884N00506988WA0314503380
B1334204036890N00506986WA0314403378
B1334214036896N00506985WA0314203376
B1334224036902N00506983WA0314003374
B1334234036908N00506981WA0313703371
B1334244036914N00506980WA0313703370
B1334254036920N00506979WA0313403368
B1334264036925N00506978WA0313303366
B1334274036931N00506976WA0313103364
B1334284036936N00506973WA0312903362
B1334294036942N00506970WA0312603359
B1334304036948N00506967WA0312303357
B1334314036954N00506963WA0312103355
B1334324036959N00506960WA0311903352
B1334334036966N00506955WA0311503349
B1334344036972N00506951WA0311203346
B1334354036979N00506946WA0310903342
B1334364036985N00506941WA0310603339
B1334374036992N00506935WA0310403336
B1334384036998N00506928WA0310203334
B1334394037004N00506922WA0310103333
B1334404037009N00506917WA0310003332
B1334414037015N00506911WA0309903330
B1334424037021N00506906WA0309903329
B1334434037027N00506899WA0309803329
B1334444037032N00506891WA0309903329
B1334454037037N00506883WA0310103330
B1334464037041N00506875WA0310303333
B1334474037045N00506869WA0310503335
B1334484037048N00506862WA0310803336
B1334494037053N00506856WA0311003338
B1334504037059N00506850WA0311403341
B1334514037065N00506845WA0311903346
B1334524037071N00506840WA0312303351
B1334534037076N00506836WA0312703356
B1334544037080N00506832WA0313003360
B1334554037084N00506827WA0313203364
B1334564037088N00506820WA0313303367
B1334574037091N00506812WA0313403370
B1334584037091N00506802WA0313603372
B1334594037088N00506793WA0313803374
B1335004037082N00506787WA0314003375
B1335014037076N00506785WA0314203376
B1335024037070N00506786WA0314403379
B1335034037065N00506790WA0314603381
B1335044037063N00506796WA0314903381
B1335054037062N00506803WA0315403384
B1335064037064N00506810WA0315703385
B1335074037067N00506814WA0316003386
B1335084037072N00506816WA0316303389
B1335094037078N00506817WA0316603392
B1335104037083N00506817WA0316903395
B1335114037089N00506815WA0317003397
B1335124037094N00506813WA0317203398
B1335134037100N00506808WA0317303399
B1335144037104N00506801WA0317303401
B1335154037107N00506792WA0317503402
B1335164037107N00506783WA0317603403
B1335174037105N00506774WA0317703404
B1335184037102N00506766WA0317903405
B1335194037097N00506760WA0318103408
B1335204037093N00506755WA0318103410
B1335214037087N00506752WA0318303412
B1335224037082N00506751WA0318503413
B1335234037076N00506751WA0318603415
B1335244037071N00506751WA0318903417
B1335254037067N00506751WA0319103419
B1335264037062N00506753WA0319403422
B1335274037059N00506756WA0319503423
B1335284037056N00506762WA0319703424
B1335294037055N00506768WA0319703425
B1335304037055N00506776WA0319903426
B1335314037057N00506783WA0320103428
B1335324037061N00506789WA0320403431
B1335334037066N00506794WA0320703434
B1335344037072N00506798WA0320903437
B1335354037078N00506801WA0321203441
B1335364037084N00506804WA0321503444
B1335374037091N00506804WA0321803448
B1335384037097N00506803WA0322103452
B1335394037102N00506801WA0322303455
B1335404037107N00506796WA0322403457
B1335414037112N00506791WA0322403457
B1335424037116N00506784WA0322303456
B1335434037121N00506775WA0322503456
B1335444037124N00506766WA0322603457
B1335454037124N00506757WA0322803459
B1335464037123N00506750WA0322903461
B1335474037122N00506743WA0322903461
B1335484037120N00506737WA0322903461
B1335494037117N00506731WA0322803459
B1335504037113N00506725WA0322603458
B1335514037108N00506721WA0322603457
B1335524037102N00506719WA0322503457
B1335534037096N00506719WA0322503456
B1335544037091N00506722WA0322503456
B1335554037086N00506725WA0322603456
B1335564037082N00506730WA0322703457
B1335574037081N00506736WA0322803459
B1335584037080N00506743WA0322903461
B1335594037080N00506749WA0322903461
B1336004037080N00506755WA0323003461
B1336014037082N00506762WA0322903461
B1336024037086N00506768WA0322903461
B1336034037092N00506773WA0323203462
B1336044037098N00506775WA0323303463
B1336054037104N00506775WA0323503464
B1336064037109N00506773WA0323603465
B1336074037114N00506770WA0323603466
B1336084037119N00506766WA0323603465
B1336094037124N00506762WA0323703465
B1336104037128N00506757WA0323603465
B1336114037133N00506753WA0323503465
B1336124037138N00506749WA0323403464
B1336134037143N00506745WA0323303462
B1336144037148N00506741WA0323103461
B1336154037154N00506737WA0323103460
B1336164037159N00506732WA0323003460
B1336174037165N00506728WA0323003460
B1336184037169N00506723WA0323003460
B1336194037173N00506719WA0323103460
B1336204037178N00506715WA0323203461
B1336214037182N00506710WA0323203461
B1336224037185N00506704WA0323303462
B1336234037187N00506697WA0323403463
B1336244037189N00506690WA0323503465
B1336254037190N00506682WA0323703467
B1336264037191N00506675WA0323803468
B1336274037192N00506667WA0323903469
B1336284037193N00506660WA0323903470
B1336294037194N00506652WA0324003470
B1336304037195N00506643WA0324203471
B1336314037196N00506635WA0324303473
B1336324037195N00506627WA0324303474
B1336334037194N00506619WA0324403476
B1336344037193N00506611WA0324303476
B1336354037194N00506602WA0324303476
B1336364037195N00506594WA0324303477
B1336374037197N00506586WA0324503478
B1336384037199N00506578WA0324603479
B1336394037201N00506570WA0324803481
B1336404037204N00506564WA0324903482
B1336414037206N00506557WA0325003483
B1336424037209N00506550WA0324903484
B1336434037212N00506542WA0324903484
B1336444037215N00506535WA0324903484
B1336454037219N00506528WA0325103485
B1336464037223N00506522WA0325203486
B1336474037227N00506516WA0325203487
B1336484037231N00506510WA0325403488
B1336494037235N00506504WA0325503489
B1336504037239N00506498WA0325603490
B1336514037243N00506492WA0325803491
B1336524037247N00506486WA0325903493
B1336534037251N00506479WA0326103494
B1336544037254N00506472WA0326203496
B1336554037257N00506464WA0326303497
B1336564037260N00506455WA0326503499
B1336574037263N00506447WA0326803502
B1336584037266N00506438WA0327103505
B1336594037268N00506430WA0327403510
B1337004037269N00506421WA0327803513
B1337014037268N00506411WA0328103516
B1337024037265N00506401WA0328203517
B1337034037259N00506392WA0328403520
B1337044037252N00506386WA0328603523
B1337054037244N00506384WA0328903524
B1337064037238N00506386WA0329303527
B1337074037234N00506391WA0329603530
B1337084037233N00506397WA0329703533
B1337094037235N00506402WA0329803535
B1337104037240N00506405WA0330003536
B1337114037245N00506405WA0330303538
B1337124037251N00506401WA0330603543
B1337134037255N00506395WA0331303547
B1337144037257N00506389WA0331403550
B1337154037259N00506382WA0331603554
B1337164037259N00506375WA0331803556
B1337174037259N00506368WA0331903554
B1337184037259N00506360WA0331803549
B1337194037261N00506352WA0331803550
B1337204037263N00506345WA0331903551
B1337214037266N00506339WA0331903552
B1337224037268N00506334WA0331903552
B1337234037270N00506329WA0331803552
B1337244037274N00506324WA0331803551
B1337254037278N00506318WA0331803551
B1337264037282N00506313WA0331903551
B1337274037286N00506307WA0331903552
B1337284037290N00506300WA0331803551
B1337294037294N00506293WA0331803550
B1337304037298N00506286WA0331703550
B1337314037303N00506279WA0331603549
B1337324037307N00506273WA0331503549
B1337334037312N00506266WA0331503548
B1337344037316N00506260WA0331403547
B1337354037321N00506253WA0331403547
B1337364037325N00506246WA0331403547
B1337374037329N00506239WA0331103547
B1337384037333N00506234WA0331003543
B1337394037336N00506228WA0330703541
B1337404037341N00506222WA0330303539
B1337414037346N00506216WA0330003535
B1337424037352N00506210WA0329803532
B1337434037358N00506204WA0329603530
B1337444037364N00506199WA0329403528
B1337454037370N00506192WA0329203526
B1337464037375N00506186WA0329103525
B1337474037380N00506180WA0328903523
B1337484037384N00506174WA0328603520
B1337494037389N00506168WA0328303517
B1337504037395N00506162WA0327903513
B1337514037401N00506156WA0327303509
B1337524037408N00506149WA0327303506
B1337534037414N00506141WA0327203505
B1337544037420N00506134WA0327303505
B1337554037425N00506128WA0327203505
B1337564037429N00506123WA0327103504
B1337574037432N00506117WA0326803502
B1337584037436N00506111WA0326403500
B1337594037440N00506103WA0326003497
B1338004037445N00506095WA0325603493
B1338014037450N00506087WA0325303490
B1338024037454N00506078WA0325103489
B1338034037458N00506069WA0325003487
B1338044037461N00506060WA0324703484
B1338054037465N00506051WA0324403481
B1338064037469N00506043WA0324103479
B1338074037473N00506034WA0323903476
B1338084037478N00506026WA0323603474
B1338094037482N00506018WA0323503471
B1338104037486N00506009WA0323403469
B1338114037491N00506000WA0323303468
B1338124037495N00505991WA0323203467
B1338134037499N00505982WA0323303467
B1338144037502N00505974WA0323203467
B1338154037505N00505965WA0323103467
B1338164037508N00505957WA0322903465
B1338174037511N00505949WA0322703463
B1338184037515N00505941WA0322603460
B1338194037519N00505933WA0322403459
B1338204037524N00505924WA0322203457
B1338214037529N00505916WA0322203456
B1338224037533N00505908WA0322203456
B1338234037536N00505902WA0322003456
B1338244037540N00505895WA0321803455
B1338254037544N00505889WA0321403451
B1338264037548N00505883WA0321103447
B1338274037552N00505876WA0320803443
B1338284037556N00505869WA0320403440
B1338294037561N00505861WA0319903436
B1338304037566N00505854WA0319603432
B1338314037570N00505846WA0319303429
B1338324037575N00505838WA0319003425
B1338334037579N00505830WA0318703422
B1338344037584N00505823WA0318303419
B1338354037589N00505816WA0317903414
B1338364037594N00505809WA0317503411
B1338374037600N00505803WA0317103407
B1338384037606N00505797WA0316903403
B1338394037612N00505791WA0316203399
B1338404037618N00505785WA0315703394
B1338414037624N00505779WA0315403389
B1338424037630N00505773WA0314803383
B1338434037637N00505768WA0313903376
B1338444037645N00505763WA0313403370
B1338454037652N00505758WA0313203365
B1338464037660N00505752WA0312703360
B1338474037667N00505746WA0312003355
B1338484037675N00505740WA0311503350
B1338494037683N00505734WA0311203344
B1338504037692N00505729WA0310303338
B1338514037700N00505724WA0309903332
B1338524037709N00505718WA0309403328
B1338534037718N00505714WA0309203323
B1338544037726N00505711WA0308903319
B1338554037734N00505709WA0308503315
B1338564037741N00505706WA0308103311
B1338574037749N00505704WA0307703306
B1338584037756N00505702WA0307203301
B1338594037764N00505699WA0306703296
B1339004037771N00505696WA0306203291
B1339014037779N00505693WA0305803286
B1339024037787N00505690WA0305303282
B1339034037796N00505687WA0305003278
B1339044037803N00505685WA0304603273
B1339054037810N00505684WA0304103269
B1339064037817N00505683WA0303603264
B1339074037824N00505682WA0303003258
B1339084037832N00505681WA0302403252
B1339094037839N00505681WA0302003247
B1339104037846N00505681WA0301303241
B1339114037852N00505680WA0300803235
B1339124037859N00505679WA0300103228
B1339134037866N00505679WA0299503221
B1339144037873N00505678WA0298703214
B1339154037880N00505677WA0297903206
B1339164037888N00505676WA0297203198
B1339174037897N00505675WA0296603191
B1339184037905N00505675WA0296103185
B1339194037916N00505675WA0295303178
B1339204037919N00505675WA0295103176
B1339214037925N00505674WA0294503170
B1339224037932N00505673WA0293603162
B1339234037939N00505672WA0292903153
B1339244037948N00505671WA0292003144
B1339254037957N00505670WA0291303136
B1339264037966N00505668WA0290703129
B1339274037975N00505667WA0290203123
B1339284037984N00505665WA0289803119
B1339294037992N00505664WA0289303114
B1339304038000N00505663WA0288703108
B1339314038008N00505662WA0288103102
B1339324038016N00505660WA0287503095
B1339334038025N00505659WA0286903089
B1339344038033N00505658WA0286503084
B1339354038041N00505658WA0286003079
B1339364038049N00505656WA0285703075
B1339374038056N00505654WA0285303072
B1339384038062N00505652WA0284903068
B1339394038068N00505649WA0284403063
B1339404038074N00505646WA0283903058
B1339414038080N00505644WA0283303051
B1339424038087N00505641WA0282703045
B1339434038095N00505638WA0282203039
B1339444038103N00505635WA0281703034
B1339454038111N00505633WA0281303029
B1339464038119N00505631WA0280903024
B1339474038127N00505629WA0280403019
B1339484038135N00505629WA0279903014
B1339494038142N00505628WA0279403009
B1339504038150N00505628WA0278803003
B1339514038157N00505626WA0278202997
B1339524038165N00505624WA0277602991
B1339534038173N00505620WA0277102985
B1339544038180N00505617WA0276702979
B1339554038189N00505613WA0276202974
B1339564038198N00505611WA0276002971
B1339574038206N00505608WA0275902969
B1339584038213N00505606WA0275702967
B1339594038219N00505604WA0275302964
B1340004038226N00505602WA0274902959
B1340014038235N00505599WA0274502954
B1340024038243N00505596WA0274302951
B1340034038252N00505593WA0274402950
B1340044038260N00505591WA0274402951
B1340054038267N00505589WA0274502952
B1340064038274N00505587WA0274302952
B1340074038280N00505585WA0274102951
B1340084038287N00505581WA0273802950
B1340094038294N00505577WA0273702946
B1340104038302N00505572WA0273502944
B1340114038309N00505567WA0273502944
B1340124038317N00505563WA0273502943
B1340134038324N00505558WA0273302942
B1340144038334N00505551WA0273202940
B1340154038338N00505548WA0273002939
B1340164038345N00505544WA0272902938
B1340174038356N00505537WA0272602935
B1340194038368N00505532WA0272402933
B1340194038372N00505530WA0272302932
B1340204038376N00505528WA0272102931
B1340214038383N00505524WA0271902929
B1340224038391N00505520WA0271602926
B1340234038400N00505514WA0271302924
B1340244038408N00505509WA0271302923
B1340254038417N00505505WA0271402923
B1340264038425N00505501WA0271502923
B1340274038432N00505497WA0271502923
B1340284038440N00505493WA0271502923
B1340294038446N00505488WA0271402923
B1340304038451N00505483WA0271302923
B1340314038457N00505476WA0271302921
B1340324038462N00505470WA0271002919
B1340354038484N00505453WA0270502913
B1340354038488N00505451WA0270502912
B1340364038492N00505448WA0270402912
B1340374038504N00505440WA0270302910
B1340384038508N00505437WA0270302910
B1340394038516N00505432WA0270302910
B1340404038523N00505426WA0270302911
B1340414038531N00505422WA0270302911
B1340424038538N00505416WA0270302911
B1340434038545N00505411WA0270202910
B1340444038552N00505406WA0270202909
B1340454038559N00505402WA0270102908
B1340464038566N00505397WA0270002907
B1340474038574N00505392WA0269902906
B1340484038581N00505387WA0269902905
B1340494038588N00505382WA0269802905
B1340504038596N00505377WA0269802904
B1340514038603N00505372WA0269702904
B1340524038610N00505367WA0269702904
B1340534038617N00505364WA0269602904
B1340544038623N00505361WA0269502903
B1340554038631N00505358WA0269402900
B1340564038638N00505354WA0269202898
B1340574038645N00505350WA0268902896
B1340584038653N00505346WA0268802893
B1340594038661N00505342WA0268602892
B1341004038669N00505337WA0268102890
B1341014038676N00505332WA0268202890
B1341024038682N00505327WA0268402889
B1341034038689N00505321WA0268102887
B1341044038695N00505315WA0268002885
B1341054038700N00505309WA0267902884
B1341064038706N00505302WA0267802884
B1341074038711N00505296WA0267702883
B1341084038716N00505289WA0267702882
B1341094038720N00505282WA0267602881
B1341104038725N00505275WA0267402880
B1341114038731N00505268WA0267302878
B1341124038736N00505260WA0267102876
B1341134038741N00505252WA0267002874
B1341144038747N00505243WA0266902874
B1341154038752N00505235WA0266802873
B1341164038757N00505227WA0266702872
B1341174038762N00505219WA0266602870
B1341184038767N00505210WA0266502869
B1341194038773N00505202WA0266302868
B1341204038778N00505194WA0266402868
B1341214038783N00505186WA0266302868
B1341224038789N00505179WA0266302869
B1341234038793N00505173WA0266302869
B1341244038798N00505167WA0266102866
B1341254038803N00505162WA0265802863
B1341264038807N00505156WA0265602860
B1341274038812N00505149WA0265402858
B1341284038817N00505142WA0265402857
B1341294038822N00505134WA0265402857
B1341304038827N00505127WA0265302856
B1341314038831N00505120WA0265102856
B1341324038836N00505112WA0265002854
B1341334038840N00505105WA0264802852
B1341344038845N00505097WA0264602850
B1341354038851N00505089WA0264302847
B1341364038857N00505082WA0264202846
B1341374038863N00505075WA0264202845
B1341384038869N00505068WA0264102844
B1341394038875N00505062WA0264102843
B1341404038880N00505056WA0264002843
B1341414038886N00505051WA0263902842
B1341424038891N00505045WA0263902841
B1341434038896N00505040WA0263702840
B1341444038902N00505034WA0263502839
B1341454038906N00505028WA0263302837
B1341464038911N00505021WA0263202835
B1341474038917N00505015WA0263002834
B1341484038922N00505008WA0262902833
B1341494038928N00505002WA0262802832
B1341504038934N00504997WA0262602830
B1341514038942N00504988WA0262302827
B1341524038945N00504985WA0262102825
B1341534038952N00504979WA0261902822
B1341544038958N00504973WA0261602819
B1341554038965N00504967WA0261402816
B1341564038971N00504962WA0261302814
B1341574038978N00504956WA0261002813
B1341584038985N00504951WA0260802811
B1341594038991N00504945WA0260702808
B1342004038997N00504939WA0260502805
B1342014039003N00504933WA0260102803
B1342024039010N00504927WA0259902801
B1342034039016N00504921WA0259602799
B1342044039022N00504915WA0259502796
B1342054039029N00504909WA0259302795
B1342064039035N00504904WA0259002792
B1342074039042N00504898WA0258702789
B1342084039048N00504892WA0258602786
B1342094039055N00504887WA0258402783
B1342104039062N00504881WA0258102781
B1342114039069N00504875WA0258002779
B1342124039076N00504869WA0258002778
B1342134039083N00504864WA0257802778
B1342144039089N00504859WA0257802777
B1342154039094N00504855WA0257702776
B1342164039100N00504850WA0257502774
B1342174039106N00504845WA0257302771
B1342184039113N00504840WA0257002769
B1342194039119N00504834WA0256702767
B1342204039126N00504828WA0256702765
B1342214039132N00504823WA0256502764
B1342224039138N00504818WA0256302762
B1342234039144N00504813WA0256102760
B1342244039150N00504807WA0255802756
B1342254039156N00504802WA0255502754
B1342264039163N00504796WA0255302751
B1342274039170N00504790WA0255102749
B1342284039176N00504785WA0254902747
B1342294039183N00504781WA0254702745
B1342304039189N00504776WA0254502742
B1342314039196N00504771WA0254202740
B1342324039203N00504766WA0254002737
B1342334039210N00504761WA0253802735
B1342344039217N00504756WA0253602733
B1342354039224N00504751WA0253402731
B1342364039231N00504746WA0253202729
B1342374039238N00504741WA0253002727
B1342384039245N00504737WA0252802725
B1342394039253N00504733WA0252602722
B1342404039260N00504729WA0252502720
B1342414039268N00504725WA0252302718
B1342424039276N00504721WA0252102717
B1342434039283N00504716WA0251902715
B1342444039291N00504712WA0251602714
B1342454039298N00504708WA0251702713
B1342464039306N00504703WA0251602712
B1342474039312N00504700WA0251402710
B1342484039320N00504696WA0251202707
B1342494039327N00504692WA0250902704
B1342504039335N00504688WA0250602701
B1342514039343N00504683WA0250202698
B1342524039351N00504679WA0250002695
B1342534039359N00504675WA0250002693
B1342544039368N00504671WA0249902693
B1342554039375N00504667WA0249802692
B1342564039382N00504664WA0249702691
B1342574039389N00504659WA0249502689
B1342584039397N00504655WA0249302686
B1342594039405N00504651WA0249002684
B1343004039413N00504647WA0248902682
B1343014039421N00504644WA0248802682
B1343024039428N00504641WA0248702681
B1343034039434N00504637WA0248902682
B1343044039440N00504634WA0248902682
B1343054039446N00504631WA0248902682
B1343064039451N00504628WA0248702680
B1343074039457N00504626WA0248402677
B1343084039462N00504623WA0248102673
B1343094039469N00504620WA0247802670
B1343104039475N00504616WA0247402666
B1343114039483N00504612WA0247202663
B1343124039490N00504609WA0247102662
B1343134039498N00504605WA0247202662
B1343144039504N00504603WA0247302663
B1343154039509N00504601WA0247302664
B1343164039514N00504599WA0247302663
B1343174039519N00504596WA0247202662
B1343184039524N00504594WA0246902659
B1343194039530N00504590WA0246602656
B1343204039536N00504586WA0246502653
B1343214039543N00504582WA0246302651
B1343224039549N00504577WA0246202650
B1343234039555N00504573WA0246202649
B1343244039561N00504568WA0246102648
B1343254039567N00504563WA0245902647
B1343264039573N00504558WA0245902646
B1343274039580N00504554WA0245602645
B1343284039586N00504550WA0245402643
B1343294039592N00504546WA0245302641
B1343304039599N00504542WA0245102639
B1343314039606N00504538WA0245002637
B1343324039613N00504535WA0244802636
B1343334039621N00504532WA0244802635
B1343344039627N00504529WA0244702635
B1343354039635N00504527WA0244702634
B1343364039642N00504524WA0244602634
B1343374039648N00504523WA0244502634
B1343384039655N00504521WA0244402633
B1343394039661N00504520WA0244102632
B1343404039666N00504519WA0243902631
B1343414039672N00504516WA0243602628
B1343424039679N00504513WA0243202625
B1343434039687N00504510WA0242902623
B1343444039696N00504506WA0243002624
B1343454039704N00504503WA0243102625
B1343464039710N00504500WA0243202626
B1343474039716N00504496WA0243202626
B1343484039721N00504492WA0243202626
B1343494039726N00504488WA0243002624
B1343504039731N00504483WA0242902623
B1343514039737N00504478WA0242902621
B1343524039743N00504473WA0242902621
B1343534039750N00504470WA0242902621
B1343544039756N00504467WA0242902622
B1343554039762N00504465WA0242902622
B1343564039767N00504462WA0242802621
B1343574039773N00504459WA0242802620
B1343584039780N00504456WA0242702619
B1343594039786N00504453WA0242802619
B1344004039793N00504450WA0242802619
B1344014039799N00504446WA0242502618
B1344024039805N00504442WA0242702618
B1344034039812N00504438WA0242502616
B1344044039819N00504435WA0242402615
B1344054039826N00504431WA0242302614
B1344064039833N00504428WA0242202613
B1344074039840N00504425WA0242102612
B1344084039846N00504421WA0241902611
B1344094039852N00504417WA0241802609
B1344104039858N00504414WA0241502606
B1344114039865N00504410WA0241302604
B1344124039871N00504406WA0241102602
B1344134039878N00504404WA0241102600
B1344144039884N00504401WA0240802599
B1344154039890N00504399WA0240602598
B1344164039895N00504397WA0240602595
B1344174039901N00504395WA0240402593
B1344184039907N00504393WA0240202591
B1344194039914N00504391WA0240202589
B1344204039921N00504390WA0239802588
B1344214039927N00504388WA0239802588
B1344224039932N00504387WA0239902586
B1344234039938N00504384WA0239802585
B1344244039943N00504382WA0239602583
B1344254039950N00504380WA0239602582
B1344264039956N00504378WA0239502582
B1344274039962N00504377WA0239402582
B1344284039968N00504375WA0239502582
B1344294039974N00504373WA0239502582
B1344304039979N00504371WA0239402581
B1344314039985N00504369WA0239402580
B1344324039991N00504367WA0239302579
B1344334039997N00504366WA0239302579
B1344344040003N00504364WA0239302579
B1344354040009N00504362WA0239202578
B1344364040014N00504361WA0239202578
B1344374040020N00504360WA0239302578
B1344384040027N00504360WA0239302578
B1344394040033N00504360WA0239302579
B1344404040039N00504361WA0239502581
B1344414040045N00504362WA0240002584
B1344424040051N00504362WA0240102586
B1344434040054N00504362WA0240302588
B1344444040058N00504362WA0240302589
B1344454040061N00504362WA0240302589
B1344464040066N00504362WA0240402589
B1344474040071N00504361WA0240502590
B1344484040077N00504360WA0240902591
B1344494040082N00504357WA0241202595
B1344504040087N00504355WA0241602598
B1344514040092N00504352WA0241802601
B1344524040097N00504351WA0242102604
B1344534040103N00504351WA0242502606
B1344544040109N00504354WA0242702609
B1344554040114N00504359WA0243002612
B1344564040117N00504366WA0243402615
B1344574040120N00504375WA0243802620
B1344584040120N00504382WA0244202624
B1344594040117N00504389WA0244402628
B1345004040111N00504392WA0244502632
B1345014040105N00504392WA0244702634
B1345024040100N00504387WA0245102636
B1345034040097N00504379WA0245402639
B1345044040097N00504371WA0245702642
B1345054040100N00504364WA0246102646
B1345064040106N00504361WA0246202647
B1345074040113N00504361WA0246602649
B1345084040119N00504365WA0247002650
B1345094040124N00504372WA0247302651
B1345104040127N00504380WA0247602653
B1345114040125N00504391WA0247902657
B1345124040121N00504398WA0248302660
B1345134040115N00504400WA0248602663
B1345144040109N00504398WA0248802665
B1345154040105N00504391WA0249002667
B1345164040103N00504383WA0249402671
B1345174040103N00504375WA0249802674
B1345184040104N00504368WA0250102676
B1345194040107N00504363WA0250402682
B1345204040111N00504358WA0250502685
B1345214040117N00504354WA0250802688
B1345224040123N00504352WA0251302691
B1345234040130N00504356WA0251602695
B1345244040135N00504361WA0251902697
B1345254040135N00504372WA0252402701
B1345264040133N00504381WA0252702705
B1345274040128N00504387WA0253002708
B1345284040122N00504388WA0253202711
B1345294040117N00504385WA0253402712
B1345304040112N00504379WA0253902715
B1345314040110N00504372WA0254202716
B1345324040113N00504363WA0254602718
B1345334040117N00504356WA0254802721
B1345344040122N00504352WA0255302723
B1345354040128N00504349WA0255702725
B1345364040135N00504351WA0256002727
B1345374040141N00504355WA0256202729
B1345384040146N00504363WA0256402732
B1345394040148N00504373WA0257002739
B1345404040147N00504382WA0257302744
B1345414040145N00504389WA0257702749
B1345424040142N00504395WA0257902751
B1345434040137N00504397WA0258302752
B1345444040132N00504395WA0258402754
B1345454040128N00504391WA0258602758
B1345464040125N00504384WA0258902761
B1345474040124N00504376WA0259202765
B1345484040126N00504368WA0259502770
B1345494040128N00504360WA0259802775
B1345504040132N00504353WA0260202780
B1345514040136N00504348WA0260402784
B1345524040142N00504345WA0260802788
B1345534040149N00504344WA0261102791
B1345544040155N00504346WA0261402795
B1345554040161N00504350WA0261702799
B1345564040166N00504356WA0262102803
B1345574040170N00504363WA0262602807
B1345584040173N00504371WA0263002813
B1345594040175N00504379WA0263502818
B1346004040174N00504386WA0263802821
B1346014040172N00504393WA0264102825
B1346024040169N00504397WA0264502828
B1346034040164N00504398WA0264502831
B1346044040160N00504395WA0264602832
B1346054040156N00504390WA0264902835
B1346064040154N00504382WA0265202838
B1346074040153N00504374WA0265602841
B1346084040154N00504366WA0266002845
B1346094040155N00504358WA0266402851
B1346104040158N00504353WA0266902854
B1346114040161N00504349WA0266902857
B1346124040167N00504345WA0267202859
B1346134040174N00504342WA0267402863
B1346144040181N00504341WA0267802864
B1346154040188N00504341WA0268002868
B1346164040196N00504345WA0268202871
B1346174040201N00504353WA0268502875
B1346184040204N00504361WA0268802878
B1346194040204N00504370WA0269102882
B1346204040202N00504377WA0269302886
B1346214040199N00504383WA0269602887
B1346224040196N00504386WA0269902891
B1346234040192N00504387WA0270202894
B1346244040187N00504386WA0270502896
B1346254040183N00504381WA0270702900
B1346264040181N00504375WA0271102905
B1346274040180N00504367WA0271602909
B1346284040180N00504360WA0271902914
B1346294040183N00504352WA0272202918
B1346304040187N00504346WA0272502921
B1346314040193N00504342WA0272702924
B1346324040201N00504339WA0272902926
B1346334040208N00504339WA0273102928
B1346344040216N00504342WA0273302929
B1346354040221N00504349WA0273502930
B1346364040225N00504358WA0273802932
B1346374040226N00504367WA0274002936
B1346384040225N00504375WA0274402938
B1346394040223N00504381WA0274602940
B1346404040220N00504386WA0274802944
B1346414040216N00504389WA0275202950
B1346424040213N00504391WA0275502954
B1346434040209N00504391WA0275702957
B1346444040205N00504388WA0275802960
B1346454040203N00504382WA0276102962
B1346464040202N00504375WA0276302964
B1346474040203N00504366WA0276702966
B1346484040204N00504357WA0277202969
B1346494040207N00504350WA0277602975
B1346504040210N00504343WA0277902979
B1346514040214N00504337WA0278102982
B1346524040220N00504333WA0278402984
B1346534040228N00504331WA0278502985
B1346544040236N00504333WA0278602987
B1346554040243N00504339WA0278902988
B1346564040247N00504347WA0279002990
B1346574040249N00504356WA0279202992
B1346584040248N00504364WA0279402993
B1346594040246N00504370WA0279702994
B1347004040242N00504374WA0279802995
B1347014040239N00504377WA0280302996
B1347024040236N00504379WA0280602998
B1347034040233N00504379WA0280903000
B1347044040230N00504378WA0281003002
B1347054040228N00504375WA0281403004
B1347064040225N00504369WA0281503008
B1347074040224N00504361WA0281903015
B1347084040224N00504353WA0282103020
B1347094040226N00504346WA0282403024
B1347104040230N00504339WA0282703027
B1347114040235N00504332WA0283103030
B1347124040241N00504327WA0283303033
B1347134040248N00504324WA0283603036
B1347144040256N00504324WA0283703039
B1347154040264N00504325WA0284103041
B1347164040271N00504329WA0284203043
B1347174040276N00504334WA0284303045
B1347184040280N00504342WA0284403046
B1347194040283N00504351WA0284503048
B1347204040282N00504359WA0284803049
B1347214040280N00504365WA0285103050
B1347224040276N00504367WA0285203052
B1347234040271N00504367WA0285403054
B1347244040266N00504364WA0285503056
B1347254040263N00504358WA0285803059
B1347264040260N00504352WA0286003062
B1347274040258N00504346WA0286303067
B1347284040256N00504340WA0286603071
B1347294040256N00504333WA0287003074
B1347304040255N00504325WA0287303078
B1347314040256N00504318WA0287503082
B1347324040258N00504310WA0287803085
B1347334040263N00504303WA0288103088
B1347344040269N00504299WA0288203090
B1347354040277N00504297WA0288503093
B1347364040285N00504299WA0288803095
B1347374040292N00504304WA0289003096
B1347384040296N00504311WA0289203098
B1347394040297N00504319WA0289403100
B1347404040296N00504326WA0289603102
B1347414040292N00504331WA0289703102
B1347424040287N00504334WA0290003105
B1347434040282N00504333WA0290403108
B1347444040279N00504332WA0290903110
B1347454040277N00504328WA0291103111
B1347464040276N00504323WA0291303115
B1347474040276N00504315WA0291503117
B1347484040278N00504307WA0291703119
B1347494040284N00504299WA0292003123
B1347504040291N00504294WA0292303125
B1347514040298N00504292WA0292603128
B1347524040306N00504293WA0292903129
B1347534040312N00504297WA0293103130
B1347544040318N00504305WA0293203132
B1347554040320N00504314WA0293403134
B1347564040319N00504322WA0293503137
B1347574040317N00504328WA0293703138
B1347584040313N00504331WA0294103140
B1347594040309N00504331WA0294303143
B1348004040305N00504328WA0294603146
B1348014040301N00504324WA0295003151
B1348024040297N00504319WA0295303160
B1348034040295N00504314WA0295603164
B1348044040294N00504309WA0295903168
B1348054040294N00504302WA0296103170
B1348064040297N00504294WA0296203172
B1348074040303N00504288WA0296403174
B1348084040309N00504283WA0296603176
B1348094040317N00504281WA0296903178
B1348104040324N00504284WA0297003180
B1348114040331N00504290WA0297303181
B1348124040335N00504297WA0297503183
B1348134040336N00504306WA0297703186
B1348144040335N00504314WA0298003189
B1348154040334N00504320WA0298303192
B1348164040332N00504324WA0298603196
B1348174040329N00504328WA0298803199
B1348184040326N00504331WA0298903201
B1348194040322N00504331WA0299103202
B1348204040318N00504327WA0299403204
B1348214040315N00504322WA0299703207
B1348224040313N00504316WA0300003211
B1348234040312N00504309WA0300403215
B1348244040313N00504302WA0300603218
B1348254040316N00504295WA0300803220
B1348264040319N00504288WA0300903222
B1348274040324N00504281WA0301103224
B1348284040332N00504277WA0301303226
B1348294040340N00504276WA0301503228
B1348304040348N00504278WA0301803230
B1348314040355N00504283WA0302203232
B1348324040361N00504290WA0302303234
B1348334040365N00504298WA0302603237
B1348344040368N00504305WA0302903240
B1348354040369N00504313WA0303203242
B1348364040368N00504319WA0303203242
B1348374040365N00504324WA0303303244
B1348384040361N00504326WA0303503245
B1348394040356N00504326WA0303803247
B1348404040352N00504324WA0303903250
B1348414040349N00504321WA0304403253
B1348424040346N00504316WA0304803256
B1348434040343N00504311WA0305003260
B1348444040342N00504305WA0305203263
B1348454040342N00504298WA0305403266
B1348464040342N00504289WA0305703269
B1348474040345N00504281WA0305803271
B1348484040348N00504273WA0306203274
B1348494040353N00504266WA0306403277
B1348504040359N00504260WA0306503279
B1348514040367N00504257WA0306803282
B1348524040375N00504256WA0307103283
B1348534040383N00504257WA0307303287
B1348544040390N00504259WA0307603290
B1348554040397N00504263WA0307703293
B1348564040401N00504269WA0308003295
B1348574040403N00504278WA0308003297
B1348584040403N00504286WA0308103299
B1348594040401N00504294WA0308403300
B1349004040398N00504299WA0308703303
B1349014040395N00504302WA0309003308
B1349024040392N00504304WA0309403312
B1349034040388N00504305WA0309703316
B1349044040386N00504304WA0310003320
B1349054040384N00504301WA0310203322
B1349064040382N00504296WA0310403324
B1349074040382N00504289WA0310503326
B1349084040384N00504281WA0310703328
B1349094040388N00504274WA0311003331
B1349104040394N00504269WA0311203333
B1349114040400N00504265WA0311303335
B1349124040407N00504263WA0311503337
B1349134040415N00504263WA0311603338
B1349144040422N00504265WA0311803340
B1349154040429N00504270WA0312003342
B1349164040434N00504277WA0312203344
B1349174040438N00504284WA0312403347
B1349184040440N00504291WA0312603349
B1349194040441N00504298WA0312703351
B1349204040440N00504305WA0312903352
B1349214040439N00504311WA0313003354
B1349224040436N00504315WA0313203355
B1349234040433N00504319WA0313303356
B1349244040429N00504320WA0313503358
B1349254040424N00504321WA0313803360
B1349264040421N00504320WA0314103363
B1349274040418N00504318WA0314303365
B1349284040415N00504315WA0314403368
B1349294040413N00504310WA0314603369
B1349304040411N00504304WA0314903371
B1349314040410N00504296WA0315203375
B1349324040410N00504289WA0315603379
B1349334040411N00504281WA0315903382
B1349344040412N00504273WA0316203386
B1349354040416N00504266WA0316303389
B1349364040422N00504260WA0316503391
B1349374040430N00504257WA0316503392
B1349384040438N00504258WA0316503393
B1349394040446N00504261WA0316603394
B1349404040452N00504268WA0316703395
B1349414040456N00504276WA0317003396
B1349424040458N00504284WA0317203399
B1349434040458N00504291WA0317603405
B1349444040458N00504297WA0318103410
B1349454040456N00504301WA0318303414
B1349464040452N00504302WA0318403418
B1349474040448N00504300WA0318503422
B1349484040443N00504295WA0318703426
B1349494040440N00504288WA0319103427
B1349504040441N00504278WA0319303430
B1349514040443N00504269WA0319603433
B1349524040446N00504261WA0319803435
B1349534040451N00504254WA0320003435
B1349544040458N00504250WA0320003436
B1349554040465N00504247WA0320103437
B1349564040473N00504248WA0320203437
B1349574040481N00504251WA0320203437
B1349584040488N00504256WA0320203437
B1349594040492N00504264WA0320303437
B1350004040495N00504272WA0320403438
B1350014040496N00504280WA0320703439
B1350024040496N00504288WA0320903441
B1350034040495N00504293WA0321303442
B1350044040493N00504298WA0321503444
B1350054040491N00504300WA0321703444
B1350064040487N00504299WA0321903445
B1350074040483N00504296WA0322203447
B1350084040480N00504289WA0322603449
B1350094040479N00504281WA0322803451
B1350104040480N00504272WA0322903453
B1350114040486N00504263WA0323103456
B1350124040492N00504256WA0323203458
B1350134040500N00504253WA0323303459
B1350144040509N00504252WA0323503460
B1350154040517N00504254WA0323603462
B1350164040523N00504259WA0323703463
B1350174040528N00504266WA0323803465
B1350184040532N00504274WA0324103467
B1350194040535N00504282WA0324303470
B1350204040536N00504289WA0324503473
B1350214040535N00504295WA0324703475
B1350224040533N00504300WA0324703477
B1350234040529N00504303WA0324803478
B1350244040526N00504305WA0324903479
B1350254040522N00504304WA0325103481
B1350264040518N00504300WA0325403483
B1350274040514N00504294WA0325403485
B1350284040512N00504287WA0325703488
B1350294040512N00504279WA0326203491
B1350304040513N00504271WA0326403493
B1350314040515N00504264WA0326503496
B1350324040520N00504258WA0326603498
B1350334040525N00504251WA0326703500
B1350344040531N00504246WA0326803501
B1350354040537N00504240WA0326803501
B1350364040543N00504234WA0326803502
B1350374040550N00504229WA0327003503
B1350384040557N00504224WA0327103504
B1350394040564N00504219WA0327203506
B1350404040570N00504214WA0327303507
B1350414040578N00504210WA0327403508
B1350424040585N00504205WA0327503509
B1350434040592N00504201WA0327503511
B1350444040598N00504196WA0327603511
B1350454040605N00504191WA0327603512
B1350464040613N00504185WA0327903513
B1350474040620N00504178WA0327903514
B1350484040626N00504171WA0328003516
B1350494040631N00504164WA0328003517
B1350504040637N00504157WA0328003517
B1350514040643N00504151WA0327903515
B1350524040650N00504145WA0327703514
B1350534040657N00504138WA0327603513
B1350544040664N00504133WA0327603512
B1350554040671N00504127WA0327503512
B1350564040678N00504122WA0327403511
B1350574040684N00504117WA0327303510
B1350584040691N00504113WA0327103508
B1350594040698N00504109WA0326903506
B1351004040706N00504104WA0326703504
B1351014040714N00504100WA0326503502
B1351024040722N00504095WA0326303499
B1351034040730N00504090WA0326103497
B1351044040738N00504085WA0325803494
B1351054040746N00504080WA0325603492
B1351064040754N00504074WA0325403489
B1351074040762N00504069WA0325203488
B1351084040770N00504064WA0325103486
B1351094040778N00504059WA0325003485
B1351104040787N00504055WA0324903484
B1351114040795N00504050WA0324703482
B1351124040804N00504046WA0324403480
B1351134040813N00504041WA0324003478
B1351144040821N00504036WA0323903476
B1351154040830N00504031WA0323703474
B1351164040838N00504027WA0323603471
B1351174040847N00504022WA0323303469
B1351184040856N00504017WA0323203467
B1351194040864N00504012WA0323103467
B1351204040872N00504007WA0323103467
B1351214040879N00504003WA0323003467
B1351224040886N00503999WA0322903466
B1351234040893N00503995WA0322603464
B1351244040901N00503991WA0322203460
B1351254040909N00503987WA0321903456
B1351264040916N00503982WA0321703453
B1351274040924N00503976WA0321503451
B1351284040932N00503970WA0321403450
B1351294040939N00503965WA0321303450
B1351304040946N00503961WA0321203448
B1351314040953N00503956WA0321003447
B1351324040959N00503951WA0320803444
B1351334040966N00503945WA0320603442
B1351344040973N00503940WA0320403440
B1351354040980N00503935WA0320203438
B1351364040987N00503929WA0320003436
B1351374040994N00503924WA0319803434
B1351384041001N00503919WA0319703432
B1351394041008N00503913WA0319403430
B1351404041015N00503908WA0319103428
B1351414041022N00503903WA0319003426
B1351424041029N00503898WA0318803423
B1351434041037N00503892WA0318603421
B1351444041044N00503888WA0318503420
B1351454041051N00503884WA0318503419
B1351464041057N00503882WA0318403418
B1351474041063N00503880WA0318103416
B1351484041068N00503877WA0317803413
B1351494041075N00503873WA0317503410
B1351504041082N00503869WA0317303406
B1351514041089N00503864WA0317103404
B1351524041096N00503859WA0317003402
B1351534041103N00503855WA0316903401
B1351544041110N00503850WA0316703400
B1351554041116N00503845WA0316503399
B1351564041122N00503840WA0316303397
B1351574041128N00503835WA0316103394
B1351584041135N00503830WA0315903392
B1351594041142N00503825WA0315803390
B1352004041149N00503820WA0315403387
B1352014041156N00503814WA0315203385
B1352024041163N00503808WA0315103383
B1352034041170N00503803WA0314903382
B1352044041177N00503798WA0314703380
B1352054041183N00503793WA0314603378
B1352064041190N00503788WA0314303375
B1352074041197N00503783WA0314103372
B1352084041205N00503778WA0313903370
B1352094041213N00503773WA0313903371
B1352104041219N00503768WA0313803371
B1352114041226N00503763WA0313603370
B1352124041231N00503759WA0313303368
B1352134041237N00503754WA0313003366
B1352144041242N00503748WA0312603364
B1352154041248N00503743WA0312103361
B1352164041254N00503737WA0311903357
B1352174041259N00503730WA0311503354
B1352184041265N00503724WA0311303350
B1352194041270N00503717WA0310903347
B1352204041275N00503711WA0310503344
B1352214041281N00503706WA0310103340
B1352224041287N00503701WA0309703336
B1352234041293N00503696WA0309403332
B1352244041300N00503691WA0309103329
B1352254041306N00503687WA0308703325
B1352264041312N00503683WA0308403321
B1352274041318N00503678WA0308103318
B1352284041324N00503674WA0307703315
B1352294041329N00503669WA0307403311
B1352304041335N00503664WA0307103307
B1352314041341N00503658WA0306903304
B1352324041346N00503653WA0306603302
B1352334041352N00503650WA0306403300
B1352344041357N00503646WA0306103296
B1352354041363N00503642WA0305903293
B1352364041368N00503638WA0305603290
B1352374041373N00503635WA0305403288
B1352384041379N00503631WA0305103283
B1352394041385N00503628WA0304703280
B1352404041390N00503624WA0304403276
B1352414041397N00503620WA0304003272
B1352424041403N00503616WA0303803269
B1352434041410N00503611WA0303703267
B1352444041416N00503606WA0303403265
B1352454041422N00503601WA0303303264
B1352464041428N00503595WA0303203261
B1352474041434N00503589WA0303003259
B1352484041440N00503583WA0302803257
B1352494041447N00503576WA0302803257
B1352504041453N00503571WA0303103258
B1352514041459N00503566WA0303503262
B1352524041465N00503563WA0303903266
B1352534041470N00503560WA0304103270
B1352544041475N00503558WA0304303273
B1352554041480N00503555WA0304303276
B1352564041486N00503552WA0304503279
B1352574041492N00503548WA0304503277
B1352584041498N00503543WA0304603279
B1352594041503N00503537WA0304903280
B1353004041507N00503531WA0305103282
B1353014041510N00503523WA0305303285
B1353024041512N00503515WA0305703287
B1353034041513N00503508WA0305803290
B1353044041512N00503500WA0306103292
B1353054041510N00503493WA0306303295
B1353064041507N00503487WA0306503297
B1353074041504N00503481WA0306703300
B1353084041501N00503477WA0306803301
B1353094041496N00503474WA0307003301
B1353104041491N00503473WA0307103301
B1353114041484N00503474WA0307503305
B1353124041478N00503476WA0307903308
B1353134041473N00503480WA0308503310
B1353144041470N00503484WA0308703313
B1353154041469N00503489WA0308703314
B1353164041469N00503493WA0308603315
B1353174041472N00503500WA0308603315
B1353184041476N00503507WA0308603316
B1353194041482N00503514WA0308703317
B1353204041488N00503518WA0309003320
B1353214041496N00503521WA0309203323
B1353224041503N00503523WA0309403326
B1353234041510N00503523WA0309603328
B1353244041516N00503521WA0309803330
B1353254041522N00503518WA0309903332
B1353264041527N00503513WA0310303334
B1353274041531N00503506WA0310503336
B1353284041533N00503498WA0310703338
B1353294041535N00503491WA0310803340
B1353304041534N00503484WA0310903341
B1353314041531N00503478WA0310803342
B1353324041527N00503473WA0310903343
B1353334041522N00503469WA0311103344
B1353344041516N00503467WA0311303346
B1353354041510N00503466WA0311403348
B1353364041505N00503465WA0311603350
B1353374041499N00503466WA0311703351
B1353384041495N00503468WA0311903353
B1353394041491N00503472WA0312003354
B1353404041489N00503477WA0312103356
B1353414041488N00503482WA0312103357
B1353424041487N00503488WA0312103358
B1353434041488N00503495WA0312003358
B1353444041490N00503503WA0312003358
B1353454041494N00503511WA0312103359
B1353464041498N00503518WA0312303361
B1353474041502N00503525WA0312403363
B1353484041507N00503531WA0312603364
B1353494041513N00503536WA0312803366
B1353504041519N00503540WA0313103368
B1353514041526N00503544WA0313203370
B1353524041534N00503547WA0313603372
B1353534041541N00503550WA0313703375
B1353544041547N00503553WA0313803377
B1353554041553N00503555WA0314003378
B1353564041559N00503556WA0314003379
B1353574041565N00503556WA0314003380
B1353584041571N00503554WA0314103380
B1353594041577N00503552WA0314203381
B1354004041582N00503549WA0314303381
B1354014041587N00503544WA0314403383
B1354024041592N00503539WA0314503384
B1354034041596N00503533WA0314703385
B1354044041600N00503526WA0314803387
B1354054041603N00503520WA0315003388
B1354064041605N00503512WA0315103390
B1354074041607N00503505WA0315303392
B1354084041608N00503498WA0315403393
B1354094041610N00503491WA0315403394
B1354104041610N00503484WA0315503394
B1354114041611N00503477WA0315603395
B1354124041611N00503469WA0315703396
B1354134041611N00503461WA0315803397
B1354144041610N00503454WA0316003399
B1354154041610N00503447WA0316203400
B1354164041609N00503440WA0316303402
B1354174041608N00503432WA0316503403
B1354184041607N00503423WA0316503404
B1354194041607N00503415WA0316703406
B1354204041607N00503406WA0316803407
B1354214041607N00503399WA0317003409
B1354224041606N00503391WA0316903409
B1354234041606N00503384WA0316903409
B1354244041607N00503376WA0316903409
B1354254041608N00503367WA0317003409
B1354264041610N00503359WA0317203410
B1354274041611N00503350WA0317503413
B1354284041612N00503342WA0317803416
B1354294041612N00503334WA0317903419
B1354304041612N00503328WA0318003420
B1354314041613N00503321WA0318203421
B1354324041614N00503313WA0318303421
B1354334041617N00503306WA0318403423
B1354344041620N00503299WA0318703424
B1354354041623N00503293WA0319003428
B1354364041626N00503287WA0319303431
B1354374041629N00503281WA0319603433
B1354384041631N00503274WA0319903436
B1354394041634N00503267WA0320103439
B1354404041637N00503260WA0320403441
B1354414041640N00503254WA0320603444
B1354424041644N00503248WA0320803446
B1354434041649N00503243WA0321003448
B1354444041655N00503239WA0321403450
B1354454041661N00503236WA0321703454
B1354464041667N00503236WA0322103457
B1354474041672N00503238WA0322403460
B1354484041676N00503241WA0322603463
B1354494041680N00503245WA0322903466
B1354504041683N00503251WA0323203469
B1354514041683N00503258WA0323403472
B1354524041681N00503264WA0323703475
B1354534041677N00503268WA0324003474
B1354544041672N00503269WA0324403477
B1354554041668N00503266WA0324703480
B1354564041665N00503261WA0324803482
B1354574041662N00503254WA0324903483
B1354584041661N00503246WA0325103484
B1354594041661N00503237WA0325303486
B1355004041661N00503227WA0325503492
B1355014041662N00503218WA0325903496
B1355024041664N00503210WA0326303499
B1355034041668N00503202WA0326603503
B1355044041672N00503196WA0327003506
B1355054041677N00503191WA0327303509
B1355064041682N00503188WA0327503512
B1355074041689N00503187WA0327803515
B1355084041695N00503190WA0328203518
B1355094041700N00503196WA0328503522
B1355104041703N00503203WA0328903525
B1355114041705N00503209WA0329303530
B1355124041705N00503215WA0329703534
B1355134041704N00503221WA0330003538
B1355144041702N00503226WA0330403542
B1355154041698N00503230WA0330703546
B1355164041693N00503232WA0331103550
B1355174041689N00503232WA0331403554
B1355184041686N00503229WA0331803558
B1355194041682N00503226WA0331803561
B1355204041679N00503220WA0332003561
B1355214041675N00503215WA0332103562
B1355224041672N00503208WA0332203564
B1355234041670N00503200WA0332503567
B1355244041668N00503192WA0332903569
B1355254041668N00503183WA0333103572
B1355264041667N00503174WA0333503574
B1355274041666N00503164WA0333703577
B1355284041667N00503155WA0334003581
B1355294041669N00503147WA0334203584
B1355304041672N00503139WA0334503587
B1355314041675N00503132WA0334703590
B1355324041678N00503124WA0335303594
B1355334041681N00503117WA0335703597
B1355344041686N00503110WA0335703600
B1355354041691N00503106WA0335703602
B1355364041697N00503104WA0335703603
B1355374041703N00503103WA0335603602
B1355384041709N00503102WA0335703601
B1355394041716N00503102WA0335903603
B1355404041722N00503102WA0336103605
B1355414041727N00503103WA0336103606
B1355424041732N00503103WA0336403608
B1355434041737N00503104WA0336503609
B1355444041742N00503104WA0336603610
B1355454041748N00503105WA0336603610
B1355464041755N00503106WA0336803609
B1355474041761N00503107WA0336803611
B1355484041768N00503108WA0337103614
B1355494041774N00503110WA0337403617
B1355504041780N00503110WA0337703620
B1355514041785N00503110WA0338003623
B1355524041790N00503108WA0338003625
B1355534041796N00503107WA0338203626
B1355544041803N00503106WA0338303626
B1355554041810N00503105WA0338403628
B1355564041816N00503103WA0338503629
B1355574041822N00503099WA0338303628
B1355584041828N00503095WA0338203628
B1355594041835N00503091WA0338003625
B1356004041842N00503088WA0337803624
B1356014041848N00503085WA0337903625
B1356024041853N00503082WA0338003626
B1356034041858N00503078WA0337803625
B1356044041862N00503074WA0337603624
B1356054041866N00503070WA0337603623
B1356064041872N00503065WA0337503621
B1356074041879N00503061WA0337303620
B1356084041885N00503056WA0337403620
B1356094041890N00503051WA0337303619
B1356104041896N00503047WA0337203618
B1356114041900N00503042WA0336903617
B1356124041906N00503037WA0336603615
B1356134041911N00503031WA0336203612
B1356144041917N00503025WA0335903610
B1356154041923N00503020WA0335603607
B1356164041929N00503014WA0335203604
B1356174041935N00503008WA0334903601
B1356184041941N00503002WA0334603596
B1356194041947N00502996WA0334303594
B1356204041953N00502992WA0334003591
B1356214041959N00502987WA0333503588
B1356224041964N00502983WA0333003583
B1356234041970N00502978WA0332503576
B1356244041976N00502973WA0332203572
B1356254041982N00502968WA0331703569
B1356264041988N00502964WA0331303565
B1356274041994N00502961WA0330803560
B1356284042000N00502957WA0330503555
B1356294042006N00502953WA0330303552
B1356304042012N00502947WA0330203549
B1356314042018N00502941WA0330103548
B1356324042023N00502936WA0329903547
B1356334042027N00502929WA0329703545
B1356344042032N00502923WA0329603543
B1356354042038N00502916WA0329503542
B1356364042043N00502911WA0329403541
B1356374042048N00502905WA0329303540
B1356384042054N00502898WA0329103538
B1356394042059N00502891WA0329003537
B1356404042064N00502885WA0328903536
B1356414042069N00502879WA0328703534
B1356424042074N00502873WA0328603532
B1356434042078N00502866WA0328203529
B1356444042083N00502861WA0327903525
B1356454042089N00502855WA0327603522
B1356464042094N00502849WA0327303519
B1356474042100N00502842WA0327003516
B1356484042105N00502836WA0326803513
B1356494042111N00502830WA0326503510
B1356504042116N00502823WA0326303507
B1356514042122N00502817WA0326303505
B1356524042128N00502810WA0326003505
B1356534042133N00502805WA0326003503
B1356544042138N00502800WA0325903503
B1356554042143N00502796WA0325803502
B1356564042147N00502792WA0325703502
B1356574042152N00502789WA0325403500
B1356584042157N00502786WA0325003497
B1356594042161N00502781WA0324603492
B1357004042167N00502776WA0324303487
B1357014042173N00502770WA0324103484
B1357024042178N00502763WA0324103483
B1357034042183N00502757WA0324103483
B1357044042187N00502751WA0324003483
B1357054042191N00502745WA0323903483
B1357064042195N00502740WA0323703482
B1357074042199N00502734WA0323503479
B1357084042203N00502728WA0323203476
B1357094042208N00502721WA0323003474
B1357104042213N00502714WA0322803473
B1357114042218N00502708WA0322803471
B1357124042223N00502701WA0322703470
B1357134042227N00502696WA0322503468
B1357144042232N00502689WA0322303466
B1357154042236N00502682WA0322203463
B1357164042240N00502675WA0322003462
B1357174042244N00502668WA0321903461
B1357184042248N00502662WA0321903460
B1357194042252N00502655WA0321703459
B1357204042256N00502648WA0321503458
B1357214042260N00502642WA0321503457
B1357224042265N00502636WA0321403455
B1357234042270N00502629WA0321203453
B1357244042275N00502622WA0321003450
B1357254042280N00502615WA0320703447
B1357264042285N00502607WA0320603446
B1357274042291N00502598WA0320603445
B1357284042296N00502591WA0320603446
B1357294042301N00502584WA0320603446
B1357304042306N00502578WA0320603446
B1357314042311N00502572WA0320503444
B1357324042317N00502566WA0320403444
B1357334042323N00502560WA0320403443
B1357344042329N00502555WA0320303442
B1357354042335N00502549WA0320303442
B1357364042341N00502544WA0320103442
B1357374042347N00502538WA0320103442
B1357384042352N00502532WA0319903439
B1357394042358N00502526WA0319903437
B1357404042363N00502520WA0319703436
B1357414042369N00502513WA0319603436
B1357424042374N00502507WA0319703436
B1357434042379N00502501WA0319603435
B1357444042385N00502495WA0319403434
B1357454042390N00502489WA0319403433
B1357464042396N00502482WA0319303432
B1357474042401N00502476WA0319103431
B1357484042407N00502469WA0319003431
B1357494042412N00502462WA0319103430
B1357504042418N00502456WA0319003430
B1357514042424N00502450WA0318903428
B1357524042430N00502444WA0318803427
B1357534042436N00502437WA0318703425
B1357544042442N00502430WA0318603424
B1357554042448N00502423WA0318603424
B1357564042453N00502417WA0318603425
B1357574042458N00502411WA0318603425
B1357584042463N00502404WA0318503424
B1357594042468N00502398WA0318303424
B1358004042472N00502391WA0318103423
B1358014042476N00502385WA0317803418
B1358024042480N00502378WA0317603416
B1358034042484N00502370WA0317503414
B1358044042488N00502363WA0317403413
B1358054042493N00502356WA0317203411
B1358064042497N00502349WA0317003410
B1358074042501N00502342WA0316803408
B1358084042504N00502334WA0316503406
B1358094042508N00502326WA0316303403
B1358104042512N00502318WA0316103400
B1358114042516N00502309WA0315903398
B1358124042520N00502301WA0315803396
B1358134042524N00502293WA0315703395
B1358144042529N00502286WA0315603394
B1358154042536N00502277WA0315503392
B1358164042539N00502273WA0315403392
B1358174042544N00502267WA0315203390
B1358184042550N00502261WA0315103388
B1358194042555N00502255WA0315103388
B1358204042561N00502250WA0315003387
B1358214042568N00502244WA0314903386
B1358224042575N00502240WA0314803385
B1358234042581N00502237WA0314903385
B1358244042587N00502234WA0314903385
B1358254042592N00502232WA0314803385
B1358264042596N00502229WA0314603385
B1358274042601N00502226WA0314403383
B1358284042606N00502222WA0314103380
B1358294042610N00502218WA0313803377
B1358304042615N00502213WA0313603375
B1358314042620N00502208WA0313503374
B1358324042625N00502204WA0313403373
B1358334042630N00502200WA0313103371
B1358344042635N00502196WA0313003369
B1358354042640N00502191WA0312703367
B1358364042645N00502186WA0312303362
B1358374042650N00502181WA0312103360
B1358384042655N00502176WA0311903357
B1358394042660N00502171WA0311503354
B1358404042666N00502167WA0311403351
B1358414042671N00502163WA0311103349
B1358424042676N00502158WA0311003346
B1358434042681N00502153WA0310703345
B1358444042686N00502148WA0310603344
B1358454042691N00502143WA0310503343
B1358464042695N00502137WA0310503342
B1358474042699N00502132WA0310303341
B1358484042703N00502126WA0310103339
B1358494042707N00502120WA0309903337
B1358504042711N00502115WA0309803335
B1358514042715N00502108WA0309703333
B1358524042719N00502101WA0309403331
B1358534042722N00502093WA0309303330
B1358544042725N00502086WA0309203328
B1358554042728N00502078WA0309003327
B1358564042731N00502071WA0309003326
B1358574042733N00502064WA0308703325
B1358584042736N00502058WA0308603323
B1358594042738N00502053WA0308403321
B1359004042742N00502047WA0308103318
B1359014042745N00502040WA0307803316
B1359024042749N00502033WA0307603311
B1359034042753N00502025WA0307303308
B1359044042757N00502016WA0307103306
B1359054042761N00502008WA0307003305
B1359064042764N00502000WA0306903304
B1359074042767N00501993WA0306903303
B1359084042769N00501985WA0306803302
B1359094042771N00501978WA0306803301
B1359104042774N00501970WA0306703301
B1359114042776N00501962WA0306703300
B1359124042779N00501954WA0306803302
B1359134042782N00501947WA0306803302
B1359144042785N00501940WA0306703302
B1359154042788N00501933WA0306703302
B1359164042791N00501926WA0306603301
B1359174042795N00501920WA0306503300
B1359184042799N00501914WA0306303298
B1359194042804N00501908WA0306203297
B1359204042808N00501901WA0306203296
B1359214042813N00501894WA0306303296
B1359224042817N00501887WA0306403296
B1359234042821N00501882WA0306503296
B1359244042825N00501876WA0306503297
B1359254042828N00501870WA0306503297
B1359264042831N00501863WA0306603297
B1359274042833N00501855WA0306603297
B1359284042836N00501848WA0306703297
B1359294042838N00501841WA0306803299
B1359304042840N00501834WA0306903300
B1359314042842N00501828WA0307003301
B1359324042843N00501821WA0306903300
B1359334042844N00501814WA0306903300
B1359344042845N00501806WA0306903300
B1359354042845N00501799WA0306903300
B1359364042845N00501792WA0306903301
B1359374042845N00501785WA0307003300
B1359384042846N00501777WA0307003300
B1359394042847N00501771WA0307003301
B1359404042850N00501765WA0307103301
B1359414042853N00501760WA0307103301
B1359424042857N00501755WA0307103301
B1359434042860N00501749WA0307103301
B1359444042863N00501743WA0307003301
B1359454042866N00501736WA0306903300
B1359464042869N00501730WA0306803298
B1359474042872N00501723WA0306503297
B1359484042876N00501716WA0306503296
B1359494042881N00501711WA0306403294
B1359504042885N00501705WA0306303293
B1359514042889N00501699WA0306103292
B1359524042894N00501692WA0306003290
B1359534042898N00501686WA0305803290
B1359544042901N00501681WA0305903289
B1359554042905N00501677WA0305803289
B1359564042909N00501673WA0305703288
B1359574042913N00501670WA0305503287
B1359584042916N00501667WA0305303284
B1359594042919N00501662WA0305203282
B1400004042921N00501656WA0305103281
B1400014042923N00501650WA0305003279
B1400024042924N00501644WA0304803278
B1400034042924N00501638WA0304603277
B1400044042924N00501631WA0304403275
B1400054042924N00501625WA0304303273
B1400064042924N00501618WA0304103272
B1400074042926N00501611WA0304003270
B1400084042928N00501605WA0303903271
B1400094042930N00501599WA0303803270
B1400104042932N00501594WA0303703269
B1400114042935N00501589WA0303503267
B1400124042937N00501585WA0303403265
B1400134042940N00501580WA0303203263
B1400144042944N00501575WA0303003261
B1400154042948N00501570WA0302903259
B1400164042952N00501566WA0302703257
B1400174042956N00501561WA0302603255
B1400184042960N00501557WA0302603254
B1400194042965N00501553WA0302403253
B1400204042968N00501548WA0302403252
B1400214042972N00501542WA0302303252
B1400224042975N00501537WA0302303251
B1400234042979N00501532WA0302203251
B1400244042982N00501527WA0302003250
B1400254042985N00501521WA0302003249
B1400264042987N00501514WA0301903247
B1400274042990N00501508WA0301703246
B1400284042992N00501501WA0301803247
B1400294042995N00501494WA0301703247
B1400304042997N00501488WA0301703247
B1400314043000N00501482WA0301703246
B1400324043002N00501475WA0301703246
B1400334043004N00501469WA0301703246
B1400344043006N00501464WA0301703247
B1400354043008N00501458WA0301703246
B1400364043010N00501452WA0301603246
B1400374043011N00501446WA0301603246
B1400384043012N00501439WA0301503245
B1400394043013N00501432WA0301503245
B1400404043014N00501424WA0301503245
B1400414043013N00501418WA0301503245
B1400424043013N00501411WA0301403245
B1400434043014N00501405WA0301203238
B1400444043014N00501397WA0301103235
B1400454043014N00501388WA0300903234
B1400464043015N00501379WA0301003234
B1400474043015N00501370WA0301003234
B1400484043015N00501363WA0301003235
B1400494043016N00501355WA0301003235
B1400504043017N00501348WA0300903233
B1400514043018N00501339WA0300903232
B1400524043019N00501330WA0300803231
B1400534043020N00501321WA0300903231
B1400544043021N00501312WA0300903233
B1400554043023N00501303WA0301003234
B1400564043024N00501295WA0300903234
B1400574043025N00501286WA0300803234
B1400584043028N00501278WA0300603232
B1400594043031N00501271WA0300403229
B1401004043035N00501264WA0300203227
B1401014043038N00501257WA0300203226
B1401024043042N00501250WA0300103226
B1401034043044N00501244WA0300003225
B1401044043047N00501237WA0299703223
B1401054043050N00501231WA0299503221
B1401064043054N00501224WA0299103217
B1401074043057N00501217WA0298903214
B1401084043061N00501209WA0298703211
B1401094043065N00501202WA0298503209
B1401104043070N00501194WA0298503208
B1401114043075N00501189WA0298603209
B1401124043079N00501184WA0298503209
B1401134043082N00501180WA0298403208
B1401144043086N00501176WA0298103203
B1401154043090N00501170WA0297903200
B1401164043095N00501165WA0297703198
B1401174043100N00501160WA0297503196
B1401184043105N00501155WA0297303194
B1401194043109N00501152WA0297103192
B1401204043114N00501149WA0297003190
B1401214043118N00501146WA0296803188
B1401224043121N00501143WA0296603186
B1401234043124N00501140WA0296503185
B1401244043128N00501136WA0296303183
B1401254043132N00501133WA0296103181
B1401264043136N00501130WA0295903179
B1401274043141N00501126WA0295803177
B1401284043145N00501123WA0295803176
B1401294043149N00501119WA0295703176
B1401304043153N00501116WA0295603175
B1401314043157N00501112WA0295503174
B1401324043161N00501109WA0295403172
B1401334043166N00501106WA0295203171
B1401344043172N00501103WA0295103169
B1401354043177N00501100WA0294903168
B1401364043183N00501097WA0294803167
B1401374043188N00501094WA0294803166
B1401384043192N00501090WA0294703166
B1401394043197N00501087WA0294503163
B1401404043201N00501082WA0294403162
B1401414043206N00501078WA0294203160
B1401424043211N00501073WA0294103159
B1401434043216N00501068WA0294003158
B1401444043220N00501063WA0293703157
B1401454043224N00501057WA0293703156
B1401464043227N00501052WA0293703155
B1401474043231N00501047WA0293503154
B1401484043234N00501042WA0293403152
B1401494043237N00501036WA0293203151
B1401504043241N00501031WA0293103151
B1401514043244N00501026WA0292903150
B1401524043247N00501021WA0292803149
B1401534043250N00501016WA0292503147
B1401544043253N00501010WA0292103144
B1401554043257N00501004WA0292003141
B1401564043260N00500997WA0291803139
B1401574043264N00500991WA0291803137
B1401584043267N00500985WA0291803137
B1401594043270N00500979WA0291703137
B1402004043273N00500974WA0291603136
B1402014043276N00500968WA0291303134
B1402024043280N00500962WA0291203133
B1402034043283N00500955WA0290803130
B1402044043287N00500947WA0290503128
B1402054043290N00500940WA0290403128
B1402064043294N00500934WA0290203126
B1402074043297N00500929WA0290003124
B1402084043299N00500924WA0289703122
B1402094043302N00500918WA0289303119
B1402104043306N00500913WA0288803116
B1402114043310N00500908WA0288503112
B1402124043316N00500902WA0288503111
B1402134043320N00500897WA0288503111
B1402144043325N00500892WA0288603110
B1402154043329N00500887WA0288403109
B1402164043333N00500882WA0288203107
B1402174043338N00500877WA0288003104
B1402184043343N00500872WA0288003103
B1402194043349N00500867WA0287903102
B1402204043354N00500863WA0287903101
B1402214043359N00500860WA0287803101
B1402224043363N00500857WA0287703100
B1402234043368N00500853WA0287703099
B1402244043372N00500849WA0287403098
B1402254043377N00500845WA0287203096
B1402264043382N00500841WA0287003095
B1402274043388N00500836WA0286603091
B1402284043395N00500832WA0286403088
B1402294043401N00500828WA0286203086
B1402304043408N00500823WA0286003084
B1402314043414N00500819WA0285803082
B1402324043421N00500815WA0285603080
B1402334043428N00500812WA0285403078
B1402344043435N00500809WA0285103075
B1402354043441N00500806WA0284803072
B1402364043448N00500803WA0284503069
B1402374043455N00500800WA0284303066
B1402384043463N00500796WA0284003063
B1402394043470N00500793WA0283803060
B1402404043477N00500789WA0283603058
B1402414043484N00500785WA0283403056
B1402424043491N00500782WA0283103054
B1402434043498N00500778WA0282903051
B1402444043504N00500775WA0282703048
B1402454043511N00500771WA0282303045
B1402464043518N00500767WA0282003041
B1402474043525N00500763WA0281603037
B1402484043531N00500758WA0281303034
B1402494043538N00500754WA0281003031
B1402504043545N00500750WA0280803027
B1402514043552N00500745WA0280503024
B1402524043559N00500740WA0280203021
B1402534043565N00500735WA0280003019
B1402544043572N00500729WA0279903016
B1402554043579N00500724WA0279603015
B1402564043585N00500719WA0279303012
B1402574043592N00500714WA0279103009
B1402584043598N00500709WA0278803006
B1402594043605N00500704WA0278503003
B1403004043612N00500698WA0278103000
B1403014043619N00500693WA0277802996
B1403024043626N00500687WA0277402992
B1403034043633N00500681WA0277202989
B1403044043639N00500676WA0277002987
B1403054043646N00500671WA0276702984
B1403064043652N00500667WA0276502982
B1403074043659N00500662WA0276202979
B1403084043665N00500657WA0275902975
B1403094043671N00500652WA0275702972
B1403104043678N00500646WA0275402969
B1403114043684N00500641WA0275102966
B1403124043691N00500636WA0274802963
B1403134043697N00500630WA0274502960
B1403144043704N00500625WA0274202957
B1403154043711N00500619WA0273802953
B1403164043718N00500613WA0273402949
B1403174043725N00500607WA0273102945
B1403184043732N00500602WA0272802942
B1403194043739N00500596WA0272502939
B1403204043746N00500590WA0272302937
B1403214043753N00500584WA0272002934
B1403224043760N00500578WA0271702930
B1403234043767N00500572WA0271302927
B1403244043774N00500565WA0271002923
B1403254043781N00500560WA0270702919
B1403264043788N00500553WA0270502916
B1403274043795N00500548WA0270302914
B1403284043801N00500543WA0270102912
B1403294043808N00500539WA0269902909
B1403304043814N00500534WA0269502906
B1403314043820N00500529WA0269202902
B1403324043826N00500523WA0268902898
B1403334043833N00500518WA0268602895
B1403344043839N00500512WA0268202892
B1403354043845N00500506WA0267902888
B1403364043851N00500500WA0267702885
B1403374043857N00500494WA0267302881
B1403384043863N00500488WA0267002879
B1403394043869N00500482WA0266902877
B1403404043875N00500478WA0266602873
B1403414043881N00500473WA0266402869
B1403424043887N00500469WA0265902865
B1403434043894N00500465WA0265402861
B1403444043902N00500462WA0265202858
B1403454043909N00500459WA0264902854
B1403464043916N00500456WA0264702851
B1403474043923N00500452WA0264302847
B1403484043931N00500449WA0263902844
B1403494043938N00500446WA0263602841
B1403504043946N00500443WA0263102838
B1403514043953N00500439WA0263102835
B1403524043960N00500436WA0262802832
B1403534043968N00500432WA0262602829
B1403544043975N00500428WA0262402827
B1403554043983N00500424WA0262202826
B1403564043990N00500420WA0262102826
B1403574043995N00500417WA0261902825
B1403584043999N00500413WA0261602823
B1403594044004N00500408WA0261302820
B1404004044010N00500403WA0260802817
B1404014044016N00500399WA0260302811
B1404024044023N00500393WA0260002807
B1404034044029N00500387WA0259602803
B1404044044040N00500378WA0259302798
B1404064044049N00500370WA0259102798
B1404064044052N00500368WA0259102797
B1404074044054N00500365WA0259002797
B1404084044062N00500358WA0258802794
B1404094044064N00500355WA0258602792
B1404104044069N00500349WA0258302788
B1404114044075N00500343WA0257902784
B1404124044081N00500336WA0257702780
B1404134044086N00500330WA0257502778
B1404144044092N00500324WA0257302776
B1404154044097N00500318WA0257102774
B1404164044102N00500312WA0256802771
B1404174044107N00500306WA0256502768
B1404184044113N00500300WA0256202765
B1404194044118N00500293WA0256102763
B1404204044123N00500287WA0256002764
B1404214044126N00500282WA0256002764
B1404224044129N00500277WA0255902762
B1404234044131N00500273WA0255602761
B1404244044134N00500268WA0255302756
B1404254044138N00500263WA0255002752
B1404264044143N00500259WA0254602748
B1404274044148N00500255WA0254502745
B1404284044154N00500251WA0254402743
B1404294044160N00500248WA0254202741
B1404304044165N00500245WA0254002740
B1404314044170N00500244WA0253702738
B1404324044174N00500242WA0253302736
B1404334044179N00500241WA0252902732
B1404344044184N00500239WA0252502726
B1404354044190N00500236WA0251902722
B1404364044197N00500234WA0251402715
B1404374044203N00500231WA0251002710
B1404384044209N00500227WA0250502704
B1404394044215N00500223WA0250002700
B1404404044220N00500220WA0249702696
B1404414044225N00500216WA0249102691
B1404424044228N00500212WA0248502685
B1404434044232N00500208WA0248002679
B1404444044235N00500203WA0247402672
B1404454044238N00500198WA0247002667
B1404464044241N00500191WA0246402662
B1404474044243N00500185WA0246102659
B1404484044245N00500180WA0245802655
B1404494044248N00500174WA0245402651
B1404504044250N00500169WA0245002646
B1404514044252N00500164WA0244602642
B1404524044256N00500159WA0244502638
B1404534044260N00500154WA0244502634
B1404544044263N00500149WA0244502633
B1404554044267N00500145WA0244402634
B1404564044270N00500141WA0244302633
B1404574044273N00500136WA0244202632
B1404584044277N00500131WA0244102630
B1404594044280N00500126WA0244002629
B1405004044284N00500121WA0243902628
B1405014044289N00500116WA0243902627
B1405024044293N00500111WA0243902627
B1405034044297N00500105WA0243902627
B1405044044300N00500100WA0244002627
B1405054044303N00500095WA0243902627
B1405064044305N00500090WA0243902627
B1405074044308N00500085WA0243902627
B1405084044312N00500081WA0244002627
B1405094044316N00500076WA0244202628
B1405104044319N00500070WA0244202629
B1405114044322N00500065WA0244502632
B1405124044325N00500060WA0244902635
B1405134044327N00500055WA0245002637
B1405144044330N00500050WA0245102639
B1405154044332N00500044WA0245102640
B1405164044333N00500037WA0245202641
B1405174044335N00500030WA0245302642
B1405184044337N00500023WA0245402643
B1405194044339N00500017WA0245502645
B1405204044341N00500010WA0245702646
B1405214044342N00500003WA0245702646
B1405224044342N00459995WA0245702647
B1405234044341N00459987WA0245902648
B1405244044339N00459978WA0246102650
B1405254044337N00459970WA0246302652
B1405264044334N00459962WA0246502654
B1405274044330N00459955WA0246702656
B1405284044325N00459950WA0246802658
B1405294044319N00459947WA0246802659
B1405304044312N00459945WA0247402661
B1405314044306N00459944WA0247702664
B1405324044300N00459945WA0247902668
B1405334044295N00459947WA0248002670
B1405344044290N00459952WA0248002673
B1405354044286N00459958WA0247902673
B1405364044287N00459966WA0247902673
B1405374044289N00459975WA0248002673
B1405384044293N00459982WA0248102674
B1405394044299N00459987WA0248202674
B1405404044306N00459989WA0248502675
B1405414044312N00459989WA0248902677
B1405424044317N00459988WA0249102679
B1405434044321N00459986WA0249302681
B1405444044324N00459983WA0249402680
B1405454044328N00459979WA0249402679
B1405464044330N00459973WA0249402678
B1405474044331N00459965WA0249502680
B1405484044331N00459956WA0249602682
B1405494044329N00459949WA0249702684
B1405504044327N00459941WA0249802685
B1405514044324N00459934WA0249802685
B1405524044320N00459927WA0249902686
B1405534044314N00459922WA0249902686
B1405544044307N00459919WA0250002687
B1405554044300N00459917WA0250102688
B1405564044293N00459916WA0250402690
B1405574044287N00459917WA0250702693
B1405584044282N00459920WA0250902696
B1405594044277N00459924WA0251202699
B1406004044273N00459929WA0251402702
B1406014044269N00459935WA0251702705
B1406024044268N00459940WA0251902708
B1406034044268N00459946WA0251902709
B1406044044270N00459952WA0251902709
B1406054044274N00459957WA0251902708
B1406064044280N00459962WA0251902709
B1406074044286N00459964WA0252102711
B1406084044292N00459965WA0252302712
B1406094044298N00459965WA0252602714
B1406104044304N00459964WA0252902716
B1406114044308N00459962WA0253202719
B1406124044310N00459958WA0253202720
B1406134044312N00459952WA0253102721
B1406144044311N00459943WA0253202721
B1406154044308N00459934WA0253302722
B1406164044303N00459928WA0253502724
B1406174044296N00459925WA0253602725
B1406184044289N00459925WA0253702727
B1406194044283N00459929WA0253902728
B1406204044278N00459935WA0254002730
B1406214044276N00459942WA0254102731
B1406224044276N00459949WA0254202732
B1406234044277N00459955WA0254202732
B1406244044280N00459960WA0254202732
B1406254044285N00459964WA0254102731
B1406264044290N00459964WA0254102731
B1406274044295N00459962WA0254202732
B1406284044301N00459959WA0254502733
B1406294044306N00459955WA0254702734
B1406304044309N00459950WA0255002740
B1406314044312N00459945WA0255202743
B1406324044314N00459940WA0255302744
B1406334044315N00459933WA0255402744
B1406344044314N00459925WA0255502745
B1406354044310N00459916WA0255902746
B1406364044304N00459910WA0256202747
B1406374044297N00459907WA0256502750
B1406384044290N00459908WA0256602751
B1406394044284N00459913WA0256702752
B1406404044281N00459921WA0256802753
B1406414044280N00459929WA0257002755
B1406424044282N00459937WA0257102756
B1406434044286N00459942WA0257302758
B1406444044290N00459944WA0257302760
B1406454044295N00459943WA0257502762
B1406464044300N00459940WA0257602764
B1406474044304N00459935WA0257902767
B1406484044308N00459930WA0258202771
B1406494044310N00459923WA0258602778
B1406504044311N00459916WA0258802781
B1406514044311N00459908WA0259002782
B1406524044307N00459900WA0259102784
B1406534044301N00459893WA0259402786
B1406544044293N00459890WA0259602787
B1406554044285N00459891WA0259902790
B1406564044279N00459897WA0260002792
B1406574044274N00459904WA0260202794
B1406584044273N00459913WA0260302795
B1406594044274N00459920WA0260302797
B1407004044277N00459926WA0260502798
B1407014044282N00459929WA0260602800
B1407024044286N00459932WA0260902803
B1407034044290N00459933WA0261202806
B1407044044295N00459933WA0261702811
B1407054044298N00459931WA0262002814
B1407064044301N00459927WA0262202816
B1407074044302N00459922WA0262402818
B1407084044301N00459914WA0262602821
B1407094044298N00459907WA0262702823
B1407104044292N00459899WA0262902825
B1407114044285N00459894WA0263102826
B1407124044277N00459892WA0263402827
B1407134044269N00459894WA0263702830
B1407144044262N00459899WA0263802832
B1407154044258N00459906WA0263902833
B1407164044255N00459913WA0263902833
B1407174044257N00459921WA0264002834
B1407184044260N00459927WA0264002835
B1407194044263N00459932WA0264202837
B1407204044267N00459937WA0264402839
B1407214044272N00459940WA0264502840
B1407224044276N00459943WA0264602841
B1407234044280N00459945WA0264602842
B1407244044284N00459946WA0264702843
B1407254044288N00459946WA0264802844
B1407264044293N00459944WA0264902845
B1407274044298N00459941WA0265102846
B1407284044301N00459937WA0265502848
B1407294044304N00459933WA0266002851
B1407304044307N00459928WA0266402855
B1407314044309N00459924WA0266702860
B1407324044311N00459920WA0267002864
B1407334044312N00459914WA0267202866
B1407344044312N00459907WA0267402867
B1407354044311N00459898WA0267602869
B1407364044307N00459890WA0267902873
B1407374044302N00459883WA0268302876
B1407384044295N00459880WA0268502880
B1407394044288N00459881WA0268802883
B1407404044282N00459886WA0269102884
B1407414044278N00459893WA0269102887
B1407424044276N00459902WA0269602890
B1407434044277N00459909WA0269802893
B1407444044279N00459916WA0270202897
B1407454044282N00459921WA0270602901
B1407464044285N00459925WA0270902904
B1407474044289N00459927WA0271102906
B1407484044294N00459926WA0271502909
B1407494044298N00459924WA0271802912
B1407504044300N00459919WA0272102915
B1407514044301N00459912WA0272302918
B1407524044299N00459903WA0272602921
B1407534044296N00459895WA0272702924
B1407544044290N00459888WA0273002926
B1407554044284N00459884WA0273302930
B1407564044277N00459881WA0273402933
B1407574044269N00459881WA0273802936
B1407584044262N00459884WA0274102939
B1407594044256N00459887WA0274302941
B1408004044251N00459893WA0274402943
B1408014044247N00459900WA0274602944
B1408024044245N00459907WA0274802946
B1408034044244N00459915WA0274802946
B1408044044245N00459923WA0274902948
B1408054044247N00459930WA0275102950
B1408064044250N00459936WA0275202951
B1408074044253N00459940WA0275302953
B1408084044257N00459942WA0275402954
B1408094044261N00459944WA0275502955
B1408104044265N00459945WA0275702957
B1408114044269N00459944WA0275902960
B1408124044274N00459941WA0276102962
B1408134044278N00459938WA0276302964
B1408144044282N00459935WA0276602967
B1408154044286N00459930WA0277002970
B1408164044290N00459923WA0277402974
B1408174044291N00459917WA0277902980
B1408184044292N00459910WA0278202985
B1408194044290N00459902WA0278502990
B1408204044286N00459895WA0278702993
B1408214044280N00459890WA0278902996
B1408224044272N00459887WA0279202999
B1408234044264N00459888WA0279603003
B1408244044258N00459893WA0279903006
B1408254044255N00459900WA0280103008
B1408264044254N00459909WA0280403009
B1408274044257N00459915WA0280703012
B1408284044262N00459918WA0281103016
B1408294044267N00459918WA0281503020
B1408304044271N00459917WA0281903024
B1408314044275N00459915WA0282203029
B1408324044278N00459911WA0282403032
B1408334044279N00459904WA0282603035
B1408344044279N00459895WA0282903038
B1408354044276N00459886WA0283103041
B1408364044270N00459880WA0283403044
B1408374044263N00459876WA0283603045
B1408384044256N00459877WA0283803046
B1408394044249N00459880WA0284003048
B1408404044243N00459886WA0284403051
B1408414044239N00459894WA0284503054
B1408424044236N00459902WA0284903057
B1408434044237N00459909WA0285203060
B1408444044238N00459915WA0285403063
B1408454044241N00459921WA0285603064
B1408464044244N00459924WA0285803067
B1408474044248N00459926WA0286103069
B1408484044253N00459927WA0286203072
B1408494044257N00459927WA0286503075
B1408504044260N00459925WA0286703077
B1408514044263N00459922WA0287003080
B1408524044266N00459917WA0287103083
B1408534044269N00459911WA0287603087
B1408544044270N00459904WA0288003093
B1408554044271N00459898WA0288603098
B1408564044270N00459891WA0289003102
B1408574044267N00459885WA0289003105
B1408584044262N00459879WA0289203107
B1408594044254N00459875WA0289303109
B1409004044246N00459874WA0289503111
B1409014044239N00459876WA0289803114
B1409024044233N00459882WA0290003115
B1409034044228N00459889WA0290203117
B1409044044226N00459898WA0290303119
B1409054044225N00459907WA0290603122
B1409064044226N00459915WA0290803125
B1409074044229N00459923WA0291003127
B1409084044233N00459928WA0291203129
B1409094044237N00459930WA0291403131
B1409104044242N00459931WA0291603134
B1409114044246N00459930WA0291703135
B1409124044250N00459928WA0292003138
B1409134044253N00459925WA0292203140
B1409144044256N00459919WA0292503143
B1409154044258N00459913WA0293003146
B1409164044259N00459907WA0293503150
B1409174044258N00459900WA0293903157
B1409184044257N00459895WA0294303162
B1409194044253N00459889WA0294503166
B1409204044247N00459885WA0294703168
B1409214044239N00459883WA0295103170
B1409224044231N00459884WA0295603175
B1409234044224N00459888WA0295803178
B1409244044218N00459895WA0295903179
B1409254044215N00459904WA0296203180
B1409264044215N00459914WA0296303183
B1409274044217N00459922WA0296503185
B1409284044220N00459928WA0296603187
B1409294044224N00459930WA0296903189
B1409304044228N00459930WA0297003190
B1409314044231N00459927WA0297203192
B1409324044233N00459922WA0297403194
B1409334044232N00459916WA0297703197
B1409344044229N00459908WA0298003200
B1409354044226N00459901WA0298503204
B1409364044222N00459895WA0299003209
B1409374044217N00459890WA0299403215
B1409384044212N00459888WA0299703218
B1409394044205N00459889WA0300103222
B1409404044197N00459892WA0300203225
B1409414044190N00459897WA0300503228
B1409424044185N00459904WA0300603230
B1409434044182N00459911WA0300503229
B1409444044180N00459919WA0300503227
B1409454044181N00459928WA0300403227
B1409464044183N00459936WA0300403226
B1409474044185N00459943WA0300303227
B1409484044189N00459947WA0300203228
B1409494044193N00459950WA0300203227
B1409504044197N00459951WA0300103226
B1409514044201N00459953WA0300103225
B1409524044206N00459953WA0300103225
B1409534044210N00459952WA0300203226
B1409544044214N00459950WA0300403228
B1409554044219N00459949WA0300703230
B1409564044224N00459949WA0301003233
B1409584044233N00459953WA0301703240
B1409584044235N00459954WA0301903242
B1409594044237N00459956WA0302003243
B1410004044242N00459959WA0302303247
B1410024044250N00459962WA0302903254
B1410024044252N00459962WA0303003256
B1410034044254N00459961WA0303103257
B1410044044258N00459958WA0303103259
B1410054044262N00459953WA0303403260
B1410064044264N00459947WA0303503262
B1410074044266N00459939WA0303803265
B1410084044265N00459931WA0304103268
B1410094044263N00459924WA0304403271
B1410104044258N00459919WA0304503273
B1410114044252N00459918WA0304703274
B1410124044246N00459920WA0304803276
B1410134044241N00459926WA0305103278
B1410144044237N00459933WA0305403281
B1410154044235N00459942WA0305703284
B1410164044235N00459951WA0306003287
B1410174044236N00459959WA0306203289
B1410184044240N00459967WA0306403291
B1410194044244N00459973WA0306703293
B1410204044250N00459977WA0306903295
B1410214044256N00459979WA0307003297
B1410224044261N00459977WA0307303299
B1410234044265N00459973WA0307403301
B1410244044267N00459966WA0307403303
B1410254044267N00459959WA0307503304
B1410264044266N00459952WA0307703306
B1410274044263N00459946WA0307903307
B1410284044258N00459941WA0308103310
B1410294044253N00459938WA0308203311
B1410304044248N00459938WA0308403313
B1410314044242N00459940WA0308503314
B1410324044236N00459944WA0309003318
B1410334044231N00459949WA0309303322
B1410344044227N00459956WA0309603326
B1410354044224N00459963WA0310003329
B1410364044222N00459971WA0310103333
B1410374044222N00459980WA0310303336
B1410384044224N00459989WA0310303338
B1410394044228N00459998WA0310603339
B1410404044232N00500007WA0310803342
B1410414044236N00500016WA0311203345
B1410424044241N00500022WA0311503349
B1410434044244N00500027WA0311703352
B1410444044248N00500030WA0311803355
B1410454044251N00500032WA0311903357
B1410464044255N00500034WA0312103358
B1410474044260N00500035WA0312203358
B1410484044264N00500034WA0312403360
B1410494044266N00500032WA0312503361
B1410504044268N00500029WA0312603362
B1410514044269N00500024WA0312603362
B1410524044270N00500019WA0312803364
B1410534044270N00500014WA0312903366
B1410544044270N00500008WA0313003367
B1410554044269N00500002WA0313103367
B1410564044267N00459996WA0313303368
B1410574044265N00459989WA0313503370
B1410584044262N00459982WA0313703372
B1410594044259N00459975WA0313703374
B1411004044256N00459970WA0313803375
B1411014044253N00459965WA0313903376
B1411024044249N00459961WA0313903376
B1411034044244N00459956WA0313903376
B1411044044239N00459952WA0314003376
B1411054044234N00459947WA0314103377
B1411064044229N00459943WA0314203378
B1411074044223N00459940WA0314303380
B1411084044218N00459937WA0314603382
B1411094044212N00459934WA0314703384
B1411104044207N00459933WA0315003386
B1411114044203N00459931WA0315103388
B1411124044198N00459928WA0315303389
B1411134044193N00459925WA0315503392
B1411144044188N00459922WA0316003394
B1411154044183N00459919WA0316203398
B1411164044178N00459917WA0316503400
B1411174044173N00459918WA0316603402
B1411184044168N00459923WA0316603403
B1411194044165N00459931WA0316803405
B1411204044163N00459940WA0316903407
B1411214044163N00459949WA0317203409
B1411224044166N00459956WA0317403412
B1411254044180N00459971WA0318003417
B1411254044183N00459973WA0318103418
B1411264044186N00459974WA0318203419
B1411274044195N00459974WA0318603425
B1411284044200N00459972WA0318803428
B1411294044202N00459971WA0318903429
B1411304044204N00459965WA0319003432
B1411314044204N00459959WA0319003434
B1411324044204N00459954WA0319103435
B1411334044203N00459948WA0319103435
B1411344044200N00459942WA0319203435
B1411354044197N00459937WA0319203436
B1411364044193N00459932WA0319403437
B1411374044189N00459928WA0319503439
B1411384044184N00459926WA0319603440
B1411394044178N00459926WA0319603440
B1411404044173N00459928WA0319803441
B1411414044167N00459930WA0320003443
B1411424044162N00459932WA0320203445
B1411434044156N00459936WA0320403447
B1411444044152N00459940WA0320603449
B1411454044148N00459944WA0320803451
B1411464044145N00459949WA0320803452
B1411474044143N00459956WA0320803452
B1411484044142N00459963WA0320803452
B1411494044142N00459971WA0320703451
B1411504044143N00459979WA0320803451
B1411514044145N00459987WA0320803452
B1411524044148N00459994WA0320803452
B1411534044152N00500000WA0321003453
B1411544044157N00500007WA0321203454
B1411554044161N00500012WA0321403457
B1411564044166N00500015WA0321503458
B1411574044170N00500017WA0321403460
B1411584044175N00500016WA0321403460
B1411594044180N00500015WA0321403458
B1412004044185N00500014WA0321503458
B1412014044191N00500015WA0321603459
B1412024044196N00500017WA0321703460
B1412034044200N00500020WA0321703462
B1412044044204N00500024WA0321903463
B1412054044209N00500026WA0321903463
B1412064044213N00500026WA0321903463
B1412074044217N00500022WA0321903462
B1412084044220N00500017WA0321903461
B1412094044220N00500010WA0321803460
B1412104044217N00500003WA0321603459
B1412114044213N00459997WA0321503458
B1412124044207N00459992WA0321303457
B1412134044200N00459991WA0321203456
B1412144044193N00459994WA0321003454
B1412154044187N00459999WA0321003452
B1412164044182N00500006WA0320903451
B1412174044179N00500013WA0320803449
B1412184044178N00500020WA0320703448
B1412194044179N00500028WA0320603447
B1412204044180N00500036WA0320503447
B1412214044182N00500043WA0320603447
B1412224044186N00500051WA0320603446
B1412234044189N00500058WA0320603446
B1412244044193N00500065WA0320803448
B1412254044197N00500070WA0320803449
B1412264044201N00500075WA0320703449
B1412274044206N00500078WA0320703448
B1412284044210N00500082WA0320703447
B1412294044216N00500086WA0320603445
B1412304044221N00500090WA0320603446
B1412314044227N00500093WA0320803447
B1412324044232N00500096WA0321003449
B1412334044236N00500099WA0321003450
B1412344044240N00500102WA0320903450
B1412354044244N00500105WA0320703450
B1412364044247N00500110WA0320403447
B1412374044251N00500115WA0320003443
B1412384044256N00500120WA0319703440
B1412394044260N00500125WA0319403437
B1412404044265N00500130WA0319103434
B1412414044270N00500134WA0318903432
B1412424044275N00500138WA0318703429
B1412434044280N00500143WA0318603428
B1412444044286N00500148WA0318603428
B1412454044290N00500154WA0318603429
B1412464044294N00500160WA0318603429
B1412474044297N00500166WA0318603428
B1412484044300N00500171WA0318403427
B1412494044303N00500176WA0318303426
B1412504044307N00500181WA0318103422
B1412514044312N00500186WA0318003420
B1412524044318N00500192WA0317903418
B1412534044323N00500198WA0318003418
B1412544044328N00500205WA0318103419
B1412554044333N00500212WA0318203420
B1412564044338N00500218WA0318303421
B1412574044343N00500223WA0318303421
B1412584044349N00500227WA0318503422
B1412594044356N00500231WA0318603423
B1413004044363N00500234WA0318903426
B1413014044370N00500238WA0319003428
B1413024044375N00500242WA0319303431
B1413034044381N00500245WA0319403433
B1413044044387N00500244WA0319303434
B1413054044393N00500240WA0319303433
B1413064044398N00500234WA0319203434
B1413074044401N00500228WA0319403435
B1413084044403N00500222WA0319503436
B1413094044405N00500216WA0319603437
B1413104044407N00500211WA0319603438
B1413114044409N00500207WA0319403435
B1413124044412N00500202WA0319203435
B1413134044415N00500196WA0319103434
B1413144044419N00500190WA0319103434
B1413154044423N00500183WA0319103434
B1413164044426N00500178WA0319203435
B1413174044430N00500173WA0319303435
B1413184044434N00500169WA0319303436
B1413194044439N00500164WA0319603437
B1413204044444N00500159WA0319803439
B1413214044448N00500154WA0320003441
B1413224044451N00500149WA0320303444
B1413234044455N00500144WA0320403445
B1413244044458N00500139WA0320403445
B1413254044461N00500135WA0320403446
B1413264044464N00500130WA0320403446
B1413274044467N00500124WA0320503445
B1413284044472N00500118WA0320403445
B1413294044476N00500111WA0320503445
B1413304044479N00500103WA0320703447
B1413314044481N00500095WA0320903450
B1413324044483N00500089WA0321003452
B1413334044485N00500083WA0321003453
B1413344044488N00500078WA0320903453
B1413354044491N00500073WA0320803453
B1413364044494N00500067WA0320703452
B1413374044498N00500060WA0320703451
B1413384044502N00500053WA0320703450
B1413394044505N00500047WA0320803451
B1413404044509N00500042WA0320803451
B1413414044513N00500036WA0320903452
B1413424044517N00500032WA0321103454
B1413434044521N00500027WA0321303456
B1413444044525N00500024WA0321503457
B1413454044529N00500020WA0321403457
B1413464044533N00500017WA0321403457
B1413474044538N00500014WA0321403456
B1413484044543N00500011WA0321403456
B1413494044548N00500009WA0321403457
B1413504044553N00500006WA0321403457
B1413514044558N00500003WA0321403457
B1413524044562N00500000WA0321303457
B1413534044567N00459998WA0321203456
B1413544044572N00459995WA0321103455
B1413554044577N00459992WA0320903453
B1413564044583N00459988WA0320803452
B1413574044588N00459985WA0320803451
B1413584044592N00459981WA0320803450
B1413594044597N00459978WA0320603449
B1414004044602N00459976WA0320403447
B1414014044607N00459975WA0320203445
B1414024044612N00459973WA0320103444
B1414034044617N00459971WA0320103443
B1414044044622N00459969WA0320103442
B1414054044626N00459966WA0320103442
B1414064044630N00459965WA0320103442
B1414074044633N00459963WA0320103441
B1414084044637N00459962WA0320003440
B1414094044640N00459960WA0320003439
B1414104044644N00459958WA0320003439
B1414114044647N00459955WA0319803438
B1414124044650N00459952WA0319703437
B1414134044654N00459949WA0319603435
B1414144044658N00459947WA0319503433
B1414154044662N00459945WA0319403432
B1414164044665N00459942WA0319403432
B1414174044668N00459938WA0319303431
B1414184044671N00459934WA0319203431
B1414194044673N00459931WA0319103430
B1414204044677N00459927WA0319103429
B1414214044680N00459924WA0319003429
B1414224044684N00459921WA0319203429
B1414234044688N00459919WA0319303429
B1414244044691N00459916WA0319403430
B1414254044694N00459912WA0319503432
B1414264044696N00459909WA0319703434
B1414274044697N00459906WA0319803435
B1414284044698N00459902WA0319803435
B1414294044698N00459898WA0319503435
B1414304044699N00459893WA0319103432
B1414314044702N00459889WA0318903429
B1414324044704N00459884WA0318703427
B1414334044708N00459879WA0318603426
B1414344044710N00459873WA0318403424
B1414354044713N00459868WA0318203423
B1414364044715N00459863WA0317903420
B1414374044718N00459858WA0317503416
B1414384044720N00459852WA0317103412
B1414394044723N00459846WA0316903409
B1414404044726N00459840WA0316703407
B1414414044729N00459834WA0316603406
B1414424044732N00459828WA0316403404
B1414434044735N00459823WA0316203402
B1414444044739N00459818WA0316003400
B1414454044742N00459814WA0315603396
B1414464044746N00459809WA0315203392
B1414474044751N00459805WA0314903389
B1414484044756N00459800WA0314803386
B1414494044760N00459796WA0314603384
B1414504044764N00459792WA0314303382
B1414514044767N00459788WA0314003380
B1414524044770N00459784WA0314003378
B1414534044773N00459780WA0313703375
B1414544044777N00459775WA0313503373
B1414554044780N00459770WA0313303370
B1414564044784N00459765WA0313203368
B1414574044788N00459760WA0313303367
B1414584044792N00459756WA0313203368
B1414594044796N00459752WA0313303368
B1415004044800N00459748WA0313303368
B1415014044803N00459743WA0313203368
B1415024044806N00459738WA0313103367
B1415034044810N00459732WA0313103366
B1415044044813N00459726WA0313103366
B1415054044817N00459721WA0313003365
B1415064044821N00459716WA0313003365
B1415074044825N00459711WA0312903364
B1415084044828N00459706WA0312803364
B1415094044831N00459702WA0312603363
B1415104044834N00459698WA0312303360
B1415114044838N00459694WA0312203359
B1415124044843N00459690WA0312203357
B1415134044848N00459686WA0312203356
B1415144044852N00459683WA0312103356
B1415154044858N00459679WA0312103357
B1415164044863N00459675WA0312203357
B1415174044867N00459671WA0312303358
B1415184044871N00459666WA0312403359
B1415194044875N00459661WA0312303359
B1415204044878N00459656WA0312303359
B1415214044880N00459651WA0312103358
B1415224044884N00459646WA0312103357
B1415234044887N00459641WA0312103356
B1415244044890N00459636WA0312103356
B1415254044893N00459632WA0311903355
B1415264044895N00459628WA0311703354
B1415274044897N00459623WA0311603352
B1415284044900N00459618WA0311303350
B1415294044902N00459612WA0311203349
B1415304044905N00459605WA0311103348
B1415314044907N00459599WA0311203347
B1415324044908N00459594WA0311103347
B1415334044911N00459588WA0311003346
B1415344044913N00459583WA0310803345
B1415354044916N00459578WA0310703344
B1415364044919N00459572WA0310703343
B1415374044923N00459568WA0310603342
B1415384044928N00459564WA0310603341
B1415394044931N00459560WA0310703340
B1415404044935N00459556WA0310703341
B1415414044937N00459549WA0310703342
B1415424044939N00459543WA0310803343
B1415434044941N00459535WA0310903344
B1415444044943N00459527WA0311203345
B1415454044945N00459519WA0311503347
B1415464044948N00459513WA0311903349
B1415474044950N00459508WA0312203353
B1415484044952N00459503WA0312403356
B1415494044954N00459498WA0312403356
B1415504044957N00459492WA0312503356
B1415514044960N00459485WA0312603356
B1415524044964N00459478WA0312803358
B1415534044967N00459472WA0313203362
B1415544044970N00459467WA0313503369
B1415554044973N00459461WA0314003374
B1415564044976N00459457WA0314403379
B1415574044978N00459453WA0314703383
B1415584044979N00459448WA0315003385
B1415594044979N00459441WA0315103387
B1416004044980N00459433WA0315403390
B1416014044981N00459425WA0315703394
B1416024044982N00459418WA0316003398
B1416034044983N00459411WA0316403401
B1416044044984N00459405WA0316703404
B1416054044985N00459399WA0317003407
B1416064044985N00459393WA0317303411
B1416074044986N00459387WA0317603414
B1416084044987N00459381WA0317903416
B1416094044989N00459375WA0318003418
B1416104044990N00459369WA0318403421
B1416114044992N00459363WA0318703424
B1416124044995N00459356WA0319003428
B1416134044998N00459351WA0319403431
B1416144045002N00459347WA0319603433
B1416154045007N00459345WA0320003436
B1416164045012N00459343WA0320303440
B1416174045017N00459342WA0320603443
B1416184045022N00459343WA0320903446
B1416194045027N00459346WA0321203449
B1416204045030N00459353WA0321403452
B1416214045031N00459361WA0321603455
B1416224045030N00459370WA0321903459
B1416234045027N00459378WA0322203460
B1416244045021N00459382WA0322303461
B1416254045015N00459382WA0322403463
B1416264045009N00459380WA0322603465
B1416274045003N00459377WA0322903467
B1416284044999N00459370WA0323303471
B1416294044997N00459364WA0323503475
B1416304044996N00459356WA0323803478
B1416314044997N00459350WA0324203483
B1416324044998N00459344WA0324403486
B1416334045000N00459338WA0324703488
B1416344045003N00459333WA0324803489
B1416354045008N00459328WA0325003491
B1416364045013N00459325WA0325303493
B1416374045019N00459325WA0325503494
B1416384045026N00459328WA0326003496
B1416394045031N00459331WA0326403498
B1416404045036N00459336WA0326803501
B1416414045040N00459340WA0327203504
B1416424045042N00459345WA0327403507
B1416434045044N00459350WA0327403509
B1416444045044N00459356WA0327503509
B1416454045045N00459364WA0327603511
B1416464045044N00459372WA0327903513
B1416474045042N00459381WA0328003515
B1416484045039N00459389WA0328303519
B1416494045035N00459396WA0328503522
B1416504045031N00459401WA0328903525
B1416514045025N00459406WA0329003528
B1416524045019N00459409WA0329303531
B1416534045012N00459411WA0329603534
B1416544045006N00459412WA0329903536
B1416554044999N00459411WA0330103539
B1416564044993N00459408WA0330503543
B1416574044987N00459403WA0330803546
B1416584044984N00459397WA0331003549
B1416594044982N00459389WA0331203552
B1417004044983N00459382WA0331503555
B1417014044985N00459376WA0331703557
B1417024044990N00459372WA0331803559
B1417034044995N00459370WA0332003561
B1417044045001N00459371WA0332203563
B1417054045006N00459375WA0332203565
B1417064045010N00459380WA0332503568
B1417074045014N00459386WA0332603570
B1417084045015N00459393WA0332903572
B1417094045015N00459400WA0333003573
B1417104045014N00459407WA0333103573
B1417114045011N00459414WA0333303575
B1417124045007N00459421WA0333403577
B1417134045001N00459425WA0333703579
B1417144044995N00459427WA0333803581
B1417154044988N00459426WA0334203583
B1417164044982N00459424WA0334503586
B1417174044977N00459420WA0334703588
B1417184044973N00459415WA0334803591
B1417194044969N00459409WA0335103593
B1417204044966N00459403WA0335303595
B1417214044965N00459396WA0335403597
B1417224044965N00459389WA0335503599
B1417234044965N00459382WA0335803602
B1417244044967N00459375WA0336103604
B1417254044969N00459369WA0336403607
B1417264044971N00459364WA0336603610
B1417274044975N00459360WA0336803612
B1417284044979N00459358WA0336903613
B1417294044984N00459357WA0337003614
B1417304044990N00459358WA0337203616
B1417314044995N00459360WA0337403618
B1417324045000N00459363WA0337903620
B1417334045005N00459366WA0338103622
B1417344045009N00459369WA0338403625
B1417354045013N00459373WA0338603628
B1417364045015N00459379WA0338903630
B1417374045016N00459386WA0339003631
B1417384045015N00459394WA0339303633
B1417394045011N00459402WA0339503636
B1417404045006N00459408WA0339703638
B1417414044999N00459412WA0339903639
B1417424044991N00459411WA0340003641
B1417434044984N00459408WA0340203643
B1417444044979N00459402WA0340403644
B1417454044976N00459395WA0340303645
B1417464044975N00459389WA0340403647
B1417474044974N00459382WA0340403647
B1417484044974N00459376WA0340603647
B1417494044977N00459370WA0340803649
B1417504044981N00459365WA0340903652
B1417514044985N00459361WA0341203656
B1417524044989N00459358WA0341603659
B1417534044993N00459357WA0341803662
B1417544044997N00459356WA0342103665
B1417554045002N00459356WA0342303667
B1417564045007N00459358WA0342603670
B1417574045012N00459360WA0342803673
B1417584045017N00459364WA0343103676
B1417594045020N00459369WA0343203678
B1418004045021N00459376WA0343403679
B1418014045021N00459385WA0343703681
B1418024045019N00459394WA0343903683
B1418034045016N00459402WA0344403685
B1418044045011N00459407WA0344603689
B1418054045004N00459410WA0344603691
B1418064044997N00459409WA0344803693
B1418074044991N00459405WA0345103695
B1418084044986N00459400WA0345303697
B1418094044984N00459393WA0345503701
B1418104044984N00459386WA0345803702
B1418114044985N00459380WA0346003704
B1418124044988N00459375WA0346203707
B1418134044991N00459370WA0346403709
B1418144044994N00459366WA0346803713
B1418154044997N00459363WA0346903715
B1418164045001N00459361WA0347103717
B1418174045005N00459361WA0347203719
B1418184045010N00459363WA0347403720
B1418194045014N00459368WA0347403722
B1418204045017N00459374WA0347603723
B1418214045019N00459382WA0347903724
B1418224045020N00459391WA0348203726
B1418234045019N00459399WA0348503729
B1418244045018N00459407WA0348803731
B1418254045015N00459413WA0348903734
B1418264045011N00459419WA0349003734
B1418274045004N00459423WA0349403736
B1418284044997N00459425WA0349403738
B1418294044990N00459425WA0349603740
B1418304044984N00459422WA0349903742
B1418314044979N00459418WA0350003743
B1418324044977N00459412WA0350103745
B1418334044975N00459405WA0350203747
B1418344044976N00459399WA0350403748
B1418354044977N00459392WA0350503750
B1418364044979N00459386WA0350803753
B1418374044981N00459380WA0351103756
B1418384044983N00459374WA0351303759
B1418394044985N00459368WA0351403762
B1418404044987N00459363WA0351703764
B1418414044990N00459358WA0351803765
B1418424044994N00459353WA0351803766
B1418434044997N00459347WA0352103768
B1418444045001N00459341WA0352203770
B1418454045005N00459336WA0352503773
B1418464045007N00459330WA0352703776
B1418474045008N00459324WA0352903778
B1418484045009N00459318WA0353003780
B1418494045009N00459311WA0353103781
B1418504045009N00459304WA0353003782
B1418514045008N00459296WA0353103783
B1418524045006N00459288WA0353203784
B1418534045004N00459280WA0353203785
B1418544045002N00459272WA0353303785
B1418554044999N00459264WA0353403786
B1418564044996N00459256WA0353403787
B1418574044994N00459249WA0353503788
B1418584044991N00459242WA0353603789
B1418594044989N00459234WA0353703790
B1419004044986N00459227WA0353703791
B1419014044984N00459219WA0353903792
B1419024044983N00459211WA0354003793
B1419034044982N00459203WA0354103794
B1419044044981N00459196WA0354203796
B1419054044979N00459189WA0354203797
B1419064044977N00459181WA0354203797
B1419074044976N00459174WA0354403797
B1419084044975N00459166WA0354303798
B1419094044975N00459158WA0354403798
B1419104044977N00459149WA0354603799
B1419114044978N00459141WA0354703801
B1419124044979N00459134WA0354903803
B1419134044980N00459126WA0355003805
B1419144044980N00459119WA0355203806
B1419154044980N00459111WA0355303807
B1419164044980N00459103WA0355403809
B1419174044981N00459095WA0355603810
B1419184044984N00459088WA0355703811
B1419194044987N00459081WA0355803813
B1419204044990N00459074WA0356003815
B1419214044994N00459068WA0356303818
B1419224044996N00459062WA0356503820
B1419234044998N00459056WA0356603821
B1419244045001N00459050WA0356703821
B1419254045004N00459046WA0356703822
B1419264045007N00459042WA0356803823
B1419274045010N00459038WA0356903824
B1419284045013N00459034WA0356903824
B1419294045016N00459030WA0357103825
B1419304045019N00459025WA0357103826
B1419314045022N00459022WA0357103827
B1419324045025N00459018WA0357103828
B1419334045029N00459015WA0357103828
B1419344045032N00459011WA0357003827
B1419354045035N00459008WA0357003826
B1419364045040N00459006WA0357003825
B1419374045044N00459004WA0356903825
B1419384045048N00459001WA0357003826
B1419394045052N00458997WA0357203827
B1419404045056N00458994WA0357303828
B1419414045060N00458989WA0357303829
B1419424045063N00458985WA0357403829
B1419434045066N00458980WA0357303829
B1419444045070N00458974WA0357403830
B1419454045072N00458967WA0357303831
B1419464045075N00458961WA0357303831
B1419474045077N00458954WA0357103830
B1419484045080N00458947WA0357003829
B1419494045083N00458941WA0356903828
B1419504045086N00458935WA0357003828
B1419514045090N00458929WA0357003828
B1419524045094N00458923WA0356903828
B1419534045097N00458917WA0356703827
B1419544045101N00458911WA0356703826
B1419554045105N00458905WA0356503825
B1419564045109N00458900WA0356403824
B1419574045113N00458894WA0356203823
B1419584045118N00458888WA0356103821
B1419594045123N00458882WA0356003819
B1420004045128N00458876WA0355903818
B1420014045132N00458871WA0355803817
B1420024045136N00458865WA0355503815
B1420034045140N00458860WA0355103812
B1420044045145N00458856WA0354703808
B1420054045150N00458852WA0354303803
B1420064045156N00458848WA0354003800
B1420074045162N00458845WA0353703796
B1420084045168N00458842WA0353603793
B1420094045174N00458839WA0353503791
B1420104045179N00458836WA0353303788
B1420114045185N00458831WA0353003785
B1420124045191N00458826WA0352803783
B1420134045196N00458821WA0352603782
B1420144045202N00458816WA0352703780
B1420154045206N00458810WA0352503779
B1420164045211N00458804WA0352403779
B1420174045215N00458798WA0352203777
B1420184045220N00458793WA0351903775
B1420194045225N00458787WA0351703772
B1420204045230N00458780WA0351403770
B1420214045235N00458772WA0351203768
B1420224045240N00458764WA0350903765
B1420234045245N00458756WA0350803762
B1420244045251N00458747WA0350703760
B1420254045256N00458740WA0350703760
B1420264045261N00458733WA0350603760
B1420274045266N00458727WA0350503759
B1420284045271N00458720WA0350203757
B1420294045277N00458713WA0349803754
B1420304045282N00458706WA0349503750
B1420314045289N00458699WA0349003746
B1420324045295N00458693WA0348903743
B1420334045301N00458686WA0348603739
B1420344045307N00458679WA0348203735
B1420354045313N00458672WA0347603731
B1420364045319N00458665WA0347203727
B1420374045325N00458659WA0346703723
B1420384045331N00458651WA0346203717
B1420394045337N00458643WA0345703712
B1420404045344N00458635WA0345303707
B1420414045350N00458628WA0345103703
B1420424045357N00458621WA0344803700
B1420434045363N00458614WA0344303695
B1420444045370N00458606WA0344003690
B1420454045377N00458597WA0343603686
B1420464045384N00458589WA0343303683
B1420474045390N00458582WA0343103680
B1420484045395N00458575WA0342803677
B1420494045399N00458568WA0342303673
B1420504045404N00458561WA0341703667
B1420514045410N00458553WA0341203661
B1420524045416N00458545WA0340603656
B1420534045422N00458536WA0340203652
B1420544045428N00458528WA0339703647
B1420554045434N00458521WA0339203642
B1420564045441N00458514WA0338703636
B1420574045448N00458507WA0338103630
B1420584045456N00458499WA0337703625
B1420594045462N00458492WA0337303621
B1421004045469N00458485WA0336803617
B1421014045476N00458477WA0336403612
B1421024045483N00458470WA0335903606
B1421034045491N00458462WA0335503602
B1421044045498N00458455WA0335403599
B1421054045505N00458448WA0335103597
B1421064045511N00458441WA0334803594
B1421074045517N00458434WA0334303590
B1421084045523N00458427WA0334003585
B1421094045530N00458420WA0333503580
B1421104045537N00458411WA0333203577
B1421114045544N00458404WA0333203576
B1421124045550N00458397WA0333203575
B1421134045555N00458390WA0333003573
B1421144045561N00458384WA0332803570
B1421154045567N00458377WA0332603568
B1421164045574N00458370WA0332503567
B1421174045581N00458364WA0332503566
B1421184045588N00458358WA0332403566
B1421194045594N00458354WA0332203565
B1421204045601N00458349WA0332103562
B1421214045607N00458344WA0332003560
B1421224045614N00458338WA0331803558
B1421234045622N00458332WA0331903558
B1421244045629N00458326WA0331903558
B1421254045636N00458321WA0332003560
B1421264045642N00458315WA0332203563
B1421274045647N00458309WA0332303565
B1421284045652N00458303WA0332503566
B1421294045656N00458296WA0332403567
B1421304045660N00458289WA0332303567
B1421314045664N00458282WA0332203566
B1421324045668N00458275WA0332103565
B1421334045673N00458267WA0332103563
B1421344045678N00458259WA0331903561
B1421354045684N00458252WA0331803560
B1421364045690N00458246WA0331803559
B1421374045697N00458239WA0331603557
B1421384045703N00458232WA0331503556
B1421394045710N00458224WA0331403555
B1421404045718N00458217WA0331303554
B1421414045725N00458210WA0331403554
B1421424045733N00458203WA0331303554
B1421434045740N00458196WA0331303555
B1421444045748N00458189WA0331303555
B1421454045755N00458181WA0331303555
B1421464045762N00458175WA0331203555
B1421474045769N00458168WA0331103555
B1421484045776N00458160WA0331103554
B1421494045784N00458153WA0331003553
B1421504045791N00458146WA0330903552
B1421514045799N00458138WA0330903552
B1421524045807N00458132WA0331003553
B1421534045815N00458126WA0331003554
B1421544045822N00458121WA0331003554
B1421554045828N00458116WA0330703552
B1421564045834N00458110WA0330503550
B1421574045840N00458104WA0330303547
B1421584045847N00458097WA0330003544
B1421594045853N00458089WA0329803542
B1422004045861N00458081WA0329703540
B1422014045868N00458074WA0329603539
B1422024045875N00458066WA0329503538
B1422034045883N00458059WA0329503537
B1422044045890N00458051WA0329403536
B1422054045897N00458044WA0329303535
B1422064045905N00458036WA0329103534
B1422074045911N00458028WA0329103534
B1422084045917N00458020WA0329103534
B1422094045922N00458012WA0329003534
B1422104045928N00458004WA0328803533
B1422114045933N00457995WA0328703531
B1422124045939N00457985WA0328503529
B1422134045946N00457976WA0328403528
B1422144045952N00457967WA0328503528
B1422154045958N00457959WA0328603529
B1422164045963N00457951WA0328503530
B1422174045968N00457943WA0328403530
B1422184045973N00457935WA0328403529
B1422194045978N00457926WA0328303527
B1422204045984N00457917WA0328003525
B1422214045989N00457908WA0328003524
B1422224045995N00457899WA0327903523
B1422234046001N00457890WA0327903524
B1422244046007N00457882WA0328003525
B1422254046012N00457875WA0328103527
B1422264046017N00457869WA0328103527
B1422274046022N00457863WA0328103526
B1422284046026N00457856WA0327903525
B1422294046030N00457849WA0327803523
B1422304046035N00457841WA0327603522
B1422314046040N00457833WA0327303519
B1422324046046N00457825WA0327203518
B1422334046051N00457816WA0327103517
B1422344046057N00457808WA0327203517
B1422354046062N00457801WA0327203517
B1422364046068N00457794WA0327103517
B1422374046072N00457787WA0327003516
B1422384046077N00457781WA0326903513
B1422394046081N00457774WA0326603511
B1422404046084N00457766WA0326303508
B1422414046087N00457758WA0326003505
B1422424046090N00457750WA0325803502
B1422434046094N00457742WA0325503498
B1422444046099N00457734WA0325303496
B1422454046104N00457726WA0325203496
B1422464046109N00457719WA0325103495
B1422474046115N00457714WA0324903494
B1422484046120N00457707WA0324703492
B1422494046126N00457701WA0324403490
B1422504046132N00457694WA0324303488
B1422514046138N00457687WA0324303487
B1422524046145N00457681WA0324303487
B1422534046151N00457675WA0324203487
B1422544046157N00457670WA0324403488
B1422554046163N00457664WA0324203488
B1422564046169N00457659WA0324003485
B1422574046175N00457653WA0323703482
B1422584046182N00457646WA0323403479
B1422594046189N00457640WA0323303477
B1423004046195N00457635WA0323103475
B1423014046201N00457629WA0322903473
B1423024046207N00457624WA0322603470
B1423034046214N00457619WA0322303466
B1423044046221N00457613WA0321803461
B1423054046228N00457607WA0321403458
B1423064046235N00457601WA0321203455
B1423074046242N00457594WA0320903452
B1423084046249N00457588WA0320803449
B1423094046256N00457581WA0320603447
B1423104046263N00457575WA0320303446
B1423114046270N00457570WA0320103444
B1423124046276N00457564WA0319903440
B1423134046284N00457558WA0319603436
B1423144046292N00457552WA0319203432
B1423154046300N00457545WA0318903430
B1423164046308N00457538WA0318803428
B1423174046315N00457532WA0318603427
B1423184046321N00457525WA0318403426
B1423194046327N00457519WA0318303426
B1423204046333N00457514WA0318403425
B1423214046338N00457508WA0318203423
B1423224046343N00457502WA0317903420
B1423234046349N00457494WA0317503416
B1423244046356N00457487WA0317303413
B1423254046362N00457479WA0317203411
B1423264046369N00457472WA0317203411
B1423274046376N00457466WA0317103411
B1423284046382N00457461WA0316903410
B1423294046388N00457455WA0316703408
B1423304046394N00457448WA0316403404
B1423314046400N00457441WA0316303402
B1423324046406N00457433WA0316003401
B1423334046412N00457427WA0316203401
B1423344046418N00457421WA0316203402
B1423354046422N00457416WA0316103401
B1423364046426N00457410WA0316003400
B1423374046431N00457405WA0315803399
B1423384046436N00457399WA0315803398
B1423394046440N00457394WA0315803398
B1423404046445N00457389WA0315803397
B1423414046450N00457384WA0315703396
B1423424046455N00457379WA0315603396
B1423434046460N00457373WA0315403395
B1423444046466N00457368WA0315403394
B1423454046471N00457362WA0315103393
B1423464046477N00457356WA0315403393
B1423474046482N00457349WA0315303393
B1423484046487N00457342WA0315303393
B1423494046491N00457336WA0315503394
B1423504046495N00457331WA0315503395
B1423514046499N00457326WA0315503395
B1423524046502N00457321WA0315503394
B1423534046505N00457316WA0315403393
B1423544046509N00457310WA0315403392
B1423554046512N00457304WA0315303392
B1423564046515N00457298WA0315303392
B1423574046518N00457291WA0315303392
B1423584046522N00457285WA0315203391
B1423594046526N00457279WA0315203391
B1424004046530N00457273WA0315203391
B1424014046535N00457267WA0315203390
B1424024046539N00457261WA0315103389
B1424034046544N00457255WA0315103389
B1424044046549N00457249WA0315103390
B1424054046554N00457243WA0315203391
B1424064046559N00457237WA0315203391
B1424074046564N00457231WA0315303391
B1424084046569N00457225WA0315203391
B1424094046573N00457220WA0315103390
B1424104046578N00457214WA0315103389
B1424114046582N00457208WA0314903389
B1424124046586N00457201WA0314803388
B1424134046590N00457194WA0314803388
B1424144046595N00457187WA0314803387
B1424154046599N00457180WA0314703387
B1424164046603N00457174WA0314703386
B1424174046607N00457167WA0314703386
B1424184046611N00457160WA0314603385
B1424194046615N00457153WA0314603385
B1424204046621N00457147WA0314603385
B1424214046626N00457140WA0314603385
B1424224046631N00457134WA0314703386
B1424234046636N00457128WA0314703386
B1424244046640N00457121WA0314803386
B1424254046644N00457115WA0314703387
B1424264046649N00457108WA0314703387
B1424274046654N00457102WA0314703386
B1424284046658N00457096WA0314603386
B1424294046662N00457089WA0314503384
B1424304046665N00457081WA0314403383
B1424314046668N00457073WA0314403382
B1424324046670N00457064WA0314303381
B1424334046673N00457056WA0314303381
B1424344046675N00457049WA0314303382
B1424354046679N00457043WA0314303381
B1424364046682N00457036WA0314203380
B1424374046686N00457029WA0314003378
B1424384046692N00457021WA0313903377
B1424394046697N00457014WA0313803376
B1424404046703N00457007WA0313803375
B1424414046709N00457000WA0313803375
B1424424046714N00456993WA0313803375
B1424434046720N00456985WA0313903376
B1424444046725N00456977WA0313903376
B1424454046731N00456969WA0314003377
B1424464046736N00456961WA0314203378
B1424474046740N00456953WA0314403381
B1424484046744N00456945WA0314503383
B1424494046747N00456938WA0314703385
B1424504046749N00456932WA0314803386
B1424514046751N00456925WA0314803386
B1424524046753N00456919WA0314803386
B1424534046756N00456913WA0314703386
B1424544046760N00456907WA0314703384
B1424554046764N00456900WA0314503382
B1424564046770N00456893WA0314203380
B1424574046777N00456886WA0314203378
B1424584046783N00456878WA0314103378
B1424594046790N00456871WA0314203378
B1425004046796N00456865WA0314403380
B1425014046802N00456859WA0314403381
B1425024046807N00456854WA0314303380
B1425034046813N00456848WA0314203378
B1425044046818N00456841WA0314003377
B1425054046825N00456834WA0314103377
B1425064046832N00456828WA0314203378
B1425074046839N00456823WA0314303379
B1425084046846N00456819WA0314403380
B1425094046852N00456814WA0314303380
B1425104046858N00456808WA0314303380
B1425114046864N00456802WA0314203379
B1425124046870N00456796WA0314203378
B1425134046877N00456790WA0314103378
B1425144046883N00456784WA0314003378
B1425154046889N00456779WA0313803377
B1425164046894N00456773WA0313803376
B1425174046899N00456767WA0313703375
B1425184046905N00456760WA0313303372
B1425194046910N00456753WA0313103369
B1425204046915N00456746WA0313003367
B1425214046921N00456739WA0312903366
B1425224046926N00456732WA0312803365
B1425234046933N00456725WA0312703364
B1425244046939N00456719WA0312703363
B1425254046945N00456712WA0312703363
B1425264046951N00456706WA0312503363
B1425274046957N00456700WA0312403361
B1425284046962N00456694WA0312203359
B1425294046967N00456688WA0311903357
B1425304046974N00456681WA0311903355
B1425314046980N00456675WA0311703353
B1425324046986N00456668WA0311503353
B1425334046992N00456662WA0311403351
B1425344046997N00456656WA0311203350
B1425354047002N00456650WA0311103347
B1425364047008N00456644WA0310703343
B1425374047015N00456637WA0310403340
B1425384047022N00456630WA0310303339
B1425394047028N00456623WA0310303338
B1425404047033N00456616WA0310203338
B1425414047038N00456610WA0310203337
B1425424047043N00456604WA0310103336
B1425434047049N00456598WA0310003334
B1425444047054N00456592WA0309903333
B1425454047060N00456586WA0309803332
B1425464047065N00456579WA0309703331
B1425474047070N00456573WA0309603331
B1425484047075N00456567WA0309503330
B1425494047080N00456561WA0309403327
B1425504047086N00456555WA0309103325
B1425514047092N00456548WA0309003323
B1425524047098N00456540WA0308903321
B1425534047104N00456532WA0309003322
B1425544047110N00456525WA0309203324
B1425554047115N00456519WA0309303325
B1425564047119N00456513WA0309303325
B1425574047124N00456507WA0309303325
B1425584047129N00456501WA0309203324
B1425594047134N00456495WA0309103323
B1426004047140N00456489WA0309003322
B1426014047147N00456483WA0308903320
B1426024047153N00456477WA0308703319
B1426034047160N00456471WA0308703319
B1426044047166N00456464WA0308703319
B1426054047173N00456458WA0308703319
B1426064047179N00456451WA0308703319
B1426074047185N00456445WA0308703318
B1426084047191N00456438WA0308703318
B1426094047196N00456431WA0308603317
B1426104047202N00456424WA0308603316
B1426114047207N00456417WA0308503316
B1426124047213N00456409WA0308403315
B1426134047218N00456401WA0308403315
B1426144047224N00456393WA0308403315
B1426154047229N00456384WA0308403315
B1426164047234N00456376WA0308403314
B1426174047238N00456367WA0308403315
B1426184047243N00456359WA0308403315
B1426194047249N00456351WA0308403315
B1426204047255N00456344WA0308403314
B1426214047261N00456336WA0308303314
B1426224047268N00456329WA0308103313
B1426234047275N00456322WA0308203313
B1426244047282N00456316WA0308103313
B1426254047289N00456310WA0308003312
B1426264047296N00456305WA0307703309
B1426274047303N00456299WA0307403307
B1426284047310N00456292WA0307203304
B1426294047317N00456285WA0306903301
B1426304047324N00456279WA0306703299
B1426314047331N00456272WA0306503296
B1426324047337N00456265WA0306303294
B1426334047343N00456259WA0306303294
B1426344047348N00456253WA0306303294
B1426354047353N00456247WA0306303293
B1426364047357N00456241WA0306103292
B1426374047362N00456235WA0305903290
B1426384047367N00456229WA0305703287
B1426394047373N00456223WA0305503284
B1426404047379N00456217WA0305303282
B1426414047384N00456210WA0305103280
B1426424047390N00456203WA0305003279
B1426434047396N00456197WA0304803278
B1426444047401N00456190WA0304703276
B1426454047407N00456183WA0304403274
B1426464047413N00456177WA0304303271
B1426474047419N00456170WA0304003268
B1426484047425N00456162WA0303703265
B1426494047431N00456154WA0303503262
B1426504047437N00456146WA0303303260
B1426514047443N00456138WA0303203259
B1426524047449N00456131WA0303103259
B1426534047454N00456124WA0303003258
B1426544047459N00456117WA0302803256
B1426554047464N00456110WA0302503252
B1426564047470N00456103WA0302203249
B1426574047476N00456096WA0301903245
B1426584047483N00456088WA0301603242
B1426594047490N00456080WA0301503241
B1427004047496N00456073WA0301303239
B1427014047503N00456066WA0301303237
B1427024047509N00456060WA0301103236
B1427034047516N00456053WA0301003234
B1427044047522N00456047WA0300603232
B1427054047528N00456040WA0300203229
B1427064047534N00456033WA0300103226
B1427074047540N00456025WA0299803224
B1427084047546N00456017WA0299803222
B1427094047552N00456010WA0299803221
B1427104047558N00456003WA0299703220
B1427114047564N00455995WA0299603218
B1427124047570N00455988WA0299403217
B1427134047576N00455980WA0299203215
B1427144047582N00455973WA0299103214
B1427154047588N00455966WA0298903213
B1427164047593N00455958WA0298703211
B1427174047599N00455951WA0298603209
B1427184047606N00455943WA0298403207
B1427194047612N00455936WA0298103206
B1427204047619N00455928WA0298103204
B1427214047626N00455921WA0298003202
B1427224047632N00455913WA0297703201
B1427234047638N00455905WA0297603199
B1427244047644N00455898WA0297403197
B1427254047650N00455890WA0297303195
B1427264047656N00455883WA0297203194
B1427274047663N00455877WA0296803192
B1427284047669N00455870WA0296703189
B1427294047676N00455863WA0296503186
B1427304047683N00455856WA0296203184
B1427314047691N00455850WA0296003182
B1427324047698N00455843WA0295903180
B1427334047706N00455837WA0295703178
B1427344047713N00455830WA0295503176
B1427354047720N00455822WA0295203174
B1427364047727N00455815WA0295203174
B1427374047733N00455808WA0295203174
B1427384047740N00455803WA0295103173
B1427394047747N00455798WA0294803171
B1427404047755N00455794WA0294603168
B1427414047763N00455789WA0294403165
B1427424047772N00455785WA0294103163
B1427434047780N00455780WA0294003161
B1427444047789N00455774WA0293803159
B1427454047797N00455769WA0293603157
B1427464047805N00455764WA0293503155
B1427474047813N00455759WA0293203153
B1427484047821N00455755WA0292903149
B1427494047829N00455750WA0292603146
B1427504047838N00455745WA0292303143
B1427514047846N00455740WA0292103141
B1427524047854N00455734WA0292003140
B1427534047862N00455728WA0291903138
B1427544047871N00455723WA0291703136
B1427554047879N00455718WA0291503134
B1427564047888N00455713WA0291303132
B1427574047897N00455708WA0291103130
B1427584047905N00455703WA0290903128
B1427594047913N00455697WA0290703125
B1428004047921N00455691WA0290403122
B1428014047929N00455684WA0290203120
B1428024047937N00455678WA0290003118
B1428034047945N00455671WA0289803116
B1428044047953N00455665WA0289703114
B1428054047962N00455659WA0289503112
B1428064047970N00455653WA0289403111
B1428074047978N00455647WA0289103109
B1428084047986N00455641WA0289003108
B1428094047994N00455635WA0288903106
B1428104048002N00455629WA0288603104
B1428114048010N00455623WA0288403101
B1428124048018N00455616WA0288103099
B1428134048026N00455610WA0288003097
B1428144048034N00455603WA0288003097
B1428154048042N00455598WA0287803096
B1428164048049N00455593WA0287703095
B1428174048056N00455587WA0287503092
B1428184048064N00455582WA0287303090
B1428194048071N00455576WA0286903089
B1428204048078N00455571WA0287103087
B1428214048085N00455565WA0287003086
B1428224048092N00455560WA0286703085
B1428234048099N00455555WA0286503082
B1428244048106N00455550WA0286203080
B1428254048113N00455544WA0286003078
B1428264048120N00455539WA0285903076
B1428274048128N00455533WA0285703075
B1428284048135N00455528WA0285603073
B1428294048142N00455523WA0285403072
B1428304048148N00455518WA0285203070
B1428314048156N00455512WA0284903066
B1428324048163N00455506WA0284603062
B1428334048171N00455499WA0284303059
B1428344048179N00455493WA0284203057
B1428354048187N00455487WA0284103055
B1428364048194N00455481WA0283903053
B1428374048201N00455475WA0283603051
B1428384048209N00455469WA0283403049
B1428394048216N00455462WA0283303047
B1428404048223N00455456WA0283103045
B1428414048231N00455451WA0282903044
B1428424048239N00455446WA0282803043
B1428434048246N00455441WA0282903042
B1428444048253N00455437WA0282703042
B1428454048259N00455433WA0282403040
B1428464048266N00455429WA0282303037
B1428474048273N00455425WA0282003034
B1428484048280N00455420WA0281803031
B1428494048287N00455413WA0281503029
B1428504048293N00455407WA0281403028
B1428514048300N00455401WA0281303027
B1428524048306N00455395WA0281203025
B1428534048312N00455389WA0280903022
B1428544048319N00455382WA0280803019
B1428554048326N00455376WA0280603017
B1428564048333N00455370WA0280403016
B1428574048341N00455363WA0280303015
B1428584048348N00455357WA0280103014
B1428594048354N00455351WA0280203014
B1429004048361N00455345WA0280203014
B1429014048367N00455340WA0280003013
B1429024048373N00455334WA0279803011
B1429034048379N00455328WA0279703010
B1429044048386N00455322WA0279503008
B1429054048392N00455316WA0279403006
B1429064048399N00455309WA0279303005
B1429074048406N00455303WA0279103005
B1429084048412N00455297WA0279203005
B1429094048418N00455292WA0279203005
B1429104048425N00455287WA0279203004
B1429114048431N00455282WA0279103004
B1429124048438N00455276WA0279003003
B1429134048445N00455271WA0279003002
B1429144048452N00455266WA0279003002
B1429154048460N00455262WA0279003002
B1429164048467N00455257WA0279003001
B1429174048474N00455252WA0279103001
B1429184048481N00455247WA0279103002
B1429194048488N00455243WA0279203003
B1429204048494N00455238WA0279303004
B1429214048501N00455234WA0279303005
B1429224048507N00455231WA0279303005
B1429234048514N00455228WA0279203004
B1429244048520N00455225WA0279003002
B1429254048527N00455222WA0278803000
B1429264048535N00455217WA0278602997
B1429274048542N00455211WA0278402996
B1429284048548N00455206WA0278402996
B1429294048555N00455201WA0278402996
B1429304048561N00455196WA0278402995
B1429314048567N00455191WA0278102994
B1429324048573N00455185WA0278002992
B1429334048579N00455177WA0277902990
B1429344048585N00455170WA0277702989
B1429354048591N00455163WA0277802989
B1429364048598N00455156WA0277902989
B1429374048604N00455150WA0278002991
B1429384048610N00455144WA0278102992
B1429394048616N00455139WA0278202992
B1429404048622N00455134WA0278202992
B1429414048628N00455128WA0278202993
B1429424048633N00455122WA0278202993
B1429434048638N00455115WA0278302994
B1429444048642N00455108WA0278402994
B1429454048647N00455101WA0278402995
B1429464048651N00455093WA0278402994
B1429474048656N00455085WA0278402994
B1429484048661N00455077WA0278402994
B1429494048666N00455069WA0278602996
B1429504048672N00455061WA0278802998
B1429514048677N00455055WA0279003000
B1429524048682N00455048WA0279103002
B1429544048694N00455038WA0279403005
B1429544048697N00455036WA0279403005
B1429554048700N00455034WA0279403005
B1429564048711N00455030WA0279403005
B1429584048721N00455023WA0279303005
B1429584048724N00455020WA0279203004
B1429594048726N00455017WA0279203004
B1430004048731N00455010WA0279303004
B1430014048736N00455002WA0279303004
B1430024048739N00454993WA0279303003
B1430034048743N00454984WA0279303003
B1430044048745N00454976WA0279303004
B1430054048748N00454967WA0279503005
B1430064048749N00454959WA0279503006
B1430074048751N00454951WA0279503007
B1430084048753N00454943WA0279703007
B1430094048754N00454935WA0279703007
B1430104048754N00454926WA0279603007
B1430114048753N00454918WA0279703007
B1430124048751N00454910WA0279703008
B1430134048750N00454902WA0279903010
B1430144048750N00454894WA0280003012
B1430154048750N00454887WA0280203013
B1430164048749N00454881WA0280203014
B1430174048748N00454875WA0280203015
B1430184048746N00454869WA0280203014
B1430194048744N00454863WA0280203014
B1430204048742N00454856WA0280203014
B1430214048740N00454848WA0280203014
B1430224048738N00454840WA0280203015
B1430234048737N00454833WA0280203016
B1430244048736N00454826WA0280203016
B1430254048735N00454820WA0280103015
B1430264048734N00454813WA0280003013
B1430274048735N00454805WA0279903012
B1430284048736N00454796WA0279903012
B1430294048738N00454788WA0280003013
B1430304048741N00454780WA0280003013
B1430314048743N00454772WA0280103014
B1430324048746N00454765WA0280203015
B1430334048748N00454758WA0280203016
B1430344048750N00454750WA0280403017
B1430354048751N00454742WA0280403017
B1430364048751N00454733WA0280303017
B1430374048751N00454725WA0280403017
B1430384048750N00454716WA0280403017
B1430394048751N00454706WA0280403017
B1430404048753N00454697WA0280403017
B1430414048756N00454688WA0280403018
B1430424048758N00454679WA0280403019
B1430434048761N00454671WA0280503019
B1430444048762N00454662WA0280503018
B1430454048765N00454653WA0280403017
B1430464048768N00454644WA0280303016
B1430474048772N00454636WA0280203015
B1430484048776N00454629WA0280103014
B1430494048781N00454622WA0279903012
B1430504048785N00454615WA0279503010
B1430514048789N00454609WA0279303007
B1430524048794N00454603WA0279003003
B1430534048798N00454595WA0278803001
B1430544048802N00454587WA0278803000
B1430554048806N00454579WA0278702999
B1430564048810N00454572WA0278502998
B1430574048814N00454564WA0278702998
B1430584048818N00454556WA0278602998
B1430594048821N00454549WA0278602998
B1431004048823N00454541WA0278502997
B1431014048826N00454534WA0278302995
B1431024048828N00454526WA0278202994
B1431034048831N00454519WA0278102992
B1431044048835N00454512WA0277702990
B1431054048840N00454506WA0277502987
B1431064048846N00454501WA0277202984
B1431074048851N00454496WA0277002982
B1431084048857N00454491WA0276802980
B1431094048864N00454486WA0276602978
B1431104048870N00454482WA0276502976
B1431114048876N00454477WA0276302974
B1431124048882N00454470WA0276202972
B1431134048886N00454461WA0276202971
B1431144048890N00454452WA0276202972
B1431154048894N00454443WA0276302973
B1431164048897N00454435WA0276502974
B1431174048900N00454428WA0276602975
B1431184048902N00454421WA0276702976
B1431194048904N00454414WA0276802977
B1431204048906N00454407WA0276802978
B1431214048908N00454401WA0276802977
B1431224048911N00454394WA0276902977
B1431234048915N00454387WA0276902977
B1431244048918N00454379WA0276802977
B1431254048921N00454372WA0276802977
B1431264048923N00454364WA0276902977
B1431274048924N00454356WA0277102977
B1431284048922N00454348WA0277202979
B1431294048921N00454340WA0277402981
B1431304048920N00454333WA0277502983
B1431314048918N00454327WA0277502984
B1431324048917N00454322WA0277502983
B1431334048914N00454317WA0277302982
B1431344048911N00454314WA0277102981
B1431354048906N00454313WA0277002979
B1431364048902N00454316WA0276902978
B1431374048899N00454321WA0276902977
B1431384048898N00454327WA0276702976
B1431394048898N00454334WA0276702975
B1431404048900N00454341WA0276502975
B1431414048904N00454347WA0276402973
B1431424048909N00454351WA0276302972
B1431434048916N00454353WA0276202970
B1431444048924N00454353WA0276302970
B1431454048931N00454350WA0276302971
B1431464048938N00454346WA0276502972
B1431474048943N00454341WA0276702974
B1431484048949N00454336WA0276902976
B1431494048955N00454331WA0277102979
B1431504048960N00454327WA0277302981
B1431514048965N00454323WA0277502983
B1431524048970N00454319WA0277602984
B1431534048975N00454315WA0277502984
B1431544048980N00454308WA0277602984
B1431554048983N00454300WA0277702984
B1431564048986N00454291WA0277902986
B1431574048988N00454283WA0278002988
B1431584048989N00454275WA0278102989
B1431594048989N00454267WA0278302991
B1432004048988N00454260WA0278302992
B1432014048984N00454253WA0278402993
B1432024048980N00454249WA0278602994
B1432034048974N00454248WA0278702995
B1432044048970N00454249WA0278902998
B1432054048966N00454251WA0279202999
B1432064048963N00454255WA0279303000
B1432074048962N00454261WA0279203000
B1432084048962N00454267WA0279203000
B1432094048965N00454274WA0279203000
B1432104048970N00454280WA0279303002
B1432114048977N00454282WA0279403003
B1432124048984N00454281WA0279603005
B1432134048991N00454278WA0279603005
B1432144048997N00454273WA0279703006
B1432154049002N00454265WA0279803007
B1432164049005N00454256WA0279903008
B1432174049006N00454248WA0280003010
B1432184049007N00454239WA0280203012
B1432194049007N00454231WA0280303013
B1432204049006N00454224WA0280203014
B1432214049004N00454217WA0280303014
B1432224049001N00454210WA0280303015
B1432234048996N00454204WA0280403015
B1432244048992N00454200WA0280603017
B1432254048986N00454197WA0280703019
B1432264048982N00454195WA0280903022
B1432274048977N00454193WA0281203025
B1432284048973N00454190WA0281403026
B1432294048969N00454186WA0281503028
B1432304048966N00454181WA0281603028
B1432314048963N00454174WA0281703029
B1432324048960N00454167WA0281703030
B1432334048959N00454159WA0281803030
B1432344048958N00454151WA0281803031
B1432354048957N00454143WA0281803031
B1432364048957N00454135WA0281803030
B1432374048958N00454126WA0281803030
B1432384048960N00454116WA0281703029
B1432394048961N00454107WA0281703029
B1432404048964N00454097WA0281703030
B1432414048966N00454088WA0281703030
B1432424048969N00454079WA0281903031
B1432434048971N00454069WA0281903032
B1432444048973N00454060WA0282003033
B1432454048976N00454051WA0282203034
B1432464048979N00454042WA0282303035
B1432474048981N00454033WA0282403036
B1432484048983N00454024WA0282503037
B1432494048984N00454015WA0282703039
B1432504048985N00454006WA0282903041
B1432514048986N00453997WA0283203044
B1432524048986N00453988WA0283403047
B1432534048986N00453979WA0283603048
B1432544048986N00453971WA0283703050
B1432554048987N00453962WA0283803052
B1432564048988N00453953WA0284003053
B1432574048990N00453945WA0284103054
B1432584048992N00453936WA0284203055
B1432594048994N00453927WA0284403056
B1433004048996N00453918WA0284603058
B1433014048998N00453909WA0284703060
B1433024048999N00453900WA0285003063
B1433034049000N00453891WA0285103065
B1433044049000N00453883WA0285203066
B1433054049001N00453874WA0285203066
B1433064049002N00453865WA0285303066
B1433074049004N00453856WA0285303066
B1433084049006N00453847WA0285303066
B1433094049008N00453838WA0285303066
B1433104049010N00453828WA0285303067
B1433114049012N00453819WA0285203066
B1433124049014N00453810WA0285103066
B1433134049017N00453800WA0285003065
B1433144049019N00453790WA0284903063
B1433154049023N00453780WA0284803062
B1433164049026N00453771WA0284803061
B1433174049029N00453761WA0284603061
B1433184049033N00453751WA0284603060
B1433194049037N00453741WA0284403059
B1433204049042N00453732WA0284403057
B1433214049046N00453722WA0284203056
B1433224049051N00453712WA0284003054
B1433234049056N00453702WA0284003053
B1433244049061N00453692WA0283903052
B1433254049066N00453682WA0283803052
B1433264049071N00453673WA0283603050
B1433274049075N00453664WA0283503048
B1433284049080N00453655WA0283303046
B1433294049085N00453645WA0283003043
B1433304049090N00453635WA0282903041
B1433314049095N00453626WA0282803040
B1433324049100N00453616WA0282503038
B1433334049104N00453607WA0282403036
B1433344049108N00453597WA0282203034
B1433354049113N00453587WA0282003032
B1433364049117N00453577WA0281803030
B1433374049120N00453567WA0281703029
B1433384049123N00453558WA0281703029
B1433394049126N00453551WA0281603027
B1433404049128N00453544WA0281303025
B1433414049130N00453536WA0280903020
B1433424049133N00453528WA0280503016
B1433434049137N00453519WA0280203012
B1433444049141N00453510WA0279903009
B1433454049145N00453501WA0279703006
B1433464049151N00453493WA0279403003
B1433474049155N00453485WA0279103000
B1433484049160N00453476WA0278702996
B1433494049165N00453467WA0278302992
B1433504049170N00453458WA0278002989
B1433514049175N00453450WA0277802986
B1433524049180N00453441WA0277502982
B1433534049185N00453433WA0277002978
B1433544049190N00453424WA0276402974
B1433554049195N00453415WA0276102970
B1433564049199N00453407WA0275702966
B1433574049204N00453398WA0275602962
B1433584049209N00453390WA0275202959
B1433594049213N00453381WA0274902956
B1434004049218N00453372WA0274702952
B1434014049223N00453363WA0274202949
B1434024049228N00453353WA0274002947
B1434034049233N00453344WA0273902944
B1434044049237N00453335WA0273502942
B1434054049242N00453326WA0273502939
B1434064049246N00453316WA0273202937
B1434074049251N00453306WA0273102936
B1434084049255N00453296WA0273002935
B1434094049260N00453286WA0272802933
B1434104049264N00453276WA0272602931
B1434114049268N00453266WA0272402928
B1434124049273N00453256WA0272202927
B1434134049278N00453246WA0272102925
B1434144049282N00453236WA0271902924
B1434154049287N00453227WA0271802923
B1434164049291N00453218WA0271702921
B1434174049295N00453209WA0271602920
B1434184049299N00453200WA0271502919
B1434194049303N00453191WA0271302918
B1434204049307N00453182WA0271202916
B1434214049311N00453173WA0270902914
B1434224049316N00453164WA0270702911
B1434234049320N00453156WA0270602909
B1434244049324N00453147WA0270402909
B1434254049329N00453140WA0270202908
B1434264049333N00453132WA0270102905
B1434274049338N00453125WA0269802902
B1434284049344N00453117WA0269602899
B1434294049349N00453109WA0269402897
B1434304049355N00453101WA0269202896
B1434314049360N00453093WA0269202894
B1434324049366N00453086WA0268902892
B1434334049371N00453077WA0268802890
B1434344049376N00453069WA0268602888
B1434354049382N00453060WA0268402886
B1434364049387N00453051WA0268102884
B1434374049392N00453042WA0268002882
B1434384049397N00453034WA0267902881
B1434394049402N00453026WA0268002881
B1434404049408N00453018WA0267902880
B1434414049413N00453010WA0267702879
B1434424049418N00453002WA0267502877
B1434434049424N00452992WA0267402875
B1434444049429N00452983WA0267102873
B1434454049434N00452973WA0267102871
B1434464049439N00452963WA0266902870
B1434474049444N00452953WA0266802869
B1434484049448N00452943WA0266702868
B1434494049452N00452933WA0266702868
B1434504049457N00452924WA0266602867
B1434514049461N00452916WA0266502866
B1434524049465N00452909WA0266402864
B1434534049468N00452901WA0266102862
B1434544049472N00452892WA0265902861
B1434554049476N00452883WA0266002860
B1434564049479N00452874WA0265902859
B1434574049483N00452865WA0265802858
B1434584049487N00452856WA0265702857
B1434594049491N00452847WA0265702857
B1435004049494N00452838WA0265702857
B1435014049498N00452830WA0265702857
B1435024049501N00452823WA0265502856
B1435034049504N00452814WA0265302854
B1435044049506N00452806WA0265202852
B1435054049510N00452797WA0265002850
B1435064049513N00452788WA0264902848
B1435074049517N00452779WA0264702846
B1435084049521N00452770WA0264602845
B1435094049525N00452762WA0264402844
B1435104049528N00452753WA0264202842
B1435114049532N00452744WA0264102840
B1435124049536N00452735WA0263902838
B1435134049540N00452726WA0263802838
B1435144049544N00452717WA0263902838
B1435154049549N00452709WA0263802837
B1435164049553N00452702WA0263702837
B1435174049557N00452694WA0263602835
B1435184049561N00452687WA0263402834
B1435194049565N00452679WA0263302833
B1435204049569N00452672WA0263102831
B1435214049574N00452665WA0262902829
B1435224049578N00452657WA0262602826
B1435234049581N00452650WA0262402823
B1435244049585N00452642WA0262002820
B1435254049589N00452634WA0261802817
B1435264049593N00452625WA0261602815
B1435274049597N00452617WA0261402813
B1435284049600N00452610WA0261202811
B1435294049603N00452602WA0260902808
B1435304049606N00452595WA0260502805
B1435314049609N00452587WA0260402801
B1435324049612N00452579WA0259902798
B1435334049615N00452571WA0259602795
B1435344049618N00452563WA0259302792
B1435354049621N00452555WA0259002789
B1435364049624N00452547WA0258902785
B1435374049626N00452539WA0258702782
B1435384049629N00452530WA0258402779
B1435394049632N00452522WA0257902776
B1435404049634N00452513WA0257602773
B1435414049636N00452504WA0257402769
B1435424049639N00452495WA0257002766
B1435434049641N00452487WA0256802763
B1435444049643N00452478WA0256602760
B1435454049645N00452469WA0256302757
B1435464049648N00452460WA0255902752
B1435474049650N00452451WA0255502748
B1435484049651N00452441WA0255102746
B1435494049653N00452432WA0255102744
B1435504049654N00452423WA0254802741
B1435514049656N00452415WA0254502737
B1435524049657N00452406WA0254002733
B1435534049658N00452396WA0253602729
B1435544049659N00452386WA0253402725
B1435554049660N00452375WA0253102722
B1435564049662N00452365WA0253102721
B1435574049663N00452356WA0253102721
B1435584049664N00452348WA0253002720
B1435594049666N00452340WA0252802718
B1436004049667N00452332WA0252602715
B1436014049669N00452324WA0252402713
B1436024049671N00452315WA0252402712
B1436034049673N00452307WA0252202711
B1436044049674N00452299WA0252102710
B1436054049676N00452291WA0251902708
B1436064049677N00452282WA0251702706
B1436074049679N00452273WA0251602705
B1436084049680N00452264WA0251602705
B1436094049682N00452255WA0251702705
B1436104049684N00452247WA0251602705
B1436114049686N00452240WA0251602705
B1436124049687N00452232WA0251402704
B1436134049688N00452224WA0251302703
B1436144049689N00452215WA0251202701
B1436154049690N00452207WA0251102700
B1436164049692N00452197WA0250902698
B1436174049693N00452188WA0250802696
B1436184049694N00452178WA0250702696
B1436194049695N00452170WA0250702697
B1436204049695N00452162WA0250702696
B1436214049695N00452154WA0250502696
B1436224049694N00452147WA0250402694
B1436234049694N00452138WA0250302693
B1436244049694N00452130WA0250202691
B1436254049694N00452122WA0250002690
B1436264049694N00452115WA0249802689
B1436274049693N00452109WA0249502687
B1436284049692N00452102WA0249202684
B1436294049692N00452095WA0248802680
B1436304049692N00452086WA0248302676
B1436314049693N00452076WA0248202673
B1436324049694N00452067WA0247902670
B1436334049695N00452058WA0247802669
B1436344049696N00452049WA0247602666
B1436354049697N00452040WA0247302664
B1436364049699N00452032WA0247002661
B1436374049700N00452022WA0246702657
B1436384049702N00452012WA0246402653
B1436394049703N00452002WA0246102650
B1436404049705N00451992WA0245902647
B1436414049706N00451981WA0245602645
B1436424049707N00451971WA0245402643
B1436434049708N00451962WA0245102640
B1436444049708N00451951WA0244902636
B1436454049709N00451941WA0244602633
B1436464049710N00451930WA0244202630
B1436474049712N00451920WA0244002627
B1436484049712N00451909WA0243802625
B1436494049714N00451899WA0243602623
B1436504049715N00451889WA0243302620
B1436514049715N00451880WA0242902617
B1436524049716N00451869WA0242602613
B1436534049717N00451859WA0242302609
B1436544049717N00451848WA0241902606
B1436554049717N00451837WA0241602603
B1436564049717N00451827WA0241402600
B1436574049717N00451816WA0241202597
B1436584049717N00451806WA0241002594
B1436594049716N00451796WA0240602591
B1437004049715N00451786WA0240302588
B1437014049713N00451775WA0240102586
B1437024049711N00451765WA0240002583
B1437034049709N00451754WA0239702581
B1437044049708N00451744WA0239302578
B1437054049706N00451734WA0239102576
B1437064049705N00451723WA0238902573
B1437074049704N00451713WA0238702570
B1437084049703N00451701WA0238602568
B1437094049702N00451690WA0238402566
B1437104049702N00451679WA0238402565
B1437114049702N00451668WA0238102564
B1437124049702N00451658WA0238002563
B1437134049701N00451648WA0237902561
B1437144049701N00451637WA0237802559
B1437154049700N00451626WA0237402556
B1437164049699N00451616WA0237402555
B1437174049698N00451605WA0237302554
B1437184049696N00451594WA0237202554
B1437194049694N00451585WA0237202553
B1437204049692N00451575WA0237102552
B1437214049690N00451565WA0237002551
B1437224049687N00451555WA0236902549
B1437234049684N00451545WA0236902549
B1437244049682N00451535WA0236902550
B1437254049679N00451526WA0237002552
B1437264049675N00451520WA0237102553
B1437274049671N00451515WA0237002554
B1437284049667N00451511WA0236902553
B1437294049663N00451506WA0236802550
B1437304049657N00451501WA0236902550
B1437314049651N00451496WA0236802551
B1437324049646N00451491WA0237002552
B1437334049641N00451487WA0237102553
B1437344049637N00451482WA0237102553
B1437354049633N00451477WA0237002553
B1437364049628N00451472WA0236802552
B1437374049623N00451467WA0236802551
B1437384049618N00451461WA0236702550
B1437394049614N00451454WA0236702549
B1437404049610N00451447WA0236802549
B1437414049608N00451438WA0236902551
B1437424049606N00451430WA0237102553
B1437434049605N00451422WA0237302555
B1437444049604N00451415WA0237502557
B1437454049602N00451408WA0237702559
B1437464049600N00451401WA0237802560
B1437474049599N00451393WA0237902561
B1437484049596N00451385WA0238002563
B1437494049593N00451378WA0238202564
B1437504049590N00451371WA0238102565
B1437514049586N00451365WA0238302565
B1437524049582N00451358WA0238402566
B1437534049578N00451350WA0238602567
B1437544049574N00451342WA0238802570
B1437554049570N00451335WA0239002572
B1437564049566N00451330WA0239102574
B1437574049561N00451324WA0239202575
B1437584049557N00451318WA0239202576
B1437594049555N00451311WA0239202575
B1438004049554N00451301WA0239102574
B1438014049555N00451291WA0239302574
B1438024049558N00451283WA0239502575
B1438034049563N00451277WA0239702577
B1438044049567N00451273WA0240002580
B1438054049571N00451269WA0240302582
B1438064049575N00451266WA0240402583
B1438074049580N00451264WA0240502585
B1438084049585N00451264WA0240802587
B1438094049589N00451265WA0241002589
B1438104049592N00451268WA0241102591
B1438114049593N00451273WA0241202592
B1438124049592N00451279WA0241102594
B1438134049589N00451286WA0241102595
B1438144049584N00451291WA0241402594
B1438154049578N00451295WA0241402595
B1438164049571N00451297WA0241702597
B1438174049564N00451296WA0241902600
B1438184049558N00451294WA0242202604
B1438194049553N00451290WA0242402606
B1438204049549N00451284WA0242502607
B1438214049545N00451277WA0242502608
B1438224049543N00451268WA0242502608
B1438234049543N00451258WA0242402608
B1438244049544N00451248WA0242502608
B1438254049547N00451240WA0242802610
B1438264049551N00451234WA0242902612
B1438274049556N00451228WA0242902613
B1438284049560N00451224WA0243102614
B1438294049565N00451221WA0243202615
B1438304049571N00451220WA0243202616
B1438314049576N00451220WA0243402617
B1438324049582N00451223WA0243602619
B1438334049587N00451226WA0243902621
B1438344049592N00451231WA0244102623
B1438354049595N00451237WA0244502626
B1438364049596N00451244WA0244602628
B1438374049594N00451251WA0244702630
B1438384049589N00451256WA0244802632
B1438394049582N00451259WA0244802633
B1438404049574N00451257WA0244902634
B1438414049567N00451252WA0245102635
B1438424049562N00451244WA0245202636
B1438434049559N00451235WA0245402639
B1438444049558N00451226WA0245502640
B1438454049558N00451218WA0245602641
B1438464049560N00451208WA0245702641
B1438474049562N00451199WA0245702642
B1438484049566N00451191WA0245802643
B1438494049570N00451184WA0245902644
B1438504049575N00451179WA0246102646
B1438514049580N00451175WA0246402649
B1438524049585N00451172WA0246702652
B1438534049590N00451171WA0246802654
B1438544049595N00451171WA0246802655
B1438554049600N00451172WA0246802656
B1438564049606N00451175WA0246802657
B1438574049611N00451180WA0246902658
B1438584049615N00451186WA0246902658
B1438594049618N00451194WA0246902658
B1439004049618N00451202WA0247002658
B1439014049617N00451211WA0246902658
B1439024049614N00451219WA0246902658
B1439034049609N00451226WA0246902658
B1439044049603N00451232WA0247102659
B1439054049596N00451235WA0247102660
B1439064049590N00451236WA0247202661
B1439074049583N00451236WA0247402663
B1439084049577N00451235WA0247502663
B1439094049570N00451232WA0247602665
B1439104049564N00451228WA0247702666
B1439114049559N00451223WA0247902667
B1439124049554N00451217WA0248002668
B1439134049549N00451212WA0248202670
B1439144049543N00451209WA0248202671
B1439154049538N00451208WA0248102670
B1439164049532N00451207WA0248102669
B1439174049526N00451205WA0248002668
B1439184049519N00451201WA0248002667
B1439194049513N00451195WA0248002667
B1439204049508N00451188WA0248202668
B1439214049504N00451181WA0248402670
B1439224049501N00451175WA0248502672
B1439234049497N00451169WA0248602673
B1439244049493N00451166WA0248502675
B1439254049487N00451163WA0248302675
B1439264049481N00451161WA0248302673
B1439274049476N00451157WA0248502674
B1439284049471N00451151WA0248502674
B1439294049468N00451143WA0248702676
B1439304049465N00451136WA0248802678
B1439314049463N00451129WA0248802679
B1439324049461N00451122WA0248802678
B1439334049460N00451115WA0248602677
B1439344049461N00451106WA0248502675
B1439354049464N00451098WA0248502675
B1439364049469N00451091WA0248502674
B1439374049474N00451087WA0248502674
B1439384049479N00451085WA0248502674
B1439394049484N00451084WA0248602675
B1439404049489N00451084WA0248502675
B1439414049493N00451085WA0248502675
B1439424049498N00451087WA0248602675
B1439434049502N00451090WA0248602674
B1439444049506N00451093WA0248502674
B1439454049510N00451097WA0248602674
B1439464049513N00451100WA0248502674
B1439474049516N00451104WA0248502674
B1439484049518N00451106WA0248402674
B1439494049520N00451110WA0248202672
B1439504049522N00451115WA0248202671
B1439514049523N00451120WA0248202670
B1439524049525N00451126WA0248102670
B1439534049527N00451131WA0248202670
B1439544049530N00451135WA0248202670
B1439554049533N00451138WA0248202670
B1439564049537N00451140WA0248202670
B1439574049541N00451141WA0248202670
B1439584049546N00451141WA0248202669
B1439594049551N00451140WA0248202669
B1440004049558N00451138WA0248202668
B1440014049564N00451136WA0248202669
B1440024049569N00451133WA0248202669
B1440034049575N00451130WA0248002669
B1440044049580N00451129WA0248002669
B1440054049584N00451129WA0247902668
B1440064049589N00451131WA0247702667
B1440074049592N00451135WA0247502665
B1440084049595N00451141WA0247202663
B1440094049598N00451149WA0247002659
B1440104049600N00451157WA0246802657
B1440114049601N00451165WA0246702656
B1440124049601N00451173WA0246602654
B1440134049599N00451181WA0246402653
B1440144049596N00451189WA0246202651
B1440154049593N00451197WA0246102649
B1440164049588N00451204WA0245902648
B1440174049584N00451211WA0245902647
B1440184049579N00451217WA0245902646
B1440194049574N00451223WA0246002647
B1440204049569N00451228WA0246002647
B1440214049565N00451234WA0245902647
B1440224049562N00451240WA0245702646
B1440234049558N00451247WA0245702644
B1440244049555N00451254WA0245602643
B1440254049551N00451260WA0245702643
B1440264049546N00451265WA0245602644
B1440274049541N00451269WA0245602644
B1440284049537N00451273WA0245602643
B1440294049532N00451276WA0245502642
B1440304049528N00451279WA0245302641
B1440314049522N00451282WA0245302640
B1440324049516N00451284WA0245202639
B1440334049510N00451283WA0245202639
B1440344049504N00451281WA0245202639
B1440354049498N00451279WA0245002639
B1440364049493N00451277WA0245002638
B1440374049487N00451274WA0244802637
B1440384049482N00451271WA0244702634
B1440394049477N00451266WA0244502632
B1440404049473N00451260WA0244302630
B1440414049469N00451253WA0243902627
B1440424049465N00451245WA0243602624
B1440434049461N00451236WA0243602621
B1440444049456N00451228WA0243402620
B1440454049452N00451221WA0243202618
B1440464049449N00451215WA0243102616
B1440474049445N00451209WA0242802613
B1440484049441N00451202WA0242502610
B1440494049436N00451196WA0242302607
B1440504049431N00451191WA0242102604
B1440514049426N00451186WA0241902602
B1440524049420N00451181WA0241802601
B1440534049415N00451178WA0241602599
B1440544049409N00451174WA0241502596
B1440554049403N00451171WA0241302594
B1440564049397N00451166WA0241102592
B1440574049392N00451160WA0240902590
B1440584049387N00451154WA0240902590
B1440594049382N00451147WA0240902590
B1441004049377N00451141WA0240902590
B1441014049371N00451137WA0240902589
B1441024049365N00451135WA0240902589
B1441034049358N00451135WA0240702588
B1441044049352N00451137WA0240802588
B1441054049345N00451140WA0240802588
B1441064049338N00451141WA0241002589
B1441074049331N00451143WA0241102591
B1441084049325N00451145WA0241202592
B1441094049319N00451146WA0241402595
B1441104049313N00451146WA0241602598
B1441114049307N00451147WA0241802600
B1441124049302N00451146WA0241802601
B1441134049296N00451145WA0241802601
B1441144049289N00451144WA0241902601
B1441154049282N00451141WA0242002601
B1441164049275N00451137WA0242202603
B1441174049268N00451135WA0242502607
B1441184049262N00451132WA0242902611
B1441194049256N00451130WA0243202614
B1441204049250N00451127WA0243302616
B1441214049244N00451124WA0243502617
B1441224049238N00451120WA0243702619
B1441234049231N00451117WA0243902621
B1441244049223N00451115WA0244302625
B1441254049216N00451112WA0244802629
B1441264049209N00451110WA0245102633
B1441274049202N00451106WA0245402636
B1441284049196N00451100WA0245802640
B1441294049191N00451094WA0246202644
B1441304049187N00451087WA0246602648
B1441314049184N00451078WA0246802652
B1441324049183N00451071WA0246802655
B1441334049184N00451063WA0247002658
B1441354049194N00451050WA0247202658
B1441364049196N00451047WA0247302658
B1441364049198N00451045WA0247402659
B1441374049202N00451041WA0247502661
B1441384049207N00451039WA0247802662
B1441394049211N00451040WA0247902664
B1441404049214N00451044WA0248002665
B1441414049216N00451049WA0248202666
B1441424049215N00451056WA0248302667
B1441434049213N00451063WA0248302669
B1441444049209N00451069WA0248502670
B1441454049204N00451073WA0248602671
B1441464049198N00451077WA0248802673
B1441474049192N00451080WA0249102677
B1441484049185N00451082WA0249602682
B1441494049179N00451082WA0250002686
B1441504049173N00451080WA0250402690
B1441514049168N00451076WA0250802694
B1441524049164N00451070WA0251002697
B1441534049161N00451063WA0251002700
B1441544049160N00451055WA0251102703
B1441554049160N00451048WA0251202704
B1441564049162N00451041WA0251302705
B1441574049164N00451035WA0251402705
B1441584049167N00451030WA0251502706
B1441594049171N00451026WA0251702707
B1442004049175N00451025WA0251802709
B1442014049178N00451026WA0251802709
B1442024049181N00451030WA0251702710
B1442034049183N00451035WA0252002710
B1442044049184N00451041WA0252002711
B1442054049185N00451047WA0252102713
B1442064049186N00451053WA0252102714
B1442074049187N00451058WA0252202714
B1442084049186N00451065WA0252302714
B1442094049185N00451072WA0252402715
B1442104049184N00451080WA0252502717
B1442114049183N00451087WA0252802719
B1442124049181N00451094WA0253102721
B1442134049179N00451101WA0253502725
B1442144049176N00451107WA0253902729
B1442154049174N00451113WA0254302733
B1442164049170N00451119WA0254802737
B1442174049166N00451123WA0255002741
B1442184049160N00451124WA0255302743
B1442194049154N00451123WA0255502746
B1442204049147N00451120WA0256002749
B1442214049142N00451112WA0256302753
B1442224049139N00451103WA0256402757
B1442234049140N00451094WA0256802761
B1442244049144N00451086WA0257202765
B1442254049149N00451081WA0257602770
B1442264049154N00451079WA0258102775
B1442274049160N00451080WA0258502779
B1442284049165N00451083WA0258702782
B1442294049168N00451090WA0259002785
B1442304049169N00451097WA0259202788
B1442314049169N00451105WA0259602793
B1442324049164N00451111WA0260002796
B1442334049160N00451116WA0260302800
B1442344049154N00451119WA0260602803
B1442354049148N00451118WA0260802806
B1442364049142N00451115WA0261102809
B1442374049138N00451110WA0261402812
B1442384049134N00451102WA0261702815
B1442394049133N00451093WA0262102818
B1442404049134N00451084WA0262502822
B1442414049137N00451077WA0262902826
B1442424049141N00451071WA0263102828
B1442434049145N00451067WA0263402830
B1442444049151N00451064WA0263602833
B1442454049157N00451064WA0264002836
B1442464049163N00451065WA0264102837
B1442474049168N00451068WA0264302839
B1442484049173N00451072WA0264502842
B1442494049177N00451077WA0264702844
B1442504049180N00451083WA0264802845
B1442514049182N00451090WA0264902847
B1442524049184N00451098WA0265102848
B1442534049184N00451105WA0265302850
B1442544049183N00451113WA0265402852
B1442554049181N00451120WA0265602854
B1442564049178N00451127WA0265802856
B1442574049174N00451133WA0265902857
B1442584049168N00451137WA0266302859
B1442594049163N00451141WA0266602862
B1443004049156N00451144WA0266802866
B1443014049150N00451146WA0267302870
B1443024049144N00451149WA0267702874
B1443034049138N00451151WA0268102879
B1443044049132N00451153WA0268502884
B1443054049126N00451154WA0268902888
B1443064049121N00451153WA0269102891
B1443074049115N00451149WA0269302894
B1443084049111N00451143WA0269602896
B1443094049107N00451135WA0270002900
B1443104049104N00451128WA0270402904
B1443114049102N00451120WA0270802909
B1443124049102N00451112WA0271102913
B1443134049104N00451105WA0271302916
B1443144049108N00451100WA0271602919
B1443154049112N00451095WA0271802921
B1443164049116N00451090WA0272002923
B1443174049121N00451086WA0272202924
B1443184049127N00451083WA0272602928
B1443194049132N00451082WA0272902932
B1443204049137N00451085WA0273102936
B1443214049140N00451090WA0273402939
B1443224049142N00451096WA0273602941
B1443234049141N00451104WA0273702943
B1443244049137N00451110WA0273802945
B1443254049132N00451114WA0274002947
B1443264049127N00451115WA0274202949
B1443274049121N00451113WA0274402951
B1443284049116N00451108WA0274602953
B1443294049112N00451102WA0274802956
B1443304049110N00451095WA0275102958
B1443314049109N00451088WA0275202960
B1443324049109N00451082WA0275302960
B1443334049112N00451075WA0275402961
B1443344049115N00451068WA0275502961
B1443354049120N00451063WA0275702963
B1443364049125N00451058WA0275902965
B1443374049131N00451055WA0276102967
B1443384049137N00451054WA0276202968
B1443394049143N00451053WA0276302970
B1443404049148N00451053WA0276302971
B1443414049153N00451056WA0276302971
B1443424049159N00451061WA0276402971
B1443434049164N00451066WA0276502971
B1443444049169N00451070WA0276602973
B1443454049173N00451075WA0276702974
B1443464049177N00451079WA0276702974
B1443474049180N00451085WA0276802975
B1443484049183N00451092WA0276702975
B1443494049184N00451099WA0276802975
B1443504049184N00451108WA0276902975
B1443514049183N00451115WA0277102977
B1443524049181N00451121WA0277302979
B1443534049178N00451127WA0277402982
B1443544049175N00451133WA0277702985
B1443554049174N00451139WA0278002988
B1443564049173N00451146WA0278402991
B1443574049173N00451152WA0278902995
B1443584049172N00451158WA0279302999
B1443594049170N00451163WA0279603003
B1444004049167N00451167WA0279803005
B1444014049162N00451170WA0279903008
B1444024049156N00451170WA0280203010
B1444034049150N00451168WA0280503013
B1444044049146N00451166WA0280903018
B1444054049142N00451163WA0281303021
B1444064049140N00451159WA0281403023
B1444074049137N00451154WA0281603024
B1444084049135N00451147WA0281803026
B1444094049134N00451139WA0281903027
B1444104049135N00451131WA0282103029
B1444114049138N00451125WA0282303032
B1444124049142N00451121WA0282503033
B1444134049147N00451119WA0282703035
B1444144049153N00451120WA0282903036
B1444154049159N00451124WA0283103038
B1444164049164N00451128WA0283403041
B1444174049169N00451133WA0283803045
B1444184049172N00451139WA0284103048
B1444194049175N00451145WA0284303051
B1444204049176N00451152WA0284603055
B1444214049174N00451157WA0285003058
B1444224049171N00451161WA0285103059
B1444234049165N00451162WA0285303061
B1444244049160N00451160WA0285603063
B1444254049156N00451156WA0285803067
B1444264049153N00451150WA0286303069
B1444274049152N00451143WA0286503073
B1444284049153N00451136WA0286803077
B1444294049155N00451130WA0287003079
B1444304049158N00451123WA0287303082
B1444314049161N00451118WA0287603085
B1444324049165N00451114WA0287703087
B1444334049170N00451110WA0287803089
B1444344049176N00451107WA0288103091
B1444354049182N00451106WA0288203093
B1444364049188N00451106WA0288403096
B1444374049194N00451107WA0288603097
B1444384049199N00451108WA0288703099
B1444394049204N00451111WA0288603099
B1444404049207N00451117WA0288403098
B1444414049211N00451124WA0288403097
B1444424049214N00451131WA0288403096
B1444434049216N00451141WA0288403096
B1444444049217N00451150WA0288403097
B1444454049217N00451158WA0288603098
B1444464049218N00451166WA0288703099
B1444474049219N00451174WA0288803100
B1444484049220N00451181WA0289003102
B1444494049223N00451188WA0289203104
B1444504049226N00451194WA0289403106
B1444514049231N00451199WA0289703109
B1444524049235N00451204WA0290003111
B1444534049240N00451209WA0290203113
B1444544049245N00451214WA0290503116
B1444554049249N00451219WA0290903120
B1444564049253N00451223WA0291203124
B1444574049255N00451228WA0291403126
B1444584049255N00451234WA0291503126
B1444594049254N00451241WA0291603128
B1445004049250N00451246WA0291903131
B1445014049245N00451250WA0292103133
B1445024049240N00451250WA0292303136
B1445034049234N00451247WA0292703138
B1445044049230N00451242WA0293003141
B1445054049228N00451235WA0293103144
B1445064049229N00451227WA0293303147
B1445074049232N00451220WA0293503149
B1445084049239N00451216WA0293703151
B1445094049246N00451215WA0293703152
B1445104049253N00451219WA0294003154
B1445114049258N00451226WA0294303156
B1445124049260N00451235WA0294503159
B1445134049259N00451243WA0294703161
B1445144049255N00451250WA0294803162
B1445154049250N00451253WA0295003164
B1445164049244N00451254WA0295203167
B1445174049239N00451252WA0295503170
B1445184049235N00451250WA0295803173
B1445194049232N00451246WA0296103176
B1445204049229N00451242WA0296303179
B1445214049227N00451237WA0296503180
B1445224049226N00451231WA0296703182
B1445234049225N00451224WA0296903185
B1445244049226N00451217WA0297103187
B1445254049228N00451210WA0297303189
B1445264049232N00451204WA0297403191
B1445274049237N00451199WA0297603192
B1445284049243N00451196WA0297803194
B1445294049250N00451195WA0297903196
B1445304049257N00451196WA0298203198
B1445314049263N00451198WA0298403200
B1445324049269N00451202WA0298503201
B1445334049274N00451207WA0298503203
B1445344049278N00451215WA0298803204
B1445354049281N00451223WA0299103206
B1445364049282N00451232WA0299103209
B1445374049283N00451240WA0299503212
B1445384049283N00451247WA0299703215
B1445394049281N00451253WA0299803217
B1445404049279N00451259WA0299903218
B1445414049276N00451263WA0300003220
B1445424049271N00451267WA0300203221
B1445434049266N00451269WA0300403223
B1445444049261N00451269WA0300503225
B1445454049257N00451268WA0300703228
B1445464049253N00451266WA0300903230
B1445474049249N00451265WA0301103232
B1445484049246N00451263WA0301203233
B1445494049242N00451260WA0301203234
B1445504049239N00451257WA0301403235
B1445514049235N00451253WA0301603237
B1445524049230N00451250WA0301703238
B1445534049226N00451248WA0301903241
B1445544049221N00451245WA0302103243
B1445554049216N00451243WA0302303245
B1445564049212N00451239WA0302403247
B1445574049208N00451235WA0302703249
B1445584049205N00451230WA0302903251
B1445594049202N00451225WA0303203254
B1446004049201N00451218WA0303403256
B1446014049199N00451212WA0303603259
B1446024049198N00451206WA0303803261
B1446034049197N00451199WA0304103263
B1446044049198N00451192WA0304303266
B1446054049199N00451185WA0304503269
B1446064049202N00451179WA0304703271
B1446074049206N00451174WA0304703272
B1446084049212N00451172WA0304703273
B1446094049218N00451173WA0304803274
B1446104049225N00451177WA0304903275
B1446114049230N00451183WA0304903275
B1446124049234N00451190WA0305003275
B1446134049235N00451198WA0305103276
B1446144049234N00451206WA0305103278
B1446154049231N00451212WA0305303279
B1446164049226N00451217WA0305503281
B1446174049222N00451221WA0305803283
B1446184049217N00451224WA0306003288
B1446194049212N00451226WA0306503293
B1446204049208N00451227WA0306703296
B1446214049205N00451226WA0306903299
B1446224049202N00451224WA0307003300
B1446234049198N00451221WA0307103301
B1446244049195N00451217WA0307303303
B1446254049193N00451212WA0307403304
B1446264049190N00451208WA0307403305
B1446274049187N00451203WA0307603306
B1446284049185N00451198WA0307703306
B1446294049184N00451193WA0307803307
B1446304049184N00451186WA0307803308
B1446314049185N00451180WA0307903309
B1446324049186N00451174WA0307803309
B1446334049189N00451167WA0307803308
B1446344049192N00451160WA0307703307
B1446354049195N00451154WA0307703307
B1446364049199N00451148WA0307803307
B1446374049203N00451143WA0307803308
B1446384049206N00451138WA0307703307
B1446394049210N00451133WA0307503306
B1446404049214N00451128WA0307403304
B1446414049219N00451123WA0307303302
B1446424049224N00451118WA0307203301
B1446434049228N00451114WA0307203301
B1446444049233N00451109WA0307103300
B1446454049237N00451104WA0307003299
B1446464049241N00451098WA0306803297
B1446474049245N00451092WA0306803296
B1446484049250N00451086WA0306803296
B1446494049255N00451080WA0307003296
B1446504049259N00451073WA0307203298
B1446514049263N00451066WA0307503300
B1446524049265N00451060WA0307603303
B1446534049267N00451055WA0307703305
B1446544049268N00451050WA0307703305
B1446554049268N00451045WA0307603306
B1446564049269N00451038WA0307303306
B1446574049270N00451031WA0307003305
B1446584049272N00451025WA0306903304
B1446594049275N00451017WA0306803300
B1447004049277N00451010WA0306703299
B1447014049280N00451003WA0306703299
B1447024049282N00450996WA0306603298
B1447034049285N00450989WA0306503297
B1447044049288N00450982WA0306303296
B1447054049292N00450975WA0306003294
B1447064049297N00450968WA0305703291
B1447074049302N00450959WA0305703289
B1447084049307N00450951WA0305803288
B1447094049311N00450942WA0305803289
B1447104049315N00450935WA0305903290
B1447114049319N00450928WA0305903290
B1447124049322N00450921WA0305803289
B1447134049326N00450915WA0305603287
B1447144049331N00450908WA0305503285
B1447154049335N00450900WA0305303282
B1447164049340N00450893WA0305103280
B1447174049344N00450884WA0305003279
B1447184049348N00450876WA0304903278
B1447194049352N00450868WA0304803277
B1447204049356N00450860WA0304703276
B1447214049361N00450853WA0304503274
B1447224049365N00450846WA0304403273
B1447234049370N00450839WA0304403272
B1447244049375N00450832WA0304303271
B1447254049380N00450825WA0304103270
B1447264049384N00450818WA0304103268
B1447274049388N00450810WA0303903266
B1447284049392N00450803WA0303703264
B1447294049398N00450798WA0303603263
B1447304049403N00450794WA0303403261
B1447314049409N00450790WA0303203259
B1447324049415N00450786WA0302803255
B1447334049420N00450780WA0302803252
B1447344049425N00450773WA0302403249
B1447354049430N00450765WA0302303247
B1447364049435N00450758WA0302303247
B1447374049440N00450751WA0302203247
B1447384049444N00450746WA0302003246
B1447394049447N00450739WA0301703245
B1447404049451N00450733WA0301503244
B1447414049455N00450724WA0301203240
B1447424049459N00450716WA0301003238
B1447434049464N00450708WA0300903237
B1447444049468N00450701WA0300703236
B1447454049472N00450695WA0300503233
B1447464049475N00450687WA0300303230
B1447474049478N00450680WA0299903227
B1447484049481N00450671WA0299803223
B1447494049484N00450663WA0299403221
B1447504049486N00450655WA0299203219
B1447514049489N00450647WA0299103216
B1447524049492N00450639WA0298903214
B1447534049495N00450631WA0298603211
B1447544049498N00450623WA0298403209
B1447554049501N00450615WA0298203207
B1447564049503N00450607WA0297903205
B1447574049506N00450598WA0297603202
B1447584049508N00450590WA0297303199
B1447594049511N00450582WA0297103196
B1448004049513N00450573WA0296703191
B1448014049515N00450564WA0296203187
B1448024049518N00450554WA0296003183
B1448034049520N00450545WA0295803181
B1448044049524N00450536WA0295503178
B1448054049526N00450527WA0295403176
B1448064049529N00450518WA0295103174
B1448074049532N00450510WA0294803171
B1448084049535N00450501WA0294703168
B1448094049539N00450492WA0294303165
B1448104049542N00450483WA0294103163
B1448114049546N00450475WA0294003161
B1448124049549N00450466WA0293903159
B1448134049552N00450458WA0293703158
B1448144049555N00450450WA0293503156
B1448154049557N00450442WA0293303154
B1448164049559N00450434WA0293003151
B1448174049562N00450426WA0292803148
B1448184049566N00450418WA0292503145
B1448194049570N00450410WA0292303142
B1448204049574N00450402WA0292003139
B1448214049578N00450394WA0291903138
B1448224049582N00450386WA0291703137
B1448234049587N00450378WA0291603135
B1448244049592N00450371WA0291403133
B1448254049596N00450364WA0291203131
B1448264049601N00450357WA0291003129
B1448274049605N00450350WA0290803126
B1448284049610N00450342WA0290503123
B1448294049615N00450333WA0290203120
B1448304049619N00450325WA0290103118
B1448314049624N00450316WA0289903117
B1448324049628N00450308WA0289803116
B1448334049633N00450301WA0289703115
B1448344049637N00450293WA0289503113
B1448354049642N00450285WA0289303110
B1448364049648N00450276WA0289103108
B1448374049654N00450268WA0289003106
B1448384049660N00450260WA0288803104
B1448394049666N00450253WA0288603103
B1448404049673N00450246WA0288503101
B1448414049680N00450239WA0288203099
B1448424049687N00450232WA0287903096
B1448434049694N00450225WA0287703093
B1448444049702N00450217WA0287703090
B1448454049709N00450210WA0287403088
B1448464049717N00450203WA0287203087
B1448474049723N00450196WA0287103086
B1448484049729N00450190WA0287103085
B1448494049735N00450183WA0286903084
B1448504049741N00450177WA0286903082
B1448514049747N00450170WA0286703081
B1448524049753N00450164WA0286603080
B1448534049758N00450157WA0286503079
B1448544049764N00450150WA0286303078
B1448554049770N00450143WA0286103076
B1448564049776N00450136WA0285803073
B1448574049782N00450129WA0285603070
B1448584049789N00450122WA0285303067
B1448594049796N00450115WA0285303065
B1449004049803N00450109WA0285203064
B1449014049810N00450102WA0285103064
B1449024049815N00450097WA0284903063
B1449034049821N00450091WA0284703061
B1449044049827N00450086WA0284503057
B1449054049835N00450080WA0284303055
B1449064049842N00450075WA0284203054
B1449074049849N00450070WA0284203054
B1449084049856N00450066WA0284203054
B1449094049862N00450062WA0284103053
B1449104049868N00450057WA0284003051
B1449114049874N00450053WA0283803049
B1449124049881N00450047WA0283603046
B1449134049888N00450042WA0283503045
B1449144049895N00450037WA0283403044
B1449154049901N00450032WA0283403044
B1449164049907N00450027WA0283303043
B1449174049913N00450022WA0283203043
B1449184049919N00450017WA0283303042
B1449194049925N00450013WA0283203042
B1449204049931N00450009WA0283103042
B1449214049936N00450006WA0283003040
B1449224049942N00450002WA0282803039
B1449234049948N00449998WA0282603037
B1449244049955N00449994WA0282403035
B1449254049961N00449989WA0282203033
B1449264049968N00449984WA0282203032
B1449274049975N00449978WA0282203031
B1449284049981N00449973WA0282103031
B1449294049986N00449967WA0281903029
B1449304049992N00449961WA0281803028
B1449314049999N00449954WA0281603026
B1449324050005N00449947WA0281403025
B1449334050011N00449940WA0281303023
B1449344050017N00449933WA0281203021
B1449354050023N00449926WA0281103020
B1449364050030N00449919WA0281003019
B1449374050035N00449912WA0280903019
B1449384050040N00449906WA0280903019
B1449394050045N00449899WA0280703018
B1449404050051N00449892WA0280403015
B1449414050056N00449885WA0280203013
B1449424050063N00449879WA0279903010
B1449434050070N00449872WA0279803008
B1449444050077N00449866WA0279603006
B1449454050085N00449859WA0279403004
B1449464050091N00449853WA0279203002
B1449474050098N00449846WA0278802999
B1449484050104N00449839WA0278702996
B1449494050111N00449832WA0278402994
B1449504050117N00449825WA0278402993
B1449514050122N00449818WA0278202992
B1449524050128N00449812WA0278102992
B1449534050133N00449807WA0277902990
B1449544050138N00449801WA0277702988
B1449554050144N00449795WA0277502985
B1449564050150N00449788WA0277302983
B1449574050156N00449782WA0277102981
B1449584050162N00449776WA0276902979
B1449594050169N00449770WA0276602977
B1450004050176N00449765WA0276402975
B1450014050183N00449760WA0276002971
B1450024050191N00449754WA0275802969
B1450034050198N00449748WA0275602966
B1450044050206N00449742WA0275502965
B1450054050214N00449737WA0275402963
B1450064050221N00449732WA0275202961
B1450074050228N00449727WA0274902959
B1450084050236N00449721WA0274802956
B1450094050243N00449716WA0274602955
B1450104050250N00449710WA0274502954
B1450114050257N00449706WA0274402952
B1450124050264N00449702WA0274102950
B1450134050272N00449698WA0273802947
B1450144050279N00449693WA0273502943
B1450154050287N00449688WA0273202940
B1450164050295N00449684WA0273102938
B1450174050303N00449680WA0273002937
B1450184050310N00449676WA0272902936
B1450194050318N00449673WA0272702934
B1450204050325N00449670WA0272502932
B1450214050332N00449666WA0272302930
B1450224050340N00449662WA0272002927
B1450234050347N00449658WA0271902925
B1450244050354N00449653WA0271702923
B1450254050361N00449649WA0271502922
B1450264050367N00449645WA0271602921
B1450274050373N00449640WA0271302919
B1450284050380N00449636WA0271102917
B1450294050386N00449632WA0271102915
B1450304050393N00449628WA0270902913
B1450314050400N00449625WA0270602911
B1450324050407N00449621WA0270402910
B1450334050414N00449616WA0270202907
B1450344050420N00449611WA0270002905
B1450354050427N00449606WA0269902902
B1450364050434N00449601WA0269602900
B1450374050442N00449597WA0269402899
B1450384050449N00449593WA0269302897
B1450394050457N00449589WA0269002895
B1450404050464N00449585WA0268902893
B1450414050472N00449580WA0268802891
B1450424050479N00449576WA0268602890
B1450434050486N00449572WA0268602888
B1450444050494N00449567WA0268502888
B1450454050501N00449564WA0268402887
B1450464050507N00449561WA0268502887
B1450474050514N00449559WA0268402887
B1450484050519N00449556WA0268102884
B1450494050525N00449553WA0267802881
B1450504050531N00449550WA0267402877
B1450514050537N00449546WA0267102873
B1450524050542N00449542WA0266802870
B1450534050548N00449539WA0266602868
B1450544050553N00449536WA0266302864
B1450554050558N00449532WA0265902860
B1450564050563N00449529WA0265302855
B1450574050569N00449525WA0264902851
B1450584050575N00449521WA0264702847
B1450594050580N00449517WA0264502844
B1451004050585N00449514WA0264302842
B1451014050590N00449511WA0264002839
B1451024050594N00449509WA0263702835
B1451034050599N00449506WA0263402830
B1451044050604N00449503WA0263002827
B1451054050609N00449499WA0262702824
B1451064050614N00449496WA0262402821
B1451074050618N00449492WA0262102817
B1451084050622N00449489WA0261702813
B1451094050627N00449485WA0261202809
B1451104050631N00449481WA0260602804
B1451114050636N00449477WA0260202798
B1451124050640N00449473WA0259802793
B1451134050645N00449468WA0259502790
B1451144050649N00449464WA0259302787
B1451154050652N00449459WA0259102785
B1451164050654N00449455WA0259002783
B1451174050657N00449450WA0258702781
B1451184050660N00449446WA0258402778
B1451194050664N00449440WA0258202775
B1451204050667N00449435WA0258102774
B1451214050671N00449431WA0257902772
B1451224050674N00449426WA0257802770
B1451234050677N00449421WA0257602769
B1451244050681N00449417WA0257502767
B1451254050684N00449413WA0257302766
B1451264050687N00449408WA0257002764
B1451274050691N00449403WA0256702760
B1451284050695N00449397WA0256402757
B1451294050699N00449392WA0256302755
B1451304050703N00449386WA0256202754
B1451314050707N00449380WA0256102753
B1451324050711N00449374WA0256002751
B1451334050715N00449369WA0255902751
B1451344050719N00449363WA0255802750
B1451354050722N00449358WA0255702748
B1451364050725N00449352WA0255702747
B1451374050728N00449345WA0255702747
B1451384050731N00449338WA0255802748
B1451394050732N00449332WA0255802748
B1451404050733N00449326WA0255902749
B1451414050734N00449321WA0255802749
B1451424050735N00449315WA0255702747
B1451434050736N00449310WA0255602746
B1451444050738N00449304WA0255502744
B1451454050740N00449298WA0255302742
B1451464050742N00449292WA0255202740
B1451474050746N00449286WA0255202739
B1451484050749N00449280WA0255202739
B1451494050752N00449273WA0255102739
B1451504050755N00449267WA0255402740
B1451514050757N00449262WA0255602741
B1451524050759N00449257WA0255702745
B1451554050761N00449245WA0255702747
B1451554050762N00449242WA0255602747
B1451564050762N00449239WA0255602748
B1451594050770N00449221WA0255802749
B1451594050772N00449218WA0255802750
B1452004050773N00449216WA0255802750
B1452014050775N00449212WA0255802749
B1452024050777N00449207WA0255702747
B1452034050780N00449202WA0255502746
B1452044050782N00449197WA0255402745
B1452054050785N00449191WA0255402744
B1452064050789N00449185WA0255302743
B1452074050793N00449180WA0255302743
B1452084050797N00449175WA0255302743
B1452094050801N00449171WA0255302743
B1452104050805N00449167WA0255302743
B1452114050810N00449163WA0255202742
B1452124050815N00449160WA0255202742
B1452134050820N00449157WA0255302742
B1452144050826N00449155WA0255302742
B1452154050831N00449152WA0255102742
B1452164050837N00449149WA0255302742
B1452174050842N00449146WA0255302743
B1452184050846N00449142WA0255302743
B1452194050851N00449139WA0255302743
B1452204050854N00449134WA0255202743
B1452214050858N00449129WA0255202742
B1452224050861N00449123WA0255102742
B1452234050864N00449117WA0255202742
B1452244050866N00449111WA0255002742
B1452254050869N00449106WA0254902741
B1452264050872N00449101WA0254802740
B1452274050874N00449095WA0254502739
B1452284050876N00449088WA0254202735
B1452294050879N00449080WA0254102733
B1452304050882N00449073WA0254102732
B1452314050885N00449068WA0253902732
B1452324050889N00449063WA0253802731
B1452334050892N00449059WA0253502729
B1452344050895N00449054WA0253102726
B1452354050900N00449049WA0252702722
B1452364050908N00449040WA0252302719
B1452384050915N00449032WA0252202717
B1452384050917N00449030WA0252102717
B1452394050918N00449027WA0252002716
B1452404050922N00449021WA0251702714
B1452414050925N00449016WA0251402712
B1452424050928N00449010WA0251102708
B1452434050932N00449003WA0250802705
B1452444050936N00448995WA0250702703
B1452454050940N00448988WA0250702703
B1452464050944N00448983WA0250502701
B1452474050948N00448977WA0250302699
B1452484050952N00448972WA0250202697
B1452494050956N00448966WA0250102696
B1452504050961N00448961WA0250102695
B1452514050965N00448956WA0250002695
B1452534050973N00448946WA0249802693
B1452534050976N00448944WA0249802692
B1452544050978N00448942WA0249602691
B1452554050982N00448937WA0249502689
B1452574050993N00448926WA0249202685
B1452574050996N00448924WA0249102685
B1452584050999N00448921WA0249102684
B1452594051004N00448916WA0249202685
B1453004051009N00448912WA0249202685
B1453014051014N00448907WA0249202685
B1453024051019N00448903WA0249302685
B1453034051023N00448898WA0249202685
B1453044051028N00448892WA0249102684
B1453054051033N00448886WA0249102684
B1453064051038N00448881WA0249102684
B1453074051043N00448875WA0248902683
B1453084051048N00448869WA0248902682
B1453094051054N00448864WA0248902680
B1453104051059N00448858WA0248602679
B1453114051065N00448853WA0248502678
B1453124051070N00448847WA0248402677
B1453134051075N00448840WA0248302676
B1453144051079N00448834WA0248202674
B1453154051084N00448827WA0248002672
B1453164051089N00448821WA0247902671
B1453174051093N00448815WA0247902670
B1453184051097N00448808WA0247902671
B1453194051101N00448803WA0248102672
B1453204051105N00448797WA0248202673
B1453214051108N00448792WA0248202674
B1453224051110N00448786WA0248302675
B1453234051111N00448781WA0248202675
B1453244051113N00448775WA0248202674
B1453254051115N00448768WA0248102673
B1453264051118N00448761WA0248002672
B1453274051121N00448754WA0247902672
B1453284051124N00448748WA0248002672
B1453294051127N00448740WA0248102672
B1453304051130N00448733WA0248102672
B1453314051133N00448726WA0248202673
B1453324051136N00448719WA0248202673
B1453334051138N00448711WA0248302674
B1453344051140N00448704WA0248302674
B1453354051142N00448697WA0248102673
B1453364051142N00448689WA0247902672
B1453374051143N00448680WA0247902671
B1453384051145N00448672WA0247702669
B1453394051147N00448663WA0247602667
B1453404051150N00448655WA0247502666
B1453414051153N00448648WA0247302664
B1453424051156N00448641WA0247202663
B1453434051159N00448634WA0247002660
B1453444051163N00448625WA0247102659
B1453454051166N00448617WA0246902659
B1453464051169N00448610WA0247102659
B1453474051173N00448605WA0247102660
B1453484051176N00448600WA0247102660
B1453494051179N00448594WA0247002659
B1453504051182N00448587WA0247102659
B1453514051185N00448581WA0247102659
B1453524051188N00448574WA0247102659
B1453534051191N00448567WA0247102659
B1453544051194N00448560WA0247202660
B1453554051196N00448552WA0247202660
B1453564051199N00448544WA0247302660
B1453574051201N00448537WA0247402661
B1453584051204N00448529WA0247402662
B1453594051206N00448520WA0247502663
B1454004051207N00448512WA0247602663
B1454014051208N00448503WA0247602663
B1454024051209N00448494WA0247602664
B1454034051210N00448485WA0247602664
B1454044051211N00448476WA0247702664
B1454054051212N00448466WA0247802665
B1454064051212N00448457WA0247902666
B1454074051211N00448448WA0247902667
B1454084051209N00448438WA0248002667
B1454094051208N00448429WA0248102668
B1454104051206N00448419WA0248302670
B1454114051206N00448410WA0248502671
B1454124051204N00448401WA0248602673
B1454134051203N00448392WA0248702675
B1454144051201N00448385WA0248902676
B1454154051198N00448377WA0249002677
B1454164051194N00448370WA0249002678
B1454174051188N00448365WA0248902677
B1454184051181N00448361WA0249002677
B1454194051174N00448360WA0249302679
B1454204051168N00448362WA0249402681
B1454214051163N00448366WA0249502683
B1454224051160N00448372WA0249402684
B1454234051160N00448379WA0249502684
B1454244051162N00448386WA0249502685
B1454254051167N00448391WA0249602685
B1454264051173N00448393WA0249702686
B1454274051179N00448392WA0249902688
B1454284051184N00448391WA0250102690
B1454294051189N00448390WA0250302693
B1454304051193N00448389WA0250302694
B1454314051198N00448388WA0250402693
B1454324051203N00448385WA0250302693
B1454334051208N00448379WA0250402692
B1454344051213N00448373WA0250502694
B1454354051218N00448367WA0250702696
B1454364051222N00448361WA0250902698
B1454374051226N00448356WA0251002699
B1454384051230N00448350WA0251002699
B1454394051233N00448342WA0251002698
B1454404051236N00448333WA0250902697
B1454414051237N00448323WA0251102697
B1454424051237N00448311WA0251202698
B1454434051238N00448301WA0251402700
B1454444051238N00448292WA0251602703
B1454454051239N00448283WA0251602704
B1454464051239N00448274WA0251602703
B1454474051238N00448264WA0251702703
B1454484051235N00448255WA0251602702
B1454494051228N00448247WA0251602702
B1454504051222N00448241WA0251802703
B1454514051216N00448237WA0252102706
B1454524051210N00448233WA0252202709
B1454534051205N00448230WA0252302708
B1454544051200N00448228WA0252302707
B1454554051194N00448229WA0252002706
B1454564051187N00448231WA0251902705
B1454574051181N00448234WA0251902705
B1454584051179N00448243WA0252002706
B1454594051178N00448251WA0252202707
B1455004051178N00448258WA0252402709
B1455014051178N00448263WA0252502711
B1455024051178N00448268WA0252602712
B1455034051179N00448273WA0252702713
B1455044051181N00448277WA0252702713
B1455054051184N00448281WA0252802714
B1455064051187N00448284WA0253002715
B1455074051191N00448287WA0252902716
B1455084051196N00448287WA0253102717
B1455094051202N00448286WA0253202718
B1455104051207N00448282WA0253402720
B1455114051212N00448279WA0253502722
B1455124051217N00448277WA0253602723
B1455134051221N00448273WA0253302723
B1455144051225N00448269WA0253202722
B1455154051229N00448263WA0253102721
B1455164051232N00448256WA0253102720
B1455174051236N00448248WA0253002719
B1455184051239N00448240WA0253102719
B1455194051243N00448232WA0253202720
B1455204051246N00448225WA0253402723
B1455214051248N00448218WA0253502725
B1455224051250N00448211WA0253502726
B1455234051250N00448204WA0253402727
B1455244051249N00448196WA0253202727
B1455254051246N00448187WA0253102727
B1455264051241N00448178WA0253202726
B1455274051236N00448171WA0253402728
B1455284051230N00448166WA0253502729
B1455294051224N00448161WA0253602730
B1455304051219N00448157WA0253802731
B1455314051213N00448151WA0253802731
B1455324051209N00448145WA0253802732
B1455334051205N00448138WA0253802732
B1455344051201N00448131WA0253702731
B1455354051196N00448125WA0253602730
B1455364051189N00448121WA0253502728
B1455374051182N00448120WA0253402727
B1455384051175N00448122WA0253502727
B1455394051170N00448125WA0253502728
B1455404051165N00448128WA0253702729
B1455414051160N00448131WA0253702729
B1455424051156N00448134WA0253702728
B1455434051151N00448139WA0253502727
B1455444051147N00448145WA0253502726
B1455454051144N00448151WA0253502727
B1455464051141N00448158WA0253702728
B1455474051138N00448164WA0253902730
B1455484051135N00448170WA0254002732
B1455494051133N00448175WA0254202733
B1455504051131N00448181WA0254102732
B1455514051129N00448186WA0254102732
B1455524051127N00448193WA0254102732
B1455534051125N00448199WA0254002731
B1455544051123N00448205WA0253902730
B1455554051121N00448212WA0253902730
B1455564051119N00448218WA0253802729
B1455574051117N00448224WA0253702729
B1455584051115N00448230WA0253702728
B1455594051113N00448236WA0253602727
B1456004051110N00448242WA0253602727
B1456014051107N00448248WA0253602726
B1456024051104N00448254WA0253602727
B1456034051101N00448260WA0253602727
B1456044051098N00448266WA0253702728
B1456054051095N00448271WA0253702727
B1456064051092N00448277WA0253602726
B1456074051089N00448283WA0253502725
B1456084051085N00448289WA0253602725
B1456094051081N00448295WA0253502724
B1456104051076N00448300WA0253502724
B1456114051071N00448305WA0253502724
B1456124051066N00448309WA0253502724
B1456134051062N00448315WA0253402723
B1456144051058N00448320WA0253402723
B1456154051053N00448326WA0253502723
B1456164051049N00448331WA0253502723
B1456174051044N00448337WA0253602724
B1456184051040N00448342WA0253602725
B1456194051035N00448348WA0253702726
B1456204051031N00448353WA0253802727
B1456214051027N00448357WA0253902729
B1456224051022N00448362WA0254002730
B1456234051018N00448366WA0254102731
B1456244051014N00448370WA0254102732
B1456254051011N00448377WA0254202732
B1456264051008N00448384WA0254302733
B1456274051005N00448392WA0254502735
B1456284051003N00448398WA0254602737
B1456294051001N00448403WA0254602738
B1456304051000N00448409WA0254302738
B1456314051000N00448416WA0254202738
B1456324051004N00448423WA0254102737
B1456334051009N00448430WA0254002737
B1456344051015N00448435WA0254002737
B1456354051020N00448437WA0253902737
B1456364051026N00448439WA0253902736
B1456374051032N00448440WA0253902735
B1456384051039N00448440WA0254002735
B1456394051045N00448439WA0254102736
B1456404051052N00448438WA0254202737
B1456414051058N00448437WA0254202738
B1456424051063N00448436WA0254302739
B1456434051069N00448434WA0254402739
B1456444051074N00448430WA0254202738
B1456454051077N00448423WA0254302737
B1456464051080N00448415WA0254302737
B1456474051082N00448407WA0254402737
B1456484051082N00448399WA0254502739
B1456494051083N00448392WA0254502739
B1456504051084N00448386WA0254602739
B1456514051086N00448379WA0254602739
B1456524051089N00448372WA0254602739
B1456534051093N00448365WA0254602739
B1456544051096N00448359WA0254602740
B1456554051099N00448352WA0254502740
B1456564051100N00448344WA0254402739
B1456574051101N00448336WA0254302737
B1456584051102N00448327WA0254202736
B1456594051103N00448317WA0254002735
B1457004051105N00448308WA0254002734
B1457014051107N00448299WA0254002734
B1457024051110N00448291WA0253902734
B1457034051112N00448284WA0253902733
B1457044051116N00448276WA0253802732
B1457054051120N00448270WA0253702731
B1457064051125N00448265WA0253502729
B1457074051131N00448262WA0253502728
B1457084051136N00448258WA0253502728
B1457094051142N00448255WA0253502727
B1457104051146N00448253WA0253502727
B1457114051151N00448250WA0253502727
B1457124051155N00448248WA0253402725
B1457134051160N00448246WA0253202723
B1457144051165N00448243WA0253202722
B1457154051170N00448239WA0253202722
B1457164051176N00448235WA0253402723
B1457174051180N00448231WA0253702724
B1457184051184N00448228WA0253902725
B1457194051187N00448226WA0253802727
B1457204051191N00448224WA0253902728
B1457214051195N00448222WA0254002728
B1457224051200N00448220WA0253902727
B1457234051205N00448218WA0253902728
B1457244051209N00448216WA0254002728
B1457254051214N00448213WA0253902728
B1457264051219N00448209WA0254002728
B1457274051224N00448204WA0254102729
B1457284051228N00448198WA0254102730
B1457294051232N00448191WA0254202732
B1457304051235N00448185WA0254302733
B1457314051238N00448179WA0254402734
B1457324051243N00448174WA0254402735
B1457334051247N00448169WA0254402736
B1457344051252N00448165WA0254602737
B1457354051257N00448162WA0254602738
B1457364051261N00448158WA0254702739
B1457374051266N00448155WA0254702739
B1457384051272N00448153WA0254702739
B1457394051278N00448149WA0254702739
B1457404051283N00448146WA0254802740
B1457414051289N00448142WA0254902742
B1457424051294N00448138WA0255002743
B1457434051299N00448135WA0255202745
B1457444051305N00448132WA0255202746
B1457454051310N00448128WA0255402747
B1457464051315N00448125WA0255602749
B1457474051320N00448122WA0255802751
B1457484051324N00448120WA0256002755
B1457494051327N00448116WA0256202757
B1457504051331N00448113WA0256302758
B1457514051334N00448111WA0256402759
B1457524051339N00448110WA0256402759
B1457534051343N00448112WA0256402759
B1457544051347N00448115WA0256302759
B1457554051350N00448120WA0256302759
B1457564051353N00448124WA0256502760
B1457574051356N00448127WA0256502761
B1457584051360N00448128WA0256602762
B1457594051364N00448128WA0256602760
B1458004051369N00448127WA0256502760
B1458014051374N00448124WA0256402759
B1458024051379N00448120WA0256402758
B1458034051385N00448115WA0256502759
B1458044051390N00448112WA0256602760
B1458054051395N00448108WA0256602761
B1458064051399N00448104WA0256602761
B1458074051404N00448101WA0256502760
B1458084051408N00448097WA0256402759
B1458094051414N00448092WA0256402758
B1458104051418N00448087WA0256302757
B1458114051423N00448081WA0256302757
B1458124051427N00448075WA0256102756
B1458134051431N00448069WA0256002755
B1458144051435N00448063WA0255902754
B1458154051440N00448057WA0255702752
B1458164051444N00448050WA0255702751
B1458174051448N00448044WA0255402751
B1458184051452N00448037WA0255502750
B1458194051456N00448030WA0255502749
B1458204051459N00448023WA0255302748
B1458214051463N00448016WA0255202746
B1458224051467N00448009WA0255102745
B1458234051472N00448002WA0255202745
B1458244051477N00447996WA0255302745
B1458254051481N00447990WA0255302746
B1458264051485N00447984WA0255302746
B1458274051489N00447978WA0255302745
B1458284051492N00447970WA0255102745
B1458294051495N00447963WA0255102744
B1458304051497N00447956WA0255202744
B1458314051500N00447950WA0255102744
B1458324051503N00447944WA0255002743
B1458334051506N00447939WA0254802742
B1458344051511N00447935WA0254702740
B1458354051516N00447931WA0254502738
B1458364051521N00447928WA0254302737
B1458374051526N00447925WA0254102735
B1458384051532N00447922WA0254102733
B1458394051537N00447919WA0253902732
B1458404051543N00447917WA0253802731
B1458414051549N00447915WA0253702730
B1458424051554N00447913WA0253702729
B1458434051560N00447912WA0253802729
B1458444051565N00447910WA0253802729
B1458454051571N00447908WA0253802729
B1458464051576N00447907WA0253602729
B1458474051581N00447906WA0253702728
B1458484051586N00447905WA0253502727
B1458494051591N00447904WA0253402726
B1458504051596N00447901WA0253202724
B1458514051601N00447896WA0253002722
B1458524051607N00447890WA0252802719
B1458534051613N00447884WA0252802719
B1458544051619N00447879WA0252902720
B1458554051624N00447875WA0253002721
B1458564051630N00447871WA0253002721
B1458574051635N00447866WA0253102721
B1458584051641N00447861WA0253102722
B1458594051646N00447857WA0253202722
B1459004051651N00447852WA0253202723
B1459014051656N00447847WA0253302723
B1459024051660N00447842WA0253302724
B1459034051665N00447838WA0253302723
B1459044051670N00447833WA0253202723
B1459054051674N00447828WA0253102722
B1459064051679N00447822WA0253102721
B1459074051685N00447816WA0253102721
B1459084051690N00447810WA0253202722
B1459094051695N00447804WA0253302723
B1459104051699N00447797WA0253502724
B1459114051703N00447791WA0253502726
B1459124051707N00447786WA0253602726
B1459134051711N00447780WA0253702727
B1459144051714N00447775WA0253602727
B1459154051719N00447769WA0253502726
B1459164051723N00447763WA0253402724
B1459174051728N00447756WA0253302723
B1459184051733N00447749WA0253202723
B1459194051736N00447741WA0253302724
B1459204051740N00447735WA0253502725
B1459214051743N00447730WA0253502726
B1459224051746N00447725WA0253502725
B1459234051750N00447720WA0253402724
B1459244051755N00447716WA0253202722
B1459254051760N00447711WA0253002721
B1459264051766N00447706WA0253002720
B1459274051771N00447701WA0252802719
B1459284051776N00447696WA0252702718
B1459294051782N00447690WA0252702717
B1459304051787N00447684WA0252702717
B1459314051793N00447679WA0252802718
B1459324051798N00447675WA0252902719
B1459334051802N00447671WA0253002720
B1459344051806N00447667WA0252902719
B1459354051810N00447664WA0252802718
B1459364051815N00447660WA0252502716
B1459374051820N00447656WA0252502715
B1459384051826N00447652WA0252602715
B1459394051831N00447647WA0252802717
B1459404051836N00447643WA0252902719
B1459414051841N00447640WA0253002721
B1459424051845N00447637WA0253002722
B1459434051850N00447633WA0253002721
B1459444051855N00447630WA0252902721
B1459454051860N00447625WA0252802719
B1459464051865N00447619WA0252702718
B1459474051870N00447614WA0252702718
B1459484051876N00447609WA0252802719
B1459494051881N00447606WA0252902720
B1459504051886N00447603WA0252802720
B1459514051892N00447601WA0252702719
B1459524051897N00447598WA0252502718
B1459534051904N00447595WA0252502716
B1459544051911N00447591WA0252402715
B1459554051918N00447587WA0252302716
B1459564051925N00447585WA0252402717
B1459574051932N00447584WA0252502718
B1459584051938N00447585WA0252602718
B1459594051945N00447586WA0252702719
B1500004051951N00447587WA0252602719
B1500014051958N00447588WA0252702719
B1500024051964N00447589WA0252702719
B1500034051971N00447590WA0252802719
B1500044051978N00447590WA0252902721
B1500054051984N00447590WA0253102723
B1500064051991N00447591WA0253302724
B1500074051997N00447593WA0253502727
B1500084052002N00447596WA0253902731
B1500094052006N00447599WA0254002733
B1500104052010N00447602WA0254102735
B1500114052014N00447607WA0254002736
B1500124052018N00447615WA0254002736
B1500134052020N00447623WA0254102737
B1500144052020N00447632WA0254202738
B1500154052018N00447640WA0254302738
B1500164052013N00447645WA0254302738
B1500174052008N00447647WA0254202737
B1500184052002N00447646WA0254202737
B1500194051997N00447641WA0254402738
B1500204051994N00447635WA0254502739
B1500214051994N00447627WA0254502740
B1500224051996N00447620WA0254702740
B1500234051998N00447613WA0254902742
B1500244052002N00447606WA0254902746
B1500254052005N00447600WA0255202747
B1500264052008N00447595WA0255202748
B1500274052012N00447590WA0255102748
B1500284052016N00447585WA0255302748
B1500294052021N00447579WA0255502750
B1500304052025N00447575WA0255702752
B1500314052029N00447571WA0255802754
B1500324052034N00447569WA0255902755
B1500334052039N00447567WA0256002756
B1500344052043N00447566WA0256002756
B1500354052048N00447565WA0256002756
B1500364052053N00447564WA0255902755
B1500374052058N00447566WA0255902754
B1500384052064N00447568WA0255902754
B1500394052069N00447570WA0255902753
B1500404052074N00447572WA0255902753
B1500414052080N00447572WA0256002754
B1500424052086N00447573WA0256002755
B1500434052092N00447572WA0256002755
B1500444052098N00447572WA0256102756
B1500454052104N00447571WA0256002756
B1500464052110N00447569WA0256002755
B1500474052117N00447568WA0255902754
B1500484052123N00447566WA0256002754
B1500494052130N00447565WA0256002754
B1500504052136N00447564WA0256002755
B1500514052142N00447563WA0256102756
B1500524052147N00447562WA0256102756
B1500534052152N00447562WA0256102755
B1500544052158N00447563WA0256002755
B1500554052163N00447563WA0256002754
B1500564052169N00447562WA0255802753
B1500574052174N00447560WA0255602752
B1500584052179N00447556WA0255402750
B1500594052184N00447553WA0255302748
B1501004052189N00447550WA0255102746
B1501014052194N00447546WA0254902743
B1501024052199N00447542WA0254702741
B1501034052204N00447537WA0254602740
B1501044052210N00447532WA0254602739
B1501054052216N00447528WA0254602739
B1501064052221N00447524WA0254502740
B1501074052226N00447522WA0254502739
B1501084052232N00447520WA0254202737
B1501094052238N00447517WA0254102735
B1501104052245N00447513WA0253902732
B1501114052252N00447510WA0253802731
B1501124052259N00447507WA0253702730
B1501134052265N00447505WA0253702730
B1501144052271N00447502WA0253602729
B1501154052276N00447499WA0253502727
B1501164052282N00447495WA0253302726
B1501174052289N00447491WA0253202724
B1501184052294N00447486WA0253202723
B1501194052301N00447481WA0253002722
B1501204052307N00447476WA0253002722
B1501214052314N00447472WA0252902721
B1501224052321N00447470WA0252902721
B1501234052327N00447468WA0252802720
B1501244052333N00447466WA0252602717
B1501254052340N00447465WA0252102714
B1501264052346N00447463WA0251702709
B1501274052354N00447462WA0251302705
B1501284052362N00447461WA0250702700
B1501294052370N00447460WA0250402696
B1501304052378N00447458WA0250102692
B1501314052385N00447456WA0249602688
B1501324052393N00447454WA0249302683
B1501334052401N00447451WA0248802678
B1501344052409N00447448WA0248502674
B1501354052417N00447445WA0248202671
B1501364052425N00447442WA0247802669
B1501374052432N00447439WA0247502665
B1501384052439N00447437WA0247002661
B1501394052445N00447434WA0246602655
B1501404052452N00447431WA0246202651
B1501414052458N00447427WA0245902649
B1501424052463N00447423WA0245702647
B1501434052467N00447419WA0245402644
B1501444052471N00447416WA0244902640
B1501454052477N00447411WA0244302633
B1501464052483N00447407WA0243902627
B1501474052489N00447403WA0243402621
B1501484052496N00447398WA0243002617
B1501494052503N00447393WA0242802613
B1501504052510N00447389WA0242602611
B1501514052516N00447384WA0242402609
B1501524052521N00447380WA0242102607
B1501534052527N00447376WA0241902604
B1501544052533N00447372WA0241502600
B1501554052539N00447368WA0241102597
B1501564052545N00447365WA0240802592
B1501574052551N00447361WA0240302587
B1501584052557N00447357WA0240002583
B1501594052562N00447352WA0239702580
B1502004052566N00447346WA0239602577
B1502014052571N00447341WA0239302575
B1502024052575N00447337WA0239002571
B1502034052580N00447332WA0238602567
B1502044052585N00447327WA0238202563
B1502054052591N00447323WA0237902559
B1502064052596N00447319WA0237702555
B1502074052601N00447315WA0237502552
B1502084052606N00447310WA0237302551
B1502094052611N00447305WA0237202549
B1502104052615N00447300WA0237102548
B1502114052620N00447296WA0236902546
B1502124052625N00447292WA0236502544
B1502134052631N00447287WA0236202540
B1502144052637N00447282WA0235902537
B1502154052643N00447278WA0235802535
B1502164052648N00447274WA0235802535
B1502174052652N00447270WA0235702534
B1502184052655N00447265WA0235402532
B1502194052658N00447261WA0235102529
B1502204052661N00447256WA0234802525
B1502214052665N00447251WA0234702521
B1502224052670N00447246WA0234302518
B1502234052675N00447241WA0234102515
B1502244052681N00447237WA0234002512
B1502254052686N00447233WA0233702510
B1502264052691N00447229WA0233302507
B1502274052695N00447226WA0233102504
B1502284052700N00447221WA0232802501
B1502294052705N00447217WA0232502498
B1502304052711N00447213WA0232402496
B1502314052716N00447210WA0232102493
B1502324052723N00447206WA0231902491
B1502334052729N00447203WA0231402487
B1502344052736N00447200WA0231202483
B1502354052743N00447197WA0230802480
B1502364052750N00447194WA0230502476
B1502374052756N00447190WA0230102472
B1502384052763N00447187WA0229702468
B1502394052769N00447184WA0229302464
B1502404052776N00447180WA0228902460
B1502414052782N00447176WA0228602456
B1502424052788N00447172WA0228102452
B1502434052794N00447168WA0227902449
B1502444052800N00447163WA0227702446
B1502454052805N00447158WA0227502444
B1502464052811N00447154WA0227402442
B1502474052817N00447149WA0227202440
B1502484052823N00447145WA0227102438
B1502494052829N00447140WA0226902436
B1502504052835N00447135WA0226802434
B1502514052842N00447130WA0226602433
B1502524052849N00447125WA0226702433
B1502534052855N00447120WA0226802434
B1502544052861N00447116WA0226802435
B1502554052866N00447112WA0226902436
B1502564052871N00447108WA0226902437
B1502574052876N00447104WA0226802436
B1502584052881N00447100WA0226702435
B1502594052885N00447096WA0226602433
B1503004052890N00447091WA0226302431
B1503014052896N00447086WA0226102429
B1503024052901N00447081WA0226002427
B1503034052908N00447077WA0225802425
B1503044052914N00447073WA0225602423
B1503054052920N00447068WA0225502421
B1503064052926N00447063WA0225302420
B1503074052933N00447059WA0225102418
B1503084052939N00447054WA0224902416
B1503094052945N00447049WA0224702414
B1503104052951N00447042WA0224502412
B1503114052956N00447035WA0224202410
B1503124052961N00447028WA0224002408
B1503134052966N00447020WA0223902406
B1503144052972N00447014WA0223802404
B1503154052977N00447007WA0223602403
B1503164052983N00447001WA0223302402
B1503174052988N00446995WA0223302400
B1503184052993N00446989WA0223202399
B1503194052999N00446984WA0223002398
B1503204053004N00446979WA0222902396
B1503214053011N00446975WA0222702393
B1503224053018N00446973WA0222402391
B1503234053025N00446971WA0222302389
B1503244053032N00446969WA0222102387
B1503254053039N00446968WA0222002386
B1503264053047N00446966WA0221902385
B1503274053054N00446964WA0221902384
B1503284053060N00446962WA0221702383
B1503294053067N00446960WA0221602382
B1503304053074N00446958WA0221702382
B1503314053081N00446956WA0221902384
B1503324053087N00446955WA0222102386
B1503334053093N00446953WA0222302388
B1503344053098N00446951WA0222302389
B1503354053102N00446950WA0222302390
B1503364053107N00446949WA0222202389
B1503374053112N00446948WA0222002388
B1503384053117N00446948WA0221802386
B1503394053123N00446950WA0221502383
B1503404053129N00446951WA0221302382
B1503414053134N00446953WA0221302380
B1503424053139N00446953WA0221002378
B1503434053144N00446953WA0220602374
B1503444053150N00446949WA0220302370
B1503454053156N00446945WA0220102367
B1503464053162N00446941WA0220002365
B1503474053169N00446938WA0220002365
B1503484053175N00446939WA0219902364
B1503494053180N00446941WA0219702363
B1503504053184N00446945WA0219502362
B1503514053188N00446949WA0219502361
B1503524053192N00446954WA0219402360
B1503534053196N00446958WA0219202359
B1503544053200N00446963WA0219202358
B1503554053204N00446967WA0219202357
B1503564053208N00446971WA0219302357
B1503574053212N00446975WA0219102356
B1503584053217N00446978WA0219102356
B1503594053221N00446980WA0219002357
B1504004053225N00446983WA0218902356
B1504014053229N00446985WA0218702354
B1504024053233N00446988WA0218602353
B1504034053238N00446991WA0218502351
B1504044053243N00446993WA0218402349
B1504054053249N00446994WA0218402348
B1504064053254N00446995WA0218302347
B1504074053260N00446995WA0218302346
B1504084053266N00446995WA0218202346
B1504094053274N00446994WA0218302347
B1504104053280N00446993WA0218502348
B1504114053287N00446992WA0218602350
B1504124053293N00446990WA0218702351
B1504134053299N00446987WA0218802352
B1504144053306N00446984WA0218802352
B1504154053312N00446980WA0219002353
B1504164053318N00446975WA0219202355
B1504174053324N00446971WA0219302357
B1504184053329N00446966WA0219302357
B1504194053333N00446962WA0219302357
B1504204053337N00446955WA0219102356
B1504214053339N00446946WA0218702354
B1504224053339N00446935WA0218502353
B1504234053336N00446924WA0218402351
B1504244053330N00446917WA0218302349
B1504254053324N00446912WA0218202348
B1504264053318N00446912WA0218302349
B1504274053313N00446912WA0218402351
B1504284053308N00446914WA0218602352
B1504294053304N00446916WA0218702355
B1504304053300N00446918WA0218902356
B1504314053297N00446921WA0219002357
B1504324053295N00446925WA0219002358
B1504334053296N00446931WA0219102358
B1504344053299N00446935WA0219302359
B1504354053304N00446939WA0219402361
B1504364053309N00446941WA0219502363
B1504374053315N00446940WA0219702365
B1504384053321N00446937WA0219702366
B1504394053327N00446933WA0219802367
B1504404053330N00446927WA0219802364
B1504414053332N00446919WA0219602364
B1504424053331N00446909WA0219502362
B1504434053327N00446900WA0219502361
B1504444053322N00446893WA0219602362
B1504454053316N00446889WA0219702363
B1504464053311N00446889WA0219702364
B1504474053305N00446890WA0219902365
B1504484053301N00446891WA0220002367
B1504494053297N00446893WA0220202368
B1504504053293N00446895WA0220502370
B1504514053291N00446899WA0220602372
B1504524053290N00446903WA0220702374
B1504534053291N00446908WA0220902375
B1504544053296N00446911WA0220802377
B1504554053302N00446912WA0221002378
B1504564053310N00446909WA0221102379
B1504574053317N00446903WA0221202381
B1504584053322N00446895WA0221402383
B1504594053325N00446885WA0221502384
B1505004053324N00446874WA0221502384
B1505014053321N00446865WA0221602385
B1505024053316N00446857WA0221702386
B1505034053310N00446854WA0221902387
B1505044053305N00446853WA0222102389
B1505054053300N00446854WA0222302391
B1505064053296N00446856WA0222602395
B1505074053293N00446859WA0222702397
B1505084053292N00446862WA0222702397
B1505094053293N00446866WA0222602396
B1505104053297N00446870WA0222402395
B1505114053303N00446872WA0222302395
B1505124053310N00446871WA0222402394
B1505134053318N00446866WA0222702395
B1505144053325N00446859WA0223002396
B1505154053329N00446851WA0223402399
B1505164053332N00446843WA0223702400
B1505174053334N00446836WA0223802401
B1505184053334N00446828WA0223802401
B1505194053333N00446819WA0223502399
B1505204053328N00446811WA0223602397
B1505214053321N00446806WA0223802398
B1505224053314N00446804WA0224002401
B1505234053308N00446805WA0224402405
B1505244053305N00446806WA0224602408
B1505254053301N00446808WA0224702411
B1505264053298N00446811WA0224802413
B1505274053297N00446814WA0224802412
B1505284053299N00446819WA0224802414
B1505294053305N00446823WA0224702414
B1505304053312N00446825WA0224702413
B1505314053319N00446823WA0224702414
B1505324053326N00446820WA0225002415
B1505334053333N00446816WA0225202417
B1505344053339N00446811WA0225602423
B1505354053344N00446807WA0226002426
B1505364053348N00446801WA0226102430
B1505374053351N00446795WA0226102431
B1505384053351N00446787WA0226002433
B1505394053350N00446778WA0225902433
B1505404053348N00446768WA0225802434
B1505414053344N00446760WA0225902434
B1505424053338N00446754WA0225902434
B1505434053332N00446752WA0226002434
B1505444053326N00446753WA0226102435
B1505454053320N00446755WA0226302435
B1505464053316N00446757WA0226602437
B1505474053313N00446759WA0226902445
B1505484053311N00446762WA0227102447
B1505494053311N00446765WA0227102447
B1505504053313N00446769WA0226802446
B1505514053316N00446773WA0226802446
B1505524053322N00446774WA0226802445
B1505534053330N00446774WA0226702445
B1505544053337N00446770WA0226902446
B1505554053345N00446765WA0227102448
B1505564053351N00446760WA0227302450
B1505574053356N00446754WA0227602453
B1505584053359N00446748WA0227802455
B1505594053362N00446741WA0227802456
B1506004053363N00446733WA0227802455
B1506014053363N00446723WA0227602454
B1506024053361N00446713WA0227702453
B1506034053357N00446704WA0227702453
B1506044053352N00446698WA0227902453
B1506054053346N00446695WA0227902454
B1506064053340N00446696WA0227902454
B1506074053335N00446699WA0228102456
B1506084053333N00446703WA0228302458
B1506094053332N00446708WA0228502460
B1506104053333N00446711WA0228602461
B1506114053335N00446714WA0228702462
B1506124053338N00446718WA0228702461
B1506134053342N00446720WA0228602460
B1506144053347N00446722WA0228602459
B1506154053353N00446722WA0228602459
B1506164053360N00446721WA0228702458
B1506174053367N00446718WA0228802459
B1506184053372N00446715WA0228802460
B1506194053378N00446711WA0228902461
B1506204053382N00446706WA0228802460
B1506214053386N00446701WA0228602459
B1506224053390N00446693WA0228502457
B1506234053392N00446683WA0228502456
B1506244053392N00446673WA0228402456
B1506254053392N00446663WA0228502456
B1506264053390N00446654WA0228602456
B1506274053387N00446645WA0228602457
B1506284053384N00446638WA0228602457
B1506294053380N00446631WA0228702458
B1506304053375N00446625WA0228802459
B1506314053371N00446621WA0229002461
B1506324053366N00446617WA0229202463
B1506334053361N00446612WA0229402465
B1506344053358N00446608WA0229402467
B1506354053354N00446605WA0229602468
B1506364053350N00446603WA0229602468
B1506374053345N00446603WA0229702468
B1506384053340N00446603WA0229902470
B1506394053336N00446604WA0230002472
B1506404053333N00446605WA0230202474
B1506414053330N00446607WA0230202476
B1506424053328N00446609WA0230102477
B1506434053328N00446611WA0230002477
B1506444053329N00446615WA0229702477
B1506454053333N00446619WA0229502476
B1506464053337N00446623WA0229502476
B1506474053343N00446627WA0229402477
B1506484053348N00446629WA0229602478
B1506494053353N00446630WA0229602478
B1506504053359N00446631WA0229502477
B1506514053366N00446630WA0229502476
B1506524053373N00446628WA0229502475
B1506534053380N00446625WA0229702476
B1506544053386N00446622WA0229802478
B1506554053393N00446620WA0230002479
B1506564053399N00446618WA0230102481
B1506574053405N00446614WA0230302482
B1506584053410N00446609WA0230302482
B1506594053415N00446601WA0230402482
B1507004053420N00446592WA0230602483
B1507014053423N00446583WA0230702485
B1507024053426N00446573WA0230802486
B1507034053429N00446563WA0231002488
B1507044053430N00446554WA0231102489
B1507054053429N00446545WA0231002489
B1507064053427N00446536WA0230802488
B1507074053422N00446530WA0230802487
B1507084053416N00446526WA0231102486
B1507094053411N00446526WA0231102486
B1507104053407N00446528WA0231202486
B1507114053405N00446533WA0231102486
B1507124053407N00446539WA0231202486
B1507134053411N00446542WA0231502487
B1507144053417N00446542WA0231602489
B1507154053423N00446539WA0231702490
B1507164053430N00446534WA0231602490
B1507174053435N00446528WA0231702490
B1507184053440N00446520WA0231702491
B1507194053443N00446511WA0231902492
B1507204053444N00446502WA0231902492
B1507214053444N00446492WA0231902493
B1507224053443N00446483WA0231902493
B1507234053441N00446474WA0231902492
B1507244053438N00446465WA0232002493
B1507254053435N00446456WA0232202494
B1507264053432N00446448WA0232402497
B1507274053429N00446440WA0232602499
B1507284053427N00446433WA0232702501
B1507294053426N00446424WA0232802502
B1507304053424N00446416WA0232902502
B1507314053422N00446407WA0232902503
B1507324053419N00446399WA0233002504
B1507334053415N00446392WA0233102505
B1507344053410N00446385WA0233302506
B1507354053405N00446377WA0233502508
B1507364053401N00446370WA0233602510
B1507374053397N00446362WA0233802512
B1507384053393N00446356WA0233902514
B1507394053387N00446353WA0233802514
B1507404053380N00446353WA0233702514
B1507414053373N00446355WA0233902515
B1507424053369N00446359WA0234102516
B1507434053366N00446365WA0234202518
B1507444053366N00446370WA0234402518
B1507454053370N00446374WA0234502519
B1507464053374N00446378WA0234602521
B1507474053380N00446378WA0234702521
B1507484053386N00446375WA0234702521
B1507494053392N00446369WA0234802522
B1507504053396N00446360WA0234802523
B1507514053400N00446351WA0235002525
B1507524053402N00446341WA0235302526
B1507534053401N00446331WA0235502529
B1507544053400N00446321WA0235802533
B1507554053399N00446311WA0236002535
B1507564053398N00446303WA0236202538
B1507574053395N00446294WA0236302539
B1507584053391N00446287WA0236302541
B1507594053385N00446282WA0236202542
B1508004053379N00446278WA0236102542
B1508014053372N00446277WA0236102543
B1508024053365N00446278WA0236102543
B1508034053358N00446279WA0236302544
B1508044053352N00446281WA0236502547
B1508054053346N00446282WA0236702549
B1508064053340N00446283WA0236902551
B1508074053335N00446285WA0237102553
B1508084053331N00446288WA0237302555
B1508094053329N00446291WA0237402556
B1508104053330N00446295WA0237402558
B1508114053334N00446298WA0237402558
B1508124053339N00446298WA0237502559
B1508134053345N00446295WA0237502559
B1508144053351N00446290WA0237602559
B1508154053357N00446282WA0237702560
B1508164053361N00446272WA0237902561
B1508174053363N00446262WA0238102564
B1508184053364N00446251WA0238502567
B1508194053364N00446242WA0238602570
B1508204053363N00446234WA0238702572
B1508214053362N00446227WA0238702573
B1508224053360N00446220WA0238602574
B1508234053356N00446212WA0238402569
B1508244053351N00446204WA0238302567
B1508254053345N00446197WA0238402566
B1508264053340N00446189WA0238402567
B1508274053335N00446182WA0238402567
B1508284053330N00446175WA0238302567
B1508294053325N00446168WA0238202565
B1508304053319N00446163WA0238202564
B1508314053312N00446159WA0238102563
B1508324053304N00446157WA0238102562
B1508334053297N00446155WA0238202563
B1508344053290N00446153WA0238302564
B1508354053284N00446151WA0238302565
B1508364053278N00446150WA0238202565
B1508374053272N00446152WA0238202564
B1508384053267N00446155WA0238402564
B1508394053262N00446159WA0238502565
B1508404053257N00446162WA0238702567
B1508414053253N00446165WA0238902569
B1508424053250N00446168WA0238902571
B1508434053248N00446171WA0238902571
B1508444053248N00446175WA0238802571
B1508454053249N00446179WA0238602569
B1508464053252N00446183WA0238702568
B1508474053257N00446185WA0238602567
B1508484053262N00446186WA0238802567
B1508494053268N00446186WA0238902569
B1508504053273N00446183WA0239002570
B1508514053278N00446179WA0239102572
B1508524053282N00446175WA0239302574
B1508534053286N00446171WA0239602576
B1508544053290N00446168WA0239602578
B1508554053294N00446165WA0239702579
B1508564053298N00446161WA0239802579
B1508574053302N00446155WA0239702579
B1508584053305N00446147WA0239602578
B1508594053305N00446137WA0239602577
B1509004053305N00446127WA0239702577
B1509014053304N00446118WA0239702578
B1509024053302N00446109WA0239702578
B1509034053299N00446100WA0239702578
B1509044053295N00446092WA0239602577
B1509054053291N00446084WA0239502576
B1509064053285N00446077WA0239202575
B1509074053278N00446071WA0239402574
B1509084053272N00446066WA0239402574
B1509094053265N00446061WA0239402574
B1509104053259N00446057WA0239502575
B1509114053252N00446053WA0239502576
B1509124053246N00446050WA0239602576
B1509134053240N00446047WA0239602576
B1509144053234N00446046WA0239702576
B1509154053227N00446047WA0239602576
B1509164053222N00446049WA0239702576
B1509174053216N00446052WA0239702578
B1509184053211N00446054WA0239902579
B1509194053206N00446054WA0239902579
B1509204053201N00446052WA0239902579
B1509214053195N00446046WA0239602579
B1509224053190N00446039WA0239502578
B1509234053186N00446030WA0239402577
B1509244053182N00446020WA0239302576
B1509254053178N00446011WA0239302575
B1509264053175N00446002WA0239202575
B1509274053172N00445994WA0239002573
B1509284053168N00445985WA0238802571
B1509294053166N00445975WA0238502569
B1509304053164N00445963WA0238402567
B1509314053164N00445952WA0238502566
B1509324053165N00445941WA0238402566
B1509334053166N00445931WA0238502566
B1509344053167N00445921WA0238302565
B1509354053169N00445911WA0238302564
B1509364053170N00445900WA0238202563
B1509374053170N00445889WA0238102561
B1509384053170N00445877WA0238002560
B1509394053169N00445865WA0238002559
B1509404053170N00445853WA0238102560
B1509414053171N00445841WA0238202561
B1509424053173N00445831WA0238402563
B1509434053173N00445822WA0238402564
B1509444053173N00445812WA0238402564
B1509454053173N00445802WA0238402562
B1509464053171N00445791WA0238202561
B1509474053169N00445780WA0238202560
B1509484053167N00445769WA0238202560
B1509494053166N00445758WA0238202560
B1509504053165N00445747WA0238202561
B1509514053164N00445737WA0238202562
B1509524053163N00445728WA0238202561
B1509534053163N00445718WA0238102560
B1509544053163N00445708WA0238102560
B1509554053163N00445698WA0238202560
B1509564053163N00445687WA0238302561
B1509574053163N00445678WA0238302562
B1509584053162N00445667WA0238402563
B1509594053160N00445657WA0238402563
B1510004053157N00445646WA0238402562
B1510014053153N00445636WA0238402562
B1510024053147N00445626WA0238602563
B1510034053141N00445618WA0238702564
B1510044053136N00445610WA0238902565
B1510054053131N00445602WA0239102566
B1510064053126N00445594WA0239202568
B1510074053121N00445586WA0239302570
B1510084053115N00445579WA0239402570
B1510094053108N00445572WA0239402570
B1510104053100N00445567WA0239402570
B1510114053092N00445564WA0239502570
B1510124053083N00445563WA0239602571
B1510134053075N00445564WA0239702571
B1510144053068N00445567WA0239602572
B1510154053062N00445572WA0239702571
B1510164053059N00445579WA0239702570
B1510174053057N00445586WA0239602572
B1510184053057N00445593WA0239702574
B1510194053058N00445597WA0239802575
B1510204053060N00445599WA0239902576
B1510214053062N00445601WA0239902577
B1510224053064N00445601WA0239902576
B1510234053066N00445599WA0239702576
B1510244053070N00445596WA0239902575
B1510254053073N00445591WA0239802574
B1510264053077N00445585WA0239802575
B1510274053080N00445579WA0240102577
B1510284053082N00445573WA0240102578
B1510294053084N00445567WA0240102580
B1510304053084N00445560WA0240202581
B1510314053085N00445552WA0240302581
B1510324053085N00445544WA0240302582
B1510334053085N00445535WA0240302582
B1510344053084N00445525WA0240202581
B1510354053081N00445515WA0240202581
B1510364053077N00445505WA0240102580
B1510374053072N00445495WA0240202580
B1510384053067N00445485WA0240102580
B1510394053060N00445476WA0240002579
B1510404053053N00445468WA0240002579
B1510414053045N00445462WA0240002578
B1510424053037N00445456WA0239902578
B1510434053029N00445450WA0239802577
B1510444053021N00445446WA0239802576
B1510454053013N00445443WA0239602575
B1510464053005N00445441WA0239502573
B1510474052997N00445443WA0239302572
B1510484052989N00445446WA0239202570
B1510494052983N00445451WA0239102569
B1510504052978N00445456WA0239202568
B1510514052974N00445461WA0239002567
B1510524052972N00445467WA0238802565
B1510534052972N00445473WA0238702563
B1510544052974N00445477WA0238502561
B1510554052976N00445480WA0238202559
B1510564052980N00445481WA0238002556
B1510574052984N00445481WA0237802553
B1510584052989N00445478WA0237502551
B1510594052994N00445475WA0237502549
B1511004052999N00445471WA0237402548
B1511014053003N00445466WA0237302547
B1511024053007N00445460WA0237302546
B1511034053011N00445454WA0237202545
B1511044053014N00445448WA0237202545
B1511054053017N00445442WA0237202546
B1511064053020N00445437WA0237102546
B1511074053022N00445431WA0237102546
B1511084053025N00445425WA0237002545
B1511094053028N00445418WA0237102545
B1511104053031N00445410WA0237002545
B1511114053033N00445402WA0237102547
B1511124053035N00445395WA0237202547
B1511134053038N00445387WA0237202548
B1511144053040N00445380WA0237202548
B1511154053042N00445372WA0237302548
B1511164053043N00445365WA0237202548
B1511174053043N00445357WA0237202548
B1511184053044N00445349WA0237202547
B1511194053045N00445341WA0237002546
B1511204053046N00445332WA0237002546
B1511214053048N00445324WA0237002545
B1511224053050N00445316WA0237102546
B1511234053051N00445308WA0237102547
B1511244053053N00445301WA0237102547
B1511254053054N00445293WA0237002546
B1511264053056N00445285WA0237002545
B1511274053059N00445277WA0237002544
B1511284053062N00445270WA0236802543
B1511294053065N00445263WA0236802543
B1511304053068N00445257WA0236602542
B1511314053070N00445250WA0236502540
B1511324053072N00445243WA0236202538
B1511334053075N00445237WA0235902536
B1511344053077N00445230WA0235702533
B1511354053080N00445223WA0235402531
B1511364053083N00445215WA0235202527
B1511374053085N00445208WA0235102525
B1511384053088N00445199WA0234902523
B1511394053090N00445191WA0234702520
B1511404053091N00445182WA0234402518
B1511414053092N00445173WA0234202516
B1511424053093N00445164WA0234002514
B1511434053094N00445156WA0233702511
B1511444053095N00445149WA0233502508
B1511454053096N00445142WA0233202506
B1511464053098N00445135WA0232902503
B1511474053100N00445128WA0232802500
B1511484053102N00445122WA0232502498
B1511494053105N00445115WA0232202496
B1511504053108N00445108WA0232202494
B1511514053111N00445102WA0232002493
B1511524053113N00445095WA0231802491
B1511534053115N00445089WA0231602489
B1511544053117N00445083WA0231302486
B1511554053119N00445076WA0230902482
B1511564053121N00445070WA0230602479
B1511574053124N00445063WA0230402476
B1511584053126N00445055WA0230202474
B1511594053127N00445048WA0230102472
B1512004053129N00445041WA0229902469
B1512014053132N00445034WA0229602466
B1512024053134N00445027WA0229302463
B1512034053138N00445020WA0229102460
B1512044053141N00445014WA0229002458
B1512054053145N00445008WA0228602456
B1512064053149N00445002WA0228402453
B1512074053153N00444996WA0228302451
B1512084053157N00444990WA0228102449
B1512094053161N00444985WA0228102448
B1512104053165N00444979WA0228002448
B1512114053168N00444974WA0227902447
B1512124053171N00444969WA0227802446
B1512134053174N00444964WA0227602445
B1512144053176N00444960WA0227502443
B1512154053180N00444955WA0227502441
B1512164053183N00444949WA0227302440
B1512174053186N00444943WA0227202440
B1512184053188N00444937WA0227202440
B1512194053189N00444930WA0227202439
B1512204053191N00444925WA0227102438
B1512214053192N00444919WA0226802435
B1512224053194N00444914WA0226602432
B1512234053196N00444908WA0226202428
B1512244053199N00444904WA0225702424
B1512254053201N00444899WA0225402419
B1512264053204N00444894WA0225102415
B1512274053209N00444890WA0224802412
B1512284053213N00444886WA0224802410
B1512294053217N00444883WA0224602408
B1512304053220N00444881WA0224302406
B1512314053222N00444879WA0224102402
B1512324053225N00444876WA0223802400
B1512334053228N00444874WA0223602398
B1512344053232N00444871WA0223502396
B1512354053235N00444868WA0223302394
B1512364053238N00444865WA0223002392
B1512374053242N00444862WA0222902390
B1512384053246N00444859WA0222802389
B1512394053250N00444856WA0222502387
B1512404053254N00444854WA0222202385
B1512414053257N00444851WA0221802381
B1512424053261N00444849WA0221502377
B1512434053265N00444845WA0221102373
B1512444053268N00444842WA0220702369
B1512454053273N00444839WA0220402365
B1512464053278N00444836WA0220102362
B1512474053282N00444833WA0219902360
B1512484053286N00444829WA0219902358
B1512494053290N00444825WA0220002358
B1512504053293N00444821WA0219902358
B1512514053295N00444817WA0220002357
B1512524053297N00444812WA0220002357
B1512534053299N00444806WA0219702356
B1512544053300N00444801WA0219502354
B1512554053302N00444795WA0219402353
B1512564053304N00444789WA0219202351
B1512574053306N00444782WA0219002348
B1512584053308N00444774WA0218902347
B1512594053310N00444766WA0218702346
B1513004053313N00444759WA0218402345
B1513014053316N00444752WA0218002342
B1513024053319N00444746WA0217602338
B1513034053322N00444740WA0217102332
B1513044053326N00444734WA0216602327
B1513054053330N00444728WA0216202323
B1513064053334N00444722WA0215802319
B1513074053338N00444717WA0215402315
B1513084053341N00444711WA0215102312
B1513094053345N00444705WA0214602307
B1513104053348N00444698WA0214302303
B1513114053351N00444691WA0214002300
B1513124053355N00444683WA0213702297
B1513134053358N00444676WA0213402294
B1513144053362N00444669WA0213202292
B1513154053365N00444664WA0213102289
B1513164053368N00444659WA0212802287
B1513174053371N00444655WA0212502284
B1513184053374N00444650WA0212102280
B1513194053377N00444644WA0211802277
B1513204053380N00444637WA0211802274
B1513214053383N00444630WA0211502273
B1513224053386N00444622WA0211502271
B1513234053388N00444613WA0211302269
B1513244053390N00444605WA0211102267
B1513254053392N00444596WA0210902265
B1513264053393N00444587WA0210602263
B1513274053394N00444578WA0210402260
B1513284053394N00444568WA0210102257
B1513294053393N00444559WA0209802255
B1513304053392N00444550WA0209602252
B1513314053391N00444542WA0209202249
B1513324053390N00444534WA0208802245
B1513334053390N00444525WA0208402241
B1513344053391N00444517WA0207902236
B1513354053394N00444509WA0207402230
B1513364053398N00444502WA0206902224
B1513374053403N00444496WA0206602220
B1513384053408N00444491WA0206202217
B1513394053412N00444486WA0205802213
B1513404053416N00444481WA0205302208
B1513414053421N00444476WA0204702203
B1513424053427N00444472WA0204502197
B1513434053433N00444469WA0204202192
B1513444053439N00444466WA0203802188
B1513454053446N00444461WA0203802185
B1513464053452N00444457WA0203502183
B1513474053457N00444453WA0203402184
B1513484053462N00444448WA0203402182
B1513494053468N00444443WA0203102181
B1513504053473N00444440WA0202902179
B1513514053479N00444437WA0202802177
B1513524053484N00444435WA0202402175
B1513534053491N00444435WA0202202173
B1513544053497N00444434WA0202002169
B1513554053503N00444433WA0201702167
B1513564053509N00444432WA0201502165
B1513574053516N00444431WA0201402163
B1513584053522N00444431WA0201302161
B1513594053529N00444430WA0200902159
B1514004053535N00444431WA0200802156
B1514014053542N00444431WA0200402152
B1514024053549N00444432WA0200102149
B1514034053556N00444432WA0199802145
B1514044053563N00444431WA0199302142
B1514054053570N00444430WA0199002138
B1514064053576N00444429WA0198602133
B1514074053583N00444427WA0198302129
B1514084053591N00444424WA0197902126
B1514094053597N00444421WA0197802124
B1514104053602N00444418WA0197702123
B1514114053607N00444416WA0197402120
B1514124053611N00444414WA0196902117
B1514134053615N00444411WA0196602113
B1514144053620N00444408WA0196202108
B1514154053626N00444406WA0195902104
B1514164053631N00444403WA0195502100
B1514174053637N00444401WA0195102096
B1514184053642N00444398WA0194602091
B1514194053648N00444395WA0194102086
B1514204053654N00444392WA0193702082
B1514214053659N00444389WA0193202076
B1514224053664N00444386WA0192902072
B1514234053670N00444384WA0192502067
B1514244053675N00444383WA0192102063
B1514254053680N00444382WA0191902059
B1514264053684N00444382WA0191502055
B1514274053687N00444380WA0191102051
B1514284053692N00444378WA0190502045
B1514294053697N00444375WA0190202041
B1514304053703N00444372WA0189802038
B1514314053710N00444370WA0189602035
B1514324053716N00444368WA0189402033
B1514334053721N00444365WA0189202032
B1514344053726N00444362WA0189002029
B1514354053732N00444360WA0188802027
B1514364053737N00444357WA0188402024
B1514374053742N00444355WA0188202021
B1514384053748N00444353WA0187702017
B1514394053753N00444352WA0187402013
B1514404053758N00444351WA0187002008
B1514414053764N00444350WA0186602005
B1514424053769N00444349WA0186302001
B1514434053775N00444348WA0186001999
B1514444053780N00444347WA0185801996
B1514454053786N00444346WA0185501992
B1514464053792N00444345WA0185101988
B1514474053798N00444344WA0184701984
B1514484053805N00444342WA0184401981
B1514494053812N00444340WA0184001977
B1514504053818N00444337WA0183701974
B1514514053825N00444335WA0183401970
B1514524053831N00444333WA0183001967
B1514534053838N00444332WA0182501963
B1514544053844N00444330WA0182101958
B1514554053851N00444327WA0181701954
B1514564053858N00444325WA0181501950
B1514574053865N00444323WA0181001947
B1514584053872N00444320WA0180701944
B1514594053878N00444317WA0180401941
B1515004053883N00444313WA0180001936
B1515014053889N00444308WA0179701932
B1515024053896N00444302WA0179301927
B1515034053902N00444297WA0178901924
B1515044053908N00444292WA0178701921
B1515054053914N00444287WA0178301917
B1515064053919N00444282WA0177901913
B1515074053924N00444278WA0177601909
B1515084053930N00444275WA0177201906
B1515094053935N00444272WA0176801901
B1515104053941N00444269WA0176301897
B1515114053947N00444267WA0175701892
B1515124053953N00444265WA0175301887
B1515134053958N00444262WA0174901882
B1515144053963N00444259WA0174501877
B1515154053968N00444256WA0174101872
B1515164053974N00444253WA0173701868
B1515174053979N00444249WA0173501865
B1515184053984N00444246WA0173401863
B1515194053988N00444243WA0173201861
B1515204053991N00444240WA0172901859
B1515214053995N00444238WA0172701855
B1515224053998N00444235WA0172301850
B1515234054003N00444232WA0171701846
B1515244054009N00444229WA0171301842
B1515254054015N00444227WA0171101838
B1515264054021N00444224WA0170901835
B1515274054026N00444222WA0170901835
B1515284054030N00444220WA0170901833
B1515294054035N00444218WA0170601830
B1515304054040N00444218WA0170301827
B1515314054047N00444219WA0170001825
B1515324054053N00444221WA0169901823
B1515334054059N00444223WA0169801821
B1515344054066N00444224WA0169601819
B1515354054072N00444225WA0169101816
B1515364054078N00444226WA0168901813
B1515374054085N00444226WA0168801811
B1515384054091N00444226WA0168501808
B1515394054096N00444226WA0168201805
B1515404054102N00444226WA0167901802
B1515414054109N00444225WA0167601798
B1515424054115N00444224WA0167301795
B1515434054122N00444223WA0167001792
B1515444054129N00444223WA0166701789
B1515454054136N00444221WA0166601787
B1515464054142N00444219WA0166101785
B1515474054148N00444218WA0166101784
B1515484054152N00444215WA0165901782
B1515494054157N00444213WA0165601779
B1515504054162N00444210WA0165301775
B1515514054168N00444206WA0164901771
B1515524054175N00444203WA0164601768
B1515534054181N00444199WA0164301765
B1515544054187N00444194WA0164101763
B1515554054192N00444191WA0163901761
B1515564054198N00444187WA0163601758
B1515574054204N00444183WA0163301755
B1515584054209N00444178WA0163001752
B1515594054215N00444172WA0162701749
B1516004054220N00444167WA0162501747
B1516014054225N00444162WA0162301745
B1516024054230N00444158WA0162101742
B1516034054235N00444153WA0161701739
B1516044054240N00444150WA0161401736
B1516054054246N00444146WA0161201733
B1516064054252N00444143WA0160901729
B1516074054258N00444141WA0160601726
B1516084054263N00444138WA0160401724
B1516094054269N00444135WA0160201722
B1516104054274N00444132WA0160201721
B1516114054279N00444129WA0160201720
B1516124054284N00444127WA0160001720
B1516134054289N00444125WA0160101720
B1516144054294N00444122WA0160201720
B1516154054299N00444119WA0160101719
B1516164054304N00444116WA0160101719
B1516174054310N00444112WA0160201719
B1516184054316N00444109WA0160401720
B1516194054321N00444106WA0160501722
B1516204054325N00444102WA0160601723
B1516214054329N00444098WA0160501723
B1516224054333N00444094WA0160201721
B1516234054337N00444091WA0159901718
B1516244054342N00444090WA0159501715
B1516254054348N00444090WA0159301711
B1516264054353N00444089WA0159001709
B1516274054358N00444088WA0158801706
B1516284054363N00444085WA0158501704
B1516294054367N00444083WA0158201701
B1516304054371N00444081WA0157801697
B1516314054375N00444078WA0157501693
B1516324054380N00444074WA0157101689
B1516334054384N00444069WA0156701685
B1516344054389N00444062WA0156501683
B1516354054393N00444056WA0156401681
B1516364054396N00444051WA0156301679
B1516374054399N00444047WA0156301678
B1516384054404N00444043WA0156301677
B1516394054408N00444039WA0156301678
B1516404054412N00444034WA0156401678
B1516414054415N00444030WA0156301677
B1516424054418N00444025WA0156201675
B1516434054421N00444020WA0156001673
B1516444054423N00444013WA0155701671
B1516454054427N00444006WA0155601669
B1516464054430N00443999WA0155701669
B1516474054433N00443992WA0155701668
B1516484054437N00443987WA0155801668
B1516494054440N00443982WA0155801668
B1516504054443N00443977WA0155701667
B1516514054447N00443973WA0155601666
B1516524054452N00443969WA0155601665
B1516534054457N00443965WA0155601665
B1516544054462N00443960WA0155701666
B1516554054466N00443954WA0155901667
B1516564054470N00443949WA0156001668
B1516574054473N00443944WA0156201669
B1516584054476N00443939WA0156301670
B1516594054479N00443933WA0156301670
B1517004054480N00443926WA0156401672
B1517014054482N00443919WA0156401673
B1517024054482N00443913WA0156701675
B1517034054483N00443907WA0156801677
B1517044054484N00443902WA0156901678
B1517054054485N00443897WA0156901679
B1517064054488N00443894WA0156801679
B1517074054492N00443893WA0156901678
B1517084054497N00443893WA0157001679
B1517094054502N00443893WA0157101679
B1517104054507N00443894WA0157201681
B1517114054511N00443895WA0157101682
B1517124054514N00443899WA0156901681
B1517134054516N00443905WA0156801679
B1517144054518N00443913WA0156701677
B1517154054518N00443922WA0156701676
B1517164054515N00443930WA0156701676
B1517174054510N00443937WA0156601676
B1517184054504N00443940WA0156701676
B1517194054497N00443941WA0156801677
B1517204054491N00443940WA0156901678
B1517214054485N00443939WA0157101681
B1517224054480N00443936WA0157301684
B1517234054475N00443933WA0157401687
B1517244054471N00443930WA0157601688
B1517254054468N00443925WA0157501688
B1517264054468N00443919WA0157501687
B1517274054469N00443912WA0157401688
B1517284054471N00443905WA0157401688
B1517294054475N00443901WA0157501689
B1517304054478N00443898WA0157601689
B1517314054483N00443896WA0157601689
B1517324054488N00443894WA0157501689
B1517334054493N00443893WA0157601690
B1517344054498N00443893WA0157601690
B1517354054503N00443894WA0157501690
B1517364054508N00443896WA0157601690
B1517374054512N00443901WA0157501690
B1517384054515N00443908WA0157401689
B1517394054516N00443916WA0157301688
B1517404054516N00443925WA0157301688
B1517414054514N00443933WA0157201688
B1517424054511N00443940WA0157201688
B1517434054507N00443946WA0157201688
B1517444054502N00443950WA0157101686
B1517454054496N00443953WA0156901685
B1517464054490N00443955WA0156901684
B1517474054484N00443955WA0156801684
B1517484054478N00443954WA0156901685
B1517494054472N00443952WA0157001686
B1517504054466N00443950WA0157101687
B1517514054460N00443949WA0157201688
B1517524054455N00443947WA0157301689
B1517534054450N00443944WA0157401690
B1517544054445N00443940WA0157501691
B1517554054441N00443935WA0157501691
B1517564054439N00443930WA0157601692
B1517574054437N00443923WA0157601692
B1517584054437N00443917WA0157601692
B1517594054438N00443910WA0157601692
B1518004054439N00443905WA0157701693
B1518014054440N00443901WA0157701693
B1518024054443N00443896WA0157601693
B1518034054446N00443893WA0157601693
B1518044054449N00443888WA0157701692
B1518054054452N00443883WA0157701693
B1518064054454N00443876WA0157801693
B1518074054454N00443869WA0158101694
B1518084054453N00443862WA0158101696
B1518094054451N00443856WA0158301698
B1518104054448N00443851WA0158501700
B1518114054444N00443847WA0158701701
B1518124054440N00443845WA0158801702
B1518134054435N00443845WA0159001703
B1518144054429N00443846WA0159201703
B1518154054424N00443853WA0159501704
B1518164054421N00443860WA0159901705
B1518174054419N00443867WA0160001707
B1518184054419N00443874WA0160201708
B1518194054421N00443881WA0160101709
B1518204054427N00443886WA0160101709
B1518214054435N00443888WA0160201710
B1518224054441N00443885WA0160301711
B1518234054445N00443880WA0160401713
B1518244054447N00443873WA0160501714
B1518254054446N00443866WA0160701715
B1518264054443N00443860WA0160901717
B1518274054439N00443855WA0161101719
B1518284054435N00443852WA0161401722
B1518294054431N00443852WA0161501725
B1518304054427N00443854WA0161801726
B1518314054422N00443857WA0162001728
B1518324054417N00443863WA0162101730
B1518334054414N00443870WA0162301732
B1518344054413N00443878WA0162401734
B1518354054416N00443886WA0162401735
B1518364054420N00443892WA0162601737
B1518374054426N00443895WA0162801739
B1518384054431N00443894WA0162801740
B1518394054436N00443890WA0162801740
B1518404054439N00443884WA0162801741
B1518414054441N00443877WA0163001742
B1518424054442N00443870WA0163101745
B1518434054441N00443863WA0163301747
B1518444054440N00443856WA0163601749
B1518454054439N00443851WA0163701751
B1518464054436N00443848WA0163901752
B1518474054432N00443846WA0164001753
B1518484054427N00443845WA0164101754
B1518494054421N00443847WA0164201756
B1518504054416N00443849WA0164601760
B1518514054411N00443853WA0164701763
B1518524054406N00443859WA0164701765
B1518534054405N00443867WA0164701766
B1518544054407N00443876WA0164701767
B1518554054410N00443884WA0164901768
B1518564054415N00443890WA0164901769
B1518574054420N00443894WA0165101770
B1518584054424N00443896WA0165201771
B1518594054429N00443897WA0165201771
B1519004054434N00443897WA0165201770
B1519014054439N00443895WA0165301771
B1519024054444N00443892WA0165301772
B1519034054448N00443887WA0165601773
B1519044054451N00443882WA0165601775
B1519054054454N00443877WA0165801777
B1519064054457N00443872WA0165901778
B1519074054458N00443868WA0165701778
B1519084054457N00443863WA0165701777
B1519094054455N00443858WA0165701776
B1519104054452N00443852WA0165701776
B1519114054448N00443848WA0165701776
B1519124054443N00443846WA0165801776
B1519134054438N00443845WA0165801777
B1519144054433N00443845WA0166001778
B1519154054428N00443845WA0166201780
B1519164054423N00443845WA0166301782
B1519174054418N00443846WA0166401784
B1519184054414N00443847WA0166601785
B1519194054410N00443849WA0166601786
B1519204054405N00443854WA0166801787
B1519214054402N00443860WA0166901788
B1519224054399N00443866WA0167101791
B1519234054396N00443871WA0167301793
B1519244054394N00443876WA0167501795
B1519254054392N00443880WA0167501796
B1519264054393N00443885WA0167501795
B1519274054395N00443890WA0167301794
B1519284054399N00443895WA0167201794
B1519294054403N00443898WA0167201793
B1519304054408N00443897WA0167201793
B1519314054414N00443890WA0167401793
B1519324054418N00443883WA0167501794
B1519334054422N00443876WA0167701797
B1519344054425N00443869WA0168001799
B1519354054427N00443861WA0168201802
B1519364054428N00443855WA0168401804
B1519374054428N00443849WA0168501806
B1519384054425N00443845WA0168501806
B1519394054420N00443842WA0168501807
B1519404054414N00443840WA0168501807
B1519414054408N00443842WA0168601809
B1519424054403N00443845WA0168801810
B1519434054399N00443850WA0168901812
B1519444054397N00443856WA0169001813
B1519454054398N00443862WA0169101812
B1519464054398N00443869WA0169001811
B1519474054401N00443875WA0169001811
B1519484054405N00443881WA0169101811
B1519494054411N00443885WA0169201811
B1519504054417N00443888WA0169301813
B1519514054423N00443890WA0169601816
B1519524054430N00443890WA0169701818
B1519534054436N00443889WA0169801819
B1519544054442N00443886WA0169901821
B1519554054447N00443880WA0170001822
B1519564054449N00443873WA0170001823
B1519574054448N00443866WA0170001823
B1519584054446N00443860WA0170001824
B1519594054443N00443855WA0170201824
B1520004054439N00443850WA0170201826
B1520014054434N00443846WA0170401828
B1520024054430N00443844WA0170401830
B1520034054425N00443843WA0170501831
B1520044054420N00443844WA0170601831
B1520054054416N00443845WA0170601831
B1520064054411N00443850WA0170501831
B1520074054407N00443855WA0170601831
B1520084054403N00443862WA0170701833
B1520094054401N00443869WA0170901835
B1520104054399N00443875WA0171001836
B1520114054398N00443882WA0171001837
B1520124054399N00443889WA0170901838
B1520134054402N00443896WA0171001839
B1520144054406N00443903WA0171101840
B1520154054410N00443909WA0171201841
B1520164054413N00443914WA0171301842
B1520174054417N00443918WA0171201840
B1520184054421N00443920WA0171001838
B1520194054427N00443920WA0170901836
B1520204054432N00443918WA0170801835
B1520214054438N00443912WA0170801834
B1520224054443N00443906WA0171001833
B1520234054446N00443898WA0171101836
B1520244054447N00443891WA0171301838
B1520254054448N00443884WA0171301840
B1520264054449N00443877WA0171401841
B1520274054448N00443871WA0171401841
B1520284054447N00443865WA0171201841
B1520294054444N00443858WA0171301840
B1520304054441N00443852WA0171201839
B1520314054437N00443847WA0171301839
B1520324054433N00443842WA0171201840
B1520334054429N00443839WA0171301840
B1520344054424N00443836WA0171301840
B1520354054419N00443834WA0171501841
B1520364054415N00443834WA0171601843
B1520374054410N00443837WA0171601843
B1520384054406N00443841WA0171601844
B1520394054402N00443847WA0171701844
B1520404054399N00443853WA0171801845
B1520414054398N00443861WA0171901846
B1520424054398N00443868WA0171901847
B1520434054399N00443876WA0172001847
B1520444054400N00443883WA0172001848
B1520454054401N00443890WA0172101849
B1520464054403N00443897WA0172101848
B1520474054407N00443904WA0172101848
B1520484054411N00443910WA0172001848
B1520494054415N00443916WA0172201849
B1520504054420N00443920WA0172101849
B1520514054424N00443924WA0172001848
B1520524054430N00443927WA0171901848
B1520534054435N00443930WA0172001846
B1520544054441N00443931WA0171801845
B1520554054448N00443932WA0171701844
B1520564054455N00443932WA0171801844
B1520574054461N00443932WA0171901844
B1520584054467N00443933WA0172001845
B1520594054472N00443934WA0172001845
B1521004054477N00443934WA0171901845
B1521014054482N00443934WA0171801844
B1521024054487N00443933WA0171601843
B1521034054492N00443930WA0171501842
B1521044054497N00443925WA0171301841
B1521054054502N00443918WA0171101840
B1521064054506N00443911WA0171201840
B1521074054510N00443904WA0171301841
B1521084054514N00443899WA0171301841
B1521094054518N00443894WA0171301841
B1521104054522N00443888WA0171301840
B1521114054526N00443882WA0171201839
B1521124054529N00443875WA0171001838
B1521134054530N00443866WA0171001838
B1521144054530N00443858WA0170901836
B1521154054529N00443850WA0170801836
B1521164054528N00443843WA0170601835
B1521174054528N00443836WA0170401833
B1521184054527N00443829WA0170201831
B1521194054526N00443821WA0169801828
B1521204054523N00443814WA0169501825
B1521214054520N00443806WA0169501822
B1521224054517N00443799WA0169301821
B1521234054513N00443794WA0169201820
B1521244054509N00443789WA0169001818
B1521254054504N00443787WA0168801815
B1521264054499N00443786WA0168501814
B1521274054493N00443789WA0168201812
B1521284054489N00443794WA0168101811
B1521294054486N00443802WA0167801808
B1521304054487N00443810WA0167701808
B1521314054489N00443818WA0167501808
B1521324054493N00443823WA0167401807
B1521334054498N00443826WA0167301806
B1521344054503N00443829WA0167201805
B1521354054509N00443830WA0167101804
B1521364054515N00443831WA0167001802
B1521374054521N00443831WA0166901801
B1521384054527N00443830WA0166801800
B1521394054533N00443829WA0166601798
B1521404054538N00443828WA0166401796
B1521414054544N00443825WA0166201793
B1521424054550N00443822WA0166001791
B1521434054555N00443819WA0165901789
B1521444054561N00443816WA0165801787
B1521454054566N00443813WA0165701786
B1521464054570N00443810WA0165501784
B1521474054574N00443806WA0165301782
B1521484054578N00443803WA0165101779
B1521494054583N00443799WA0165001776
B1521504054588N00443795WA0164801774
B1521514054593N00443789WA0164601772
B1521524054596N00443783WA0164601770
B1521534054600N00443777WA0164401768
B1521544054603N00443771WA0164201766
B1521554054607N00443765WA0164101765
B1521564054610N00443759WA0164001764
B1521574054613N00443752WA0163901763
B1521584054617N00443746WA0163801763
B1521594054620N00443741WA0163801762
B1522004054624N00443736WA0163801762
B1522014054627N00443730WA0163701761
B1522024054631N00443725WA0163501759
B1522034054635N00443720WA0163501758
B1522044054639N00443715WA0163401757
B1522054054643N00443710WA0163401756
B1522064054648N00443706WA0163301755
B1522074054654N00443704WA0163201754
B1522084054660N00443703WA0163201754
B1522094054665N00443703WA0163001753
B1522104054670N00443702WA0162901752
B1522114054675N00443701WA0162801750
B1522124054681N00443700WA0162501747
B1522134054687N00443700WA0162201744
B1522144054694N00443700WA0162101742
B1522154054700N00443700WA0162101741
B1522164054706N00443700WA0162101740
B1522174054712N00443700WA0162001740
B1522184054718N00443699WA0162001740
B1522194054724N00443698WA0161901739
B1522204054729N00443698WA0161901739
B1522214054735N00443699WA0161901739
B1522224054741N00443700WA0161901739
B1522234054746N00443702WA0161901739
B1522244054751N00443703WA0161901739
B1522254054756N00443704WA0161801739
B1522264054761N00443705WA0161701738
B1522274054766N00443707WA0161601737
B1522284054771N00443707WA0161401734
B1522294054776N00443707WA0161301732
B1522304054782N00443706WA0161201731
B1522314054787N00443704WA0161001730
B1522324054792N00443703WA0161001729
B1522334054797N00443702WA0161001728
B1522344054802N00443700WA0160901727
B1522354054806N00443698WA0160601725
B1522364054812N00443696WA0160401723
B1522374054817N00443694WA0160301722
B1522384054823N00443693WA0160201721
B1522394054827N00443692WA0160101720
B1522404054832N00443691WA0159901718
B1522414054837N00443689WA0159701716
B1522424054842N00443688WA0159401714
B1522434054848N00443687WA0159301712
B1522444054853N00443686WA0159201711
B1522454054858N00443687WA0159101710
B1522464054864N00443688WA0158901708
B1522474054869N00443688WA0158901706
B1522484054874N00443689WA0158701705
B1522494054879N00443691WA0158601703
B1522504054884N00443692WA0158401701
B1522514054889N00443693WA0158301700
B1522524054895N00443693WA0158101698
B1522534054900N00443692WA0158001697
B1522544054905N00443691WA0157901696
B1522554054909N00443689WA0157601694
B1522564054914N00443687WA0157401693
B1522574054918N00443686WA0157301690
B1522584054923N00443685WA0157101688
B1522594054928N00443684WA0156801686
B1523004054932N00443684WA0156601684
B1523014054937N00443685WA0156401681
B1523024054943N00443686WA0156301680
B1523034054948N00443687WA0156101679
B1523044054953N00443688WA0156001678
B1523054054958N00443689WA0155801676
B1523064054963N00443691WA0155701673
B1523074054968N00443692WA0155301670
B1523084054974N00443694WA0155001668
B1523094054979N00443695WA0154901665
B1523104054985N00443697WA0154601662
B1523114054991N00443698WA0154301659
B1523124054997N00443698WA0153901657
B1523134055003N00443698WA0153801654
B1523144055009N00443696WA0153501652
B1523154055015N00443695WA0153301649
B1523164055021N00443693WA0153101646
B1523174055027N00443691WA0152801644
B1523184055033N00443687WA0152501641
B1523194055039N00443684WA0152201638
B1523204055045N00443681WA0152001636
B1523214055051N00443678WA0151701633
B1523224055057N00443677WA0151501630
B1523234055063N00443676WA0151101627
B1523244055069N00443675WA0150801623
B1523254055076N00443673WA0150301618
B1523264055083N00443671WA0150001614
B1523274055091N00443670WA0149801612
B1523284055098N00443669WA0149701611
B1523294055105N00443667WA0149501609
B1523304055111N00443666WA0149201606
B1523314055117N00443665WA0148901603
B1523324055124N00443665WA0148501599
B1523334055131N00443664WA0148301594
B1523344055138N00443662WA0147901590
B1523354055146N00443660WA0147601587
B1523364055153N00443658WA0147401585
B1523374055160N00443656WA0147201584
B1523384055166N00443654WA0147001582
B1523394055173N00443652WA0146701580
B1523404055179N00443650WA0146601577
B1523414055186N00443647WA0146101573
B1523424055193N00443646WA0145801569
B1523434055201N00443645WA0145301565
B1523444055208N00443645WA0145101563
B1523454055215N00443645WA0144801560
B1523464055222N00443646WA0144501557
B1523474055229N00443646WA0144301553
B1523484055236N00443648WA0144001549
B1523494055243N00443648WA0143701545
B1523504055251N00443649WA0143501543
B1523514055258N00443649WA0143301541
B1523524055266N00443649WA0143201540
B1523534055273N00443649WA0143001538
B1523544055280N00443648WA0142801535
B1523554055288N00443648WA0142501532
B1523564055296N00443649WA0142301530
B1523574055304N00443650WA0142201528
B1523584055311N00443650WA0142301528
B1523594055317N00443650WA0142201528
B1524004055323N00443649WA0142001526
B1524014055329N00443649WA0141601523
B1524024055336N00443649WA0141201518
B1524034055343N00443650WA0140901515
B1524044055351N00443650WA0140701512
B1524054055358N00443650WA0140601512
B1524064055365N00443650WA0140501511
B1524074055372N00443652WA0140401510
B1524084055378N00443656WA0140401508
B1524094055384N00443659WA0140101506
B1524104055390N00443662WA0139901504
B1524114055397N00443666WA0139701502
B1524124055403N00443669WA0139501500
B1524134055410N00443672WA0139301497
B1524144055417N00443674WA0139201496
B1524154055424N00443676WA0139001494
B1524164055431N00443679WA0138901492
B1524174055437N00443681WA0138701491
B1524184055444N00443683WA0138401489
B1524194055451N00443686WA0138301486
B1524204055459N00443688WA0138001484
B1524214055466N00443691WA0137901482
B1524224055473N00443693WA0137701480
B1524234055481N00443695WA0137601479
B1524244055488N00443696WA0137601477
B1524254055495N00443698WA0137501476
B1524264055502N00443699WA0137301475
B1524274055508N00443700WA0137201474
B1524284055514N00443702WA0137001472
B1524294055520N00443704WA0136701468
B1524304055526N00443707WA0136301463
B1524314055534N00443711WA0136001460
B1524324055541N00443715WA0135701457
B1524334055549N00443718WA0135601456
B1524344055556N00443720WA0135501454
B1524354055563N00443723WA0135401453
B1524364055570N00443726WA0135401451
B1524374055578N00443728WA0135101450
B1524384055585N00443730WA0134901448
B1524394055593N00443732WA0134801447
B1524404055600N00443733WA0134701446
B1524414055607N00443734WA0134501444
B1524424055614N00443736WA0134301442
B1524434055621N00443737WA0134201440
B1524444055628N00443737WA0133901437
B1524454055636N00443736WA0133701435
B1524464055643N00443735WA0133501433
B1524474055649N00443736WA0133301431
B1524484055656N00443737WA0133101430
B1524494055661N00443738WA0132901427
B1524504055667N00443739WA0132501424
B1524514055674N00443740WA0132201420
B1524524055681N00443740WA0132101417
B1524534055689N00443739WA0131701415
B1524544055696N00443738WA0131701414
B1524554055702N00443736WA0131701414
B1524564055708N00443735WA0131501413
B1524574055713N00443734WA0131401411
B1524584055719N00443731WA0131001409
B1524594055725N00443728WA0130501406
B1525004055730N00443723WA0130201403
B1525014055737N00443718WA0130001400
B1525024055744N00443714WA0129801398
B1525034055750N00443710WA0129601395
B1525044055757N00443706WA0129301393
B1525054055764N00443703WA0129101390
B1525064055771N00443699WA0128701388
B1525074055778N00443695WA0128701385
B1525084055786N00443692WA0128701384
B1525094055794N00443690WA0128601383
B1525104055800N00443687WA0128501383
B1525114055806N00443685WA0128601383
B1525124055811N00443682WA0128301382
B1525134055816N00443681WA0128101381
B1525144055821N00443680WA0127901378
B1525154055827N00443679WA0127601375
B1525164055834N00443678WA0127501373
B1525174055840N00443677WA0127401371
B1525184055846N00443676WA0127301370
B1525194055851N00443675WA0127201369
B1525204055857N00443675WA0127101368
B1525214055863N00443676WA0126901366
B1525224055869N00443677WA0126701365
B1525234055875N00443678WA0126701364
B1525244055882N00443679WA0126401363
B1525254055888N00443678WA0126501362
B1525264055894N00443677WA0126401361
B1525274055900N00443676WA0126201359
B1525284055906N00443674WA0126001357
B1525294055913N00443671WA0125801355
B1525304055920N00443667WA0125701354
B1525314055926N00443664WA0125601353
B1525324055932N00443661WA0125501354
B1525334055937N00443658WA0125501353
B1525344055942N00443655WA0125401353
B1525354055948N00443651WA0125301351
B1525364055953N00443646WA0125101349
B1525374055959N00443641WA0124901348
B1525384055965N00443636WA0124901347
B1525394055970N00443632WA0124901346
B1525404055976N00443629WA0124801345
B1525414055981N00443627WA0124701344
B1525424055986N00443625WA0124501341
B1525434055992N00443625WA0124401339
B1525444055998N00443625WA0124201338
B1525454056004N00443625WA0124101337
B1525464056010N00443624WA0124001336
B1525474056016N00443624WA0123901335
B1525484056021N00443624WA0123701333
B1525494056027N00443624WA0123601332
B1525504056033N00443625WA0123501331
B1525514056038N00443625WA0123401329
B1525524056044N00443626WA0123201328
B1525534056049N00443627WA0123201326
B1525544056055N00443628WA0123101325
B1525554056061N00443627WA0123101323
B1525564056067N00443626WA0122901322
B1525574056073N00443624WA0122901321
B1525584056079N00443623WA0122901321
B1525594056085N00443621WA0122801320
B1526004056090N00443619WA0122601320
B1526014056096N00443616WA0122601319
B1526024056101N00443612WA0122601318
B1526034056106N00443607WA0122601318
B1526044056112N00443601WA0122801318
B1526054056117N00443596WA0123001319
B1526064056121N00443591WA0123201321
B1526074056125N00443586WA0123301321
B1526084056129N00443580WA0123301323
B1526094056132N00443574WA0123301323
B1526104056134N00443567WA0123201323
B1526114056136N00443558WA0123301322
B1526124056137N00443548WA0123301322
B1526134056137N00443538WA0123501324
B1526144056137N00443529WA0123501325
B1526154056136N00443520WA0123601326
B1526164056134N00443511WA0123701326
B1526174056130N00443502WA0123801327
B1526184056126N00443495WA0123701327
B1526194056119N00443491WA0123801327
B1526204056113N00443489WA0123901328
B1526214056107N00443490WA0124001328
B1526224056103N00443492WA0124101329
B1526234056100N00443496WA0124201329
B1526244056099N00443500WA0124301330
B1526254056101N00443504WA0124301331
B1526264056104N00443506WA0124501332
B1526274056109N00443506WA0124601333
B1526284056113N00443501WA0124701335
B1526294056117N00443496WA0124801337
B1526304056120N00443489WA0125001338
B1526314056122N00443481WA0125001338
B1526324056122N00443472WA0124801335
B1526334056120N00443462WA0124801335
B1526344056115N00443454WA0124801335
B1526354056109N00443449WA0124801336
B1526364056103N00443446WA0124801337
B1526374056098N00443446WA0124901337
B1526384056092N00443447WA0124901336
B1526394056088N00443450WA0124901338
B1526404056085N00443454WA0125001339
B1526414056085N00443457WA0125001339
B1526424056085N00443461WA0125001339
B1526434056085N00443464WA0125001339
B1526444056087N00443467WA0124901339
B1526454056090N00443470WA0125001339
B1526464056093N00443472WA0125101340
B1526474056096N00443474WA0125401341
B1526484056099N00443475WA0125401343
B1526494056102N00443476WA0125501345
B1526504056105N00443476WA0125701347
B1526514056108N00443474WA0125701347
B1526524056112N00443470WA0125501347
B1526534056114N00443463WA0125501347
B1526544056115N00443453WA0125501347
B1526554056114N00443444WA0125701348
B1526564056111N00443435WA0125801349
B1526574056107N00443428WA0125801350
B1526584056104N00443421WA0125901351
B1526594056099N00443416WA0125901352
B1527004056094N00443412WA0126001352
B1527014056088N00443411WA0125901352
B1527024056082N00443414WA0126001353
B1527034056079N00443418WA0126101354
B1527044056079N00443423WA0126101355
B1527054056080N00443428WA0126301356
B1527064056083N00443431WA0126401358
B1527074056086N00443433WA0126501358
B1527084056089N00443434WA0126501358
B1527094056093N00443433WA0126601357
B1527104056096N00443428WA0126501356
B1527114056099N00443420WA0126401356
B1527124056099N00443411WA0126401355
B1527134056096N00443402WA0126401355
B1527144056091N00443395WA0126401355
B1527154056085N00443390WA0126401354
B1527164056078N00443386WA0126501355
B1527174056072N00443382WA0126601357
B1527184056065N00443379WA0126701359
B1527194056059N00443376WA0126801361
B1527204056054N00443373WA0126801362
B1527214056050N00443373WA0126701362
B1527224056046N00443374WA0126401362
B1527234056043N00443376WA0126201361
B1527244056044N00443381WA0126101359
B1527254056046N00443385WA0126001358
B1527264056051N00443387WA0125801357
B1527274056056N00443388WA0125801356
B1527284056062N00443386WA0125801356
B1527294056067N00443384WA0125901357
B1527304056071N00443381WA0126001358
B1527314056075N00443378WA0125901357
B1527324056078N00443374WA0125801355
B1527334056081N00443370WA0125801354
B1527344056085N00443364WA0125601352
B1527354056089N00443358WA0125501351
B1527364056092N00443351WA0125401350
B1527374056094N00443343WA0125301349
B1527384056095N00443334WA0125201348
B1527394056095N00443325WA0125201348
B1527404056093N00443316WA0125201347
B1527414056091N00443307WA0125201346
B1527424056087N00443299WA0125101346
B1527434056083N00443291WA0125101346
B1527444056079N00443285WA0125101345
B1527454056073N00443279WA0125001345
B1527464056068N00443275WA0124901345
B1527474056063N00443270WA0124801343
B1527484056058N00443267WA0124701342
B1527494056052N00443264WA0124501340
B1527504056047N00443263WA0124401338
B1527514056042N00443264WA0124201336
B1527524056038N00443266WA0124001335
B1527534056034N00443268WA0123901334
B1527544056031N00443270WA0123701332
B1527554056028N00443273WA0123401329
B1527564056025N00443277WA0123101326
B1527574056023N00443281WA0123001325
B1527584056022N00443286WA0122901324
B1527594056020N00443291WA0122901323
B1528004056019N00443295WA0122801323
B1528014056019N00443299WA0122601321
B1528024056019N00443303WA0122401319
B1528034056021N00443306WA0122301316
B1528044056024N00443310WA0122101314
B1528054056029N00443312WA0121901312
B1528064056034N00443313WA0121701310
B1528074056038N00443314WA0121701308
B1528084056042N00443315WA0121601307
B1528094056048N00443314WA0121601309
B1528104056053N00443314WA0121601309
B1528114056057N00443315WA0121801310
B1528124056062N00443315WA0121901311
B1528134056066N00443316WA0121901312
B1528144056070N00443316WA0121801311
B1528154056074N00443317WA0121801310
B1528164056079N00443318WA0121701310
B1528174056084N00443322WA0121601309
B1528184056088N00443326WA0121501308
B1528194056093N00443331WA0121501307
B1528204056097N00443335WA0121401307
B1528214056103N00443336WA0121201305
B1528224056109N00443333WA0121101304
B1528234056114N00443328WA0120901303
B1528244056119N00443323WA0120801302
B1528254056124N00443317WA0120601300
B1528264056128N00443310WA0120501298
B1528274056133N00443303WA0120501297
B1528284056137N00443294WA0120801298
B1528294056140N00443285WA0121001301
B1528304056143N00443276WA0121701306
B1528314056144N00443269WA0121901310
B1528324056145N00443262WA0122201314
B1528334056145N00443254WA0122401317
B1528344056144N00443246WA0122501319
B1528354056141N00443238WA0122501321
B1528364056135N00443232WA0122601321
B1528374056129N00443230WA0122601323
B1528384056124N00443232WA0122601323
B1528394056120N00443237WA0122801324
B1528404056120N00443243WA0122801325
B1528414056121N00443248WA0123001327
B1528424056124N00443251WA0123301330
B1528434056126N00443252WA0123501333
B1528444056129N00443253WA0123701334
B1528454056133N00443252WA0123901334
B1528464056137N00443248WA0124201337
B1528474056141N00443242WA0124301339
B1528484056143N00443232WA0124701342
B1528494056141N00443223WA0124801343
B1528504056137N00443214WA0124901343
B1528514056131N00443210WA0124901344
B1528524056124N00443209WA0125101346
B1528534056118N00443211WA0125301348
B1528544056114N00443215WA0125401349
B1528554056113N00443220WA0125701351
B1528564056114N00443225WA0125901353
B1528574056116N00443228WA0126001353
B1528584056120N00443226WA0126001353
B1528594056124N00443223WA0126101354
B1529004056129N00443219WA0126301355
B1529014056134N00443214WA0126801363
B1529024056138N00443208WA0127101368
B1529034056140N00443202WA0127301371
B1529044056140N00443194WA0127301373
B1529054056138N00443185WA0127401373
B1529064056133N00443177WA0127501373
B1529074056127N00443171WA0127501374
B1529084056120N00443169WA0127601375
B1529094056114N00443171WA0127801376
B1529104056109N00443174WA0128001378
B1529114056106N00443179WA0128301379
B1529124056104N00443183WA0128501381
B1529134056104N00443187WA0128601384
B1529144056105N00443188WA0128601385
B1529154056109N00443188WA0128601385
B1529164056114N00443186WA0128701386
B1529174056118N00443183WA0129001388
B1529184056123N00443178WA0129301389
B1529194056126N00443172WA0129501392
B1529204056128N00443164WA0129701394
B1529214056129N00443155WA0129901397
B1529224056130N00443147WA0130101398
B1529234056130N00443138WA0130101399
B1529244056128N00443130WA0130201398
B1529254056124N00443122WA0130201399
B1529264056119N00443114WA0130301399
B1529274056115N00443108WA0130501401
B1529284056111N00443103WA0130501402
B1529294056107N00443100WA0130501402
B1529304056103N00443098WA0130401402
B1529314056099N00443098WA0130301401
B1529324056094N00443100WA0130201400
B1529334056090N00443103WA0130201400
B1529344056086N00443107WA0130401401
B1529354056082N00443111WA0130801404
B1529364056079N00443115WA0131001407
B1529374056076N00443118WA0131101410
B1529384056074N00443122WA0131101412
B1529394056073N00443126WA0131001413
B1529404056073N00443130WA0130801411
B1529414056075N00443135WA0130801410
B1529424056079N00443139WA0130901409
B1529434056084N00443141WA0131001410
B1529444056089N00443140WA0131001410
B1529454056094N00443135WA0131001410
B1529464056099N00443129WA0131101410
B1529474056103N00443122WA0131101411
B1529484056107N00443115WA0131101411
B1529494056110N00443107WA0131301412
B1529504056113N00443098WA0131401413
B1529514056115N00443088WA0131701415
B1529524056117N00443079WA0131901418
B1529534056117N00443071WA0132101420
B1529544056116N00443062WA0132201422
B1529554056112N00443055WA0132201422
B1529564056107N00443050WA0132001422
B1529574056101N00443048WA0132101421
B1529584056096N00443050WA0132101421
B1529594056093N00443054WA0132201421
B1530004056092N00443060WA0132301422
B1530014056092N00443065WA0132501422
B1530024056093N00443069WA0132801423
B1530034056097N00443071WA0132901425
B1530044056101N00443072WA0133001428
B1530054056105N00443071WA0133201428
B1530064056110N00443067WA0133201428
B1530074056114N00443060WA0133401429
B1530084056116N00443051WA0133501431
B1530094056115N00443041WA0133601432
B1530104056113N00443032WA0133701433
B1530114056108N00443025WA0133801434
B1530124056102N00443021WA0133801435
B1530134056097N00443021WA0133901436
B1530144056092N00443023WA0133901436
B1530154056089N00443025WA0134001437
B1530164056086N00443030WA0134301439
B1530174056084N00443035WA0134701442
B1530184056083N00443038WA0134801444
B1530194056084N00443041WA0134801445
B1530204056085N00443043WA0134701446
B1530214056090N00443044WA0134501446
B1530224056095N00443043WA0134601446
B1530234056101N00443039WA0134601447
B1530244056106N00443032WA0134901447
B1530254056111N00443025WA0135201449
B1530264056114N00443019WA0135501450
B1530274056116N00443012WA0135701452
B1530284056118N00443005WA0135801453
B1530294056118N00442996WA0135801453
B1530304056116N00442987WA0135901454
B1530314056113N00442980WA0136001456
B1530324056108N00442974WA0136101457
B1530334056103N00442972WA0136101457
B1530344056098N00442972WA0136001457
B1530354056093N00442974WA0136001458
B1530364056091N00442979WA0136101458
B1530374056091N00442986WA0136101459
B1530384056092N00442991WA0136201460
B1530394056096N00442996WA0136401462
B1530404056100N00442998WA0136601464
B1530414056105N00443000WA0136701465
B1530424056110N00443000WA0136901468
B1530434056114N00442999WA0137101471
B1530444056117N00442997WA0137301473
B1530454056120N00442994WA0137301474
B1530464056124N00442990WA0137401474
B1530474056128N00442984WA0137401474
B1530484056132N00442976WA0137601475
B1530494056134N00442966WA0137701476
B1530504056134N00442957WA0137701477
B1530514056132N00442948WA0137701477
B1530524056127N00442941WA0137801478
B1530534056122N00442936WA0137901479
B1530544056117N00442934WA0138101481
B1530554056112N00442933WA0138201483
B1530564056107N00442933WA0138301484
B1530574056103N00442934WA0138401485
B1530584056099N00442936WA0138601486
B1530594056096N00442939WA0138601488
B1531004056093N00442943WA0138701489
B1531014056093N00442948WA0138601489
B1531024056095N00442953WA0138701490
B1531034056098N00442957WA0138901491
B1531044056102N00442960WA0139001492
B1531054056105N00442960WA0139001492
B1531064056110N00442959WA0138901490
B1531074056115N00442956WA0138801489
B1531084056120N00442951WA0138701488
B1531094056124N00442944WA0138701488
B1531104056127N00442935WA0138801488
B1531114056129N00442925WA0138901489
B1531124056130N00442915WA0139001490
B1531134056131N00442906WA0139201492
B1531144056131N00442897WA0139301493
B1531154056131N00442889WA0139201494
B1531164056129N00442881WA0139301495
B1531174056127N00442873WA0139301495
B1531184056125N00442865WA0139401496
B1531194056122N00442857WA0139601497
B1531204056119N00442850WA0139601499
B1531214056116N00442843WA0139701501
B1531224056114N00442837WA0139701501
B1531234056111N00442832WA0139601501
B1531244056106N00442829WA0139601501
B1531254056101N00442827WA0139401500
B1531264056095N00442825WA0139501500
B1531274056089N00442823WA0139601501
B1531284056084N00442822WA0139701502
B1531294056079N00442822WA0139801504
B1531304056074N00442822WA0139801505
B1531314056069N00442821WA0139701505
B1531324056065N00442822WA0139601505
B1531334056062N00442825WA0139601504
B1531344056060N00442830WA0139601503
B1531354056059N00442836WA0139601503
B1531364056061N00442841WA0139801503
B1531374056063N00442845WA0139801503
B1531384056067N00442848WA0139901505
B1531394056071N00442850WA0139901506
B1531404056075N00442851WA0139901506
B1531414056080N00442851WA0139801506
B1531424056084N00442849WA0139701505
B1531434056089N00442846WA0139601503
B1531444056094N00442843WA0139501502
B1531454056100N00442838WA0139601502
B1531464056105N00442833WA0139701502
B1531474056109N00442827WA0139901502
B1531484056114N00442822WA0140001505
B1531494056118N00442818WA0140101506
B1531504056122N00442813WA0140101507
B1531514056125N00442806WA0140201507
B1531524056127N00442797WA0140201507
B1531534056127N00442788WA0140201507
B1531544056125N00442779WA0140301507
B1531554056120N00442772WA0140301507
B1531564056115N00442768WA0140301508
B1531574056109N00442768WA0140301508
B1531584056104N00442769WA0140301509
B1531594056102N00442773WA0140301509
B1532004056102N00442778WA0140001508
B1532014056103N00442783WA0140201508
B1532024056105N00442788WA0140201508
B1532034056109N00442791WA0140101508
B1532044056114N00442793WA0140301509
B1532054056119N00442794WA0140301512
B1532064056124N00442794WA0140401513
B1532074056128N00442793WA0140401513
B1532084056133N00442791WA0140301513
B1532094056137N00442786WA0140201511
B1532104056142N00442780WA0140301510
B1532114056146N00442772WA0140201510
B1532124056149N00442762WA0140301510
B1532134056151N00442753WA0140401512
B1532144056151N00442744WA0140501513
B1532154056152N00442736WA0140601513
B1532164056151N00442728WA0140501513
B1532174056150N00442720WA0140501513
B1532184056147N00442712WA0140501512
B1532194056143N00442704WA0140701512
B1532204056139N00442697WA0140701513
B1532214056134N00442690WA0140801514
B1532224056130N00442685WA0140901516
B1532234056125N00442681WA0140801516
B1532244056120N00442679WA0140701516
B1532254056115N00442680WA0140501515
B1532264056111N00442683WA0140401514
B1532274056107N00442689WA0140501514
B1532284056105N00442695WA0140601514
B1532294056103N00442700WA0140701516
B1532304056102N00442705WA0140901516
B1532314056102N00442709WA0140901516
B1532324056102N00442713WA0140901516
B1532334056104N00442716WA0140801516
B1532344056107N00442718WA0140701516
B1532354056112N00442718WA0140601515
B1532364056117N00442715WA0140401514
B1532374056122N00442709WA0140401512
B1532384056125N00442700WA0140401511
B1532394056126N00442690WA0140301511
B1532404056127N00442681WA0140301511
B1532414056126N00442671WA0140401511
B1532424056126N00442662WA0140501512
B1532434056124N00442654WA0140501513
B1532444056123N00442646WA0140401513
B1532454056120N00442639WA0140301512
B1532464056117N00442633WA0140201510
B1532474056112N00442626WA0140201510
B1532484056107N00442620WA0140301510
B1532494056102N00442613WA0140501511
B1532504056097N00442608WA0140701513
B1532514056092N00442603WA0140701514
B1532524056088N00442598WA0140701514
B1532534056083N00442593WA0140901515
B1532544056078N00442588WA0140901516
B1532554056073N00442583WA0141001517
B1532564056069N00442580WA0141101518
B1532574056064N00442577WA0141101519
B1532584056059N00442576WA0141301520
B1532594056054N00442576WA0141301521
B1533004056050N00442577WA0141501522
B1533014056047N00442580WA0141501523
B1533024056047N00442585WA0141501523
B1533034056048N00442590WA0141501524
B1533044056053N00442593WA0141601524
B1533054056059N00442593WA0141501524
B1533064056065N00442590WA0141501524
B1533074056070N00442584WA0141501524
B1533084056074N00442575WA0141501524
B1533094056075N00442566WA0141501524
B1533104056075N00442556WA0141601525
B1533114056075N00442547WA0141701525
B1533124056075N00442538WA0141801526
B1533134056074N00442529WA0141901527
B1533144056072N00442520WA0141901528
B1533154056069N00442512WA0142001528
B1533164056066N00442505WA0142001529
B1533174056061N00442498WA0142101529
B1533184056056N00442494WA0142101529
B1533194056051N00442490WA0142201530
B1533204056045N00442488WA0142301531
B1533214056040N00442488WA0142401531
B1533224056035N00442490WA0142501532
B1533234056030N00442492WA0142701534
B1533244056026N00442495WA0142801536
B1533254056023N00442499WA0143001538
B1533264056022N00442503WA0142901539
B1533274056023N00442509WA0143001540
B1533284056026N00442514WA0143101541
B1533294056030N00442518WA0143201542
B1533304056035N00442520WA0143401543
B1533314056041N00442517WA0143401544
B1533324056046N00442511WA0143401544
B1533334056049N00442502WA0143501545
B1533344056050N00442492WA0143601546
B1533354056049N00442484WA0143601546
B1533364056047N00442476WA0143601546
B1533374056043N00442469WA0143501545
B1533384056037N00442463WA0143501545
B1533394056031N00442458WA0143601545
B1533404056025N00442455WA0143701548
B1533414056018N00442452WA0143901550
B1533424056013N00442451WA0144201553
B1533434056008N00442450WA0144401555
B1533444056004N00442451WA0144501556
B1533454056000N00442453WA0144501556
B1533464055998N00442458WA0144601557
B1533474055997N00442464WA0144701558
B1533484055999N00442469WA0145001559
B1533494056002N00442473WA0145201561
B1533504056005N00442475WA0145301562
B1533514056010N00442476WA0145401563
B1533524056015N00442475WA0145501563
B1533534056020N00442471WA0145601564
B1533544056025N00442465WA0145601564
B1533554056029N00442458WA0145701565
B1533564056032N00442449WA0145801566
B1533574056034N00442440WA0145901567
B1533584056034N00442430WA0146001567
B1533594056033N00442420WA0146001567
B1534004056031N00442411WA0146001568
B1534014056027N00442402WA0146101569
B1534024056022N00442395WA0146301571
B1534034056018N00442388WA0146401572
B1534044056014N00442383WA0146401573
B1534054056009N00442378WA0146401572
B1534064056004N00442376WA0146301571
B1534074055998N00442375WA0146401571
B1534084055992N00442375WA0146601573
B1534094055986N00442376WA0146801576
B1534104055980N00442377WA0147001578
B1534114055976N00442379WA0147001580
B1534124055973N00442382WA0146901580
B1534134055972N00442385WA0146801580
B1534144055974N00442390WA0146701580
B1534154055976N00442395WA0146701580
B1534164055980N00442398WA0146701579
B1534174055984N00442398WA0146801580
B1534184055989N00442395WA0147101581
B1534194055994N00442391WA0147201583
B1534204055998N00442387WA0147501585
B1534214056002N00442382WA0147501587
B1534224056005N00442375WA0147501587
B1534234056006N00442366WA0147401586
B1534244056005N00442357WA0147501585
B1534254056002N00442349WA0147501585
B1534264055996N00442342WA0147501585
B1534274055989N00442340WA0147701586
B1534284055982N00442340WA0147901587
B1534294055977N00442343WA0148201589
B1534304055973N00442346WA0148201590
B1534314055971N00442350WA0148101590
B1534324055971N00442354WA0148001591
B1534334055974N00442357WA0148101592
B1534344055977N00442360WA0148201592
B1534354055982N00442359WA0148401592
B1534364055987N00442356WA0148501593
B1534374055994N00442346WA0148701595
B1534384055998N00442337WA0148901597
B1534394056000N00442328WA0148901599
B1534404055999N00442318WA0148801600
B1534414055995N00442310WA0148701600
B1534424055990N00442303WA0148901601
B1534434055983N00442297WA0149101602
B1534444055976N00442294WA0149301604
B1534454055969N00442291WA0149601608
B1534464055963N00442290WA0149801611
B1534474055959N00442291WA0149901613
B1534484055954N00442293WA0149801616
B1534494055950N00442295WA0149601616
B1534504055948N00442299WA0149401617
B1534514055952N00442304WA0149301617
B1534524055955N00442308WA0149301617
B1534534055960N00442309WA0149401616
B1534544055965N00442308WA0149601617
B1534554055970N00442305WA0149901618
B1534564055977N00442297WA0150101620
B1534574055981N00442291WA0150301626
B1534584055983N00442285WA0150501628
B1534594055985N00442279WA0150501629
B1535004055986N00442272WA0150401629
B1535014055986N00442262WA0150401629
B1535024055984N00442252WA0150301628
B1535034055979N00442241WA0150501629
B1535044055974N00442233WA0150701631
B1535054055968N00442229WA0150901633
B1535064055961N00442227WA0151001634
B1535074055956N00442228WA0151101634
B1535084055952N00442231WA0151101635
B1535094055949N00442235WA0151101633
B1535104055949N00442240WA0151201633
B1535114055950N00442246WA0151301633
B1535124055953N00442251WA0151401634
B1535134055956N00442255WA0151801635
B1535144055960N00442256WA0151901635
B1535154055966N00442253WA0152101637
B1535164055971N00442250WA0152401639
B1535174055975N00442246WA0152501641
B1535184055979N00442240WA0152601641
B1535194055980N00442231WA0152501641
B1535204055979N00442219WA0152601642
B1535214055977N00442208WA0152801644
B1535224055974N00442198WA0153001646
B1535234055970N00442190WA0153201647
B1535244055965N00442183WA0153301649
B1535254055960N00442179WA0153401648
B1535264055954N00442178WA0153501648
B1535274055949N00442180WA0153501649
B1535284055944N00442183WA0153601651
B1535294055941N00442187WA0153801653
B1535304055939N00442192WA0153901654
B1535314055939N00442198WA0154001655
B1535324055940N00442202WA0154201655
B1535334055943N00442206WA0154201656
B1535344055947N00442208WA0154301656
B1535354055952N00442207WA0154301657
B1535364055957N00442203WA0154501658
B1535374055961N00442198WA0154701659
B1535384055965N00442192WA0154901659
B1535394055968N00442184WA0155101662
B1535404055970N00442175WA0155201663
B1535414055971N00442166WA0155201664
B1535424055969N00442156WA0155301665
B1535434055965N00442148WA0155401666
B1535444055960N00442141WA0155501667
B1535454055955N00442135WA0155601668
B1535464055948N00442132WA0155701668
B1535474055941N00442132WA0155701669
B1535484055934N00442134WA0156101670
B1535494055929N00442137WA0156101674
B1535504055925N00442140WA0156401677
B1535514055922N00442145WA0156601680
B1535524055920N00442148WA0156601682
B1535534055921N00442152WA0156401683
B1535544055924N00442156WA0156201684
B1535554055928N00442158WA0156001684
B1535564055934N00442157WA0155901683
B1535574055941N00442154WA0155901683
B1535584055947N00442150WA0156201684
B1535594055953N00442146WA0156501688
B1536004055957N00442142WA0156801692
B1536014055961N00442138WA0157001695
B1536024055965N00442133WA0157201696
B1536034055968N00442127WA0157201694
B1536044055970N00442119WA0157201694
B1536054055970N00442109WA0157101694
B1536064055968N00442098WA0157101694
B1536074055962N00442089WA0157301694
B1536084055955N00442082WA0157301694
B1536094055948N00442079WA0157401695
B1536104055941N00442080WA0157601697
B1536114055936N00442083WA0157801698
B1536124055935N00442089WA0157801699
B1536134055935N00442094WA0158001700
B1536144055937N00442098WA0158101702
B1536154055940N00442100WA0158201703
B1536164055944N00442100WA0158301703
B1536174055949N00442099WA0158301703
B1536184055953N00442095WA0158401703
B1536194055957N00442091WA0158601705
B1536204055960N00442084WA0158601705
B1536214055962N00442076WA0158601704
B1536224055963N00442066WA0158801705
B1536234055963N00442056WA0158801705
B1536244055962N00442045WA0158901707
B1536254055960N00442035WA0159201708
B1536264055958N00442026WA0159401711
B1536274055955N00442017WA0159601713
B1536284055951N00442009WA0159701715
B1536294055945N00442002WA0159701715
B1536304055939N00441998WA0159701716
B1536314055932N00441999WA0159701716
B1536324055927N00442002WA0159801716
B1536334055923N00442007WA0159701717
B1536344055923N00442012WA0159801717
B1536354055923N00442016WA0159901718
B1536364055925N00442019WA0159901719
B1536374055928N00442021WA0160001718
B1536384055931N00442022WA0160001718
B1536394055935N00442021WA0160101718
B1536404055939N00442017WA0160101719
B1536414055943N00442011WA0160201719
B1536424055946N00442004WA0160401723
B1536434055949N00441997WA0160701726
B1536444055952N00441990WA0161101729
B1536454055954N00441983WA0161301732
B1536464055955N00441975WA0161301734
B1536474055954N00441966WA0161301735
B1536484055951N00441957WA0161301736
B1536494055945N00441949WA0161401736
B1536504055938N00441945WA0161401737
B1536514055931N00441945WA0161501738
B1536524055925N00441948WA0161701739
B1536534055920N00441952WA0161801740
B1536544055916N00441957WA0162101742
B1536554055915N00441962WA0162301745
B1536564055916N00441966WA0162401746
B1536574055919N00441968WA0162301747
B1536584055923N00441969WA0162401748
B1536594055927N00441970WA0162501748
B1537004055931N00441967WA0162601749
B1537014055936N00441963WA0162901750
B1537024055940N00441956WA0163101753
B1537034055943N00441948WA0163301756
B1537044055945N00441941WA0163501758
B1537054055945N00441933WA0163501760
B1537064055944N00441925WA0163601760
B1537074055942N00441917WA0163501760
B1537084055937N00441909WA0163601760
B1537094055931N00441902WA0163601760
B1537104055924N00441896WA0163801762
B1537114055917N00441894WA0163801763
B1537124055910N00441895WA0164001764
B1537134055903N00441896WA0164201765
B1537144055897N00441897WA0164401767
B1537154055890N00441898WA0164601769
B1537164055885N00441901WA0164701771
B1537174055880N00441904WA0164801772
B1537184055877N00441909WA0164801772
B1537194055876N00441914WA0164701773
B1537204055877N00441919WA0164701772
B1537214055879N00441923WA0164801772
B1537224055883N00441925WA0164801772
B1537234055887N00441925WA0165001773
B1537244055891N00441923WA0164901773
B1537254055895N00441921WA0165101774
B1537264055898N00441919WA0165201776
B1537274055902N00441916WA0165301777
B1537284055905N00441911WA0165501778
B1537294055908N00441905WA0165501779
B1537304055910N00441898WA0165501779
B1537314055911N00441891WA0165601780
B1537324055911N00441882WA0165601780
B1537334055910N00441873WA0165601780
B1537344055909N00441864WA0165801781
B1537354055907N00441854WA0166001783
B1537364055906N00441845WA0166201785
B1537374055904N00441837WA0166301787
B1537384055902N00441829WA0166301788
B1537394055899N00441822WA0166201788
B1537404055893N00441816WA0166201788
B1537414055886N00441811WA0166301789
B1537424055878N00441808WA0166401790
B1537434055871N00441805WA0166601793
B1537444055864N00441803WA0166801795
B1537454055859N00441801WA0166901796
B1537464055854N00441802WA0166901797
B1537474055850N00441806WA0166801797
B1537484055848N00441811WA0166801797
B1537494055847N00441818WA0166901798
B1537504055847N00441824WA0167201799
B1537514055847N00441829WA0167401801
B1537524055848N00441832WA0167601802
B1537534055849N00441834WA0167601801
B1537544055851N00441836WA0167601799
B1537554055855N00441836WA0167501797
B1537564055860N00441835WA0167501797
B1537574055865N00441833WA0167501798
B1537584055870N00441831WA0167801799
B1537594055874N00441828WA0167901800
B1538004055878N00441825WA0168001801
B1538014055882N00441821WA0168101802
B1538024055885N00441816WA0168201803
B1538034055889N00441809WA0168301804
B1538044055891N00441802WA0168401805
B1538054055893N00441794WA0168601807
B1538064055894N00441785WA0168701808
B1538074055894N00441777WA0168901810
B1538084055893N00441768WA0168901811
B1538094055890N00441760WA0169001810
B1538104055885N00441752WA0169001810
B1538114055880N00441747WA0169101812
B1538124055874N00441743WA0169201813
B1538134055869N00441742WA0169301814
B1538144055864N00441743WA0169301816
B1538154055860N00441746WA0169501817
B1538164055856N00441750WA0169601818
B1538174055853N00441754WA0169901822
B1538184055851N00441758WA0170001825
B1538194055849N00441762WA0170101826
B1538204055848N00441766WA0170201828
B1538214055849N00441770WA0170201828
B1538224055851N00441774WA0170101828
B1538234055855N00441776WA0170101828
B1538244055860N00441776WA0170201828
B1538254055865N00441774WA0170201828
B1538264055870N00441770WA0170501832
B1538274055874N00441766WA0170601833
B1538284055878N00441760WA0170701834
B1538294055881N00441753WA0170801835
B1538304055884N00441746WA0170901836
B1538314055886N00441738WA0171001838
B1538324055887N00441730WA0171101839
B1538334055887N00441721WA0171201839
B1538344055886N00441712WA0171001839
B1538354055883N00441702WA0171201838
B1538364055880N00441693WA0171301840
B1538374055877N00441683WA0171501842
B1538384055874N00441674WA0171701845
B1538394055871N00441666WA0171901846
B1538404055868N00441659WA0171901847
B1538414055863N00441654WA0171901848
B1538424055857N00441652WA0172201849
B1538434055851N00441653WA0172401851
B1538444055846N00441654WA0172601853
B1538454055842N00441657WA0172701854
B1538464055839N00441661WA0172601853
B1538474055841N00441667WA0172701854
B1538484055846N00441673WA0172801855
B1538494055851N00441676WA0172901856
B1538504055856N00441676WA0173001857
B1538514055861N00441671WA0173101857
B1538524055866N00441662WA0173301858
B1538534055872N00441650WA0173401860
B1538544055875N00441640WA0173701862
B1538554055878N00441630WA0173701864
B1538564055879N00441620WA0173801865
B1538574055879N00441610WA0173801865
B1538584055877N00441600WA0173801865
B1538594055873N00441590WA0174001867
B1539004055870N00441581WA0174301869
B1539014055866N00441572WA0174701873
B1539024055861N00441565WA0175001877
B1539034055857N00441560WA0175301880
B1539044055852N00441557WA0175501883
B1539054055847N00441558WA0175601886
B1539064055843N00441561WA0175801889
B1539074055841N00441567WA0176001891
B1539084055842N00441573WA0176301893
B1539094055844N00441579WA0176601894
B1539104055846N00441584WA0176901894
B1539114055849N00441586WA0177201894
B1539124055852N00441584WA0177301895
B1539134055855N00441577WA0177401896
B1539144055860N00441562WA0177501897
B1539154055861N00441550WA0177701898
B1539164055859N00441538WA0177901900
B1539174055857N00441527WA0178301904
B1539184055853N00441519WA0178501905
B1539194055848N00441513WA0178801907
B1539204055843N00441509WA0178901909
B1539214055837N00441507WA0179101910
B1539224055832N00441508WA0179401911
B1539234055827N00441510WA0179601918
B1539244055823N00441513WA0179901922
B1539254055819N00441515WA0180201925
B1539264055817N00441519WA0180401928
B1539274055817N00441523WA0180401929
B1539284055819N00441527WA0180601931
B1539294055822N00441531WA0180701932
B1539304055827N00441532WA0181101934
B1539314055833N00441532WA0181501937
B1539324055839N00441531WA0182001941
B1539334055843N00441528WA0182401946
B1539344055847N00441524WA0182601948
B1539354055850N00441520WA0182701952
B1539364055853N00441514WA0182701953
B1539374055855N00441506WA0182801953
B1539384055854N00441491WA0183101956
B1539394055851N00441478WA0183501960
B1539404055848N00441467WA0183701963
B1539414055842N00441459WA0183901966
B1539424055836N00441454WA0184201969
B1539434055829N00441451WA0184301971
B1539444055824N00441451WA0184501973
B1539454055818N00441453WA0184701975
B1539464055814N00441456WA0184801977
B1539474055811N00441460WA0185001980
B1539484055810N00441464WA0185101982
B1539494055811N00441467WA0185301984
B1539504055812N00441471WA0185601986
B1539514055815N00441474WA0185801988
B1539524055819N00441476WA0186001991
B1539534055823N00441477WA0186201994
B1539544055828N00441476WA0186601998
B1539554055833N00441475WA0186802002
B1539564055837N00441472WA0187102005
B1539574055841N00441466WA0187302008
B1539584055844N00441458WA0187402011
B1539594055846N00441448WA0187402011
B1540004055848N00441437WA0187502012
B1540014055848N00441426WA0187602013
B1540024055847N00441414WA0187902015
B1540034055845N00441403WA0188002018
B1540044055842N00441394WA0188202021
B1540054055838N00441385WA0188402023
B1540064055834N00441376WA0188602024
B1540074055828N00441369WA0188802026
B1540084055822N00441363WA0189102029
B1540094055816N00441358WA0189302032
B1540104055811N00441355WA0189502035
B1540114055806N00441353WA0189702037
B1540124055802N00441353WA0189902039
B1540134055799N00441356WA0190102040
B1540144055798N00441359WA0190202042
B1540154055798N00441363WA0190302043
B1540164055801N00441364WA0190502044
B1540174055806N00441364WA0190602045
B1540184055811N00441361WA0190602046
B1540194055815N00441356WA0190702047
B1540204055819N00441348WA0190802047
B1540214055822N00441339WA0191002049
B1540224055824N00441330WA0191102052
B1540234055824N00441320WA0191202053
B1540244055822N00441310WA0191202053
B1540254055820N00441299WA0191302053
B1540264055817N00441289WA0191402054
B1540274055812N00441280WA0191602055
B1540284055807N00441274WA0191802058
B1540294055802N00441271WA0191902060
B1540304055798N00441269WA0191902061
B1540314055794N00441269WA0191902060
B1540324055789N00441270WA0191802060
B1540334055785N00441273WA0191902061
B1540344055782N00441277WA0192002062
B1540354055780N00441282WA0192302064
B1540364055779N00441286WA0192402066
B1540374055778N00441290WA0192602067
B1540384055778N00441294WA0192702069
B1540394055779N00441297WA0192802070
B1540404055780N00441301WA0192902070
B1540414055782N00441305WA0192902071
B1540424055786N00441308WA0193102072
B1540434055791N00441310WA0193302074
B1540444055796N00441309WA0193402076
B1540454055801N00441307WA0193602078
B1540464055806N00441303WA0193702079
B1540474055811N00441298WA0193902081
B1540484055815N00441291WA0194102083
B1540494055818N00441283WA0194402085
B1540504055821N00441274WA0194502087
B1540514055822N00441267WA0194602089
B1540524055822N00441258WA0194602091
B1540534055820N00441248WA0194402091
B1540544055816N00441238WA0194702092
B1540554055809N00441229WA0194702093
B1540564055802N00441222WA0194802094
B1540574055795N00441216WA0195002095
B1540584055791N00441212WA0195002098
B1540594055786N00441210WA0195002099
B1541004055781N00441210WA0194902099
B1541014055776N00441212WA0194902099
B1541024055773N00441216WA0195002100
B1541034055772N00441221WA0195202101
B1541044055772N00441226WA0195302101
B1541054055774N00441229WA0195402103
B1541064055777N00441232WA0195502103
B1541074055781N00441232WA0195602105
B1541084055786N00441232WA0195602105
B1541094055791N00441230WA0195702106
B1541104055796N00441227WA0195902107
B1541114055800N00441224WA0196002109
B1541124055805N00441221WA0196102110
B1541134055809N00441218WA0196202111
B1541144055813N00441215WA0196302112
B1541154055818N00441209WA0196402113
B1541164055821N00441203WA0196502114
B1541174055824N00441195WA0196602115
B1541184055826N00441187WA0196602116
B1541194055826N00441178WA0196602115
B1541204055825N00441168WA0196702115
B1541214055824N00441157WA0196902116
B1541224055822N00441147WA0197002118
B1541234055821N00441137WA0197202120
B1541244055819N00441128WA0197202120
B1541254055817N00441120WA0197102120
B1541264055813N00441113WA0197002119
B1541274055808N00441107WA0196802117
B1541284055802N00441103WA0196902116
B1541294055795N00441101WA0196902115
B1541304055789N00441100WA0197102115
B1541314055783N00441101WA0197202116
B1541324055778N00441103WA0197302116
B1541334055774N00441106WA0197402117
B1541344055771N00441109WA0197402117
B1541354055769N00441114WA0197402116
B1541364055769N00441120WA0197402116
B1541374055769N00441125WA0197602117
B1541384055771N00441129WA0197802120
B1541394055772N00441134WA0197902122
B1541404055773N00441138WA0198002123
B1541414055775N00441143WA0198102124
B1541424055777N00441147WA0198202125
B1541434055779N00441152WA0198302126
B1541444055782N00441156WA0198402127
B1541454055785N00441161WA0198502129
B1541464055788N00441166WA0198602130
B1541474055791N00441170WA0198702132
B1541484055794N00441174WA0198802133
B1541494055796N00441177WA0198702133
B1541504055800N00441179WA0198702133
B1541514055804N00441182WA0198602133
B1541524055807N00441186WA0198602133
B1541534055810N00441189WA0198702133
B1541544055814N00441193WA0198802134
B1541554055817N00441197WA0198902136
B1541564055820N00441199WA0199102138
B1541574055822N00441201WA0199102139
B1541584055825N00441203WA0199102140
B1541594055829N00441206WA0199202139
B1542004055832N00441209WA0199102140
B1542014055836N00441212WA0199202141
B1542024055839N00441216WA0199502143
B1542034055843N00441219WA0199502145
B1542044055846N00441221WA0199602146
B1542054055850N00441224WA0199702147
B1542064055853N00441226WA0199802148
B1542074055857N00441228WA0200002149
B1542084055860N00441232WA0200102150
B1542094055863N00441235WA0200202152
B1542104055866N00441238WA0200202153
B1542114055869N00441240WA0200302152
B1542124055872N00441243WA0200402153
B1542134055876N00441246WA0200402153
B1542144055879N00441249WA0200502154
B1542154055883N00441253WA0200602155
B1542164055885N00441257WA0200802156
B1542174055888N00441261WA0200802158
B1542184055890N00441265WA0200902159
B1542194055893N00441268WA0201102160
B1542204055896N00441272WA0201202161
B1542214055899N00441277WA0201402162
B1542224055902N00441281WA0201602165
B1542234055904N00441285WA0201902167
B1542244055906N00441288WA0202002169
B1542254055909N00441291WA0202102170
B1542264055911N00441294WA0202202170
B1542274055914N00441297WA0202202170
B1542284055916N00441301WA0202402171
B1542294055919N00441305WA0202502173
B1542304055921N00441310WA0202802175
B1542314055924N00441314WA0203202179
B1542324055926N00441318WA0203502183
B1542334055928N00441321WA0203702186
B1542344055931N00441324WA0204002189
B1542354055933N00441328WA0204302192
B1542364055936N00441332WA0204702195
B1542374055938N00441337WA0205002199
B1542384055940N00441341WA0205302203
B1542394055943N00441345WA0205702207
B1542404055945N00441348WA0206002210
B1542414055947N00441351WA0206302214
B1542424055950N00441354WA0206702217
B1542434055952N00441358WA0207102221
B1542444055954N00441361WA0207402226
B1542454055957N00441363WA0207902230
B1542464055960N00441364WA0208302235
B1542474055962N00441367WA0208802240
B1542484055964N00441370WA0209202244
B1542494055965N00441372WA0209502249
B1542504055966N00441375WA0209802252
B1542514055967N00441379WA0210102255
B1542524055967N00441384WA0210402258
B1542534055966N00441390WA0210702261
B1542544055964N00441395WA0211202265
B1542554055962N00441400WA0211602270
B1542564055961N00441405WA0211902274
B1542574055960N00441409WA0212202278
B1542584055959N00441414WA0212502281
B1542594055957N00441418WA0212602284
B1543004055954N00441422WA0212902287
B1543014055949N00441426WA0213302290
B1543024055943N00441427WA0213702294
B1543034055938N00441425WA0214102298
B1543044055932N00441420WA0214302301
B1543054055928N00441413WA0214502304
B1543064055924N00441405WA0214602306
B1543074055922N00441396WA0214902309
B1543084055921N00441386WA0215202311
B1543094055922N00441377WA0215402314
B1543104055923N00441368WA0215602316
B1543114055926N00441360WA0215902318
B1543124055929N00441353WA0216002321
B1543134055933N00441347WA0216302323
B1543144055937N00441342WA0216702326
B1543154055941N00441336WA0217202331
B1543164055944N00441331WA0217602335
B1543174055947N00441326WA0217902340
B1543184055950N00441321WA0218002342
B1543194055954N00441318WA0218302344
B1543204055958N00441317WA0218602346
B1543214055962N00441318WA0219002349
B1543224055966N00441321WA0219402352
B1543234055966N00441325WA0219902358
B1543244055965N00441330WA0220202362
B1543254055962N00441334WA0220602366
B1543264055957N00441336WA0220902368
B1543274055950N00441336WA0221102370
B1543284055943N00441333WA0221402373
B1543294055936N00441328WA0221602375
B1543304055931N00441320WA0221802377
B1543314055928N00441311WA0222102378
B1543324055928N00441301WA0222402380
B1543334055930N00441293WA0222602383
B1543344055933N00441286WA0222902387
B1543354055937N00441282WA0223302390
B1543364055942N00441279WA0223502393
B1543374055946N00441278WA0223802396
B1543384055949N00441280WA0224102400
B1543394055953N00441283WA0224602406
B1543404055955N00441286WA0225102413
B1543414055957N00441289WA0225502418
B1543424055958N00441291WA0226002423
B1543434055958N00441294WA0226202427
B1543444055956N00441297WA0226302427
B1543454055954N00441303WA0226702429
B1543464055950N00441308WA0227002432
B1543474055945N00441313WA0227302436
B1543484055940N00441317WA0227502440
B1543494055935N00441320WA0227702443
B1543504055930N00441323WA0227902445
B1543514055924N00441327WA0227902447
B1543524055918N00441329WA0228102450
B1543534055912N00441330WA0228402452
B1543544055905N00441328WA0228602454
B1543554055899N00441325WA0228902456
B1543564055893N00441321WA0229102460
B1543574055887N00441316WA0229302462
B1543584055883N00441309WA0229602465
B1543594055879N00441301WA0229702467
B1544004055876N00441293WA0230002470
B1544014055874N00441284WA0230202471
B1544024055873N00441276WA0230302473
B1544034055872N00441267WA0230402473
B1544044055873N00441258WA0230502474
B1544054055874N00441249WA0230702475
B1544064055876N00441241WA0230802476
B1544074055879N00441233WA0230902478
B1544084055882N00441226WA0231102479
B1544094055885N00441219WA0231102480
B1544104055888N00441212WA0231302481
B1544114055893N00441207WA0231502482
B1544124055897N00441202WA0231602484
B1544134055902N00441199WA0231802487
B1544144055907N00441195WA0232102489
B1544154055910N00441193WA0232302492
B1544164055914N00441192WA0232402494
B1544174055918N00441191WA0232702496
B1544184055922N00441192WA0233002499
B1544194055926N00441193WA0233502502
B1544204055930N00441193WA0233702505
B1544214055933N00441195WA0234002510
B1544224055935N00441197WA0234302513
B1544234055936N00441201WA0234602515
B1544244055936N00441205WA0234802518
B1544254055935N00441209WA0235002521
B1544264055935N00441213WA0235402524
B1544274055933N00441218WA0235602526
B1544284055931N00441222WA0235902529
B1544294055929N00441227WA0236202532
B1544304055928N00441231WA0236502536
B1544314055926N00441235WA0236802540
B1544324055925N00441238WA0237102543
B1544334055923N00441242WA0237302545
B1544344055921N00441245WA0237602548
B1544354055917N00441248WA0237802551
B1544364055913N00441250WA0238102554
B1544374055908N00441250WA0238302557
B1544384055903N00441248WA0238602560
B1544394055898N00441243WA0238702562
B1544404055894N00441237WA0238902565
B1544414055891N00441229WA0239002567
B1544424055888N00441221WA0239202569
B1544434055887N00441211WA0239302570
B1544444055888N00441202WA0239402572
B1544454055891N00441193WA0239602573
B1544464055894N00441184WA0239802575
B1544474055898N00441175WA0240002577
B1544484055902N00441168WA0240202578
B1544494055907N00441162WA0240402580
B1544504055913N00441157WA0240602582
B1544514055918N00441153WA0240902585
B1544524055924N00441150WA0241102588
B1544534055929N00441148WA0241302592
B1544544055934N00441146WA0241502594
B1544554055938N00441147WA0241702596
B1544564055943N00441149WA0241902598
B1544574055946N00441153WA0242302600
B1544584055947N00441157WA0242502603
B1544594055947N00441162WA0242602606
B1545004055946N00441166WA0242902609
B1545014055944N00441170WA0243102611
B1545024055941N00441172WA0243202613
B1545034055937N00441174WA0243602614
B1545044055930N00441174WA0243702616
B1545054055924N00441170WA0243902618
B1545064055917N00441166WA0244402620
B1545074055913N00441160WA0244602622
B1545084055910N00441153WA0244802624
B1545094055907N00441146WA0244902624
B1545104055906N00441136WA0244902624
B1545114055907N00441127WA0245002624
B1545124055911N00441118WA0245102625
B1545134055915N00441111WA0245302627
B1545144055920N00441107WA0245602629
B1545154055926N00441105WA0245802631
B1545164055930N00441105WA0246102634
B1545174055935N00441105WA0246302637
B1545184055938N00441107WA0246402638
B1545194055941N00441109WA0246702642
B1545204055943N00441112WA0246902645
B1545214055944N00441115WA0247102647
B1545224055944N00441120WA0247202648
B1545234055943N00441124WA0247202648
B1545244055940N00441129WA0247402649
B1545254055936N00441133WA0247302650
B1545264055932N00441137WA0247402651
B1545274055927N00441140WA0247602652
B1545284055921N00441142WA0247802653
B1545294055916N00441143WA0248302656
B1545304055911N00441144WA0248502662
B1545314055907N00441146WA0248902666
B1545324055905N00441150WA0249202669
B1545334055903N00441155WA0249502673
B1545344055901N00441160WA0249802676
B1545354055898N00441164WA0250102680
B1545364055893N00441166WA0250502683
B1545374055887N00441165WA0250602686
B1545384055882N00441161WA0250702689
B1545394055877N00441153WA0251002692
B1545404055874N00441143WA0251302695
B1545414055873N00441131WA0251602699
B1545424055875N00441121WA0252102702
B1545434055878N00441114WA0252502704
B1545444055884N00441109WA0252602706
B1545454055890N00441108WA0252802708
B1545464055896N00441109WA0253002710
B1545474055902N00441112WA0253202712
B1545484055904N00441118WA0253202712
B1545494055899N00441129WA0253502714
B1545504055894N00441135WA0253802716
B1545514055887N00441136WA0254002720
B1545524055881N00441135WA0254402721
B1545534055875N00441132WA0254702725
B1545544055871N00441129WA0254902728
B1545554055866N00441124WA0255202731
B1545564055862N00441119WA0255402733
B1545574055858N00441111WA0255502736
B1545584055854N00441102WA0255902739
B1545594055852N00441092WA0256302743
B1546004055852N00441083WA0256802749
B1546014055852N00441075WA0257102754
B1546024055853N00441068WA0257402758
B1546034055855N00441062WA0257602762
B1546044055859N00441058WA0257702763
B1546054055865N00441054WA0257902765
B1546064055871N00441054WA0258202767
B1546074055877N00441056WA0258402770
B1546084055882N00441060WA0258502770
B1546094055882N00441068WA0258502770
B1546104055881N00441075WA0258702772
B1546114055877N00441081WA0259002773
B1546124055871N00441085WA0259402776
B1546134055865N00441086WA0259602779
B1546144055860N00441086WA0259802783
B1546154055856N00441085WA0260002785
B1546164055851N00441083WA0260202786
B1546174055846N00441079WA0260302788
B1546184055841N00441073WA0260602790
B1546194055836N00441067WA0261002792
B1546204055831N00441059WA0261202795
B1546214055827N00441051WA0261602799
B1546224055823N00441044WA0262002803
B1546234055821N00441035WA0262302807
B1546244055819N00441027WA0262602809
B1546254055819N00441017WA0262702811
B1546264055821N00441008WA0262802813
B1546274055825N00441001WA0263002816
B1546284055830N00440994WA0263602819
B1546294055836N00440990WA0263802821
B1546304055842N00440989WA0264102823
B1546314055846N00440991WA0264202825
B1546324055847N00440996WA0264402828
B1546334055848N00441001WA0264802831
B1546344055849N00441005WA0265102835
B1546354055849N00441008WA0265202838
B1546364055849N00441012WA0265402840
B1546374055848N00441016WA0265602843
B1546384055846N00441020WA0265802844
B1546394055843N00441023WA0266102846
B1546404055838N00441025WA0266402850
B1546414055833N00441025WA0266702854
B1546424055828N00441023WA0267002857
B1546434055823N00441019WA0267302860
B1546444055820N00441013WA0267602863
B1546454055816N00441006WA0267802865
B1546464055813N00440998WA0268002868
B1546474055811N00440989WA0268302870
B1546484055811N00440980WA0268502872
B1546494055813N00440970WA0268602875
B1546504055815N00440962WA0268702876
B1546514055819N00440955WA0269102878
B1546524055824N00440950WA0269302880
B1546534055828N00440944WA0269402883
B1546544055832N00440939WA0269602886
B1546554055836N00440935WA0269902888
B1546564055840N00440931WA0270002890
B1546574055844N00440928WA0270102891
B1546584055849N00440925WA0270202892
B1546594055853N00440923WA0270302894
B1547004055858N00440920WA0270302895
B1547014055863N00440917WA0270302895
B1547024055867N00440915WA0270402896
B1547034055873N00440915WA0270402896
B1547044055878N00440916WA0270602897
B1547054055882N00440919WA0270802898
B1547064055886N00440922WA0270902900
B1547074055888N00440926WA0271102901
B1547084055890N00440928WA0271102902
B1547094055891N00440931WA0271202902
B1547104055892N00440934WA0271102901
B1547114055894N00440938WA0271102901
B1547124055894N00440944WA0271102902
B1547134055893N00440950WA0271102903
B1547144055891N00440956WA0271202904
B1547154055887N00440960WA0271202905
B1547164055884N00440964WA0271202906
B1547174055880N00440967WA0271102906
B1547184055875N00440970WA0271102905
B1547194055869N00440972WA0271202905
B1547204055863N00440974WA0271302907
B1547214055857N00440975WA0271302908
B1547224055852N00440976WA0271502910
B1547234055846N00440977WA0271602911
B1547244055840N00440977WA0271702912
B1547254055833N00440978WA0271702913
B1547264055827N00440977WA0271802914
B1547274055820N00440976WA0271802915
B1547284055813N00440975WA0271802916
B1547294055806N00440972WA0271702916
B1547304055798N00440969WA0271902916
B1547314055791N00440965WA0272102918
B1547324055784N00440961WA0272402921
B1547334055778N00440957WA0272702924
B1547344055774N00440952WA0272802927
B1547354055772N00440946WA0273002929
B1547364055770N00440938WA0273002930
B1547374055769N00440930WA0273002930
B1547384055769N00440921WA0273202931
B1547394055770N00440912WA0273302932
B1547404055773N00440904WA0273502934
B1547414055777N00440897WA0273702935
B1547424055780N00440890WA0273702937
B1547434055783N00440884WA0273702936
B1547444055787N00440880WA0273602936
B1547454055791N00440876WA0273602935
B1547464055797N00440874WA0273402934
B1547474055802N00440871WA0273402934
B1547484055807N00440867WA0273502934
B1547494055812N00440863WA0273602935
B1547504055817N00440859WA0273702938
B1547514055821N00440855WA0273702939
B1547524055825N00440852WA0273602939
B1547534055830N00440848WA0273402939
B1547544055835N00440843WA0273302937
B1547554055841N00440838WA0273302936
B1547564055846N00440832WA0273302936
B1547574055851N00440828WA0273402937
B1547584055855N00440823WA0273502938
B1547594055859N00440819WA0273502939
B1548004055863N00440816WA0273502938
B1548014055868N00440813WA0273602938
B1548024055872N00440810WA0273702938
B1548034055877N00440807WA0273602939
B1548044055881N00440803WA0273602939
B1548054055886N00440798WA0273602938
B1548064055891N00440792WA0273602938
B1548074055896N00440786WA0273602938
B1548084055901N00440781WA0273802939
B1548094055906N00440776WA0273902940
B1548104055910N00440769WA0274102942
B1548114055914N00440762WA0274102943
B1548124055917N00440755WA0274002943
B1548134055920N00440748WA0273802942
B1548144055924N00440740WA0273802940
B1548154055927N00440732WA0273602938
B1548164055932N00440724WA0273502936
B1548174055936N00440716WA0273502936
B1548184055940N00440710WA0273502937
B1548194055944N00440703WA0273602937
B1548204055947N00440696WA0273702938
B1548214055950N00440689WA0273802939
B1548224055953N00440683WA0273902941
B1548234055956N00440678WA0273902941
B1548244055959N00440674WA0273802940
B1548254055963N00440669WA0273802939
B1548264055966N00440665WA0273602938
B1548274055970N00440660WA0273702938
B1548284055974N00440655WA0273602938
B1548294055978N00440650WA0273602938
B1548304055982N00440644WA0273602937
B1548314055986N00440637WA0273502937
B1548324055989N00440629WA0273602937
B1548334055993N00440622WA0273502937
B1548344055996N00440614WA0273502936
B1548354056000N00440606WA0273602937
B1548364056004N00440600WA0273702937
B1548374056007N00440594WA0273702938
B1548384056009N00440589WA0273702939
B1548394056012N00440583WA0273602939
B1548404056014N00440578WA0273502938
B1548414056017N00440571WA0273302936
B1548424056019N00440563WA0273202934
B1548434056022N00440554WA0273102933
B1548444056025N00440546WA0273202933
B1548454056028N00440539WA0273402934
B1548464056031N00440533WA0273402935
B1548474056034N00440527WA0273302935
B1548484056036N00440522WA0273202935
B1548494056039N00440517WA0273002933
B1548504056043N00440511WA0272802929
B1548514056047N00440505WA0272602927
B1548524056051N00440499WA0272602926
B1548534056055N00440491WA0272602925
B1548544056058N00440484WA0272502926
B1548554056060N00440476WA0272502926
B1548564056063N00440468WA0272402925
B1548574056065N00440460WA0272202922
B1548584056067N00440451WA0272102921
B1548594056070N00440442WA0272002920
B1549004056072N00440433WA0272002919
B1549014056074N00440425WA0272002919
B1549024056076N00440416WA0271802918
B1549034056078N00440407WA0271702916
B1549044056081N00440398WA0271502914
B1549054056083N00440389WA0271302913
B1549064056085N00440381WA0271102910
B1549074056088N00440374WA0271002908
B1549084056091N00440368WA0270602905
B1549094056094N00440361WA0270202900
B1549104056098N00440355WA0269802896
B1549114056101N00440347WA0269402892
B1549124056104N00440338WA0269102889
B1549134056107N00440329WA0268802886
B1549144056109N00440321WA0268502883
B1549154056111N00440312WA0268202880
B1549164056113N00440303WA0267802876
B1549174056115N00440293WA0267302872
B1549184056118N00440284WA0266902867
B1549194056120N00440275WA0266602863
B1549204056123N00440266WA0266302860
B1549214056125N00440257WA0265902856
B1549224056128N00440248WA0265502852
B1549234056132N00440239WA0265102847
B1549244056135N00440230WA0264802844
B1549254056138N00440221WA0264502841
B1549264056140N00440212WA0264102838
B1549274056142N00440203WA0263802835
B1549284056144N00440194WA0263502831
B1549294056146N00440184WA0263302828
B1549304056148N00440174WA0263002826
B1549314056150N00440165WA0262702824
B1549324056150N00440155WA0262402820
B1549334056151N00440146WA0262102817
B1549344056152N00440136WA0261702813
B1549354056155N00440126WA0261202808
B1549364056159N00440117WA0261102804
B1549374056164N00440109WA0261002802
B1549384056168N00440102WA0261002801
B1549394056172N00440097WA0260802799
B1549404056177N00440091WA0260602796
B1549414056181N00440085WA0260002792
B1549424056186N00440078WA0259602788
B1549434056191N00440071WA0259402785
B1549444056196N00440063WA0259202783
B1549454056199N00440055WA0259002780
B1549464056202N00440047WA0258802778
B1549474056204N00440039WA0258302775
B1549484056206N00440031WA0257802771
B1549494056209N00440023WA0257502767
B1549504056212N00440015WA0257202762
B1549514056215N00440005WA0257002759
B1549524056218N00439995WA0256702755
B1549534056220N00439985WA0256402752
B1549544056223N00439975WA0256202749
B1549554056225N00439965WA0255802747
B1549564056226N00439955WA0255702746
B1549574056227N00439945WA0255502744
B1549584056228N00439936WA0255202741
B1549594056230N00439926WA0254902738
B1550004056232N00439917WA0254702736
B1550014056235N00439908WA0254402733
B1550024056238N00439899WA0254202730
B1550034056241N00439890WA0253702725
B1550044056244N00439881WA0253202721
B1550054056247N00439871WA0252902716
B1550064056251N00439861WA0252502712
B1550074056254N00439850WA0252302709
B1550084056256N00439840WA0252102707
B1550094056258N00439830WA0251702704
B1550104056258N00439819WA0251402702
B1550114056259N00439809WA0251102698
B1550124056260N00439798WA0250802694
B1550134056262N00439787WA0250602691
B1550144056263N00439777WA0250302689
B1550154056264N00439767WA0250102687
B1550164056265N00439757WA0249702684
B1550174056266N00439747WA0249402680
B1550184056267N00439737WA0249202676
B1550194056268N00439726WA0248902674
B1550204056269N00439716WA0248802673
B1550214056270N00439707WA0248802673
B1550224056271N00439699WA0248702672
B1550234056272N00439691WA0248602671
B1550244056272N00439683WA0248502670
B1550254056273N00439675WA0248302669
B1550264056273N00439667WA0248202668
B1550274056273N00439659WA0248102666
B1550284056273N00439650WA0247802664
B1550294056273N00439641WA0247702662
B1550304056272N00439633WA0247402660
B1550314056272N00439624WA0247202656
B1550324056271N00439615WA0247002653
B1550334056270N00439605WA0246602650
B1550344056269N00439594WA0246402648
B1550354056268N00439584WA0246302646
B1550364056268N00439573WA0246102644
B1550374056267N00439564WA0246202644
B1550384056266N00439556WA0246202645
B1550394056265N00439550WA0246102644
B1550404056265N00439543WA0245802642
B1550414056264N00439536WA0245502639
B1550424056264N00439528WA0245202636
B1550434056265N00439521WA0245002633
B1550444056265N00439514WA0244602630
B1550454056265N00439507WA0244302627
B1550464056266N00439500WA0244002624
B1550474056266N00439493WA0243602620
B1550484056267N00439485WA0243202616
B1550494056268N00439476WA0243002612
B1550504056270N00439467WA0242602608
B1550514056271N00439459WA0242302605
B1550524056273N00439451WA0241902601
B1550534056274N00439442WA0241502596
B1550544056276N00439434WA0241202592
B1550554056277N00439425WA0240902589
B1550564056279N00439417WA0240702586
B1550574056281N00439409WA0240302583
B1550584056282N00439401WA0239902579
B1550594056283N00439393WA0239702576
B1551004056284N00439383WA0239502573
B1551014056285N00439374WA0239402571
B1551024056285N00439365WA0239202570
B1551034056286N00439356WA0239202570
B1551044056287N00439349WA0239102569
B1551054056287N00439341WA0238902568
B1551064056288N00439334WA0238802565
B1551074056289N00439326WA0238502563
B1551084056291N00439318WA0238202560
B1551094056292N00439309WA0238202558
B1551104056294N00439300WA0238202556
B1551114056297N00439293WA0238102555
B1551124056299N00439287WA0238102555
B1551134056302N00439279WA0238002554
B1551144056306N00439272WA0237902553
B1551154056310N00439265WA0237802552
B1551164056314N00439258WA0237702551
B1551174056318N00439250WA0237602551
B1551184056322N00439243WA0237402552
B1551194056326N00439237WA0237502552
B1551204056329N00439231WA0237602552
B1551214056332N00439226WA0237402551
B1551224056335N00439221WA0237102550
B1551234056338N00439214WA0236902545
B1551244056342N00439207WA0236802543
B1551254056344N00439199WA0236602542
B1551264056347N00439192WA0236502542
B1551274056349N00439185WA0236402541
B1551284056352N00439179WA0236302540
B1551294056354N00439172WA0236102538
B1551304056356N00439165WA0236002536
B1551314056359N00439158WA0235902534
B1551324056362N00439150WA0235802532
B1551334056364N00439143WA0235702531
B1551344056367N00439135WA0235602530
B1551354056368N00439128WA0235502529
B1551364056370N00439121WA0235402528
B1551374056370N00439114WA0235302528
B1551384056371N00439107WA0235102526
B1551394056372N00439099WA0235102525
B1551404056373N00439091WA0235102525
B1551414056374N00439084WA0235202525
B1551424056375N00439077WA0235302527
B1551434056375N00439071WA0235402527
B1551444056375N00439065WA0235302528
B1551454056376N00439060WA0235102527
B1551464056376N00439053WA0235002524
B1551474056376N00439046WA0235002523
B1551484056376N00439038WA0235002523
B1551494056376N00439032WA0235102526
B1551504056377N00439026WA0235302527
B1551514056378N00439021WA0235302528
B1551524056379N00439017WA0235202528
B1551534056380N00439011WA0235202525
B1551544056380N00439004WA0234802523
B1551554056380N00438997WA0234702522
B1551564056380N00438991WA0234602520
B1551574056381N00438984WA0234502519
B1551584056381N00438977WA0234402517
B1551594056382N00438969WA0234302516
B1552004056383N00438962WA0234202516
B1552014056383N00438956WA0234202515
B1552024056384N00438950WA0234102515
B1552034056384N00438945WA0234102514
B1552044056385N00438939WA0233902512
B1552054056386N00438932WA0233802511
B1552064056386N00438926WA0233702511
B1552074056386N00438920WA0233702510
B1552084056386N00438915WA0233702510
B1552094056386N00438910WA0233602510
B1552104056385N00438905WA0233402508
B1552114056385N00438900WA0233302507
B1552124056384N00438895WA0233202506
B1552134056384N00438890WA0233202506
B1552144056383N00438886WA0233002505
B1552154056383N00438880WA0232902503
B1552164056384N00438875WA0232802502
B1552174056387N00438869WA0232702500
B1552184056391N00438864WA0232502498
B1552194056396N00438858WA0232602498
B1552204056400N00438854WA0232602498
B1552214056405N00438850WA0232602498
B1552224056409N00438846WA0232602497
B1552234056414N00438842WA0232402496
B1552244056418N00438838WA0232302495
B1552254056422N00438833WA0232202493
B1552264056426N00438828WA0232102492
B1552274056431N00438822WA0232002491
B1552284056435N00438817WA0231902491
B1552294056439N00438812WA0231802490
B1552304056443N00438807WA0231702489
B1552314056447N00438801WA0231702489
B1552324056452N00438795WA0231702488
B1552334056456N00438789WA0231502488
B1552344056459N00438783WA0231502487
B1552354056462N00438777WA0231402487
B1552364056465N00438772WA0231502487
B1552374056468N00438767WA0231402487
B1552384056471N00438763WA0231402487
B1552394056474N00438759WA0231102486
B1552404056476N00438756WA0230902484
B1552414056478N00438752WA0230602481
B1552424056479N00438747WA0230402478
B1552434056481N00438741WA0230302476
B1552444056482N00438736WA0230202474
B1552454056484N00438731WA0230002473
B1552464056486N00438727WA0229902471
B1552474056487N00438723WA0229702468
B1552484056488N00438719WA0229402465
B1552494056490N00438714WA0229202463
B1552504056491N00438709WA0228902460
B1552514056493N00438704WA0228702458
B1552524056495N00438700WA0228602456
B1552534056497N00438695WA0228402454
B1552544056499N00438690WA0228302451
B1552554056501N00438686WA0228002450
B1552564056503N00438682WA0227802448
B1552574056505N00438678WA0227402446
B1552584056506N00438674WA0227202442
B1552594056507N00438670WA0226902439
B1553004056507N00438665WA0226802436
B1553014056509N00438661WA0226602434
B1553024056510N00438658WA0226402432
B1553034056510N00438654WA0226102430
B1553044056510N00438651WA0225802427
B1553054056510N00438647WA0225502424
B1553064056510N00438643WA0225402421
B1553074056509N00438639WA0225002419
B1553084056509N00438635WA0224702417
B1553094056508N00438631WA0224602414
B1553104056508N00438628WA0224402411
B1553114056507N00438624WA0224102408
B1553124056508N00438620WA0223902406
B1553134056508N00438617WA0223602403
B1553144056509N00438613WA0223302401
B1553154056510N00438610WA0223102398
B1553164056512N00438606WA0223002396
B1553174056514N00438603WA0222702394
B1553184056516N00438600WA0222402392
B1553194056518N00438598WA0222002389
B1553204056521N00438595WA0221502386
B1553214056522N00438592WA0221102382
B1553224056524N00438588WA0220702382
B1553234056525N00438582WA0220402378
B1553244056526N00438576WA0220102375
B1553254056528N00438571WA0219902372
B1553264056530N00438566WA0219702368
B1553274056532N00438561WA0219302364
B1553284056535N00438556WA0219002360
B1553294056538N00438551WA0218702356
B1553304056541N00438545WA0218302353
B1553314056544N00438539WA0217902349
B1553324056546N00438533WA0217602346
B1553334056549N00438527WA0217302342
B1553344056551N00438520WA0216902337
B1553354056553N00438513WA0216502333
B1553364056556N00438507WA0216102328
B1553374056559N00438501WA0215702324
B1553384056561N00438494WA0215202319
B1553394056564N00438488WA0214802314
B1553404056567N00438481WA0214502311
B1553414056571N00438475WA0214102307
B1553424056574N00438469WA0213902305
B1553434056577N00438463WA0213702302
B1553444056580N00438457WA0213402298
B1553454056582N00438451WA0213002294
B1553464056584N00438444WA0212602291
B1553474056585N00438438WA0212402288
B1553484056587N00438432WA0212102285
B1553494056588N00438426WA0211702280
B1553504056588N00438420WA0211302276
B1553514056589N00438413WA0210902271
B1553524056591N00438406WA0210602267
B1553534056593N00438398WA0210202263
B1553544056594N00438391WA0209802260
B1553554056595N00438385WA0209502256
B1553564056596N00438378WA0209102252
B1553574056596N00438372WA0208702246
B1553584056596N00438366WA0208202241
B1553594056596N00438359WA0207602236
B1554004056596N00438352WA0207202230
B1554014056596N00438344WA0206802225
B1554024056597N00438337WA0206402221
B1554034056598N00438330WA0206002217
B1554044056600N00438324WA0205602214
B1554054056601N00438318WA0205202209
B1554064056602N00438311WA0204802204
B1554074056604N00438303WA0204202198
B1554084056606N00438295WA0203802193
B1554094056607N00438287WA0203502189
B1554104056609N00438280WA0203302186
B1554114056610N00438273WA0203002182
B1554124056611N00438266WA0202502176
B1554134056611N00438259WA0202102171
B1554144056611N00438251WA0201602166
B1554154056612N00438243WA0201202161
B1554164056612N00438234WA0200902158
B1554174056612N00438227WA0200502154
B1554184056612N00438220WA0200102150
B1554194056612N00438212WA0199802146
B1554204056613N00438204WA0199302141
B1554214056613N00438196WA0198802137
B1554224056612N00438188WA0198602134
B1554234056612N00438180WA0198202131
B1554244056612N00438173WA0197802127
B1554254056613N00438165WA0197302122
B1554264056613N00438157WA0196902117
B1554274056614N00438148WA0196402112
B1554284056616N00438140WA0196102108
B1554294056617N00438131WA0195802104
B1554304056619N00438122WA0195502100
B1554314056620N00438113WA0195202097
B1554324056622N00438105WA0194702094
B1554334056622N00438096WA0194402091
B1554344056622N00438088WA0194302088
B1554354056621N00438080WA0194002084
B1554364056621N00438072WA0193502079
B1554374056621N00438063WA0193002075
B1554384056620N00438055WA0192502070
B1554394056619N00438046WA0192202066
B1554404056618N00438038WA0192002063
B1554414056617N00438030WA0191602059
B1554424056616N00438022WA0191302055
B1554434056616N00438014WA0191002051
B1554444056614N00438006WA0190502048
B1554454056613N00437998WA0190302045
B1554464056612N00437990WA0189902041
B1554474056611N00437983WA0189702038
B1554484056610N00437975WA0189602036
B1554494056610N00437968WA0189402034
B1554504056609N00437960WA0189202032
B1554514056609N00437953WA0189002029
B1554524056609N00437946WA0188902027
B1554534056609N00437938WA0188702026
B1554544056608N00437931WA0188502024
B1554554056608N00437924WA0188302022
B1554564056608N00437917WA0188102019
B1554574056608N00437910WA0187902017
B1554584056608N00437902WA0187602015
B1554594056608N00437894WA0187302012
B1555004056608N00437887WA0187002009
B1555014056608N00437879WA0186802006
B1555024056609N00437871WA0186502003
B1555034056609N00437864WA0186202001
B1555044056610N00437856WA0185901997
B1555054056612N00437848WA0185701994
B1555064056613N00437840WA0185401991
B1555074056614N00437833WA0185201989
B1555084056616N00437826WA0184901986
B1555094056618N00437820WA0184601983
B1555104056619N00437813WA0184201979
B1555114056621N00437805WA0183801975
B1555124056622N00437798WA0183501971
B1555134056625N00437790WA0183201968
B1555144056627N00437782WA0183001965
B1555154056628N00437774WA0182801962
B1555164056629N00437765WA0182301959
B1555174056629N00437757WA0182301956
B1555184056630N00437748WA0182001953
B1555194056630N00437739WA0181701951
B1555204056629N00437730WA0181501948
B1555214056629N00437721WA0181201946
B1555224056628N00437712WA0181101945
B1555234056628N00437704WA0181001943
B1555244056627N00437695WA0180801942
B1555254056626N00437687WA0180701940
B1555264056623N00437680WA0180501939
B1555274056621N00437672WA0180201935
B1555284056618N00437665WA0180201933
B1555294056615N00437656WA0180001931
B1555304056612N00437649WA0179901931
B1555314056610N00437641WA0179901932
B1555324056607N00437634WA0179901933
B1555334056605N00437628WA0179901933
B1555344056603N00437623WA0179901932
B1555354056601N00437617WA0179601931
B1555364056599N00437611WA0179401930
B1555374056595N00437605WA0179101928
B1555384056592N00437599WA0179001925
B1555394056589N00437592WA0178901924
B1555404056587N00437585WA0178901923
B1555414056585N00437578WA0178901922
B1555424056582N00437572WA0178801921
B1555434056578N00437566WA0178801920
B1555444056574N00437561WA0178701919
B1555454056569N00437557WA0178501917
B1555464056564N00437553WA0178201915
B1555474056559N00437551WA0178001912
B1555484056553N00437549WA0177801911
B1555494056548N00437546WA0177601908
B1555504056543N00437542WA0177401905
B1555514056538N00437537WA0177101903
B1555524056535N00437532WA0176901901
B1555534056532N00437526WA0176801900
B1555544056529N00437521WA0176601897
B1555554056527N00437515WA0176301895
B1555564056525N00437508WA0176101893
B1555574056525N00437500WA0175901892
B1555584056526N00437493WA0175801890
B1555594056528N00437487WA0175801889
B1556004056530N00437480WA0175901888
B1556014056532N00437475WA0175801887
B1556024056534N00437470WA0175601886
B1556034056536N00437464WA0175401882
B1556044056540N00437459WA0175001880
B1556054056544N00437454WA0174901877
B1556064056550N00437449WA0174801877
B1556074056555N00437445WA0174601875
B1556084056559N00437441WA0174601875
B1556094056563N00437436WA0174501874
B1556104056567N00437432WA0174401873
B1556114056570N00437427WA0174201870
B1556124056574N00437420WA0173701867
B1556134056578N00437413WA0173401864
B1556144056581N00437406WA0173301862
B1556154056583N00437398WA0173001859
B1556164056584N00437389WA0172701857
B1556174056585N00437380WA0172601856
B1556184056585N00437372WA0172601856
B1556194056584N00437364WA0172501856
B1556204056583N00437356WA0172501855
B1556214056582N00437349WA0172401853
B1556224056582N00437342WA0172101851
B1556234056583N00437334WA0171801848
B1556244056586N00437327WA0171701846
B1556254056589N00437319WA0171601845
B1556264056592N00437313WA0171601844
B1556274056596N00437306WA0171701844
B1556284056599N00437299WA0171501844
B1556294056601N00437292WA0171601843
B1556304056603N00437284WA0171401842
B1556314056605N00437275WA0171401842
B1556324056606N00437266WA0171301841
B1556334056606N00437257WA0171301841
B1556344056607N00437248WA0171301840
B1556354056607N00437240WA0171101839
B1556364056608N00437231WA0170901837
B1556374056611N00437223WA0170701835
B1556384056614N00437215WA0170501832
B1556394056618N00437206WA0170301829
B1556404056622N00437197WA0170201828
B1556414056625N00437187WA0170201829
B1556424056626N00437178WA0170301830
B1556434056627N00437170WA0170401831
B1556444056628N00437162WA0170201830
B1556454056628N00437153WA0170101828
B1556464056627N00437145WA0169701825
B1556474056625N00437135WA0169501822
B1556484056623N00437126WA0169401820
B1556494056621N00437116WA0169401820
B1556504056619N00437108WA0169301819
B1556514056618N00437099WA0169001817
B1556524056617N00437091WA0168801815
B1556534056617N00437082WA0168501812
B1556544056619N00437073WA0168301808
B1556554056622N00437065WA0168101806
B1556564056625N00437056WA0167901804
B1556574056628N00437049WA0167701803
B1556584056631N00437041WA0167701801
B1556594056635N00437035WA0167401799
B1557004056640N00437030WA0167201797
B1557014056646N00437025WA0167101795
B1557024056651N00437022WA0167001796
B1557034056657N00437019WA0166901795
B1557044056662N00437016WA0166701793
B1557054056667N00437013WA0166501791
B1557064056673N00437008WA0166301789
B1557074056678N00437003WA0166201787
B1557084056683N00436998WA0166101786
B1557094056688N00436993WA0166001785
B1557104056693N00436988WA0165801784
B1557114056697N00436983WA0165701782
B1557124056701N00436976WA0165401780
B1557134056704N00436967WA0165201777
B1557144056706N00436957WA0165101777
B1557154056707N00436948WA0165001776
B1557164056708N00436941WA0164901774
B1557174056709N00436933WA0164701772
B1557184056709N00436924WA0164401769
B1557194056708N00436916WA0164201766
B1557204056708N00436907WA0164101764
B1557214056707N00436899WA0163801762
B1557224056705N00436891WA0163501760
B1557234056704N00436883WA0163201757
B1557244056701N00436875WA0163001754
B1557254056699N00436865WA0162701751
B1557264056697N00436856WA0162601748
B1557274056694N00436848WA0162401747
B1557284056690N00436840WA0162101744
B1557294056687N00436833WA0161901742
B1557304056683N00436825WA0161701739
B1557314056680N00436817WA0161301736
B1557324056676N00436809WA0160901733
B1557334056672N00436801WA0160501729
B1557344056668N00436794WA0160301726
B1557354056663N00436787WA0160101723
B1557364056660N00436779WA0159801720
B1557374056657N00436771WA0159601718
B1557384056653N00436763WA0159301715
B1557394056648N00436755WA0159001711
B1557404056643N00436748WA0158701708
B1557414056638N00436740WA0158501706
B1557424056634N00436733WA0158201703
B1557434056630N00436725WA0157901700
B1557444056626N00436717WA0157701697
B1557454056623N00436708WA0157301694
B1557464056620N00436699WA0156901690
B1557474056619N00436690WA0156701686
B1557484056618N00436681WA0156201682
B1557494056617N00436672WA0156101679
B1557504056618N00436663WA0155701675
B1557514056619N00436655WA0155401670
B1557524056621N00436646WA0154901666
B1557534056623N00436637WA0154501661
B1557544056625N00436628WA0153901657
B1557554056627N00436617WA0153601653
B1557564056628N00436605WA0153401649
B1557574056628N00436594WA0153001646
B1557584056629N00436583WA0152801644
B1557594056630N00436572WA0152701641
B1558004056631N00436562WA0152401639
B1558014056632N00436552WA0152201637
B1558024056632N00436541WA0152001635
B1558034056632N00436531WA0151901634
B1558044056631N00436522WA0151701633
B1558054056631N00436513WA0151701632
B1558064056630N00436504WA0151701631
B1558074056629N00436495WA0151501629
B1558084056626N00436486WA0151301627
B1558094056624N00436476WA0151101626
B1558104056621N00436467WA0151001624
B1558114056618N00436458WA0151001623
B1558124056617N00436449WA0150801622
B1558134056616N00436441WA0150601620
B1558144056616N00436432WA0150401618
B1558154056617N00436423WA0150201616
B1558164056618N00436414WA0149801613
B1558174056621N00436405WA0149501610
B1558184056624N00436396WA0149401609
B1558194056626N00436387WA0149301607
B1558204056629N00436378WA0149201606
B1558214056631N00436370WA0149101606
B1558224056633N00436362WA0149201605
B1558234056635N00436355WA0149001604
B1558244056637N00436347WA0148901602
B1558254056640N00436338WA0148601599
B1558264056641N00436328WA0148501598
B1558274056643N00436319WA0148501598
B1558284056646N00436311WA0148601598
B1558294056649N00436304WA0148501598
B1558304056653N00436299WA0148501598
B1558314056656N00436295WA0148301597
B1558324056661N00436290WA0148001595
B1558334056666N00436285WA0147701593
B1558344056671N00436280WA0147601591
B1558354056676N00436275WA0147701590
B1558364056680N00436270WA0147801591
B1558374056684N00436266WA0147801591
B1558384056687N00436260WA0147601590
B1558394056690N00436253WA0147701589
B1558404056694N00436246WA0147501588
B1558414056698N00436239WA0147501587
B1558424056702N00436232WA0147501588
B1558434056705N00436224WA0147701589
B1558444056708N00436216WA0147801590
B1558454056710N00436208WA0147801590
B1558464056712N00436200WA0147801591
B1558474056714N00436191WA0147901591
B1558484056716N00436181WA0147801591
B1558494056716N00436171WA0147901591
B1558504056715N00436160WA0147801590
B1558514056713N00436149WA0147701589
B1558524056709N00436139WA0147601588
B1558534056705N00436130WA0147501587
B1558544056698N00436122WA0147401586
B1558554056691N00436118WA0147201585
B1558564056683N00436116WA0147401584
B1558574056677N00436115WA0147301584
B1558584056670N00436115WA0147301585
B1558594056664N00436115WA0147301584
B1559004056659N00436118WA0147201583
B1559014056654N00436122WA0147101582
B1559024056650N00436127WA0147101581
B1559034056647N00436132WA0147101582
B1559044056646N00436136WA0147201582
B1559054056646N00436140WA0147201582
B1559064056647N00436145WA0147201582
B1559074056649N00436149WA0147301582
B1559084056651N00436153WA0147401583
B1559094056654N00436156WA0147501585
B1559104056657N00436159WA0147501586
B1559114056659N00436162WA0147601587
B1559124056662N00436165WA0147601587
B1559134056666N00436167WA0147801587
B1559144056671N00436168WA0147801588
B1559154056675N00436169WA0147901589
B1559164056680N00436170WA0148001590
B1559174056684N00436168WA0148001590
B1559184056689N00436165WA0148001590
B1559194056693N00436159WA0147901591
B1559204056697N00436151WA0147901590
B1559214056701N00436143WA0148001590
B1559224056703N00436132WA0148001590
B1559234056703N00436121WA0148201592
B1559244056701N00436111WA0148401594
B1559254056698N00436104WA0148601595
B1559264056694N00436098WA0148501596
B1559274056690N00436094WA0148601595
B1559284056684N00436092WA0148501594
B1559294056678N00436094WA0148501594
B1559304056673N00436098WA0148601595
B1559314056672N00436104WA0148701595
B1559324056673N00436109WA0148901596
B1559334056677N00436112WA0148901597
B1559344056683N00436112WA0148801597
B1559354056689N00436108WA0148801597
B1559364056694N00436102WA0148701597
B1559374056697N00436093WA0148601596
B1559384056698N00436082WA0148701596
B1559394056697N00436071WA0148901598
B1559404056696N00436060WA0149001602
B1559414056695N00436051WA0149301606
B1559424056693N00436043WA0149601608
B1559434056691N00436036WA0149601610
B1559444056688N00436030WA0149501610
B1559454056682N00436028WA0149401609
B1559464056676N00436030WA0149601610
B1559474056672N00436035WA0149701611
B1559484056671N00436041WA0149901612
B1559494056674N00436046WA0150001612
B1559504056678N00436050WA0150201614
B1559514056682N00436052WA0150501616
B1559524056686N00436053WA0150701618
B1559534056690N00436052WA0150701619
B1559544056695N00436048WA0150601618
B1559554056700N00436042WA0150401617
B1559564056705N00436032WA0150401616
B1559574056708N00436021WA0150401615
B1559584056709N00436010WA0150601615
B1559594056705N00436001WA0150701616
B1600004056702N00435992WA0150801618
B1600014056700N00435985WA0151001619
B1600024056696N00435978WA0151001620
B1600034056692N00435972WA0151001620
B1600044056686N00435969WA0151101620
B1600054056680N00435967WA0151201621
B1600064056673N00435966WA0151401621
B1600074056668N00435966WA0151601626
B1600084056663N00435967WA0151801627
B1600094056660N00435970WA0152001629
B1600104056658N00435975WA0152001630
B1600114056661N00435981WA0152101631
B1600124056665N00435985WA0152301632
B1600134056669N00435987WA0152401633
B1600144056673N00435985WA0152401634
B1600154056679N00435974WA0152501634
B1600164056681N00435962WA0152501635
B1600174056680N00435950WA0152701636
B1600184056676N00435941WA0152701638
B1600194056670N00435936WA0152801639
B1600204056664N00435936WA0153001641
B1600214056659N00435938WA0153201643
B1600224056656N00435942WA0153401645
B1600234056654N00435946WA0153601647
B1600244056654N00435950WA0153701649
B1600254056656N00435954WA0153801650
B1600264056660N00435957WA0153801650
B1600274056666N00435957WA0153801650
B1600284056672N00435953WA0153901652
B1600294056678N00435946WA0153901653
B1600304056682N00435938WA0154001653
B1600314056684N00435929WA0154101654
B1600324056684N00435920WA0154101655
B1600334056683N00435911WA0154201656
B1600344056682N00435903WA0154301657
B1600354056681N00435894WA0154401658
B1600364056679N00435886WA0154501659
B1600374056677N00435878WA0154501660
B1600384056674N00435872WA0154401659
B1600394056669N00435866WA0154301657
B1600404056664N00435862WA0154301656
B1600414056658N00435859WA0154301655
B1600424056652N00435860WA0154401656
B1600434056646N00435862WA0154601656
B1600444056642N00435865WA0154701657
B1600454056638N00435869WA0154801658
B1600464056634N00435873WA0155101661
B1600474056631N00435877WA0155301663
B1600484056629N00435881WA0155401666
B1600494056626N00435884WA0155701668
B1600504056624N00435887WA0155801669
B1600514056623N00435890WA0155801670
B1600524056624N00435895WA0155701671
B1600534056629N00435900WA0155601671
B1600544056633N00435902WA0155701671
B1600554056636N00435901WA0155701672
B1600564056640N00435895WA0155401673
B1600574056643N00435889WA0155601673
B1600584056642N00435879WA0155801674
B1600594056633N00435864WA0156001675
B1601004056627N00435855WA0156101677
B1601014056623N00435847WA0156301679
B1601024056619N00435841WA0156301681
B1601034056614N00435837WA0156401680
B1601044056609N00435836WA0156301680
B1601054056604N00435842WA0156301680
B1601064056602N00435845WA0156401681
B1601074056601N00435852WA0156501682
B1601084056601N00435858WA0156901683
B1601094056602N00435862WA0157201685
B1601104056604N00435864WA0157301687
B1601114056606N00435865WA0157401687
B1601124056609N00435865WA0157301687
B1601134056614N00435863WA0157101686
B1601144056619N00435857WA0156901686
B1601154056624N00435848WA0156901685
B1601164056626N00435837WA0157001686
B1601174056624N00435826WA0157101687
B1601184056621N00435816WA0157201688
B1601194056616N00435810WA0157201689
B1601204056611N00435804WA0157301691
B1601214056605N00435800WA0157601692
B1601224056600N00435798WA0157601694
B1601234056595N00435797WA0157601694
B1601244056590N00435798WA0157601693
B1601254056587N00435801WA0157701692
B1601264056584N00435805WA0157601692
B1601274056583N00435810WA0157701692
B1601284056584N00435816WA0157701693
B1601294056585N00435821WA0157801694
B1601304056587N00435825WA0157801695
B1601314056590N00435829WA0157901695
B1601324056594N00435830WA0157901696
B1601334056598N00435831WA0158001696
B1601344056602N00435830WA0158001697
B1601354056606N00435828WA0158001697
B1601364056610N00435824WA0157801696
B1601374056613N00435818WA0157701694
B1601384056616N00435809WA0157501694
B1601394056618N00435800WA0157601694
B1601404056620N00435791WA0157701695
B1601414056622N00435782WA0157801696
B1601424056624N00435775WA0157801696
B1601434056625N00435766WA0157901696
B1601444056626N00435758WA0157801696
B1601454056625N00435750WA0157801695
B1601464056624N00435740WA0157701694
B1601474056621N00435731WA0157801694
B1601484056618N00435723WA0157801695
B1601494056615N00435714WA0157801696
B1601504056611N00435706WA0158001697
B1601514056608N00435699WA0158101698
B1601524056605N00435691WA0158301699
B1601534056603N00435683WA0158301700
B1601544056600N00435675WA0158501702
B1601554056598N00435667WA0158601703
B1601564056596N00435660WA0158901705
B1601574056596N00435653WA0158901706
B1601584056596N00435647WA0159101708
B1601594056596N00435640WA0159201710
B1602004056593N00435634WA0159001709
B1602014056586N00435630WA0158801709
B1602024056578N00435631WA0158901710
B1602034056570N00435634WA0159001711
B1602044056567N00435642WA0159101712
B1602054056564N00435650WA0158901712
B1602064056568N00435659WA0158901712
B1602074056571N00435666WA0159101713
B1602084056574N00435670WA0159501713
B1602094056578N00435670WA0159601713
B1602104056581N00435667WA0159801714
B1602114056586N00435658WA0160001715
B1602124056587N00435650WA0160001715
B1602134056587N00435641WA0160001715
B1602144056586N00435631WA0159901716
B1602154056581N00435624WA0159801715
B1602164056576N00435619WA0159901715
B1602174056569N00435616WA0160001717
B1602184056563N00435618WA0160201718
B1602194056557N00435621WA0160401721
B1602204056553N00435624WA0160501723
B1602214056548N00435628WA0160601723
B1602224056545N00435633WA0160701723
B1602234056542N00435640WA0160701723
B1602244056542N00435647WA0160801724
B1602254056544N00435652WA0161001725
B1602264056547N00435655WA0161101726
B1602274056549N00435657WA0161201727
B1602284056553N00435657WA0161201727
B1602294056556N00435656WA0161101726
B1602304056561N00435652WA0161001725
B1602314056565N00435645WA0161101726
B1602324056568N00435638WA0161201727
B1602334056569N00435629WA0161501730
B1602344056571N00435622WA0161701733
B1602354056572N00435614WA0161801735
B1602364056572N00435607WA0161901736
B1602374056571N00435600WA0161901736
B1602384056568N00435593WA0161701735
B1602394056562N00435587WA0161701734
B1602404056555N00435583WA0161801735
B1602414056548N00435580WA0162001737
B1602424056542N00435578WA0162101739
B1602434056537N00435577WA0162201739
B1602444056531N00435577WA0162101739
B1602454056525N00435580WA0162101738
B1602464056520N00435586WA0162101738
B1602474056517N00435594WA0162201740
B1602484056513N00435601WA0162401742
B1602494056510N00435608WA0162601745
B1602504056506N00435614WA0162801747
B1602514056504N00435620WA0163101749
B1602524056503N00435626WA0163101749
B1602534056504N00435632WA0163101750
B1602544056507N00435635WA0163101750
B1602554056511N00435636WA0163101750
B1602564056516N00435634WA0163001751
B1602574056519N00435628WA0163101751
B1602584056521N00435621WA0163301752
B1602594056520N00435612WA0163401753
B1603004056517N00435604WA0163601754
B1603014056513N00435596WA0163701756
B1603024056509N00435588WA0164001759
B1603034056505N00435582WA0164101761
B1603044056500N00435575WA0164201762
B1603054056495N00435570WA0164301762
B1603064056488N00435568WA0164301763
B1603074056480N00435570WA0164501764
B1603084056474N00435572WA0164601766
B1603094056468N00435575WA0164901769
B1603104056463N00435579WA0164901770
B1603114056459N00435584WA0164901771
B1603124056457N00435590WA0164701772
B1603134056459N00435598WA0164601772
B1603144056463N00435603WA0164801771
B1603154056467N00435607WA0164901772
B1603164056471N00435608WA0164901773
B1603174056474N00435608WA0165001774
B1603184056477N00435607WA0165001773
B1603194056480N00435604WA0164901771
B1603204056484N00435599WA0164801770
B1603214056487N00435591WA0165001770
B1603224056490N00435582WA0165101769
B1603234056492N00435574WA0165601774
B1603244056494N00435568WA0165901777
B1603254056494N00435562WA0166101781
B1603264056495N00435557WA0166301782
B1603274056493N00435551WA0166201783
B1603284056488N00435544WA0166201783
B1603294056482N00435540WA0166301783
B1603304056473N00435539WA0166601785
B1603314056466N00435541WA0166901789
B1603324056461N00435546WA0167001790
B1603334056459N00435553WA0167001790
B1603344056459N00435561WA0167001791
B1603354056461N00435568WA0167301793
B1603364056464N00435574WA0167501795
B1603374056469N00435576WA0167801796
B1603384056474N00435575WA0167901798
B1603394056477N00435573WA0168201800
B1603404056481N00435570WA0168501802
B1603414056484N00435565WA0168601803
B1603424056486N00435558WA0168701803
B1603434056485N00435550WA0168701805
B1603444056482N00435542WA0168901806
B1603454056477N00435537WA0168901807
B1603464056471N00435535WA0169001808
B1603474056464N00435533WA0169101810
B1603484056457N00435538WA0169101811
B1603494056452N00435543WA0169401813
B1603504056448N00435550WA0169501815
B1603514056444N00435556WA0169701818
B1603524056442N00435562WA0169901819
B1603534056439N00435568WA0170101821
B1603544056438N00435575WA0170101822
B1603554056439N00435580WA0170101823
B1603564056442N00435583WA0169901823
B1603574056447N00435582WA0169801824
B1603584056452N00435579WA0169701824
B1603594056456N00435573WA0169601824
B1604004056460N00435565WA0169801824
B1604014056463N00435557WA0170201825
B1604024056464N00435549WA0170401830
B1604034056466N00435543WA0170701834
B1604044056467N00435537WA0170901836
B1604054056466N00435532WA0170901838
B1604064056463N00435527WA0170801838
B1604074056457N00435522WA0170901840
B1604084056450N00435520WA0171001841
B1604094056443N00435523WA0171101844
B1604104056438N00435529WA0171201845
B1604114056437N00435537WA0171301845
B1604124056439N00435544WA0171401846
B1604134056442N00435549WA0171401847
B1604144056447N00435551WA0171601848
B1604154056452N00435550WA0171801849
B1604164056457N00435548WA0171801850
B1604174056461N00435544WA0171901850
B1604184056463N00435538WA0172001851
B1604194056464N00435532WA0172201851
B1604204056464N00435524WA0172301852
B1604214056461N00435517WA0172601856
B1604224056457N00435511WA0172701859
B1604234056453N00435507WA0173001861
B1604244056449N00435504WA0173001861
B1604254056444N00435503WA0173101862
B1604264056438N00435507WA0173201862
B1604274056433N00435515WA0173301864
B1604284056432N00435524WA0173401865
B1604294056434N00435531WA0173501867
B1604304056437N00435537WA0173801868
B1604314056440N00435541WA0174001868
B1604324056444N00435543WA0174201870
B1604334056448N00435542WA0174301870
B1604344056453N00435540WA0174301870
B1604354056457N00435536WA0174301871
B1604364056461N00435531WA0174501873
B1604374056464N00435525WA0174701874
B1604384056465N00435519WA0174901877
B1604394056464N00435513WA0175101878
B1604404056462N00435507WA0175101878
B1604414056458N00435502WA0175201878
B1604424056453N00435496WA0175201879
B1604434056446N00435493WA0175501880
B1604444056440N00435491WA0175601882
B1604454056434N00435490WA0175901885
B1604464056428N00435490WA0176001886
B1604474056423N00435492WA0176201888
B1604484056418N00435496WA0176101887
B1604494056414N00435501WA0176001888
B1604504056413N00435507WA0176001888
B1604514056413N00435516WA0176001888
B1604524056415N00435523WA0176301888
B1604534056418N00435530WA0176501891
B1604544056421N00435534WA0176801896
B1604554056424N00435538WA0177001898
B1604564056428N00435541WA0177001899
B1604574056433N00435542WA0177101900
B1604584056438N00435542WA0177201901
B1604594056443N00435541WA0177401903
B1605004056447N00435540WA0177601905
B1605014056451N00435537WA0177701907
B1605024056454N00435534WA0177701908
B1605034056456N00435529WA0177701909
B1605044056455N00435522WA0177701909
B1605054056453N00435514WA0177701910
B1605064056449N00435507WA0177901911
B1605074056445N00435502WA0177901911
B1605084056440N00435498WA0178001913
B1605094056434N00435494WA0178101914
B1605104056429N00435491WA0178201915
B1605114056423N00435489WA0178401917
B1605124056418N00435489WA0178501918
B1605134056413N00435490WA0178501919
B1605144056407N00435493WA0178501920
B1605154056403N00435499WA0178601920
B1605164056400N00435505WA0178801921
B1605174056396N00435512WA0178901924
B1605184056394N00435518WA0179101926
B1605194056391N00435524WA0179201927
B1605204056390N00435529WA0179301928
B1605214056389N00435534WA0179101928
B1605224056390N00435540WA0179101926
B1605234056393N00435546WA0179101926
B1605244056397N00435551WA0179201925
B1605254056400N00435556WA0179401925
B1605264056404N00435559WA0179601928
B1605274056408N00435561WA0179501928
B1605284056412N00435561WA0179501929
B1605294056417N00435560WA0179601929
B1605304056422N00435558WA0179701930
B1605314056427N00435555WA0179801933
B1605324056431N00435551WA0179901934
B1605334056433N00435547WA0180001935
B1605344056436N00435543WA0180001936
B1605354056438N00435539WA0180001936
B1605364056440N00435533WA0179901935
B1605374056440N00435527WA0179901934
B1605384056439N00435520WA0179701933
B1605394056439N00435512WA0179801933
B1605404056439N00435505WA0179801934
B1605414056438N00435498WA0179801934
B1605424056437N00435490WA0179801934
B1605434056435N00435483WA0179701933
B1605444056431N00435476WA0179601933
B1605454056426N00435470WA0179601932
B1605464056420N00435464WA0179601932
B1605474056413N00435460WA0179701933
B1605484056407N00435457WA0179801933
B1605494056400N00435454WA0179801934
B1605504056394N00435451WA0179901934
B1605514056388N00435449WA0179901935
B1605524056381N00435447WA0180001936
B1605534056374N00435445WA0180001936
B1605544056368N00435442WA0180001936
B1605554056361N00435436WA0180001937
B1605564056355N00435431WA0180201937
B1605574056348N00435427WA0180301939
B1605584056341N00435424WA0180501940
B1605594056334N00435422WA0180501941
B1606004056327N00435420WA0180601942
B1606014056321N00435419WA0180701943
B1606024056314N00435420WA0180801944
B1606034056308N00435423WA0180901945
B1606044056301N00435426WA0181001946
B1606054056295N00435429WA0181101947
B1606064056290N00435431WA0181301949
B1606074056284N00435435WA0181401950
B1606084056281N00435440WA0181201951
B1606094056280N00435448WA0181101949
B1606104056282N00435455WA0181301948
B1606114056287N00435460WA0181301948
B1606124056292N00435462WA0181401948
B1606134056297N00435459WA0181401948
B1606144056301N00435455WA0181501948
B1606154056304N00435448WA0181601948
B1606164056305N00435441WA0181801948
B1606174056303N00435432WA0181801949
B1606184056300N00435425WA0181901950
B1606194056297N00435419WA0181901950
B1606204056293N00435413WA0181901950
B1606214056287N00435407WA0181901949
B1606224056280N00435403WA0181901951
B1606234056274N00435399WA0182001952
B1606244056267N00435396WA0182301954
B1606254056261N00435394WA0182301956
B1606264056255N00435393WA0182501958
B1606274056249N00435393WA0182601959
B1606284056243N00435396WA0182501959
B1606294056237N00435401WA0182601960
B1606304056232N00435406WA0182601960
B1606314056227N00435412WA0182601961
B1606324056223N00435417WA0182701961
B1606334056220N00435423WA0182701961
B1606344056218N00435430WA0182501960
B1606354056218N00435436WA0182401958
B1606364056221N00435443WA0182301956
B1606374056224N00435448WA0182201955
B1606384056229N00435451WA0182101954
B1606394056234N00435452WA0182001953
B1606404056240N00435451WA0182001953
B1606414056246N00435448WA0182001953
B1606424056251N00435444WA0182101955
B1606434056256N00435440WA0182301958
B1606444056260N00435436WA0182501960
B1606454056263N00435434WA0182601962
B1606464056266N00435430WA0182601962
B1606474056268N00435426WA0182601962
B1606484056270N00435420WA0182501962
B1606494056272N00435413WA0182601962
B1606504056274N00435406WA0182701963
B1606514056276N00435399WA0182901964
B1606524056278N00435393WA0183101967
B1606534056278N00435387WA0183301969
B1606544056278N00435381WA0183401969
B1606554056275N00435375WA0183501969
B1606564056269N00435369WA0183301969
B1606574056262N00435366WA0183401970
B1606584056253N00435367WA0183601972
B1606594056246N00435371WA0183801974
B1607004056241N00435377WA0183701974
B1607014056238N00435386WA0183601974
B1607024056239N00435395WA0183801975
B1607034056240N00435402WA0183901976
B1607044056243N00435406WA0184001978
B1607054056247N00435409WA0184001978
B1607064056251N00435409WA0183901976
B1607074056256N00435406WA0184001977
B1607084056261N00435402WA0184101978
B1607094056265N00435396WA0184301980
B1607104056268N00435392WA0184501985
B1607114056270N00435387WA0184601987
B1607124056272N00435383WA0184701988
B1607134056272N00435378WA0184601988
B1607144056272N00435371WA0184501987
B1607154056271N00435363WA0184601987
B1607164056270N00435354WA0184801988
B1607174056269N00435346WA0185001990
B1607184056268N00435340WA0185201994
B1607194056266N00435333WA0185201995
B1607204056263N00435328WA0185401996
B1607214056259N00435324WA0185401997
B1607224056254N00435320WA0185401997
B1607234056247N00435318WA0185301997
B1607244056239N00435320WA0185401997
B1607254056231N00435325WA0185401997
B1607264056226N00435332WA0185501997
B1607274056223N00435341WA0185601997
B1607284056223N00435349WA0185601998
B1607294056225N00435356WA0185902000
B1607304056228N00435360WA0186002001
B1607314056231N00435363WA0186202003
B1607324056233N00435366WA0186302003
B1607334056237N00435368WA0186202001
B1607344056241N00435368WA0186202000
B1607354056245N00435366WA0186302000
B1607364056249N00435362WA0186302001
B1607374056252N00435356WA0186302002
B1607384056253N00435350WA0186402002
B1607394056253N00435343WA0186502003
B1607404056252N00435336WA0186602004
B1607414056250N00435329WA0186602004
B1607424056246N00435324WA0186702005
B1607434056240N00435319WA0186602005
B1607444056234N00435316WA0186602005
B1607454056228N00435315WA0186502005
B1607464056220N00435315WA0186502004
B1607474056212N00435316WA0186402004
B1607484056204N00435316WA0186502005
B1607494056196N00435318WA0186402005
B1607504056188N00435319WA0186702006
B1607514056180N00435322WA0186702007
B1607524056172N00435324WA0186702008
B1607534056165N00435327WA0186802008
B1607544056158N00435330WA0186902009
B1607554056151N00435334WA0187002009
B1607564056145N00435338WA0187002010
B1607574056139N00435343WA0187102011
B1607584056134N00435349WA0187102011
B1607594056131N00435356WA0187102012
B1608004056128N00435363WA0187302013
B1608014056125N00435371WA0187402015
B1608024056122N00435378WA0187502016
B1608034056119N00435384WA0187502017
B1608044056117N00435390WA0187502017
B1608054056117N00435396WA0187302016
B1608064056120N00435402WA0187102015
B1608074056124N00435406WA0187002012
B1608084056129N00435409WA0187002011
B1608094056134N00435410WA0187002011
B1608104056138N00435409WA0187102012
B1608114056142N00435408WA0187202013
B1608124056146N00435406WA0187202014
B1608134056149N00435404WA0187302014
B1608144056153N00435402WA0187302015
B1608154056156N00435398WA0187402015
B1608164056159N00435394WA0187402015
B1608174056161N00435388WA0187602017
B1608184056163N00435382WA0187702018
B1608194056165N00435377WA0187802020
B1608204056168N00435373WA0187902021
B1608214056172N00435369WA0188002023
B1608224056174N00435364WA0188102024
B1608234056175N00435357WA0188202025
B1608244056172N00435349WA0188202025
B1608254056165N00435342WA0188302026
B1608264056158N00435339WA0188402027
B1608274056150N00435339WA0188502029
B1608284056144N00435342WA0188502029
B1608294056139N00435349WA0188502028
B1608304056136N00435357WA0188402027
B1608314056136N00435366WA0188502027
B1608324056139N00435373WA0188602029
B1608334056142N00435378WA0188802030
B1608344056146N00435381WA0188902031
B1608354056150N00435383WA0189002033
B1608364056154N00435384WA0189102033
B1608374056158N00435385WA0189002031
B1608384056163N00435385WA0189002030
B1608394056168N00435384WA0189202031
B1608404056174N00435381WA0189402032
B1608414056178N00435378WA0189702034
B1608424056182N00435374WA0189902037
B1608434056185N00435369WA0190202040
B1608444056185N00435364WA0190202042
B1608454056183N00435358WA0190002042
B1608464056177N00435352WA0190102042
B1608474056171N00435348WA0190302043
B1608484056163N00435348WA0190302044
B1608494056156N00435351WA0190502045
B1608504056150N00435357WA0190602046
B1608514056146N00435364WA0190802048
B1608524056143N00435371WA0191102051
B1608534056141N00435378WA0191202053
B1608544056140N00435384WA0191202054
B1608554056141N00435390WA0191202055
B1608564056144N00435395WA0191202055
B1608574056149N00435399WA0191202056
B1608584056154N00435402WA0191402057
B1608594056159N00435404WA0191502059
B1609004056163N00435406WA0191602061
B1609014056167N00435407WA0191802062
B1609024056172N00435408WA0191802063
B1609034056176N00435407WA0191702062
B1609044056180N00435404WA0191602062
B1609054056183N00435399WA0191502061
B1609064056185N00435393WA0191402060
B1609074056186N00435386WA0191302060
B1609084056186N00435379WA0191302059
B1609094056185N00435371WA0191202058
B1609104056183N00435364WA0191202058
B1609114056180N00435357WA0191102058
B1609124056176N00435351WA0191002056
B1609134056172N00435345WA0190802053
B1609144056166N00435340WA0190702051
B1609154056158N00435336WA0190502050
B1609164056150N00435333WA0190602049
B1609174056142N00435333WA0190602048
B1609184056135N00435333WA0190602049
B1609194056127N00435334WA0190702050
B1609204056120N00435335WA0190802050
B1609214056113N00435336WA0190802051
B1609224056106N00435335WA0190802051
B1609234056099N00435332WA0190702050
B1609244056092N00435330WA0190702050
B1609254056083N00435329WA0190702050
B1609264056074N00435330WA0191102051
B1609274056066N00435331WA0191402056
B1609284056059N00435332WA0191702059
B1609294056052N00435332WA0191902062
B1609304056046N00435331WA0191902064
B1609314056039N00435330WA0191902064
B1609324056032N00435329WA0191902065
B1609334056025N00435331WA0192002065
B1609344056017N00435335WA0192102065
B1609354056010N00435339WA0192302067
B1609364056002N00435341WA0192402068
B1609374055994N00435341WA0192602069
B1609384055987N00435337WA0192402071
B1609394055983N00435330WA0192702072
B1609404055981N00435322WA0192702072
B1609414055982N00435316WA0192802073
B1609424055984N00435311WA0192902073
B1609434055987N00435307WA0192902074
B1609444055991N00435305WA0193002075
B1609454055995N00435306WA0193102077
B1609464055999N00435308WA0193302078
B1609474056002N00435311WA0193502080
B1609484056006N00435313WA0193602082
B1609494056010N00435314WA0193902084
B1609504056013N00435313WA0194002086
B1609514056017N00435311WA0194202088
B1609524056020N00435312WA0194402090
B1609534056023N00435316WA0194402090
B1609544056024N00435323WA0194302091
B1609554056022N00435331WA0194302091
B1609564056016N00435339WA0194502092
B1609574056008N00435342WA0194302092
B1609584056000N00435342WA0194502092
B1609594055993N00435339WA0194502093
B1610004055986N00435335WA0194702095
B1610014055981N00435330WA0194802097
B1610024055976N00435325WA0195002097
B1610034055972N00435319WA0195102097
B1610044055969N00435312WA0195202098
B1610054055968N00435304WA0195402098
B1610064055967N00435296WA0195602100
B1610074055967N00435290WA0195902105
B1610084055968N00435284WA0196002108
B1610094055970N00435281WA0196102111
B1610104055973N00435280WA0196102113
B1610114055977N00435282WA0196102114
B1610124055981N00435286WA0196202115
B1610134055983N00435294WA0196202116
B1610144055982N00435302WA0196302117
B1610154055979N00435310WA0196402118
B1610164055974N00435317WA0196402119
B1610174055967N00435322WA0196402120
B1610184055959N00435325WA0196602119
B1610194055951N00435325WA0196702120
B1610204055943N00435324WA0197002124
B1610214055936N00435322WA0197302127
B1610224055929N00435320WA0197502129
B1610234055922N00435318WA0197602130
B1610244055916N00435314WA0197702132
B1610254055911N00435308WA0197702133
B1610264055910N00435300WA0197802133
B1610274055911N00435293WA0197902134
B1610284055914N00435288WA0198002136
B1610294055918N00435286WA0198202137
B1610304055922N00435286WA0198402140
B1610314055926N00435288WA0198602142
B1610324055929N00435290WA0198802145
B1610334055932N00435293WA0198902144
B1610344055933N00435299WA0198702143
B1610354055932N00435307WA0198602141
B1610364055929N00435316WA0198602140
B1610374055923N00435325WA0198702140
B1610384055915N00435330WA0199002141
B1610394055906N00435333WA0199202142
B1610404055898N00435334WA0199302143
B1610414055891N00435334WA0199502144
B1610424055884N00435332WA0199602145
B1610434055878N00435329WA0199502145
B1610444055872N00435324WA0199502145
B1610454055868N00435318WA0199402144
B1610464055866N00435310WA0199402144
B1610474055865N00435303WA0199402143
B1610484055866N00435296WA0199302143
B1610494055868N00435291WA0199302142
B1610504055871N00435286WA0199402142
B1610514055875N00435281WA0199702143
B1610524055880N00435278WA0199902144
B1610534055884N00435277WA0200102146
B1610544055887N00435276WA0200202148
B1610554055891N00435275WA0200402150
B1610564055894N00435275WA0200502152
B1610574055897N00435277WA0200402152
B1610584055899N00435281WA0200402152
B1610594055901N00435288WA0200402152
B1611004055902N00435295WA0200502152
B1611014055901N00435303WA0200502152
B1611024055898N00435311WA0200502153
B1611034055894N00435317WA0200502153
B1611044055888N00435323WA0200602154
B1611054055882N00435328WA0200502154
B1611064055875N00435331WA0200702155
B1611074055867N00435332WA0200902155
B1611084055859N00435332WA0200902157
B1611094055852N00435330WA0201002158
B1611104055845N00435328WA0201102159
B1611114055838N00435325WA0201102160
B1611124055832N00435321WA0201002160
B1611134055827N00435316WA0200902160
B1611144055824N00435310WA0200902159
B1611154055822N00435303WA0200802158
B1611164055821N00435296WA0200702157
B1611174055820N00435289WA0200702156
B1611184055819N00435282WA0200602156
B1611194055817N00435275WA0200602155
B1611204055814N00435267WA0200602155
B1611214055810N00435260WA0200702156
B1611224055805N00435255WA0200902158
B1611234055799N00435250WA0201002159
B1611244055793N00435246WA0201102160
B1611254055787N00435242WA0201202161
B1611264055781N00435238WA0201302163
B1611274055776N00435233WA0201502165
B1611284055771N00435229WA0201702167
B1611294055766N00435226WA0201702168
B1611304055760N00435222WA0201702168
B1611314055756N00435217WA0201602168
B1611324055753N00435210WA0201302166
B1611334055754N00435201WA0201202164
B1611344055758N00435194WA0201202163
B1611354055763N00435191WA0201402163
B1611364055768N00435191WA0201702164
B1611374055772N00435192WA0201902165
B1611384055775N00435196WA0202002166
B1611394055775N00435202WA0202002166
B1611404055776N00435209WA0202002167
B1611414055775N00435216WA0202302168
B1611424055772N00435223WA0202302169
B1611434055768N00435230WA0202402170
B1611444055763N00435236WA0202602173
B1611454055757N00435241WA0202702175
B1611464055751N00435244WA0202702175
B1611474055744N00435246WA0202802175
B1611484055737N00435245WA0202602175
B1611494055731N00435243WA0202502175
B1611504055725N00435240WA0202502175
B1611514055719N00435236WA0202302174
B1611524055713N00435232WA0202302173
B1611534055707N00435226WA0202302172
B1611544055701N00435219WA0202402173
B1611554055696N00435212WA0202602176
B1611564055692N00435205WA0202802177
B1611574055688N00435198WA0202902179
B1611584055686N00435192WA0202902180
B1611594055684N00435185WA0202802181
B1612004055683N00435178WA0202802181
B1612014055684N00435170WA0202602180
B1612024055685N00435162WA0202502180
B1612034055686N00435153WA0202402180
B1612044055688N00435145WA0202702181
B1612054055690N00435138WA0202802182
B1612064055691N00435131WA0202902183
B1612074055692N00435124WA0202902183
B1612084055694N00435118WA0203002184
B1612094055695N00435110WA0203002184
B1612104055696N00435103WA0202902185
B1612114055696N00435096WA0202802184
B1612124055697N00435089WA0202702182
B1612134055700N00435084WA0202402179
B1612144055703N00435079WA0202202175
B1612154055707N00435078WA0202002172
B1612164055713N00435078WA0201902170
B1612174055718N00435078WA0201902168
B1612184055722N00435079WA0201902167
B1612194055726N00435079WA0202002167
B1612204055730N00435081WA0201902167
B1612214055733N00435083WA0201802165
B1612224055736N00435087WA0201602163
B1612234055739N00435092WA0201602163
B1612244055741N00435098WA0201502163
B1612254055743N00435103WA0201502162
B1612264055744N00435109WA0201402162
B1612274055744N00435115WA0201302161
B1612284055744N00435121WA0201202159
B1612294055742N00435127WA0200902158
B1612304055738N00435133WA0200702156
B1612314055732N00435138WA0200502155
B1612324055725N00435144WA0200502153
B1612334055717N00435148WA0200502154
B1612344055709N00435152WA0200502155
B1612354055702N00435154WA0200602155
B1612364055694N00435157WA0200602155
B1612374055687N00435158WA0200502155
B1612384055678N00435160WA0200502154
B1612394055670N00435161WA0200402153
B1612404055661N00435160WA0200502154
B1612414055653N00435159WA0200502155
B1612424055646N00435158WA0200502155
B1612434055639N00435156WA0200502155
B1612444055631N00435154WA0200402154
B1612454055623N00435151WA0200402153
B1612464055615N00435145WA0200302153
B1612474055608N00435139WA0200302153
B1612484055602N00435133WA0200402154
B1612494055596N00435127WA0200402155
B1612504055590N00435121WA0200402155
B1612514055583N00435115WA0200402154
B1612524055577N00435109WA0200402153
B1612534055569N00435102WA0200302152
B1612544055561N00435096WA0200302153
B1612554055554N00435093WA0200502155
B1612564055547N00435089WA0200502156
B1612574055540N00435084WA0200602155
B1612584055534N00435079WA0200502154
B1612594055527N00435074WA0200402154
B1613004055521N00435070WA0200302153
B1613014055514N00435064WA0200202152
B1613024055509N00435056WA0200102151
B1613034055505N00435048WA0200202150
B1613044055502N00435038WA0200102151
B1613054055501N00435030WA0200102152
B1613064055499N00435023WA0200102152
B1613074055497N00435015WA0199902151
B1613084055494N00435007WA0199702150
B1613094055492N00434999WA0199602149
B1613104055490N00434990WA0199502148
B1613114055489N00434982WA0199702147
B1613124055489N00434974WA0199502146
B1613134055491N00434967WA0199702146
B1613144055492N00434960WA0199702147
B1613154055492N00434953WA0199802147
B1613164055491N00434945WA0199802147
B1613174055491N00434938WA0199902147
B1613184055490N00434931WA0199802148
B1613194055488N00434924WA0199802148
B1613204055486N00434917WA0199802148
B1613214055485N00434910WA0199802146
B1613224055484N00434904WA0199702146
B1613234055485N00434897WA0199602144
B1613244055487N00434890WA0199402142
B1613254055491N00434885WA0199202140
B1613264055494N00434880WA0199102139
B1613274055498N00434875WA0199102139
B1613284055502N00434870WA0199402139
B1613294055506N00434866WA0199302139
B1613304055510N00434861WA0199302139
B1613314055513N00434857WA0199202139
B1613324055515N00434852WA0199002137
B1613334055518N00434847WA0198802135
B1613344055523N00434843WA0198702134
B1613354055528N00434841WA0198602133
B1613364055532N00434839WA0198602134
B1613374055536N00434835WA0198602133
B1613384055538N00434831WA0198402132
B1613394055540N00434826WA0198202131
B1613404055542N00434820WA0197902129
B1613414055542N00434812WA0197602126
B1613424055541N00434803WA0197302123
B1613434055540N00434794WA0197302122
B1613444055538N00434785WA0197202122
B1613454055536N00434778WA0197102122
B1613464055534N00434771WA0197002121
B1613474055532N00434763WA0196702118
B1613484055529N00434756WA0196302115
B1613494055524N00434748WA0196002112
B1613504055519N00434741WA0195702108
B1613514055514N00434734WA0195602106
B1613524055509N00434727WA0195502104
B1613534055503N00434720WA0195302103
B1613544055498N00434713WA0195302102
B1613554055493N00434706WA0195102100
B1613564055486N00434700WA0194902098
B1613574055479N00434693WA0194702097
B1613584055472N00434688WA0194702095
B1613594055465N00434682WA0194702095
B1614004055459N00434676WA0194602094
B1614014055453N00434671WA0194602093
B1614024055448N00434664WA0194402092
B1614034055443N00434657WA0194302091
B1614044055438N00434649WA0194102089
B1614054055433N00434641WA0194002088
B1614064055428N00434633WA0194002087
B1614074055423N00434625WA0193902087
B1614084055418N00434618WA0193902086
B1614094055413N00434609WA0193702085
B1614104055408N00434601WA0193702084
B1614114055403N00434593WA0193602084
B1614124055397N00434586WA0193502083
B1614134055392N00434579WA0193402082
B1614144055387N00434572WA0193202080
B1614154055381N00434565WA0193002078
B1614164055376N00434557WA0193002077
B1614174055371N00434549WA0193002076
B1614184055365N00434542WA0193002076
B1614194055360N00434534WA0192902077
B1614204055355N00434527WA0193302077
B1614214055350N00434519WA0193602079
B1614224055345N00434512WA0193702082
B1614234055340N00434506WA0194102084
B1614244055334N00434501WA0194102086
B1614254055327N00434497WA0194202087
B1614264055319N00434493WA0194402089
B1614274055311N00434491WA0194702090
B1614284055303N00434490WA0194802092
B1614294055295N00434492WA0194702093
B1614304055288N00434497WA0194702094
B1614314055283N00434504WA0194802094
B1614324055280N00434511WA0194802095
B1614334055280N00434518WA0195002096
B1614344055282N00434523WA0195002097
B1614354055284N00434527WA0195202097
B1614364055287N00434528WA0195502098
B1614374055289N00434526WA0195702099
B1614384055291N00434522WA0195902100
B1614394055292N00434516WA0196102102
B1614404055293N00434510WA0196302102
B1614414055291N00434502WA0196502104
B1614424055286N00434495WA0196702105
B1614434055280N00434488WA0196802106
B1614444055272N00434483WA0197002109
B1614454055265N00434479WA0197302112
B1614464055258N00434476WA0197502115
B1614474055251N00434475WA0197502116
B1614484055244N00434478WA0197502116
B1614494055237N00434484WA0197302116
B1614504055233N00434492WA0197402116
B1614514055232N00434500WA0197302116
B1614524055235N00434506WA0197402116
B1614534055239N00434508WA0197502116
B1614544055242N00434509WA0197702117
B1614554055245N00434508WA0198102119
B1614564055249N00434507WA0198502125
B1614574055251N00434506WA0198702131
B1614584055252N00434503WA0198902133
B1614594055252N00434499WA0199002135
B1615004055251N00434493WA0198902137
B1615014055246N00434485WA0198802137
B1615024055241N00434475WA0198902138
B1615034055234N00434467WA0199102140
B1615044055226N00434462WA0199402142
B1615054055218N00434458WA0199702145
B1615064055211N00434456WA0199902147
B1615074055204N00434456WA0200002149
B1615084055198N00434458WA0200002146
B1615094055191N00434463WA0199802146
B1615104055187N00434470WA0199802145
B1615114055186N00434478WA0199902145
B1615124055187N00434484WA0199902146
B1615134055190N00434488WA0200102146
B1615144055194N00434490WA0200102148
B1615154055197N00434491WA0200202149
B1615164055200N00434489WA0200502150
B1615174055202N00434487WA0200602153
B1615184055205N00434483WA0200802155
B1615194055207N00434479WA0201102158
B1615204055208N00434474WA0201202160
B1615214055209N00434468WA0201302162
B1615224055208N00434460WA0201402163
B1615234055205N00434452WA0201502164
B1615244055202N00434442WA0201602166
B1615254055197N00434432WA0201702169
B1615264055192N00434423WA0202102172
B1615274055187N00434416WA0202402176
B1615284055182N00434410WA0202602178
B1615294055176N00434405WA0202702179
B1615304055168N00434403WA0202502179
B1615314055160N00434404WA0202602179
B1615324055152N00434409WA0202602179
B1615334055147N00434415WA0202702180
B1615344055144N00434422WA0202902182
B1615354055144N00434428WA0203202182
B1615364055145N00434433WA0203302183
B1615374055148N00434435WA0203402183
B1615384055152N00434435WA0203502184
B1615394055155N00434432WA0203602184
B1615404055158N00434426WA0203702185
B1615414055159N00434417WA0204002186
B1615424055158N00434408WA0204102188
B1615434055154N00434399WA0204402190
B1615444055150N00434391WA0204502193
B1615454055146N00434383WA0204802195
B1615464055142N00434376WA0204902198
B1615474055137N00434369WA0205002199
B1615484055130N00434364WA0205002200
B1615494055122N00434361WA0205102201
B1615504055113N00434362WA0205102201
B1615514055106N00434366WA0205202202
B1615524055101N00434373WA0205102202
B1615534055098N00434381WA0205302204
B1615544055098N00434387WA0205502205
B1615554055101N00434391WA0205502206
B1615564055104N00434391WA0205602207
B1615574055108N00434388WA0205702209
B1615584055111N00434381WA0205802210
B1615594055111N00434373WA0206102211
B1616004055109N00434364WA0206202213
B1616014055107N00434356WA0206302215
B1616024055104N00434348WA0206602218
B1616034055100N00434341WA0206902220
B1616044055094N00434334WA0206902222
B1616054055088N00434328WA0207202223
B1616064055081N00434323WA0207302225
B1616074055074N00434321WA0207402226
B1616084055066N00434322WA0207602227
B1616094055060N00434328WA0207602228
B1616104055057N00434335WA0207702229
B1616114055057N00434342WA0207602229
B1616124055059N00434347WA0207802230
B1616134055062N00434350WA0207902232
B1616144055065N00434353WA0208202234
B1616154055068N00434355WA0208402236
B1616164055070N00434356WA0208602239
B1616174055073N00434354WA0208702239
B1616184055076N00434349WA0208702239
B1616194055078N00434341WA0208802240
B1616204055078N00434331WA0208902241
B1616214055076N00434321WA0209202244
B1616224055073N00434313WA0209702247
B1616234055070N00434306WA0209902250
B1616244055065N00434300WA0210002252
B1616254055060N00434294WA0210002252
B1616264055052N00434291WA0209802252
B1616274055043N00434291WA0209902252
B1616284055034N00434294WA0210202254
B1616294055027N00434298WA0210302257
B1616304055021N00434302WA0210502259
B1616314055016N00434307WA0210802262
B1616324055012N00434313WA0210802263
B1616334055009N00434318WA0210902263
B1616344055009N00434323WA0210802263
B1616354055010N00434328WA0210802263
B1616364055013N00434331WA0210802263
B1616374055018N00434332WA0211102264
B1616384055021N00434330WA0211202265
B1616394055025N00434327WA0211502267
B1616404055028N00434325WA0211602269
B1616414055031N00434322WA0211802272
B1616424055033N00434318WA0211902274
B1616434055035N00434313WA0212102275
B1616444055035N00434306WA0212202276
B1616454055034N00434297WA0212202277
B1616464055032N00434289WA0212302278
B1616474055028N00434280WA0212402280
B1616484055024N00434272WA0212502281
B1616494055020N00434264WA0212502282
B1616504055015N00434257WA0212502282
B1616514055009N00434251WA0212502281
B1616524055001N00434246WA0212602280
B1616534054993N00434242WA0212602281
B1616544054984N00434240WA0212602282
B1616554054976N00434237WA0212802284
B1616564054968N00434236WA0213102286
B1616574054959N00434235WA0213302288
B1616584054952N00434234WA0213402290
B1616594054944N00434234WA0213602292
B1617004054936N00434235WA0213702294
B1617014054929N00434237WA0213702295
B1617024054923N00434241WA0213802295
B1617034054918N00434247WA0213802295
B1617044054915N00434255WA0214002295
B1617054054913N00434263WA0214102296
B1617064054912N00434270WA0214302299
B1617074054910N00434277WA0214402301
B1617084054909N00434282WA0214402301
B1617094054909N00434288WA0214402301
B1617104054912N00434294WA0214402299
B1617114054916N00434296WA0214402298
B1617124054921N00434295WA0214502298
B1617134054926N00434293WA0214702300
B1617144054929N00434289WA0214802302
B1617154054931N00434284WA0214902304
B1617164054932N00434278WA0214902304
B1617174054931N00434271WA0214802303
B1617184054930N00434263WA0214802302
B1617194054927N00434253WA0214702302
B1617204054923N00434244WA0214802302
B1617214054919N00434235WA0215002304
B1617224054914N00434227WA0215202306
B1617234054909N00434219WA0215302308
B1617244054903N00434212WA0215402310
B1617254054896N00434206WA0215502311
B1617264054889N00434202WA0215702311
B1617274054881N00434200WA0215702312
B1617284054873N00434199WA0215802314
B1617294054866N00434200WA0216002315
B1617304054859N00434201WA0216002316
B1617314054852N00434203WA0216002317
B1617324054846N00434205WA0215902317
B1617334054840N00434208WA0215902316
B1617344054835N00434214WA0215802315
B1617354054832N00434221WA0215802314
B1617364054832N00434228WA0215802314
B1617374054834N00434234WA0215702314
B1617384054838N00434236WA0215802314
B1617394054842N00434235WA0215902314
B1617404054845N00434233WA0215902315
B1617414054847N00434229WA0216002316
B1617424054848N00434224WA0216002315
B1617434054847N00434216WA0216002314
B1617444054846N00434209WA0215902314
B1617454054843N00434201WA0215902315
B1617464054838N00434194WA0215902315
B1617474054833N00434187WA0215802315
B1617484054828N00434181WA0215802315
B1617494054822N00434174WA0215802315
B1617504054817N00434167WA0215902316
B1617514054812N00434160WA0215802316
B1617524054806N00434154WA0215802316
B1617534054800N00434149WA0215702315
B1617544054793N00434145WA0215702315
B1617554054785N00434142WA0215602314
B1617564054778N00434139WA0215402312
B1617574054770N00434136WA0215302311
B1617584054762N00434134WA0215102309
B1617594054754N00434132WA0215002308
B1618004054747N00434132WA0214902307
B1618014054739N00434132WA0214702305
B1618024054732N00434135WA0214402302
B1618034054726N00434139WA0214102299
B1618044054719N00434145WA0214002298
B1618054054714N00434151WA0213902297
B1618064054707N00434157WA0213902296
B1618074054701N00434162WA0213702296
B1618084054696N00434168WA0213702295
B1618094054692N00434174WA0213702295
B1618104054687N00434180WA0213802295
B1618114054683N00434186WA0213802295
B1618124054678N00434192WA0213802295
B1618134054675N00434198WA0213802296
B1618144054671N00434203WA0213702295
B1618154054668N00434210WA0213702295
B1618164054664N00434215WA0213502293
B1618174054659N00434222WA0213402292
B1618184054654N00434228WA0213402291
B1618194054650N00434234WA0213402291
B1618204054646N00434240WA0213502292
B1618214054642N00434246WA0213402292
B1618224054638N00434252WA0213202291
B1618234054634N00434259WA0212902289
B1618244054629N00434266WA0212702286
B1618254054625N00434272WA0212402285
B1618264054621N00434278WA0212202282
B1618274054617N00434284WA0211902280
B1618284054613N00434290WA0211702277
B1618294054610N00434296WA0211402275
B1618304054607N00434301WA0211102270
B1618314054604N00434308WA0210702266
B1618324054602N00434314WA0210302262
B1618334054599N00434321WA0210002258
B1618344054595N00434326WA0209602254
B1618354054592N00434331WA0209102250
B1618364054587N00434334WA0208702245
B1618374054582N00434336WA0208202240
B1618384054576N00434335WA0207602235
B1618394054570N00434331WA0207102232
B1618404054565N00434326WA0206602232
B1618414054561N00434321WA0206402231
B1618424054560N00434313WA0206002229
B1618434054557N00434307WA0205702226
B1618444054554N00434302WA0205402223
B1618454054551N00434297WA0205002219
B1618464054547N00434291WA0204502214
B1618474054544N00434285WA0204102209
B1618484054541N00434277WA0203702203
B1618494054538N00434270WA0203102197
B1618504054537N00434262WA0202802192
B1618514054536N00434254WA0202502188
B1618524054537N00434246WA0202202185
B1618534054537N00434238WA0201802181
B1618544054536N00434230WA0201302175
B1618554054536N00434222WA0200902170
B1618564054535N00434214WA0200602165
B1618574054535N00434205WA0200102160
B1618584054535N00434195WA0199802156
B1618594054534N00434186WA0199702154
B1619004054533N00434177WA0199602152
B1619014054531N00434170WA0199402150
B1619024054530N00434163WA0199102148
B1619034054527N00434156WA0198602145
B1619044054524N00434149WA0198102141
B1619054054520N00434140WA0197702137
B1619064054516N00434131WA0197202130
B1619074054512N00434121WA0197002127
B1619084054507N00434113WA0196802124
B1619094054502N00434104WA0196502121
B1619104054498N00434096WA0196202118
B1619114054495N00434087WA0195902114
B1619124054491N00434078WA0195602110
B1619134054489N00434068WA0195302107
B1619144054486N00434059WA0195202104
B1619154054485N00434049WA0195002102
B1619164054483N00434040WA0194802099
B1619174054481N00434032WA0194402097
B1619184054479N00434023WA0194202093
B1619194054477N00434015WA0193602088
B1619204054476N00434006WA0193302083
B1619214054474N00433996WA0192902079
B1619224054471N00433986WA0192602075
B1619234054469N00433976WA0192402073
B1619244054467N00433967WA0192302071
B1619254054464N00433958WA0192002068
B1619264054462N00433950WA0191802064
B1619274054458N00433942WA0191302060
B1619284054454N00433933WA0190702055
B1619294054449N00433924WA0190302051
B1619304054444N00433915WA0190202048
B1619314054439N00433906WA0190002044
B1619324054434N00433897WA0189802041
B1619334054428N00433888WA0189402038
B1619344054423N00433879WA0189202036
B1619354054419N00433870WA0188902033
B1619364054415N00433861WA0188902030
B1619374054411N00433852WA0188502028
B1619384054406N00433844WA0188302024
B1619394054402N00433836WA0187902021
B1619404054397N00433828WA0187602017
B1619414054392N00433819WA0187302014
B1619424054388N00433810WA0186902010
B1619434054384N00433802WA0186702006
B1619444054379N00433793WA0186102002
B1619454054375N00433783WA0185801998
B1619464054372N00433773WA0185601995
B1619474054369N00433763WA0185301992
B1619484054365N00433754WA0184901989
B1619494054361N00433745WA0184501985
B1619504054358N00433736WA0184001979
B1619514054354N00433726WA0183501974
B1619524054350N00433717WA0183101968
B1619534054345N00433707WA0182601963
B1619544054340N00433696WA0182201960
B1619554054336N00433686WA0181901956
B1619564054331N00433675WA0181601952
B1619574054327N00433665WA0181201948
B1619584054323N00433654WA0180801944
B1619594054319N00433643WA0180301939
B1620004054315N00433631WA0180001935
B1620014054312N00433621WA0179601931
B1620024054308N00433610WA0179201927
B1620034054303N00433599WA0178901923
B1620044054299N00433588WA0178601919
B1620054054294N00433578WA0178101915
B1620064054289N00433568WA0177701910
B1620074054283N00433558WA0177201905
B1620084054277N00433549WA0176701900
B1620094054271N00433539WA0176301895
B1620104054265N00433529WA0175901890
B1620114054260N00433519WA0175301885
B1620124054254N00433508WA0175101882
B1620134054250N00433498WA0174901879
B1620144054247N00433489WA0174701877
B1620154054243N00433480WA0174201873
B1620164054239N00433470WA0173801868
B1620174054235N00433460WA0173401863
B1620184054231N00433450WA0173201860
B1620194054227N00433440WA0173101858
B1620204054224N00433431WA0172801856
B1620214054221N00433423WA0172501855
B1620224054217N00433416WA0172201851
B1620234054213N00433407WA0171701847
B1620244054208N00433398WA0171501843
B1620254054204N00433389WA0171301842
B1620264054199N00433381WA0171001840
B1620274054194N00433374WA0170901838
B1620284054190N00433366WA0170601835
B1620294054185N00433358WA0170401832
B1620304054180N00433349WA0170101829
B1620314054173N00433341WA0169801827
B1620324054167N00433334WA0169801825
B1620334054162N00433327WA0169601824
B1620344054156N00433319WA0169501822
B1620354054151N00433312WA0169101819
B1620364054146N00433304WA0168801815
B1620374054141N00433296WA0168501811
B1620384054136N00433287WA0168201807
B1620394054132N00433277WA0167901804
B1620404054127N00433266WA0167701802
B1620414054123N00433257WA0167701801
B1620424054119N00433248WA0167501800
B1620434054115N00433239WA0167301798
B1620444054111N00433231WA0167001795
B1620454054107N00433222WA0166701792
B1620464054102N00433213WA0166301788
B1620474054096N00433203WA0166201785
B1620484054091N00433193WA0166001782
B1620494054086N00433182WA0165801781
B1620504054082N00433171WA0165701779
B1620514054078N00433161WA0165601778
B1620524054074N00433151WA0165401776
B1620534054071N00433141WA0165001774
B1620544054067N00433132WA0164801771
B1620554054064N00433122WA0164301766
B1620564054060N00433111WA0164101762
B1620574054057N00433099WA0164001760
B1620584054054N00433088WA0163501758
B1620594054050N00433078WA0163501756
B1621004054045N00433068WA0163101753
B1621014054041N00433058WA0162801750
B1621024054038N00433048WA0162601747
B1621034054034N00433037WA0162301744
B1621044054029N00433027WA0162001741
B1621054054024N00433016WA0161901738
B1621064054020N00433006WA0161401734
B1621074054016N00432994WA0161401731
B1621084054012N00432983WA0161101729
B1621094054008N00432971WA0160801727
B1621104054004N00432960WA0160701725
B1621114054000N00432950WA0160601723
B1621124053996N00432938WA0160301721
B1621134053993N00432927WA0160101719
B1621144053991N00432915WA0159801716
B1621154053989N00432903WA0159601714
B1621164053987N00432891WA0159301711
B1621174053986N00432879WA0159001707
B1621184053984N00432867WA0158701703
B1621194053983N00432855WA0158501701
B1621204053981N00432843WA0158201699
B1621214053980N00432831WA0158001696
B1621224053978N00432820WA0157901693
B1621234053975N00432809WA0157501690
B1621244053972N00432797WA0157101686
B1621254053968N00432785WA0156801683
B1621264053964N00432774WA0156701682
B1621274053961N00432763WA0156601680
B1621284053957N00432752WA0156301678
B1621294053953N00432741WA0156101675
B1621304053948N00432730WA0156001673
B1621314053944N00432720WA0156001673
B1621324053940N00432710WA0155901672
B1621334053935N00432701WA0155801671
B1621344053930N00432691WA0155601669
B1621354053924N00432681WA0155401667
B1621364053918N00432671WA0155201665
B1621374053911N00432661WA0155001664
B1621384053904N00432650WA0155201665
B1621394053899N00432640WA0155401667
B1621404053895N00432631WA0155601669
B1621414053890N00432624WA0155601670
B1621424053886N00432617WA0155501670
B1621434053880N00432609WA0155201667
B1621444053874N00432600WA0155001664
B1621454053867N00432592WA0154801663
B1621464053859N00432585WA0155201665
B1621474053853N00432579WA0155401668
B1621484053847N00432575WA0155601670
B1621494053842N00432570WA0155801672
B1621504053836N00432565WA0155701673
B1621514053830N00432559WA0155801673
B1621524053824N00432553WA0155901674
B1621534053818N00432547WA0156001675
B1621544053812N00432542WA0156201677
B1621554053805N00432538WA0156401680
B1621564053799N00432534WA0156701682
B1621574053792N00432530WA0156901685
B1621584053787N00432525WA0157101687
B1621594053781N00432519WA0157301689
B1622004053775N00432514WA0157401690
B1622014053768N00432512WA0157401691
B1622024053761N00432515WA0157401692
B1622034053754N00432520WA0157501693
B1622044053749N00432526WA0157601694
B1622054053746N00432533WA0157901694
B1622064053745N00432539WA0158201698
B1622074053746N00432544WA0158501700
B1622084053747N00432547WA0158501702
B1622094053751N00432550WA0158801703
B1622104053756N00432550WA0159001705
B1622114053761N00432547WA0159201707
B1622124053764N00432540WA0159301709
B1622134053765N00432531WA0159601711
B1622144053763N00432521WA0159801713
B1622154053761N00432511WA0160101715
B1622164053758N00432503WA0160401719
B1622174053755N00432495WA0160501721
B1622184053750N00432489WA0160601723
B1622194053744N00432485WA0160401725
B1622204053736N00432484WA0160401724
B1622214053728N00432488WA0160501724
B1622224053722N00432494WA0160701725
B1622234053719N00432501WA0160801727
B1622244053718N00432508WA0161001727
B1622254053718N00432513WA0161001728
B1622264053719N00432518WA0161201729
B1622274053720N00432522WA0161401731
B1622284053724N00432527WA0161601732
B1622294053728N00432530WA0161801735
B1622304053732N00432531WA0162301739
B1622314053736N00432531WA0162601743
B1622324053740N00432530WA0162901747
B1622334053744N00432525WA0163201749
B1622344053746N00432517WA0163301751
B1622354053746N00432507WA0163701752
B1622364053741N00432497WA0163601753
B1622374053734N00432491WA0163901754
B1622384053726N00432490WA0164001755
B1622394053718N00432494WA0164301757
B1622404053712N00432500WA0164901760
B1622414053708N00432506WA0165201764
B1622424053704N00432511WA0165601772
B1622434053702N00432516WA0165901777
B1622444053701N00432521WA0166001779
B1622454053701N00432525WA0166101781
B1622464053705N00432527WA0166301781
B1622474053712N00432526WA0166401783
B1622484053716N00432520WA0166601784
B1622494053719N00432512WA0166801786
B1622504053720N00432503WA0167101787
B1622514053719N00432494WA0167501790
B1622524053718N00432486WA0167801795
B1622534053715N00432478WA0168101798
B1622544053711N00432472WA0168401801
B1622554053705N00432467WA0168601803
B1622564053698N00432464WA0168801803
B1622574053691N00432466WA0168901806
B1622584053685N00432471WA0169201808
B1622594053682N00432479WA0169301810
B1623004053683N00432487WA0169501813
B1623014053686N00432492WA0169901816
B1623024053690N00432495WA0170201820
B1623034053694N00432494WA0170601825
B1623044053697N00432491WA0170901827
B1623054053700N00432485WA0171101829
B1623064053700N00432477WA0171201831
B1623074053699N00432468WA0171601834
B1623084053695N00432460WA0171801838
B1623094053690N00432453WA0172001840
B1623104053684N00432449WA0172401843
B1623114053678N00432447WA0172601846
B1623124053672N00432445WA0172801848
B1623134053665N00432445WA0172901850
B1623144053659N00432448WA0173101851
B1623154053653N00432453WA0173201853
B1623164053649N00432460WA0173301855
B1623174053646N00432467WA0173501857
B1623184053645N00432475WA0173701862
B1623194053646N00432481WA0174101865
B1623204053649N00432487WA0174401869
B1623214053651N00432493WA0174601872
B1623224053653N00432497WA0175001875
B1623234053656N00432501WA0175201878
B1623244053659N00432501WA0175201880
B1623254053663N00432499WA0175301881
B1623264053666N00432493WA0175401883
B1623274053668N00432486WA0175601884
B1623284053669N00432476WA0176001886
B1623294053668N00432467WA0176201889
B1623304053668N00432458WA0176701895
B1623314053667N00432451WA0177001900
B1623324053667N00432444WA0177101902
B1623334053665N00432438WA0177301903
B1623344053662N00432433WA0177301904
B1623354053658N00432427WA0177201902
B1623364053652N00432423WA0177201903
B1623374053644N00432421WA0177301902
B1623384053636N00432421WA0177401903
B1623394053628N00432423WA0177401905
B1623404053622N00432426WA0177601906
B1623414053616N00432431WA0177701907
B1623424053610N00432436WA0177901908
B1623434053605N00432442WA0178101911
B1623444053601N00432450WA0178401914
B1623454053599N00432457WA0178801918
B1623464053596N00432463WA0179101921
B1623474053593N00432469WA0179401925
B1623484053589N00432475WA0179701928
B1623494053585N00432480WA0179801931
B1623504053583N00432486WA0180001933
B1623514053583N00432493WA0179901934
B1623524053587N00432498WA0180201935
B1623534053592N00432500WA0180401936
B1623544053597N00432498WA0180601938
B1623554053601N00432493WA0180801939
B1623564053602N00432485WA0181001940
B1623574053600N00432477WA0181101942
B1623584053596N00432470WA0181301942
B1623594053590N00432464WA0181401943
B1624004053583N00432460WA0181601944
B1624014053575N00432457WA0181801946
B1624024053568N00432455WA0182001949
B1624034053560N00432453WA0182301952
B1624044053553N00432453WA0182601954
B1624054053546N00432456WA0182601956
B1624064053542N00432463WA0182801957
B1624074053539N00432470WA0183001958
B1624084053538N00432476WA0183301959
B1624094053539N00432482WA0183501961
B1624104053540N00432488WA0183801964
B1624114053542N00432492WA0184101966
B1624124053545N00432495WA0184201967
B1624134053549N00432494WA0184201968
B1624144053553N00432490WA0184501970
B1624154053557N00432484WA0184601973
B1624164053558N00432477WA0184901976
B1624174053558N00432469WA0185101979
B1624184053557N00432462WA0185301981
B1624194053555N00432455WA0185401983
B1624204053552N00432449WA0185701986
B1624214053548N00432443WA0185701987
B1624224053543N00432438WA0185901988
B1624234053536N00432434WA0185901990
B1624244053529N00432430WA0186001991
B1624254053522N00432427WA0186201994
B1624264053514N00432425WA0186501997
B1624274053507N00432423WA0186802000
B1624284053500N00432421WA0187002003
B1624294053493N00432419WA0187202005
B1624304053485N00432419WA0187302008
B1624314053479N00432421WA0187302009
B1624324053473N00432427WA0187402010
B1624334053470N00432435WA0187602011
B1624344053468N00432444WA0187902013
B1624354053468N00432452WA0188202015
B1624364053468N00432459WA0188502022
B1624374053469N00432464WA0188802026
B1624384053471N00432468WA0189002028
B1624394053475N00432470WA0189002029
B1624404053480N00432467WA0189002031
B1624414053484N00432460WA0189302032
B1624424053485N00432450WA0189502035
B1624434053483N00432441WA0189802038
B1624444053477N00432434WA0190002039
B1624454053471N00432430WA0190102040
B1624464053462N00432429WA0190202041
B1624474053455N00432432WA0190402043
B1624484053447N00432437WA0190502045
B1624494053442N00432444WA0190802047
B1624504053437N00432451WA0191002051
B1624514053433N00432458WA0191302054
B1624524053430N00432465WA0191602057
B1624534053428N00432472WA0191802059
B1624544053428N00432478WA0191902061
B1624554053431N00432483WA0192002062
B1624564053437N00432485WA0192102064
B1624574053442N00432484WA0192302066
B1624584053446N00432482WA0192502069
B1624594053450N00432478WA0192802071
B1625004053453N00432474WA0193002073
B1625014053455N00432468WA0193202076
B1625024053457N00432462WA0193502079
B1625034053457N00432455WA0193702081
B1625044053456N00432448WA0193702082
B1625054053453N00432441WA0193702084
B1625064053447N00432434WA0193802085
B1625074053440N00432428WA0193902087
B1625084053434N00432422WA0194102089
B1625094053427N00432416WA0194402091
B1625104053421N00432411WA0194502093
B1625114053415N00432407WA0194702095
B1625124053408N00432402WA0194802096
B1625134053401N00432399WA0194902097
B1625144053394N00432398WA0195002097
B1625154053385N00432400WA0195002098
B1625164053377N00432403WA0195302099
B1625174053369N00432407WA0195402101
B1625184053362N00432411WA0195702103
B1625194053355N00432416WA0196002106
B1625204053349N00432420WA0196202108
B1625214053342N00432425WA0196402111
B1625224053336N00432428WA0196602113
B1625234053329N00432432WA0196802115
B1625244053323N00432438WA0197202118
B1625254053318N00432445WA0197302120
B1625264053313N00432452WA0197802124
B1625274053308N00432458WA0198002128
B1625284053303N00432461WA0198302132
B1625294053297N00432463WA0198602135
B1625304053291N00432463WA0198802137
B1625314053285N00432461WA0198902139
B1625324053280N00432456WA0199102141
B1625334053276N00432450WA0199202142
B1625344053276N00432442WA0199402144
B1625354053277N00432436WA0199702146
B1625364053279N00432431WA0200102147
B1625374053283N00432429WA0200502148
B1625384053286N00432427WA0201002151
B1625394053290N00432427WA0201402155
B1625404053293N00432427WA0201702159
B1625414053295N00432429WA0202002162
B1625424053297N00432435WA0202202165
B1625434053295N00432443WA0202502167
B1625444053291N00432451WA0202602170
B1625454053286N00432457WA0202702171
B1625464053279N00432460WA0203002173
B1625474053272N00432460WA0203002175
B1625484053265N00432459WA0203302174
B1625494053259N00432455WA0203502177
B1625504053253N00432450WA0203702181
B1625514053248N00432445WA0204002185
B1625524053244N00432441WA0204502189
B1625534053240N00432436WA0204802193
B1625544053237N00432430WA0205102197
B1625554053235N00432425WA0205402201
B1625564053234N00432420WA0205402205
B1625574053236N00432416WA0205702208
B1625584053239N00432414WA0205902210
B1625594053243N00432417WA0206102211
B1626004053245N00432422WA0206302212
B1626014053245N00432431WA0206502213
B1626024053241N00432441WA0206702216
B1626034053236N00432449WA0206902217
B1626044053228N00432454WA0207302218
B1626054053220N00432458WA0207602220
B1626064053213N00432460WA0207902223
B1626074053206N00432461WA0208302227
B1626084053199N00432461WA0208602231
B1626094053194N00432458WA0208702233
B1626104053188N00432454WA0208902234
B1626114053185N00432448WA0209002235
B1626124053185N00432441WA0209402238
B1626134053188N00432436WA0209602241
B1626144053191N00432433WA0209802243
B1626154053195N00432433WA0210102247
B1626164053198N00432434WA0210402250
B1626174053201N00432437WA0210802255
B1626184053204N00432440WA0211202259
B1626194053206N00432445WA0211502265
B1626204053206N00432452WA0211702269
B1626214053203N00432462WA0211802273
B1626224053197N00432470WA0211802274
B1626234053189N00432475WA0212002276
B1626244053180N00432477WA0212302278
B1626254053173N00432475WA0212602279
B1626264053167N00432472WA0212802281
B1626274053162N00432468WA0212902283
B1626284053158N00432464WA0213002284
B1626294053153N00432458WA0213102283
B1626304053151N00432451WA0213302284
B1626314053151N00432445WA0213302286
B1626324053152N00432440WA0213602288
B1626334053155N00432438WA0213902290
B1626344053157N00432436WA0214202293
B1626354053159N00432434WA0214502297
B1626364053161N00432433WA0214902301
B1626374053163N00432431WA0215202307
B1626384053165N00432430WA0215402310
B1626394053168N00432430WA0215602313
B1626404053171N00432434WA0215902315
B1626414053173N00432442WA0216202316
B1626424053171N00432450WA0216502318
B1626434053166N00432459WA0216702321
B1626444053159N00432465WA0216902323
B1626454053150N00432467WA0216902324
B1626464053141N00432466WA0217002326
B1626474053134N00432462WA0217202327
B1626484053128N00432455WA0217302328
B1626494053124N00432448WA0217702330
B1626504053121N00432441WA0218002332
B1626514053120N00432434WA0218402340
B1626524053119N00432429WA0218802344
B1626534053118N00432425WA0218902347
B1626544053119N00432424WA0218902350
B1626554053122N00432424WA0219002351
B1626564053126N00432426WA0219302353
B1626574053128N00432428WA0219902353
B1626584053131N00432434WA0220102354
B1626594053129N00432443WA0220502356
B1627004053127N00432451WA0220902359
B1627014053123N00432458WA0221102362
B1627024053117N00432465WA0221402365
B1627034053110N00432469WA0221502367
B1627044053102N00432471WA0221602368
B1627054053095N00432469WA0221902370
B1627064053088N00432464WA0222102372
B1627074053084N00432457WA0222302374
B1627084053082N00432450WA0222602377
B1627094053082N00432444WA0222902381
B1627104053083N00432439WA0223102383
B1627114053084N00432436WA0223302387
B1627124053086N00432433WA0223602390
B1627134053089N00432432WA0223902391
B1627144053092N00432433WA0224302394
B1627154053095N00432436WA0224702399
B1627164053098N00432440WA0225102404
B1627174053100N00432444WA0225402408
B1627184053101N00432449WA0225602412
B1627194053102N00432455WA0225902415
B1627204053100N00432464WA0226102417
B1627214053096N00432472WA0226202420
B1627224053089N00432479WA0226502423
B1627234053081N00432483WA0226602426
B1627244053073N00432484WA0226802429
B1627254053065N00432483WA0227002433
B1627264053058N00432480WA0227402436
B1627274053052N00432476WA0227702439
B1627284053046N00432471WA0227902442
B1627294053041N00432466WA0228302446
B1627304053037N00432461WA0228602449
B1627314053034N00432456WA0228602452
B1627324053032N00432450WA0228802454
B1627334053032N00432445WA0229002457
B1627344053033N00432439WA0229502460
B1627354053034N00432435WA0229802463
B1627364053037N00432433WA0230102467
B1627374053039N00432432WA0230302470
B1627384053040N00432434WA0230402473
B1627394053042N00432439WA0230502475
B1627404053043N00432446WA0230702476
B1627414053044N00432454WA0230902478
B1627424053042N00432463WA0231002481
B1627434053037N00432472WA0231302482
B1627444053030N00432478WA0231402484
B1627454053022N00432484WA0231702488
B1627464053015N00432488WA0232002491
B1627474053008N00432492WA0232402495
B1627484053002N00432496WA0232602498
B1627494052995N00432499WA0232802501
B1627504052988N00432501WA0232802503
B1627514052980N00432498WA0232902501
B1627524052973N00432494WA0232902502
B1627534052968N00432488WA0233102503
B1627544052966N00432482WA0233102505
B1627554052966N00432476WA0233302506
B1627564052967N00432471WA0233502507
B1627574052969N00432467WA0233602509
B1627584052971N00432465WA0233902511
B1627594052974N00432462WA0234202514
B1628004052977N00432461WA0234402518
B1628014052980N00432459WA0234802522
B1628024052983N00432457WA0235202526
B1628034052985N00432456WA0235402529
B1628044052989N00432455WA0235702531
B1628054052992N00432457WA0236102534
B1628064052995N00432460WA0236202537
B1628074052998N00432465WA0236402540
B1628084052999N00432471WA0236602542
B1628094052998N00432480WA0236602543
B1628104052996N00432489WA0236802545
B1628114052992N00432497WA0237002547
B1628124052986N00432505WA0237202549
B1628134052978N00432510WA0237302550
B1628144052971N00432515WA0237602552
B1628154052963N00432518WA0237702554
B1628164052955N00432521WA0237902557
B1628174052947N00432522WA0238002559
B1628184052939N00432522WA0238102560
B1628194052932N00432521WA0238202561
B1628204052925N00432519WA0238302562
B1628214052918N00432516WA0238602564
B1628224052912N00432513WA0238602565
B1628234052906N00432510WA0238702566
B1628244052900N00432507WA0238802567
B1628254052896N00432503WA0238902567
B1628264052891N00432498WA0238902568
B1628274052886N00432492WA0239102570
B1628284052881N00432488WA0239302572
B1628294052876N00432484WA0239402574
B1628304052872N00432479WA0239502575
B1628314052869N00432474WA0239602576
B1628324052867N00432468WA0239602576
B1628334052866N00432462WA0239702577
B1628344052867N00432455WA0240002578
B1628354052869N00432449WA0240202580
B1628364052871N00432444WA0240402583
B1628374052873N00432439WA0240702586
B1628384052876N00432435WA0241102589
B1628394052877N00432430WA0241402593
B1628404052879N00432427WA0241702596
B1628414052881N00432425WA0241902599
B1628424052883N00432425WA0242002601
B1628434052886N00432427WA0242102603
B1628444052888N00432432WA0242302604
B1628454052889N00432439WA0242402605
B1628464052887N00432449WA0242502606
B1628474052882N00432457WA0242702607
B1628484052875N00432464WA0243002609
B1628494052867N00432467WA0243202612
B1628504052859N00432466WA0243502611
B1628514052852N00432462WA0243702613
B1628524052848N00432456WA0243902614
B1628534052846N00432448WA0244002616
B1628544052846N00432442WA0244202618
B1628554052848N00432437WA0244302620
B1628564052851N00432433WA0244502623
B1628574052854N00432432WA0244702625
B1628584052857N00432430WA0244902626
B1628594052860N00432428WA0245002627
B1629004052865N00432428WA0245202629
B1629014052869N00432430WA0245402631
B1629024052872N00432433WA0245702634
B1629034052875N00432437WA0245802638
B1629044052877N00432441WA0246302641
B1629054052879N00432447WA0246302643
B1629064052880N00432453WA0246402645
B1629074052880N00432461WA0246402646
B1629084052877N00432469WA0246502647
B1629094052872N00432477WA0246802649
B1629104052866N00432483WA0246802651
B1629114052858N00432487WA0247002653
B1629124052851N00432487WA0247402655
B1629134052844N00432486WA0247502657
B1629144052837N00432484WA0247802660
B1629154052830N00432482WA0248102663
B1629164052824N00432479WA0248202665
B1629174052819N00432475WA0248302665
B1629184052814N00432470WA0248402666
B1629194052811N00432463WA0248502668
B1629204052810N00432456WA0248802669
B1629214052810N00432450WA0248802672
B1629224052811N00432444WA0249102675
B1629234052812N00432439WA0249302677
B1629244052813N00432434WA0249502678
B1629254052814N00432431WA0249502679
B1629264052817N00432429WA0249602680
B1629274052821N00432429WA0249602681
B1629284052825N00432432WA0249902682
B1629294052828N00432437WA0250002683
B1629304052829N00432442WA0250202684
B1629314052830N00432448WA0250402686
B1629324052829N00432454WA0250502688
B1629334052828N00432461WA0250502690
B1629344052826N00432467WA0250802691
B1629354052822N00432473WA0250802692
B1629364052817N00432479WA0251002694
B1629374052811N00432483WA0251202696
B1629384052805N00432485WA0251402698
B1629394052798N00432486WA0251602700
B1629404052792N00432485WA0251802702
B1629414052787N00432484WA0252102705
B1629424052781N00432481WA0252202706
B1629434052776N00432478WA0252402708
B1629444052771N00432474WA0252502710
B1629454052766N00432470WA0252602711
B1629464052763N00432464WA0252602713
B1629474052761N00432458WA0252702714
B1629484052760N00432452WA0252902714
B1629494052760N00432446WA0252902715
B1629504052760N00432439WA0253002717
B1629514052760N00432434WA0253202718
B1629524052761N00432428WA0253302719
B1629534052762N00432423WA0253402721
B1629544052763N00432418WA0253702723
B1629554052764N00432414WA0253802725
B1629564052765N00432410WA0253802726
B1629574052767N00432408WA0253902727
B1629584052770N00432406WA0253902728
B1629594052773N00432405WA0254002729
B1630004052776N00432402WA0253902730
B1630014052777N00432396WA0254002730
B1630024052777N00432389WA0254302731
B1630034052777N00432381WA0254502732
B1630044052775N00432374WA0254602735
B1630054052772N00432367WA0254902737
B1630064052769N00432360WA0255002739
B1630074052766N00432352WA0255102740
B1630084052762N00432344WA0255202741
B1630094052758N00432336WA0255402743
B1630104052754N00432329WA0255602745
B1630114052748N00432323WA0255802747
B1630124052744N00432316WA0255902748
B1630134052740N00432309WA0256002748
B1630144052737N00432301WA0256002749
B1630154052733N00432294WA0256102750
B1630164052730N00432287WA0256202751
B1630174052727N00432279WA0256302752
B1630184052725N00432271WA0256402753
B1630194052723N00432264WA0256402754
B1630204052721N00432256WA0256502755
B1630214052719N00432248WA0256602756
B1630224052717N00432241WA0256702757
B1630234052714N00432234WA0256802758
B1630244052711N00432227WA0256902760
B1630254052708N00432222WA0257002761
B1630264052705N00432216WA0256902761
B1630274052703N00432209WA0256802760
B1630284052702N00432202WA0256802759
B1630294052700N00432196WA0256702760
B1630304052698N00432189WA0256702760
B1630314052697N00432183WA0256802760
B1630324052696N00432177WA0256702759
B1630334052695N00432170WA0256802759
B1630344052695N00432164WA0256702758
B1630354052694N00432157WA0256602758
B1630364052694N00432150WA0256602757
B1630374052693N00432143WA0256602757
B1630384052692N00432136WA0256402756
B1630394052691N00432129WA0256402755
B1630404052691N00432122WA0256202754
B1630414052691N00432115WA0256402754
B1630424052691N00432108WA0256302753
B1630434052691N00432101WA0256202753
B1630444052691N00432093WA0256202752
B1630454052692N00432086WA0256202752
B1630464052692N00432079WA0256202751
B1630474052692N00432071WA0256102751
B1630484052691N00432063WA0256002749
B1630494052691N00432056WA0255902748
B1630504052690N00432048WA0255902747
B1630514052690N00432040WA0255702746
B1630524052689N00432032WA0255602746
B1630534052688N00432024WA0255502745
B1630544052687N00432015WA0255402744
B1630554052686N00432007WA0255402743
B1630564052686N00431999WA0255102741
B1630574052685N00431991WA0255002740
B1630584052684N00431983WA0254802738
B1630594052684N00431974WA0254602735
B1631004052683N00431966WA0254302733
B1631014052683N00431957WA0254102730
B1631024052683N00431949WA0253902729
B1631034052683N00431940WA0253702727
B1631044052683N00431931WA0253502725
B1631054052683N00431922WA0253502723
B1631064052682N00431914WA0253302721
B1631074052680N00431905WA0253202719
B1631084052677N00431896WA0252902718
B1631094052673N00431888WA0253002718
B1631104052670N00431881WA0253002717
B1631114052666N00431874WA0253002718
B1631124052662N00431867WA0253102718
B1631134052658N00431861WA0253102719
B1631144052654N00431854WA0253102720
B1631154052650N00431848WA0253102720
B1631164052645N00431842WA0253002719
B1631174052642N00431835WA0252902719
B1631184052638N00431828WA0252602718
B1631194052634N00431821WA0252602717
B1631204052631N00431813WA0252602716
B1631214052628N00431805WA0252602716
B1631224052625N00431798WA0252702718
B1631234052622N00431791WA0252702719
B1631244052619N00431784WA0252602719
B1631254052615N00431777WA0252602719
B1631264052612N00431770WA0252502719
B1631274052609N00431763WA0252502719
B1631284052606N00431755WA0252402717
B1631294052604N00431747WA0252402717
B1631304052600N00431739WA0252502717
B1631314052597N00431731WA0252602718
B1631324052593N00431724WA0252702720
B1631334052590N00431718WA0252802722
B1631344052587N00431711WA0252802723
B1631354052585N00431705WA0252802722
B1631364052581N00431699WA0252802722
B1631374052577N00431694WA0252702721
B1631384052573N00431689WA0252602721
B1631394052568N00431683WA0252702721
B1631404052564N00431676WA0252602721
B1631414052561N00431668WA0252402720
B1631424052559N00431660WA0252202718
B1631434052557N00431652WA0252202717
B1631444052556N00431644WA0251902716
B1631454052554N00431636WA0251802714
B1631464052553N00431629WA0251502712
B1631474052552N00431621WA0251102709
B1631484052552N00431613WA0250802706
B1631494052553N00431605WA0250502703
B1631504052555N00431596WA0250102700
B1631514052558N00431588WA0249702696
B1631524052560N00431579WA0249302692
B1631534052564N00431570WA0249002688
B1631544052567N00431561WA0248702685
B1631554052571N00431553WA0248502682
B1631564052575N00431544WA0248202679
B1631574052578N00431536WA0247902676
B1631584052581N00431527WA0247502672
B1631594052584N00431519WA0247302669
B1632004052586N00431510WA0247202667
B1632014052588N00431502WA0247102666
B1632024052589N00431494WA0247002664
B1632034052591N00431487WA0246802662
B1632044052592N00431479WA0246602660
B1632054052595N00431471WA0246502658
B1632064052597N00431461WA0246402656
B1632074052600N00431452WA0246402656
B1632084052602N00431442WA0246402656
B1632094052604N00431434WA0246502657
B1632104052606N00431425WA0246302656
B1632114052608N00431415WA0246102654
B1632124052611N00431406WA0246002653
B1632134052613N00431397WA0245902651
B1632144052616N00431388WA0245802651
B1632154052620N00431379WA0246002652
B1632164052622N00431371WA0246402654
B1632174052623N00431364WA0246502656
B1632184052624N00431359WA0246502656
B1632194052626N00431352WA0246502653
B1632204052627N00431345WA0246402653
B1632214052627N00431337WA0246402652
B1632224052628N00431328WA0246402652
B1632234052629N00431319WA0246302652
B1632244052630N00431310WA0246402653
B1632254052630N00431301WA0246502654
B1632264052630N00431292WA0246502655
B1632274052630N00431283WA0246502656
B1632284052631N00431275WA0246502656
B1632294052631N00431266WA0246502656
B1632304052632N00431257WA0246402654
B1632314052633N00431247WA0246402653
B1632324052633N00431237WA0246302653
B1632334052633N00431226WA0246402653
B1632344052633N00431217WA0246502654
B1632354052632N00431208WA0246502656
B1632364052631N00431199WA0246602656
B1632374052630N00431190WA0246502657
B1632384052628N00431181WA0246402656
B1632394052626N00431172WA0246502656
B1632404052624N00431162WA0246402656
B1632414052621N00431154WA0246602657
B1632424052618N00431146WA0246702658
B1632434052616N00431139WA0246702658
B1632444052614N00431132WA0246702658
B1632454052611N00431123WA0246502657
B1632464052609N00431114WA0246402656
B1632474052607N00431104WA0246502656
B1632484052605N00431094WA0246702658
B1632494052603N00431085WA0247102661
B1632504052601N00431077WA0247402663
B1632514052598N00431070WA0247802666
B1632524052596N00431064WA0248102669
B1632534052593N00431059WA0248102671
B1632544052590N00431054WA0248302672
B1632554052588N00431049WA0248102673
B1632564052588N00431043WA0248102673
B1632574052589N00431038WA0248002673
B1632584052590N00431032WA0248002673
B1632594052590N00431026WA0248002673
B1633004052589N00431019WA0247802672
B1633014052586N00431013WA0247702671
B1633024052583N00431008WA0247502670
B1633034052579N00431001WA0247302667
B1633044052575N00430995WA0247102665
B1633054052572N00430988WA0246902663
B1633064052571N00430980WA0246702660
B1633074052571N00430972WA0246502658
B1633084052572N00430964WA0246302656
B1633094052574N00430956WA0246302654
B1633104052575N00430949WA0246202652
B1633114052577N00430941WA0246002651
B1633124052578N00430932WA0245902651
B1633134052579N00430924WA0245802650
B1633144052580N00430917WA0245602649
B1633154052581N00430909WA0245502647
B1633164052582N00430901WA0245202645
B1633174052584N00430893WA0245102642
B1633184052586N00430885WA0244802640
B1633194052587N00430877WA0244602638
B1633204052589N00430869WA0244602636
B1633214052591N00430861WA0244402634
B1633224052593N00430853WA0244002633
B1633234052595N00430845WA0244102631
B1633244052597N00430838WA0243902629
B1633254052599N00430830WA0243802627
B1633264052602N00430823WA0243702625
B1633274052604N00430815WA0243602623
B1633284052607N00430807WA0243402623
B1633294052610N00430800WA0243302623
B1633304052613N00430793WA0243302622
B1633314052617N00430787WA0243202621
B1633324052621N00430780WA0243002620
B1633334052624N00430773WA0242802619
B1633344052628N00430766WA0242802617
B1633354052632N00430759WA0242602615
B1633364052637N00430752WA0242502614
B1633374052640N00430744WA0242502613
B1633384052644N00430737WA0242502612
B1633394052648N00430729WA0242502612
B1633404052651N00430722WA0242302611
B1633414052654N00430714WA0242402609
B1633424052658N00430706WA0242402608
B1633434052661N00430699WA0242302608
B1633444052664N00430691WA0242402608
B1633454052667N00430685WA0242502609
B1633464052670N00430678WA0242502609
B1633474052672N00430672WA0242402609
B1633484052675N00430665WA0242302609
B1633494052678N00430658WA0242302608
B1633504052682N00430650WA0242302608
B1633514052685N00430643WA0242302608
B1633524052687N00430636WA0242202608
B1633534052690N00430629WA0242102607
B1633544052692N00430622WA0242002605
B1633554052695N00430615WA0242002604
B1633564052698N00430606WA0241902602
B1633574052700N00430598WA0241802601
B1633584052703N00430590WA0241802601
B1633594052706N00430583WA0241802601
B1634004052709N00430576WA0241602600
B1634014052712N00430569WA0241502599
B1634024052716N00430562WA0241302597
B1634034052719N00430553WA0241202596
B1634044052722N00430545WA0241202596
B1634054052726N00430538WA0241202596
B1634064052729N00430531WA0241102595
B1634074052733N00430524WA0241002594
B1634084052736N00430518WA0240902593
B1634094052739N00430511WA0240802592
B1634104052742N00430504WA0240802591
B1634114052745N00430497WA0240802591
B1634124052748N00430490WA0240702591
B1634134052751N00430483WA0240602590
B1634144052754N00430477WA0240402589
B1634154052757N00430469WA0240402587
B1634164052761N00430461WA0240402587
B1634174052764N00430453WA0240402587
B1634184052768N00430445WA0240502588
B1634194052772N00430439WA0240602589
B1634204052776N00430433WA0240402590
B1634214052780N00430426WA0240302588
B1634224052784N00430418WA0240202586
B1634234052788N00430410WA0240102586
B1634244052792N00430401WA0240102586
B1634254052796N00430393WA0240002586
B1634264052800N00430385WA0239902586
B1634274052804N00430378WA0239702586
B1634284052808N00430371WA0239502584
B1634294052811N00430362WA0239202580
B1634304052814N00430353WA0238902577
B1634314052817N00430344WA0238602575
B1634324052819N00430334WA0238402572
B1634334052821N00430324WA0238402571
B1634344052823N00430314WA0238202569
B1634354052824N00430305WA0238002567
B1634364052825N00430296WA0237902565
B1634374052826N00430286WA0237702563
B1634384052828N00430277WA0237602561
B1634394052829N00430267WA0237502559
B1634404052832N00430258WA0237302558
B1634414052834N00430250WA0237202556
B1634424052837N00430241WA0237002554
B1634434052839N00430233WA0236802552
B1634444052842N00430224WA0236602550
B1634454052846N00430215WA0236502548
B1634464052849N00430207WA0236302546
B1634474052853N00430198WA0236202545
B1634484052856N00430190WA0236002543
B1634494052859N00430181WA0235802542
B1634504052862N00430173WA0235502539
B1634514052865N00430165WA0235302537
B1634524052868N00430157WA0235202534
B1634534052871N00430150WA0234902532
B1634544052873N00430142WA0234602529
B1634554052875N00430134WA0234302526
B1634564052876N00430126WA0234002523
B1634574052878N00430117WA0233802520
B1634584052879N00430109WA0233702518
B1634594052881N00430100WA0233502516
B1635004052883N00430091WA0233302514
B1635014052885N00430082WA0233102511
B1635024052887N00430072WA0232902509
B1635034052889N00430063WA0232702507
B1635044052892N00430053WA0232502505
B1635054052894N00430044WA0232402503
B1635064052896N00430034WA0232302501
B1635074052898N00430024WA0232202500
B1635084052900N00430015WA0232202499
B1635094052902N00430006WA0232102498
B1635104052904N00429997WA0231902497
B1635114052905N00429987WA0231802496
B1635124052906N00429978WA0231702495
B1635134052906N00429969WA0231802495
B1635144052907N00429960WA0231702495
B1635154052908N00429951WA0231602494
B1635164052908N00429943WA0231602493
B1635174052909N00429935WA0231402492
B1635184052909N00429927WA0231302490
B1635194052910N00429918WA0231102488
B1635204052911N00429909WA0230902487
B1635214052912N00429899WA0230702485
B1635224052913N00429889WA0230702484
B1635234052914N00429880WA0230502483
B1635244052916N00429871WA0230502482
B1635254052918N00429862WA0230402480
B1635264052921N00429853WA0230202479
B1635274052923N00429844WA0230002477
B1635284052926N00429836WA0229902475
B1635294052929N00429827WA0229802474
B1635304052932N00429818WA0229802474
B1635314052935N00429808WA0229802474
B1635324052938N00429800WA0229802474
B1635334052941N00429791WA0229702474
B1635344052945N00429783WA0229702473
B1635354052948N00429774WA0229502472
B1635364052951N00429766WA0229302470
B1635374052954N00429757WA0229202469
B1635384052957N00429748WA0229102467
B1635394052960N00429739WA0229202466
B1635404052963N00429731WA0228902465
B1635414052966N00429722WA0228802464
B1635424052969N00429714WA0228602463
B1635434052973N00429706WA0228602461
B1635444052976N00429697WA0228502460
B1635454052980N00429689WA0228402460
B1635464052985N00429681WA0228802461
B1635474052989N00429674WA0228702462
B1635484052994N00429668WA0228602462
B1635494052997N00429662WA0228502461
B1635504053001N00429656WA0228202459
B1635514053006N00429650WA0228002457
B1635524053012N00429644WA0227702455
B1635534053018N00429637WA0227702453
B1635544053023N00429629WA0227502452
B1635554053028N00429621WA0227602452
B1635564053031N00429614WA0227602453
B1635574053035N00429608WA0227602452
B1635584053038N00429601WA0227402451
B1635594053041N00429593WA0227202449
B1636004053044N00429585WA0226802446
B1636014053048N00429577WA0226702443
B1636024053051N00429568WA0226502442
B1636034053054N00429559WA0226502441
B1636044053057N00429552WA0226602442
B1636054053060N00429545WA0226602442
B1636064053062N00429539WA0226502442
B1636074053065N00429531WA0226302440
B1636084053068N00429523WA0226102435
B1636094053072N00429513WA0225902434
B1636104053075N00429504WA0226002434
B1636114053079N00429496WA0226102435
B1636124053082N00429489WA0226202436
B1636134053084N00429483WA0226102435
B1636144053087N00429476WA0225902433
B1636154053090N00429469WA0225602429
B1636164053094N00429461WA0225402427
B1636174053097N00429454WA0225202425
B1636184053100N00429447WA0225202424
B1636194053103N00429440WA0225002422
B1636204053106N00429432WA0224902421
B1636214053109N00429425WA0224802419
B1636224053112N00429418WA0224602418
B1636234053115N00429411WA0224602417
B1636244053119N00429405WA0224502416
B1636254053122N00429400WA0224302414
B1636264053126N00429395WA0224102412
B1636274053130N00429389WA0223902410
B1636284053135N00429384WA0223702407
B1636294053139N00429378WA0223402406
B1636304053143N00429372WA0223302404
B1636314053146N00429367WA0223102402
B1636324053149N00429361WA0222902400
B1636334053153N00429356WA0222702398
B1636344053157N00429351WA0222602396
B1636354053161N00429346WA0222502394
B1636364053164N00429340WA0222302392
B1636374053168N00429334WA0222102391
B1636384053171N00429329WA0222002390
B1636394053174N00429323WA0221902388
B1636404053177N00429317WA0221702386
B1636414053179N00429311WA0221502383
B1636424053181N00429304WA0221102381
B1636434053183N00429297WA0220902378
B1636444053186N00429289WA0220702375
B1636454053188N00429281WA0220502373
B1636464053191N00429273WA0220402372
B1636474053193N00429265WA0220402371
B1636484053195N00429258WA0220302370
B1636494053197N00429251WA0220102368
B1636504053199N00429244WA0219802365
B1636514053201N00429237WA0219602363
B1636524053203N00429229WA0219302360
B1636534053204N00429221WA0219102357
B1636544053205N00429213WA0218802355
B1636554053206N00429204WA0218902355
B1636564053207N00429196WA0219002356
B1636574053208N00429188WA0219002356
B1636584053208N00429181WA0218802357
B1636594053208N00429173WA0218802357
B1637004053208N00429165WA0218702356
B1637014053208N00429157WA0218702354
B1637024053208N00429148WA0218502353
B1637034053208N00429138WA0218402352
B1637044053208N00429129WA0218502352
B1637054053208N00429120WA0218302352
B1637064053207N00429110WA0218202351
B1637074053207N00429101WA0218202350
B1637084053207N00429092WA0218102349
B1637094053207N00429083WA0218002349
B1637104053208N00429074WA0218102348
B1637114053208N00429065WA0218002348
B1637124053209N00429058WA0217802347
B1637134053210N00429051WA0217602344
B1637144053210N00429043WA0217602342
B1637154053211N00429034WA0217502341
B1637164053212N00429026WA0217502340
B1637174053212N00429017WA0217402339
B1637184053212N00429010WA0217402338
B1637194053212N00429002WA0217302337
B1637204053211N00428994WA0217202336
B1637214053211N00428986WA0217002334
B1637224053209N00428978WA0216902333
B1637234053208N00428970WA0216702330
B1637244053207N00428961WA0216602328
B1637254053206N00428952WA0216402327
B1637264053205N00428942WA0216402326
B1637274053204N00428933WA0216202325
B1637284053204N00428924WA0216202324
B1637294053203N00428914WA0216002322
B1637304053203N00428905WA0215802320
B1637314053203N00428895WA0215702319
B1637324053203N00428884WA0215702318
B1637334053203N00428874WA0215602318
B1637344053203N00428864WA0215602317
B1637354053204N00428854WA0215402316
B1637364053204N00428844WA0215302315
B1637374053205N00428833WA0215502315
B1637384053205N00428822WA0215402316
B1637394053205N00428812WA0215802319
B1637404053206N00428804WA0216202323
B1637414053205N00428797WA0216402325
B1637424053204N00428791WA0216402327
B1637434053203N00428784WA0216302330
B1637444053200N00428778WA0216002330
B1637454053196N00428773WA0216002329
B1637464053191N00428768WA0215802329
B1637474053186N00428763WA0215802328
B1637484053181N00428758WA0215702326
B1637494053178N00428752WA0215602325
B1637504053175N00428746WA0215502324
B1637514053173N00428739WA0215202322
B1637524053173N00428730WA0215002319
B1637534053175N00428721WA0214702317
B1637544053178N00428712WA0214802316
B1637554053181N00428704WA0214602314
B1637564053184N00428696WA0214502312
B1637574053187N00428688WA0214302310
B1637584053191N00428680WA0214202307
B1637594053195N00428671WA0214102306
B1638004053199N00428663WA0214202307
B1638014053202N00428655WA0214302308
B1638024053205N00428648WA0214402308
B1638034053209N00428641WA0214402308
B1638044053213N00428634WA0214302307
B1638054053217N00428628WA0214202306
B1638064053222N00428621WA0214002305
B1638074053227N00428614WA0214002304
B1638084053232N00428606WA0214002303
B1638094053237N00428597WA0214002304
B1638104053242N00428588WA0214202306
B1638114053247N00428580WA0214402308
B1638124053251N00428573WA0214602309
B1638134053255N00428566WA0214602309
B1638144053259N00428559WA0214502309
B1638154053264N00428551WA0214502309
B1638164053269N00428544WA0214602309
B1638174053276N00428538WA0214702310
B1638184053282N00428533WA0214802311
B1638194053288N00428528WA0215102313
B1638204053295N00428524WA0215202315
B1638214053301N00428519WA0215602317
B1638224053307N00428514WA0215702319
B1638234053312N00428510WA0215902321
B1638244053319N00428508WA0215902322
B1638254053325N00428508WA0215802323
B1638264053329N00428513WA0215802324
B1638274053330N00428519WA0215902325
B1638284053329N00428525WA0216202327
B1638294053325N00428528WA0216302328
B1638304053319N00428528WA0216502329
B1638314053314N00428524WA0216602331
B1638324053310N00428519WA0216902331
B1638334053307N00428511WA0216902333
B1638344053305N00428503WA0217102334
B1638354053303N00428495WA0217302336
B1638364053303N00428486WA0217502338
B1638374053303N00428477WA0217602340
B1638384053304N00428468WA0217702341
B1638394053307N00428460WA0217902342
B1638404053311N00428454WA0218102344
B1638414053315N00428448WA0218302345
B1638424053320N00428443WA0218402348
B1638434053325N00428440WA0218502349
B1638444053330N00428440WA0218502350
B1638454053335N00428444WA0218402350
B1638464053338N00428450WA0218402350
B1638474053340N00428458WA0218402351
B1638484053341N00428466WA0218602351
B1638494053341N00428472WA0218802354
B1638504053341N00428478WA0219002357
B1638514053341N00428482WA0219202358
B1638524053339N00428486WA0219202358
B1638534053336N00428490WA0219402358
B1638544053331N00428493WA0219502359
B1638554053326N00428493WA0219602360
B1638564053320N00428493WA0219702363
B1638574053315N00428491WA0220102365
B1638584053310N00428489WA0220202367
B1638594053306N00428486WA0220402370
B1639004053302N00428480WA0220502371
B1639014053299N00428473WA0220602373
B1639024053298N00428463WA0220602374
B1639034053299N00428454WA0220802376
B1639044053303N00428445WA0220802377
B1639054053308N00428438WA0220802377
B1639064053314N00428435WA0220802378
B1639074053321N00428435WA0220802377
B1639084053326N00428439WA0220602378
B1639094053330N00428445WA0220702378
B1639104053331N00428452WA0220902379
B1639114053329N00428459WA0220902380
B1639124053326N00428464WA0221102381
B1639134053322N00428468WA0221302384
B1639144053319N00428472WA0221602389
B1639154053316N00428475WA0221802390
B1639164053312N00428477WA0222002392
B1639174053308N00428477WA0222202393
B1639184053303N00428476WA0222302394
B1639194053298N00428473WA0222502396
B1639204053293N00428468WA0222602397
B1639214053289N00428461WA0222802398
B1639224053286N00428454WA0222902400
B1639234053285N00428445WA0223102401
B1639244053286N00428435WA0223102402
B1639254053289N00428425WA0223302403
B1639264053292N00428416WA0223402404
B1639274053296N00428408WA0223602407
B1639284053300N00428402WA0223802408
B1639294053305N00428396WA0224002409
B1639304053311N00428393WA0224002410
B1639314053318N00428392WA0224102411
B1639324053325N00428393WA0224302413
B1639334053332N00428395WA0224402415
B1639344053337N00428398WA0224602417
B1639354053341N00428401WA0224802419
B1639364053344N00428405WA0224902420
B1639374053345N00428410WA0224802419
B1639384053344N00428415WA0225002419
B1639394053341N00428420WA0225002419
B1639404053336N00428423WA0225202420
B1639414053331N00428424WA0225602422
B1639424053325N00428423WA0225802427
B1639434053320N00428422WA0226002429
B1639444053315N00428420WA0226102431
B1639454053311N00428415WA0226202431
B1639464053307N00428408WA0226202430
B1639474053303N00428399WA0226302431
B1639484053302N00428389WA0226402433
B1639494053303N00428379WA0226602434
B1639504053307N00428370WA0226702436
B1639514053313N00428364WA0226802437
B1639524053319N00428361WA0227002439
B1639534053325N00428359WA0227102441
B1639544053331N00428360WA0227402444
B1639554053335N00428363WA0227602446
B1639564053338N00428369WA0227602448
B1639574053337N00428375WA0227802450
B1639584053334N00428380WA0228002452
B1639594053330N00428383WA0228102453
B1640004053324N00428383WA0228402455
B1640014053319N00428380WA0228502456
B1640024053313N00428376WA0228602458
B1640034053308N00428370WA0228702460
B1640044053305N00428363WA0228902461
B1640054053303N00428354WA0229002459
B1640064053301N00428344WA0229002460
B1640074053302N00428335WA0229202462
B1640084053305N00428326WA0229302464
B1640094053308N00428318WA0229402465
B1640104053313N00428311WA0229602467
B1640114053318N00428306WA0229702468
B1640124053323N00428302WA0229702469
B1640134053329N00428299WA0229702468
B1640144053336N00428298WA0229702468
B1640154053343N00428299WA0229902468
B1640164053349N00428301WA0229902469
B1640174053355N00428304WA0230202471
B1640184053360N00428307WA0230502474
B1640194053365N00428310WA0230802476
B1640204053369N00428313WA0231002479
B1640214053372N00428318WA0231202480
B1640224053374N00428323WA0231302482
B1640234053372N00428329WA0231302483
B1640244053368N00428333WA0231502485
B1640254053362N00428334WA0231802487
B1640264053356N00428331WA0232002488
B1640274053352N00428326WA0232102489
B1640284053349N00428318WA0232402491
B1640294053347N00428310WA0232502493
B1640304053348N00428300WA0232702494
B1640314053350N00428291WA0232902497
B1640324053354N00428281WA0233102499
B1640334053359N00428274WA0233302502
B1640344053364N00428268WA0233602504
B1640354053370N00428263WA0233702506
B1640364053377N00428260WA0233902509
B1640374053383N00428258WA0234002511
B1640384053389N00428259WA0234002513
B1640394053393N00428263WA0234202514
B1640404053396N00428268WA0234402516
B1640414053398N00428274WA0234602518
B1640424053397N00428279WA0234702520
B1640434053394N00428283WA0234902522
B1640444053390N00428284WA0234902523
B1640454053385N00428282WA0235102525
B1640464053380N00428279WA0235202527
B1640474053375N00428274WA0235502529
B1640484053370N00428268WA0235602533
B1640494053365N00428262WA0236002537
B1640504053362N00428255WA0236302541
B1640514053359N00428247WA0236602544
B1640524053357N00428239WA0236802546
B1640534053358N00428230WA0236802547
B1640544053361N00428221WA0236902547
B1640554053367N00428214WA0236902548
B1640564053374N00428210WA0237102548
B1640574053381N00428210WA0237102549
B1640584053387N00428213WA0237102550
B1640594053389N00428220WA0237302551
B1641004053389N00428226WA0237502553
B1641014053385N00428231WA0237602554
B1641024053380N00428233WA0237902556
B1641034053375N00428233WA0238002557
B1641044053370N00428230WA0238502559
B1641054053366N00428226WA0238602563
B1641064053363N00428221WA0238802565
B1641074053360N00428216WA0238902565
B1641084053358N00428210WA0238902564
B1641094053356N00428202WA0238902563
B1641104053356N00428193WA0238802563
B1641114053357N00428183WA0238902563
B1641124053359N00428172WA0239002564
B1641134053362N00428163WA0239102565
B1641144053365N00428153WA0239202567
B1641154053368N00428144WA0239302568
B1641164053372N00428134WA0239402569
B1641174053376N00428125WA0239402570
B1641184053380N00428116WA0239602572
B1641194053384N00428107WA0239802574
B1641204053389N00428100WA0239902576
B1641214053394N00428093WA0240002577
B1641224053398N00428088WA0239902577
B1641234053404N00428083WA0239802576
B1641244053410N00428081WA0239802575
B1641254053417N00428080WA0239802575
B1641264053423N00428080WA0239802576
B1641274053430N00428080WA0239702576
B1641284053436N00428082WA0239702576
B1641294053441N00428085WA0239702576
B1641304053446N00428089WA0239702576
B1641314053452N00428093WA0239902577
B1641324053457N00428096WA0239802578
B1641334053463N00428099WA0239902578
B1641344053468N00428100WA0239902578
B1641354053474N00428103WA0239902578
B1641364053480N00428107WA0239802578
B1641374053485N00428112WA0240002578
B1641384053489N00428118WA0240002579
B1641394053491N00428124WA0240102580
B1641404053491N00428129WA0240102581
B1641414053490N00428134WA0240102579
B1641424053488N00428138WA0240202579
B1641434053484N00428141WA0240202579
B1641444053480N00428141WA0240202580
B1641454053475N00428140WA0240202580
B1641464053471N00428137WA0240302581
B1641474053467N00428133WA0240402581
B1641484053462N00428129WA0240502582
B1641494053458N00428126WA0240602583
B1641504053454N00428124WA0240702584
B1641514053449N00428122WA0240802586
B1641524053445N00428122WA0241102588
B1641534053441N00428122WA0241202589
B1641544053437N00428122WA0241302591
B1641554053433N00428121WA0241302592
B1641564053430N00428117WA0241202593
B1641574053427N00428110WA0241202592
B1641584053424N00428102WA0241302591
B1641594053423N00428092WA0241502591
B1642004053423N00428082WA0241602593
B1642014053424N00428073WA0241702594
B1642024053427N00428064WA0241802595
B1642034053431N00428056WA0241702595
B1642044053437N00428050WA0241702595
B1642054053443N00428044WA0241802596
B1642064053450N00428039WA0242002597
B1642074053457N00428036WA0242102599
B1642084053464N00428034WA0242202600
B1642094053471N00428033WA0242202602
B1642104053477N00428034WA0242302603
B1642114053483N00428037WA0242302603
B1642124053486N00428041WA0242202604
B1642134053488N00428047WA0242202604
B1642144053488N00428053WA0242302603
B1642154053486N00428057WA0242402603
B1642164053483N00428058WA0242302604
B1642174053479N00428056WA0242302604
B1642184053474N00428051WA0242302604
B1642194053470N00428044WA0242302605
B1642204053466N00428037WA0242502606
B1642214053463N00428029WA0242602608
B1642224053461N00428020WA0242802609
B1642234053460N00428011WA0242702610
B1642244053460N00428002WA0242802611
B1642254053461N00427993WA0242802612
B1642264053462N00427983WA0242902613
B1642274053464N00427974WA0242902612
B1642284053466N00427964WA0243002613
B1642294053470N00427955WA0243002612
B1642304053475N00427947WA0243102613
B1642314053481N00427939WA0243102613
B1642324053487N00427933WA0243102614
B1642334053493N00427927WA0243202615
B1642344053498N00427922WA0243102615
B1642354053504N00427917WA0243102614
B1642364053510N00427914WA0242902612
B1642374053517N00427913WA0242702609
B1642384053525N00427913WA0242502608
B1642394053533N00427914WA0242402608
B1642404053540N00427914WA0242502608
B1642414053547N00427914WA0242502608
B1642424053553N00427915WA0242402607
B1642434053559N00427918WA0242402607
B1642444053563N00427922WA0242202606
B1642454053566N00427927WA0242302605
B1642464053567N00427933WA0241802604
B1642474053566N00427939WA0241902603
B1642484053564N00427945WA0241902602
B1642494053562N00427950WA0241902603
B1642504053560N00427954WA0241902604
B1642514053557N00427957WA0241802603
B1642524053554N00427959WA0241802603
B1642534053550N00427959WA0241602601
B1642544053546N00427958WA0241602600
B1642554053541N00427956WA0241502598
B1642564053536N00427954WA0241402597
B1642574053532N00427951WA0241402597
B1642584053527N00427947WA0241302597
B1642594053523N00427943WA0241302596
B1643004053518N00427938WA0241202596
B1643014053514N00427933WA0241202595
B1643024053509N00427926WA0241202595
B1643034053505N00427919WA0241302595
B1643044053501N00427912WA0241302595
B1643054053498N00427903WA0241402596
B1643064053495N00427894WA0241402596
B1643074053492N00427887WA0241402597
B1643084053488N00427880WA0241402597
B1643094053484N00427874WA0241402597
B1643104053480N00427867WA0241502598
B1643114053477N00427861WA0241602599
B1643124053473N00427854WA0241602599
B1643134053469N00427849WA0241602599
B1643144053466N00427842WA0241602599
B1643154053463N00427835WA0241602599
B1643164053460N00427827WA0241502598
B1643174053457N00427819WA0241502597
B1643184053455N00427810WA0241402597
B1643194053454N00427802WA0241402596
B1643204053452N00427793WA0241302595
B1643214053452N00427785WA0241202594
B1643224053452N00427776WA0240902592
B1643234053454N00427765WA0240802589
B1643244053456N00427755WA0240502587
B1643254053458N00427745WA0240402586
B1643264053460N00427735WA0240202584
B1643274053462N00427725WA0240002583
B1643284053464N00427715WA0239902581
B1643294053466N00427706WA0239602579
B1643304053469N00427696WA0239302576
B1643314053472N00427686WA0238902573
B1643324053474N00427676WA0238702570
B1643334053477N00427666WA0238402567
B1643344053479N00427656WA0238002564
B1643354053481N00427646WA0237902561
B1643364053484N00427636WA0237602558
B1643374053486N00427626WA0237402556
B1643384053488N00427616WA0237202553
B1643394053490N00427606WA0236802551
B1643404053491N00427595WA0236702547
B1643414053493N00427585WA0236402545
B1643424053495N00427574WA0236402543
B1643434053498N00427563WA0236302542
B1643444053501N00427554WA0236202541
B1643454053503N00427544WA0236002539
B1643464053506N00427535WA0235802537
B1643474053509N00427525WA0235502534
B1643484053512N00427514WA0235202531
B1643494053515N00427503WA0235002529
B1643504053518N00427493WA0235002528
B1643514053521N00427482WA0235002527
B1643524053524N00427472WA0234902527
B1643534053527N00427463WA0234802526
B1643544053530N00427454WA0234602525
B1643554053533N00427444WA0234302523
B1643564053536N00427435WA0234102519
B1643574053540N00427424WA0234002516
B1643584053543N00427414WA0233602513
B1643594053546N00427404WA0233402510
B1644004053549N00427394WA0233202508
B1644014053553N00427383WA0233002506
B1644024053556N00427373WA0232902505
B1644034053560N00427363WA0232802503
B1644044053562N00427352WA0232502501
B1644054053565N00427341WA0232502499
B1644064053568N00427329WA0232402498
B1644074053571N00427318WA0232402498
B1644084053574N00427307WA0232302498
B1644094053577N00427297WA0232302498
B1644104053579N00427287WA0232302498
B1644114053582N00427278WA0232202496
B1644124053585N00427268WA0232102495
B1644134053588N00427258WA0232002495
B1644144053590N00427248WA0231802494
B1644154053592N00427238WA0231802494
B1644164053594N00427229WA0231702492
B1644174053596N00427219WA0231602490
B1644184053597N00427209WA0231302488
B1644194053600N00427198WA0231102487
B1644204053602N00427189WA0231202486
B1644214053605N00427179WA0231102485
B1644224053608N00427170WA0230902484
B1644234053611N00427161WA0230802483
B1644244053614N00427152WA0230602481
B1644254053618N00427143WA0230402479
B1644264053622N00427133WA0230202477
B1644274053625N00427124WA0230102476
B1644284053630N00427115WA0230102475
B1644294053634N00427106WA0230002474
B1644304053637N00427097WA0229902473
B1644314053640N00427089WA0229902473
B1644324053643N00427081WA0229802473
B1644334053646N00427073WA0229702473
B1644344053649N00427064WA0229602472
B1644354053652N00427056WA0229502470
B1644364053654N00427047WA0229402469
B1644374053657N00427039WA0229302469
B1644384053659N00427031WA0229202467
B1644394053661N00427022WA0229102465
B1644404053663N00427013WA0228902464
B1644414053665N00427003WA0228802462
B1644424053667N00426994WA0228702461
B1644434053669N00426984WA0228602460
B1644444053672N00426975WA0228602459
B1644454053674N00426966WA0228502458
B1644464053676N00426957WA0228302457
B1644474053678N00426948WA0228102455
B1644484053679N00426939WA0227902453
B1644494053681N00426930WA0227802452
B1644504053683N00426920WA0227802451
B1644514053685N00426912WA0227602450
B1644524053687N00426903WA0227502449
B1644534053688N00426895WA0227402448
B1644544053691N00426886WA0227202446
B1644554053693N00426877WA0227002444
B1644564053695N00426869WA0227002442
B1644574053698N00426861WA0227002441
B1644584053700N00426853WA0226702440
B1644594053702N00426846WA0226602439
B1645004053704N00426839WA0226402437
B1645014053705N00426832WA0226002435
B1645024053708N00426825WA0225802432
B1645034053712N00426818WA0225702430
B1645044053715N00426811WA0225502429
B1645054053718N00426806WA0225302428
B1645064053721N00426801WA0224902426
B1645074053724N00426796WA0224502424
B1645084053727N00426790WA0224002421
B1645094053730N00426782WA0223502415
B1645104053733N00426775WA0223102410
B1645114053737N00426768WA0222802405
B1645124053740N00426760WA0222402397
B1645134053743N00426751WA0221902392
B1645144053745N00426742WA0221602388
B1645154053748N00426733WA0221302385
B1645164053750N00426724WA0221102381
B1645174053752N00426714WA0220802378
B1645184053754N00426705WA0220402375
B1645194053755N00426696WA0220102371
B1645204053757N00426686WA0219702368
B1645214053760N00426676WA0219402364
B1645224053762N00426667WA0219302361
B1645234053764N00426658WA0218902358
B1645244053766N00426650WA0218602355
B1645254053767N00426642WA0218302351
B1645264053769N00426633WA0217902347
B1645274053771N00426624WA0217702344
B1645284053774N00426615WA0217502341
B1645294053777N00426607WA0217402340
B1645304053780N00426599WA0217202338
B1645314053783N00426592WA0216802335
B1645324053786N00426584WA0216502332
B1645334053790N00426575WA0216202329
B1645344053793N00426567WA0215902326
B1645354053797N00426558WA0215802324
B1645364053801N00426550WA0215802322
B1645374053805N00426543WA0215402319
B1645384053808N00426536WA0215102316
B1645394053812N00426528WA0214902313
B1645404053815N00426521WA0214702310
B1645414053818N00426513WA0214402307
B1645424053822N00426505WA0214102304
B1645434053825N00426496WA0213702301
B1645444053827N00426488WA0213602299
B1645454053830N00426480WA0213502297
B1645464053833N00426472WA0213202295
B1645474053836N00426464WA0212902291
B1645484053839N00426456WA0212602288
B1645494053842N00426447WA0212502285
B1645504053845N00426439WA0212302284
B1645514053848N00426431WA0212202283
B1645524053850N00426424WA0212102282
B1645534053852N00426416WA0211902279
B1645544053854N00426408WA0211702274
B1645554053857N00426400WA0211302272
B1645564053861N00426391WA0211202270
B1645574053864N00426383WA0211202270
B1645584053868N00426376WA0211102269
B1645594053871N00426369WA0211102269
B1646004053874N00426362WA0211002268
B1646014053878N00426356WA0210802266
B1646024053882N00426350WA0210702265
B1646034053885N00426342WA0210602265
B1646044053888N00426334WA0210602264
B1646054053891N00426327WA0210502264
B1646064053893N00426319WA0210602263
B1646074053896N00426312WA0210502263
B1646084053899N00426306WA0210402263
B1646094053902N00426299WA0210402262
B1646104053904N00426292WA0210202261
B1646114053906N00426285WA0210102259
B1646124053908N00426277WA0209802257
B1646134053911N00426270WA0209602255
B1646144053914N00426262WA0209402253
B1646154053917N00426255WA0209202251
B1646164053920N00426248WA0209002248
B1646174053922N00426240WA0208702245
B1646184053924N00426232WA0208502242
B1646194053926N00426222WA0208302240
B1646204053927N00426213WA0208102239
B1646214053928N00426204WA0208002237
B1646224053929N00426196WA0207802236
B1646234053930N00426187WA0207702235
B1646244053930N00426179WA0207602233
B1646254053931N00426170WA0207502231
B1646264053931N00426161WA0207202229
B1646274053930N00426152WA0207002226
B1646284053930N00426142WA0206802224
B1646294053930N00426133WA0206402222
B1646304053929N00426124WA0206302221
B1646314053929N00426115WA0206202219
B1646324053928N00426106WA0206102217
B1646334053928N00426097WA0205802214
B1646344053928N00426088WA0205602212
B1646354053929N00426079WA0205302209
B1646364053929N00426070WA0205002206
B1646374053929N00426060WA0204802204
B1646384053929N00426051WA0204802202
B1646394053929N00426041WA0204602200
B1646404053929N00426032WA0204202198
B1646414053929N00426022WA0204102197
B1646424053929N00426013WA0203902195
B1646434053930N00426004WA0203802193
B1646444053931N00425995WA0203702190
B1646454053932N00425985WA0203402188
B1646464053933N00425975WA0203202187
B1646474053934N00425966WA0203102185
B1646484053935N00425957WA0203102184
B1646494053936N00425948WA0202802182
B1646504053937N00425939WA0202602180
B1646514053938N00425931WA0202302178
B1646524053940N00425922WA0202102175
B1646534053941N00425914WA0201802173
B1646544053943N00425905WA0201502170
B1646554053945N00425897WA0201302167
B1646564053948N00425889WA0201002164
B1646574053950N00425881WA0200802161
B1646584053953N00425874WA0200502159
B1646594053955N00425867WA0200202156
B1647004053959N00425860WA0199902152
B1647014053963N00425854WA0199502149
B1647024053967N00425848WA0199302146
B1647034053971N00425842WA0199002144
B1647044053975N00425835WA0198802141
B1647054053979N00425828WA0198502138
B1647064053983N00425821WA0198102134
B1647074053986N00425813WA0197702130
B1647084053989N00425805WA0197502126
B1647094053993N00425797WA0197202123
B1647104053996N00425789WA0196902120
B1647114053999N00425780WA0196602118
B1647124054002N00425772WA0196602116
B1647134054005N00425764WA0196502115
B1647144054007N00425757WA0196402114
B1647154054008N00425751WA0196202113
B1647164054010N00425745WA0195802112
B1647174054012N00425739WA0195402111
B1647184054013N00425733WA0194902106
B1647194054014N00425726WA0194402102
B1647204054016N00425719WA0194102099
B1647214054019N00425712WA0193802094
B1647224054022N00425705WA0193102089
B1647234054024N00425697WA0192602082
B1647244054026N00425690WA0192102075
B1647254054028N00425682WA0191802069
B1647264054031N00425674WA0191502064
B1647274054033N00425665WA0191102060
B1647284054033N00425656WA0190802057
B1647294054033N00425646WA0190502054
B1647304054032N00425637WA0190302051
B1647314054032N00425627WA0190102048
B1647324054031N00425617WA0189802045
B1647334054029N00425607WA0189402042
B1647344054027N00425596WA0189102038
B1647354054026N00425585WA0188902035
B1647364054025N00425574WA0188702033
B1647374054024N00425563WA0188302031
B1647384054023N00425553WA0188202029
B1647394054021N00425543WA0188002026
B1647404054020N00425533WA0187702022
B1647414054018N00425522WA0187202017
B1647424054017N00425511WA0186802013
B1647434054015N00425500WA0186602009
B1647444054015N00425489WA0186402006
B1647454054014N00425478WA0186402006
B1647464054014N00425470WA0186402005
B1647474054012N00425462WA0186202003
B1647484054010N00425454WA0185802001
B1647494054009N00425446WA0185201999
B1647504054006N00425435WA0184701996
B1647514054004N00425425WA0184501992
B1647524054002N00425414WA0184301989
B1647534054000N00425404WA0184101987
B1647544053998N00425394WA0183901985
B1647554053997N00425385WA0183701982
B1647564053995N00425375WA0183401979
B1647574053993N00425365WA0183101976
B1647584053991N00425355WA0183001975
B1647594053990N00425345WA0182901973
B1648004053989N00425336WA0182801972
B1648014053987N00425327WA0182601969
B1648024053986N00425318WA0182301966
B1648034053985N00425309WA0181901962
B1648044053984N00425299WA0181601959
B1648054053983N00425289WA0181501957
B1648064053982N00425279WA0181301955
B1648074053980N00425270WA0181201953
B1648084053979N00425261WA0181001951
B1648094053978N00425252WA0180801949
B1648104053976N00425243WA0180601946
B1648114053975N00425234WA0180301943
B1648124053972N00425225WA0180101940
B1648134053970N00425216WA0180001938
B1648144053968N00425207WA0179801936
B1648154053967N00425198WA0179801935
B1648164053965N00425189WA0179601934
B1648174053962N00425180WA0179601932
B1648184053960N00425171WA0179501931
B1648194053959N00425162WA0179501931
B1648204053957N00425152WA0179601932
B1648214053956N00425144WA0179601933
B1648224053954N00425138WA0179501933
B1648234053950N00425132WA0179301933
B1648244053947N00425127WA0178901932
B1648254053943N00425120WA0178601930
B1648264053940N00425113WA0178401927
B1648274053938N00425105WA0178101925
B1648284053935N00425097WA0177901922
B1648294053933N00425090WA0177701920
B1648304053930N00425082WA0177501917
B1648314053928N00425073WA0177301915
B1648324053925N00425065WA0177001913
B1648334053922N00425057WA0176801910
B1648344053919N00425048WA0176701908
B1648354053916N00425041WA0176601907
B1648364053913N00425035WA0176401905
B1648374053911N00425029WA0176101901
B1648384053908N00425022WA0175601898
B1648394053905N00425014WA0175001891
B1648404053903N00425005WA0174701886
B1648414053901N00424997WA0174501882
B1648424053900N00424989WA0174201880
B1648434053898N00424983WA0173801875
B1648444053896N00424976WA0173201869
B1648454053894N00424968WA0172701863
B1648464053893N00424960WA0172201857
B1648474053893N00424950WA0171901853
B1648484053892N00424940WA0171601850
B1648494053890N00424931WA0171301847
B1648504053889N00424922WA0171201846
B1648514053888N00424914WA0171001844
B1648524053887N00424907WA0170801841
B1648534053886N00424900WA0170401836
B1648544053886N00424892WA0170001832
B1648554053886N00424884WA0169701829
B1648564053886N00424876WA0169501826
B1648574053887N00424868WA0169301823
B1648584053887N00424860WA0168801820
B1648594053887N00424852WA0168601817
B1649004053886N00424844WA0168501814
B1649014053886N00424836WA0168101811
B1649024053886N00424828WA0167901808
B1649034053885N00424819WA0167801805
B1649044053884N00424811WA0167501802
B1649054053882N00424802WA0167201800
B1649064053880N00424793WA0167201798
B1649074053879N00424785WA0166901796
B1649084053877N00424776WA0166701793
B1649094053875N00424767WA0166501791
B1649104053873N00424758WA0166201788
B1649114053871N00424749WA0166001786
B1649124053870N00424740WA0165901783
B1649134053869N00424731WA0165601781
B1649144053867N00424722WA0165401779
B1649154053866N00424713WA0165301776
B1649164053865N00424704WA0165001774
B1649174053864N00424695WA0164801771
B1649184053864N00424685WA0164501769
B1649194053863N00424675WA0164301767
B1649204053862N00424665WA0164201765
B1649214053861N00424656WA0164201764
B1649224053860N00424647WA0164001762
B1649234053859N00424638WA0163801761
B1649244053857N00424629WA0163601758
B1649254053856N00424620WA0163501756
B1649264053854N00424612WA0163301754
B1649274053852N00424603WA0163101752
B1649284053849N00424595WA0162901749
B1649294053847N00424587WA0162601747
B1649304053844N00424579WA0162301743
B1649314053840N00424570WA0161801739
B1649324053837N00424560WA0161601736
B1649334053833N00424551WA0161301733
B1649344053829N00424541WA0161001730
B1649354053826N00424531WA0160801727
B1649364053823N00424521WA0160501724
B1649374053820N00424510WA0160301721
B1649384053817N00424500WA0160001718
B1649394053815N00424489WA0159701716
B1649404053813N00424479WA0159601713
B1649414053811N00424468WA0159301710
B1649424053809N00424456WA0159101708
B1649434053807N00424445WA0159001706
B1649444053806N00424435WA0159101705
B1649454053804N00424424WA0159001704
B1649464053802N00424414WA0158601704
B1649474053800N00424404WA0158801704
B1649484053798N00424394WA0158701703
B1649494053796N00424383WA0158701703
B1649504053794N00424372WA0158601702
B1649514053791N00424361WA0158701703
B1649524053787N00424350WA0158701704
B1649534053783N00424341WA0158801705
B1649544053779N00424332WA0158801705
B1649554053775N00424323WA0158801704
B1649564053770N00424314WA0158801704
B1649574053766N00424305WA0158901704
B1649584053763N00424295WA0158901705
B1649594053759N00424287WA0159001705
B1650004053756N00424279WA0159001706
B1650014053753N00424271WA0159101706
B1650024053749N00424262WA0159101707
B1650034053745N00424255WA0159001706
B1650044053739N00424248WA0158801705
B1650054053732N00424243WA0158701704
B1650064053725N00424236WA0158801703
B1650074053720N00424229WA0158701702
B1650084053716N00424221WA0158501701
B1650094053715N00424212WA0158501700
B1650104053716N00424204WA0158301699
B1650114053717N00424196WA0158401699
B1650124053718N00424189WA0158401699
B1650134053719N00424181WA0158301699
B1650144053719N00424173WA0158401699
B1650154053719N00424165WA0158401699
B1650164053719N00424157WA0158401699
B1650174053720N00424150WA0158401698
B1650184053720N00424143WA0158401698
B1650194053721N00424136WA0158301698
B1650204053721N00424129WA0158301698
B1650214053724N00424123WA0158201698
B1650224053726N00424117WA0158301698
B1650234053729N00424111WA0158401699
B1650244053731N00424106WA0158401700
B1650254053733N00424100WA0158501700
B1650264053735N00424094WA0158501700
B1650274053737N00424089WA0158401700
B1650284053739N00424083WA0158401699
B1650294053742N00424079WA0158401698
B1650304053746N00424075WA0158401698
B1650314053749N00424071WA0158401698
B1650324053753N00424066WA0158501698
B1650334053755N00424061WA0158501699
B1650344053758N00424057WA0158501699
B1650354053761N00424052WA0158601698
B1650364053764N00424048WA0158501699
B1650374053767N00424044WA0158601700
B1650384053770N00424040WA0158801701
B1650394053774N00424035WA0158901702
B1650404053777N00424030WA0159001703
B1650414053780N00424026WA0159201704
B1650424053784N00424024WA0159201706
B1650434053787N00424022WA0159401708
B1650444053790N00424020WA0159501709
B1650454053793N00424016WA0159601710
B1650464053795N00424010WA0159501711
B1650474053795N00423999WA0159501711
B1650484053793N00423989WA0159701711
B1650494053788N00423980WA0159701712
B1650504053781N00423975WA0159801712
B1650514053773N00423972WA0159701712
B1650524053766N00423972WA0159801713
B1650534053758N00423974WA0159801713
B1650544053752N00423977WA0159801713
B1650554053747N00423982WA0159901713
B1650564053746N00423989WA0159901713
B1650574053747N00423994WA0160001714
B1650584053750N00423998WA0160201717
B1650594053754N00423999WA0160401719
B1651004053757N00423999WA0160601721
B1651014053761N00424000WA0160701722
B1651024053765N00424000WA0160901724
B1651034053768N00423998WA0161101726
B1651044053772N00423995WA0161201727
B1651054053775N00423990WA0161401729
B1651064053776N00423983WA0161401731
B1651074053774N00423973WA0161401731
B1651084053771N00423963WA0161501731
B1651094053767N00423955WA0161601732
B1651104053761N00423948WA0161801734
B1651114053754N00423945WA0161801735
B1651124053747N00423944WA0161801735
B1651134053740N00423946WA0161701735
B1651144053734N00423951WA0161701735
B1651154053730N00423957WA0161801736
B1651164053729N00423964WA0161901737
B1651174053728N00423970WA0162101739
B1651184053729N00423975WA0162201741
B1651194053730N00423978WA0162401742
B1651204053733N00423980WA0162401743
B1651214053736N00423981WA0162501744
B1651224053741N00423981WA0162701746
B1651234053745N00423979WA0162801748
B1651244053749N00423978WA0163101751
B1651254053752N00423976WA0163201752
B1651264053756N00423973WA0163301752
B1651274053758N00423969WA0163201753
B1651284053760N00423961WA0163101753
B1651294053760N00423952WA0163201753
B1651304053758N00423943WA0163201754
B1651314053756N00423934WA0163201755
B1651324053752N00423928WA0163401756
B1651334053746N00423922WA0163301756
B1651344053740N00423918WA0163301756
B1651354053733N00423915WA0163201755
B1651364053725N00423916WA0163301755
B1651374053718N00423919WA0163501757
B1651384053712N00423922WA0163701759
B1651394053707N00423926WA0163901761
B1651404053703N00423929WA0164101762
B1651414053699N00423933WA0164201763
B1651424053696N00423937WA0164201763
B1651434053697N00423942WA0164301764
B1651444053700N00423945WA0164401765
B1651454053703N00423947WA0164601767
B1651464053706N00423946WA0164701768
B1651474053710N00423943WA0164801769
B1651484053712N00423936WA0164801769
B1651494053712N00423927WA0164901769
B1651504053709N00423917WA0165001770
B1651514053703N00423908WA0165201772
B1651524053696N00423904WA0165301773
B1651534053688N00423903WA0165401774
B1651544053681N00423906WA0165501776
B1651554053676N00423910WA0165601777
B1651564053673N00423916WA0165701778
B1651574053673N00423922WA0165801779
B1651584053673N00423927WA0165901780
B1651594053675N00423930WA0165901780
B1652004053679N00423931WA0166001781
B1652014053683N00423929WA0166101782
B1652024053688N00423924WA0166201783
B1652034053691N00423919WA0166401786
B1652044053694N00423914WA0166701789
B1652054053697N00423910WA0166801791
B1652064053698N00423904WA0166901792
B1652074053698N00423898WA0166601793
B1652084053696N00423890WA0166601794
B1652094053690N00423882WA0166701795
B1652104053683N00423876WA0166701795
B1652114053675N00423875WA0166701796
B1652124053667N00423878WA0166901796
B1652134053660N00423882WA0167101797
B1652144053655N00423887WA0167401800
B1652154053650N00423891WA0167601803
B1652164053645N00423894WA0167601804
B1652174053640N00423898WA0167701805
B1652184053638N00423903WA0167701805
B1652194053639N00423909WA0167501805
B1652204053643N00423912WA0167601805
B1652214053649N00423911WA0167801806
B1652224053652N00423906WA0168001808
B1652234053654N00423898WA0168101809
B1652244053653N00423889WA0168301811
B1652254053651N00423880WA0168301813
B1652264053648N00423872WA0168501814
B1652274053643N00423865WA0168501815
B1652284053636N00423859WA0168601815
B1652294053629N00423856WA0168701815
B1652304053621N00423856WA0169001816
B1652314053614N00423857WA0169001817
B1652324053608N00423861WA0169001816
B1652334053603N00423866WA0169101817
B1652344053600N00423872WA0169201819
B1652354053598N00423878WA0169501823
B1652364053596N00423884WA0169601825
B1652374053595N00423889WA0169701826
B1652384053595N00423894WA0169801827
B1652394053595N00423898WA0169901828
B1652404053598N00423901WA0169901829
B1652414053602N00423902WA0170001830
B1652424053606N00423901WA0170101831
B1652434053610N00423899WA0170201832
B1652444053614N00423896WA0170401833
B1652454053618N00423892WA0170601835
B1652464053620N00423887WA0170601836
B1652474053622N00423881WA0170701837
B1652484053622N00423874WA0170701837
B1652494053621N00423864WA0170801837
B1652504053616N00423855WA0170801838
B1652514053610N00423849WA0171001839
B1652524053602N00423847WA0171201840
B1652534053594N00423849WA0171301842
B1652544053588N00423853WA0171401844
B1652554053585N00423859WA0171601845
B1652564053583N00423864WA0171701846
B1652574053582N00423870WA0171701848
B1652584053583N00423875WA0171801848
B1652594053585N00423878WA0171901849
B1653004053589N00423879WA0172001849
B1653014053594N00423878WA0172101850
B1653024053597N00423874WA0172201851
B1653034053600N00423869WA0172401853
B1653044053602N00423864WA0172501855
B1653054053604N00423858WA0172601856
B1653064053605N00423851WA0172701856
B1653074053604N00423845WA0172601856
B1653084053602N00423838WA0172401855
B1653094053598N00423830WA0172401854
B1653104053593N00423823WA0172401854
B1653114053586N00423817WA0172401854
B1653124053579N00423812WA0172601854
B1653134053572N00423809WA0172701855
B1653144053564N00423805WA0172801856
B1653154053557N00423800WA0173001858
B1653164053551N00423794WA0173201860
B1653174053546N00423789WA0173301862
B1653184053541N00423783WA0173501862
B1653194053535N00423779WA0173301862
B1653204053528N00423778WA0173101862
B1653214053520N00423780WA0173101861
B1653224053513N00423785WA0173201862
B1653234053508N00423790WA0173501862
B1653244053505N00423796WA0173601864
B1653254053503N00423802WA0173701864
B1653264053506N00423807WA0173801865
B1653274053510N00423810WA0173901866
B1653284053514N00423810WA0174001868
B1653294053519N00423808WA0174201868
B1653304053523N00423805WA0174201869
B1653314053527N00423801WA0174401872
B1653324053530N00423796WA0174501874
B1653334053532N00423791WA0174501874
B1653344053534N00423784WA0174601874
B1653354053536N00423777WA0174701875
B1653364053536N00423769WA0174701875
B1653374053533N00423761WA0174601876
B1653384053529N00423753WA0174701876
B1653394053522N00423747WA0174801876
B1653404053515N00423744WA0174801877
B1653414053507N00423743WA0175101879
B1653424053501N00423746WA0175301880
B1653434053495N00423750WA0175401881
B1653444053491N00423755WA0175401881
B1653454053489N00423761WA0175501882
B1653464053488N00423767WA0175701883
B1653474053489N00423773WA0175901885
B1653484053491N00423777WA0176001888
B1653494053494N00423780WA0176001889
B1653504053497N00423780WA0176001889
B1653514053501N00423777WA0175901889
B1653524053504N00423773WA0176001889
B1653534053507N00423767WA0176001890
B1653544053509N00423760WA0176101891
B1653554053511N00423754WA0176201892
B1653564053512N00423748WA0176301893
B1653574053513N00423741WA0176401894
B1653584053513N00423734WA0176501895
B1653594053512N00423726WA0176701896
B1654004053510N00423719WA0176701898
B1654014053507N00423711WA0176801898
B1654024053502N00423704WA0176801899
B1654034053497N00423698WA0176901900
B1654044053491N00423692WA0177101902
B1654054053485N00423687WA0177201903
B1654064053478N00423683WA0177501905
B1654074053471N00423682WA0177601907
B1654084053465N00423681WA0177801909
B1654094053458N00423682WA0177901911
B1654104053452N00423686WA0178001912
B1654114053448N00423692WA0178001913
B1654124053448N00423700WA0178001913
B1654134053449N00423706WA0178101914
B1654144053452N00423710WA0178101915
B1654154053455N00423711WA0178201915
B1654164053459N00423709WA0178301915
B1654174053463N00423705WA0178401916
B1654184053465N00423698WA0178401917
B1654194053465N00423690WA0178601918
B1654204053465N00423682WA0178801920
B1654214053463N00423675WA0179001921
B1654224053461N00423667WA0179101924
B1654234053458N00423660WA0179301926
B1654244053453N00423655WA0179301927
B1654254053446N00423651WA0179301928
B1654264053439N00423650WA0179501929
B1654274053431N00423652WA0179501930
B1654284053424N00423655WA0179701932
B1654294053419N00423660WA0179901934
B1654304053415N00423666WA0180001935
B1654314053412N00423672WA0180101937
B1654324053412N00423677WA0180101937
B1654334053413N00423682WA0180101938
B1654344053416N00423685WA0179901938
B1654354053421N00423686WA0180201938
B1654364053426N00423686WA0180201939
B1654374053430N00423685WA0180401941
B1654384053434N00423684WA0180501942
B1654394053437N00423683WA0180701944
B1654404053441N00423681WA0180901945
B1654414053443N00423676WA0180901945
B1654424053444N00423670WA0181101946
B1654434053443N00423662WA0181201947
B1654444053439N00423655WA0181301948
B1654454053433N00423650WA0181301949
B1654464053425N00423648WA0181301949
B1654474053417N00423647WA0181401949
B1654484053408N00423648WA0181601950
B1654494053400N00423650WA0181701952
B1654504053393N00423653WA0182001955
B1654514053387N00423656WA0182201957
B1654524053382N00423661WA0182401958
B1654534053376N00423665WA0182401959
B1654544053370N00423670WA0182501959
B1654554053365N00423676WA0182501959
B1654564053360N00423683WA0182601960
B1654574053357N00423691WA0182601961
B1654584053355N00423698WA0182901963
B1654594053353N00423705WA0183001965
B1655004053351N00423711WA0183001967
B1655014053350N00423718WA0183001968
B1655024053349N00423725WA0182601968
B1655034053350N00423733WA0182501968
B1655044053352N00423739WA0182601968
B1655054053355N00423744WA0182801971
B1655064053357N00423747WA0183001972
B1655074053358N00423750WA0183101974
B1655084053360N00423751WA0183101974
B1655094053362N00423751WA0183001974
B1655104053365N00423750WA0182901974
B1655114053369N00423746WA0183101974
B1655124053373N00423742WA0183101974
B1655134053376N00423738WA0183201977
B1655144053378N00423733WA0183201977
B1655154053379N00423728WA0183301977
B1655164053379N00423721WA0183301977
B1655174053378N00423713WA0183401978
B1655184053377N00423706WA0183501979
B1655194053375N00423698WA0183501979
B1655204053372N00423691WA0183601979
B1655214053370N00423684WA0183601979
B1655224053367N00423677WA0183601979
B1655234053363N00423670WA0183601979
B1655244053358N00423663WA0183601978
B1655254053352N00423657WA0183601978
B1655264053346N00423651WA0183601978
B1655274053340N00423646WA0183801979
B1655284053333N00423641WA0184001980
B1655294053327N00423636WA0184101981
B1655304053321N00423631WA0184101982
B1655314053315N00423626WA0184201983
B1655324053310N00423621WA0184301984
B1655334053303N00423618WA0184301984
B1655344053296N00423616WA0184201984
B1655354053288N00423616WA0184301984
B1655364053281N00423616WA0184401984
B1655374053273N00423618WA0184401985
B1655384053266N00423620WA0184601986
B1655394053260N00423622WA0184701988
B1655404053253N00423624WA0184801989
B1655414053248N00423627WA0184901990
B1655424053243N00423631WA0185001990
B1655434053238N00423636WA0185201992
B1655444053234N00423640WA0185401993
B1655454053230N00423644WA0185401995
B1655464053225N00423646WA0185601996
B1655474053221N00423649WA0185501996
B1655484053217N00423653WA0185601996
B1655494053216N00423658WA0185401995
B1655504053218N00423662WA0185301994
B1655514053222N00423664WA0185301994
B1655524053225N00423662WA0185301993
B1655534053228N00423656WA0185301993
B1655544053229N00423648WA0185301992
B1655554053227N00423638WA0185201993
B1655564053223N00423629WA0185201993
B1655574053218N00423621WA0185501993
B1655584053212N00423614WA0185601994
B1655594053206N00423607WA0185701996
B1656004053199N00423600WA0185701997
B1656014053193N00423594WA0185801998
B1656024053186N00423589WA0185901999
B1656034053178N00423586WA0185901999
B1656044053171N00423585WA0186102000
B1656054053163N00423585WA0186202001
B1656064053156N00423585WA0186302002
B1656074053148N00423584WA0186302003
B1656084053141N00423583WA0186402004
B1656094053135N00423585WA0186402003
B1656104053129N00423588WA0186102002
B1656114053125N00423595WA0186002001
B1656124053124N00423602WA0186002000
B1656134053124N00423608WA0186002000
B1656144053127N00423612WA0185902000
B1656154053130N00423613WA0185802000
B1656164053134N00423613WA0185801999
B1656174053138N00423612WA0185701998
B1656184053143N00423613WA0185701998
B1656194053147N00423615WA0185801998
B1656204053150N00423617WA0185902000
B1656214053153N00423618WA0186002004
B1656224053155N00423618WA0186102004
B1656234053158N00423618WA0186102005
B1656244053160N00423617WA0186102004
B1656254053162N00423615WA0186102004
B1656264053165N00423613WA0186202005
B1656274053167N00423611WA0186202005
B1656284053170N00423611WA0186202005
B1656294053173N00423613WA0186302005
B1656304053175N00423617WA0186302006
B1656314053178N00423620WA0186402007
B1656324053181N00423621WA0186602008
B1656334053184N00423621WA0186802009
B1656344053187N00423623WA0186902011
B1656354053188N00423626WA0187002012
B1656364053186N00423632WA0186902013
B1656374053183N00423640WA0186902013
B1656384053176N00423646WA0186902012
B1656394053169N00423650WA0186902012
B1656404053159N00423650WA0187102014
B1656414053151N00423647WA0187202016
B1656424053144N00423641WA0187302017
B1656434053138N00423634WA0187302017
B1656444053134N00423626WA0187402018
B1656454053132N00423617WA0187502018
B1656464053131N00423609WA0187602019
B1656474053131N00423602WA0187702020
B1656484053131N00423595WA0187802021
B1656494053133N00423590WA0187802021
B1656504053135N00423587WA0187802022
B1656514053138N00423586WA0188002022
B1656524053141N00423587WA0188002023
B1656534053143N00423590WA0188102024
B1656544053144N00423595WA0188102024
B1656554053144N00423600WA0188102025
B1656564053143N00423605WA0188102024
B1656574053140N00423611WA0188102023
B1656584053137N00423618WA0187902022
B1656594053132N00423625WA0187902022
B1657004053126N00423631WA0187902021
B1657014053119N00423637WA0188002022
B1657024053112N00423642WA0188002022
B1657034053105N00423645WA0188002023
B1657044053097N00423647WA0188002023
B1657054053089N00423647WA0188002023
B1657064053081N00423645WA0188002023
B1657074053073N00423642WA0188002023
B1657084053066N00423638WA0188102024
B1657094053058N00423634WA0188202025
B1657104053050N00423629WA0188402026
B1657114053043N00423625WA0188502027
B1657124053035N00423623WA0188502028
B1657134053028N00423621WA0188402028
B1657144053022N00423618WA0188202026
B1657154053016N00423615WA0187902025
B1657164053013N00423606WA0187702024
B1657174053012N00423598WA0187502023
B1657184053014N00423590WA0187502021
B1657194053017N00423584WA0187402020
B1657204053019N00423581WA0187302019
B1657214053022N00423578WA0187402021
B1657224053026N00423576WA0187602021
B1657234053029N00423575WA0187602022
B1657244053031N00423574WA0187702023
B1657254053033N00423573WA0187702023
B1657264053035N00423572WA0187702022
B1657274053038N00423573WA0187502021
B1657284053040N00423574WA0187602021
B1657294053043N00423575WA0187502021
B1657304053046N00423575WA0187502021
B1657314053048N00423575WA0187502021
B1657324053051N00423575WA0187602020
B1657334053054N00423577WA0187402019
B1657344053056N00423580WA0187302019
B1657354053058N00423584WA0187402018
B1657364053060N00423588WA0187402019
B1657374053061N00423591WA0187502019
B1657384053063N00423594WA0187302018
B1657394053064N00423598WA0187202017
B1657404053065N00423603WA0187202017
B1657414053066N00423608WA0187302017
B1657424053067N00423613WA0187202017
B1657434053067N00423618WA0187302017
B1657444053066N00423623WA0187202017
B1657454053064N00423628WA0187002015
B1657464053060N00423635WA0186802013
B1657474053056N00423642WA0186702011
B1657484053050N00423648WA0186702012
B1657494053044N00423655WA0186902012
B1657504053037N00423660WA0186802013
B1657514053029N00423665WA0186902013
B1657524053021N00423668WA0186902013
B1657534053014N00423671WA0186702013
B1657544053007N00423672WA0186502011
B1657554052999N00423671WA0186202007
B1657564052991N00423667WA0186002004
B1657574052984N00423661WA0185802002
B1657584052977N00423655WA0185802000
B1657594052972N00423648WA0185601999
B1658004052968N00423640WA0185501998
B1658014052964N00423632WA0185301996
B1658024052962N00423624WA0185101993
B1658034052960N00423616WA0185101992
B1658044052959N00423607WA0184901990
B1658054052957N00423599WA0184901990
B1658064052956N00423591WA0184801989
B1658074052954N00423582WA0184801988
B1658084052952N00423573WA0184801988
B1658094052950N00423564WA0184801988
B1658104052948N00423556WA0184801988
B1658114052947N00423547WA0184801987
B1658124052945N00423539WA0184701987
B1658134052942N00423529WA0184601986
B1658144052940N00423520WA0184701986
B1658154052940N00423512WA0184701986
B1658164052940N00423504WA0184801987
B1658174052940N00423497WA0184701987
B1658184052941N00423491WA0184701987
B1658194052941N00423484WA0184601987
B1658204052941N00423477WA0184401986
B1658214052940N00423469WA0184301985
B1658224052940N00423460WA0184301984
B1658234052939N00423451WA0184301984
B1658244052938N00423443WA0184301984
B1658254052937N00423435WA0184301983
B1658264052935N00423427WA0184201982
B1658274052933N00423419WA0184101981
B1658284052930N00423410WA0184101981
B1658294052928N00423401WA0184001981
B1658304052926N00423393WA0184001981
B1658314052925N00423386WA0183901980
B1658324052924N00423378WA0184001979
B1658334052923N00423371WA0183701978
B1658344052923N00423363WA0183501976
B1658354052924N00423355WA0183401975
B1658364052926N00423348WA0183301973
B1658374052928N00423341WA0183201972
B1658384052930N00423334WA0183201971
B1658394052931N00423326WA0183101970
B1658404052933N00423319WA0183101970
B1658414052935N00423312WA0183101969
B1658424052937N00423306WA0183101969
B1658434052939N00423300WA0182901968
B1658444052940N00423294WA0182801967
B1658454052941N00423288WA0182701966
B1658464052943N00423281WA0182701965
B1658474052946N00423275WA0182701965
B1658484052948N00423269WA0182701965
B1658494052951N00423263WA0182901966
B1658504052954N00423257WA0183101968
B1658514052956N00423251WA0183301969
B1658524052959N00423246WA0183301971
B1658534052962N00423240WA0183501972
B1658544052965N00423235WA0183801974
B1658554052967N00423230WA0184001977
B1658564052969N00423225WA0184101979
B1658574052971N00423222WA0184201980
B1658584052974N00423221WA0184201981
B1658594052977N00423221WA0184201981
B1659004052980N00423224WA0184201981
B1659014052981N00423228WA0184301981
B1659024052979N00423234WA0184401982
B1659034052975N00423240WA0184401983
B1659044052968N00423243WA0184501983
B1659054052960N00423243WA0184601984
B1659064052952N00423240WA0184701984
B1659074052945N00423234WA0184701985
B1659084052940N00423226WA0184901986
B1659094052936N00423218WA0185001987
B1659104052934N00423209WA0185101988
B1659114052932N00423201WA0185201989
B1659124052931N00423192WA0185301990
B1659134052931N00423183WA0185501991
B1659144052932N00423176WA0185601993
B1659154052933N00423170WA0185801994
B1659164052936N00423165WA0185901996
B1659174052939N00423162WA0186001997
B1659184052942N00423161WA0186101997
B1659194052945N00423163WA0186101998
B1659204052947N00423167WA0186301998
B1659214052948N00423171WA0186401999
B1659224052948N00423175WA0186602001
B1659234052947N00423180WA0186802002
B1659244052944N00423186WA0186902004
B1659254052939N00423191WA0186902003
B1659264052934N00423195WA0187002004
B1659274052926N00423197WA0186902005
B1659284052916N00423192WA0186902005
B1659294052908N00423186WA0187002007
B1659304052903N00423178WA0187202008
B1659314052899N00423169WA0187302009
B1659324052896N00423160WA0187402011
B1659334052895N00423151WA0187602012
B1659344052895N00423143WA0187702013
B1659354052895N00423136WA0187802014
B1659364052897N00423130WA0187802014
B1659374052900N00423125WA0187902015
B1659384052903N00423121WA0187902015
B1659394052906N00423119WA0188002016
B1659404052910N00423119WA0188102016
B1659414052912N00423122WA0188102017
B1659424052913N00423127WA0188302019
B1659434052912N00423132WA0188402021
B1659444052908N00423137WA0188702023
B1659454052903N00423141WA0188802025
B1659464052897N00423144WA0188902027
B1659474052890N00423147WA0189102029
B1659484052883N00423149WA0189202030
B1659494052875N00423148WA0189302031
B1659504052867N00423145WA0189302032
B1659514052860N00423141WA0189402033
B1659524052853N00423136WA0189502034
B1659534052846N00423131WA0189602035
B1659544052840N00423125WA0189702036
B1659554052834N00423117WA0189802037
B1659564052830N00423109WA0189902038
B1659574052826N00423100WA0190002039
B1659584052822N00423092WA0190102040
B1659594052817N00423084WA0190202041
B1700004052812N00423076WA0190302042
B1700014052807N00423069WA0190402044
B1700024052803N00423060WA0190502045
B1700034052800N00423052WA0190602046
B1700044052798N00423043WA0190702048
B1700054052797N00423036WA0190702049
B1700064052798N00423028WA0190802049
B1700074052800N00423022WA0190902049
B1700084052803N00423018WA0190702049
B1700094052807N00423017WA0190802049
B1700104052811N00423018WA0190902049
B1700114052813N00423022WA0190902049
B1700124052814N00423027WA0190902050
B1700134052812N00423033WA0190902050
B1700144052809N00423039WA0190902050
B1700154052804N00423043WA0191002051
B1700164052797N00423046WA0191102051
B1700174052789N00423048WA0191102051
B1700184052781N00423049WA0191202053
B1700194052774N00423049WA0191302054
B1700204052766N00423048WA0191402055
B1700214052759N00423046WA0191402056
B1700224052751N00423042WA0191402056
B1700234052743N00423038WA0191302056
B1700244052737N00423031WA0191602056
B1700254052731N00423022WA0191502056
B1700264052726N00423013WA0191702058
B1700274052721N00423004WA0191702060
B1700284052716N00422996WA0192002062
B1700294052711N00422988WA0192102063
B1700304052708N00422980WA0192302064
B1700314052706N00422971WA0192202064
B1700324052707N00422963WA0192002063
B1700334052710N00422957WA0192002062
B1700344052715N00422954WA0192002061
B1700354052719N00422955WA0192102061
B1700364052721N00422959WA0192102062
B1700374052722N00422964WA0192102062
B1700384052721N00422970WA0192202063
B1700394052718N00422977WA0192302065
B1700404052715N00422982WA0192502068
B1700414052711N00422988WA0192602070
B1700424052708N00422993WA0192702072
B1700434052706N00422998WA0192902073
B1700444052702N00423003WA0193002075
B1700454052697N00423006WA0193002075
B1700464052691N00423008WA0193002075
B1700474052683N00423009WA0193002076
B1700484052675N00423008WA0192902076
B1700494052666N00423005WA0193102077
B1700504052658N00423001WA0193102078
B1700514052649N00422998WA0193302080
B1700524052641N00422997WA0193402081
B1700534052632N00422996WA0193502082
B1700544052624N00422996WA0193602083
B1700554052615N00422994WA0193702084
B1700564052607N00422993WA0194002086
B1700574052599N00422992WA0194102088
B1700584052592N00422991WA0194102089
B1700594052585N00422988WA0194202089
B1701004052579N00422984WA0194102089
B1701014052574N00422976WA0194002088
B1701024052572N00422966WA0193802087
B1701034052572N00422958WA0193702086
B1701044052575N00422951WA0193802085
B1701054052579N00422947WA0193802085
B1701064052583N00422946WA0193902086
B1701074052586N00422947WA0193902086
B1701084052590N00422949WA0194102087
B1701094052592N00422951WA0194202089
B1701104052594N00422954WA0194402094
B1701114052595N00422957WA0194602096
B1701124052596N00422961WA0194702097
B1701134052595N00422966WA0194802099
B1701144052593N00422971WA0195102100
B1701154052590N00422976WA0195102101
B1701164052585N00422981WA0195202102
B1701174052580N00422985WA0195402103
B1701184052573N00422989WA0195502105
B1701194052566N00422989WA0195502105
B1701204052558N00422987WA0195502105
B1701214052551N00422983WA0195502104
B1701224052544N00422978WA0195502104
B1701234052539N00422970WA0195602105
B1701244052536N00422962WA0195602105
B1701254052535N00422954WA0195602105
B1701264052534N00422946WA0195602104
B1701274052534N00422939WA0195502104
B1701284052536N00422933WA0195602104
B1701294052538N00422927WA0195702105
B1701304052540N00422923WA0195702106
B1701314052543N00422919WA0195902108
B1701324052546N00422916WA0196102109
B1701334052548N00422913WA0196202110
B1701344052551N00422912WA0196302111
B1701354052553N00422913WA0196402113
B1701364052555N00422915WA0196602114
B1701374052557N00422918WA0196802116
B1701384052557N00422921WA0196902119
B1701394052557N00422924WA0197002121
B1701404052554N00422929WA0197002122
B1701414052548N00422933WA0197002123
B1701424052540N00422935WA0197202124
B1701434052531N00422933WA0197302125
B1701444052523N00422926WA0197502126
B1701454052517N00422917WA0197602127
B1701464052513N00422907WA0197802129
B1701474052512N00422897WA0198002131
B1701484052511N00422889WA0198202133
B1701494052513N00422884WA0198202134
B1701504052515N00422880WA0198302134
B1701514052518N00422878WA0198302135
B1701524052522N00422878WA0198402135
B1701534052525N00422879WA0198502137
B1701544052528N00422882WA0198702138
B1701554052530N00422886WA0198802139
B1701564052530N00422890WA0198902141
B1701574052528N00422894WA0198902141
B1701584052523N00422899WA0199002142
B1701594052516N00422902WA0199102142
B1702004052507N00422902WA0199202143
B1702014052498N00422899WA0199502144
B1702024052490N00422894WA0199702148
B1702034052482N00422889WA0199902151
B1702044052476N00422883WA0200102152
B1702054052470N00422876WA0200102151
B1702064052466N00422868WA0200002149
B1702074052463N00422857WA0200002148
B1702084052463N00422846WA0200202148
B1702094052464N00422838WA0200302149
B1702104052468N00422833WA0200302150
B1702114052471N00422831WA0200402150
B1702124052474N00422831WA0200402150
B1702134052477N00422834WA0200502151
B1702144052478N00422838WA0200502152
B1702154052478N00422843WA0200602153
B1702164052478N00422848WA0200802154
B1702174052478N00422852WA0200902156
B1702184052478N00422856WA0201002157
B1702194052477N00422860WA0201002158
B1702204052475N00422866WA0201202159
B1702214052472N00422871WA0201302161
B1702224052468N00422876WA0201502163
B1702234052464N00422880WA0201702165
B1702244052458N00422883WA0201902167
B1702254052452N00422885WA0201902168
B1702264052444N00422885WA0201902168
B1702274052435N00422883WA0202002168
B1702284052425N00422877WA0202102169
B1702294052418N00422869WA0202202171
B1702304052411N00422860WA0202502173
B1702314052405N00422851WA0202602175
B1702324052400N00422843WA0202702176
B1702334052396N00422834WA0202702177
B1702344052392N00422825WA0202702177
B1702354052391N00422814WA0202802178
B1702364052391N00422804WA0203102180
B1702374052391N00422797WA0203402183
B1702384052392N00422790WA0203502184
B1702394052393N00422786WA0203502187
B1702404052396N00422783WA0203302187
B1702414052400N00422781WA0203202188
B1702424052405N00422781WA0203302189
B1702434052408N00422781WA0203302190
B1702444052411N00422782WA0203402191
B1702454052414N00422784WA0203402190
B1702464052416N00422787WA0203402190
B1702474052417N00422792WA0203402190
B1702484052417N00422798WA0203502190
B1702494052416N00422804WA0203602192
B1702504052415N00422810WA0203702193
B1702514052412N00422816WA0203902194
B1702524052409N00422822WA0204002195
B1702534052405N00422828WA0204102196
B1702544052399N00422833WA0204202198
B1702554052394N00422837WA0204302200
B1702564052388N00422841WA0204402201
B1702574052383N00422844WA0204602202
B1702584052377N00422848WA0204802204
B1702594052372N00422852WA0204802205
B1703004052367N00422857WA0205002206
B1703014052363N00422861WA0205002207
B1703024052358N00422865WA0204902207
B1703034052351N00422868WA0204902207
B1703044052343N00422870WA0204802207
B1703054052333N00422868WA0204802207
B1703064052324N00422864WA0205102208
B1703074052316N00422858WA0205202210
B1703084052309N00422852WA0205502213
B1703094052303N00422845WA0205602214
B1703104052298N00422838WA0205502213
B1703114052295N00422831WA0205502211
B1703124052294N00422823WA0205102210
B1703134052294N00422815WA0205102208
B1703144052295N00422807WA0205002207
B1703154052298N00422800WA0204802206
B1703164052302N00422795WA0205002207
B1703174052306N00422793WA0205102209
B1703184052309N00422791WA0205202211
B1703194052312N00422789WA0205202211
B1703204052315N00422789WA0205202210
B1703214052318N00422790WA0205402210
B1703224052321N00422791WA0205302210
B1703234052325N00422793WA0205402211
B1703244052328N00422793WA0205502212
B1703254052331N00422793WA0205502212
B1703264052334N00422793WA0205602213
B1703274052337N00422794WA0205802214
B1703284052340N00422794WA0205902216
B1703294052342N00422792WA0205902217
B1703304052345N00422789WA0206002218
B1703314052348N00422787WA0206102219
B1703324052351N00422788WA0206202219
B1703334052353N00422792WA0206402220
B1703344052354N00422797WA0206602221
B1703354052354N00422802WA0206802223
B1703364052351N00422807WA0207002226
B1703374052346N00422811WA0207202227
B1703384052339N00422814WA0207302229
B1703394052331N00422814WA0207502230
B1703404052322N00422810WA0207502231
B1703414052315N00422802WA0207602232
B1703424052311N00422792WA0207802233
B1703434052309N00422782WA0208002235
B1703444052308N00422773WA0208102237
B1703454052309N00422766WA0208202238
B1703464052311N00422760WA0208302238
B1703474052314N00422755WA0208302237
B1703484052317N00422753WA0208402238
B1703494052321N00422753WA0208602239
B1703504052324N00422754WA0208702240
B1703514052327N00422756WA0208902241
B1703524052329N00422759WA0209002244
B1703534052331N00422762WA0209102245
B1703544052331N00422767WA0209302247
B1703554052330N00422773WA0209502248
B1703564052328N00422780WA0209902250
B1703574052325N00422787WA0210402254
B1703584052321N00422793WA0210602259
B1703594052315N00422797WA0210902263
B1704004052308N00422800WA0211002266
B1704014052300N00422798WA0211102269
B1704024052292N00422792WA0211302270
B1704034052286N00422783WA0211602273
B1704044052283N00422772WA0211902276
B1704054052283N00422763WA0212102279
B1704064052286N00422757WA0212302281
B1704074052290N00422755WA0212602283
B1704084052294N00422756WA0212802286
B1704094052297N00422757WA0213202289
B1704104052298N00422760WA0213602293
B1704114052299N00422764WA0213902296
B1704124052298N00422769WA0214002298
B1704134052293N00422775WA0214302300
B1704144052287N00422780WA0214502302
B1704154052279N00422783WA0214702306
B1704164052270N00422783WA0215002309
B1704174052262N00422781WA0215302311
B1704184052254N00422775WA0215502314
B1704194052247N00422768WA0215802317
B1704204052242N00422760WA0216102320
B1704214052239N00422751WA0216202321
B1704224052238N00422742WA0216402323
B1704234052240N00422735WA0216602324
B1704244052243N00422731WA0216802327
B1704254052247N00422730WA0217002329
B1704264052251N00422731WA0217302331
B1704274052255N00422734WA0217602335
B1704284052258N00422737WA0218002341
B1704294052259N00422741WA0218402345
B1704304052259N00422745WA0218602349
B1704314052257N00422750WA0218702351
B1704324052252N00422756WA0218802352
B1704334052245N00422760WA0218902354
B1704344052236N00422762WA0219102356
B1704354052226N00422760WA0219302359
B1704364052218N00422757WA0219702363
B1704374052210N00422753WA0220002368
B1704384052203N00422750WA0220302371
B1704394052196N00422746WA0220602374
B1704404052190N00422740WA0220602375
B1704414052186N00422732WA0220702375
B1704424052183N00422722WA0220702376
B1704434052182N00422712WA0220902377
B1704444052184N00422703WA0221102379
B1704454052188N00422697WA0221402382
B1704464052191N00422693WA0221802386
B1704474052195N00422690WA0222102389
B1704484052197N00422688WA0222302392
B1704494052200N00422688WA0222502394
B1704504052203N00422691WA0222602396
B1704514052203N00422696WA0222902397
B1704524052201N00422703WA0223102398
B1704534052196N00422708WA0223202400
B1704544052189N00422712WA0223502402
B1704554052180N00422712WA0223702405
B1704564052172N00422710WA0224002407
B1704574052164N00422707WA0224302409
B1704584052157N00422701WA0224602413
B1704594052152N00422695WA0224802415
B1705004052149N00422688WA0224902416
B1705014052148N00422680WA0225002417
B1705024052149N00422672WA0225202419
B1705034052151N00422666WA0225302420
B1705044052154N00422662WA0225702422
B1705054052157N00422660WA0225802424
B1705064052161N00422660WA0226002427
B1705074052164N00422660WA0226202430
B1705084052167N00422661WA0226502432
B1705094052170N00422665WA0226602434
B1705104052171N00422670WA0226902436
B1705114052170N00422676WA0227202438
B1705124052166N00422682WA0227502441
B1705134052162N00422687WA0227702442
B1705144052156N00422690WA0227902443
B1705154052150N00422689WA0228202444
B1705164052140N00422682WA0228502446
B1705174052133N00422673WA0228702449
B1705184052130N00422662WA0228902452
B1705194052130N00422653WA0229102455
B1705204052132N00422646WA0229402458
B1705214052136N00422642WA0229602460
B1705224052140N00422641WA0229702463
B1705234052144N00422643WA0229902465
B1705244052147N00422648WA0230002467
B1705254052149N00422653WA0230402468
B1705264052151N00422657WA0230702467
B1705274052148N00422663WA0231202468
B1705284052143N00422670WA0231302471
B1705294052136N00422674WA0231502472
B1705304052127N00422676WA0231402475
B1705314052119N00422671WA0231902478
B1705324052113N00422664WA0232302481
B1705334052110N00422655WA0232602485
B1705344052108N00422646WA0232802488
B1705354052108N00422638WA0233002491
B1705364052110N00422630WA0233302494
B1705374052112N00422625WA0233402497
B1705384052116N00422621WA0233602499
B1705394052120N00422620WA0233702501
B1705404052124N00422622WA0234002503
B1705414052126N00422627WA0234102505
B1705424052127N00422634WA0234302507
B1705434052126N00422642WA0234602511
B1705444052125N00422649WA0234902516
B1705454052124N00422656WA0235302521
B1705464052121N00422662WA0235602524
B1705474052118N00422668WA0235802527
B1705484052112N00422673WA0235802527
B1705494052103N00422673WA0235902529
B1705504052095N00422670WA0236102532
B1705514052088N00422663WA0236402535
B1705524052083N00422654WA0236802539
B1705534052080N00422645WA0237102543
B1705544052079N00422636WA0237402547
B1705554052078N00422628WA0237602550
B1705564052079N00422621WA0237902553
B1705574052082N00422616WA0238102555
B1705584052086N00422613WA0238302557
B1705594052090N00422612WA0238602561
B1706004052095N00422613WA0238902565
B1706014052098N00422614WA0239302569
B1706024052101N00422616WA0239602573
B1706034052103N00422620WA0240002576
B1706044052103N00422624WA0240102579
B1706054052103N00422631WA0240202581
B1706064052100N00422638WA0240202582
B1706074052094N00422644WA0240202584
B1706084052087N00422648WA0240602585
B1706094052079N00422650WA0241002588
B1706104052071N00422650WA0241402593
B1706114052064N00422650WA0241802598
B1706124052057N00422649WA0242102600
B1706134052051N00422647WA0242102603
B1706144052044N00422642WA0242202604
B1706154052038N00422635WA0242402605
B1706164052033N00422626WA0242602608
B1706174052028N00422618WA0243102612
B1706184052025N00422609WA0243502617
B1706194052023N00422601WA0244002621
B1706204052022N00422593WA0244302626
B1706214052024N00422587WA0244602628
B1706224052027N00422583WA0244702630
B1706234052032N00422582WA0245102632
B1706244052036N00422584WA0245402634
B1706254052038N00422589WA0245702636
B1706264052036N00422597WA0245902638
B1706274052033N00422605WA0246002640
B1706284052029N00422611WA0246302639
B1706294052025N00422614WA0246502641
B1706304052018N00422611WA0246802642
B1706314052008N00422602WA0247202643
B1706324052002N00422593WA0247702645
B1706334051998N00422584WA0248002648
B1706344051996N00422577WA0248202653
B1706354051996N00422570WA0248402654
B1706364051998N00422565WA0248402656
B1706374052003N00422563WA0248602657
B1706384052008N00422565WA0248802659
B1706394052012N00422571WA0249102661
B1706404052014N00422580WA0249402663
B1706414052013N00422589WA0249702665
B1706424052009N00422596WA0249902666
B1706434052004N00422599WA0250102667
B1706444051994N00422595WA0250402668
B1706454051985N00422588WA0250702671
B1706464051981N00422577WA0251202672
B1706474051978N00422566WA0251502675
B1706484051979N00422558WA0251702678
B1706494051981N00422551WA0251802681
B1706504051984N00422546WA0251902682
B1706514051989N00422544WA0252102683
B1706524051994N00422544WA0252202685
B1706534051999N00422548WA0252502687
B1706544052002N00422553WA0252802690
B1706554052004N00422559WA0253202696
B1706564052006N00422565WA0253502700
B1706574052006N00422571WA0253802704
B1706584052005N00422578WA0253902708
B1706594052001N00422585WA0254102711
B1707004051994N00422591WA0254402714
B1707014051986N00422595WA0254702719
B1707024051978N00422596WA0255002723
B1707034051971N00422594WA0255302725
B1707044051964N00422591WA0255702729
B1707054051958N00422587WA0255902734
B1707064051952N00422583WA0256002737
B1707074051946N00422577WA0256302741
B1707084051941N00422571WA0256502744
B1707094051937N00422563WA0256702746
B1707104051935N00422554WA0257002750
B1707114051935N00422546WA0257402753
B1707124051935N00422538WA0257702757
B1707134051936N00422530WA0257902761
B1707144051937N00422524WA0258102763
B1707154051940N00422518WA0258202766
B1707164051943N00422514WA0258402766
B1707174051948N00422512WA0258502767
B1707184051954N00422511WA0258602768
B1707194051959N00422514WA0258802770
B1707204051964N00422518WA0259002773
B1707214051968N00422522WA0259302776
B1707224051972N00422526WA0259702780
B1707234051975N00422531WA0260002784
B1707244051977N00422537WA0260302788
B1707254051977N00422544WA0260302791
B1707264051974N00422552WA0260502794
B1707274051967N00422558WA0260602796
B1707284051959N00422561WA0260902799
B1707294051952N00422561WA0261302801
B1707304051944N00422558WA0261502804
B1707314051939N00422552WA0261702805
B1707324051936N00422546WA0261902808
B1707334051934N00422539WA0262102810
B1707344051933N00422533WA0262302812
B1707354051934N00422526WA0262302813
B1707364051937N00422521WA0262602814
B1707374051941N00422515WA0262702817
B1707384051944N00422510WA0263002820
B1707394051946N00422504WA0263202823
B1707404051948N00422498WA0263502825
B1707414051949N00422492WA0263702828
B1707424051950N00422485WA0263802830
B1707434051950N00422477WA0264002832
B1707444051951N00422469WA0264202834
B1707454051953N00422462WA0264502837
B1707464051955N00422456WA0264802840
B1707474051957N00422451WA0265102843
B1707484051960N00422446WA0265302846
B1707494051961N00422440WA0265602849
B1707504051964N00422434WA0265702851
B1707514051967N00422428WA0266002853
B1707524051970N00422421WA0266102855
B1707534051973N00422414WA0266502859
B1707544051975N00422408WA0266802863
B1707554051977N00422402WA0267002866
B1707564051978N00422397WA0267102866
B1707574051980N00422390WA0267202867
B1707584051982N00422383WA0267302869
B1707594051985N00422376WA0267802873
B1708004051987N00422370WA0268102876
B1708014051988N00422364WA0268402879
B1708024051990N00422359WA0268502881
B1708034051991N00422352WA0268602882
B1708044051993N00422345WA0268602882
B1708054051996N00422337WA0268902884
B1708064051998N00422329WA0269202887
B1708074052000N00422321WA0269502891
B1708084052002N00422314WA0269902895
B1708094052003N00422308WA0270102898
B1708104052005N00422301WA0270302901
B1708114052007N00422295WA0270502904
B1708124052009N00422290WA0270702906
B1708134052011N00422284WA0270802907
B1708144052014N00422279WA0270902909
B1708154052017N00422274WA0271002910
B1708164052020N00422268WA0271302913
B1708174052022N00422262WA0271502915
B1708184052025N00422257WA0271602917
B1708194052027N00422251WA0271702919
B1708204052030N00422245WA0271702919
B1708214052032N00422238WA0271602919
B1708224052034N00422231WA0271502918
B1708234052036N00422224WA0271502918
B1708244052039N00422217WA0271602918
B1708254052042N00422210WA0271602919
B1708264052045N00422204WA0271602919
B1708274052048N00422197WA0271502919
B1708284052051N00422191WA0271402919
B1708294052054N00422185WA0271302918
B1708304052057N00422180WA0271302917
B1708314052061N00422174WA0271302916
B1708324052065N00422169WA0271202916
B1708334052069N00422164WA0271202916
B1708344052074N00422159WA0271302916
B1708354052078N00422154WA0271302917
B1708364052082N00422149WA0271402917
B1708374052086N00422144WA0271402917
B1708384052091N00422139WA0271402917
B1708394052095N00422133WA0271502917
B1708404052100N00422128WA0271602918
B1708414052104N00422123WA0271702919
B1708424052109N00422118WA0271902921
B1708434052113N00422114WA0271902923
B1708444052118N00422110WA0271902923
B1708454052122N00422105WA0272002924
B1708464052127N00422101WA0272102924
B1708474052131N00422096WA0272102924
B1708484052136N00422091WA0272102925
B1708494052140N00422085WA0272202925
B1708504052145N00422080WA0272202926
B1708514052149N00422074WA0272402926
B1708524052153N00422068WA0272402927
B1708534052157N00422062WA0272302927
B1708544052161N00422056WA0272402927
B1708554052165N00422050WA0272402927
B1708564052169N00422044WA0272502928
B1708574052172N00422038WA0272502928
B1708584052176N00422033WA0272502927
B1708594052179N00422027WA0272502927
B1709004052183N00422020WA0272402926
B1709014052187N00422014WA0272402926
B1709024052192N00422008WA0272502926
B1709034052195N00422002WA0272502926
B1709044052198N00421995WA0272402926
B1709054052201N00421988WA0272502926
B1709064052204N00421981WA0272402926
B1709074052207N00421974WA0272502927
B1709084052211N00421968WA0272702928
B1709094052214N00421961WA0272602928
B1709104052216N00421955WA0272602928
B1709114052219N00421949WA0272702928
B1709124052223N00421942WA0272602928
B1709134052226N00421935WA0272602928
B1709144052230N00421929WA0272602929
B1709154052234N00421922WA0272602930
B1709164052238N00421916WA0272602929
B1709174052242N00421910WA0272502929
B1709184052246N00421904WA0272402928
B1709194052250N00421897WA0272502927
B1709204052254N00421889WA0272502927
B1709214052257N00421881WA0272602927
B1709224052261N00421874WA0272602928
B1709234052264N00421866WA0272802929
B1709244052267N00421858WA0272702929
B1709254052270N00421850WA0272702929
B1709264052274N00421843WA0272702929
B1709274052277N00421835WA0272802929
B1709284052281N00421828WA0272702929
B1709294052285N00421820WA0272802929
B1709304052289N00421812WA0272802930
B1709314052293N00421804WA0272902930
B1709324052297N00421796WA0272902930
B1709334052300N00421788WA0272902930
B1709344052303N00421780WA0272802931
B1709354052307N00421772WA0272802930
B1709364052310N00421765WA0272802929
B1709374052314N00421757WA0272702929
B1709384052319N00421750WA0272702928
B1709394052324N00421742WA0272702928
B1709404052329N00421734WA0272602927
B1709414052334N00421727WA0272602928
B1709424052340N00421720WA0272702928
B1709434052346N00421714WA0272802929
B1709444052352N00421708WA0272802929
B1709454052358N00421702WA0272602929
B1709464052364N00421696WA0272602928
B1709474052370N00421690WA0272602928
B1709484052376N00421684WA0272502927
B1709494052382N00421678WA0272502927
B1709504052387N00421671WA0272502927
B1709514052392N00421665WA0272502926
B1709524052397N00421658WA0272402925
B1709534052401N00421651WA0272302925
B1709544052406N00421643WA0272302924
B1709554052409N00421635WA0272302925
B1709564052413N00421627WA0272302925
B1709574052416N00421619WA0272402925
B1709584052420N00421611WA0272402926
B1709594052423N00421603WA0272502926
B1710004052426N00421595WA0272402926
B1710014052429N00421586WA0272402927
B1710024052432N00421578WA0272402927
B1710034052436N00421570WA0272402927
B1710044052439N00421562WA0272402926
B1710054052443N00421554WA0272302926
B1710064052446N00421546WA0272102925
B1710074052450N00421537WA0272002924
B1710084052454N00421529WA0272102923
B1710094052458N00421520WA0272102923
B1710104052463N00421512WA0272102924
B1710114052467N00421505WA0272202925
B1710124052472N00421497WA0272302925
B1710134052476N00421491WA0272202926
B1710144052481N00421484WA0272102925
B1710154052486N00421477WA0272002924
B1710164052491N00421470WA0271902923
B1710174052497N00421463WA0271902922
B1710184052502N00421456WA0271802922
B1710194052507N00421450WA0271702922
B1710204052512N00421443WA0271602921
B1710214052517N00421437WA0271502919
B1710224052522N00421429WA0271202916
B1710234052527N00421422WA0271202914
B1710244052533N00421413WA0270902913
B1710254052538N00421405WA0270802912
B1710264052544N00421398WA0270802911
B1710274052549N00421391WA0270702911
B1710284052555N00421385WA0270602910
B1710294052560N00421379WA0270602909
B1710304052565N00421373WA0270302908
B1710314052571N00421366WA0270302906
B1710324052576N00421360WA0270502906
B1710334052582N00421353WA0270502907
B1710344052584N00421347WA0270602908
B1710354052585N00421339WA0270502908
B1710364052584N00421331WA0270302907
B1710374052585N00421323WA0270302906
B1710384052587N00421315WA0270102906
B1710394052590N00421307WA0270102905
B1710404052593N00421299WA0270302906
B1710414052596N00421290WA0270102906
B1710424052598N00421281WA0270102905
B1710434052600N00421271WA0270102905
B1710444052603N00421262WA0270202905
B1710454052607N00421253WA0270202905
B1710464052611N00421244WA0270302907
B1710474052614N00421235WA0270602910
B1710484052618N00421227WA0270702912
B1710494052621N00421220WA0270902914
B1710504052625N00421213WA0271002915
B1710514052629N00421207WA0271102916
B1710524052633N00421201WA0271202918
B1710534052637N00421195WA0271202918
B1710544052640N00421189WA0271202919
B1710554052644N00421183WA0271102918
B1710564052648N00421178WA0271002917
B1710574052651N00421172WA0270802915
B1710584052654N00421166WA0270502913
B1710594052658N00421159WA0270202911
B1711004052662N00421153WA0270202909
B1711014052667N00421148WA0270202909
B1711024052672N00421143WA0270302909
B1711034052676N00421138WA0270302909
B1711044052680N00421133WA0270302908
B1711054052684N00421128WA0270202908
B1711064052688N00421123WA0270102907
B1711074052692N00421117WA0270102906
B1711084052696N00421111WA0270302908
B1711094052700N00421106WA0270402909
B1711104052702N00421101WA0270602910
B1711114052704N00421097WA0270602911
B1711124052707N00421092WA0270502910
B1711134052711N00421088WA0270402908
B1711144052716N00421083WA0270402908
B1711154052721N00421079WA0270502908
B1711164052725N00421074WA0270602909
B1711174052729N00421069WA0270602909
B1711184052733N00421065WA0270702910
B1711194052737N00421060WA0270702910
B1711204052740N00421055WA0270602909
B1711214052745N00421049WA0270602909
B1711224052749N00421043WA0270902909
B1711234052754N00421038WA0270702910
B1711244052759N00421032WA0270902912
B1711254052764N00421026WA0270902913
B1711264052768N00421021WA0271002915
B1711274052773N00421016WA0271102916
B1711284052776N00421011WA0271102916
B1711294052780N00421005WA0271202916
B1711304052784N00420999WA0271302917
B1711314052788N00420993WA0271302918
B1711324052792N00420988WA0271302918
B1711334052797N00420982WA0271402919
B1711344052801N00420976WA0271502920
B1711354052806N00420970WA0271702921
B1711364052810N00420964WA0271802922
B1711374052813N00420958WA0271802923
B1711384052817N00420952WA0271802923
B1711394052821N00420946WA0271902923
B1711404052824N00420940WA0271902923
B1711414052828N00420934WA0271802923
B1711424052832N00420929WA0271702923
B1711434052835N00420924WA0271502921
B1711444052838N00420918WA0271302919
B1711454052841N00420912WA0271202917
B1711464052844N00420906WA0271002915
B1711474052848N00420900WA0271002915
B1711484052850N00420895WA0271002915
B1711494052854N00420892WA0270802914
B1711504052857N00420889WA0270602912
B1711514052861N00420887WA0270302909
B1711524052864N00420883WA0270002906
B1711534052868N00420879WA0269902904
B1711544052871N00420875WA0269902903
B1711554052875N00420872WA0269802903
B1711564052877N00420869WA0269802902
B1711574052879N00420866WA0269702900
B1711584052881N00420862WA0269402898
B1711594052882N00420858WA0269302895
B1712004052884N00420853WA0269202894
B1712014052887N00420847WA0269002892
B1712024052890N00420841WA0268902891
B1712034052893N00420835WA0269002891
B1712044052896N00420829WA0269102891
B1712054052899N00420824WA0269402893
B1712064052901N00420820WA0269502899
B1712074052905N00420817WA0269702901
B1712084052908N00420813WA0269802903
B1712094052912N00420809WA0270002905
B1712104052915N00420805WA0270202907
B1712114052918N00420801WA0270402909
B1712124052920N00420797WA0270602910
B1712134052923N00420793WA0270602912
B1712144052926N00420789WA0270702913
B1712154052929N00420785WA0270702913
B1712164052933N00420780WA0270702913
B1712174052937N00420775WA0270802914
B1712184052940N00420770WA0270902914
B1712194052943N00420766WA0271002916
B1712204052945N00420761WA0271102916
B1712214052946N00420757WA0271002916
B1712224052948N00420753WA0271002916
B1712234052951N00420747WA0271002915
B1712244052954N00420742WA0271002916
B1712254052956N00420736WA0271102917
B1712264052959N00420732WA0271202918
B1712274052962N00420727WA0271302919
B1712284052965N00420722WA0271302919
B1712294052968N00420717WA0271302919
B1712304052971N00420713WA0271302919
B1712314052974N00420708WA0271302918
B1712324052978N00420702WA0271302918
B1712334052982N00420697WA0271402919
B1712344052987N00420692WA0271502920
B1712354052992N00420687WA0271602921
B1712364052997N00420683WA0271702922
B1712374053002N00420680WA0271802923
B1712384053007N00420676WA0271902923
B1712394053012N00420673WA0271902923
B1712404053016N00420670WA0271802923
B1712414053022N00420666WA0271802922
B1712424053027N00420662WA0271702922
B1712434053033N00420657WA0271702922
B1712444053038N00420653WA0271902923
B1712454053043N00420648WA0272002924
B1712464053049N00420645WA0272002926
B1712474053055N00420643WA0272102927
B1712484053061N00420641WA0272202927
B1712494053068N00420640WA0272302928
B1712504053075N00420638WA0272402929
B1712514053081N00420638WA0272402929
B1712524053088N00420637WA0272502930
B1712534053095N00420636WA0272402930
B1712544053102N00420635WA0272402930
B1712554053109N00420634WA0272402929
B1712564053115N00420631WA0272302928
B1712574053122N00420629WA0272202928
B1712584053129N00420627WA0272402929
B1712594053135N00420624WA0272402930
B1713004053140N00420621WA0272302929
B1713014053146N00420618WA0272202928
B1713024053152N00420615WA0272002927
B1713034053158N00420611WA0271802925
B1713044053164N00420606WA0271402923
B1713054053170N00420601WA0271302921
B1713064053175N00420597WA0271302920
B1713074053181N00420593WA0271302919
B1713084053187N00420589WA0271202918
B1713094053193N00420586WA0271002917
B1713104053199N00420582WA0270802916
B1713114053204N00420578WA0270602914
B1713124053210N00420574WA0270602913
B1713134053215N00420570WA0270402911
B1713144053221N00420565WA0270302910
B1713154053226N00420560WA0270202909
B1713164053231N00420555WA0270202908
B1713174053236N00420549WA0270102907
B1713184053241N00420545WA0270002907
B1713194053246N00420540WA0270002906
B1713204053250N00420535WA0269802904
B1713214053254N00420529WA0269602903
B1713224053258N00420523WA0269402901
B1713234053262N00420517WA0269402898
B1713244053265N00420511WA0269102897
B1713254053269N00420504WA0269002895
B1713264053273N00420497WA0268802893
B1713274053278N00420491WA0268802893
B1713284053282N00420484WA0268702892
B1713294053286N00420478WA0268702891
B1713304053291N00420472WA0268602891
B1713314053294N00420465WA0268502890
B1713324053295N00420458WA0268402888
B1713334053297N00420450WA0268302887
B1713344053299N00420443WA0268502886
B1713354053302N00420436WA0268502886
B1713364053305N00420430WA0268502887
B1713374053307N00420424WA0268502887
B1713384053309N00420417WA0268302887
B1713394053311N00420410WA0268202885
B1713404053314N00420402WA0268102884
B1713414053317N00420394WA0268102883
B1713424053320N00420385WA0268102883
B1713434053322N00420377WA0268202884
B1713444053325N00420369WA0268302884
B1713454053328N00420362WA0268502887
B1713464053330N00420356WA0268802890
B1713474053332N00420349WA0268902893
B1713484053335N00420343WA0269202894
B1713494053337N00420336WA0269302896
B1713504053339N00420329WA0269502898
B1713514053341N00420321WA0269602900
B1713524053344N00420314WA0269802903
B1713534053346N00420307WA0270002904
B1713544053348N00420300WA0270102906
B1713554053351N00420292WA0270302906
B1713564053354N00420283WA0270302908
B1713574053356N00420274WA0270902912
B1713584053357N00420265WA0271302917
B1713594053358N00420258WA0271602921
B1714004053359N00420252WA0271702923
B1714014053360N00420246WA0271902924
B1714024053361N00420239WA0271802925
B1714034053362N00420230WA0271802925
B1714044053363N00420222WA0271702925
B1714054053364N00420214WA0271802926
B1714064053365N00420206WA0271902927
B1714074053365N00420198WA0271902926
B1714084053366N00420189WA0271802926
B1714094053368N00420181WA0271702925
B1714104053370N00420172WA0271602925
B1714114053372N00420164WA0271602924
B1714124053374N00420155WA0271602925
B1714134053377N00420147WA0271602925
B1714144053379N00420139WA0271702926
B1714154053383N00420131WA0271702925
B1714164053387N00420124WA0271702925
B1714174053391N00420116WA0271602924
B1714184053395N00420109WA0271702925
B1714194053399N00420102WA0271702926
B1714204053403N00420095WA0271802926
B1714214053407N00420089WA0271902927
B1714224053410N00420082WA0271802927
B1714234053413N00420076WA0271702926
B1714244053416N00420068WA0271702925
B1714254053420N00420061WA0271602924
B1714264053425N00420054WA0271602924
B1714274053429N00420047WA0271602924
B1714284053433N00420041WA0271602924
B1714294053437N00420034WA0271402923
B1714304053440N00420026WA0271402921
B1714314053444N00420018WA0271402920
B1714324053447N00420011WA0271302920
B1714334053451N00420003WA0271402920
B1714344053455N00419996WA0271502921
B1714354053459N00419989WA0271602922
B1714364053462N00419982WA0271502922
B1714374053466N00419975WA0271402922
B1714384053469N00419968WA0271302921
B1714394053473N00419961WA0271302920
B1714404053477N00419954WA0271302919
B1714414053482N00419947WA0271102918
B1714424053486N00419940WA0271002917
B1714434053490N00419933WA0270902916
B1714444053494N00419926WA0270802915
B1714454053499N00419919WA0270802914
B1714464053503N00419912WA0270702914
B1714474053508N00419905WA0270602913
B1714484053512N00419898WA0270602912
B1714494053517N00419890WA0270602911
B1714504053522N00419883WA0270502911
B1714514053526N00419876WA0270302910
B1714524053531N00419869WA0270302909
B1714534053535N00419862WA0270202908
B1714544053539N00419856WA0270002906
B1714554053544N00419849WA0269602903
B1714564053549N00419842WA0269402900
B1714574053555N00419835WA0269202898
B1714584053560N00419828WA0269102896
B1714594053565N00419821WA0268902895
B1715004053570N00419815WA0268802893
B1715014053575N00419809WA0268602891
B1715024053579N00419802WA0268602889
B1715034053583N00419795WA0268402888
B1715044053586N00419788WA0268402887
B1715054053588N00419780WA0268202885
B1715064053590N00419772WA0268202886
B1715074053592N00419764WA0268402887
B1715084053595N00419757WA0268302888
B1715094053597N00419751WA0268402888
B1715104053599N00419743WA0268202888
B1715114053599N00419735WA0268102888
B1715124053600N00419726WA0268002887
B1715134053602N00419716WA0267902885
B1715144053606N00419706WA0268002885
B1715154053609N00419696WA0268002885
B1715164053614N00419686WA0267902884
B1715174053619N00419678WA0268102885
B1715184053623N00419669WA0268102886
B1715194053627N00419661WA0268202887
B1715204053631N00419653WA0268102886
B1715214053636N00419644WA0267902885
B1715224053641N00419636WA0268102884
B1715234053646N00419627WA0268202884
B1715244053652N00419619WA0268502887
B1715254053657N00419611WA0268702890
B1715264053662N00419605WA0268902893
B1715274053666N00419599WA0269102894
B1715284053671N00419592WA0269002895
B1715294053675N00419585WA0269102894
B1715304053680N00419577WA0269102894
B1715314053684N00419568WA0269202895
B1715324053689N00419560WA0269402897
B1715334053694N00419552WA0269502899
B1715344053698N00419545WA0269602901
B1715354053702N00419537WA0269702900
B1715364053706N00419529WA0269602900
B1715374053711N00419521WA0269502899
B1715384053715N00419513WA0269402898
B1715394053718N00419504WA0269402897
B1715404053723N00419494WA0269402897
B1715414053727N00419486WA0269402898
B1715424053731N00419477WA0269602899
B1715434053734N00419469WA0269602899
B1715444053738N00419460WA0269602900
B1715454053742N00419452WA0269602900
B1715464053746N00419443WA0269602900
B1715474053751N00419434WA0269702900
B1715484053756N00419425WA0269702900
B1715494053761N00419416WA0269602901
B1715504053766N00419408WA0269702901
B1715514053772N00419400WA0269702901
B1715524053777N00419391WA0269802901
B1715534053782N00419383WA0269902902
B1715544053788N00419375WA0270002902
B1715554053794N00419367WA0269902902
B1715564053799N00419359WA0269902902
B1715574053803N00419351WA0269802902
B1715584053807N00419342WA0269702900
B1715594053812N00419334WA0269502898
B1716004053817N00419325WA0269502898
B1716014053822N00419316WA0269502897
B1716024053828N00419308WA0269502897
B1716034053834N00419300WA0269502897
B1716044053840N00419292WA0269502897
B1716054053846N00419285WA0269502897
B1716064053852N00419277WA0269502897
B1716074053857N00419270WA0269402897
B1716084053862N00419262WA0269302896
B1716094053868N00419254WA0269302895
B1716104053873N00419246WA0269102894
B1716114053879N00419238WA0269202895
B1716124053885N00419232WA0269202895
B1716134053892N00419228WA0269302896
B1716144053898N00419224WA0269102894
B1716154053904N00419220WA0268802893
B1716164053911N00419216WA0268502890
B1716174053918N00419209WA0268202886
B1716184053925N00419202WA0267902882
B1716194053931N00419193WA0267602880
B1716204053937N00419185WA0267502878
B1716214053942N00419176WA0267302875
B1716224053947N00419168WA0267102873
B1716234053952N00419159WA0266702870
B1716244053955N00419149WA0266402867
B1716254053959N00419139WA0266202864
B1716264053962N00419128WA0266002862
B1716274053967N00419118WA0265902860
B1716284053971N00419108WA0265702859
B1716294053975N00419097WA0265602857
B1716304053979N00419088WA0265502855
B1716314053983N00419078WA0265402854
B1716334053994N00419056WA0265202851
B1716344053996N00419051WA0265102851
B1716344053997N00419047WA0265102851
B1716354054000N00419038WA0264902850
B1716364054002N00419029WA0264702849
B1716374054004N00419021WA0264702847
B1716384054006N00419012WA0264502846
B1716394054009N00419004WA0264302843
B1716404054011N00418995WA0264002841
B1716414054013N00418986WA0263802839
B1716424054016N00418977WA0263602837
B1716434054019N00418968WA0263302835
B1716444054023N00418959WA0263402834
B1716454054026N00418950WA0263302833
B1716464054029N00418942WA0263202831
B1716474054032N00418934WA0263002830
B1716484054036N00418925WA0262902828
B1716494054040N00418916WA0262702826
B1716504054043N00418907WA0262602825
B1716514054047N00418899WA0262502824
B1716524054051N00418891WA0262402823
B1716534054055N00418883WA0262402822
B1716544054060N00418875WA0262102820
B1716554054064N00418866WA0262002818
B1716564054069N00418858WA0261802817
B1716574054074N00418850WA0261602815
B1716584054079N00418841WA0261502813
B1716594054084N00418833WA0261402812
B1717004054091N00418825WA0261302810
B1717014054097N00418817WA0261102808
B1717024054103N00418809WA0260902807
B1717034054109N00418801WA0260702806
B1717044054115N00418792WA0260702805
B1717054054121N00418784WA0260602803
B1717064054127N00418776WA0260402802
B1717074054133N00418768WA0260302801
B1717084054140N00418759WA0260302801
B1717094054146N00418751WA0260302800
B1717104054151N00418742WA0260302800
B1717114054157N00418734WA0260302799
B1717124054163N00418725WA0260302798
B1717134054169N00418717WA0260302799
B1717144054174N00418710WA0260302799
B1717154054179N00418704WA0260302799
B1717164054183N00418697WA0260102799
B1717174054186N00418690WA0259902798
B1717184054190N00418681WA0259702795
B1717194054193N00418672WA0259402792
B1717204054197N00418662WA0259102789
B1717214054201N00418652WA0259002787
B1717224054204N00418642WA0259002787
B1717234054208N00418632WA0258902786
B1717244054212N00418623WA0258802785
B1717254054216N00418614WA0258502783
B1717264054220N00418605WA0258302781
B1717274054223N00418595WA0258202780
B1717284054226N00418585WA0258202779
B1717294054230N00418576WA0258102779
B1717304054233N00418567WA0258102778
B1717314054237N00418559WA0258002777
B1717324054241N00418550WA0257902774
B1717334054245N00418541WA0257702772
B1717344054250N00418532WA0257502770
B1717354054255N00418523WA0257402768
B1717364054260N00418514WA0257402767
B1717374054266N00418506WA0257402767
B1717384054271N00418499WA0257202766
B1717394054276N00418491WA0257002765
B1717404054280N00418484WA0256702763
B1717414054285N00418476WA0256602760
B1717424054290N00418467WA0256502757
B1717434054295N00418457WA0256302756
B1717444054299N00418448WA0256202756
B1717454054303N00418439WA0256102756
B1717464054306N00418431WA0256102755
B1717474054310N00418423WA0256002754
B1717484054314N00418415WA0255902753
B1717494054318N00418407WA0255802752
B1717504054321N00418399WA0255702751
B1717514054325N00418391WA0255702751
B1717524054328N00418383WA0255602750
B1717534054332N00418375WA0255602750
B1717544054336N00418368WA0255502749
B1717554054341N00418361WA0255302747
B1717564054346N00418353WA0255202746
B1717574054350N00418345WA0255002744
B1717584054355N00418337WA0254902743
B1717594054359N00418330WA0254702742
B1718004054364N00418322WA0254502739
B1718014054369N00418314WA0254402737
B1718024054373N00418306WA0254102736
B1718034054378N00418298WA0254002734
B1718054054385N00418282WA0253502729
B1718064054387N00418278WA0253402727
B1718064054389N00418274WA0253202726
B1718074054394N00418266WA0253102724
B1718084054399N00418259WA0253002722
B1718094054405N00418252WA0252802720
B1718104054410N00418246WA0252402718
B1718114054416N00418239WA0252102715
B1718124054422N00418233WA0251802711
B1718134054428N00418226WA0251602708
B1718144054434N00418219WA0251302705
B1718154054440N00418212WA0251102703
B1718164054446N00418205WA0250902702
B1718174054451N00418198WA0250702700
B1718184054457N00418192WA0250502697
B1718194054462N00418185WA0250102694
B1718204054468N00418178WA0249902691
B1718214054474N00418171WA0249802689
B1718224054480N00418164WA0249502687
B1718234054485N00418156WA0249402685
B1718244054490N00418149WA0249402684
B1718254054495N00418141WA0249202682
B1718264054500N00418134WA0248902680
B1718274054505N00418127WA0248802677
B1718284054510N00418120WA0248502675
B1718294054516N00418112WA0248302673
B1718304054521N00418106WA0248102672
B1718314054526N00418099WA0247902669
B1718324054532N00418093WA0247802667
B1718334054539N00418087WA0247602666
B1718344054545N00418081WA0247602665
B1718354054551N00418074WA0247402664
B1718364054557N00418068WA0247502663
B1718374054563N00418061WA0247302662
B1718384054569N00418055WA0247102660
B1718394054574N00418048WA0247002659
B1718404054580N00418041WA0246902658
B1718414054585N00418034WA0246802656
B1718424054591N00418026WA0246702655
B1718434054596N00418018WA0246402654
B1718444054601N00418010WA0246302652
B1718454054606N00418002WA0246102651
B1718464054611N00417994WA0246102650
B1718474054616N00417987WA0246102651
B1718484054620N00417981WA0246102650
B1718494054624N00417974WA0245802648
B1718504054628N00417967WA0245702645
B1718514054633N00417959WA0245302642
B1718524054637N00417950WA0245302640
B1718534054642N00417941WA0245202640
B1718544054645N00417932WA0245202640
B1718554054648N00417925WA0245302641
B1718564054652N00417917WA0245302641
B1718574054655N00417909WA0245302639
B1718584054657N00417901WA0245202637
B1718594054658N00417893WA0245002636
B1719004054659N00417886WA0245002637
B1719014054660N00417878WA0245002637
B1719024054662N00417871WA0245002638
B1719034054663N00417864WA0245002637
B1719044054664N00417857WA0245002637
B1719054054665N00417850WA0244802636
B1719064054665N00417843WA0244802635
B1719074054666N00417835WA0244702634
B1719084054666N00417829WA0244802634
B1719094054667N00417822WA0244702633
B1719104054667N00417816WA0244502632
B1719114054667N00417809WA0244402631
B1719124054667N00417802WA0244302630
B1719134054667N00417795WA0244302629
B1719144054668N00417788WA0244002627
B1719154054668N00417780WA0243902625
B1719164054669N00417772WA0243802623
B1719174054670N00417763WA0243602622
B1719184054671N00417755WA0243502621
B1719194054673N00417746WA0243302620
B1719204054674N00417738WA0243202618
B1719214054676N00417730WA0243002616
B1719224054677N00417722WA0242602613
B1719234054679N00417714WA0242302609
B1719244054681N00417707WA0242102606
B1719254054684N00417699WA0241702602
B1719264054686N00417690WA0241402599
B1719274054689N00417682WA0241302597
B1719284054692N00417674WA0241102595
B1719294054694N00417666WA0240802594
B1719304054697N00417658WA0240402591
B1719314054698N00417649WA0240202588
B1719324054701N00417640WA0239902584
B1719334054704N00417631WA0239502582
B1719344054706N00417623WA0239602580
B1719354054708N00417616WA0239502579
B1719364054709N00417610WA0239102577
B1719374054710N00417602WA0238702574
B1719384054711N00417594WA0238402569
B1719394054712N00417584WA0238002565
B1719404054712N00417574WA0237702563
B1719414054713N00417565WA0237602561
B1719424054713N00417556WA0237602560
B1719434054714N00417548WA0237402558
B1719444054716N00417539WA0237102556
B1719454054717N00417531WA0236802552
B1719464054719N00417522WA0236602550
B1719474054722N00417512WA0236502548
B1719484054724N00417503WA0236302546
B1719494054727N00417494WA0236202545
B1719504054731N00417486WA0236002544
B1719514054734N00417478WA0235902542
B1719524054738N00417469WA0235602539
B1719534054742N00417461WA0235302536
B1719544054746N00417453WA0235002533
B1719554054751N00417444WA0234902531
B1719564054756N00417437WA0234902530
B1719574054761N00417429WA0234702528
B1719584054765N00417422WA0234402525
B1719594054770N00417414WA0234302523
B1720004054775N00417407WA0234002521
B1720014054780N00417400WA0233802519
B1720024054784N00417393WA0233602516
B1720034054789N00417386WA0233302514
B1720044054793N00417379WA0233002511
B1720054054797N00417371WA0232802509
B1720064054801N00417363WA0232602506
B1720074054805N00417355WA0232402504
B1720084054809N00417347WA0232302502
B1720094054813N00417338WA0232302501
B1720104054817N00417329WA0232302501
B1720114054820N00417320WA0232302502
B1720124054824N00417313WA0232302501
B1720134054827N00417305WA0232202501
B1720144054830N00417298WA0232102499
B1720154054833N00417290WA0232002498
B1720164054836N00417282WA0231902497
B1720174054839N00417274WA0231802496
B1720184054843N00417266WA0231702495
B1720194054846N00417259WA0231602494
B1720204054849N00417252WA0231402492
B1720214054852N00417244WA0231202490
B1720224054855N00417236WA0231102488
B1720234054858N00417227WA0230902486
B1720244054860N00417219WA0230502484
B1720254054863N00417211WA0230302482
B1720264054865N00417203WA0230202480
B1720274054868N00417195WA0229802477
B1720284054870N00417186WA0229702474
B1720294054873N00417178WA0229102472
B1720304054875N00417168WA0229002470
B1720314054878N00417159WA0229102468
B1720324054881N00417151WA0229002467
B1720334054884N00417143WA0228802466
B1720344054887N00417135WA0228602462
B1720354054890N00417125WA0228502459
B1720364054892N00417115WA0228202456
B1720374054894N00417105WA0228102455
B1720384054896N00417095WA0228002454
B1720394054899N00417085WA0228002453
B1720404054901N00417075WA0227802452
B1720414054903N00417065WA0227702450
B1720424054905N00417055WA0227502449
B1720434054907N00417044WA0227402447
B1720444054910N00417034WA0227302446
B1720454054913N00417024WA0227202445
B1720464054915N00417014WA0227102444
B1720474054917N00417004WA0226902443
B1720484054920N00416994WA0226702442
B1720494054922N00416984WA0226502440
B1720504054925N00416974WA0226302437
B1720514054927N00416965WA0226002435
B1720524054930N00416955WA0225702433
B1720534054932N00416945WA0225602430
B1720544054934N00416935WA0225402427
B1720554054936N00416925WA0225102425
B1720564054939N00416915WA0224802423
B1720574054941N00416906WA0224702420
B1720584054944N00416897WA0224502418
B1720594054947N00416888WA0224102415
B1721004054951N00416879WA0223802411
B1721014054955N00416870WA0223502408
B1721024054959N00416861WA0223202405
B1721034054963N00416853WA0222902402
B1721044054968N00416845WA0222602398
B1721054054972N00416837WA0222402395
B1721064054977N00416829WA0222202393
B1721074054982N00416822WA0222302392
B1721084054986N00416815WA0222102391
B1721094054991N00416809WA0221902390
B1721104054995N00416802WA0221802388
B1721114055000N00416796WA0221602386
B1721124055004N00416789WA0221402385
B1721134055007N00416782WA0221202382
B1721144055011N00416774WA0220902379
B1721154055015N00416766WA0220702377
B1721164055019N00416757WA0220502374
B1721174055023N00416749WA0220402372
B1721184055027N00416740WA0220102370
B1721194055031N00416731WA0219502368
B1721204055034N00416723WA0219602366
B1721214055038N00416715WA0219402364
B1721224055042N00416707WA0219102360
B1721234055045N00416698WA0218702356
B1721244055050N00416689WA0218402352
B1721254055054N00416679WA0218302349
B1721264055059N00416670WA0218102348
B1721274055064N00416661WA0218102347
B1721284055067N00416653WA0218002346
B1721294055071N00416646WA0217902344
B1721304055074N00416638WA0217602342
B1721314055078N00416630WA0217202339
B1721324055084N00416623WA0217102336
B1721334055089N00416615WA0217002334
B1721344055093N00416607WA0216802333
B1721354055098N00416599WA0216802333
B1721364055102N00416592WA0216802332
B1721374055106N00416584WA0216502330
B1721384055111N00416576WA0216302328
B1721394055117N00416569WA0216202326
B1721404055122N00416561WA0216002324
B1721414055128N00416554WA0215802323
B1721424055134N00416547WA0215702322
B1721434055140N00416541WA0215602320
B1721444055146N00416534WA0215402319
B1721454055152N00416528WA0215102317
B1721464055158N00416522WA0214702314
B1721474055164N00416515WA0214602312
B1721484055171N00416509WA0214402309
B1721494055178N00416501WA0214102306
B1721504055185N00416494WA0214002304
B1721514055192N00416486WA0213802303
B1721524055199N00416479WA0213802302
B1721534055205N00416473WA0213702300
B1721544055212N00416467WA0213502299
B1721554055218N00416461WA0213302297
B1721564055223N00416455WA0213002295
B1721574055228N00416449WA0212902293
B1721584055233N00416443WA0212702290
B1721594055239N00416436WA0212502287
B1722004055244N00416429WA0212202285
B1722014055248N00416420WA0212102284
B1722024055252N00416412WA0211902283
B1722034055255N00416404WA0211802282
B1722044055258N00416396WA0211502279
B1722054055261N00416387WA0211202276
B1722064055264N00416378WA0210902273
B1722074055267N00416369WA0210702269
B1722084055269N00416359WA0210602266
B1722094055272N00416349WA0210302264
B1722104055274N00416339WA0210002263
B1722114055275N00416330WA0209902261
B1722124055277N00416321WA0209802259
B1722134055278N00416312WA0209602257
B1722144055280N00416303WA0209502256
B1722154055280N00416294WA0209402255
B1722164055281N00416287WA0209102253
B1722174055282N00416279WA0209002251
B1722184055283N00416271WA0208802248
B1722194055283N00416262WA0208502244
B1722204055283N00416253WA0208202242
B1722214055283N00416244WA0208002239
B1722224055284N00416235WA0207802237
B1722234055284N00416226WA0207502234
B1722244055284N00416217WA0207302232
B1722254055283N00416209WA0207002230
B1722264055283N00416200WA0206802226
B1722274055283N00416191WA0206502224
B1722284055284N00416182WA0206302221
B1722294055283N00416173WA0206002218
B1722304055283N00416163WA0205702216
B1722314055283N00416154WA0205502214
B1722324055283N00416145WA0205402212
B1722334055284N00416136WA0205102209
B1722344055284N00416127WA0204802207
B1722354055284N00416117WA0204702204
B1722364055286N00416108WA0204702204
B1722374055287N00416100WA0204602204
B1722384055288N00416093WA0204502203
B1722394055289N00416087WA0204202201
B1722404055290N00416080WA0203902198
B1722414055292N00416072WA0203602195
B1722424055293N00416063WA0203502193
B1722434055294N00416053WA0203102191
B1722444055295N00416044WA0203202191
B1722454055295N00416036WA0203102190
B1722464055295N00416029WA0203002189
B1722474055295N00416022WA0202702185
B1722484055296N00416015WA0202602181
B1722494055295N00416007WA0202302178
B1722504055294N00415999WA0202102176
B1722514055293N00415991WA0202002175
B1722524055291N00415984WA0201902175
B1722534055289N00415977WA0201802173
B1722544055288N00415971WA0201602171
B1722554055288N00415964WA0201102169
B1722564055286N00415956WA0200902166
B1722574055285N00415949WA0200702162
B1722584055284N00415941WA0200502159
B1722594055284N00415933WA0200202156
B1723004055283N00415924WA0200102153
B1723014055283N00415916WA0199702151
B1723024055282N00415907WA0199602148
B1723034055282N00415899WA0199202146
B1723044055282N00415891WA0198902143
B1723054055282N00415883WA0198702141
B1723064055283N00415876WA0198202139
B1723074055283N00415869WA0198102137
B1723084055284N00415861WA0197902134
B1723094055284N00415853WA0197602131
B1723104055284N00415845WA0197302128
B1723114055284N00415837WA0197202126
B1723124055285N00415829WA0196902123
B1723134055285N00415822WA0196602121
B1723144055286N00415814WA0196402118
B1723154055287N00415806WA0196202115
B1723164055289N00415798WA0196002112
B1723174055291N00415790WA0195702110
B1723184055293N00415783WA0195502107
B1723194055295N00415777WA0195202104
B1723204055298N00415769WA0194902101
B1723214055301N00415761WA0194402097
B1723224055304N00415752WA0194302094
B1723234055308N00415744WA0194302093
B1723244055311N00415736WA0194102092
B1723254055314N00415729WA0193702090
B1723264055317N00415721WA0193602088
B1723274055321N00415713WA0193402085
B1723284055324N00415704WA0193202083
B1723294055327N00415695WA0193002081
B1723304055329N00415686WA0192902080
B1723314055329N00415676WA0192702078
B1723324055329N00415665WA0192502076
B1723334055328N00415655WA0192502074
B1723344055326N00415645WA0192302072
B1723354055324N00415635WA0192102070
B1723364055322N00415625WA0191902068
B1723374055320N00415615WA0191702066
B1723384055318N00415605WA0191502064
B1723394055315N00415594WA0191402062
B1723404055313N00415583WA0191202061
B1723414055311N00415573WA0191102060
B1723424055309N00415563WA0191002059
B1723434055306N00415553WA0190902058
B1723444055304N00415543WA0190902057
B1723454055302N00415533WA0190802056
B1723464055299N00415523WA0190602055
B1723474055297N00415513WA0190502054
B1723484055295N00415503WA0190402053
B1723494055293N00415493WA0190402052
B1723504055291N00415483WA0190402051
B1723514055289N00415473WA0190302050
B1723524055288N00415463WA0190202049
B1723534055286N00415453WA0190102048
B1723544055284N00415443WA0190002047
B1723554055282N00415433WA0190002046
B1723564055280N00415424WA0189802044
B1723574055278N00415414WA0189602043
B1723584055276N00415404WA0189502042
B1723594055274N00415395WA0189402040
B1724004055272N00415386WA0189102038
B1724014055269N00415378WA0188802035
B1724024055266N00415369WA0188502031
B1724034055263N00415360WA0188302028
B1724044055260N00415351WA0188002026
B1724054055257N00415342WA0187902024
B1724064055254N00415333WA0187702022
B1724074055251N00415325WA0187502021
B1724084055248N00415317WA0187302018
B1724094055246N00415309WA0187002015
B1724104055243N00415300WA0186802011
B1724114055241N00415291WA0186502008
B1724124055239N00415282WA0186202006
B1724134055237N00415273WA0186002004
B1724144055235N00415265WA0185802001
B1724154055233N00415257WA0185401998
B1724164055232N00415248WA0185001993
B1724174055230N00415239WA0184701989
B1724184055227N00415228WA0184501986
B1724194055225N00415218WA0184601986
B1724204055221N00415209WA0184501986
B1724214055218N00415202WA0184701987
B1724224055215N00415195WA0184601986
B1724234055212N00415189WA0184501985
B1724244055208N00415182WA0184301983
B1724254055204N00415174WA0183701981
B1724264055199N00415166WA0183601979
B1724274055194N00415157WA0183501978
B1724284055189N00415149WA0183501977
B1724294055185N00415141WA0183401977
B1724304055182N00415134WA0183401975
B1724314055179N00415126WA0183101973
B1724324055175N00415119WA0182901970
B1724334055171N00415110WA0182601967
B1724344055168N00415101WA0182401965
B1724354055165N00415091WA0182301964
B1724384055156N00415064WA0182001961
B1724394055155N00415060WA0181901960
B1724394055154N00415055WA0181801959
B1724404055151N00415046WA0181601956
B1724414055149N00415036WA0181301953
B1724424055147N00415025WA0181101950
B1724434055145N00415015WA0180901948
B1724444055143N00415004WA0180801947
B1724454055141N00414994WA0180601946
B1724464055139N00414985WA0180401944
B1724474055137N00414975WA0180301942
B1724484055134N00414966WA0180001939
B1724494055131N00414957WA0179801936
B1724504055127N00414948WA0179401933
B1724514055123N00414938WA0179301930
B1724524055119N00414928WA0179101929
B1724534055116N00414919WA0179101927
B1724544055112N00414909WA0178901925
B1724554055108N00414899WA0178801924
B1724564055105N00414889WA0178701923
B1724574055101N00414880WA0178601922
B1724584055096N00414871WA0178401921
B1724594055092N00414862WA0178301918
B1725004055088N00414852WA0178001916
B1725014055085N00414841WA0177701914
B1725024055082N00414830WA0177601912
B1725034055078N00414819WA0177601911
B1725044055075N00414808WA0177601910
B1725054055071N00414797WA0177301909
B1725064055068N00414786WA0177201907
B1725074055065N00414775WA0177001906
B1725084055062N00414763WA0177001904
B1725094055059N00414751WA0177001903
B1725104055055N00414741WA0177001904
B1725114055052N00414730WA0177101905
B1725124055048N00414721WA0177101905
B1725134055045N00414712WA0177001905
B1725144055042N00414703WA0176901904
B1725154055038N00414693WA0176801902
B1725164055033N00414684WA0176701900
B1725174055029N00414674WA0176501899
B1725184055025N00414663WA0176501898
B1725194055021N00414654WA0176501898
B1725204055017N00414644WA0176301898
B1725214055012N00414635WA0176301897
B1725224055007N00414626WA0176301896
B1725234055003N00414616WA0176201895
B1725244054998N00414607WA0176201895
B1725254054993N00414598WA0176001894
B1725264054988N00414589WA0175901893
B1725274054983N00414580WA0175701891
B1725284054979N00414570WA0175601890
B1725294054975N00414560WA0175501889
B1725304054971N00414549WA0175501888
B1725314054967N00414539WA0175501887
B1725324054963N00414529WA0175401887
B1725334054958N00414519WA0175601888
B1725344054954N00414509WA0175801890
B1725354054949N00414500WA0176001892
B1725364054944N00414492WA0176101894
B1725374054939N00414485WA0176201896
B1725384054935N00414478WA0176201895
B1725394054929N00414471WA0176101895
B1725404054923N00414463WA0176101894
B1725414054916N00414456WA0175901894
B1725424054910N00414449WA0176101895
B1725434054905N00414442WA0176201895
B1725444054899N00414435WA0176201895
B1725454054894N00414428WA0176001894
B1725464054888N00414420WA0175801892
B1725474054883N00414412WA0175801892
B1725484054878N00414403WA0175801892
B1725494054874N00414394WA0176001892
B1725504054870N00414386WA0176101893
B1725514054866N00414378WA0176101894
B1725524054862N00414370WA0176101894
B1725534054859N00414361WA0176101894
B1725544054856N00414352WA0176101893
B1725554054853N00414342WA0176001894
B1725564054849N00414333WA0176101895
B1725574054846N00414324WA0176301897
B1725584054843N00414315WA0176501898
B1725594054840N00414307WA0176601899
B1726004054837N00414299WA0176701901
B1726014054834N00414291WA0176701900
B1726024054831N00414284WA0176801900
B1726034054827N00414276WA0176901901
B1726044054823N00414269WA0177001902
B1726054054818N00414263WA0177001904
B1726064054813N00414258WA0177201905
B1726074054808N00414253WA0177401906
B1726084054803N00414248WA0177401907
B1726094054798N00414242WA0177501908
B1726104054794N00414236WA0177801910
B1726114054790N00414229WA0178101913
B1726124054785N00414223WA0178401917
B1726134054781N00414217WA0178901920
B1726144054776N00414212WA0179101923
B1726154054772N00414206WA0179301926
B1726164054769N00414200WA0179401928
B1726174054769N00414194WA0179301927
B1726184054772N00414189WA0179301926
B1726194054777N00414187WA0179401925
B1726204054782N00414188WA0179501925
B1726214054786N00414193WA0179601926
B1726224054787N00414201WA0179701927
B1726234054786N00414209WA0180001929
B1726244054783N00414217WA0180201931
B1726254054777N00414221WA0180601934
B1726264054770N00414224WA0180801937
B1726274054763N00414225WA0181201942
B1726284054757N00414225WA0181501948
B1726294054752N00414224WA0181801951
B1726304054748N00414221WA0181901954
B1726314054745N00414216WA0181901956
B1726324054744N00414210WA0181901957
B1726334054745N00414203WA0182001958
B1726344054748N00414196WA0182101958
B1726354054752N00414191WA0182301959
B1726364054757N00414188WA0182601961
B1726374054762N00414188WA0182801963
B1726384054767N00414190WA0183001965
B1726394054770N00414192WA0183101966
B1726404054773N00414197WA0183101966
B1726414054774N00414204WA0183101966
B1726424054773N00414212WA0183201967
B1726434054770N00414221WA0183301967
B1726444054762N00414226WA0183801970
B1726454054756N00414228WA0184201974
B1726464054750N00414229WA0184501978
B1726474054746N00414228WA0184601980
B1726484054742N00414227WA0184601981
B1726494054736N00414223WA0184701980
B1726504054730N00414218WA0184701980
B1726514054726N00414211WA0184901981
B1726524054723N00414204WA0185101983
B1726534054720N00414196WA0185301985
B1726544054719N00414189WA0185501988
B1726554054719N00414182WA0185601990
B1726564054722N00414176WA0185701991
B1726574054726N00414171WA0185701991
B1726584054731N00414169WA0186001992
B1726594054737N00414169WA0186101993
B1727004054741N00414171WA0186401994
B1727014054745N00414176WA0186701997
B1727024054748N00414181WA0187002000
B1727034054748N00414187WA0187002002
B1727044054746N00414194WA0187202003
B1727054054740N00414199WA0187202005
B1727064054733N00414200WA0187502007
B1727074054726N00414198WA0187702009
B1727084054720N00414193WA0188002012
B1727094054716N00414185WA0188002014
B1727104054715N00414177WA0188102015
B1727114054716N00414169WA0188202016
B1727124054719N00414161WA0188102017
B1727134054723N00414155WA0188202018
B1727144054728N00414152WA0188502020
B1727154054734N00414151WA0188702022
B1727164054740N00414152WA0188902024
B1727174054744N00414155WA0189102026
B1727184054747N00414158WA0189302030
B1727194054750N00414163WA0189502030
B1727204054749N00414170WA0189502031
B1727214054746N00414177WA0189602033
B1727224054741N00414182WA0189802034
B1727234054735N00414185WA0190202037
B1727244054729N00414185WA0190402040
B1727254054724N00414184WA0190502043
B1727264054718N00414182WA0190702044
B1727274054713N00414178WA0190902045
B1727284054708N00414173WA0190902046
B1727294054703N00414166WA0191002047
B1727304054700N00414158WA0191202050
B1727314054697N00414149WA0191402052
B1727324054695N00414141WA0191502054
B1727334054694N00414133WA0191702056
B1727344054693N00414126WA0191802057
B1727354054692N00414120WA0191802057
B1727364054693N00414114WA0191702056
B1727374054694N00414108WA0191702055
B1727384054697N00414103WA0191502054
B1727394054701N00414099WA0191502054
B1727404054705N00414095WA0191402054
B1727414054709N00414092WA0191502053
B1727424054714N00414091WA0191502053
B1727434054718N00414090WA0191402054
B1727444054723N00414090WA0191502054
B1727454054727N00414088WA0191402054
B1727464054732N00414084WA0191302054
B1727474054735N00414078WA0191402053
B1727484054738N00414070WA0191502054
B1727494054740N00414062WA0191702055
B1727504054741N00414054WA0191802057
B1727514054742N00414047WA0191902059
B1727524054742N00414039WA0191902059
B1727534054743N00414032WA0191802060
B1727544054743N00414024WA0191902060
B1727554054742N00414015WA0191902061
B1727564054741N00414006WA0192002062
B1727574054740N00413998WA0192102063
B1727584054738N00413990WA0192002063
B1727594054736N00413982WA0191902063
B1728004054734N00413973WA0191802061
B1728014054733N00413963WA0191702060
B1728024054732N00413953WA0191702060
B1728034054731N00413943WA0191702060
B1728044054729N00413932WA0191802061
B1728054054727N00413922WA0192002062
B1728064054726N00413912WA0192102062
B1728074054724N00413901WA0192302065
B1728084054721N00413892WA0192602069
B1728094054719N00413883WA0192802072
B1728104054716N00413875WA0193002074
B1728114054713N00413868WA0193102075
B1728124054712N00413860WA0193202076
B1728134054710N00413853WA0193302077
B1728144054708N00413844WA0193302077
B1728154054704N00413835WA0193302077
B1728164054699N00413827WA0193402078
B1728174054693N00413819WA0193502080
B1728184054688N00413811WA0193702081
B1728194054684N00413803WA0193802083
B1728204054680N00413796WA0193902084
B1728214054676N00413789WA0194002085
B1728224054673N00413781WA0194102085
B1728234054669N00413773WA0194002086
B1728244054665N00413765WA0194002086
B1728254054660N00413757WA0194002086
B1728264054655N00413749WA0194002086
B1728274054651N00413741WA0194002086
B1728284054648N00413732WA0194002086
B1728294054646N00413725WA0194102087
B1728304054645N00413717WA0194102086
B1728314054643N00413710WA0193902086
B1728324054643N00413702WA0193902085
B1728334054643N00413694WA0194002084
B1728344054644N00413686WA0194002085
B1728354054645N00413679WA0194102085
B1728364054645N00413671WA0194202086
B1728374054646N00413663WA0194502088
B1728384054647N00413656WA0194702090
B1728394054648N00413650WA0194802092
B1728404054648N00413645WA0195102093
B1728414054649N00413640WA0195002094
B1728424054650N00413634WA0195202095
B1728434054651N00413628WA0195302097
B1728444054652N00413622WA0195502098
B1728454054652N00413616WA0195502100
B1728464054653N00413611WA0195602100
B1728474054654N00413605WA0195602099
B1728484054654N00413598WA0195602098
B1728494054654N00413591WA0195502098
B1728504054654N00413584WA0195502098
B1728514054655N00413577WA0195802098
B1728524054656N00413571WA0195902099
B1728534054655N00413563WA0196202104
B1728544054654N00413556WA0196302107
B1728554054653N00413549WA0196602109
B1728564054652N00413541WA0196702111
B1728574054651N00413535WA0196802113
B1728584054650N00413528WA0196902113
B1728594054648N00413521WA0196702113
B1729004054648N00413514WA0196702113
B1729014054648N00413508WA0196702113
B1729024054650N00413501WA0196802114
B1729034054651N00413494WA0196902114
B1729044054652N00413488WA0197002115
B1729054054652N00413481WA0197002116
B1729064054652N00413473WA0197102116
B1729074054650N00413465WA0197102117
B1729084054646N00413458WA0197102117
B1729094054641N00413451WA0197302118
B1729104054636N00413444WA0197602121
B1729114054633N00413436WA0197902124
B1729124054630N00413429WA0198202128
B1729134054628N00413422WA0198502132
B1729144054626N00413417WA0198802135
B1729154054622N00413413WA0199002138
B1729164054616N00413411WA0199102139
B1729174054610N00413414WA0199302141
B1729184054605N00413419WA0199502141
B1729194054603N00413429WA0199602142
B1729204054606N00413437WA0199802144
B1729214054612N00413441WA0199902145
B1729224054618N00413442WA0200102147
B1729234054622N00413438WA0200202149
B1729244054625N00413431WA0200402151
B1729254054626N00413425WA0200702153
B1729264054626N00413417WA0200902156
B1729274054626N00413411WA0201102159
B1729284054625N00413404WA0201302162
B1729294054623N00413397WA0201602164
B1729304054620N00413391WA0201802167
B1729314054617N00413385WA0202202170
B1729324054613N00413380WA0202402173
B1729334054609N00413376WA0202702177
B1729344054604N00413373WA0203002180
B1729354054600N00413372WA0203302183
B1729364054595N00413374WA0203302185
B1729374054590N00413379WA0203302186
B1729384054588N00413387WA0203402187
B1729394054587N00413397WA0203502188
B1729404054589N00413405WA0203602188
B1729414054595N00413410WA0203702189
B1729424054601N00413413WA0203802190
B1729434054607N00413414WA0204102192
B1729444054613N00413413WA0204202194
B1729454054617N00413411WA0204402196
B1729464054621N00413408WA0204602199
B1729474054625N00413405WA0204802201
B1729484054629N00413401WA0205102204
B1729494054634N00413397WA0205402206
B1729504054638N00413393WA0205702210
B1729514054641N00413388WA0206002213
B1729524054644N00413383WA0206302216
B1729534054646N00413377WA0206602219
B1729544054646N00413371WA0206802222
B1729554054643N00413365WA0206902224
B1729564054638N00413360WA0207102226
B1729574054631N00413359WA0207402228
B1729584054625N00413362WA0207802230
B1729594054620N00413370WA0207902231
B1730004054620N00413380WA0207902232
B1730014054624N00413389WA0208102233
B1730024054630N00413395WA0208302236
B1730034054636N00413397WA0208802241
B1730044054641N00413396WA0209102245
B1730054054646N00413394WA0209402249
B1730064054649N00413390WA0209502253
B1730074054651N00413384WA0209802256
B1730084054650N00413374WA0210002257
B1730094054647N00413366WA0210402259
B1730104054643N00413360WA0210802262
B1730114054639N00413356WA0211202266
B1730124054634N00413355WA0211502270
B1730134054629N00413357WA0211602272
B1730144054625N00413362WA0211502273
B1730154054622N00413371WA0211802274
B1730164054622N00413382WA0211902277
B1730174054624N00413392WA0212102280
B1730184054628N00413399WA0212402283
B1730194054633N00413403WA0212702286
B1730204054639N00413405WA0213102289
B1730214054644N00413406WA0213402292
B1730224054648N00413405WA0213702295
B1730234054652N00413403WA0214002298
B1730244054656N00413399WA0214102300
B1730254054659N00413394WA0214402303
B1730264054660N00413387WA0214902305
B1730274054661N00413380WA0215002308
B1730284054660N00413373WA0215402311
B1730294054657N00413368WA0215502314
B1730304054653N00413364WA0215902317
B1730314054648N00413362WA0216002320
B1730324054642N00413360WA0216302323
B1730334054636N00413360WA0216602327
B1730344054631N00413362WA0216902331
B1730354054626N00413366WA0217102334
B1730364054623N00413374WA0217402336
B1730374054621N00413383WA0217302337
B1730384054622N00413393WA0217502338
B1730394054624N00413402WA0217802341
B1730404054629N00413407WA0217902344
B1730414054634N00413410WA0218302346
B1730424054639N00413412WA0218502349
B1730434054644N00413414WA0218702353
B1730444054649N00413415WA0219002356
B1730454054654N00413415WA0219302359
B1730464054659N00413415WA0219502361
B1730474054663N00413414WA0219702364
B1730484054667N00413412WA0220002367
B1730494054671N00413408WA0220102369
B1730504054672N00413401WA0220202371
B1730514054673N00413393WA0220402373
B1730524054673N00413385WA0220702375
B1730534054671N00413376WA0221002380
B1730544054671N00413369WA0221402383
B1730554054670N00413362WA0221702385
B1730564054667N00413356WA0222002387
B1730574054663N00413352WA0222202389
B1730584054657N00413351WA0222502392
B1730594054651N00413354WA0222602394
B1731004054647N00413361WA0222902397
B1731014054644N00413370WA0223102399
B1731024054644N00413378WA0223302402
B1731034054647N00413386WA0223502404
B1731044054653N00413391WA0223802407
B1731054054658N00413393WA0224102410
B1731064054663N00413393WA0224402414
B1731074054668N00413393WA0224702417
B1731084054673N00413392WA0224902419
B1731094054677N00413390WA0225102420
B1731104054681N00413386WA0225302422
B1731114054684N00413380WA0225402424
B1731124054684N00413372WA0225602426
B1731134054682N00413365WA0225802428
B1731144054678N00413357WA0226102430
B1731154054674N00413351WA0226402435
B1731164054670N00413345WA0226702439
B1731174054666N00413340WA0227002442
B1731184054662N00413335WA0227302444
B1731194054656N00413334WA0227402446
B1731204054650N00413336WA0227302447
B1731214054646N00413344WA0227502447
B1731224054643N00413353WA0227702449
B1731234054644N00413363WA0227902452
B1731244054648N00413371WA0228402456
B1731254054652N00413376WA0228702460
B1731264054657N00413381WA0229102464
B1731274054661N00413384WA0229502466
B1731284054666N00413387WA0229702469
B1731294054671N00413388WA0229902471
B1731304054676N00413387WA0230002473
B1731314054680N00413382WA0230402475
B1731324054682N00413375WA0230602476
B1731334054682N00413367WA0230702478
B1731344054677N00413360WA0230502480
B1731354054671N00413357WA0231002481
B1731364054664N00413359WA0231302484
B1731374054658N00413364WA0231702487
B1731384054655N00413371WA0232002491
B1731394054654N00413380WA0232102494
B1731404054656N00413387WA0232302497
B1731414054659N00413393WA0232402499
B1731424054664N00413397WA0232802502
B1731434054670N00413398WA0233102505
B1731444054675N00413399WA0233402510
B1731454054679N00413399WA0233702513
B1731464054684N00413397WA0233902514
B1731474054687N00413393WA0234002516
B1731484054689N00413385WA0234002518
B1731494054689N00413376WA0234302520
B1731504054687N00413367WA0234602522
B1731514054685N00413359WA0235002526
B1731524054684N00413353WA0235302529
B1731534054682N00413348WA0235402532
B1731544054679N00413343WA0235702534
B1731554054674N00413340WA0235602534
B1731564054668N00413340WA0235602535
B1731574054662N00413344WA0235902536
B1731584054657N00413352WA0236202538
B1731594054656N00413361WA0236302541
B1732004054658N00413369WA0236502543
B1732014054663N00413376WA0236702545
B1732024054668N00413381WA0236802545
B1732034054674N00413383WA0237102548
B1732044054680N00413383WA0237602551
B1732054054684N00413383WA0237702553
B1732064054689N00413383WA0237902556
B1732074054694N00413381WA0238102559
B1732084054698N00413378WA0238202560
B1732094054700N00413372WA0238302562
B1732104054702N00413366WA0238602564
B1732114054704N00413359WA0238802566
B1732124054707N00413353WA0238902568
B1732134054710N00413347WA0239102569
B1732144054714N00413343WA0239202571
B1732154054718N00413338WA0239302573
B1732164054723N00413335WA0239402574
B1732174054728N00413331WA0239602575
B1732184054733N00413327WA0239802577
B1732194054738N00413323WA0240102579
B1732204054744N00413319WA0240402582
B1732214054749N00413318WA0240702585
B1732224054754N00413318WA0240802588
B1732234054759N00413321WA0241102591
B1732244054764N00413323WA0241302594
B1732254054769N00413326WA0241502597
B1732264054774N00413328WA0241802599
B1732274054779N00413330WA0242002602
B1732284054784N00413330WA0242202604
B1732294054790N00413329WA0242502606
B1732304054795N00413327WA0242602608
B1732314054800N00413325WA0242902611
B1732324054805N00413322WA0243102614
B1732334054810N00413318WA0243402617
B1732344054814N00413315WA0243702620
B1732354054819N00413311WA0243902623
B1732364054824N00413308WA0244202626
B1732374054829N00413305WA0244402628
B1732384054835N00413303WA0244602630
B1732394054841N00413302WA0244802633
B1732404054847N00413301WA0245002635
B1732414054853N00413298WA0245402637
B1732424054858N00413294WA0245602640
B1732434054863N00413289WA0246002643
B1732444054868N00413284WA0246402648
B1732454054872N00413279WA0246802653
B1732464054876N00413275WA0247102656
B1732474054880N00413271WA0247302658
B1732484054884N00413265WA0247602661
B1732494054886N00413258WA0247702663
B1732504054886N00413250WA0247902665
B1732514054885N00413242WA0248202668
B1732524054883N00413234WA0248602670
B1732534054881N00413227WA0249002674
B1732544054879N00413221WA0249602678
B1732554054876N00413215WA0250102682
B1732564054873N00413210WA0250502687
B1732574054871N00413207WA0250802691
B1732584054867N00413205WA0251002694
B1732594054862N00413205WA0251402696
B1733004054857N00413210WA0251702699
B1733014054852N00413216WA0252102702
B1733024054850N00413222WA0252402706
B1733034054850N00413229WA0252602709
B1733044054851N00413235WA0252802712
B1733054054852N00413242WA0252802714
B1733064054857N00413249WA0253102716
B1733074054862N00413255WA0253302720
B1733084054869N00413260WA0253802725
B1733094054876N00413263WA0254202730
B1733104054883N00413266WA0254602734
B1733114054889N00413268WA0255002740
B1733124054895N00413269WA0255302744
B1733134054901N00413268WA0255402749
B1733144054906N00413264WA0255602752
B1733154054908N00413255WA0255802756
B1733164054909N00413246WA0256102758
B1733174054910N00413236WA0256402761
B1733184054909N00413228WA0256702764
B1733194054908N00413221WA0256902766
B1733204054906N00413214WA0257202769
B1733214054904N00413207WA0257502772
B1733224054900N00413202WA0257802775
B1733234054896N00413197WA0258202778
B1733244054891N00413195WA0258602782
B1733254054886N00413193WA0259002786
B1733264054881N00413193WA0259502791
B1733274054877N00413193WA0259902795
B1733284054872N00413195WA0260202799
B1733294054868N00413198WA0260502802
B1733304054865N00413204WA0260502805
B1733314054864N00413212WA0260702807
B1733324054865N00413220WA0260902810
B1733334054867N00413229WA0261002812
B1733344054870N00413237WA0261302816
B1733354054873N00413245WA0261702819
B1733364054877N00413252WA0262302823
B1733374054881N00413258WA0262602827
B1733384054886N00413264WA0263002831
B1733394054892N00413268WA0263502835
B1733404054897N00413270WA0263802839
B1733414054903N00413272WA0264002843
B1733424054909N00413271WA0264302847
B1733434054914N00413268WA0264602849
B1733444054918N00413262WA0264802851
B1733454054921N00413256WA0265102854
B1733464054923N00413250WA0265302857
B1733474054925N00413243WA0265402858
B1733484054926N00413236WA0265502860
B1733494054926N00413229WA0265802862
B1733504054925N00413222WA0266002863
B1733514054923N00413215WA0266202866
B1733524054921N00413208WA0266402869
B1733534054918N00413202WA0266802872
B1733544054914N00413197WA0267002875
B1733554054910N00413193WA0267402878
B1733564054905N00413191WA0267602881
B1733574054900N00413190WA0268002884
B1733584054895N00413192WA0268402887
B1733594054890N00413196WA0268802889
B1734004054887N00413202WA0268802892
B1734014054888N00413211WA0268902894
B1734024054893N00413219WA0269202896
B1734034054900N00413224WA0269402899
B1734044054908N00413225WA0269602901
B1734054054915N00413221WA0269902904
B1734064054920N00413214WA0270102906
B1734074054923N00413206WA0270502911
B1734084054926N00413199WA0271002915
B1734094054929N00413193WA0271202917
B1734104054933N00413188WA0271402918
B1734114054937N00413182WA0271502919
B1734124054942N00413174WA0271702921
B1734134054945N00413166WA0271702923
B1734144054947N00413158WA0272002926
B1734154054950N00413150WA0272302927
B1734164054952N00413143WA0272502927
B1734174054956N00413135WA0272402927
B1734184054960N00413126WA0272602929
B1734194054965N00413119WA0272802931
B1734204054970N00413113WA0273102933
B1734214054974N00413106WA0273202935
B1734224054978N00413099WA0273302936
B1734234054982N00413092WA0273402938
B1734244054987N00413084WA0273502939
B1734254054991N00413077WA0273702941
B1734264054996N00413071WA0273702942
B1734274055000N00413064WA0273802944
B1734284055004N00413057WA0273902944
B1734294055008N00413050WA0274002945
B1734304055012N00413042WA0274102946
B1734314055015N00413034WA0274202948
B1734324055019N00413026WA0274402950
B1734334055021N00413019WA0274602951
B1734344055024N00413012WA0274802953
B1734354055027N00413005WA0275002955
B1734364055030N00412999WA0275202957
B1734374055032N00412993WA0275202959
B1734384055035N00412987WA0275302960
B1734394055037N00412981WA0275302960
B1734404055040N00412974WA0275302960
B1734414055043N00412969WA0275202959
B1734424055047N00412963WA0275102956
B1734434055051N00412958WA0274902954
B1734444055055N00412951WA0274802952
B1734454055059N00412945WA0274702951
B1734464055062N00412938WA0274802950
B1734474055066N00412931WA0274702950
B1734484055069N00412924WA0274602950
B1734494055072N00412917WA0274702950
B1734504055076N00412911WA0274802950
B1734514055080N00412905WA0274902950
B1734524055085N00412899WA0274702951
B1734534055089N00412893WA0274802951
B1734544055093N00412887WA0274702952
B1734554055097N00412881WA0274802952
B1734564055102N00412876WA0274702952
B1734574055106N00412870WA0274602951
B1734584055112N00412865WA0274502950
B1734594055117N00412859WA0274402950
B1735004055123N00412854WA0274402949
B1735014055129N00412849WA0274302949
B1735024055135N00412843WA0274202948
B1735034055140N00412838WA0274002947
B1735044055145N00412832WA0273802945
B1735054055150N00412826WA0273702943
B1735064055156N00412820WA0273502940
B1735074055161N00412815WA0273202937
B1735084055167N00412808WA0273002935
B1735094055171N00412800WA0272902933
B1735104055176N00412792WA0272702932
B1735114055180N00412785WA0272802931
B1735124055185N00412778WA0272702931
B1735134055189N00412771WA0272502930
B1735144055193N00412764WA0272402929
B1735154055197N00412756WA0272402927
B1735164055202N00412750WA0272202926
B1735174055206N00412743WA0272002925
B1735184055211N00412737WA0272002924
B1735194055215N00412731WA0271802922
B1735204055219N00412725WA0271702919
B1735214055223N00412720WA0271302917
B1735224055227N00412714WA0271102915
B1735234055231N00412709WA0271002913
B1735244055234N00412704WA0270802912
B1735254055238N00412700WA0270702909
B1735264055243N00412696WA0270302906
B1735274055247N00412691WA0269902904
B1735284055251N00412686WA0269802901
B1735294055255N00412679WA0269602899
B1735304055258N00412673WA0269402897
B1735314055263N00412666WA0269202894
B1735324055267N00412659WA0268902891
B1735334055271N00412651WA0268702889
B1735344055275N00412643WA0268502887
B1735354055278N00412635WA0268502887
B1735364055282N00412628WA0268602886
B1735374055285N00412621WA0268402885
B1735384055287N00412615WA0268102883
B1735394055290N00412607WA0267902880
B1735404055293N00412599WA0267702878
B1735414055297N00412591WA0267402876
B1735424055300N00412581WA0267402875
B1735434055302N00412571WA0267402874
B1735444055303N00412561WA0267302874
B1735454055305N00412551WA0267202873
B1735464055307N00412542WA0267002872
B1735474055309N00412532WA0267002871
B1735484055310N00412522WA0266702869
B1735494055311N00412511WA0266602867
B1735504055312N00412501WA0266402865
B1735514055313N00412490WA0266302863
B1735524055315N00412479WA0266202862
B1735534055317N00412469WA0266202863
B1735544055319N00412460WA0266302864
B1735554055321N00412453WA0266302865
B1735564055322N00412445WA0266202864
B1735574055323N00412437WA0266002861
B1735584055325N00412428WA0265702858
B1735594055327N00412419WA0265602857
B1736004055330N00412410WA0265602856
B1736014055333N00412401WA0265602856
B1736024055336N00412394WA0265602856
B1736034055339N00412386WA0265402855
B1736044055342N00412377WA0265402853
B1736054055345N00412368WA0265302852
B1736064055348N00412359WA0265502852
B1736074055351N00412350WA0265602854
B1736084055354N00412342WA0265602855
B1736094055356N00412335WA0265602857
B1736104055358N00412328WA0265702857
B1736114055360N00412321WA0265802858
B1736124055362N00412313WA0265702858
B1736134055362N00412303WA0265802860
B1736144055361N00412294WA0266002862
B1736154055360N00412286WA0266202864
B1736164055358N00412279WA0266302866
B1736174055357N00412271WA0266502867
B1736184055357N00412263WA0266402867
B1736194055357N00412255WA0266402867
B1736204055357N00412246WA0266602868
B1736214055357N00412237WA0266702869
B1736224055357N00412228WA0266802871
B1736234055358N00412220WA0267002873
B1736244055359N00412213WA0267102874
B1736254055359N00412205WA0267202875
B1736264055360N00412198WA0267302875
B1736274055361N00412190WA0267302876
B1736284055362N00412183WA0267402877
B1736294055363N00412176WA0267502878
B1736304055364N00412169WA0267502879
B1736314055365N00412162WA0267302878
B1736324055365N00412154WA0267202876
B1736334055366N00412146WA0267102875
B1736344055368N00412137WA0267002874
B1736354055369N00412129WA0267102874
B1736364055372N00412121WA0267302875
B1736374055374N00412114WA0267402875
B1736384055376N00412108WA0267302875
B1736394055378N00412101WA0267102874
B1736404055381N00412094WA0267002871
B1736414055384N00412086WA0266802870
B1736424055387N00412078WA0266702868
B1736434055390N00412071WA0266702867
B1736444055393N00412063WA0266702867
B1736454055397N00412055WA0266702867
B1736464055400N00412048WA0266802867
B1736474055403N00412041WA0266902867
B1736484055406N00412034WA0267002868
B1736494055410N00412028WA0267002869
B1736504055413N00412022WA0267002870
B1736514055417N00412015WA0267002869
B1736524055420N00412009WA0267002869
B1736534055424N00412002WA0267002869
B1736544055428N00411995WA0267002869
B1736554055431N00411987WA0267102870
B1736564055434N00411979WA0267202871
B1736574055436N00411971WA0267202872
B1736584055437N00411963WA0267302873
B1736594055439N00411955WA0267302873
B1737004055441N00411947WA0267302873
B1737014055444N00411938WA0267402874
B1737024055446N00411930WA0267402876
B1737034055448N00411922WA0267602877
B1737044055450N00411915WA0267502877
B1737054055451N00411909WA0267402877
B1737064055453N00411903WA0267202875
B1737074055454N00411895WA0267102874
B1737084055456N00411888WA0267102872
B1737094055458N00411879WA0267102871
B1737104055460N00411871WA0267102871
B1737124055463N00411859WA0267102872
B1737124055464N00411855WA0267102872
B1737134055465N00411847WA0267102872
B1737164055471N00411826WA0267102872
B1737164055472N00411822WA0267102872
B1737174055473N00411818WA0267202872
B1737184055475N00411809WA0267302873
B1737194055477N00411800WA0267402874
B1737204055478N00411792WA0267602876
B1737214055478N00411783WA0267802878
B1737224055479N00411774WA0267902880
B1737234055480N00411766WA0268002881
B1737244055480N00411758WA0268102883
B1737254055480N00411749WA0268302884
B1737264055480N00411741WA0268502885
B1737274055481N00411732WA0268602887
B1737284055481N00411723WA0268702888
B1737294055482N00411715WA0268802889
B1737304055483N00411707WA0269002891
B1737314055484N00411698WA0268902890
B1737324055484N00411690WA0269002890
B1737334055485N00411680WA0269102891
B1737344055485N00411670WA0269102892
B1737354055485N00411661WA0269202893
B1737364055486N00411652WA0269202893
B1737374055486N00411643WA0269002892
B1737384055488N00411633WA0269002891
B1737394055489N00411623WA0268802890
B1737404055491N00411612WA0268802889
B1737414055492N00411601WA0268802889
B1737424055493N00411591WA0268802890
B1737434055494N00411581WA0268902890
B1737444055496N00411571WA0268902890
B1737454055497N00411561WA0268802890
B1737464055499N00411551WA0268802889
B1737474055501N00411541WA0268702889
B1737484055503N00411531WA0268802890
B1737494055505N00411521WA0268802890
B1737504055507N00411512WA0268702891
B1737514055508N00411502WA0268802891
B1737524055510N00411493WA0268802890
B1737534055512N00411483WA0268702890
B1737544055514N00411473WA0268702889
B1737554055515N00411464WA0268702890
B1737564055517N00411454WA0268602890
B1737574055518N00411445WA0268602890
B1737584055519N00411435WA0268602889
B1737594055521N00411426WA0268502888
B1738004055523N00411416WA0268402887
B1738014055525N00411406WA0268202886
B1738024055527N00411396WA0268202885
B1738034055529N00411386WA0268202884
B1738044055531N00411376WA0268102883
B1738054055532N00411366WA0268002883
B1738064055534N00411356WA0267902882
B1738074055535N00411346WA0267802881
B1738084055536N00411336WA0267702880
B1738094055538N00411326WA0267602879
B1738104055540N00411316WA0267602878
B1738114055542N00411306WA0267502878
B1738124055544N00411298WA0267602878
B1738134055546N00411290WA0267502878
B1738144055547N00411284WA0267502878
B1738154055548N00411278WA0267202876
B1738164055548N00411271WA0266902872
B1738174055550N00411263WA0266702869
B1738184055552N00411254WA0266502866
B1738194055555N00411246WA0266202864
B1738204055557N00411238WA0266202863
B1738214055558N00411230WA0266002861
B1738224055560N00411222WA0265702858
B1738234055562N00411214WA0265502855
B1738244055565N00411206WA0265302852
B1738254055567N00411197WA0265002850
B1738264055569N00411189WA0264902849
B1738274055571N00411181WA0264702847
B1738284055573N00411173WA0264502845
B1738294055575N00411165WA0264202842
B1738304055577N00411156WA0263902839
B1738314055580N00411147WA0263802836
B1738324055582N00411138WA0263502834
B1738334055584N00411129WA0263302832
B1738344055587N00411120WA0263202831
B1738354055590N00411112WA0262902829
B1738364055592N00411103WA0262802828
B1738374055594N00411095WA0262702826
B1738384055597N00411087WA0262502824
B1738394055600N00411080WA0262402823
B1738404055603N00411072WA0262202821
B1738414055607N00411065WA0262102820
B1738424055610N00411058WA0262002818
B1738434055614N00411051WA0261702816
B1738444055618N00411044WA0261702814
B1738454055621N00411037WA0261602813
B1738464055624N00411030WA0261502812
B1738474055627N00411024WA0261502811
B1738484055630N00411018WA0261402810
B1738494055633N00411011WA0261102809
B1738504055636N00411005WA0261002806
B1738514055639N00410998WA0260802804
B1738524055642N00410991WA0260602802
B1738534055645N00410984WA0260502801
B1738544055647N00410977WA0260302800
B1738554055649N00410969WA0260202798
B1738564055651N00410962WA0260002796
B1738574055653N00410953WA0259802794
B1738584055654N00410945WA0259602792
B1738594055656N00410937WA0259502790
B1739004055659N00410929WA0259302789
B1739014055662N00410921WA0259202788
B1739024055665N00410914WA0258902786
B1739034055668N00410906WA0258802784
B1739044055672N00410899WA0258602782
B1739054055675N00410892WA0258402780
B1739064055679N00410884WA0258302779
B1739074055683N00410877WA0258202777
B1739084055688N00410869WA0258002776
B1739094055692N00410862WA0258002774
B1739104055696N00410856WA0257802773
B1739114055701N00410850WA0257902772
B1739124055707N00410845WA0257702773
B1739134055712N00410840WA0257802771
B1739144055717N00410836WA0257402771
B1739154055722N00410832WA0257302770
B1739164055727N00410828WA0257102769
B1739174055731N00410823WA0256602768
B1739184055735N00410818WA0256502767
B1739194055739N00410813WA0256402766
B1739204055743N00410807WA0256002765
B1739214055746N00410800WA0255802764
B1739224055749N00410794WA0255702763
B1739234055752N00410787WA0255702762
B1739244055756N00410781WA0255102761
B1739254055759N00410775WA0254902759
B1739264055763N00410769WA0254802758
B1739274055766N00410762WA0254602757
B1739284055769N00410755WA0254502756
B1739294055772N00410749WA0254502755
B1739304055775N00410742WA0254202754
B1739314055779N00410736WA0254002752
B1739324055782N00410730WA0254102751
B1739334055787N00410723WA0254102750
B1739344055791N00410716WA0254102748
B1739354055794N00410710WA0254102747
B1739364055797N00410703WA0254002744
B1739374055800N00410697WA0253902741
B1739384055803N00410689WA0253802738
B1739394055805N00410682WA0253802735
B1739404055807N00410673WA0253702734
B1739414055809N00410665WA0253602734
B1739424055811N00410658WA0253502732
B1739434055814N00410651WA0253402730
B1739444055816N00410644WA0253202727
B1739454055818N00410636WA0253002723
B1739464055820N00410628WA0252802721
B1739474055822N00410620WA0252702719
B1739484055824N00410612WA0252602718
B1739494055826N00410605WA0252502717
B1739504055829N00410598WA0252302716
B1739514055831N00410591WA0252202715
B1739524055833N00410584WA0252002714
B1739534055835N00410576WA0251902713
B1739544055837N00410568WA0251802712
B1739554055839N00410561WA0251902711
B1739564055841N00410553WA0251802711
B1739574055843N00410544WA0251702710
B1739584055844N00410536WA0251702710
B1739594055845N00410528WA0251702710
B1740004055845N00410520WA0251702710
B1740014055846N00410512WA0251602708
B1740024055847N00410504WA0251402706
B1740034055849N00410495WA0251702705
B1740044055850N00410486WA0251402704
B1740054055852N00410477WA0251402704
B1740064055853N00410469WA0251402705
B1740074055855N00410461WA0251402704
B1740084055856N00410454WA0251302703
B1740094055859N00410445WA0251202702
B1740104055861N00410437WA0251202701
B1740114055864N00410429WA0251202701
B1740124055867N00410421WA0251202702
B1740134055869N00410414WA0251202701
B1740144055872N00410407WA0251002700
B1740154055875N00410399WA0251002699
B1740164055877N00410391WA0250802698
B1740174055879N00410383WA0250702697
B1740184055881N00410375WA0250702696
B1740194055883N00410367WA0250602695
B1740204055885N00410359WA0250402695
B1740214055887N00410351WA0250002694
B1740224055889N00410343WA0249802693
B1740234055891N00410336WA0249402692
B1740244055892N00410329WA0249202691
B1740254055893N00410322WA0248802690
B1740264055895N00410315WA0248802689
B1740274055898N00410307WA0248602688
B1740284055900N00410299WA0248402686
B1740294055902N00410292WA0248202685
B1740304055905N00410284WA0248102684
B1740314055908N00410276WA0247902682
B1740324055911N00410268WA0247802681
B1740334055913N00410260WA0247602680
B1740344055916N00410252WA0247502678
B1740354055919N00410244WA0247302677
B1740364055921N00410236WA0247302676
B1740374055924N00410229WA0247202675
B1740384055927N00410221WA0247302673
B1740394055930N00410214WA0247502673
B1740404055933N00410206WA0247502672
B1740414055936N00410199WA0247502671
B1740424055939N00410191WA0247402670
B1740434055941N00410184WA0247402668
B1740444055945N00410176WA0247502667
B1740454055947N00410168WA0247402667
B1740464055950N00410160WA0247402665
B1740474055952N00410153WA0247202665
B1740484055953N00410145WA0247402664
B1740494055955N00410136WA0247102663
B1740504055957N00410128WA0247102663
B1740514055958N00410119WA0247102662
B1740524055960N00410111WA0247102661
B1740534055961N00410103WA0247002662
B1740544055963N00410094WA0247102663
B1740554055965N00410086WA0247202665
B1740564055967N00410079WA0247302666
B1740574055969N00410073WA0247302667
B1740584055971N00410067WA0247302666
B1740594055973N00410061WA0247202665
B1741004055975N00410053WA0247302664
B1741014055977N00410046WA0247302664
B1741024055980N00410039WA0247302664
B1741034055982N00410032WA0247302663
B1741044055984N00410025WA0247402663
B1741054055986N00410018WA0247302662
B1741064055988N00410010WA0247302662
B1741074055989N00410002WA0247302662
B1741084055990N00409994WA0247402663
B1741094055990N00409987WA0247502663
B1741104055990N00409979WA0247602664
B1741114055990N00409971WA0247602664
B1741124055990N00409963WA0247702665
B1741134055990N00409956WA0247802666
B1741144055988N00409949WA0247802666
B1741154055986N00409943WA0247702666
B1741164055982N00409937WA0247802666
B1741174055978N00409931WA0248002668
B1741184055975N00409925WA0248202670
B1741194055973N00409919WA0248302671
B1741204055971N00409913WA0248302672
B1741214055971N00409906WA0248402672
B1741224055971N00409900WA0248302672
B1741234055973N00409893WA0248202670
B1741244055976N00409885WA0248202669
B1741254055980N00409878WA0248202669
B1741264055985N00409872WA0248202669
B1741274055991N00409867WA0248402670
B1741284055996N00409862WA0248502671
B1741294056002N00409858WA0248502672
B1741304056007N00409854WA0248602673
B1741314056013N00409850WA0248702674
B1741324056018N00409844WA0248702674
B1741334056021N00409836WA0248702675
B1741344056022N00409827WA0248902675
B1741354056023N00409818WA0248802676
B1741364056025N00409811WA0248702677
B1741374056028N00409804WA0248602677
B1741384056029N00409797WA0248502677
B1741394056030N00409790WA0248302676
B1741404056029N00409782WA0248202674
B1741414056027N00409773WA0248302673
B1741424056025N00409766WA0248302674
B1741434056023N00409759WA0248402675
B1741444056022N00409752WA0248402675
B1741454056020N00409745WA0248402675
B1741464056018N00409739WA0248302674
B1741474056014N00409733WA0248502674
B1741484056009N00409729WA0248602676
B1741494056005N00409724WA0248702677
B1741504056002N00409719WA0248902678
B1741514056000N00409714WA0249002679
B1741524055997N00409709WA0249002680
B1741534055995N00409704WA0249002681
B1741544055993N00409700WA0249002681
B1741554055990N00409696WA0248902680
B1741564055986N00409695WA0248502679
B1741574055982N00409698WA0248302677
B1741584055979N00409703WA0248302674
B1741594055977N00409710WA0248302673
B1742004055978N00409717WA0248302673
B1742014055981N00409724WA0248302672
B1742024055985N00409730WA0248302672
B1742034055988N00409736WA0248202672
B1742044055993N00409742WA0248102671
B1742054055998N00409748WA0248002670
B1742064056004N00409753WA0248002668
B1742074056011N00409758WA0248002667
B1742084056018N00409764WA0248102669
B1742094056024N00409770WA0248102670
B1742104056029N00409775WA0248102670
B1742114056035N00409780WA0248102670
B1742124056040N00409784WA0248002669
B1742134056047N00409789WA0247902668
B1742144056054N00409793WA0247802667
B1742154056062N00409796WA0247802666
B1742164056069N00409799WA0247802666
B1742174056076N00409802WA0247802667
B1742184056083N00409805WA0247802667
B1742194056090N00409808WA0247602666
B1742204056098N00409810WA0247502665
B1742214056106N00409812WA0247502664
B1742224056114N00409814WA0247502664
B1742234056122N00409814WA0247702666
B1742244056129N00409815WA0247902668
B1742254056135N00409814WA0248002670
B1742264056141N00409814WA0248102671
B1742274056147N00409814WA0248002671
B1742284056153N00409812WA0248002670
B1742294056158N00409809WA0248002669
B1742304056164N00409805WA0247902669
B1742314056169N00409800WA0247902668
B1742324056174N00409794WA0247802668
B1742334056179N00409789WA0247902668
B1742344056183N00409783WA0247902667
B1742354056187N00409776WA0247902667
B1742364056191N00409769WA0247802667
B1742374056194N00409762WA0248002667
B1742384056196N00409755WA0247902667
B1742394056198N00409748WA0247902667
B1742404056199N00409741WA0248002667
B1742414056201N00409733WA0247902667
B1742424056202N00409725WA0247802667
B1742434056203N00409717WA0247802667
B1742444056202N00409710WA0247802666
B1742454056201N00409702WA0247702666
B1742464056201N00409695WA0247602665
B1742474056200N00409687WA0247502664
B1742484056200N00409679WA0247702664
B1742494056199N00409671WA0247602663
B1742504056198N00409664WA0247602664
B1742514056198N00409657WA0247702665
B1742524056197N00409650WA0247702665
B1742534056196N00409643WA0247602664
B1742544056195N00409636WA0247602664
B1742554056193N00409628WA0247502663
B1742564056193N00409620WA0247602663
B1742574056192N00409611WA0247702664
B1742584056192N00409602WA0247702665
B1742594056192N00409594WA0247902667
B1743004056192N00409586WA0248002668
B1743014056192N00409579WA0248102669
B1743024056191N00409571WA0248202670
B1743034056190N00409564WA0248202671
B1743044056187N00409557WA0248202671
B1743054056184N00409550WA0248202671
B1743064056181N00409543WA0248402672
B1743074056179N00409536WA0248402673
B1743084056177N00409528WA0248502674
B1743094056175N00409521WA0248602674
B1743104056172N00409515WA0248602675
B1743114056171N00409508WA0248602675
B1743124056171N00409500WA0248702675
B1743134056170N00409492WA0248602675
B1743144056170N00409483WA0248702675
B1743154056170N00409474WA0248702676
B1743164056170N00409466WA0248802677
B1743174056171N00409458WA0248902677
B1743184056172N00409450WA0248802677
B1743194056172N00409442WA0248602676
B1743204056173N00409433WA0248602676
B1743214056175N00409423WA0248602675
B1743224056176N00409413WA0248602675
B1743234056178N00409403WA0248502675
B1743244056179N00409393WA0248602676
B1743254056180N00409383WA0248702676
B1743264056182N00409373WA0248802677
B1743274056183N00409364WA0248902678
B1743284056184N00409354WA0249102680
B1743294056186N00409346WA0249302682
B1743304056187N00409337WA0249402684
B1743314056188N00409330WA0249502686
B1743324056189N00409322WA0249602687
B1743334056189N00409315WA0249502688
B1743344056187N00409307WA0249402688
B1743354056184N00409300WA0249402687
B1743364056181N00409292WA0249602687
B1743374056179N00409284WA0249702688
B1743384056178N00409276WA0249702689
B1743394056177N00409268WA0249802690
B1743404056178N00409260WA0249702690
B1743414056179N00409251WA0249802690
B1743424056181N00409242WA0249702688
B1743434056184N00409233WA0249702689
B1743444056186N00409224WA0249802690
B1743454056188N00409216WA0249902691
B1743464056191N00409208WA0250102692
B1743474056194N00409201WA0250102692
B1743484056197N00409194WA0250102692
B1743494056202N00409188WA0250102692
B1743504056207N00409182WA0250102692
B1743514056213N00409177WA0250002692
B1743524056218N00409172WA0250102692
B1743544056233N00409160WA0250002691
B1743554056236N00409158WA0250002690
B1743554056239N00409155WA0250002690
B1743564056246N00409150WA0250002691
B1743574056252N00409144WA0250102692
B1743584056258N00409138WA0250302693
B1743594056264N00409132WA0250402695
B1744004056269N00409127WA0250502695
B1744014056274N00409122WA0250602696
B1744024056280N00409117WA0250602697
B1744034056287N00409113WA0250802697
B1744044056294N00409109WA0250802699
B1744054056301N00409106WA0251002701
B1744064056308N00409101WA0251202703
B1744074056314N00409097WA0251302704
B1744084056320N00409093WA0251302705
B1744094056326N00409089WA0251302704
B1744104056333N00409084WA0251302703
B1744114056339N00409078WA0251202703
B1744124056344N00409071WA0251102703
B1744134056350N00409064WA0251302703
B1744144056356N00409058WA0251502704
B1744154056363N00409053WA0251502704
B1744164056370N00409050WA0251402705
B1744174056377N00409048WA0251502705
B1744184056384N00409047WA0251702705
B1744194056391N00409045WA0251602706
B1744204056398N00409043WA0251602706
B1744214056405N00409041WA0251702706
B1744224056411N00409040WA0251702707
B1744234056418N00409038WA0251702708
B1744244056424N00409037WA0251602707
B1744254056430N00409036WA0251602707
B1744264056436N00409034WA0251502706
B1744274056443N00409032WA0251202705
B1744284056450N00409030WA0251202704
B1744294056457N00409028WA0251102703
B1744304056463N00409025WA0250902701
B1744314056469N00409021WA0250802700
B1744324056475N00409018WA0250702698
B1744334056482N00409015WA0250502697
B1744344056489N00409013WA0250402695
B1744354056496N00409012WA0250302694
B1744364056502N00409010WA0250302693
B1744374056509N00409007WA0250102692
B1744384056515N00409002WA0250002690
B1744394056520N00408997WA0249802689
B1744404056526N00408992WA0249802688
B1744414056531N00408987WA0249602687
B1744424056537N00408982WA0249602685
B1744434056544N00408978WA0249602685
B1744444056550N00408975WA0249502685
B1744454056556N00408974WA0249502684
B1744464056562N00408974WA0249202683
B1744474056569N00408975WA0249002682
B1744484056576N00408977WA0248902680
B1744494056584N00408980WA0248802678
B1744504056592N00408983WA0248702678
B1744514056599N00408985WA0248702678
B1744524056607N00408986WA0248702678
B1744534056614N00408987WA0248802679
B1744544056622N00408989WA0248902679
B1744554056629N00408991WA0248902680
B1744564056636N00408993WA0248902680
B1744574056642N00408994WA0248902679
B1744584056650N00408996WA0248802679
B1744594056657N00408997WA0248802678
B1745004056664N00408999WA0248802678
B1745014056672N00409001WA0248802678
B1745024056679N00409002WA0248802678
B1745034056686N00409004WA0248802678
B1745044056693N00409005WA0248802678
B1745054056700N00409007WA0248902678
B1745064056707N00409009WA0248902678
B1745074056715N00409010WA0248802678
B1745084056722N00409011WA0248802678
B1745094056729N00409012WA0248802678
B1745104056737N00409012WA0248802678
B1745114056744N00409013WA0248802677
B1745124056752N00409014WA0248702677
B1745134056760N00409015WA0248602676
B1745144056768N00409015WA0248602676
B1745154056775N00409015WA0248602675
B1745164056783N00409016WA0248502674
B1745174056792N00409016WA0248302673
B1745184056800N00409017WA0248402673
B1745194056809N00409017WA0248402673
B1745204056817N00409017WA0248302672
B1745214056825N00409018WA0248302672
B1745224056834N00409018WA0248302672
B1745234056842N00409019WA0248402672
B1745244056850N00409019WA0248502672
B1745254056858N00409020WA0248502673
B1745264056865N00409021WA0248702675
B1745274056873N00409021WA0248902677
B1745284056880N00409022WA0249102679
B1745294056886N00409022WA0249302681
B1745304056893N00409024WA0249602684
B1745314056899N00409026WA0249802686
B1745324056904N00409028WA0249902689
B1745334056910N00409031WA0250102691
B1745344056914N00409034WA0250202692
B1745354056919N00409039WA0250302692
B1745364056921N00409046WA0250202692
B1745374056922N00409054WA0250302692
B1745384056917N00409060WA0250302692
B1745394056912N00409062WA0250302693
B1745404056907N00409059WA0250402693
B1745414056903N00409053WA0250502694
B1745424056901N00409045WA0250602695
B1745434056904N00409036WA0250702696
B1745444056908N00409028WA0250902697
B1745454056914N00409022WA0251002700
B1745464056920N00409017WA0251402703
B1745474056926N00409013WA0251602706
B1745484056932N00409009WA0251702707
B1745494056938N00409007WA0251902709
B1745504056944N00409007WA0252102710
B1745514056951N00409010WA0252102711
B1745524056957N00409014WA0252302712
B1745534056961N00409020WA0252402713
B1745544056963N00409027WA0252502715
B1745554056962N00409034WA0252502715
B1745564056959N00409039WA0252602716
B1745574056954N00409042WA0252602717
B1745584056948N00409041WA0252802718
B1745594056943N00409038WA0252802719
B1746004056939N00409034WA0253102721
B1746014056936N00409029WA0253202724
B1746024056933N00409024WA0253502726
B1746034056931N00409017WA0253502726
B1746044056931N00409010WA0253502726
B1746054056932N00409001WA0253602725
B1746064056935N00408992WA0253702726
B1746074056939N00408983WA0253902728
B1746084056943N00408975WA0254402732
B1746094056947N00408968WA0254602736
B1746104056951N00408962WA0254902739
B1746114056955N00408957WA0255002741
B1746124056958N00408953WA0255002743
B1746134056963N00408952WA0254802744
B1746144056970N00408955WA0254902744
B1746154056977N00408960WA0254902745
B1746164056983N00408966WA0255202747
B1746174056989N00408971WA0255502751
B1746184056994N00408976WA0255802754
B1746194057000N00408980WA0256002755
B1746204057004N00408986WA0256202756
B1746214057006N00408992WA0256102756
B1746224057007N00408999WA0256202756
B1746234057005N00409006WA0256202756
B1746244057000N00409011WA0256402757
B1746254056994N00409011WA0256602758
B1746264056990N00409008WA0256702759
B1746274056986N00409001WA0256702760
B1746284056984N00408993WA0256902761
B1746294056984N00408984WA0256902762
B1746304056985N00408975WA0257202764
B1746314056987N00408966WA0257302767
B1746324056989N00408958WA0257602770
B1746334056991N00408950WA0257802772
B1746344056993N00408943WA0257902774
B1746354056994N00408936WA0258002776
B1746364056996N00408929WA0258102777
B1746374056998N00408924WA0258102779
B1746384057004N00408920WA0258002779
B1746394057012N00408918WA0258102780
B1746404057020N00408917WA0258302781
B1746414057028N00408915WA0258302783
B1746424057035N00408913WA0258302784
B1746434057041N00408910WA0258302784
B1746444057048N00408909WA0258302784
B1746454057055N00408910WA0258202783
B1746464057062N00408914WA0258202782
B1746474057067N00408919WA0258202781
B1746484057073N00408925WA0258302781
B1746494057078N00408931WA0258402782
B1746504057082N00408938WA0258502783
B1746514057086N00408945WA0258702783
B1746524057089N00408952WA0258602783
B1746534057091N00408959WA0258802783
B1746544057091N00408967WA0258902784
B1746554057091N00408975WA0258802785
B1746564057089N00408982WA0259002788
B1746574057088N00408988WA0259202790
B1746584057086N00408994WA0259302791
B1746594057084N00408999WA0259302791
B1747004057082N00409003WA0259402792
B1747014057077N00409005WA0259502791
B1747024057072N00409005WA0259502791
B1747034057067N00409004WA0259602792
B1747044057062N00409003WA0259802794
B1747054057057N00409001WA0259902796
B1747064057052N00408999WA0260002797
B1747074057048N00408997WA0260002797
B1747084057043N00408994WA0260102799
B1747094057038N00408991WA0260302800
B1747104057034N00408987WA0260502802
B1747114057029N00408984WA0260502803
B1747124057026N00408980WA0260602804
B1747134057023N00408974WA0260702804
B1747144057021N00408966WA0260602804
B1747154057021N00408957WA0260602804
B1747164057022N00408948WA0260802805
B1747174057024N00408939WA0260902807
B1747184057027N00408932WA0261002808
B1747194057030N00408924WA0261202810
B1747204057034N00408917WA0261302811
B1747214057037N00408910WA0261502813
B1747224057042N00408904WA0261502813
B1747234057048N00408900WA0261502814
B1747244057055N00408899WA0261502814
B1747254057062N00408900WA0261702814
B1747264057069N00408902WA0261702816
B1747274057075N00408905WA0261902818
B1747284057081N00408908WA0262102819
B1747294057086N00408911WA0262202820
B1747304057091N00408915WA0262302821
B1747314057096N00408920WA0262402822
B1747324057101N00408925WA0262602823
B1747334057104N00408932WA0262702824
B1747344057105N00408938WA0262802826
B1747354057105N00408944WA0262802827
B1747364057103N00408950WA0262802828
B1747374057100N00408953WA0262802828
B1747384057095N00408955WA0262802828
B1747394057090N00408952WA0262802828
B1747404057086N00408946WA0263002829
B1747414057083N00408939WA0263202830
B1747424057082N00408930WA0263302831
B1747434057081N00408922WA0263402832
B1747444057082N00408913WA0263502833
B1747454057084N00408905WA0263602834
B1747464057088N00408897WA0263602834
B1747474057092N00408889WA0263802834
B1747484057098N00408882WA0263802836
B1747494057103N00408875WA0263902837
B1747504057107N00408868WA0264102839
B1747514057112N00408861WA0264202840
B1747524057117N00408855WA0264202841
B1747534057122N00408849WA0264102841
B1747544057128N00408844WA0264002839
B1747554057134N00408840WA0263802838
B1747564057140N00408835WA0263802837
B1747574057147N00408829WA0263902837
B1747584057154N00408823WA0264002838
B1747594057160N00408818WA0264002839
B1748004057165N00408813WA0263802839
B1748014057171N00408809WA0263902838
B1748024057178N00408803WA0263802836
B1748034057184N00408798WA0263702836
B1748044057192N00408794WA0263702835
B1748054057199N00408790WA0263602836
B1748064057206N00408786WA0263702836
B1748074057213N00408782WA0263702836
B1748084057219N00408778WA0263702837
B1748094057225N00408774WA0263702836
B1748104057231N00408771WA0263502835
B1748114057237N00408767WA0263402834
B1748124057244N00408763WA0263202832
B1748134057250N00408757WA0262702830
B1748144057255N00408751WA0263002828
B1748154057260N00408744WA0263102828
B1748164057264N00408738WA0263002828
B1748174057269N00408732WA0262902827
B1748184057274N00408726WA0262802826
B1748194057278N00408720WA0262702824
B1748204057282N00408713WA0262602823
B1748214057287N00408705WA0262502823
B1748224057291N00408698WA0262502823
B1748234057295N00408691WA0262502823
B1748244057299N00408684WA0262502823
B1748254057302N00408676WA0262402823
B1748264057305N00408668WA0262402822
B1748274057307N00408661WA0262202820
B1748284057310N00408653WA0262002819
B1748294057312N00408646WA0261902817
B1748304057314N00408638WA0261702815
B1748314057316N00408630WA0261502813
B1748324057318N00408621WA0261202810
B1748334057319N00408612WA0261102808
B1748344057319N00408604WA0261002806
B1748354057318N00408595WA0260802805
B1748364057317N00408587WA0260602803
B1748374057315N00408579WA0260202801
B1748384057314N00408572WA0259902799
B1748394057312N00408565WA0259702797
B1748404057310N00408557WA0259302795
B1748414057308N00408549WA0259202793
B1748424057306N00408541WA0258902791
B1748434057304N00408532WA0258902789
B1748444057302N00408524WA0258802789
B1748454057301N00408515WA0258802790
B1748464057300N00408507WA0258602789
B1748474057300N00408498WA0258502788
B1748484057300N00408490WA0258202787
B1748494057300N00408481WA0258402786
B1748504057301N00408473WA0258202785
B1748514057303N00408464WA0258102784
B1748524057306N00408456WA0257902783
B1748534057308N00408448WA0257802782
B1748544057310N00408439WA0257602781
B1748554057312N00408431WA0257302779
B1748564057315N00408423WA0257302778
B1748574057318N00408415WA0256902777
B1748584057320N00408407WA0256702775
B1748594057323N00408400WA0256702774
B1749004057324N00408392WA0256502772
B1749014057326N00408385WA0256102770
B1749024057327N00408378WA0255902768
B1749034057329N00408370WA0255602767
B1749044057332N00408363WA0255402765
B1749054057334N00408355WA0255302764
B1749064057337N00408348WA0254902766
B1749074057340N00408341WA0254902765
B1749084057344N00408332WA0255002763
B1749094057349N00408325WA0255102761
B1749104057354N00408319WA0255202758
B1749114057358N00408313WA0255202757
B1749124057362N00408308WA0255002756
B1749134057365N00408302WA0254902755
B1749144057369N00408296WA0254802754
B1749154057372N00408288WA0254702753
B1749164057375N00408281WA0254702752
B1749174057379N00408273WA0254802751
B1749184057382N00408267WA0254902750
B1749194057385N00408260WA0254802750
B1749204057387N00408254WA0254702749
B1749214057389N00408247WA0254702748
B1749224057391N00408240WA0254602747
B1749234057394N00408232WA0254602746
B1749244057396N00408225WA0254602746
B1749254057398N00408217WA0254602746
B1749264057401N00408210WA0254602745
B1749274057403N00408203WA0254602744
B1749284057406N00408194WA0254702744
B1749294057409N00408185WA0254802744
B1749304057411N00408175WA0255002745
B1749314057412N00408165WA0254902746
B1749324057414N00408155WA0255102746
B1749334057415N00408146WA0255202748
B1749344057416N00408137WA0255402750
B1749354057418N00408129WA0255602752
B1749364057418N00408121WA0255702753
B1749374057418N00408114WA0255802754
B1749384057418N00408107WA0255702755
B1749394057417N00408099WA0255802755
B1749404057416N00408090WA0255602752
B1749414057416N00408079WA0255702753
B1749424057417N00408070WA0256002755
B1749434057418N00408061WA0256202758
B1749444057418N00408053WA0256302760
B1749454057417N00408045WA0256302761
B1749464057416N00408037WA0256402761
B1749474057415N00408029WA0256502762
B1749484057414N00408020WA0256702763
B1749494057412N00408012WA0256902765
B1749504057409N00408006WA0257002767
B1749514057405N00408001WA0257102768
B1749524057400N00407998WA0257102768
B1749534057395N00407997WA0257102767
B1749544057389N00407998WA0257102767
B1749554057384N00408001WA0257102766
B1749564057380N00408008WA0257102766
B1749574057380N00408016WA0257202767
B1749584057381N00408024WA0257302768
B1749594057384N00408030WA0257502769
B1750004057387N00408036WA0257602771
B1750014057391N00408040WA0257702771
B1750024057396N00408044WA0257802772
B1750034057401N00408046WA0257702772
B1750044057407N00408046WA0257602772
B1750054057413N00408042WA0257502772
B1750064057418N00408035WA0257702771
B1750074057421N00408026WA0257902773
B1750084057424N00408019WA0258002775
B1750094057427N00408012WA0258202776
B1750104057428N00408007WA0258202774
B1750114057430N00408000WA0258102773
B1750124057431N00407991WA0258202773
B1750134057431N00407982WA0258302774
B1750144057430N00407972WA0258502775
B1750154057429N00407962WA0258702778
B1750164057429N00407954WA0259002781
B1750174057429N00407945WA0259102784
B1750184057429N00407937WA0259302785
B1750194057428N00407929WA0259602787
B1750204057425N00407922WA0259602789
B1750214057420N00407918WA0259502789
B1750224057414N00407918WA0259502789
B1750234057407N00407919WA0259702789
B1750244057403N00407923WA0259802789
B1750254057404N00407931WA0259902790
B1750264057408N00407937WA0259802791
B1750274057414N00407941WA0259802791
B1750284057421N00407940WA0259902792
B1750294057427N00407935WA0260102794
B1750304057431N00407928WA0260302796
B1750314057434N00407920WA0260402798
B1750324057434N00407912WA0260602800
B1750334057435N00407903WA0260702802
B1750344057434N00407895WA0260902803
B1750354057433N00407887WA0261102805
B1750364057431N00407878WA0261202806
B1750374057430N00407869WA0261302808
B1750384057429N00407861WA0261502810
B1750394057428N00407853WA0261702812
B1750404057426N00407845WA0261902814
B1750414057422N00407839WA0261902814
B1750424057417N00407835WA0261702814
B1750434057411N00407834WA0261802814
B1750444057406N00407836WA0262002814
B1750454057401N00407840WA0262102815
B1750464057398N00407844WA0262302816
B1750474057396N00407850WA0262302817
B1750484057394N00407855WA0262502818
B1750494057393N00407861WA0262502820
B1750504057392N00407866WA0262602821
B1750514057393N00407872WA0262602821
B1750524057394N00407878WA0262602821
B1750534057396N00407884WA0262502821
B1750544057400N00407890WA0262702821
B1750554057405N00407895WA0262702822
B1750564057411N00407899WA0262802824
B1750574057416N00407902WA0263002826
B1750584057421N00407905WA0263102827
B1750594057426N00407908WA0263202828
B1751004057432N00407910WA0263302829
B1751014057438N00407909WA0263302830
B1751024057445N00407906WA0263402831
B1751034057451N00407902WA0263502832
B1751044057457N00407898WA0263702833
B1751054057463N00407894WA0264002837
B1751064057469N00407890WA0264202840
B1751074057474N00407887WA0264502842
B1751084057480N00407884WA0264602845
B1751094057485N00407881WA0264802847
B1751104057490N00407877WA0264702849
B1751114057492N00407869WA0264602850
B1751124057490N00407857WA0264702851
B1751134057485N00407849WA0264802852
B1751144057478N00407845WA0265002854
B1751154057471N00407847WA0265202855
B1751164057466N00407852WA0265302856
B1751174057464N00407859WA0265302858
B1751184057466N00407866WA0265402859
B1751194057469N00407871WA0265602861
B1751204057477N00407873WA0265602862
B1751214057483N00407874WA0265902865
B1751224057490N00407873WA0266202868
B1751234057496N00407872WA0266402871
B1751244057502N00407869WA0266602873
B1751254057508N00407865WA0266702875
B1751264057512N00407859WA0266702876
B1751274057512N00407848WA0266602876
B1751284057510N00407837WA0266702876
B1751294057505N00407829WA0266902877
B1751304057498N00407826WA0266902878
B1751314057492N00407826WA0267002878
B1751324057487N00407830WA0267002878
B1751334057485N00407837WA0267002878
B1751344057486N00407845WA0267002879
B1751354057490N00407852WA0267202880
B1751364057495N00407856WA0267402881
B1751374057500N00407859WA0267802883
B1751384057506N00407860WA0268102886
B1751394057511N00407860WA0268302889
B1751404057516N00407860WA0268502891
B1751414057522N00407858WA0268502892
B1751424057527N00407854WA0268402893
B1751434057529N00407843WA0268502893
B1751444057530N00407832WA0268602895
B1751454057530N00407821WA0268802896
B1751464057528N00407812WA0268902898
B1751474057526N00407803WA0269102899
B1751484057526N00407794WA0269102899
B1751494057526N00407786WA0269102899
B1751504057528N00407778WA0269102899
B1751514057530N00407770WA0269102899
B1751524057533N00407763WA0269002898
B1751534057535N00407755WA0268902897
B1751544057537N00407748WA0268802896
B1751554057537N00407740WA0268802895
B1751564057538N00407732WA0268802894
B1751574057540N00407724WA0268802894
B1751584057542N00407716WA0268802895
B1751594057543N00407708WA0268802895
B1752004057544N00407701WA0268802895
B1752014057545N00407693WA0268802894
B1752024057548N00407686WA0268702893
B1752034057551N00407679WA0268502892
B1752044057556N00407672WA0268402891
B1752054057561N00407667WA0268502891
B1752064057566N00407662WA0268502891
B1752074057572N00407658WA0268502891
B1752084057578N00407655WA0268302890
B1752094057584N00407652WA0268202889
B1752104057590N00407650WA0268102887
B1752114057596N00407647WA0267902885
B1752124057603N00407643WA0267802883
B1752134057610N00407640WA0267602882
B1752144057617N00407636WA0267502881
B1752154057624N00407632WA0267602881
B1752164057630N00407628WA0267502881
B1752174057636N00407625WA0267602881
B1752184057643N00407620WA0267602880
B1752194057650N00407615WA0267602880
B1752204057657N00407610WA0267602881
B1752214057663N00407604WA0267702881
B1752224057669N00407598WA0267802882
B1752234057674N00407592WA0267802882
B1752244057680N00407586WA0267802882
B1752254057685N00407580WA0267802882
B1752264057690N00407573WA0267802882
B1752274057695N00407565WA0267802882
B1752284057698N00407557WA0267802882
B1752294057702N00407549WA0267902883
B1752304057705N00407541WA0268002883
B1752314057709N00407534WA0267902883
B1752324057712N00407525WA0267802882
B1752334057714N00407517WA0267702881
B1752344057717N00407508WA0267602880
B1752354057720N00407499WA0267602879
B1752364057723N00407490WA0267502879
B1752374057726N00407481WA0267602879
B1752384057727N00407472WA0267702879
B1752394057729N00407464WA0267702881
B1752404057732N00407456WA0267802881
B1752414057734N00407448WA0267802881
B1752424057735N00407439WA0267702881
B1752434057736N00407430WA0267802881
B1752444057737N00407421WA0267802882
B1752454057739N00407413WA0267802882
B1752464057742N00407404WA0267902883
B1752474057744N00407396WA0267902884
B1752484057746N00407387WA0268102885
B1752494057748N00407378WA0268202886
B1752504057751N00407369WA0268302887
B1752514057753N00407360WA0268402889
B1752524057755N00407351WA0268502890
B1752534057757N00407343WA0268502890
B1752544057758N00407334WA0268702891
B1752554057760N00407325WA0268802892
B1752564057762N00407316WA0268802892
B1752574057764N00407308WA0268802893
B1752584057767N00407299WA0268802893
B1752594057770N00407290WA0268902894
B1753004057772N00407280WA0269002895
B1753014057774N00407271WA0269202896
B1753024057775N00407262WA0269202898
B1753034057776N00407253WA0269202898
B1753044057777N00407244WA0269302899
B1753054057778N00407235WA0269302899
B1753064057780N00407225WA0269402899
B1753074057782N00407215WA0269402900
B1753084057783N00407206WA0269502901
B1753094057785N00407197WA0269502902
B1753104057787N00407189WA0269602902
B1753114057788N00407180WA0269502902
B1753124057790N00407171WA0269402901
B1753134057793N00407162WA0269502901
B1753144057795N00407152WA0269502901
B1753154057797N00407143WA0269602902
B1753164057799N00407134WA0269702903
B1753174057802N00407126WA0269802904
B1753184057804N00407118WA0269902905
B1753194057806N00407110WA0270002906
B1753204057808N00407101WA0270102906
B1753214057810N00407093WA0270202907
B1753224057812N00407084WA0270402908
B1753234057814N00407075WA0270402909
B1753244057815N00407066WA0270502910
B1753254057816N00407057WA0270602912
B1753264057817N00407048WA0270702912
B1753274057818N00407038WA0270802913
B1753284057819N00407028WA0270802914
B1753294057821N00407017WA0270902915
B1753304057823N00407007WA0271102917
B1753314057825N00406997WA0271202918
B1753324057827N00406987WA0271302919
B1753334057828N00406977WA0271302919
B1753344057829N00406966WA0271302920
B1753354057831N00406955WA0271402921
B1753364057832N00406944WA0271502922
B1753374057833N00406933WA0271702922
B1753384057835N00406923WA0271602923
B1753394057837N00406912WA0271702923
B1753404057839N00406902WA0271702923
B1753414057841N00406891WA0271702923
B1753424057844N00406880WA0271702923
B1753434057846N00406869WA0271702924
B1753444057848N00406858WA0271902925
B1753454057851N00406848WA0272002926
B1753464057853N00406837WA0272002926
B1753474057856N00406827WA0272002927
B1753484057859N00406817WA0272102927
B1753494057863N00406808WA0272102928
B1753504057867N00406798WA0272102928
B1753514057871N00406789WA0272202928
B1753524057876N00406780WA0272202928
B1753534057881N00406770WA0272102928
B1753544057886N00406761WA0272202928
B1753554057891N00406752WA0272402930
B1753564057895N00406744WA0272502933
B1753574057899N00406736WA0272602934
B1753584057903N00406728WA0272602935
B1753594057906N00406721WA0272602935
B1754004057911N00406712WA0272602935
B1754014057916N00406703WA0272602935
B1754024057920N00406694WA0272702936
B1754034057925N00406686WA0272802937
B1754044057930N00406678WA0272902938
B1754054057934N00406670WA0273002939
B1754064057939N00406661WA0273102938
B1754074057944N00406653WA0273102939
B1754084057949N00406644WA0273102939
B1754094057954N00406635WA0273102939
B1754104057959N00406627WA0273202940
B1754114057963N00406618WA0273302941
B1754124057968N00406610WA0273302942
B1754134057972N00406601WA0273402942
B1754144057977N00406593WA0273402942
B1754154057981N00406585WA0273402942
B1754164057986N00406576WA0273302942
B1754174057990N00406568WA0273302942
B1754184057995N00406559WA0273302942
B1754194058000N00406551WA0273402942
B1754204058004N00406543WA0273402943
B1754214058009N00406536WA0273502944
B1754224058013N00406529WA0273502945
B1754234058016N00406523WA0273402945
B1754244058020N00406516WA0273202944
B1754254058025N00406508WA0273102942
B1754264058032N00406500WA0273102941
B1754274058038N00406494WA0273202942
B1754284058044N00406489WA0273202943
B1754294058050N00406484WA0273202942
B1754304058056N00406478WA0273002941
B1754314058062N00406471WA0272902939
B1754324058068N00406464WA0272902938
B1754334058074N00406457WA0272802938
B1754344058080N00406450WA0273002938
B1754354058086N00406444WA0273102938
B1754364058092N00406438WA0272802938
B1754374058097N00406432WA0272702936
B1754384058103N00406425WA0272502934
B1754394058109N00406418WA0272602933
B1754404058114N00406411WA0272402932
B1754414058120N00406403WA0272302931
B1754424058125N00406395WA0272302931
B1754434058131N00406388WA0272102930
B1754444058136N00406382WA0272102930
B1754454058142N00406377WA0272202931
B1754464058149N00406373WA0272102930
B1754474058155N00406370WA0272002929
B1754484058161N00406366WA0271902927
B1754494058168N00406360WA0271702925
B1754504058174N00406354WA0271702924
B1754514058180N00406348WA0271602923
B1754524058186N00406342WA0271502922
B1754534058192N00406336WA0271302922
B1754544058198N00406330WA0271302921
B1754554058204N00406324WA0271002920
B1754564058210N00406318WA0270902918
B1754574058216N00406312WA0270902916
B1754584058222N00406305WA0270602915
B1754594058228N00406298WA0270502913
B1755004058234N00406292WA0270402912
B1755014058240N00406285WA0270402911
B1755024058246N00406277WA0270302909
B1755034058252N00406270WA0270102908
B1755044058258N00406263WA0270202907
B1755054058263N00406255WA0270202907
B1755064058269N00406248WA0270202906
B1755074058274N00406241WA0269902906
B1755084058280N00406234WA0269902905
B1755094058286N00406228WA0269902905
B1755104058291N00406221WA0269802905
B1755114058295N00406214WA0269702904
B1755124058299N00406207WA0269502903
B1755134058303N00406199WA0269402902
B1755144058308N00406192WA0269202899
B1755154058313N00406184WA0269202897
B1755164058318N00406176WA0269002896
B1755174058323N00406169WA0269002896
B1755184058328N00406162WA0268902894
B1755194058332N00406155WA0268802893
B1755204058337N00406148WA0268702891
B1755214058342N00406140WA0268702891
B1755224058346N00406132WA0268602890
B1755234058350N00406125WA0268502890
B1755244058354N00406117WA0268202888
B1755254058357N00406110WA0268102886
B1755264058361N00406103WA0267802882
B1755274058365N00406095WA0267402879
B1755284058369N00406087WA0267102876
B1755294058373N00406078WA0267102875
B1755304058378N00406070WA0267202874
B1755314058382N00406063WA0267002872
B1755324058386N00406055WA0266802870
B1755334058389N00406046WA0266602867
B1755344058392N00406036WA0266302866
B1755354058395N00406027WA0266302866
B1755364058398N00406019WA0266302865
B1755374058402N00406011WA0266102863
B1755384058405N00406003WA0265902860
B1755394058408N00405994WA0265702857
B1755404058411N00405984WA0265402855
B1755414058414N00405975WA0265202853
B1755424058416N00405966WA0265102852
B1755434058419N00405958WA0264902850
B1755444058421N00405950WA0264602848
B1755454058424N00405943WA0264402845
B1755464058427N00405935WA0264202842
B1755474058430N00405927WA0263902840
B1755484058433N00405919WA0263602837
B1755494058437N00405911WA0263402834
B1755504058440N00405902WA0263102831
B1755514058444N00405893WA0262902829
B1755524058448N00405885WA0262602826
B1755534058451N00405876WA0262402823
B1755544058455N00405868WA0262202821
B1755554058458N00405859WA0261802818
B1755564058462N00405850WA0261502815
B1755574058464N00405841WA0261202811
B1755584058467N00405833WA0261002808
B1755594058469N00405824WA0260602804
B1756004058472N00405815WA0260302800
B1756014058474N00405806WA0260002797
B1756024058476N00405796WA0259602794
B1756034058477N00405785WA0259402791
B1756044058479N00405775WA0259202789
B1756054058481N00405766WA0259102788
B1756064058483N00405757WA0258902786
B1756074058486N00405748WA0258702784
B1756084058488N00405740WA0258602783
B1756094058492N00405732WA0258502781
B1756104058495N00405725WA0258402780
B1756114058499N00405718WA0258202779
B1756124058502N00405712WA0258002778
B1756134058505N00405705WA0257702774
B1756144058509N00405698WA0257202771
B1756154058513N00405690WA0257102767
B1756164058517N00405681WA0256802765
B1756174058521N00405674WA0256702764
B1756184058525N00405666WA0256602762
B1756194058529N00405659WA0256402761
B1756204058533N00405652WA0256202759
B1756214058537N00405646WA0256102757
B1756224058542N00405639WA0255902756
B1756234058545N00405633WA0255702754
B1756244058549N00405627WA0255502752
B1756254058553N00405620WA0255302749
B1756264058557N00405613WA0255002746
B1756274058562N00405605WA0254802742
B1756284058566N00405598WA0254602740
B1756294058571N00405590WA0254502739
B1756304058575N00405584WA0254302737
B1756314058579N00405578WA0254102735
B1756324058582N00405572WA0253702732
B1756334058586N00405565WA0253402728
B1756344058590N00405558WA0253102725
B1756354058594N00405550WA0252902723
B1756364058597N00405542WA0252702722
B1756374058601N00405534WA0252502719
B1756384058603N00405527WA0252202717
B1756394058606N00405519WA0252002714
B1756404058608N00405511WA0251702711
B1756414058611N00405503WA0251402708
B1756424058613N00405494WA0251202706
B1756434058615N00405486WA0251002704
B1756444058616N00405477WA0250802702
B1756454058616N00405468WA0250602700
B1756464058616N00405459WA0250402698
B1756474058617N00405451WA0250202695
B1756484058618N00405443WA0250002692
B1756494058619N00405434WA0249702690
B1756504058620N00405424WA0249402687
B1756514058621N00405415WA0249202684
B1756524058622N00405406WA0249002682
B1756534058623N00405397WA0248802680
B1756544058624N00405389WA0248702678
B1756554058626N00405381WA0248502676
B1756564058629N00405373WA0248302675
B1756574058631N00405366WA0248102673
B1756584058633N00405358WA0247902671
B1756594058634N00405350WA0247802669
B1757004058636N00405341WA0247702668
B1757014058637N00405333WA0247602667
B1757024058639N00405325WA0247502666
B1757034058640N00405317WA0247402664
B1757044058642N00405309WA0247102662
B1757054058644N00405302WA0246902660
B1757064058646N00405294WA0246602658
B1757074058649N00405288WA0246502657
B1757084058652N00405281WA0246402655
B1757094058654N00405274WA0246302653
B1757104058657N00405267WA0246302652
B1757114058660N00405260WA0246202651
B1757124058662N00405254WA0246002650
B1757134058664N00405246WA0245902648
B1757144058664N00405237WA0245702646
B1757154058664N00405228WA0245302645
B1757164058664N00405220WA0245402644
B1757174058665N00405212WA0245202642
B1757184058668N00405205WA0245002639
B1757194058672N00405197WA0245002636
B1757204058676N00405189WA0244702635
B1757214058679N00405181WA0244702635
B1757224058683N00405174WA0244702635
B1757234058686N00405168WA0244702635
B1757244058690N00405162WA0244602634
B1757254058694N00405156WA0244502632
B1757264058698N00405149WA0244302631
B1757274058702N00405142WA0244102629
B1757284058706N00405136WA0244102629
B1757294058710N00405130WA0244202629
B1757304058714N00405125WA0244202629
B1757314058719N00405119WA0244202629
B1757324058723N00405114WA0244202628
B1757334058727N00405108WA0244102627
B1757344058732N00405101WA0243902626
B1757354058735N00405093WA0243902626
B1757364058739N00405085WA0243902626
B1757374058742N00405078WA0244002627
B1757384058746N00405071WA0244002626
B1757394058749N00405063WA0243902626
B1757404058752N00405056WA0243902625
B1757414058756N00405048WA0244002626
B1757424058759N00405041WA0244102627
B1757434058762N00405034WA0244102628
B1757444058765N00405028WA0244102628
B1757454058768N00405021WA0244102628
B1757464058772N00405015WA0244102628
B1757474058776N00405008WA0244102628
B1757484058781N00405002WA0244102629
B1757494058784N00404996WA0244202630
B1757504058788N00404991WA0244202630
B1757514058792N00404986WA0244102629
B1757524058797N00404981WA0244002628
B1757534058801N00404974WA0243802626
B1757544058805N00404967WA0243802626
B1757554058809N00404960WA0243702625
B1757564058813N00404953WA0243702625
B1757574058817N00404946WA0243702624
B1757584058820N00404940WA0243602623
B1757594058823N00404933WA0243502622
B1758004058826N00404926WA0243402621
B1758014058830N00404919WA0243202620
B1758024058833N00404912WA0243202619
B1758034058837N00404906WA0242902617
B1758044058841N00404898WA0242802615
B1758054058846N00404891WA0242602613
B1758064058850N00404883WA0242602612
B1758074058854N00404875WA0242602612
B1758084058858N00404867WA0242502611
B1758094058862N00404860WA0242502611
B1758104058865N00404853WA0242402610
B1758114058869N00404846WA0242302609
B1758124058873N00404839WA0242102608
B1758134058877N00404832WA0242102607
B1758144058881N00404825WA0242002605
B1758154058886N00404819WA0241802604
B1758164058891N00404814WA0241802603
B1758174058897N00404809WA0241702602
B1758184058902N00404804WA0241502601
B1758194058907N00404799WA0241402600
B1758204058911N00404793WA0241202599
B1758214058916N00404787WA0241102597
B1758224058920N00404781WA0241102595
B1758234058924N00404774WA0240702593
B1758244058928N00404766WA0240702592
B1758254058931N00404759WA0240502590
B1758264058934N00404751WA0240402589
B1758274058937N00404743WA0240102587
B1758284058940N00404734WA0239902584
B1758294058943N00404725WA0239802583
B1758304058946N00404717WA0239802582
B1758314058948N00404708WA0239602581
B1758324058950N00404701WA0239502580
B1758334058952N00404693WA0239302579
B1758344058954N00404685WA0239002577
B1758354058956N00404676WA0238802574
B1758364058958N00404668WA0238602572
B1758374058960N00404659WA0238302570
B1758384058961N00404651WA0238202568
B1758394058963N00404643WA0237902565
B1758404058965N00404635WA0237302562
B1758414058967N00404626WA0237102559
B1758424058969N00404618WA0236802557
B1758434058971N00404609WA0236602554
B1758444058973N00404602WA0236602552
B1758454058975N00404594WA0236302548
B1758464058976N00404587WA0236002545
B1758474058978N00404579WA0235402541
B1758484058980N00404570WA0235202538
B1758494058982N00404561WA0235002534
B1758504058984N00404553WA0234702531
B1758514058987N00404544WA0234602529
B1758524058989N00404535WA0234302526
B1758534058992N00404526WA0234002523
B1758544058995N00404518WA0233602519
B1758554058999N00404508WA0233302516
B1758564059003N00404499WA0233102513
B1758574059007N00404491WA0232902511
B1758584059011N00404482WA0232802508
B1758594059016N00404474WA0232402505
B1759004059020N00404466WA0232102502
B1759014059025N00404458WA0231802499
B1759024059030N00404450WA0231502495
B1759034059035N00404442WA0231202492
B1759044059040N00404433WA0230902488
B1759054059044N00404425WA0230602485
B1759064059049N00404417WA0230402482
B1759074059055N00404408WA0230102479
B1759084059060N00404400WA0229902477
B1759094059064N00404392WA0229702475
B1759104059068N00404384WA0229402472
B1759114059072N00404375WA0229002469
B1759124059076N00404367WA0228702465
B1759134059079N00404358WA0228302461
B1759144059083N00404348WA0227602457
B1759154059086N00404339WA0227402453
B1759164059089N00404329WA0227202450
B1759174059092N00404319WA0227002447
B1759184059095N00404310WA0226802445
B1759194059098N00404301WA0226802444
B1759204059100N00404292WA0226702443
B1759214059103N00404284WA0226502442
B1759224059105N00404276WA0226202439
B1759234059108N00404268WA0225902436
B1759244059111N00404258WA0225502432
B1759254059113N00404248WA0225402430
B1759264059115N00404238WA0225402428
B1759274059117N00404228WA0225602430
B1759284059118N00404219WA0225702431
B1759294059119N00404211WA0225602432
B1759304059120N00404203WA0225502430
B1759314059121N00404195WA0225302428
B1759324059121N00404186WA0225102425
B1759334059121N00404177WA0224902423
B1759344059120N00404168WA0224702422
B1759354059119N00404160WA0224702421
B1759364059118N00404151WA0224502419
B1759374059117N00404143WA0224302417
B1759384059117N00404135WA0224102415
B1759394059117N00404126WA0224002413
B1759404059117N00404117WA0223802412
B1759414059118N00404109WA0223602410
B1759424059119N00404101WA0223602409
B1759434059120N00404094WA0223402407
B1759444059121N00404086WA0223102405
B1759454059123N00404079WA0222902403
B1759464059125N00404071WA0222802400
B1759474059127N00404064WA0222502398
B1759484059129N00404057WA0222202395
B1759494059130N00404049WA0221902392
B1759504059132N00404042WA0221602389
B1759514059134N00404034WA0221402386
B1759524059136N00404025WA0221202384
B1759534059138N00404017WA0221002382
B1759544059140N00404009WA0220802381
B1759554059142N00404002WA0220702379
B1759564059143N00403994WA0220702377
B1759574059144N00403986WA0220402375
B1759584059146N00403978WA0220102374
B1759594059147N00403970WA0220002373
B1800004059148N00403963WA0220002372
B1800014059150N00403957WA0219802370
B1800024059151N00403950WA0219602368
B1800034059153N00403942WA0219302365
B1800044059155N00403934WA0218802361
B1800054059158N00403924WA0218702358
B1800064059161N00403915WA0218502356
B1800074059163N00403906WA0218302355
B1800084059166N00403898WA0218102352
B1800094059168N00403889WA0217802349
B1800104059171N00403880WA0217602346
B1800114059174N00403870WA0217302343
B1800124059177N00403860WA0217202340
B1800134059180N00403850WA0217102339
B1800144059183N00403841WA0217202340
B1800154059186N00403833WA0217202341
B1800164059188N00403826WA0217102341
B1800174059190N00403817WA0216902339
B1800184059192N00403808WA0216702336
B1800194059193N00403797WA0216502335
B1800204059194N00403787WA0216702336
B1800214059194N00403778WA0216802338
B1800224059194N00403770WA0216902338
B1800234059194N00403762WA0216702338
B1800244059193N00403754WA0216502336
B1800254059192N00403746WA0216302334
B1800264059191N00403736WA0216302333
B1800274059189N00403727WA0216302333
B1800284059188N00403719WA0216402333
B1800294059187N00403710WA0216302333
B1800304059186N00403702WA0216202332
B1800314059186N00403693WA0215902330
B1800324059186N00403684WA0215802328
B1800334059187N00403673WA0215802326
B1800344059188N00403663WA0215802326
B1800354059190N00403653WA0215802327
B1800364059191N00403644WA0215802327
B1800374059192N00403634WA0215602327
B1800384059194N00403625WA0215602326
B1800394059195N00403616WA0215402325
B1800404059198N00403606WA0215502324
B1800414059200N00403597WA0215502324
B1800424059202N00403588WA0215402324
B1800434059204N00403580WA0215402324
B1800444059205N00403572WA0215402323
B1800454059207N00403563WA0215302322
B1800464059209N00403554WA0215302321
B1800474059211N00403545WA0215302321
B1800484059213N00403536WA0215402323
B1800494059214N00403529WA0215502323
B1800504059215N00403522WA0215502323
B1800514059217N00403514WA0215402323
B1800524059218N00403506WA0215402322
B1800534059219N00403497WA0215402322
B1800544059220N00403488WA0215402322
B1800554059219N00403480WA0215302322
B1800564059219N00403472WA0215302321
B1800574059219N00403464WA0215202320
B1800584059219N00403456WA0215102318
B1800594059220N00403447WA0215002317
B1801004059222N00403440WA0214902316
B1801014059224N00403432WA0214702315
B1801024059225N00403424WA0214602314
B1801034059226N00403415WA0214402313
B1801044059227N00403407WA0214302312
B1801054059228N00403398WA0214202311
B1801064059230N00403390WA0214202310
B1801074059231N00403381WA0214202310
B1801084059233N00403373WA0214002310
B1801094059234N00403365WA0214002309
B1801104059235N00403357WA0213902307
B1801114059236N00403348WA0213802305
B1801124059236N00403339WA0213602304
B1801134059237N00403329WA0213602303
B1801144059237N00403320WA0213602302
B1801154059238N00403310WA0213602302
B1801164059238N00403301WA0213502303
B1801174059239N00403292WA0213602302
B1801184059240N00403282WA0213502302
B1801194059240N00403272WA0213502301
B1801204059240N00403262WA0213502300
B1801214059239N00403251WA0213402300
B1801224059238N00403242WA0213502301
B1801234059236N00403232WA0213602302
B1801244059234N00403223WA0213602301
B1801254059233N00403214WA0213402300
B1801264059232N00403204WA0213302299
B1801274059232N00403194WA0213202298
B1801284059232N00403184WA0213102297
B1801294059232N00403174WA0213102296
B1801304059231N00403164WA0213102296
B1801314059230N00403154WA0213102296
B1801324059228N00403145WA0213102296
B1801334059225N00403136WA0213002295
B1801344059222N00403127WA0213002295
B1801354059218N00403119WA0212902295
B1801364059215N00403110WA0213002295
B1801374059213N00403101WA0212802294
B1801384059210N00403092WA0212602293
B1801394059208N00403083WA0212602292
B1801404059206N00403073WA0212502291
B1801414059204N00403063WA0212502291
B1801424059203N00403054WA0212602291
B1801434059203N00403045WA0212402291
B1801444059202N00403037WA0212402290
B1801454059202N00403028WA0212302290
B1801464059202N00403019WA0212202288
B1801474059203N00403010WA0212202288
B1801484059204N00403001WA0212202287
B1801494059204N00402992WA0212102287
B1801504059204N00402984WA0212102287
B1801514059204N00402975WA0212002286
B1801524059204N00402967WA0211902285
B1801534059205N00402958WA0211702284
B1801544059206N00402949WA0211902284
B1801554059208N00402941WA0211802283
B1801564059210N00402934WA0211902283
B1801574059213N00402927WA0211602282
B1801584059215N00402920WA0211602281
B1801594059217N00402911WA0211302280
B1802004059219N00402902WA0211302279
B1802014059220N00402894WA0211302279
B1802024059221N00402885WA0211302279
B1802034059223N00402877WA0211202278
B1802044059225N00402869WA0211102277
B1802054059227N00402861WA0211002276
B1802064059229N00402853WA0210802275
B1802074059231N00402845WA0210802274
B1802084059233N00402837WA0210702272
B1802094059236N00402829WA0210702272
B1802104059238N00402821WA0210702271
B1802114059240N00402813WA0210402271
B1802124059242N00402805WA0210502270
B1802134059244N00402797WA0210402268
B1802144059247N00402789WA0210302267
B1802154059250N00402781WA0210102265
B1802164059253N00402773WA0210102265
B1802174059255N00402765WA0210102265
B1802184059257N00402757WA0210002264
B1802194059259N00402749WA0209902263
B1802204059260N00402741WA0209902262
B1802214059263N00402733WA0209702261
B1802224059266N00402725WA0209602260
B1802234059268N00402717WA0209502260
B1802244059270N00402709WA0209502259
B1802254059272N00402701WA0209402258
B1802264059275N00402694WA0209402257
B1802274059277N00402685WA0209202256
B1802284059279N00402677WA0209102256
B1802294059280N00402668WA0209202256
B1802304059281N00402660WA0209202255
B1802314059283N00402652WA0209102255
B1802324059285N00402644WA0209002254
B1802334059287N00402636WA0208902253
B1802344059288N00402627WA0208802253
B1802354059290N00402619WA0208802253
B1802364059292N00402611WA0208902253
B1802374059294N00402603WA0208902253
B1802384059296N00402596WA0209002253
B1802394059298N00402589WA0209002254
B1802404059300N00402583WA0209102254
B1802414059302N00402577WA0209002254
B1802424059304N00402571WA0209002254
B1802434059305N00402565WA0208802252
B1802444059307N00402558WA0208502250
B1802454059308N00402551WA0208302247
B1802464059310N00402542WA0208102245
B1802474059311N00402534WA0208002244
B1802484059313N00402526WA0207902242
B1802494059315N00402519WA0207702241
B1802504059317N00402512WA0207602239
B1802514059320N00402504WA0207302236
B1802524059323N00402497WA0207102234
B1802534059328N00402490WA0206902232
B1802544059332N00402484WA0206802231
B1802554059336N00402477WA0206702230
B1802564059339N00402470WA0206702229
B1802574059342N00402463WA0206402228
B1802584059346N00402456WA0206202225
B1802594059350N00402448WA0206002223
B1803004059353N00402440WA0205902221
B1803014059355N00402431WA0205802220
B1803024059357N00402423WA0205802220
B1803034059359N00402415WA0205602218
B1803044059361N00402408WA0205402216
B1803054059363N00402400WA0205202212
B1803064059366N00402391WA0204902209
B1803074059370N00402382WA0204802208
B1803084059373N00402374WA0204802207
B1803094059376N00402367WA0204702207
B1803104059379N00402360WA0204602206
B1803114059382N00402353WA0204402204
B1803124059385N00402346WA0204102202
B1803134059388N00402338WA0203902200
B1803144059391N00402330WA0203802198
B1803154059393N00402323WA0203602198
B1803164059396N00402316WA0203602196
B1803174059398N00402309WA0203402194
B1803184059401N00402303WA0203102192
B1803194059404N00402296WA0202802188
B1803204059408N00402290WA0202602186
B1803214059412N00402283WA0202402183
B1803224059416N00402276WA0202202181
B1803234059419N00402269WA0201902178
B1803244059421N00402261WA0201602175
B1803254059424N00402253WA0201402172
B1803264059426N00402245WA0201202170
B1803274059428N00402237WA0201002168
B1803284059431N00402229WA0200802165
B1803294059433N00402222WA0200602164
B1803304059435N00402215WA0200402161
B1803314059438N00402209WA0200102159
B1803324059440N00402202WA0199802156
B1803334059443N00402195WA0199602153
B1803344059445N00402188WA0199302150
B1803354059447N00402179WA0199102147
B1803364059449N00402170WA0199002145
B1803374059451N00402162WA0198802144
B1803384059453N00402154WA0198702142
B1803394059456N00402146WA0198502140
B1803404059459N00402138WA0198402138
B1803414059463N00402131WA0198102135
B1803424059467N00402125WA0197902133
B1803434059473N00402119WA0197802131
B1803444059478N00402114WA0197602129
B1803454059484N00402108WA0197302127
B1803464059489N00402103WA0197002125
B1803474059494N00402098WA0196902122
B1803484059500N00402093WA0196702120
B1803494059506N00402087WA0196402118
B1803504059511N00402081WA0196202116
B1803514059516N00402075WA0196002115
B1803524059522N00402070WA0195802112
B1803534059527N00402064WA0195502110
B1803544059533N00402058WA0195502107
B1803554059538N00402052WA0195202104
B1803564059544N00402045WA0195002102
B1803584059552N00402036WA0194702098
B1803594059561N00402027WA0194302094
B1804004059564N00402024WA0194102092
B1804004059567N00402021WA0194002091
B1804024059576N00402011WA0193602087
B1804024059579N00402008WA0193502086
B1804034059585N00402002WA0193302083
B1804044059591N00401996WA0193102081
B1804054059597N00401991WA0192802077
B1804064059603N00401985WA0192502074
B1804074059609N00401978WA0192302071
B1804084059615N00401971WA0192202069
B1804094059621N00401965WA0192102068
B1804104059626N00401958WA0191902068
B1804114059630N00401952WA0191902068
B1804124059634N00401946WA0191802067
B1804134059637N00401940WA0191602066
B1804144059641N00401933WA0191302064
B1804154059645N00401926WA0190902063
B1804164059649N00401917WA0190702062
B1804174059654N00401909WA0190602060
B1804184059658N00401901WA0190602059
B1804194059663N00401893WA0190602059
B1804204059667N00401886WA0190602059
B1804214059670N00401879WA0190602059
B1804224059673N00401873WA0190502058
B1804234059676N00401866WA0190402056
B1804244059679N00401858WA0190102054
B1804254059682N00401850WA0189702051
B1804264059686N00401841WA0189602049
B1804274059691N00401833WA0189502048
B1804284059695N00401824WA0189502047
B1804294059699N00401816WA0189302046
B1804304059703N00401808WA0189202045
B1804314059707N00401800WA0189102042
B1804324059711N00401793WA0188902040
B1804334059716N00401785WA0188802039
B1804344059721N00401777WA0188702038
B1804354059725N00401768WA0188702038
B1804364059728N00401761WA0188702037
B1804374059732N00401753WA0188502036
B1804384059736N00401745WA0188402034
B1804394059740N00401737WA0188002031
B1804404059744N00401729WA0188002029
B1804414059748N00401721WA0188002027
B1804424059753N00401712WA0188002025
B1804434059758N00401705WA0187802024
B1804444059762N00401698WA0187602023
B1804454059766N00401691WA0187302022
B1804464059771N00401684WA0186902019
B1804474059776N00401677WA0186702015
B1804484059781N00401670WA0186502012
B1804494059786N00401662WA0186302010
B1804504059790N00401653WA0186102009
B1804514059793N00401644WA0185902007
B1804524059796N00401636WA0185902006
B1804534059800N00401628WA0185802004
B1804544059804N00401620WA0185702002
B1804554059808N00401612WA0185502000
B1804564059811N00401604WA0185402000
B1804574059815N00401597WA0185302000
B1804584059818N00401590WA0185201999
B1804594059822N00401584WA0185101997
B1805004059826N00401578WA0184801995
B1805014059830N00401571WA0184701992
B1805024059835N00401564WA0184501990
B1805034059840N00401558WA0184301988
B1805044059845N00401551WA0184201987
B1805054059850N00401544WA0184101986
B1805064059854N00401538WA0184001985
B1805074059859N00401531WA0183901984
B1805084059863N00401525WA0183601982
B1805094059868N00401518WA0183501980
B1805104059873N00401511WA0183401978
B1805114059878N00401504WA0183301976
B1805124059883N00401497WA0183101975
B1805134059888N00401490WA0183001974
B1805144059893N00401483WA0182801973
B1805154059897N00401476WA0182701972
B1805164059902N00401468WA0182601970
B1805174059906N00401461WA0182501968
B1805184059911N00401452WA0182301967
B1805194059915N00401444WA0182201966
B1805204059918N00401436WA0182101965
B1805214059922N00401427WA0182101964
B1805224059926N00401419WA0182001963
B1805234059931N00401411WA0182001962
B1805244059936N00401403WA0182001961
B1805254059941N00401397WA0181901961
B1805264059946N00401390WA0181701961
B1805274059951N00401384WA0181501959
B1805284059956N00401377WA0181301957
B1805294059961N00401370WA0181201955
B1805304059967N00401363WA0181201953
B1805314059974N00401356WA0181101953
B1805324059979N00401350WA0180901953
B1805334059985N00401344WA0181001952
B1805344059990N00401338WA0181001951
B1805354059996N00401331WA0181001950
B1805364100001N00401324WA0180901950
B1805374100005N00401316WA0180901950
B1805384100008N00401309WA0180901950
B1805394100012N00401303WA0180901949
B1805404100015N00401295WA0180701947
B1805414100019N00401287WA0180601945
B1805424100021N00401278WA0180201943
B1805434100024N00401269WA0180101942
B1805444100025N00401260WA0180101941
B1805454100027N00401251WA0180001940
B1805464100029N00401242WA0179801937
B1805474100032N00401233WA0179601935
B1805484100034N00401224WA0179401933
B1805494100037N00401215WA0179201931
B1805504100041N00401206WA0179101930
B1805514100045N00401197WA0178901928
B1805524100049N00401189WA0178801927
B1805534100053N00401182WA0178601925
B1805544100058N00401175WA0178401923
B1805554100062N00401168WA0178401921
B1805564100067N00401161WA0178101919
B1805574100072N00401154WA0177801917
B1805584100077N00401146WA0177701915
B1805594100082N00401139WA0177501913
B1806004100086N00401131WA0177401912
B1806014100091N00401123WA0177201910
B1806024100096N00401115WA0177001907
B1806034100101N00401107WA0176701905
B1806044100106N00401099WA0176601903
B1806054100111N00401091WA0176501902
B1806064100115N00401082WA0176301900
B1806074100120N00401074WA0176101898
B1806084100124N00401066WA0176001897
B1806094100129N00401057WA0175901895
B1806104100134N00401049WA0175801894
B1806114100139N00401041WA0175901894
B1806124100143N00401034WA0175901894
B1806134100148N00401027WA0175701894
B1806144100152N00401020WA0175701893
B1806154100156N00401014WA0175601892
B1806164100160N00401008WA0175401890
B1806174100165N00401001WA0175201888
B1806184100169N00400992WA0175001885
B1806194100174N00400984WA0175001884
B1806204100178N00400976WA0175001884
B1806214100183N00400968WA0175001885
B1806224100186N00400961WA0174901884
B1806234100190N00400954WA0174901883
B1806244100194N00400947WA0174601880
B1806254100199N00400940WA0174401877
B1806264100204N00400933WA0174201874
B1806274100210N00400926WA0174001872
B1806284100215N00400920WA0174001871
B1806294100221N00400913WA0173801870
B1806304100226N00400906WA0173601869
B1806314100231N00400899WA0173501867
B1806324100237N00400892WA0173401865
B1806334100242N00400884WA0173401865
B1806344100246N00400876WA0173301865
B1806354100250N00400868WA0173501866
B1806364100254N00400860WA0173501867
B1806374100257N00400852WA0173501867
B1806384100259N00400843WA0173501866
B1806394100262N00400833WA0173401865
B1806404100263N00400823WA0173301865
B1806414100264N00400812WA0173501866
B1806424100265N00400802WA0173601867
B1806434100266N00400792WA0173701868
B1806444100267N00400783WA0173801869
B1806454100268N00400774WA0173801870
B1806464100270N00400765WA0173901871
B1806474100272N00400757WA0174001871
B1806484100275N00400748WA0174001872
B1806494100276N00400739WA0174001873
B1806504100277N00400729WA0174001873
B1806514100277N00400718WA0174101874
B1806524100276N00400708WA0174201874
B1806534100276N00400698WA0174301875
B1806544100275N00400688WA0174301876
B1806554100273N00400678WA0174501878
B1806564100271N00400669WA0174501878
B1806574100268N00400660WA0174701879
B1806584100264N00400651WA0174801880
B1806594100260N00400644WA0175001882
B1807004100255N00400636WA0175101884
B1807014100250N00400629WA0175301886
B1807024100244N00400624WA0175401887
B1807034100238N00400621WA0175301888
B1807044100232N00400623WA0175301888
B1807054100227N00400627WA0175401888
B1807064100224N00400633WA0175501889
B1807074100223N00400640WA0175601890
B1807084100225N00400645WA0175601890
B1807094100229N00400648WA0175601890
B1807104100234N00400649WA0175601891
B1807114100238N00400648WA0175801891
B1807124100243N00400644WA0175801893
B1807134100247N00400639WA0175901893
B1807144100251N00400632WA0175901894
B1807154100253N00400624WA0175901894
B1807164100255N00400616WA0176001894
B1807174100256N00400606WA0176201895
B1807184100257N00400596WA0176301897
B1807194100258N00400586WA0176501899
B1807204100258N00400577WA0176701902
B1807214100257N00400568WA0176801903
B1807224100255N00400560WA0176901904
B1807234100252N00400552WA0177001904
B1807244100248N00400545WA0177001904
B1807254100242N00400540WA0176901905
B1807264100235N00400540WA0176901905
B1807274100229N00400542WA0177001905
B1807284100226N00400547WA0177001905
B1807294100225N00400553WA0177001905
B1807304100226N00400558WA0177001906
B1807314100229N00400561WA0177101907
B1807324100233N00400563WA0177201908
B1807334100237N00400563WA0177201909
B1807344100242N00400559WA0177301910
B1807354100247N00400554WA0177401911
B1807364100251N00400549WA0177601913
B1807374100255N00400543WA0177801915
B1807384100259N00400537WA0178001917
B1807394100263N00400532WA0178201919
B1807404100267N00400528WA0178201921
B1807414100272N00400525WA0178401922
B1807424100276N00400521WA0178501923
B1807434100279N00400515WA0178501924
B1807444100280N00400506WA0178501924
B1807454100281N00400496WA0178701925
B1807464100282N00400486WA0178901928
B1807474100282N00400477WA0179101931
B1807484100282N00400468WA0179301933
B1807494100281N00400460WA0179501934
B1807504100278N00400452WA0179601935
B1807514100274N00400444WA0179801937
B1807524100269N00400438WA0180001939
B1807534100264N00400432WA0180201941
B1807544100258N00400429WA0180401943
B1807554100253N00400427WA0180301945
B1807564100248N00400428WA0180401947
B1807574100243N00400431WA0180501948
B1807584100240N00400436WA0180301949
B1807594100239N00400442WA0180401947
B1808004100240N00400447WA0180501947
B1808014100242N00400452WA0180601948
B1808024100246N00400455WA0180601949
B1808034100251N00400457WA0180801950
B1808044100256N00400457WA0180801951
B1808054100261N00400457WA0181001952
B1808064100266N00400457WA0181301955
B1808074100271N00400456WA0181501957
B1808084100276N00400453WA0181701959
B1808094100280N00400450WA0181801961
B1808104100284N00400446WA0181901962
B1808114100288N00400439WA0181901963
B1808124100289N00400429WA0182101963
B1808134100289N00400419WA0182101964
B1808144100287N00400409WA0182301966
B1808154100282N00400401WA0182401967
B1808164100276N00400395WA0182601968
B1808174100270N00400391WA0182701969
B1808184100263N00400388WA0182801970
B1808194100257N00400388WA0182901972
B1808204100252N00400391WA0183101973
B1808214100248N00400394WA0183301975
B1808224100246N00400399WA0183401974
B1808234100245N00400403WA0183401974
B1808244100248N00400409WA0183401973
B1808254100252N00400412WA0183401973
B1808264100258N00400413WA0183601973
B1808274100264N00400413WA0183801974
B1808284100269N00400412WA0184101977
B1808294100273N00400410WA0184301981
B1808304100277N00400409WA0184401983
B1808314100281N00400406WA0184601985
B1808324100285N00400400WA0184601986
B1808334100288N00400392WA0184601987
B1808344100289N00400383WA0184701988
B1808354100287N00400373WA0184701989
B1808364100283N00400365WA0184801990
B1808374100279N00400358WA0184801991
B1808384100274N00400352WA0185001991
B1808394100269N00400347WA0185001991
B1808404100262N00400344WA0185101992
B1808414100255N00400342WA0185201993
B1808424100248N00400341WA0185301995
B1808434100241N00400338WA0185701997
B1808444100235N00400337WA0185901999
B1808454100229N00400337WA0186102002
B1808464100224N00400339WA0186302003
B1808474100220N00400343WA0186302005
B1808484100219N00400350WA0186402006
B1808494100220N00400356WA0186502007
B1808504100224N00400361WA0186602009
B1808514100229N00400363WA0186902010
B1808524100234N00400362WA0187102012
B1808534100239N00400359WA0187102014
B1808544100243N00400355WA0187302016
B1808554100247N00400350WA0187502018
B1808564100250N00400342WA0187602018
B1808574100251N00400333WA0187502019
B1808584100251N00400323WA0187702021
B1808594100247N00400313WA0187802022
B1809004100241N00400306WA0187902023
B1809014100235N00400302WA0188002024
B1809024100228N00400302WA0188102025
B1809034100223N00400305WA0188202026
B1809044100219N00400311WA0188302027
B1809054100217N00400317WA0188502029
B1809064100217N00400323WA0188702032
B1809074100217N00400328WA0188902034
B1809084100217N00400332WA0189002035
B1809094100218N00400336WA0189102035
B1809104100220N00400340WA0189202035
B1809114100223N00400344WA0189202036
B1809124100227N00400346WA0189302037
B1809134100233N00400346WA0189402038
B1809144100238N00400344WA0189502039
B1809154100243N00400340WA0189802041
B1809164100248N00400336WA0190002043
B1809174100253N00400331WA0190202046
B1809184100258N00400328WA0190302048
B1809194100262N00400323WA0190402049
B1809204100265N00400317WA0190502050
B1809214100267N00400310WA0190502050
B1809224100266N00400301WA0190302050
B1809234100264N00400291WA0190302050
B1809244100261N00400280WA0190302050
B1809254100258N00400270WA0190402051
B1809264100255N00400261WA0190502052
B1809274100252N00400254WA0190502053
B1809284100247N00400247WA0190502052
B1809294100242N00400242WA0190402051
B1809304100235N00400239WA0190302050
B1809314100228N00400238WA0190502050
B1809324100222N00400238WA0190602049
B1809334100217N00400241WA0190602050
B1809344100214N00400246WA0190702050
B1809354100211N00400251WA0190802052
B1809364100209N00400256WA0191002054
B1809374100208N00400262WA0191102056
B1809384100208N00400267WA0191202057
B1809394100208N00400273WA0191402059
B1809404100208N00400277WA0191602061
B1809414100209N00400282WA0191702062
B1809424100210N00400287WA0191802064
B1809434100210N00400291WA0192002065
B1809444100211N00400296WA0192002066
B1809454100213N00400300WA0192102067
B1809464100216N00400304WA0192202068
B1809474100219N00400307WA0192302068
B1809484100223N00400310WA0192502069
B1809494100226N00400313WA0192602071
B1809504100229N00400315WA0192702072
B1809514100232N00400318WA0192802074
B1809524100234N00400322WA0193002075
B1809534100237N00400324WA0192902075
B1809544100241N00400325WA0193002076
B1809554100246N00400325WA0193102076
B1809564100251N00400323WA0193202077
B1809574100256N00400321WA0193302079
B1809584100260N00400317WA0193402080
B1809594100264N00400313WA0193402081
B1810004100269N00400308WA0193602081
B1810014100273N00400303WA0193702082
B1810024100275N00400296WA0193702083
B1810034100277N00400287WA0193802084
B1810044100277N00400279WA0193802084
B1810054100277N00400269WA0194002085
B1810064100276N00400260WA0194102087
B1810074100275N00400252WA0194202088
B1810084100273N00400243WA0194302090
B1810094100270N00400236WA0194402091
B1810104100266N00400229WA0194502091
B1810114100261N00400223WA0194302090
B1810124100255N00400220WA0194102089
B1810134100247N00400220WA0194102088
B1810144100241N00400223WA0194202088
B1810154100236N00400227WA0194302089
B1810164100233N00400233WA0194302090
B1810174100231N00400238WA0194402091
B1810184100229N00400244WA0194502092
B1810194100228N00400251WA0194702093
B1810204100228N00400256WA0194802095
B1810214100228N00400262WA0194902097
B1810224100227N00400268WA0195202098
B1810234100227N00400273WA0195202099
B1810244100227N00400277WA0195202100
B1810254100228N00400282WA0195302101
B1810264100229N00400287WA0195402101
B1810274100230N00400292WA0195302101
B1810284100233N00400297WA0195402102
B1810294100236N00400301WA0195502103
B1810304100239N00400305WA0195902106
B1810314100240N00400309WA0196002107
B1810324100241N00400313WA0196102109
B1810334100242N00400317WA0196202110
B1810344100244N00400321WA0196202111
B1810354100248N00400323WA0196102111
B1810364100253N00400323WA0196002111
B1810374100260N00400322WA0196302112
B1810384100266N00400319WA0196502114
B1810394100271N00400317WA0196802118
B1810404100274N00400314WA0197002120
B1810414100278N00400312WA0197102123
B1810424100281N00400305WA0197102124
B1810434100282N00400295WA0197002124
B1810444100282N00400285WA0197202125
B1810454100279N00400276WA0197302126
B1810464100273N00400270WA0197302127
B1810474100266N00400267WA0197402128
B1810484100259N00400267WA0197602130
B1810494100254N00400270WA0197702131
B1810504100249N00400273WA0197802132
B1810514100245N00400277WA0198002134
B1810524100242N00400281WA0198102136
B1810534100239N00400285WA0198302137
B1810544100237N00400290WA0198402138
B1810554100235N00400295WA0198502140
B1810564100235N00400300WA0198702141
B1810574100237N00400304WA0198702142
B1810584100240N00400307WA0198702142
B1810594100244N00400310WA0198802143
B1811004100248N00400312WA0199002144
B1811014100253N00400313WA0199102146
B1811024100257N00400314WA0199302147
B1811034100261N00400313WA0199302148
B1811044100266N00400310WA0199402148
B1811054100271N00400306WA0199402149
B1811064100275N00400300WA0199602150
B1811074100278N00400292WA0199702151
B1811084100280N00400283WA0199802152
B1811094100281N00400274WA0199902153
B1811104100280N00400265WA0200102155
B1811114100279N00400256WA0200202156
B1811124100277N00400247WA0200302157
B1811134100274N00400239WA0200302158
B1811144100268N00400233WA0200302159
B1811154100262N00400228WA0200302159
B1811164100255N00400223WA0200502161
B1811174100248N00400220WA0200602163
B1811184100242N00400218WA0200802165
B1811194100236N00400216WA0200902166
B1811204100230N00400215WA0201002166
B1811214100224N00400217WA0201002166
B1811224100219N00400220WA0201102167
B1811234100214N00400225WA0201302168
B1811244100210N00400231WA0201502170
B1811254100206N00400236WA0201602172
B1811264100204N00400241WA0201802174
B1811274100202N00400246WA0201902175
B1811284100200N00400251WA0201902176
B1811294100200N00400256WA0202002177
B1811304100200N00400261WA0202202178
B1811314100202N00400266WA0202302179
B1811324100205N00400270WA0202302179
B1811334100209N00400271WA0202402180
B1811344100214N00400270WA0202402181
B1811354100219N00400266WA0202602182
B1811364100223N00400260WA0202702183
B1811374100226N00400253WA0202802184
B1811384100228N00400244WA0202902185
B1811394100228N00400235WA0203102187
B1811404100227N00400226WA0203302189
B1811414100224N00400218WA0203202190
B1811424100219N00400212WA0203302191
B1811434100213N00400207WA0203402192
B1811444100206N00400204WA0203502194
B1811454100199N00400202WA0203702196
B1811464100192N00400201WA0203902197
B1811474100186N00400201WA0204002198
B1811484100181N00400203WA0204102200
B1811494100176N00400206WA0204202201
B1811504100173N00400211WA0204302201
B1811514100171N00400217WA0204302202
B1811524100171N00400223WA0204402203
B1811534100172N00400229WA0204402204
B1811544100173N00400234WA0204502205
B1811554100174N00400238WA0204502206
B1811564100175N00400242WA0204602206
B1811574100177N00400247WA0204602206
B1811584100180N00400250WA0204502205
B1811594100185N00400252WA0204502205
B1812004100190N00400254WA0204702205
B1812014100195N00400255WA0204802207
B1812024100200N00400256WA0204902209
B1812034100204N00400257WA0205202211
B1812044100208N00400259WA0205302213
B1812054100212N00400261WA0205502215
B1812064100215N00400262WA0205602216
B1812074100219N00400263WA0205802217
B1812084100223N00400262WA0205802218
B1812094100227N00400261WA0206002219
B1812104100232N00400258WA0206002219
B1812114100235N00400252WA0205902220
B1812124100238N00400244WA0206102220
B1812134100240N00400235WA0206202221
B1812144100242N00400225WA0206302224
B1812154100244N00400217WA0206502227
B1812164100245N00400208WA0206702229
B1812174100245N00400200WA0206802230
B1812184100244N00400192WA0206902231
B1812194100241N00400184WA0206902231
B1812204100236N00400176WA0206802230
B1812214100230N00400171WA0206902230
B1812224100223N00400169WA0207102231
B1812234100217N00400171WA0207002231
B1812244100212N00400176WA0207102232
B1812254100208N00400181WA0207202233
B1812264100206N00400188WA0207302235
B1812274100204N00400194WA0207502236
B1812284100202N00400200WA0207602238
B1812294100201N00400206WA0207802240
B1812304100202N00400211WA0207902241
B1812314100203N00400216WA0208002242
B1812324100206N00400219WA0208202243
B1812334100211N00400221WA0208202244
B1812344100216N00400220WA0208202245
B1812354100221N00400216WA0208402246
B1812364100226N00400211WA0208602248
B1812374100230N00400206WA0208802250
B1812384100233N00400200WA0209002252
B1812394100235N00400192WA0209002254
B1812404100236N00400184WA0209202255
B1812414100235N00400175WA0209302255
B1812424100232N00400167WA0209202255
B1812434100227N00400160WA0209302256
B1812444100220N00400156WA0209402256
B1812454100214N00400154WA0209502257
B1812464100207N00400153WA0209702259
B1812474100201N00400153WA0209802260
B1812484100194N00400153WA0209902261
B1812494100189N00400155WA0210002262
B1812504100183N00400157WA0210202264
B1812514100178N00400160WA0210302265
B1812524100173N00400164WA0210402267
B1812534100169N00400168WA0210402268
B1812544100167N00400175WA0210502268
B1812554100165N00400181WA0210602269
B1812564100164N00400188WA0210702270
B1812574100164N00400195WA0210802271
B1812584100164N00400201WA0211002273
B1812594100165N00400207WA0211102274
B1813004100167N00400211WA0211302276
B1813014100169N00400215WA0211302277
B1813024100172N00400218WA0211402278
B1813034100175N00400219WA0211502279
B1813044100180N00400217WA0211502279
B1813054100185N00400213WA0211502279
B1813064100189N00400207WA0211502279
B1813074100193N00400200WA0211702279
B1813084100195N00400192WA0211902282
B1813094100197N00400185WA0212002285
B1813104100198N00400177WA0212202286
B1813114100198N00400170WA0212302287
B1813124100198N00400162WA0212302287
B1813134100196N00400153WA0212302287
B1813144100192N00400145WA0212502288
B1813154100186N00400138WA0212702290
B1813164100180N00400134WA0212802292
B1813174100173N00400131WA0213002293
B1813184100167N00400130WA0213202295
B1813194100160N00400131WA0213402297
B1813204100153N00400132WA0213602299
B1813214100148N00400134WA0213802301
B1813224100143N00400137WA0213802303
B1813234100140N00400142WA0213702304
B1813244100140N00400148WA0213702305
B1813254100142N00400154WA0213802307
B1813264100145N00400157WA0213802308
B1813274100149N00400158WA0214002309
B1813284100152N00400158WA0214002309
B1813294100156N00400156WA0213902307
B1813304100161N00400153WA0213902307
B1813314100165N00400148WA0213902306
B1813324100168N00400142WA0214002306
B1813334100171N00400134WA0214002306
B1813344100172N00400125WA0214302307
B1813354100172N00400116WA0214402310
B1813364100173N00400108WA0214702313
B1813374100173N00400100WA0214802315
B1813384100173N00400093WA0214902316
B1813394100171N00400085WA0214802317
B1813404100167N00400077WA0214702316
B1813414100162N00400071WA0214802316
B1813424100155N00400065WA0214902317
B1813434100149N00400059WA0215102319
B1813444100144N00400055WA0215102320
B1813454100138N00400051WA0215202321
B1813464100132N00400048WA0215302321
B1813474100126N00400046WA0215302320
B1813484100119N00400047WA0215202320
B1813494100112N00400050WA0215302321
B1813504100107N00400053WA0215402322
B1813514100101N00400058WA0215502324
B1813524100096N00400061WA0215702325
B1813534100092N00400065WA0215902327
B1813544100088N00400070WA0216002328
B1813554100085N00400074WA0216102329
B1813564100083N00400079WA0216202329
B1813574100082N00400084WA0216102329
B1813584100083N00400090WA0216002329
B1813594100086N00400095WA0216102329
B1814004100090N00400099WA0216202329
B1814014100094N00400102WA0216202330
B1814024100099N00400103WA0216302330
B1814034100105N00400102WA0216302331
B1814044100110N00400100WA0216402332
B1814054100116N00400098WA0216502332
B1814064100121N00400095WA0216502333
B1814074100126N00400091WA0216602334
B1814084100130N00400086WA0216702335
B1814094100135N00400081WA0216702335
B1814104100139N00400076WA0216802336
B1814114100143N00400071WA0216902337
B1814124100147N00400064WA0216902337
B1814134100151N00400056WA0216802337
B1814144100154N00400048WA0216902338
B1814154100157N00400040WA0217102339
B1814164100160N00400032WA0217302341
B1814174100162N00400025WA0217502343
B1814184100165N00400019WA0217602345
B1814194100168N00400014WA0217702346
B1814204100171N00400008WA0217702346
B1814214100172N00400001WA0217602346
B1814224100173N00359992WA0217602345
B1814234100172N00359984WA0217702345
B1814244100169N00359976WA0217802344
B1814254100163N00359970WA0217902344
B1814264100157N00359967WA0217702343
B1814274100150N00359967WA0217702342
B1814284100143N00359969WA0217802342
B1814294100138N00359974WA0217902343
B1814304100133N00359978WA0217902344
B1814314100129N00359983WA0218002346
B1814324100125N00359988WA0218002346
B1814334100122N00359993WA0218102346
B1814344100120N00360000WA0218102346
B1814354100118N00400006WA0218202348
B1814364100117N00400012WA0218302349
B1814374100116N00400017WA0218402350
B1814384100116N00400023WA0218502351
B1814394100116N00400028WA0218502352
B1814404100118N00400033WA0218502352
B1814414100121N00400037WA0218502352
B1814424100125N00400041WA0218602352
B1814434100129N00400044WA0218702353
B1814444100133N00400047WA0218702354
B1814454100136N00400050WA0218802354
B1814464100140N00400053WA0218902355
B1814474100143N00400057WA0218902355
B1814484100145N00400062WA0218902356
B1814494100147N00400067WA0219002356
B1814504100149N00400072WA0219002357
B1814514100152N00400076WA0218902357
B1814524100157N00400079WA0219002356
B1814534100163N00400081WA0219002357
B1814544100168N00400083WA0219202358
B1814554100172N00400086WA0219302359
B1814564100176N00400088WA0219402361
B1814574100179N00400092WA0219502362
B1814584100182N00400095WA0219602363
B1814594100184N00400099WA0219602363
B1815004100187N00400102WA0219502363
B1815014100193N00400103WA0219302362
B1815024100199N00400100WA0219402361
B1815034100205N00400094WA0219402361
B1815044100209N00400085WA0219602361
B1815054100211N00400076WA0219702362
B1815064100211N00400066WA0219902363
B1815074100209N00400057WA0219902364
B1815084100205N00400049WA0220002364
B1815094100200N00400043WA0220002364
B1815104100194N00400038WA0220102364
B1815114100187N00400035WA0220202366
B1815124100181N00400033WA0220302368
B1815134100174N00400031WA0220502370
B1815144100169N00400029WA0220602372
B1815154100163N00400028WA0220702373
B1815164100158N00400028WA0220802374
B1815174100153N00400030WA0220802375
B1815184100149N00400033WA0220802376
B1815194100148N00400039WA0220802377
B1815204100148N00400045WA0220802377
B1815214100150N00400050WA0220902378
B1815224100154N00400054WA0220902379
B1815234100158N00400056WA0220902379
B1815244100162N00400058WA0221002379
B1815254100167N00400059WA0221102379
B1815264100172N00400059WA0221002379
B1815274100178N00400059WA0221102379
B1815284100184N00400058WA0221102380
B1815294100189N00400058WA0221102380
B1815304100194N00400057WA0221202381
B1815314100200N00400053WA0221302380
B1815324100206N00400047WA0221002379
B1815334100210N00400039WA0221102380
B1815344100214N00400030WA0221202381
B1815354100218N00400022WA0221402384
B1815364100222N00400015WA0221602385
B1815374100225N00400009WA0221702386
B1815384100228N00400002WA0221802386
B1815394100231N00359994WA0221702386
B1815404100232N00359984WA0221702386
B1815414100231N00359975WA0221702386
B1815424100230N00359965WA0221802387
B1815434100228N00359956WA0221902388
B1815444100227N00359948WA0222002389
B1815454100225N00359939WA0222002390
B1815464100223N00359931WA0222102390
B1815474100220N00359924WA0222002390
B1815484100215N00359918WA0221902389
B1815494100210N00359913WA0221902389
B1815504100203N00359908WA0222002390
B1815514100198N00359903WA0222102391
B1815524100192N00359899WA0222202393
B1815534100187N00359895WA0222202394
B1815544100181N00359892WA0222202394
B1815554100175N00359889WA0222202393
B1815564100169N00359887WA0222202393
B1815574100163N00359885WA0222202394
B1815584100157N00359884WA0222102394
B1815594100151N00359883WA0222202394
B1816004100145N00359883WA0222202394
B1816014100139N00359883WA0222202394
B1816024100133N00359882WA0222202393
B1816034100127N00359882WA0222202393
B1816044100121N00359883WA0222102393
B1816054100116N00359886WA0221902392
B1816064100110N00359890WA0222002391
B1816074100106N00359894WA0222002391
B1816084100101N00359898WA0222102392
B1816094100097N00359903WA0222102392
B1816104100093N00359907WA0222102392
B1816114100091N00359913WA0222202392
B1816124100089N00359918WA0222102392
B1816134100088N00359924WA0222102392
B1816144100089N00359930WA0222102392
B1816154100091N00359935WA0222102392
B1816164100094N00359940WA0222102392
B1816174100098N00359944WA0222202393
B1816184100101N00359949WA0222302394
B1816194100105N00359953WA0222502395
B1816204100108N00359957WA0222602396
B1816214100111N00359960WA0222602398
B1816224100113N00359964WA0222602398
B1816234100116N00359969WA0222602398
B1816244100118N00359973WA0222602398
B1816254100122N00359978WA0222602399
B1816264100126N00359982WA0222802400
B1816274100129N00359986WA0222902401
B1816284100132N00359991WA0223002402
B1816294100132N00359996WA0223202403
B1816304100131N00400001WA0223202405
B1816314100128N00400005WA0223102405
B1816324100123N00400007WA0223102406
B1816334100118N00400007WA0223102406
B1816344100111N00400006WA0223102406
B1816354100105N00400003WA0223202407
B1816364100099N00400001WA0223202407
B1816374100093N00359998WA0223302408
B1816384100087N00359994WA0223302408
B1816394100082N00359990WA0223302408
B1816404100077N00359984WA0223402409
B1816414100072N00359978WA0223402409
B1816424100068N00359970WA0223502409
B1816434100066N00359962WA0223502409
B1816444100064N00359953WA0223402409
B1816454100064N00359943WA0223502409
B1816464100065N00359933WA0223502409
B1816474100067N00359924WA0223602410
B1816484100068N00359916WA0223702411
B1816494100070N00359907WA0223702412
B1816504100072N00359899WA0223702412
B1816514100074N00359890WA0223902412
B1816524100076N00359882WA0223902412
B1816534100079N00359874WA0223802412
B1816544100083N00359866WA0223902412
B1816554100087N00359860WA0224002413
B1816564100092N00359854WA0224002414
B1816574100096N00359850WA0224002415
B1816584100101N00359846WA0224002415
B1816594100106N00359844WA0223902414
B1817004100112N00359845WA0224002413
B1817014100117N00359847WA0223902413
B1817024100122N00359851WA0223802413
B1817034100126N00359855WA0223802414
B1817044100130N00359859WA0224002414
B1817054100133N00359864WA0224002415
B1817064100135N00359869WA0224102415
B1817074100138N00359875WA0224202416
B1817084100140N00359880WA0224202416
B1817094100142N00359885WA0224202417
B1817104100145N00359891WA0224302417
B1817114100146N00359896WA0224402418
B1817124100147N00359902WA0224502419
B1817134100146N00359907WA0224502419
B1817144100143N00359911WA0224602420
B1817154100139N00359914WA0224702421
B1817164100134N00359916WA0224702421
B1817174100129N00359917WA0224802422
B1817184100124N00359918WA0224802423
B1817194100118N00359917WA0224802423
B1817204100113N00359914WA0224902423
B1817214100107N00359910WA0224802422
B1817224100101N00359905WA0224902423
B1817234100096N00359899WA0224902423
B1817244100092N00359892WA0224902423
B1817254100088N00359884WA0224902424
B1817264100086N00359875WA0225002424
B1817274100083N00359866WA0225102425
B1817284100082N00359857WA0225102425
B1817294100081N00359848WA0225102426
B1817304100080N00359839WA0225202426
B1817314100079N00359830WA0225202427
B1817324100078N00359822WA0225202427
B1817334100078N00359813WA0225202426
B1817344100079N00359804WA0225102425
B1817354100083N00359796WA0225102425
B1817364100087N00359789WA0225102425
B1817374100093N00359783WA0225102425
B1817384100098N00359778WA0225102425
B1817394100103N00359774WA0225202426
B1817404100108N00359770WA0225302427
B1817414100113N00359767WA0225202426
B1817424100119N00359765WA0225202426
B1817434100124N00359764WA0225202426
B1817444100130N00359764WA0225202426
B1817454100135N00359765WA0225102425
B1817464100141N00359767WA0225102425
B1817474100146N00359770WA0225202425
B1817484100150N00359773WA0225102425
B1817494100155N00359776WA0225102425
B1817504100159N00359780WA0225102425
B1817514100163N00359784WA0225102425
B1817524100166N00359788WA0225102425
B1817534100169N00359793WA0225202426
B1817544100172N00359798WA0225302427
B1817554100176N00359802WA0225302427
B1817564100180N00359806WA0225402428
B1817574100183N00359810WA0225402428
B1817584100187N00359814WA0225502428
B1817594100190N00359818WA0225502429
B1818004100193N00359823WA0225602430
B1818014100195N00359828WA0225602431
B1818024100198N00359833WA0225702431
B1818034100200N00359838WA0225702431
B1818044100203N00359843WA0225802432
B1818054100207N00359848WA0225702432
B1818064100211N00359852WA0225802433
B1818074100215N00359856WA0225902433
B1818084100219N00359860WA0225902434
B1818094100223N00359865WA0225902434
B1818104100227N00359870WA0226002434
B1818114100231N00359874WA0226002434
B1818124100237N00359877WA0225902434
B1818134100243N00359878WA0225802433
B1818144100249N00359879WA0225902434
B1818154100255N00359879WA0226002434
B1818164100261N00359880WA0226002435
B1818174100266N00359882WA0226002435
B1818184100271N00359883WA0226002435
B1818194100276N00359885WA0225902434
B1818204100280N00359888WA0225702433
B1818214100284N00359892WA0225402431
B1818224100287N00359898WA0225402429
B1818234100290N00359905WA0225402428
B1818244100292N00359912WA0225302428
B1818254100293N00359918WA0225402428
B1818264100295N00359925WA0225402428
B1818274100295N00359931WA0225202428
B1818284100294N00359936WA0225102428
B1818294100292N00359942WA0225102426
B1818304100289N00359948WA0224902425
B1818314100286N00359954WA0224802425
B1818324100283N00359959WA0224902424
B1818334100279N00359963WA0225002425
B1818344100274N00359966WA0224902424
B1818354100268N00359966WA0224802423
B1818364100262N00359966WA0224802422
B1818374100256N00359963WA0224802421
B1818384100251N00359958WA0224802421
B1818394100246N00359950WA0224602420
B1818404100244N00359941WA0224302419
B1818414100243N00359931WA0224302418
B1818424100242N00359922WA0224302417
B1818434100242N00359913WA0224302417
B1818444100243N00359904WA0224202416
B1818454100244N00359895WA0224102416
B1818464100245N00359886WA0224102416
B1818474100246N00359878WA0224002415
B1818484100246N00359869WA0224002415
B1818494100246N00359861WA0224002414
B1818504100247N00359852WA0223902413
B1818514100248N00359844WA0223802413
B1818524100248N00359835WA0223702412
B1818534100248N00359826WA0223702411
B1818544100247N00359818WA0223602410
B1818554100248N00359810WA0223502408
B1818564100248N00359801WA0223302406
B1818574100249N00359793WA0223002405
B1818584100251N00359784WA0222902403
B1818594100252N00359775WA0222902402
B1819004100254N00359767WA0222702401
B1819014100257N00359759WA0222602401
B1819024100261N00359752WA0222502399
B1819034100264N00359746WA0222302398
B1819044100267N00359739WA0222202396
B1819054100271N00359732WA0222102394
B1819064100274N00359726WA0222002393
B1819074100277N00359719WA0221902392
B1819084100279N00359712WA0221602390
B1819094100281N00359704WA0221402388
B1819104100282N00359696WA0221202385
B1819114100283N00359688WA0220802381
B1819124100285N00359679WA0220402378
B1819134100287N00359670WA0220202375
B1819144100289N00359661WA0219902372
B1819154100291N00359651WA0219702369
B1819164100293N00359642WA0219502367
B1819174100294N00359632WA0219302365
B1819184100295N00359622WA0219202363
B1819194100296N00359613WA0219002362
B1819204100296N00359604WA0218902360
B1819214100295N00359595WA0218602358
B1819224100295N00359586WA0218402355
B1819234100296N00359577WA0218102351
B1819244100296N00359567WA0217702347
B1819254100295N00359557WA0217302344
B1819264100295N00359547WA0217102341
B1819274100294N00359537WA0216902339
B1819284100293N00359527WA0216602336
B1819294100293N00359516WA0216502334
B1819304100292N00359506WA0216502333
B1819314100292N00359496WA0216302332
B1819324100291N00359487WA0216302332
B1819334100290N00359479WA0216202331
B1819344100289N00359471WA0216002329
B1819354100288N00359462WA0215802326
B1819364100287N00359452WA0215602324
B1819374100287N00359442WA0215502323
B1819384100287N00359433WA0215502322
B1819394100286N00359423WA0215502321
B1819404100286N00359414WA0215302320
B1819414100286N00359404WA0215102319
B1819424100286N00359395WA0215002317
B1819434100286N00359385WA0214802316
B1819444100286N00359375WA0214702314
B1819454100286N00359365WA0214602313
B1819464100287N00359355WA0214702313
B1819474100287N00359346WA0214702314
B1819484100287N00359339WA0214702314
B1819494100287N00359331WA0214502312
B1819504100288N00359324WA0214302310
B1819514100288N00359315WA0214102308
B1819524100287N00359306WA0213902306
B1819534100287N00359297WA0213802305
B1819544100286N00359288WA0213902305
B1819554100286N00359280WA0213902305
B1819564100286N00359272WA0213802305
B1819574100285N00359265WA0213702304
B1819584100284N00359257WA0213502303
B1819594100284N00359249WA0213402300
B1820004100284N00359240WA0213202298
B1820014100284N00359230WA0213102297
B1820024100284N00359221WA0213002296
B1820034100284N00359213WA0213002296
B1820044100284N00359204WA0212902295
B1820054100284N00359195WA0212702294
B1820064100284N00359186WA0212602292
B1820074100284N00359177WA0212402291
B1820084100284N00359167WA0212302289
B1820094100284N00359158WA0212202288
B1820104100285N00359148WA0212102287
B1820114100286N00359138WA0212102286
B1820124100286N00359128WA0212002285
B1820134100288N00359119WA0211902284
B1820144100289N00359109WA0211802283
B1820154100290N00359100WA0211602282
B1820164100292N00359091WA0211602280
B1820174100293N00359081WA0211402279
B1820184100294N00359071WA0211102277
B1820194100295N00359062WA0211102276
B1820204100296N00359052WA0211002275
B1820214100297N00359042WA0211002274
B1820224100298N00359032WA0210802273
B1820234100298N00359023WA0210702273
B1820244100299N00359015WA0210602273
B1820254100300N00359006WA0210502271
B1820264100301N00358997WA0210202269
B1820274100302N00358987WA0210202267
B1820284100303N00358978WA0210102266
B1820294100303N00358968WA0210102266
B1820304100304N00358959WA0210102265
B1820314100305N00358950WA0210102264
B1820324100306N00358942WA0210002263
B1820334100307N00358933WA0209802262
B1820344100308N00358923WA0209702261
B1820354100308N00358914WA0209502260
B1820364100308N00358904WA0209402258
B1820374100308N00358895WA0209402257
B1820384100307N00358885WA0209202254
B1820394100307N00358875WA0208902252
B1820404100307N00358864WA0208802250
B1820414100307N00358853WA0208702249
B1820424100307N00358842WA0208502249
B1820434100307N00358833WA0208402248
B1820444100309N00358824WA0208402246
B1820454100310N00358814WA0208102243
B1820464100311N00358805WA0208002240
B1820474100313N00358794WA0207602237
B1820484100315N00358784WA0207502235
B1820494100316N00358774WA0207202233
B1820504100318N00358764WA0207002231
B1820514100319N00358754WA0206902230
B1820524100321N00358744WA0206802229
B1820534100322N00358735WA0206702228
B1820544100324N00358725WA0206602228
B1820554100325N00358716WA0206502227
B1820564100326N00358707WA0206402224
B1820574100328N00358697WA0206202222
B1820584100330N00358687WA0205902219
B1820594100332N00358676WA0205602218
B1821004100334N00358666WA0205602217
B1821014100336N00358657WA0205502216
B1821024100338N00358648WA0205402215
B1821034100340N00358640WA0205302213
B1821044100342N00358632WA0205002210
B1821054100344N00358624WA0204702208
B1821064100347N00358615WA0204502205
B1821074100349N00358606WA0204202202
B1821084100352N00358597WA0203902200
B1821094100356N00358588WA0203802198
B1821104100359N00358579WA0203702196
B1821114100362N00358570WA0203402194
B1821124100365N00358561WA0203302191
B1821134100368N00358551WA0203002189
B1821144100371N00358541WA0202802187
B1821154100373N00358531WA0202802186
B1821164100376N00358521WA0202702185
B1821174100378N00358510WA0202702184
B1821184100380N00358501WA0202802185
B1821194100381N00358491WA0202902186
B1821204100382N00358482WA0202902186
B1821214100382N00358473WA0202902185
B1821224100381N00358464WA0202702184
B1821234100380N00358455WA0202502183
B1821244100378N00358445WA0202402182
B1821254100376N00358436WA0202402182
B1821264100374N00358427WA0202302181
B1821274100373N00358418WA0202202180
B1821284100372N00358409WA0201902177
B1821294100371N00358400WA0201602174
B1821304100370N00358390WA0201402172
B1821314100370N00358380WA0201302170
B1821324100370N00358371WA0201202169
B1821334100370N00358361WA0200902168
B1821344100370N00358352WA0200902166
B1821354100370N00358343WA0200702163
B1821364100371N00358333WA0200402162
B1821374100372N00358324WA0200302160
B1821384100373N00358315WA0200302159
B1821394100374N00358306WA0200002158
B1821404100375N00358298WA0199802156
B1821414100375N00358289WA0199602153
B1821424100376N00358280WA0199502150
B1821434100377N00358271WA0199202148
B1821444100378N00358261WA0199102147
B1821454100379N00358252WA0198902146
B1821464100380N00358243WA0198802145
B1821474100381N00358234WA0198702143
B1821484100382N00358225WA0198602141
B1821494100384N00358217WA0198302138
B1821504100386N00358208WA0198202137
B1821514100387N00358199WA0198002135
B1821524100389N00358190WA0198002133
B1821534100390N00358181WA0197802131
B1821544100391N00358172WA0197702130
B1821554100393N00358163WA0197502128
B1821564100393N00358153WA0197302126
B1821574100393N00358143WA0197002125
B1821584100392N00358133WA0197002124
B1821594100392N00358123WA0197002123
B1822004100392N00358114WA0196902122
B1822014100392N00358104WA0196902121
B1822024100392N00358095WA0196702120
B1822034100392N00358085WA0196602118
B1822044100392N00358075WA0196502117
B1822054100393N00358065WA0196402116
B1822064100394N00358055WA0196202115
B1822074100394N00358046WA0196102114
B1822084100394N00358036WA0196002113
B1822094100394N00358027WA0195802111
B1822104100394N00358017WA0195802109
B1822114100395N00358007WA0195602108
B1822124100394N00357997WA0195402106
B1822134100393N00357987WA0195302105
B1822144100392N00357977WA0195202104
B1822154100391N00357967WA0195102104
B1822164100390N00357958WA0195102102
B1822174100389N00357948WA0194902100
B1822184100388N00357939WA0194702099
B1822194100387N00357929WA0194502097
B1822204100387N00357919WA0194402095
B1822214100387N00357909WA0194302094
B1822224100387N00357899WA0194302093
B1822234100387N00357890WA0194102092
B1822244100387N00357881WA0194002091
B1822254100387N00357871WA0193802089
B1822264100387N00357861WA0193502086
B1822274100387N00357850WA0193302084
B1822284100388N00357840WA0193202082
B1822294100388N00357829WA0193102082
B1822304100389N00357819WA0193002081
B1822314100389N00357809WA0193002080
B1822324100389N00357799WA0192802078
B1822334100389N00357789WA0192602076
B1822344100389N00357779WA0192402073
B1822354100390N00357768WA0192102072
B1822364100390N00357758WA0192002070
B1822374100389N00357747WA0191902069
B1822384100389N00357736WA0191802067
B1822394100390N00357725WA0191602066
B1822404100390N00357715WA0191502065
B1822414100390N00357704WA0191402064
B1822424100389N00357693WA0191402063
B1822434100389N00357683WA0191302062
B1822444100389N00357672WA0191202061
B1822454100388N00357662WA0191102060
B1822464100387N00357652WA0190902058
B1822474100385N00357641WA0190702057
B1822484100384N00357630WA0190602055
B1822494100383N00357619WA0190702054
B1822504100383N00357608WA0190602054
B1822514100382N00357598WA0190402053
B1822524100382N00357587WA0190402052
B1822534100381N00357577WA0190202051
B1822544100382N00357566WA0190202050
B1822554100382N00357556WA0190002049
B1822564100383N00357546WA0190002048
B1822574100383N00357535WA0189802047
B1822584100383N00357525WA0189802047
B1822594100383N00357516WA0189802047
B1823004100384N00357507WA0189702047
B1823014100384N00357498WA0189502045
B1823024100385N00357488WA0189402043
B1823034100386N00357478WA0189302042
B1823044100387N00357469WA0189302041
B1823054100389N00357460WA0189302041
B1823064100390N00357451WA0189202041
B1823074100391N00357442WA0189002039
B1823084100391N00357432WA0188902037
B1823094100393N00357422WA0188802036
B1823104100395N00357412WA0188802035
B1823114100397N00357402WA0188802035
B1823124100398N00357392WA0189002036
B1823134100399N00357382WA0189102037
B1823144100399N00357373WA0189102037
B1823154100398N00357362WA0189102037
B1823164100397N00357352WA0189102037
B1823174100395N00357342WA0189102037
B1823184100392N00357331WA0189102037
B1823194100389N00357321WA0189102038
B1823204100386N00357311WA0189302039
B1823214100383N00357302WA0189302039
B1823224100380N00357292WA0189302039
B1823234100378N00357282WA0189302039
B1823244100376N00357272WA0189302039
B1823254100374N00357261WA0189302039
B1823264100372N00357251WA0189302039
B1823274100369N00357242WA0189202039
B1823284100365N00357232WA0189302039
B1823294100360N00357224WA0189302039
B1823304100354N00357217WA0189202038
B1823314100347N00357212WA0189102038
B1823324100341N00357209WA0189102037
B1823334100334N00357206WA0189202037
B1823344100328N00357204WA0189202037
B1823354100322N00357204WA0189202037
B1823364100317N00357206WA0188902037
B1823374100313N00357211WA0188902036
B1823384100311N00357217WA0188802036
B1823394100312N00357222WA0188802036
B1823404100314N00357226WA0188802035
B1823414100318N00357228WA0188802035
B1823424100323N00357227WA0188802035
B1823434100328N00357224WA0188802035
B1823444100333N00357220WA0188902036
B1823454100337N00357215WA0188902036
B1823464100340N00357208WA0188902035
B1823474100343N00357200WA0188902035
B1823484100345N00357191WA0188902034
B1823494100347N00357181WA0188902034
B1823504100349N00357172WA0188802034
B1823514100350N00357162WA0188802034
B1823524100351N00357152WA0188702033
B1823534100352N00357141WA0188702032
B1823544100352N00357130WA0188602031
B1823554100353N00357119WA0188502031
B1823564100353N00357109WA0188402031
B1823574100353N00357098WA0188302030
B1823584100353N00357088WA0188302029
B1823594100353N00357078WA0188102028
B1824004100352N00357067WA0187902026
B1824014100352N00357057WA0187802024
B1824024100352N00357046WA0187602022
B1824034100353N00357035WA0187402019
B1824044100354N00357024WA0187202018
B1824054100354N00357013WA0187202017
B1824064100355N00357003WA0187302018
B1824074100356N00356993WA0187302018
B1824084100357N00356984WA0187202018
B1824094100357N00356975WA0187102017
B1824104100357N00356964WA0187002015
B1824114100357N00356953WA0186802014
B1824124100357N00356942WA0186802013
B1824134100357N00356932WA0186802013
B1824144100357N00356922WA0186702012
B1824154100357N00356912WA0186602011
B1824164100357N00356901WA0186502010
B1824174100356N00356891WA0186402009
B1824184100356N00356881WA0186402009
B1824194100356N00356871WA0186302008
B1824204100357N00356862WA0186202007
B1824214100358N00356853WA0186002005
B1824224100361N00356843WA0185902002
B1824234100364N00356833WA0185702001
B1824254100371N00356816WA0185602000
B1824264100373N00356812WA0185602000
B1824264100375N00356808WA0185601999
B1824274100379N00356800WA0185401997
B1824304100391N00356781WA0185101992
B1824304100394N00356777WA0184901992
B1824314100396N00356773WA0184801992
B1824324100402N00356766WA0184901992
B1824334100407N00356759WA0184901993
B1824344100411N00356753WA0184901992
B1824354100416N00356746WA0184701991
B1824364100420N00356740WA0184501988
B1824374100426N00356733WA0184401987
B1824384100431N00356727WA0184501987
B1824394100436N00356721WA0184401987
B1824404100440N00356715WA0184401987
B1824414100443N00356709WA0184201986
B1824424100448N00356703WA0184101984
B1824434100453N00356697WA0184001982
B1824444100458N00356692WA0183901981
B1824454100463N00356686WA0183901981
B1824464100467N00356680WA0183901981
B1824474100472N00356674WA0183801979
B1824484100477N00356668WA0183601978
B1824494100482N00356662WA0183401976
B1824504100487N00356655WA0183401975
B1824514100493N00356649WA0183301974
B1824524100498N00356643WA0183201974
B1824534100503N00356638WA0183201974
B1824544100508N00356633WA0183201973
B1824554100514N00356628WA0183101972
B1824564100519N00356622WA0183101971
B1824574100524N00356617WA0182801970
B1824584100530N00356611WA0182801970
B1824594100534N00356606WA0182801970
B1825004100539N00356602WA0182801970
B1825014100544N00356598WA0182701968
B1825024100550N00356592WA0182701967
B1825034100555N00356586WA0182601966
B1825044100559N00356579WA0182601966
B1825054100562N00356571WA0182601966
B1825064100565N00356563WA0182601966
B1825074100568N00356555WA0182501966
B1825084100570N00356547WA0182401965
B1825094100573N00356538WA0182301963
B1825104100574N00356528WA0182201962
B1825114100576N00356518WA0182101962
B1825124100578N00356509WA0182201963
B1825134100579N00356501WA0182301963
B1825144100581N00356492WA0182201962
B1825154100583N00356484WA0182101961
B1825164100585N00356475WA0182101960
B1825174100587N00356466WA0182101960
B1825184100589N00356458WA0182001960
B1825194100592N00356450WA0182001961
B1825204100595N00356442WA0182001960
B1825214100599N00356435WA0182001960
B1825224100603N00356428WA0182001960
B1825234100607N00356422WA0182001960
B1825244100612N00356416WA0182001960
B1825254100616N00356409WA0181901960
B1825264100619N00356401WA0181801959
B1825274100622N00356392WA0181901959
B1825284100625N00356383WA0181901959
B1825294100627N00356374WA0182001960
B1825304100630N00356366WA0182101960
B1825314100632N00356358WA0182201961
B1825324100634N00356349WA0182201962
B1825334100636N00356341WA0182301963
B1825344100638N00356333WA0182301963
B1825354100639N00356325WA0182401964
B1825364100639N00356316WA0182301964
B1825374100638N00356306WA0182301964
B1825384100636N00356296WA0182501965
B1825394100633N00356287WA0182601966
B1825404100630N00356279WA0182601967
B1825414100625N00356273WA0182601967
B1825424100619N00356270WA0182601967
B1825434100612N00356268WA0182401967
B1825444100606N00356270WA0182501967
B1825454100602N00356273WA0182501967
B1825464100599N00356279WA0182501968
B1825474100598N00356284WA0182501968
B1825484100599N00356289WA0182501969
B1825494100601N00356293WA0182701968
B1825504100605N00356296WA0182701970
B1825514100610N00356297WA0182801971
B1825524100615N00356297WA0182901972
B1825534100620N00356296WA0183101973
B1825544100625N00356295WA0183101974
B1825554100629N00356294WA0183201976
B1825564100633N00356291WA0183301976
B1825574100637N00356287WA0183301976
B1825584100641N00356281WA0183301976
B1825594100643N00356273WA0183201976
B1826004100644N00356264WA0183301977
B1826014100645N00356256WA0183501978
B1826024100646N00356247WA0183601980
B1826034100647N00356239WA0183801981
B1826044100647N00356232WA0183801981
B1826054100645N00356225WA0183801981
B1826064100641N00356218WA0183701980
B1826074100636N00356214WA0183701979
B1826084100629N00356211WA0183801979
B1826094100623N00356212WA0183701980
B1826104100618N00356216WA0183701979
B1826114100614N00356223WA0183701979
B1826124100613N00356230WA0183801979
B1826134100613N00356237WA0183801980
B1826144100615N00356243WA0183901980
B1826154100619N00356247WA0184001981
B1826164100623N00356251WA0184101981
B1826174100628N00356254WA0184101984
B1826184100632N00356256WA0184301985
B1826194100636N00356259WA0184301986
B1826204100640N00356261WA0184401987
B1826214100645N00356263WA0184501987
B1826224100649N00356263WA0184401987
B1826234100655N00356260WA0184401986
B1826244100660N00356256WA0184301986
B1826254100666N00356251WA0184401986
B1826264100670N00356246WA0184501987
B1826274100675N00356240WA0184501988
B1826284100678N00356233WA0184701989
B1826294100681N00356227WA0184701990
B1826304100684N00356220WA0184801990
B1826314100686N00356213WA0184801990
B1826324100687N00356205WA0184601990
B1826334100686N00356196WA0184601989
B1826344100684N00356188WA0184601989
B1826354100682N00356180WA0184601989
B1826364100679N00356173WA0184501988
B1826374100674N00356168WA0184501988
B1826384100669N00356164WA0184501987
B1826394100664N00356160WA0184501988
B1826404100658N00356157WA0184501988
B1826414100653N00356156WA0184501989
B1826424100648N00356155WA0184501988
B1826434100642N00356156WA0184501988
B1826444100637N00356157WA0184601989
B1826454100631N00356159WA0184501989
B1826464100627N00356163WA0184501988
B1826474100623N00356167WA0184301987
B1826484100619N00356173WA0184301986
B1826494100615N00356180WA0184501987
B1826504100612N00356186WA0184701989
B1826514100608N00356192WA0184801991
B1826524100604N00356196WA0184901992
B1826534100600N00356200WA0185001994
B1826544100597N00356204WA0185001994
B1826554100595N00356209WA0184901994
B1826564100595N00356215WA0184801992
B1826574100598N00356222WA0184801991
B1826584100602N00356226WA0184801990
B1826594100606N00356229WA0184901990
B1827004100611N00356231WA0185001990
B1827014100615N00356231WA0185001991
B1827024100620N00356231WA0185001989
B1827034100625N00356228WA0184801988
B1827044100630N00356222WA0184801987
B1827054100634N00356214WA0184901986
B1827064100637N00356206WA0185001986
B1827074100640N00356199WA0185101988
B1827084100642N00356192WA0185101989
B1827094100645N00356186WA0185101988
B1827104100647N00356178WA0185101988
B1827114100648N00356170WA0185101988
B1827124100649N00356162WA0185101988
B1827134100648N00356154WA0185101988
B1827144100647N00356146WA0185101988
B1827154100645N00356138WA0185101989
B1827164100643N00356131WA0185101989
B1827174100641N00356124WA0185201989
B1827184100639N00356117WA0185201990
B1827194100637N00356110WA0185301991
B1827204100636N00356103WA0185301991
B1827214100635N00356096WA0185301991
B1827224100635N00356088WA0185401992
B1827234100633N00356081WA0185401992
B1827244100629N00356073WA0185401992
B1827254100625N00356067WA0185601993
B1827264100620N00356061WA0185701995
B1827274100615N00356057WA0185701996
B1827284100609N00356055WA0185701997
B1827294100603N00356056WA0185701997
B1827304100598N00356059WA0185601997
B1827314100594N00356065WA0185501996
B1827324100593N00356073WA0185401996
B1827334100594N00356080WA0185401996
B1827344100597N00356086WA0185601997
B1827354100601N00356090WA0185601998
B1827364100605N00356093WA0185601998
B1827374100609N00356094WA0185601998
B1827384100614N00356093WA0185501997
B1827394100619N00356089WA0185601996
B1827404100623N00356084WA0185501996
B1827414100627N00356077WA0185701996
B1827424100630N00356070WA0185701998
B1827434100632N00356063WA0185801998
B1827444100634N00356055WA0185901999
B1827454100636N00356048WA0185901999
B1827464100638N00356041WA0185902000
B1827474100641N00356033WA0186002000
B1827484100643N00356026WA0186102001
B1827494100646N00356018WA0186202003
B1827504100648N00356011WA0186302003
B1827514100649N00356004WA0186302004
B1827524100649N00355996WA0186302004
B1827534100647N00355987WA0186402004
B1827544100643N00355980WA0186402004
B1827554100640N00355973WA0186502006
B1827564100635N00355968WA0186402006
B1827574100631N00355966WA0186302007
B1827584100625N00355966WA0186302006
B1827594100620N00355969WA0186002006
B1828004100616N00355974WA0186002006
B1828014100614N00355980WA0185902006
B1828024100613N00355987WA0186002005
B1828034100615N00355993WA0186102005
B1828044100618N00355999WA0185902005
B1828054100623N00356002WA0185902004
B1828064100628N00356003WA0185902003
B1828074100633N00356001WA0185902003
B1828084100638N00355998WA0185902004
B1828094100643N00355993WA0185902003
B1828104100647N00355988WA0185802003
B1828114100651N00355983WA0185802003
B1828124100654N00355977WA0185802002
B1828134100657N00355970WA0185702002
B1828144100659N00355961WA0185902001
B1828154100661N00355953WA0185802001
B1828164100663N00355945WA0185802002
B1828174100665N00355938WA0185902002
B1828184100666N00355930WA0185802002
B1828194100667N00355923WA0185602001
B1828204100668N00355915WA0185602000
B1828214100668N00355906WA0185301999
B1828224100667N00355898WA0185201997
B1828234100666N00355888WA0185101996
B1828244100665N00355878WA0185001995
B1828254100664N00355869WA0185001994
B1828264100664N00355860WA0185101994
B1828274100664N00355851WA0185201995
B1828284100665N00355842WA0185201996
B1828294100665N00355834WA0185301996
B1828304100664N00355825WA0185401997
B1828314100662N00355816WA0185401998
B1828324100660N00355807WA0185401998
B1828334100657N00355798WA0185501998
B1828344100655N00355790WA0185501998
B1828354100653N00355781WA0185601999
B1828364100652N00355772WA0185601999
B1828374100651N00355763WA0185501999
B1828384100651N00355754WA0185601999
B1828394100651N00355745WA0185601999
B1828404100650N00355735WA0185601998
B1828414100648N00355726WA0185401998
B1828424100644N00355719WA0185101996
B1828434100638N00355713WA0185001994
B1828444100631N00355711WA0184801992
B1828454100624N00355713WA0184401991
B1828464100620N00355717WA0184401990
B1828474100617N00355722WA0184401989
B1828484100616N00355728WA0184401988
B1828494100616N00355733WA0184301987
B1828504100617N00355738WA0184301988
B1828514100619N00355743WA0184301988
B1828524100622N00355746WA0184201988
B1828534100626N00355748WA0184301988
B1828544100630N00355749WA0184201987
B1828554100635N00355749WA0184201987
B1828564100640N00355748WA0184201987
B1828574100645N00355747WA0184301988
B1828584100650N00355745WA0184401988
B1828594100654N00355742WA0184301988
B1829004100659N00355739WA0184301988
B1829014100663N00355735WA0184301987
B1829024100668N00355730WA0184201987
B1829034100672N00355723WA0184201986
B1829044100675N00355716WA0184201986
B1829054100679N00355708WA0184101986
B1829064100683N00355701WA0184201986
B1829074100687N00355695WA0184301986
B1829084100691N00355690WA0184301986
B1829094100696N00355686WA0184301986
B1829104100700N00355683WA0184301987
B1829114100704N00355680WA0184301987
B1829124100708N00355679WA0184301987
B1829134100713N00355678WA0184301987
B1829144100717N00355676WA0184101986
B1829154100722N00355672WA0184101985
B1829164100727N00355667WA0184001985
B1829174100732N00355661WA0184001985
B1829184100736N00355655WA0184101986
B1829194100740N00355650WA0184201987
B1829204100743N00355644WA0184201987
B1829214100747N00355638WA0184201987
B1829224100749N00355632WA0184001987
B1829234100751N00355626WA0184101986
B1829244100753N00355619WA0183801984
B1829254100754N00355611WA0183701983
B1829264100755N00355602WA0183601982
B1829274100755N00355594WA0183501981
B1829284100755N00355586WA0183601981
B1829294100755N00355578WA0183601980
B1829304100756N00355570WA0183501979
B1829314100756N00355562WA0183401979
B1829324100756N00355554WA0183301978
B1829334100755N00355546WA0183301977
B1829344100753N00355537WA0183201976
B1829354100751N00355529WA0183201976
B1829364100749N00355522WA0183101976
B1829374100748N00355514WA0183001975
B1829384100746N00355506WA0183001974
B1829394100744N00355498WA0182801973
B1829404100742N00355490WA0182901973
B1829414100740N00355482WA0182901972
B1829424100740N00355474WA0182901972
B1829434100741N00355467WA0182901972
B1829444100742N00355460WA0182801971
B1829454100743N00355453WA0182701970
B1829464100744N00355446WA0182601968
B1829474100746N00355439WA0182501967
B1829484100750N00355433WA0182401966
B1829494100755N00355428WA0182401965
B1829504100761N00355426WA0182301964
B1829514100766N00355424WA0182301965
B1829524100771N00355423WA0182301965
B1829534100776N00355422WA0182201964
B1829544100781N00355421WA0182001963
B1829554100786N00355419WA0182001961
B1829564100791N00355418WA0181901960
B1829574100797N00355417WA0181701959
B1829584100802N00355416WA0181601959
B1829594100807N00355414WA0181601958
B1830004100812N00355412WA0181601958
B1830014100817N00355411WA0181501957
B1830024100823N00355411WA0181401956
B1830034100828N00355409WA0181301955
B1830044100833N00355407WA0181201954
B1830054100838N00355403WA0181101953
B1830064100843N00355399WA0181101953
B1830074100847N00355396WA0181001952
B1830084100852N00355394WA0180901952
B1830094100857N00355391WA0180801950
B1830104100862N00355387WA0180701949
B1830114100867N00355384WA0180601948
B1830124100872N00355382WA0180501947
B1830134100877N00355379WA0180501947
B1830144100883N00355377WA0180501947
B1830154100887N00355375WA0180401946
B1830164100892N00355373WA0180301945
B1830174100897N00355370WA0180201944
B1830184100902N00355368WA0180101943
B1830194100906N00355364WA0179901941
B1830204100911N00355360WA0179801940
B1830214100915N00355355WA0179601938
B1830224100919N00355349WA0179501937
B1830234100923N00355344WA0179401936
B1830244100927N00355339WA0179301934
B1830254100930N00355334WA0179101933
B1830264100934N00355328WA0178901931
B1830274100937N00355322WA0178801930
B1830284100940N00355317WA0178701928
B1830294100944N00355311WA0178601926
B1830304100947N00355304WA0178401925
B1830314100949N00355297WA0178201923
B1830324100951N00355290WA0178201922
B1830334100953N00355283WA0178101920
B1830344100955N00355275WA0177901919
B1830354100957N00355268WA0177701917
B1830364100959N00355261WA0177501915
B1830374100961N00355254WA0177401913
B1830384100963N00355246WA0177201912
B1830394100966N00355239WA0177001910
B1830404100968N00355232WA0176901909
B1830414100971N00355225WA0176801908
B1830424100974N00355219WA0176701906
B1830434100977N00355212WA0176601905
B1830444100980N00355206WA0176401903
B1830454100983N00355200WA0176201901
B1830464100986N00355193WA0176101900
B1830474100990N00355187WA0176001899
B1830484100994N00355182WA0175901897
B1830494100998N00355177WA0175801896
B1830504101002N00355173WA0175601895
B1830514101007N00355169WA0175401893
B1830524101011N00355165WA0175301892
B1830534101016N00355161WA0175201890
B1830544101021N00355157WA0175101888
B1830554101026N00355154WA0175001887
B1830564101031N00355151WA0175001886
B1830574101036N00355147WA0174701885
B1830584101040N00355144WA0174701883
B1830594101045N00355141WA0174501881
B1831004101050N00355137WA0174301880
B1831014101055N00355133WA0174201878
B1831024101060N00355129WA0174101877
B1831034101065N00355125WA0173901876
B1831044101069N00355122WA0173801875
B1831054101074N00355119WA0173801874
B1831064101079N00355116WA0173601872
B1831074101084N00355112WA0173401871
B1831084101089N00355108WA0173401870
B1831094101093N00355105WA0173301868
B1831104101098N00355101WA0173101867
B1831114101103N00355096WA0173101866
B1831124101107N00355092WA0172901865
B1831134101111N00355087WA0172901864
B1831144101115N00355082WA0172701863
B1831154101120N00355078WA0172601862
B1831164101124N00355074WA0172401860
B1831174101128N00355069WA0172301858
B1831184101133N00355064WA0172201857
B1831194101137N00355059WA0172001855
B1831204101142N00355054WA0172001854
B1831214101146N00355048WA0171901853
B1831224101149N00355042WA0171801853
B1831234101153N00355037WA0171701851
B1831244101157N00355031WA0171601849
B1831254101161N00355025WA0171401848
B1831264101164N00355019WA0171301846
B1831274101168N00355012WA0171301845
B1831284101171N00355006WA0171201844
B1831294101174N00354999WA0171101843
B1831304101178N00354993WA0170901841
B1831314101181N00354986WA0170601840
B1831324101185N00354979WA0170601838
B1831334101188N00354973WA0170501837
B1831344101192N00354966WA0170301836
B1831354101195N00354960WA0170101834
B1831364101199N00354953WA0170001833
B1831374101202N00354946WA0170001832
B1831384101204N00354938WA0169901830
B1831394101206N00354930WA0169801829
B1831404101207N00354922WA0169701829
B1831414101208N00354914WA0169701828
B1831424101209N00354906WA0169501826
B1831434101209N00354897WA0169301823
B1831444101210N00354888WA0169001821
B1831454101211N00354879WA0168901819
B1831464101212N00354869WA0168801817
B1831474101214N00354860WA0168701817
B1831484101216N00354851WA0168601816
B1831494101217N00354842WA0168401815
B1831504101219N00354832WA0168401813
B1831514101220N00354823WA0168101811
B1831524101222N00354814WA0168001809
B1831534101224N00354804WA0167801807
B1831544101227N00354795WA0167701806
B1831554101229N00354785WA0167501805
B1831564101230N00354775WA0167401804
B1831574101232N00354766WA0167301803
B1831584101234N00354757WA0167301801
B1831594101237N00354747WA0167101800
B1832004101238N00354738WA0167001799
B1832014101240N00354729WA0166801797
B1832024101242N00354719WA0166701796
B1832034101244N00354710WA0166601794
B1832044101246N00354701WA0166501793
B1832054101248N00354692WA0166301793
B1832064101249N00354684WA0166301793
B1832074101251N00354676WA0166301792
B1832084101252N00354668WA0166301792
B1832094101253N00354660WA0166201791
B1832104101253N00354652WA0166101790
B1832114101253N00354643WA0165901789
B1832124101252N00354634WA0165901788
B1832134101251N00354626WA0165801788
B1832144101251N00354618WA0165901787
B1832154101251N00354610WA0165701786
B1832164101252N00354602WA0165501785
B1832174101252N00354594WA0165301784
B1832184101253N00354585WA0165301782
B1832194101254N00354577WA0165201781
B1832204101256N00354569WA0165101780
B1832214101257N00354561WA0165001779
B1832224101259N00354554WA0164901778
B1832234101261N00354546WA0164801777
B1832244101263N00354538WA0164701776
B1832254101265N00354530WA0164701775
B1832264101267N00354523WA0164601774
B1832274101269N00354515WA0164401773
B1832284101271N00354508WA0164301772
B1832294101274N00354500WA0164201771
B1832304101276N00354492WA0164201770
B1832314101278N00354484WA0164201769
B1832324101281N00354477WA0164101769
B1832334101283N00354469WA0163901767
B1832344101285N00354461WA0163801766
B1832354101288N00354453WA0163801765
B1832364101291N00354445WA0163601764
B1832374101293N00354437WA0163501763
B1832384101296N00354429WA0163401762
B1832394101298N00354420WA0163401761
B1832404101301N00354412WA0163301760
B1832414101303N00354404WA0163101759
B1832424101305N00354395WA0163101758
B1832434101307N00354387WA0163001757
B1832444101310N00354378WA0163001757
B1832454101312N00354370WA0162901756
B1832464101314N00354362WA0162801755
B1832474101315N00354354WA0162701753
B1832484101317N00354345WA0162501752
B1832494101319N00354337WA0162401750
B1832504101322N00354328WA0162301749
B1832514101324N00354320WA0162301748
B1832524101327N00354312WA0162201747
B1832534101329N00354304WA0162101746
B1832544101331N00354296WA0162001745
B1832554101334N00354289WA0161901744
B1832564101337N00354281WA0161801743
B1832574101340N00354273WA0161701742
B1832584101343N00354265WA0161701741
B1832594101345N00354258WA0161601741
B1833004101348N00354250WA0161501740
B1833014101351N00354243WA0161401738
B1833024101353N00354235WA0161201737
B1833034101355N00354226WA0161101736
B1833044101357N00354218WA0160901735
B1833054101359N00354209WA0160901733
B1833064101360N00354200WA0160701732
B1833074101361N00354191WA0160601731
B1833084101362N00354183WA0160501730
B1833094101363N00354174WA0160401728
B1833104101364N00354165WA0160401727
B1833114101366N00354156WA0160301727
B1833124101367N00354148WA0160201726
B1833134101368N00354139WA0160101725
B1833144101369N00354131WA0159901724
B1833154101370N00354123WA0159801722
B1833164101371N00354113WA0159701721
B1833174101372N00354105WA0159701720
B1833184101372N00354096WA0159601719
B1833194101373N00354087WA0159601719
B1833204101373N00354078WA0159601718
B1833214101374N00354070WA0159401717
B1833224101375N00354061WA0159401717
B1833234101377N00354053WA0159301716
B1833244101379N00354045WA0159201715
B1833254101381N00354037WA0159101714
B1833264101384N00354029WA0159001713
B1833274101387N00354022WA0158901712
B1833284101390N00354014WA0158801711
B1833294101393N00354007WA0158701709
B1833304101397N00353999WA0158601707
B1833314101400N00353992WA0158401705
B1833324101404N00353984WA0158201704
B1833334101408N00353978WA0158201703
B1833344101412N00353971WA0158101703
B1833354101417N00353966WA0158001702
B1833364101421N00353960WA0157901701
B1833374101425N00353953WA0157901700
B1833384101430N00353947WA0157801699
B1833394101434N00353940WA0157901699
B1833404101437N00353933WA0158001699
B1833414101441N00353926WA0158101700
B1833424101443N00353918WA0158201700
B1833434101445N00353909WA0158201701
B1833444101444N00353901WA0158201701
B1833454101442N00353892WA0158201701
B1833464101438N00353885WA0158101701
B1833474101432N00353879WA0158301701
B1833484101427N00353875WA0158501703
B1833494101422N00353871WA0158501704
B1833504101417N00353869WA0158501705
B1833514101412N00353867WA0158601706
B1833524101407N00353865WA0158701706
B1833534101402N00353865WA0158701707
B1833544101397N00353866WA0158601707
B1833554101393N00353870WA0158601707
B1833564101390N00353875WA0158701707
B1833574101388N00353881WA0158801709
B1833584101387N00353887WA0158901711
B1833594101386N00353892WA0158901711
B1834004101385N00353896WA0158901711
B1834014101385N00353900WA0158801710
B1834024101386N00353904WA0158501708
B1834034101390N00353907WA0158401707
B1834044101395N00353908WA0158401706
B1834054101400N00353907WA0158101705
B1834064101405N00353903WA0158201704
B1834074101409N00353898WA0158201703
B1834084101414N00353892WA0158301704
B1834094101418N00353887WA0158401706
B1834104101423N00353882WA0158501707
B1834114101426N00353876WA0158601708
B1834124101429N00353870WA0158501707
B1834134101432N00353863WA0158401707
B1834144101435N00353856WA0158401706
B1834154101439N00353850WA0158201705
B1834164101444N00353845WA0158301705
B1834174101449N00353841WA0158301705
B1834184101455N00353837WA0158401706
B1834194101459N00353834WA0158501707
B1834204101464N00353832WA0158601708
B1834214101468N00353830WA0158501708
B1834224101473N00353827WA0158301708
B1834234101478N00353822WA0158201706
B1834244101483N00353817WA0158201705
B1834254101488N00353813WA0158301705
B1834264101493N00353810WA0158401706
B1834274101498N00353808WA0158401706
B1834284101504N00353808WA0158501707
B1834294101508N00353809WA0158501707
B1834304101512N00353810WA0158401706
B1834314101516N00353814WA0158301705
B1834324101517N00353820WA0158201704
B1834334101517N00353826WA0158101703
B1834344101516N00353832WA0158101703
B1834354101514N00353837WA0158201703
B1834364101512N00353842WA0158201703
B1834374101508N00353846WA0158201703
B1834384101504N00353848WA0158001702
B1834394101499N00353850WA0157901700
B1834404101493N00353851WA0157801699
B1834414101488N00353853WA0157801698
B1834424101483N00353857WA0157801698
B1834434101480N00353862WA0157801698
B1834444101478N00353867WA0157901698
B1834454101476N00353873WA0157901699
B1834464101474N00353878WA0157901699
B1834474101473N00353882WA0157801698
B1834484101473N00353888WA0157601697
B1834494101474N00353893WA0157501695
B1834504101478N00353899WA0157501695
B1834514101481N00353905WA0157601696
B1834524101484N00353909WA0157701697
B1834534101487N00353913WA0157801698
B1834544101489N00353917WA0157701697
B1834554101492N00353920WA0157501696
B1834564101497N00353922WA0157401694
B1834574101502N00353924WA0157301692
B1834584101507N00353925WA0157301691
B1834594101513N00353925WA0157301691
B1835004101518N00353923WA0157401691
B1835014101523N00353922WA0157401691
B1835024101528N00353920WA0157301691
B1835034101533N00353918WA0157401691
B1835044101538N00353913WA0157101690
B1835054101542N00353905WA0156901689
B1835064101545N00353895WA0156801688
B1835074101548N00353886WA0157001688
B1835084101551N00353879WA0157001689
B1835094101554N00353872WA0157001689
B1835104101558N00353866WA0156901687
B1835114101562N00353859WA0156801686
B1835124101565N00353851WA0156701685
B1835134101570N00353844WA0156701684
B1835144101575N00353838WA0156701684
B1835154101579N00353832WA0156701684
B1835164101584N00353826WA0156701684
B1835174101588N00353820WA0156901685
B1835184101592N00353814WA0157001685
B1835194101595N00353807WA0157101686
B1835204101598N00353799WA0156901686
B1835214101599N00353791WA0156901686
B1835224101601N00353783WA0156801686
B1835234101604N00353775WA0156901685
B1835244101608N00353768WA0156801685
B1835254101612N00353762WA0156701685
B1835264101617N00353757WA0156801685
B1835274101621N00353751WA0156801685
B1835284101626N00353746WA0156801685
B1835294101630N00353741WA0156701685
B1835304101635N00353737WA0156701684
B1835314101640N00353732WA0156601684
B1835324101646N00353729WA0156601684
B1835334101651N00353725WA0156701685
B1835344101656N00353721WA0156701685
B1835354101661N00353718WA0156601684
B1835364101666N00353716WA0156501683
B1835374101672N00353713WA0156401683
B1835384101678N00353710WA0156501683
B1835394101683N00353706WA0156401682
B1835404101688N00353701WA0156401683
B1835414101693N00353696WA0156301682
B1835424101698N00353692WA0156301682
B1835434101703N00353690WA0156101681
B1835444101709N00353689WA0156001680
B1835454101715N00353688WA0155901679
B1835464101721N00353687WA0155801678
B1835474101726N00353687WA0155801678
B1835484101732N00353687WA0155801678
B1835494101737N00353686WA0155701677
B1835504101743N00353686WA0155701676
B1835514101748N00353685WA0155601675
B1835524101754N00353686WA0155601675
B1835534101760N00353686WA0155701676
B1835544101766N00353687WA0155701677
B1835554101771N00353688WA0155901678
B1835564101777N00353687WA0156001679
B1835574101782N00353686WA0156001680
B1835584101787N00353684WA0156201681
B1835594101792N00353681WA0156201682
B1836004101796N00353678WA0156201682
B1836014101801N00353676WA0156301682
B1836024101806N00353676WA0156201682
B1836034101811N00353677WA0156101682
B1836044101817N00353678WA0156001681
B1836054101822N00353680WA0156001681
B1836064101828N00353682WA0156001681
B1836074101833N00353683WA0156001682
B1836084101838N00353685WA0156001681
B1836094101843N00353686WA0156001681
B1836104101849N00353687WA0155901680
B1836114101854N00353688WA0156001680
B1836124101860N00353688WA0156001681
B1836134101866N00353689WA0156001681
B1836144101872N00353690WA0156101681
B1836154101877N00353691WA0156101682
B1836164101883N00353690WA0156101682
B1836174101889N00353689WA0156201683
B1836184101895N00353687WA0156201684
B1836194101901N00353686WA0156301684
B1836204101907N00353685WA0156401685
B1836214101912N00353683WA0156501685
B1836224101917N00353682WA0156501686
B1836234101923N00353681WA0156501686
B1836244101928N00353679WA0156401686
B1836254101933N00353677WA0156401686
B1836264101938N00353675WA0156301685
B1836274101944N00353673WA0156301685
B1836284101950N00353671WA0156201684
B1836294101955N00353668WA0156301685
B1836304101961N00353666WA0156301685
B1836314101966N00353663WA0156201685
B1836324101971N00353660WA0156201684
B1836334101977N00353658WA0156101684
B1836344101982N00353654WA0156001683
B1836354101988N00353650WA0156001682
B1836364101994N00353647WA0156001682
B1836374101999N00353643WA0156001682
B1836384102005N00353640WA0155901681
B1836394102010N00353636WA0155901681
B1836404102015N00353632WA0155701680
B1836414102021N00353629WA0155801679
B1836424102027N00353625WA0155701678
B1836434102032N00353620WA0155601678
B1836444102038N00353615WA0155601678
B1836454102043N00353609WA0155601678
B1836464102047N00353604WA0155601677
B1836474102053N00353599WA0155601677
B1836484102058N00353594WA0155501676
B1836494102063N00353589WA0155401676
B1836504102068N00353584WA0155501675
B1836514102073N00353577WA0155301674
B1836524102077N00353570WA0155201673
B1836534102080N00353562WA0155101672
B1836544102084N00353554WA0155001671
B1836554102088N00353545WA0155001670
B1836564102091N00353536WA0155001670
B1836574102095N00353527WA0155101671
B1836584102097N00353519WA0155201672
B1836594102099N00353511WA0155201672
B1837004102101N00353504WA0155201672
B1837014102104N00353498WA0155201672
B1837024102108N00353491WA0155101671
B1837034102111N00353485WA0154801669
B1837044102114N00353477WA0154901668
B1837054102117N00353468WA0154701667
B1837064102120N00353460WA0154801667
B1837074102123N00353453WA0154901668
B1837084102127N00353447WA0154901668
B1837094102130N00353441WA0154901668
B1837104102133N00353435WA0154901668
B1837114102135N00353429WA0154801666
B1837124102138N00353423WA0154601665
B1837134102142N00353416WA0154401663
B1837144102146N00353410WA0154301662
B1837154102151N00353405WA0154301661
B1837164102156N00353400WA0154301662
B1837174102162N00353396WA0154301662
B1837184102167N00353392WA0154301662
B1837194102171N00353388WA0154401662
B1837204102176N00353384WA0154401662
B1837214102181N00353380WA0154501663
B1837224102185N00353374WA0154501663
B1837234102188N00353368WA0154501663
B1837244102191N00353361WA0154501663
B1837254102193N00353354WA0154401662
B1837264102195N00353346WA0154301662
B1837274102197N00353338WA0154401662
B1837284102199N00353330WA0154501662
B1837294102201N00353322WA0154501663
B1837304102203N00353315WA0154501664
B1837314102205N00353308WA0154501663
B1837324102208N00353302WA0154401662
B1837334102211N00353295WA0154301661
B1837344102214N00353288WA0154201661
B1837354102218N00353282WA0154101660
B1837364102223N00353276WA0154101659
B1837374102227N00353270WA0154101659
B1837384102231N00353265WA0154001659
B1837394102234N00353258WA0154001659
B1837404102238N00353252WA0153901658
B1837414102241N00353245WA0153801657
B1837424102245N00353238WA0153801656
B1837434102249N00353231WA0153701656
B1837444102253N00353224WA0153701655
B1837454102256N00353217WA0153701655
B1837464102260N00353211WA0153801655
B1837474102264N00353204WA0153701655
B1837484102268N00353198WA0153801656
B1837494102272N00353192WA0153801656
B1837504102275N00353186WA0153701655
B1837514102280N00353180WA0153601655
B1837524102284N00353175WA0153501654
B1837534102289N00353171WA0153501654
B1837544102294N00353167WA0153401653
B1837554102298N00353163WA0153201652
B1837564102304N00353160WA0153201651
B1837574102309N00353157WA0153201650
B1837584102315N00353154WA0153201650
B1837594102320N00353150WA0153301650
B1838004102324N00353145WA0153401651
B1838014102328N00353139WA0153401652
B1838024102331N00353134WA0153401652
B1838034102334N00353128WA0153401652
B1838044102338N00353123WA0153401652
B1838054102342N00353118WA0153301651
B1838064102347N00353113WA0153101650
B1838074102352N00353109WA0153001649
B1838084102357N00353104WA0153001649
B1838094102361N00353098WA0153001648
B1838104102366N00353093WA0153001648
B1838114102371N00353087WA0153001648
B1838124102375N00353082WA0153001648
B1838134102379N00353076WA0152901648
B1838144102383N00353071WA0152701647
B1838154102388N00353066WA0152601646
B1838164102393N00353061WA0152601645
B1838174102398N00353056WA0152501644
B1838184102402N00353049WA0152501644
B1838194102407N00353043WA0152501643
B1838204102410N00353036WA0152501643
B1838214102414N00353030WA0152401643
B1838224102417N00353023WA0152401642
B1838234102420N00353015WA0152301641
B1838244102423N00353008WA0152101640
B1838254102426N00353000WA0152101639
B1838264102429N00352992WA0152001638
B1838274102432N00352984WA0151901637
B1838284102435N00352976WA0152001637
B1838294102438N00352968WA0152001637
B1838304102442N00352962WA0152101638
B1838314102444N00352955WA0152001638
B1838324102446N00352948WA0152101637
B1838334102447N00352940WA0152101636
B1838344102446N00352931WA0152001636
B1838354102445N00352922WA0152001636
B1838364102444N00352915WA0152001636
B1838374102445N00352907WA0151901635
B1838384102446N00352899WA0151701633
B1838394102448N00352892WA0151501632
B1838404102450N00352884WA0151401630
B1838414102452N00352876WA0151301629
B1838424102454N00352867WA0151101627
B1838434102457N00352859WA0151001625
B1838444102460N00352851WA0150801624
B1838454102463N00352842WA0150701623
B1838464102465N00352834WA0150501622
B1838474102468N00352827WA0150401620
B1838484102471N00352819WA0150301618
B1838494102474N00352811WA0150201617
B1838504102476N00352802WA0149801615
B1838514102478N00352793WA0149801613
B1838524102479N00352784WA0149701612
B1838534102482N00352775WA0149601611
B1838544102485N00352767WA0149501610
B1838554102487N00352759WA0149301609
B1838564102490N00352751WA0149301608
B1838574102491N00352742WA0149201607
B1838584102493N00352733WA0149101606
B1838594102494N00352724WA0148901604
B1839004102495N00352715WA0148901603
B1839014102496N00352706WA0148901602
B1839024102498N00352697WA0148701601
B1839034102499N00352688WA0148601600
B1839044102500N00352680WA0148501599
B1839054102502N00352671WA0148301597
B1839064102505N00352663WA0148101595
B1839074102509N00352657WA0148001593
B1839084102514N00352652WA0147901592
B1839094102519N00352647WA0147801591
B1839104102524N00352643WA0147701590
B1839114102529N00352639WA0147601590
B1839124102534N00352635WA0147601589
B1839134102539N00352632WA0147501588
B1839144102544N00352630WA0147501588
B1839154102549N00352628WA0147501587
B1839164102555N00352625WA0147301586
B1839174102560N00352621WA0147301585
B1839184102565N00352617WA0147201584
B1839194102569N00352612WA0147101584
B1839204102573N00352606WA0147101584
B1839214102577N00352600WA0147201585
B1839224102581N00352594WA0147301585
B1839234102584N00352588WA0147301585
B1839244102588N00352583WA0147201585
B1839254102591N00352578WA0147201584
B1839264102595N00352573WA0147101583
B1839274102599N00352568WA0146901582
B1839284102603N00352563WA0146801581
B1839294102607N00352556WA0146801581
B1839304102611N00352550WA0146801580
B1839314102614N00352543WA0146801580
B1839324102618N00352537WA0146701579
B1839334102620N00352529WA0146601578
B1839344102622N00352521WA0146401577
B1839354102625N00352513WA0146401576
B1839364102627N00352504WA0146401575
B1839374102630N00352496WA0146401575
B1839384102633N00352488WA0146501575
B1839394102636N00352480WA0146601575
B1839404102639N00352473WA0146601575
B1839414102641N00352465WA0146701576
B1839424102643N00352458WA0146801577
B1839434102644N00352451WA0146801578
B1839444102646N00352444WA0146801578
B1839454102649N00352438WA0146601578
B1839464102653N00352434WA0146401576
B1839474102658N00352432WA0146301575
B1839484102664N00352431WA0146401574
B1839494102670N00352429WA0146401575
B1839504102675N00352426WA0146501575
B1839514102679N00352421WA0146401575
B1839524102682N00352415WA0146401575
B1839534102685N00352409WA0146301574
B1839544102687N00352401WA0146001573
B1839554102688N00352391WA0145901571
B1839564102689N00352381WA0145901570
B1839574102691N00352372WA0145901570
B1839584102694N00352363WA0145901569
B1839594102697N00352355WA0145801569
B1840004102699N00352347WA0145901569
B1840014102701N00352339WA0145801569
B1840024102702N00352330WA0145701568
B1840034102704N00352322WA0145701567
B1840044102707N00352314WA0145601566
B1840054102710N00352307WA0145501565
B1840064102713N00352300WA0145401565
B1840074102716N00352293WA0145401565
B1840084102719N00352287WA0145301565
B1840094102723N00352280WA0145201564
B1840104102726N00352274WA0145301563
B1840114102731N00352269WA0145301562
B1840124102735N00352265WA0145201561
B1840134102740N00352261WA0145001561
B1840144102744N00352258WA0145101560
B1840154102749N00352254WA0145001560
B1840164102753N00352250WA0144901559
B1840174102758N00352248WA0144701558
B1840184102763N00352245WA0144601557
B1840194102768N00352241WA0144501555
B1840204102773N00352234WA0144301555
B1840214102777N00352227WA0144401554
B1840224102781N00352220WA0144401554
B1840234102784N00352213WA0144301553
B1840244102788N00352206WA0144301553
B1840254102791N00352198WA0144201551
B1840264102794N00352190WA0144001550
B1840274102797N00352182WA0143901549
B1840284102801N00352175WA0143901548
B1840294102805N00352168WA0143801548
B1840304102810N00352162WA0143801547
B1840314102814N00352156WA0143701547
B1840324102818N00352149WA0143601546
B1840334102822N00352143WA0143601545
B1840344102827N00352137WA0143401544
B1840354102832N00352131WA0143301543
B1840364102837N00352126WA0143201542
B1840374102842N00352121WA0143201541
B1840384102847N00352116WA0143101541
B1840394102852N00352111WA0143001540
B1840404102857N00352107WA0142801538
B1840414102862N00352104WA0142801537
B1840424102868N00352101WA0142701536
B1840434102874N00352098WA0142701536
B1840444102879N00352094WA0142601535
B1840454102883N00352089WA0142501535
B1840464102888N00352084WA0142501534
B1840474102892N00352078WA0142201533
B1840484102896N00352071WA0142101531
B1840494102901N00352065WA0142001530
B1840504102906N00352060WA0141901529
B1840514102912N00352055WA0142001530
B1840524102917N00352051WA0142001531
B1840534102921N00352047WA0141901530
B1840544102926N00352043WA0141901529
B1840554102931N00352040WA0141701528
B1840564102937N00352036WA0141401527
B1840574102942N00352032WA0141501526
B1840584102948N00352028WA0141501526
B1840594102953N00352025WA0141501525
B1841004102959N00352022WA0141601526
B1841014102964N00352019WA0141701526
B1841024102968N00352014WA0141701526
B1841034102972N00352007WA0141401525
B1841044102975N00351998WA0141401524
B1841054102978N00351990WA0141401524
B1841064102981N00351982WA0141501525
B1841074102985N00351976WA0141601526
B1841084102988N00351969WA0141701526
B1841094102992N00351963WA0141601526
B1841104102996N00351956WA0141501526
B1841114103000N00351950WA0141601526
B1841124103005N00351946WA0141501525
B1841134103010N00351943WA0141401524
B1841144103015N00351941WA0141501524
B1841154103019N00351939WA0141501525
B1841164103024N00351937WA0141401524
B1841174103029N00351936WA0141301523
B1841184103033N00351934WA0141301522
B1841194103038N00351932WA0141101521
B1841204103043N00351929WA0141101521
B1841214103048N00351925WA0141001520
B1841224103053N00351922WA0140901519
B1841234103058N00351918WA0140801519
B1841244103063N00351915WA0140801518
B1841254103068N00351912WA0140701517
B1841264103073N00351908WA0140701517
B1841274103078N00351903WA0140701516
B1841284103082N00351899WA0140601516
B1841294103087N00351896WA0140501515
B1841304103091N00351893WA0140401514
B1841314103096N00351890WA0140301512
B1841324103101N00351888WA0140101511
B1841334103106N00351887WA0140001510
B1841344103111N00351885WA0140001509
B1841354103116N00351884WA0139901508
B1841364103121N00351881WA0139801507
B1841374103126N00351879WA0139701506
B1841384103131N00351877WA0139601505
B1841394103136N00351876WA0139601504
B1841404103141N00351876WA0139401502
B1841414103146N00351875WA0139301501
B1841424103151N00351874WA0139201500
B1841434103156N00351875WA0139101499
B1841444103161N00351875WA0138901498
B1841454103166N00351875WA0138801497
B1841464103171N00351873WA0138801496
B1841474103176N00351871WA0138701495
B1841484103181N00351869WA0138601494
B1841494103187N00351868WA0138501493
B1841504103192N00351866WA0138401492
B1841514103197N00351863WA0138201491
B1841524103202N00351860WA0138201490
B1841534103207N00351858WA0138101489
B1841544103213N00351857WA0138101488
B1841554103218N00351857WA0138001487
B1841564103223N00351858WA0137901487
B1841574103227N00351858WA0137801486
B1841584103231N00351858WA0137701485
B1841594103236N00351859WA0137701484
B1842004103241N00351861WA0137501483
B1842014103246N00351861WA0137601482
B1842024103252N00351862WA0137501482
B1842034103257N00351862WA0137701482
B1842044103262N00351862WA0137601482
B1842054103267N00351863WA0137501481
B1842064103272N00351863WA0137501480
B1842074103277N00351864WA0137401479
B1842084103283N00351864WA0137301478
B1842094103288N00351863WA0137201477
B1842104103294N00351860WA0137101476
B1842114103299N00351856WA0137001475
B1842124103304N00351851WA0137001475
B1842134103309N00351848WA0137001475
B1842144103315N00351845WA0136901474
B1842154103320N00351841WA0137001474
B1842164103325N00351837WA0137001474
B1842174103330N00351832WA0137001474
B1842184103334N00351825WA0136901474
B1842194103337N00351818WA0136801473
B1842204103340N00351811WA0136701472
B1842214103344N00351803WA0136601470
B1842224103348N00351797WA0136401469
B1842234103353N00351791WA0136401468
B1842244103358N00351787WA0136401467
B1842254103363N00351783WA0136401467
B1842264103368N00351780WA0136401468
B1842274103373N00351777WA0136501468
B1842284103377N00351776WA0136501467
B1842294103382N00351777WA0136401467
B1842304103385N00351781WA0136301466
B1842314103388N00351785WA0136301465
B1842324103390N00351791WA0136201465
B1842334103391N00351796WA0136201465
B1842344103392N00351802WA0136201465
B1842354103394N00351808WA0136201464
B1842364103395N00351813WA0136101464
B1842374103398N00351818WA0136101464
B1842384103402N00351822WA0136101463
B1842394103405N00351825WA0136001463
B1842404103409N00351828WA0135801462
B1842414103413N00351829WA0135701460
B1842424103418N00351829WA0135401459
B1842434103424N00351825WA0135301457
B1842444103430N00351820WA0135101456
B1842454103435N00351814WA0135101457
B1842464103440N00351809WA0135101456
B1842474103445N00351805WA0135001455
B1842484103450N00351801WA0134801453
B1842494103455N00351795WA0134701451
B1842504103460N00351789WA0134601449
B1842514103465N00351782WA0134501449
B1842524103470N00351775WA0134501449
B1842534103474N00351769WA0134401449
B1842544103478N00351762WA0134301448
B1842554103482N00351755WA0134201447
B1842564103485N00351747WA0134001445
B1842574103488N00351738WA0133901444
B1842584103490N00351728WA0133801442
B1842594103491N00351719WA0133701441
B1843004103493N00351709WA0133601440
B1843014103494N00351700WA0133401438
B1843024103495N00351690WA0133201436
B1843034103497N00351681WA0133001434
B1843044103498N00351671WA0133001432
B1843054103501N00351661WA0133001431
B1843064103502N00351652WA0132801430
B1843074103504N00351642WA0132801429
B1843084103505N00351632WA0132601428
B1843094103507N00351623WA0132401427
B1843104103511N00351614WA0132301426
B1843114103513N00351605WA0132201425
B1843124103516N00351596WA0132201424
B1843134103519N00351587WA0132101423
B1843144103522N00351578WA0132001422
B1843154103525N00351570WA0131901421
B1843164103528N00351562WA0131901419
B1843174103531N00351554WA0131801419
B1843184103534N00351545WA0131701418
B1843194103537N00351536WA0131601417
B1843204103540N00351527WA0131501415
B1843214103541N00351518WA0131501414
B1843224103542N00351508WA0131501414
B1843234103543N00351499WA0131201413
B1843244103543N00351490WA0131101412
B1843254103542N00351480WA0131001410
B1843264103542N00351471WA0130801409
B1843274103542N00351461WA0130701408
B1843284103542N00351451WA0130701407
B1843294103543N00351442WA0130601407
B1843304103543N00351432WA0130501406
B1843314103544N00351423WA0130501405
B1843324103544N00351413WA0130401405
B1843334103543N00351404WA0130301404
B1843344103543N00351394WA0130301403
B1843354103542N00351384WA0130001402
B1843364103541N00351375WA0130001400
B1843374103542N00351365WA0130001399
B1843384103542N00351355WA0130001398
B1843394103541N00351346WA0129901397
B1843404103539N00351336WA0129701395
B1843414103538N00351326WA0129501394
B1843424103537N00351317WA0129401393
B1843434103536N00351307WA0129401391
B1843444103536N00351297WA0129201390
B1843454103535N00351288WA0129001388
B1843464103535N00351278WA0128901386
B1843474103535N00351269WA0128701384
B1843484103535N00351259WA0128501382
B1843494103537N00351250WA0128401380
B1843504103539N00351241WA0128301379
B1843514103541N00351232WA0128101377
B1843524103543N00351223WA0127901375
B1843534103545N00351215WA0127901373
B1843544103547N00351206WA0127801372
B1843554103549N00351198WA0127601370
B1843564103550N00351189WA0127501369
B1843574103552N00351180WA0127301367
B1843584103553N00351172WA0127201366
B1843594103555N00351162WA0127101364
B1844004103555N00351153WA0127001363
B1844014103555N00351143WA0126901362
B1844024103555N00351134WA0126801361
B1844034103556N00351125WA0126801360
B1844044103556N00351115WA0126601358
B1844054103558N00351106WA0126501357
B1844064103559N00351097WA0126501356
B1844074103560N00351087WA0126401355
B1844084103561N00351078WA0126401355
B1844094103561N00351069WA0126401355
B1844104103560N00351060WA0126301354
B1844114103558N00351051WA0126201353
B1844124103556N00351042WA0126101352
B1844134103553N00351032WA0126001351
B1844144103550N00351023WA0125801349
B1844154103546N00351014WA0125801349
B1844164103543N00351005WA0125801348
B1844174103541N00350996WA0125701347
B1844184103540N00350987WA0125701347
B1844194103538N00350978WA0125601346
B1844204103538N00350969WA0125401344
B1844214103538N00350960WA0125301343
B1844224103538N00350951WA0125201342
B1844234103539N00350942WA0125101342
B1844244103539N00350933WA0125101341
B1844254103540N00350924WA0125101341
B1844264103540N00350915WA0125101340
B1844274103541N00350906WA0124801339
B1844284103542N00350897WA0124701337
B1844294103543N00350888WA0124601336
B1844304103543N00350879WA0124501335
B1844314103543N00350870WA0124301334
B1844324103542N00350860WA0124301334
B1844334103540N00350851WA0124401334
B1844344103538N00350842WA0124401335
B1844354103536N00350834WA0124301335
B1844364103533N00350826WA0124001334
B1844374103530N00350818WA0123801332
B1844384103526N00350809WA0123701331
B1844394103522N00350800WA0123601329
B1844404103520N00350790WA0123601329
B1844414103519N00350780WA0123601329
B1844424103519N00350772WA0123501328
B1844434103519N00350764WA0123401328
B1844444103520N00350756WA0123301327
B1844454103522N00350748WA0123101325
B1844464103524N00350740WA0122901323
B1844474103526N00350732WA0122901322
B1844484103529N00350725WA0122901321
B1844494103531N00350718WA0122801321
B1844504103534N00350711WA0122601319
B1844514103537N00350705WA0122601318
B1844524103539N00350698WA0122501317
B1844534103542N00350691WA0122401316
B1844544103545N00350685WA0122401316
B1844554103548N00350678WA0122401315
B1844564103550N00350671WA0122201314
B1844574103552N00350664WA0122201313
B1844584103553N00350657WA0122101312
B1844594103555N00350649WA0122001311
B1845004103557N00350641WA0121901310
B1845014103559N00350634WA0121901308
B1845024103562N00350627WA0121801308
B1845034103564N00350621WA0121701307
B1845044103567N00350614WA0121601306
B1845054103569N00350608WA0121401305
B1845064103572N00350601WA0121301303
B1845074103575N00350595WA0121101301
B1845084103578N00350588WA0121001300
B1845094103581N00350581WA0121101300
B1845104103585N00350575WA0121001299
B1845114103587N00350568WA0120901299
B1845124103590N00350562WA0120801298
B1845134103592N00350555WA0120801297
B1845144103594N00350547WA0120701297
B1845154103595N00350538WA0120601296
B1845164103596N00350529WA0120401295
B1845174103595N00350521WA0120401295
B1845184103594N00350512WA0120301294
B1845194103593N00350503WA0120201293
B1845204103593N00350494WA0120101292
B1845214103593N00350486WA0120001291
B1845224103594N00350478WA0119901290
B1845234103596N00350470WA0119801288
B1845244103598N00350462WA0119701287
B1845254103599N00350454WA0119501286
B1845264103601N00350446WA0119501285
B1845274103603N00350439WA0119401284
B1845284103605N00350431WA0119401283
B1845294103606N00350423WA0119301282
B1845304103607N00350415WA0119101281
B1845314103608N00350407WA0119001280
B1845324103610N00350398WA0119001279
B1845334103612N00350391WA0118901279
B1845344103614N00350384WA0118801278
B1845354103617N00350377WA0118701278
B1845364103620N00350371WA0118601277
B1845374103622N00350365WA0118501276
B1845384103625N00350359WA0118501275
B1845394103629N00350354WA0118301274
B1845404103632N00350348WA0118301273
B1845414103636N00350343WA0118201272
B1845424103639N00350338WA0118101271
B1845434103643N00350334WA0118001271
B1845444103647N00350330WA0117901269
B1845454103650N00350325WA0117701268
B1845464103654N00350320WA0117601266
B1845474103657N00350314WA0117601265
B1845484103660N00350308WA0117701264
B1845494103664N00350302WA0117401263
B1845504103667N00350297WA0117301262
B1845514103670N00350291WA0117301262
B1845524103672N00350284WA0117201261
B1845534103674N00350277WA0117201261
B1845544103676N00350269WA0117001260
B1845554103677N00350261WA0116901259
B1845564103679N00350254WA0116801258
B1845574103681N00350247WA0116701256
B1845584103683N00350240WA0116501254
B1845594103687N00350235WA0116301253
B1846004103691N00350230WA0116201251
B1846014103695N00350225WA0116201251
B1846024103699N00350221WA0116101250
B1846034103703N00350217WA0116001250
B1846044103707N00350213WA0116001248
B1846054103711N00350209WA0115801247
B1846064103715N00350205WA0115701246
B1846074103719N00350199WA0115701245
B1846084103722N00350192WA0115601244
B1846094103724N00350185WA0115601244
B1846104103726N00350179WA0115401243
B1846114103729N00350173WA0115201241
B1846124103731N00350167WA0115101240
B1846134103735N00350161WA0114801238
B1846144103740N00350156WA0114701236
B1846154103744N00350150WA0114601235
B1846164103748N00350144WA0114601234
B1846174103751N00350138WA0114601233
B1846184103754N00350132WA0114401232
B1846194103757N00350126WA0114201230
B1846204103761N00350120WA0114101228
B1846214103765N00350114WA0114101227
B1846224103769N00350108WA0114101227
B1846234103772N00350102WA0114001226
B1846244103776N00350097WA0113901225
B1846254103779N00350091WA0113701224
B1846264103782N00350085WA0113601223
B1846274103785N00350078WA0113401221
B1846284103787N00350071WA0113401220
B1846294103791N00350064WA0113401219
B1846304103793N00350058WA0113301219
B1846314103796N00350051WA0113201218
B1846324103799N00350045WA0113201217
B1846334103801N00350038WA0113001216
B1846344103803N00350031WA0112901215
B1846354103805N00350024WA0112801214
B1846364103806N00350017WA0112701213
B1846374103807N00350010WA0112601211
B1846384103808N00350003WA0112401210
B1846394103809N00349995WA0112401209
B1846404103810N00349988WA0112301208
B1846414103811N00349981WA0112301208
B1846424103813N00349976WA0112301207
B1846434103816N00349971WA0112101206
B1846444103820N00349966WA0111901205
B1846454103823N00349962WA0111901204
B1846464103826N00349958WA0111701203
B1846474103829N00349953WA0111701202
B1846484103832N00349948WA0111601201
B1846494103834N00349942WA0111501199
B1846504103837N00349937WA0111401198
B1846514103840N00349934WA0111201195
B1846524103845N00349933WA0110901193
B1846534103850N00349935WA0110601190
B1846544103854N00349940WA0110501188
B1846554103857N00349945WA0110501188
B1846564103859N00349950WA0110501187
B1846574103861N00349955WA0110401186
B1846584103862N00349961WA0110301185
B1846594103863N00349966WA0110101183
B1847004103864N00349971WA0110001182
B1847014103864N00349975WA0110001182
B1847024103865N00349978WA0110001181
B1847034103865N00349980WA0110001181
B1847044103866N00349981WA0110001181
B1847054103865N00349980WA0110001181
B1847064103865N00349980WA0110001181
B1847074103865N00349979WA0110001181
B1847084103866N00349978WA0110001181
B1847094103866N00349978WA0110001181
B1847104103866N00349978WA0110001181
B1847114103866N00349978WA0110001181
B1847124103866N00349978WA0110001181
B1847134103866N00349978WA0110001181
B1847144103866N00349978WA0110001181
B1847154103865N00349978WA0110001181
B1847164103865N00349978WA0110001181
B1847174103865N00349978WA0110001181
B1847184103865N00349978WA0110001181
B1847194103865N00349978WA0110001181
B1847204103865N00349978WA0110001181
B1847214103865N00349978WA0110001181
B1847224103865N00349978WA0110001181
B1847234103865N00349978WA0110001181
B1847244103865N00349978WA0110001181
B1847254103865N00349978WA0110001181
B1847264103865N00349978WA0110001181
B1847274103865N00349978WA0110001181
B1847284103865N00349977WA0110001181
B1847294103865N00349977WA0110001181
B1847304103865N00349977WA0110001181
B1847314103865N00349977WA0110001181
B1847324103865N00349977WA0110001181
B1847334103865N00349977WA0110001181
B1847344103865N00349977WA0110001182
B1847354103865N00349977WA0110001182
B1847364103865N00349977WA0109901181
B1847374103866N00349977WA0109901181
B1847384103866N00349978WA0109901181
B1847394103866N00349978WA0109901181
B1847404103866N00349978WA0109901181
B1847414103866N00349978WA0109901181
B1847424103866N00349978WA0109901181
B1847434103866N00349978WA0109901181
B1847444103866N00349978WA0109901181
B1847454103866N00349978WA0109901181
B1847464103866N00349978WA0109901181
B1847474103866N00349977WA0109901181
B1847484103866N00349977WA0109901181
B1847494103866N00349977WA0109901181
B1847504103866N00349977WA0109901181
B1847514103866N00349977WA0109901181
B1847524103866N00349977WA0109901181
B1847534103866N00349977WA0109901181
B1847544103866N00349977WA0109901181
B1847554103866N00349977WA0109901181
B1847564103866N00349977WA0109901181
B1847574103866N00349977WA0109901181
B1847584103866N00349977WA0109901181
B1847594103865N00349977WA0109901181
B1848004103865N00349978WA0109901181
B1848014103865N00349978WA0109901181
B1848024103865N00349978WA0109901181
B1848034103865N00349978WA0109901181
B1848044103865N00349978WA0109901181
B1848054103865N00349978WA0109901181
B1848064103865N00349978WA0109901181
B1848074103865N00349978WA0109901181
B1848084103865N00349978WA0109901181
B1848094103865N00349978WA0109901181
B1848104103865N00349978WA0109901181
B1848114103865N00349978WA0109901181
B1848124103865N00349978WA0109901181
B1848134103865N00349978WA0109901181
B1848144103865N00349978WA0109901181
B1848154103865N00349978WA0109901181
B1848164103865N00349978WA0109901181
B1848174103865N00349978WA0109901181
B1848184103865N00349978WA0109901181
B1848194103865N00349978WA0109901181
B1848204103865N00349978WA0109901181
B1848214103865N00349978WA0109901181
B1848224103865N00349978WA0109901181
B1848234103865N00349978WA0109901181
B1848244103865N00349978WA0109901181
B1848254103865N00349978WA0109901181
B1848264103865N00349978WA0109901181
B1848274103865N00349978WA0109901181
B1848284103865N00349978WA0109901181
B1848294103865N00349978WA0109901181
B1848304103865N00349978WA0109901181
B1848314103865N00349978WA0109901181
B1848324103865N00349978WA0109901181
B1848334103865N00349978WA0109901181
B1848344103865N00349978WA0109901181
B1848354103865N00349978WA0109901181
B1848364103865N00349978WA0109901181
B1848374103865N00349978WA0109901181
B1848384103865N00349978WA0109901181
B1848394103865N00349978WA0109901181
B1848404103865N00349978WA0109901181
B1848414103865N00349978WA0109901181
B1848424103865N00349978WA0109901181
B1848434103865N00349978WA0109901181
B1848444103865N00349978WA0109901181
B1848454103865N00349978WA0109901181
B1848464103865N00349978WA0109901181
B1848474103865N00349978WA0109901181
B1848484103865N00349978WA0109901181
B1848494103865N00349978WA0109901181
B1848504103865N00349978WA0109901181
B1848514103865N00349978WA0109901181
B1848524103865N00349978WA0109901181
B1848534103865N00349978WA0109901181
B1848544103865N00349978WA0109901181
B1848554103865N00349978WA0109901181
B1848564103865N00349978WA0109901181
B1848574103865N00349978WA0109901181
B1848584103865N00349978WA0109901181
B1848594103865N00349978WA0109901181
B1849004103865N00349978WA0109901181
B1849014103865N00349978WA0109901181
B1849024103865N00349978WA0109901181
B1849034103865N00349978WA0109901181
B1849044103865N00349978WA0109901181
B1849054103865N00349978WA0109901181
B1849064103865N00349978WA0109901181
B1849074103865N00349978WA0109901181
B1849084103865N00349978WA0109901181
B1849094103865N00349979WA0109901181
B1849104103865N00349979WA0109901181
B1849114103865N00349979WA0109901181
B1849124103865N00349979WA0109901181
B1849134103865N00349979WA0109901181
B1849144103865N00349979WA0109901181
B1849154103865N00349979WA0109901181
B1849164103865N00349979WA0109901181
B1849174103865N00349979WA0109901181
B1849184103865N00349979WA0109901181
B1849194103865N00349979WA0109901181
B1849204103865N00349979WA0109901181
B1849214103865N00349979WA0109901181
B1849224103865N00349979WA0109901181
B1849234103865N00349979WA0109901181
B1849244103865N00349979WA0109901181
B1849254103865N00349979WA0109901181
B1849264103865N00349979WA0109901181
B1849274103865N00349979WA0109901181
B1849284103865N00349979WA0109901181
B1849294103865N00349979WA0109901181
B1849304103865N00349979WA0109901181
B1849314103865N00349979WA0109901181
B1849324103865N00349979WA0109901181
B1849334103865N00349979WA0109901181
B1849344103865N00349979WA0109901181
B1849354103865N00349979WA0109901181
B1849364103865N00349979WA0109901181
B1849374103865N00349979WA0110001181
B1849384103865N00349979WA0109901181
B1849394103865N00349979WA0109901181
B1849404103865N00349979WA0109901181
B1849414103865N00349979WA0109901181
B1849424103865N00349979WA0109901181
B1849434103865N00349979WA0109901181
B1849444103865N00349979WA0109901181
B1849454103865N00349979WA0109901181
B1849464103865N00349979WA0109901181
B1849474103865N00349979WA0109901181
B1849484103865N00349979WA0109901181
B1849494103865N00349979WA0109901181
B1849504103865N00349979WA0109901181
B1849514103865N00349979WA0109901181
B1849524103865N00349979WA0109901181
B1849534103865N00349979WA0109901181
B1849544103865N00349979WA0109901181
B1849554103865N00349979WA0109901181
B1849564103865N00349979WA0109901181
B1849574103865N00349979WA0109901181
B1849584103865N00349979WA0109901181
B1849594103865N00349979WA0109901181
B1850004103865N00349979WA0109901181
B1850014103865N00349979WA0109901181
B1850024103865N00349979WA0109901181
B1850034103865N00349979WA0109901181
B1850044103865N00349979WA0109901181
B1850054103865N00349979WA0109901181
B1850064103865N00349979WA0110001181
B1850074103865N00349979WA0110001181
B1850084103865N00349979WA0110101181
B1850094103865N00349978WA0110101181
B1850104103865N00349978WA0110101181
B1850114103865N00349978WA0110101181
B1850124103865N00349978WA0110001181
B1850134103865N00349978WA0110101181
B1850144103865N00349978WA0110001181
B1850154103865N00349978WA0110101181
B1850164103865N00349978WA0110001181
B1850174103865N00349978WA0110001181
B1850184103865N00349978WA0110001181
B1850194103865N00349978WA0110001181
B1850204103865N00349978WA0110001181
B1850214103865N00349978WA0110001181
G0d3f75cef0fccd96
G5ce4d63ba9913eb4
G799e1c43b4f474e9
Gf7a056b3f6e2e7cd
G33e057f83bc21a8e
Ge342af324ad90b7a
G4378bef4fe7d9291
G92108fa08803dfee
